<?xml version='1.0' encoding='UTF-8'?><gpx version="1.1" creator="JPX - https://github.com/jenetics/jpx" xmlns="http://www.topografix.com/GPX/1/1"><trk><trkseg><trkpt lat="37.2610279853418" lon="13.588503836566693"><ele>7.999999999999999</ele><time>2026-03-29T09:17:11Z</time></trkpt><trkpt lat="37.261093097679755" lon="13.588563727867857"><ele>8.0</ele><time>2026-03-29T09:17:20Z</time></trkpt><trkpt lat="37.261138964271446" lon="13.588640134641574"><ele>8.0</ele><time>2026-03-29T09:17:42Z</time></trkpt><trkpt lat="37.26117183302515" lon="13.588748967854112"><ele>8.0</ele><time>2026-03-29T09:17:46Z</time></trkpt><trkpt lat="37.26114910603231" lon="13.588827908911744"><ele>7.999999999999999</ele><time>2026-03-29T09:17:50Z</time></trkpt><trkpt lat="37.261179043176284" lon="13.588917725750779"><ele>8.0</ele><time>2026-03-29T09:17:57Z</time></trkpt><trkpt lat="37.26126945558038" lon="13.588943084493744"><ele>8.142857142857142</ele><time>2026-03-29T09:17:59Z</time></trkpt><trkpt lat="37.261354781923146" lon="13.588971138773887"><ele>8.285714285714285</ele><time>2026-03-29T09:18:01Z</time></trkpt><trkpt lat="37.261416403461105" lon="13.588988778025904"><ele>8.428571428571429</ele><time>2026-03-29T09:18:11Z</time></trkpt><trkpt lat="37.26147896657955" lon="13.58900566402735"><ele>8.571428571428571</ele><time>2026-03-29T09:18:21Z</time></trkpt><trkpt lat="37.26154052695021" lon="13.58902432201195"><ele>8.714285714285715</ele><time>2026-03-29T09:18:25Z</time></trkpt><trkpt lat="37.26162694091026" lon="13.589048220455417"><ele>8.857142857142858</ele><time>2026-03-29T09:18:34Z</time></trkpt><trkpt lat="37.26170251910264" lon="13.58906622981253"><ele>9.0</ele><time>2026-03-29T09:18:37Z</time></trkpt><trkpt lat="37.26180312031837" lon="13.589072260362798"><ele>9.5</ele><time>2026-03-29T09:18:40Z</time></trkpt><trkpt lat="37.261908413923386" lon="13.589108613010882"><ele>10.0</ele><time>2026-03-29T09:18:41Z</time></trkpt><trkpt lat="37.26203540599463" lon="13.589164565116151"><ele>10.5</ele><time>2026-03-29T09:18:42Z</time></trkpt><trkpt lat="37.26216976748805" lon="13.589218769272783"><ele>11.0</ele><time>2026-03-29T09:18:43Z</time></trkpt><trkpt lat="37.2623017249286" lon="13.589253203064237"><ele>12.0</ele><time>2026-03-29T09:18:44Z</time></trkpt><trkpt lat="37.26241592122392" lon="13.589284810741175"><ele>13.0</ele><time>2026-03-29T09:18:45Z</time></trkpt><trkpt lat="37.262514292068246" lon="13.58931432039712"><ele>14.000000000000002</ele><time>2026-03-29T09:18:46Z</time></trkpt><trkpt lat="37.26259804765377" lon="13.589340023420608"><ele>15.0</ele><time>2026-03-29T09:18:47Z</time></trkpt><trkpt lat="37.262675579609144" lon="13.589387442152596"><ele>16.0</ele><time>2026-03-29T09:18:48Z</time></trkpt><trkpt lat="37.26276303343135" lon="13.589392642471395"><ele>15.999999999999998</ele><time>2026-03-29T09:18:49Z</time></trkpt><trkpt lat="37.262843250606096" lon="13.589416077998756"><ele>16.0</ele><time>2026-03-29T09:18:50Z</time></trkpt><trkpt lat="37.26291661915061" lon="13.589459083058516"><ele>16.0</ele><time>2026-03-29T09:18:51Z</time></trkpt><trkpt lat="37.262994654098144" lon="13.589482276326128"><ele>16.0</ele><time>2026-03-29T09:18:52Z</time></trkpt><trkpt lat="37.26307330026592" lon="13.589507644273391"><ele>15.999999999999998</ele><time>2026-03-29T09:18:53Z</time></trkpt><trkpt lat="37.26315321028088" lon="13.589533273015068"><ele>16.0</ele><time>2026-03-29T09:18:55Z</time></trkpt><trkpt lat="37.26322768156562" lon="13.589557157446023"><ele>16.333333333333332</ele><time>2026-03-29T09:19:00Z</time></trkpt><trkpt lat="37.263311265396986" lon="13.589583964452006"><ele>16.666666666666664</ele><time>2026-03-29T09:19:04Z</time></trkpt><trkpt lat="37.26343440889358" lon="13.589623459033698"><ele>17.0</ele><time>2026-03-29T09:19:06Z</time></trkpt><trkpt lat="37.26350502412941" lon="13.589646106752964"><ele>17.333333333333332</ele><time>2026-03-29T09:19:07Z</time></trkpt><trkpt lat="37.26357075507922" lon="13.58966718798201"><ele>17.666666666666668</ele><time>2026-03-29T09:19:08Z</time></trkpt><trkpt lat="37.26364385960687" lon="13.589690634067964"><ele>18.0</ele><time>2026-03-29T09:19:09Z</time></trkpt><trkpt lat="37.263709263375034" lon="13.589711610364182"><ele>18.0</ele><time>2026-03-29T09:19:10Z</time></trkpt><trkpt lat="37.263772363609604" lon="13.58973171854448"><ele>18.0</ele><time>2026-03-29T09:19:11Z</time></trkpt><trkpt lat="37.263836133965164" lon="13.589751810338898"><ele>18.0</ele><time>2026-03-29T09:19:12Z</time></trkpt><trkpt lat="37.26390973632254" lon="13.58977499985203"><ele>18.0</ele><time>2026-03-29T09:19:13Z</time></trkpt><trkpt lat="37.26398918704975" lon="13.58980003197592"><ele>18.0</ele><time>2026-03-29T09:19:14Z</time></trkpt><trkpt lat="37.2640696728426" lon="13.589825390217538"><ele>18.0</ele><time>2026-03-29T09:19:15Z</time></trkpt><trkpt lat="37.264149057069226" lon="13.589850800411494"><ele>18.5</ele><time>2026-03-29T09:19:16Z</time></trkpt><trkpt lat="37.26423263837916" lon="13.589881848434425"><ele>19.0</ele><time>2026-03-29T09:19:17Z</time></trkpt><trkpt lat="37.26431179498036" lon="13.58991713146556"><ele>19.5</ele><time>2026-03-29T09:19:18Z</time></trkpt><trkpt lat="37.26438582419447" lon="13.589959625390955"><ele>20.0</ele><time>2026-03-29T09:19:19Z</time></trkpt><trkpt lat="37.26446237349081" lon="13.590010530968387"><ele>20.5</ele><time>2026-03-29T09:19:20Z</time></trkpt><trkpt lat="37.264537545406306" lon="13.590062745251611"><ele>21.0</ele><time>2026-03-29T09:19:21Z</time></trkpt><trkpt lat="37.26460841856886" lon="13.590109335068393"><ele>21.0</ele><time>2026-03-29T09:19:22Z</time></trkpt><trkpt lat="37.26468154381837" lon="13.59015901987871"><ele>21.0</ele><time>2026-03-29T09:19:23Z</time></trkpt><trkpt lat="37.26476326357992" lon="13.590199352960454"><ele>21.0</ele><time>2026-03-29T09:19:24Z</time></trkpt><trkpt lat="37.26483866893681" lon="13.590254692095158"><ele>21.0</ele><time>2026-03-29T09:19:25Z</time></trkpt><trkpt lat="37.26491557995181" lon="13.590316748136537"><ele>21.0</ele><time>2026-03-29T09:19:26Z</time></trkpt><trkpt lat="37.26498713700333" lon="13.590392209578633"><ele>21.0</ele><time>2026-03-29T09:19:27Z</time></trkpt><trkpt lat="37.265074634095356" lon="13.590440778088734"><ele>20.6</ele><time>2026-03-29T09:19:28Z</time></trkpt><trkpt lat="37.2651557215789" lon="13.590503017254083"><ele>20.200000000000003</ele><time>2026-03-29T09:19:29Z</time></trkpt><trkpt lat="37.26523608433651" lon="13.59056199082928"><ele>19.799999999999997</ele><time>2026-03-29T09:19:30Z</time></trkpt><trkpt lat="37.2653134971906" lon="13.590623288606173"><ele>19.4</ele><time>2026-03-29T09:19:31Z</time></trkpt><trkpt lat="37.265392239169906" lon="13.590684803541048"><ele>19.0</ele><time>2026-03-29T09:19:32Z</time></trkpt><trkpt lat="37.26547368660294" lon="13.59074494483366"><ele>19.0</ele><time>2026-03-29T09:19:33Z</time></trkpt><trkpt lat="37.26554730621935" lon="13.590797766252962"><ele>19.0</ele><time>2026-03-29T09:19:34Z</time></trkpt><trkpt lat="37.26562505623677" lon="13.590853298751446"><ele>19.0</ele><time>2026-03-29T09:19:35Z</time></trkpt><trkpt lat="37.265698739237614" lon="13.590908010842696"><ele>19.0</ele><time>2026-03-29T09:19:36Z</time></trkpt><trkpt lat="37.265774179704216" lon="13.590965444344477"><ele>19.0</ele><time>2026-03-29T09:19:37Z</time></trkpt><trkpt lat="37.265840585829096" lon="13.591026367463217"><ele>19.0</ele><time>2026-03-29T09:19:38Z</time></trkpt><trkpt lat="37.265916174642406" lon="13.591077657282572"><ele>19.5</ele><time>2026-03-29T09:19:39Z</time></trkpt><trkpt lat="37.26597172056833" lon="13.591121194450661"><ele>20.0</ele><time>2026-03-29T09:19:40Z</time></trkpt><trkpt lat="37.266070864875" lon="13.59119216372485"><ele>20.5</ele><time>2026-03-29T09:19:42Z</time></trkpt><trkpt lat="37.266128982451" lon="13.591233378175692"><ele>21.0</ele><time>2026-03-29T09:19:43Z</time></trkpt><trkpt lat="37.266188727557484" lon="13.591276983735138"><ele>21.5</ele><time>2026-03-29T09:19:44Z</time></trkpt><trkpt lat="37.266242741012725" lon="13.591320289770927"><ele>22.0</ele><time>2026-03-29T09:19:45Z</time></trkpt><trkpt lat="37.26630468975755" lon="13.591366738523497"><ele>22.0</ele><time>2026-03-29T09:19:46Z</time></trkpt><trkpt lat="37.26637248017153" lon="13.591415681893187"><ele>22.0</ele><time>2026-03-29T09:19:47Z</time></trkpt><trkpt lat="37.26644361734681" lon="13.59146707866463"><ele>22.0</ele><time>2026-03-29T09:19:48Z</time></trkpt><trkpt lat="37.266505171645804" lon="13.591534380834899"><ele>22.0</ele><time>2026-03-29T09:19:49Z</time></trkpt><trkpt lat="37.266570422883945" lon="13.591582520871938"><ele>22.0</ele><time>2026-03-29T09:19:50Z</time></trkpt><trkpt lat="37.26662993973976" lon="13.591626430285295"><ele>22.0</ele><time>2026-03-29T09:19:51Z</time></trkpt><trkpt lat="37.266691674088385" lon="13.591648405866792"><ele>22.285714285714285</ele><time>2026-03-29T09:19:52Z</time></trkpt><trkpt lat="37.26675074865841" lon="13.591690917098978"><ele>22.57142857142857</ele><time>2026-03-29T09:19:53Z</time></trkpt><trkpt lat="37.266809433436634" lon="13.591755185451659"><ele>22.857142857142854</ele><time>2026-03-29T09:19:54Z</time></trkpt><trkpt lat="37.26687420846213" lon="13.591804252008243"><ele>23.142857142857142</ele><time>2026-03-29T09:19:55Z</time></trkpt><trkpt lat="37.266940037727345" lon="13.591841291960005"><ele>23.428571428571427</ele><time>2026-03-29T09:19:56Z</time></trkpt><trkpt lat="37.26700159536674" lon="13.591892673073463"><ele>23.71428571428571</ele><time>2026-03-29T09:19:57Z</time></trkpt><trkpt lat="37.26706794035934" lon="13.591942162933899"><ele>24.0</ele><time>2026-03-29T09:19:58Z</time></trkpt><trkpt lat="37.267138154191905" lon="13.591990214289144"><ele>23.799999999999997</ele><time>2026-03-29T09:19:59Z</time></trkpt><trkpt lat="37.26721558771768" lon="13.592042061306495"><ele>23.599999999999998</ele><time>2026-03-29T09:20:00Z</time></trkpt><trkpt lat="37.26729488955711" lon="13.592100610621824"><ele>23.4</ele><time>2026-03-29T09:20:01Z</time></trkpt><trkpt lat="37.26737731164996" lon="13.592163665007782"><ele>23.2</ele><time>2026-03-29T09:20:02Z</time></trkpt><trkpt lat="37.267460318971914" lon="13.592229056291092"><ele>23.0</ele><time>2026-03-29T09:20:03Z</time></trkpt><trkpt lat="37.267542268231864" lon="13.592294105131723"><ele>24.0</ele><time>2026-03-29T09:20:04Z</time></trkpt><trkpt lat="37.26762000678025" lon="13.59236080292213"><ele>25.0</ele><time>2026-03-29T09:20:05Z</time></trkpt><trkpt lat="37.26770554737319" lon="13.592421983142568"><ele>25.999999999999996</ele><time>2026-03-29T09:20:06Z</time></trkpt><trkpt lat="37.26778845670419" lon="13.592485979850032"><ele>27.0</ele><time>2026-03-29T09:20:07Z</time></trkpt><trkpt lat="37.26787206078509" lon="13.592551710921056"><ele>28.0</ele><time>2026-03-29T09:20:08Z</time></trkpt><trkpt lat="37.267958047061406" lon="13.592616962120132"><ele>28.0</ele><time>2026-03-29T09:20:08.999Z</time></trkpt><trkpt lat="37.26804374694465" lon="13.592680085009405"><ele>27.999999999999996</ele><time>2026-03-29T09:20:09.999Z</time></trkpt><trkpt lat="37.268127540641764" lon="13.592741972833377"><ele>27.999999999999996</ele><time>2026-03-29T09:20:10.999Z</time></trkpt><trkpt lat="37.26821187018242" lon="13.592804279029007"><ele>28.0</ele><time>2026-03-29T09:20:11.999Z</time></trkpt><trkpt lat="37.26829744854435" lon="13.59286863241412"><ele>28.0</ele><time>2026-03-29T09:20:12.999Z</time></trkpt><trkpt lat="37.268381975913286" lon="13.592932817444536"><ele>29.599999999999998</ele><time>2026-03-29T09:20:13.999Z</time></trkpt><trkpt lat="37.26846765959796" lon="13.592997168860329"><ele>31.199999999999996</ele><time>2026-03-29T09:20:14.999Z</time></trkpt><trkpt lat="37.26855416627398" lon="13.593061941141784"><ele>32.8</ele><time>2026-03-29T09:20:15.999Z</time></trkpt><trkpt lat="37.268642358732656" lon="13.593130501066728"><ele>34.4</ele><time>2026-03-29T09:20:16.999Z</time></trkpt><trkpt lat="37.26873177734793" lon="13.59319694239318"><ele>36.0</ele><time>2026-03-29T09:20:17.999Z</time></trkpt><trkpt lat="37.26882211505496" lon="13.59326583077074"><ele>36.0</ele><time>2026-03-29T09:20:18.999Z</time></trkpt><trkpt lat="37.268912562548046" lon="13.593337244022958"><ele>36.0</ele><time>2026-03-29T09:20:19.999Z</time></trkpt><trkpt lat="37.26900501438516" lon="13.593407998866658"><ele>36.0</ele><time>2026-03-29T09:20:20.999Z</time></trkpt><trkpt lat="37.269097948318844" lon="13.593476565809837"><ele>36.0</ele><time>2026-03-29T09:20:21.999Z</time></trkpt><trkpt lat="37.26918872034533" lon="13.593537985134837"><ele>36.0</ele><time>2026-03-29T09:20:22.999Z</time></trkpt><trkpt lat="37.2692841253741" lon="13.593589167785513"><ele>36.4</ele><time>2026-03-29T09:20:23.999Z</time></trkpt><trkpt lat="37.26938272864226" lon="13.593632118648914"><ele>36.8</ele><time>2026-03-29T09:20:24.999Z</time></trkpt><trkpt lat="37.26948503690429" lon="13.593669867535544"><ele>37.199999999999996</ele><time>2026-03-29T09:20:25.999Z</time></trkpt><trkpt lat="37.26959088561189" lon="13.593705547479859"><ele>37.6</ele><time>2026-03-29T09:20:26.999Z</time></trkpt><trkpt lat="37.2696957520938" lon="13.593741996753147"><ele>38.0</ele><time>2026-03-29T09:20:28Z</time></trkpt><trkpt lat="37.26979707462526" lon="13.593775895405315"><ele>39.0</ele><time>2026-03-29T09:20:29Z</time></trkpt><trkpt lat="37.269895282423384" lon="13.593810778514351"><ele>40.0</ele><time>2026-03-29T09:20:30Z</time></trkpt><trkpt lat="37.269989776301905" lon="13.593844395098312"><ele>41.0</ele><time>2026-03-29T09:20:31Z</time></trkpt><trkpt lat="37.270080227279344" lon="13.593877706006841"><ele>42.0</ele><time>2026-03-29T09:20:32Z</time></trkpt><trkpt lat="37.270173024475675" lon="13.59391050674176"><ele>43.0</ele><time>2026-03-29T09:20:33Z</time></trkpt><trkpt lat="37.27025270839381" lon="13.593936346546577"><ele>43.0</ele><time>2026-03-29T09:20:34Z</time></trkpt><trkpt lat="37.27031973882538" lon="13.593957327447479"><ele>43.0</ele><time>2026-03-29T09:20:35Z</time></trkpt><trkpt lat="37.27038339339072" lon="13.593978612068723"><ele>43.0</ele><time>2026-03-29T09:20:36Z</time></trkpt><trkpt lat="37.270477172922774" lon="13.594011372710627"><ele>43.0</ele><time>2026-03-29T09:20:38Z</time></trkpt><trkpt lat="37.27055698437665" lon="13.594048003070558"><ele>43.0</ele><time>2026-03-29T09:20:41Z</time></trkpt><trkpt lat="37.27065023778185" lon="13.59408467846269"><ele>43.0</ele><time>2026-03-29T09:20:44Z</time></trkpt><trkpt lat="37.27074588106394" lon="13.594110437700472"><ele>44.16666666666667</ele><time>2026-03-29T09:20:46Z</time></trkpt><trkpt lat="37.27086552001406" lon="13.594146366002079"><ele>45.333333333333336</ele><time>2026-03-29T09:20:48Z</time></trkpt><trkpt lat="37.27093025094985" lon="13.594169318930907"><ele>46.5</ele><time>2026-03-29T09:20:49Z</time></trkpt><trkpt lat="37.270995029402215" lon="13.594191908457168"><ele>47.66666666666667</ele><time>2026-03-29T09:20:50Z</time></trkpt><trkpt lat="37.271069086555" lon="13.594216643341605"><ele>48.833333333333336</ele><time>2026-03-29T09:20:51Z</time></trkpt><trkpt lat="37.27115011828382" lon="13.59424060984001"><ele>50.0</ele><time>2026-03-29T09:20:52Z</time></trkpt><trkpt lat="37.271232321838426" lon="13.594261369629388"><ele>50.0</ele><time>2026-03-29T09:20:53Z</time></trkpt><trkpt lat="37.27131810940336" lon="13.59428357592144"><ele>50.0</ele><time>2026-03-29T09:20:54Z</time></trkpt><trkpt lat="37.27140144068242" lon="13.594305196738718"><ele>50.0</ele><time>2026-03-29T09:20:55Z</time></trkpt><trkpt lat="37.271484111878806" lon="13.594327615459298"><ele>50.0</ele><time>2026-03-29T09:20:56Z</time></trkpt><trkpt lat="37.27157650382156" lon="13.594354706352888"><ele>50.0</ele><time>2026-03-29T09:20:57Z</time></trkpt><trkpt lat="37.2716768595542" lon="13.594381993173743"><ele>50.0</ele><time>2026-03-29T09:20:58Z</time></trkpt><trkpt lat="37.27179731044488" lon="13.594413176206105"><ele>50.0</ele><time>2026-03-29T09:20:59Z</time></trkpt><trkpt lat="37.27193751609338" lon="13.5944426639601"><ele>50.0</ele><time>2026-03-29T09:21:00Z</time></trkpt><trkpt lat="37.272101971806954" lon="13.594508820986295"><ele>50.0</ele><time>2026-03-29T09:21:01Z</time></trkpt><trkpt lat="37.272271022779556" lon="13.594539160117185"><ele>50.75</ele><time>2026-03-29T09:21:02Z</time></trkpt><trkpt lat="37.27240785506297" lon="13.594579261341803"><ele>51.5</ele><time>2026-03-29T09:21:03Z</time></trkpt><trkpt lat="37.27253862800822" lon="13.594613474591807"><ele>52.25</ele><time>2026-03-29T09:21:04Z</time></trkpt><trkpt lat="37.272680584232205" lon="13.594653266856927"><ele>53.0</ele><time>2026-03-29T09:21:05Z</time></trkpt><trkpt lat="37.27282418884948" lon="13.59469352012891"><ele>53.0</ele><time>2026-03-29T09:21:06Z</time></trkpt><trkpt lat="37.2729772674723" lon="13.594733571377512"><ele>53.0</ele><time>2026-03-29T09:21:07Z</time></trkpt><trkpt lat="37.27310946964029" lon="13.594768886329495"><ele>53.0</ele><time>2026-03-29T09:21:08Z</time></trkpt><trkpt lat="37.273229865810634" lon="13.594806504074816"><ele>53.0</ele><time>2026-03-29T09:21:09Z</time></trkpt><trkpt lat="37.27334793759546" lon="13.594844842075105"><ele>53.8</ele><time>2026-03-29T09:21:10Z</time></trkpt><trkpt lat="37.27345440947662" lon="13.594882541194377"><ele>54.599999999999994</ele><time>2026-03-29T09:21:11Z</time></trkpt><trkpt lat="37.27355547947733" lon="13.594931443361824"><ele>55.400000000000006</ele><time>2026-03-29T09:21:12Z</time></trkpt><trkpt lat="37.27363743717576" lon="13.595012486608908"><ele>56.2</ele><time>2026-03-29T09:21:13Z</time></trkpt><trkpt lat="37.273718863157725" lon="13.595095301427197"><ele>57.0</ele><time>2026-03-29T09:21:14Z</time></trkpt><trkpt lat="37.27380881325315" lon="13.59517787693652"><ele>57.0</ele><time>2026-03-29T09:21:15Z</time></trkpt><trkpt lat="37.27389120536261" lon="13.595291536396394"><ele>57.0</ele><time>2026-03-29T09:21:16Z</time></trkpt><trkpt lat="37.273980350774806" lon="13.595407469474935"><ele>57.0</ele><time>2026-03-29T09:21:17Z</time></trkpt><trkpt lat="37.27407427926523" lon="13.595526140055044"><ele>57.0</ele><time>2026-03-29T09:21:18Z</time></trkpt><trkpt lat="37.27416841147666" lon="13.595643673370185"><ele>57.75</ele><time>2026-03-29T09:21:19Z</time></trkpt><trkpt lat="37.27426543703488" lon="13.595760668022418"><ele>58.5</ele><time>2026-03-29T09:21:20Z</time></trkpt><trkpt lat="37.27435579768245" lon="13.595869468745219"><ele>59.25</ele><time>2026-03-29T09:21:21Z</time></trkpt><trkpt lat="37.27444105395955" lon="13.59597552720495"><ele>60.0</ele><time>2026-03-29T09:21:22Z</time></trkpt><trkpt lat="37.274517260458815" lon="13.596072409391125"><ele>60.0</ele><time>2026-03-29T09:21:23Z</time></trkpt><trkpt lat="37.274588286956714" lon="13.59616456311497"><ele>60.0</ele><time>2026-03-29T09:21:24Z</time></trkpt><trkpt lat="37.27465056507442" lon="13.59624496327764"><ele>60.0</ele><time>2026-03-29T09:21:25Z</time></trkpt><trkpt lat="37.27469693382825" lon="13.596308047452494"><ele>60.0</ele><time>2026-03-29T09:21:26Z</time></trkpt><trkpt lat="37.2747562706077" lon="13.596380955110128"><ele>60.0</ele><time>2026-03-29T09:21:28Z</time></trkpt><trkpt lat="37.2748059217106" lon="13.596440971532791"><ele>60.0</ele><time>2026-03-29T09:21:31Z</time></trkpt><trkpt lat="37.27484315431214" lon="13.59652209217343"><ele>60.5</ele><time>2026-03-29T09:21:45Z</time></trkpt><trkpt lat="37.27488807593056" lon="13.59658236774291"><ele>61.0</ele><time>2026-03-29T09:21:46Z</time></trkpt><trkpt lat="37.27493783969761" lon="13.596646509956583"><ele>61.5</ele><time>2026-03-29T09:21:47Z</time></trkpt><trkpt lat="37.275011559184755" lon="13.596737852056744"><ele>62.0</ele><time>2026-03-29T09:21:49Z</time></trkpt><trkpt lat="37.275055413068145" lon="13.596803465842953"><ele>62.5</ele><time>2026-03-29T09:21:52Z</time></trkpt><trkpt lat="37.275096748065" lon="13.596899275045175"><ele>63.0</ele><time>2026-03-29T09:21:55Z</time></trkpt><trkpt lat="37.2750398405724" lon="13.597061605493186"><ele>63.5</ele><time>2026-03-29T09:21:58Z</time></trkpt><trkpt lat="37.27492886955229" lon="13.597152051438217"><ele>64.0</ele><time>2026-03-29T09:22:00Z</time></trkpt><trkpt lat="37.27484349289123" lon="13.597237298061431"><ele>64.5</ele><time>2026-03-29T09:22:01Z</time></trkpt><trkpt lat="37.27471963803013" lon="13.597318882964615"><ele>65.0</ele><time>2026-03-29T09:22:02Z</time></trkpt><trkpt lat="37.27460985452462" lon="13.597428018197043"><ele>65.0</ele><time>2026-03-29T09:22:03Z</time></trkpt><trkpt lat="37.27449718132755" lon="13.597521018471667"><ele>65.0</ele><time>2026-03-29T09:22:04Z</time></trkpt><trkpt lat="37.2743910644966" lon="13.597609834946105"><ele>65.0</ele><time>2026-03-29T09:22:05Z</time></trkpt><trkpt lat="37.27429360004991" lon="13.597688636300493"><ele>65.0</ele><time>2026-03-29T09:22:06Z</time></trkpt><trkpt lat="37.27420318991478" lon="13.597758335213419"><ele>65.0</ele><time>2026-03-29T09:22:07Z</time></trkpt><trkpt lat="37.274112210128195" lon="13.597820656355873"><ele>65.0</ele><time>2026-03-29T09:22:08Z</time></trkpt><trkpt lat="37.274003360427294" lon="13.597883344679762"><ele>65.0</ele><time>2026-03-29T09:22:09Z</time></trkpt><trkpt lat="37.273888584043284" lon="13.597941058651655"><ele>65.0</ele><time>2026-03-29T09:22:10Z</time></trkpt><trkpt lat="37.27377722160868" lon="13.597994234698852"><ele>65.33333333333334</ele><time>2026-03-29T09:22:11Z</time></trkpt><trkpt lat="37.27368078876657" lon="13.598041709523645"><ele>65.66666666666667</ele><time>2026-03-29T09:22:12Z</time></trkpt><trkpt lat="37.273594698383036" lon="13.59808412093751"><ele>66.0</ele><time>2026-03-29T09:22:13Z</time></trkpt><trkpt lat="37.273524347584136" lon="13.598119354996152"><ele>66.33333333333333</ele><time>2026-03-29T09:22:14Z</time></trkpt><trkpt lat="37.27346392050304" lon="13.598151920749713"><ele>66.66666666666666</ele><time>2026-03-29T09:22:14.999Z</time></trkpt><trkpt lat="37.273385344151954" lon="13.598175911713449"><ele>67.0</ele><time>2026-03-29T09:22:16.999Z</time></trkpt><trkpt lat="37.273451470005085" lon="13.598348238639446"><ele>67.0</ele><time>2026-03-29T09:22:18.999Z</time></trkpt><trkpt lat="37.273510062489585" lon="13.598415119089418"><ele>67.0</ele><time>2026-03-29T09:22:19.999Z</time></trkpt><trkpt lat="37.273575086200445" lon="13.598495295412757"><ele>67.0</ele><time>2026-03-29T09:22:20.999Z</time></trkpt><trkpt lat="37.273642700329624" lon="13.5985877664422"><ele>67.0</ele><time>2026-03-29T09:22:21.999Z</time></trkpt><trkpt lat="37.27371483423327" lon="13.598684709711078"><ele>67.0</ele><time>2026-03-29T09:22:22.999Z</time></trkpt><trkpt lat="37.27378882047958" lon="13.598784329255764"><ele>68.0</ele><time>2026-03-29T09:22:23.999Z</time></trkpt><trkpt lat="37.27385823652808" lon="13.598879669390845"><ele>69.0</ele><time>2026-03-29T09:22:24.999Z</time></trkpt><trkpt lat="37.2739304378165" lon="13.598987422175453"><ele>70.0</ele><time>2026-03-29T09:22:25.999Z</time></trkpt><trkpt lat="37.2740098228614" lon="13.599098652807092"><ele>71.0</ele><time>2026-03-29T09:22:26.999Z</time></trkpt><trkpt lat="37.274085352572506" lon="13.599208912073703"><ele>71.39999999999999</ele><time>2026-03-29T09:22:27.999Z</time></trkpt><trkpt lat="37.27415711843193" lon="13.59931750441595"><ele>71.8</ele><time>2026-03-29T09:22:28.999Z</time></trkpt><trkpt lat="37.27422789437296" lon="13.599406641441847"><ele>72.19999999999999</ele><time>2026-03-29T09:22:29.999Z</time></trkpt><trkpt lat="37.27429075402824" lon="13.599499528816125"><ele>72.6</ele><time>2026-03-29T09:22:30.999Z</time></trkpt><trkpt lat="37.27435467554688" lon="13.599596052611254"><ele>73.0</ele><time>2026-03-29T09:22:31.999Z</time></trkpt><trkpt lat="37.27438494667575" lon="13.599724901541823"><ele>73.6</ele><time>2026-03-29T09:22:32.999Z</time></trkpt><trkpt lat="37.27445775439072" lon="13.599827843090335"><ele>74.19999999999999</ele><time>2026-03-29T09:22:33.999Z</time></trkpt><trkpt lat="37.27451193457051" lon="13.599946166573954"><ele>74.8</ele><time>2026-03-29T09:22:34.999Z</time></trkpt><trkpt lat="37.27457701659977" lon="13.600058116157687"><ele>75.39999999999999</ele><time>2026-03-29T09:22:35.999Z</time></trkpt><trkpt lat="37.27464236630921" lon="13.60016987167469"><ele>76.0</ele><time>2026-03-29T09:22:36.999Z</time></trkpt><trkpt lat="37.2746922154959" lon="13.600297961564062"><ele>77.0</ele><time>2026-03-29T09:22:37.999Z</time></trkpt><trkpt lat="37.27476486530316" lon="13.600401386192054"><ele>78.0</ele><time>2026-03-29T09:22:38.999Z</time></trkpt><trkpt lat="37.27481952897196" lon="13.60052979437024"><ele>79.0</ele><time>2026-03-29T09:22:39.999Z</time></trkpt><trkpt lat="37.274898475947026" lon="13.60064180297599"><ele>80.0</ele><time>2026-03-29T09:22:40.999Z</time></trkpt><trkpt lat="37.2749602625572" lon="13.600767477050907"><ele>82.25</ele><time>2026-03-29T09:22:41.999Z</time></trkpt><trkpt lat="37.275028168732774" lon="13.600889112077644"><ele>84.5</ele><time>2026-03-29T09:22:42.999Z</time></trkpt><trkpt lat="37.27509432912855" lon="13.60101303708299"><ele>86.75</ele><time>2026-03-29T09:22:43.999Z</time></trkpt><trkpt lat="37.27515986456296" lon="13.601137712277891"><ele>89.0</ele><time>2026-03-29T09:22:44.999Z</time></trkpt><trkpt lat="37.27522515451897" lon="13.601267804868549"><ele>90.75</ele><time>2026-03-29T09:22:45.999Z</time></trkpt><trkpt lat="37.27529471678599" lon="13.601397470920363"><ele>92.5</ele><time>2026-03-29T09:22:46.999Z</time></trkpt><trkpt lat="37.27536083197683" lon="13.601530543500543"><ele>94.25</ele><time>2026-03-29T09:22:47.999Z</time></trkpt><trkpt lat="37.275425012491525" lon="13.601655717446608"><ele>96.0</ele><time>2026-03-29T09:22:48.999Z</time></trkpt><trkpt lat="37.27548508636851" lon="13.601781093943462"><ele>96.0</ele><time>2026-03-29T09:22:49.999Z</time></trkpt><trkpt lat="37.275553918848814" lon="13.601911263786548"><ele>96.0</ele><time>2026-03-29T09:22:50.999Z</time></trkpt><trkpt lat="37.27560819123949" lon="13.602048063602311"><ele>96.0</ele><time>2026-03-29T09:22:51.999Z</time></trkpt><trkpt lat="37.27566983777931" lon="13.602171706041283"><ele>96.0</ele><time>2026-03-29T09:22:52.999Z</time></trkpt><trkpt lat="37.27572892712569" lon="13.602291341902687"><ele>99.6</ele><time>2026-03-29T09:22:53.999Z</time></trkpt><trkpt lat="37.275786606574144" lon="13.602408554581373"><ele>103.19999999999999</ele><time>2026-03-29T09:22:54.999Z</time></trkpt><trkpt lat="37.275857741681286" lon="13.6025156434147"><ele>106.80000000000001</ele><time>2026-03-29T09:22:55.999Z</time></trkpt><trkpt lat="37.27591048063967" lon="13.602621824112184"><ele>110.4</ele><time>2026-03-29T09:22:56.999Z</time></trkpt><trkpt lat="37.275956020093105" lon="13.60271343330444"><ele>114.0</ele><time>2026-03-29T09:22:57.999Z</time></trkpt><trkpt lat="37.276008115749434" lon="13.602805893006297"><ele>114.0</ele><time>2026-03-29T09:22:58.999Z</time></trkpt><trkpt lat="37.276051374565796" lon="13.602905589550804"><ele>114.0</ele><time>2026-03-29T09:22:59.999Z</time></trkpt><trkpt lat="37.27609036610938" lon="13.602990176867117"><ele>114.0</ele><time>2026-03-29T09:23:00.999Z</time></trkpt><trkpt lat="37.27613271540582" lon="13.603072898258285"><ele>114.0</ele><time>2026-03-29T09:23:01.999Z</time></trkpt><trkpt lat="37.276177521155105" lon="13.603147673795716"><ele>114.0</ele><time>2026-03-29T09:23:02.999Z</time></trkpt><trkpt lat="37.27622211780989" lon="13.603221938661255"><ele>114.0</ele><time>2026-03-29T09:23:03.999Z</time></trkpt><trkpt lat="37.27626707472879" lon="13.603294303218446"><ele>114.0</ele><time>2026-03-29T09:23:04.999Z</time></trkpt><trkpt lat="37.276311501204646" lon="13.603368060166135"><ele>114.0</ele><time>2026-03-29T09:23:05.999Z</time></trkpt><trkpt lat="37.276356161422086" lon="13.60344615071043"><ele>114.0</ele><time>2026-03-29T09:23:06.999Z</time></trkpt><trkpt lat="37.276399006730365" lon="13.603526261055547"><ele>114.0</ele><time>2026-03-29T09:23:07.999Z</time></trkpt><trkpt lat="37.27644598883078" lon="13.60360808394858"><ele>114.0</ele><time>2026-03-29T09:23:08.999Z</time></trkpt><trkpt lat="37.27649020941104" lon="13.603686572451691"><ele>114.0</ele><time>2026-03-29T09:23:09.999Z</time></trkpt><trkpt lat="37.276544262753276" lon="13.603771205673509"><ele>112.33333333333333</ele><time>2026-03-29T09:23:10.999Z</time></trkpt><trkpt lat="37.276596330118394" lon="13.603860985447987"><ele>110.66666666666666</ele><time>2026-03-29T09:23:11.999Z</time></trkpt><trkpt lat="37.276647154241736" lon="13.603949376824033"><ele>109.0</ele><time>2026-03-29T09:23:12.999Z</time></trkpt><trkpt lat="37.27669202419145" lon="13.604037885973105"><ele>107.33333333333333</ele><time>2026-03-29T09:23:14Z</time></trkpt><trkpt lat="37.27673350913672" lon="13.604128831764251"><ele>105.66666666666666</ele><time>2026-03-29T09:23:15Z</time></trkpt><trkpt lat="37.27678763542938" lon="13.604239417557762"><ele>104.0</ele><time>2026-03-29T09:23:16Z</time></trkpt><trkpt lat="37.27685584868015" lon="13.60435584337086"><ele>104.0</ele><time>2026-03-29T09:23:17Z</time></trkpt><trkpt lat="37.27692488844625" lon="13.604483836405993"><ele>104.0</ele><time>2026-03-29T09:23:18Z</time></trkpt><trkpt lat="37.276985986165805" lon="13.604598161164036"><ele>104.0</ele><time>2026-03-29T09:23:19Z</time></trkpt><trkpt lat="37.27704458147209" lon="13.604709736976014"><ele>104.0</ele><time>2026-03-29T09:23:20Z</time></trkpt><trkpt lat="37.27709961387393" lon="13.604813959050956"><ele>104.0</ele><time>2026-03-29T09:23:21Z</time></trkpt><trkpt lat="37.27715334346209" lon="13.604912306833885"><ele>103.83333333333333</ele><time>2026-03-29T09:23:22Z</time></trkpt><trkpt lat="37.27720405909362" lon="13.60501136160583"><ele>103.66666666666666</ele><time>2026-03-29T09:23:23Z</time></trkpt><trkpt lat="37.277252534781915" lon="13.605099556516583"><ele>103.5</ele><time>2026-03-29T09:23:24Z</time></trkpt><trkpt lat="37.27729774811122" lon="13.605178169317462"><ele>103.33333333333334</ele><time>2026-03-29T09:23:25Z</time></trkpt><trkpt lat="37.27734475891309" lon="13.605260249486818"><ele>103.16666666666667</ele><time>2026-03-29T09:23:26Z</time></trkpt><trkpt lat="37.27739003649331" lon="13.605346499144545"><ele>103.0</ele><time>2026-03-29T09:23:27Z</time></trkpt><trkpt lat="37.27742942377874" lon="13.605422787962885"><ele>101.28571428571428</ele><time>2026-03-29T09:23:28Z</time></trkpt><trkpt lat="37.27746498791967" lon="13.605489924971424"><ele>99.57142857142857</ele><time>2026-03-29T09:23:29Z</time></trkpt><trkpt lat="37.27750270170525" lon="13.605560343272854"><ele>97.85714285714286</ele><time>2026-03-29T09:23:30Z</time></trkpt><trkpt lat="37.27754389421604" lon="13.605632137901031"><ele>96.14285714285714</ele><time>2026-03-29T09:23:31Z</time></trkpt><trkpt lat="37.27759030715768" lon="13.605711175367185"><ele>94.42857142857143</ele><time>2026-03-29T09:23:32Z</time></trkpt><trkpt lat="37.277639021955466" lon="13.605792239224654"><ele>92.71428571428571</ele><time>2026-03-29T09:23:33Z</time></trkpt><trkpt lat="37.27768907181219" lon="13.605880250204622"><ele>91.0</ele><time>2026-03-29T09:23:34Z</time></trkpt><trkpt lat="37.27774228362753" lon="13.605969483754373"><ele>91.0</ele><time>2026-03-29T09:23:35Z</time></trkpt><trkpt lat="37.27779477563157" lon="13.606065860962412"><ele>91.0</ele><time>2026-03-29T09:23:36Z</time></trkpt><trkpt lat="37.27785181314312" lon="13.606174483953152"><ele>91.0</ele><time>2026-03-29T09:23:37Z</time></trkpt><trkpt lat="37.27790901301369" lon="13.606283258024767"><ele>91.0</ele><time>2026-03-29T09:23:38Z</time></trkpt><trkpt lat="37.2779653811182" lon="13.606391480710782"><ele>91.0</ele><time>2026-03-29T09:23:39Z</time></trkpt><trkpt lat="37.278017704169095" lon="13.606497261412743"><ele>89.6</ele><time>2026-03-29T09:23:40Z</time></trkpt><trkpt lat="37.27807162135155" lon="13.6065987595194"><ele>88.19999999999999</ele><time>2026-03-29T09:23:41Z</time></trkpt><trkpt lat="37.278123698935474" lon="13.606696770569899"><ele>86.80000000000001</ele><time>2026-03-29T09:23:42Z</time></trkpt><trkpt lat="37.278175309581016" lon="13.606793282825116"><ele>85.4</ele><time>2026-03-29T09:23:43Z</time></trkpt><trkpt lat="37.278228781695866" lon="13.60689072389917"><ele>84.0</ele><time>2026-03-29T09:23:44Z</time></trkpt><trkpt lat="37.27828496684146" lon="13.606990623994735"><ele>82.83333333333333</ele><time>2026-03-29T09:23:45Z</time></trkpt><trkpt lat="37.27833762248583" lon="13.607084331284424"><ele>81.66666666666667</ele><time>2026-03-29T09:23:46Z</time></trkpt><trkpt lat="37.27838764188576" lon="13.607173836741017"><ele>80.5</ele><time>2026-03-29T09:23:47Z</time></trkpt><trkpt lat="37.27843920665591" lon="13.607255609669101"><ele>79.33333333333334</ele><time>2026-03-29T09:23:48Z</time></trkpt><trkpt lat="37.278473863220064" lon="13.607349587617547"><ele>78.16666666666667</ele><time>2026-03-29T09:23:49Z</time></trkpt><trkpt lat="37.27852805074282" lon="13.607424659758712"><ele>77.0</ele><time>2026-03-29T09:23:50Z</time></trkpt><trkpt lat="37.278578264981746" lon="13.607514787417545"><ele>77.0</ele><time>2026-03-29T09:23:51Z</time></trkpt><trkpt lat="37.2786284088298" lon="13.607616559361828"><ele>77.0</ele><time>2026-03-29T09:23:52Z</time></trkpt><trkpt lat="37.278680403987025" lon="13.6077193652128"><ele>77.0</ele><time>2026-03-29T09:23:53Z</time></trkpt><trkpt lat="37.278733310443705" lon="13.607819928100279"><ele>77.0</ele><time>2026-03-29T09:23:54Z</time></trkpt><trkpt lat="37.27878405748401" lon="13.607912307875697"><ele>77.0</ele><time>2026-03-29T09:23:55Z</time></trkpt><trkpt lat="37.278832924933276" lon="13.607995426354828"><ele>76.8</ele><time>2026-03-29T09:23:56Z</time></trkpt><trkpt lat="37.2788760478931" lon="13.608073206775487"><ele>76.6</ele><time>2026-03-29T09:23:57Z</time></trkpt><trkpt lat="37.278915443384555" lon="13.608143804506097"><ele>76.39999999999999</ele><time>2026-03-29T09:23:58Z</time></trkpt><trkpt lat="37.278981625697085" lon="13.608264823231544"><ele>76.2</ele><time>2026-03-29T09:24:00Z</time></trkpt><trkpt lat="37.279020023651064" lon="13.60837627240129"><ele>76.0</ele><time>2026-03-29T09:24:03Z</time></trkpt><trkpt lat="37.27899057464424" lon="13.608522140945281"><ele>76.0</ele><time>2026-03-29T09:24:06Z</time></trkpt><trkpt lat="37.278961798137814" lon="13.608593940411335"><ele>76.0</ele><time>2026-03-29T09:24:07Z</time></trkpt><trkpt lat="37.27890683942073" lon="13.608707543665894"><ele>76.0</ele><time>2026-03-29T09:24:09Z</time></trkpt><trkpt lat="37.278842021402106" lon="13.608826575376163"><ele>76.0</ele><time>2026-03-29T09:24:11Z</time></trkpt><trkpt lat="37.27878648316384" lon="13.60890873063325"><ele>76.0</ele><time>2026-03-29T09:24:12Z</time></trkpt><trkpt lat="37.27871700207986" lon="13.608997912616479"><ele>76.0</ele><time>2026-03-29T09:24:13Z</time></trkpt><trkpt lat="37.278638074423775" lon="13.609096033932119"><ele>76.0</ele><time>2026-03-29T09:24:14Z</time></trkpt><trkpt lat="37.27855585890625" lon="13.609201341175735"><ele>76.0</ele><time>2026-03-29T09:24:15Z</time></trkpt><trkpt lat="37.27847316631859" lon="13.60930724943917"><ele>76.0</ele><time>2026-03-29T09:24:16Z</time></trkpt><trkpt lat="37.27838834810976" lon="13.609414718473955"><ele>76.0</ele><time>2026-03-29T09:24:17Z</time></trkpt><trkpt lat="37.278290756162725" lon="13.609536236667854"><ele>76.0</ele><time>2026-03-29T09:24:18Z</time></trkpt><trkpt lat="37.27818911729639" lon="13.609661674415532"><ele>76.0</ele><time>2026-03-29T09:24:19Z</time></trkpt><trkpt lat="37.27808708223497" lon="13.609788372601972"><ele>76.0</ele><time>2026-03-29T09:24:20Z</time></trkpt><trkpt lat="37.277988121968725" lon="13.609913123423306"><ele>76.0</ele><time>2026-03-29T09:24:20.998Z</time></trkpt><trkpt lat="37.27789051701902" lon="13.610035028045862"><ele>76.0</ele><time>2026-03-29T09:24:21.998Z</time></trkpt><trkpt lat="37.27779568988389" lon="13.610155245406093"><ele>76.0</ele><time>2026-03-29T09:24:22.998Z</time></trkpt><trkpt lat="37.27770204995689" lon="13.610268036075515"><ele>76.0</ele><time>2026-03-29T09:24:23.998Z</time></trkpt><trkpt lat="37.277607383707256" lon="13.610381160424836"><ele>75.75</ele><time>2026-03-29T09:24:24.998Z</time></trkpt><trkpt lat="37.27751034001511" lon="13.610495767216452"><ele>75.5</ele><time>2026-03-29T09:24:25.998Z</time></trkpt><trkpt lat="37.2774136324161" lon="13.610607065713543"><ele>75.25</ele><time>2026-03-29T09:24:26.998Z</time></trkpt><trkpt lat="37.277316797793894" lon="13.610717419806477"><ele>75.0</ele><time>2026-03-29T09:24:27.998Z</time></trkpt><trkpt lat="37.27721383685858" lon="13.61083067105109"><ele>74.25</ele><time>2026-03-29T09:24:28.998Z</time></trkpt><trkpt lat="37.27710620573404" lon="13.610943427891948"><ele>73.5</ele><time>2026-03-29T09:24:29.998Z</time></trkpt><trkpt lat="37.27699971183587" lon="13.611053351116475"><ele>72.75</ele><time>2026-03-29T09:24:30.998Z</time></trkpt><trkpt lat="37.27689314767794" lon="13.61115965195765"><ele>72.0</ele><time>2026-03-29T09:24:31.998Z</time></trkpt><trkpt lat="37.27678636548886" lon="13.611267315046785"><ele>72.0</ele><time>2026-03-29T09:24:32.998Z</time></trkpt><trkpt lat="37.276680796459225" lon="13.611374425516079"><ele>72.0</ele><time>2026-03-29T09:24:33.998Z</time></trkpt><trkpt lat="37.27657683902373" lon="13.611478765702461"><ele>72.0</ele><time>2026-03-29T09:24:34.998Z</time></trkpt><trkpt lat="37.27646929566907" lon="13.611584223345318"><ele>72.0</ele><time>2026-03-29T09:24:35.999Z</time></trkpt><trkpt lat="37.276362412852045" lon="13.611689563851511"><ele>71.25</ele><time>2026-03-29T09:24:36.999Z</time></trkpt><trkpt lat="37.27625523298741" lon="13.611792204735004"><ele>70.5</ele><time>2026-03-29T09:24:37.999Z</time></trkpt><trkpt lat="37.276148851099414" lon="13.611896527035512"><ele>69.75</ele><time>2026-03-29T09:24:38.999Z</time></trkpt><trkpt lat="37.2760424815459" lon="13.612001070923908"><ele>69.0</ele><time>2026-03-29T09:24:39.999Z</time></trkpt><trkpt lat="37.27593670616284" lon="13.612105124353164"><ele>69.0</ele><time>2026-03-29T09:24:40.999Z</time></trkpt><trkpt lat="37.27583058820997" lon="13.612211449480041"><ele>69.0</ele><time>2026-03-29T09:24:41.999Z</time></trkpt><trkpt lat="37.27571785248141" lon="13.612327982862077"><ele>69.0</ele><time>2026-03-29T09:24:42.999Z</time></trkpt><trkpt lat="37.27559990218451" lon="13.612452800789047"><ele>69.0</ele><time>2026-03-29T09:24:43.999Z</time></trkpt><trkpt lat="37.27548956129047" lon="13.61256735589489"><ele>68.75</ele><time>2026-03-29T09:24:44.999Z</time></trkpt><trkpt lat="37.27537867508794" lon="13.612681239940853"><ele>68.5</ele><time>2026-03-29T09:24:45.999Z</time></trkpt><trkpt lat="37.275266069941445" lon="13.612795483765854"><ele>68.25</ele><time>2026-03-29T09:24:46.999Z</time></trkpt><trkpt lat="37.275149940080915" lon="13.612913762497715"><ele>68.0</ele><time>2026-03-29T09:24:47.999Z</time></trkpt><trkpt lat="37.27503520353261" lon="13.613035917694335"><ele>67.33333333333334</ele><time>2026-03-29T09:24:48.999Z</time></trkpt><trkpt lat="37.274919833775016" lon="13.613164122463877"><ele>66.66666666666667</ele><time>2026-03-29T09:24:49.999Z</time></trkpt><trkpt lat="37.27480609615676" lon="13.613302489987907"><ele>66.0</ele><time>2026-03-29T09:24:50.999Z</time></trkpt><trkpt lat="37.27469505065036" lon="13.613442404484063"><ele>65.33333333333333</ele><time>2026-03-29T09:24:51.999Z</time></trkpt><trkpt lat="37.274584762229615" lon="13.613578790074383"><ele>64.66666666666666</ele><time>2026-03-29T09:24:52.999Z</time></trkpt><trkpt lat="37.27447263543351" lon="13.613714192671157"><ele>64.0</ele><time>2026-03-29T09:24:53.999Z</time></trkpt><trkpt lat="37.274353982810574" lon="13.613858323800347"><ele>64.0</ele><time>2026-03-29T09:24:54.999Z</time></trkpt><trkpt lat="37.27423338202139" lon="13.614005354652067"><ele>64.0</ele><time>2026-03-29T09:24:55.999Z</time></trkpt><trkpt lat="37.27411361309123" lon="13.614150855818991"><ele>64.0</ele><time>2026-03-29T09:24:56.999Z</time></trkpt><trkpt lat="37.27399622983325" lon="13.614293560326784"><ele>64.0</ele><time>2026-03-29T09:24:57.999Z</time></trkpt><trkpt lat="37.273876804228806" lon="13.614436241497426"><ele>64.0</ele><time>2026-03-29T09:24:58.999Z</time></trkpt><trkpt lat="37.273759435331286" lon="13.614577416251228"><ele>64.0</ele><time>2026-03-29T09:24:59.999Z</time></trkpt><trkpt lat="37.273639972631806" lon="13.614717282702376"><ele>64.33333333333333</ele><time>2026-03-29T09:25:00.999Z</time></trkpt><trkpt lat="37.273519729933824" lon="13.614857518345334"><ele>64.66666666666667</ele><time>2026-03-29T09:25:01.999Z</time></trkpt><trkpt lat="37.273403973190035" lon="13.614995597715444"><ele>65.0</ele><time>2026-03-29T09:25:02.999Z</time></trkpt><trkpt lat="37.27328841292063" lon="13.615132746194885"><ele>65.0</ele><time>2026-03-29T09:25:03.999Z</time></trkpt><trkpt lat="37.27317112580946" lon="13.615276055917535"><ele>65.0</ele><time>2026-03-29T09:25:04.999Z</time></trkpt><trkpt lat="37.27305501263339" lon="13.615420018568743"><ele>65.0</ele><time>2026-03-29T09:25:05.999Z</time></trkpt><trkpt lat="37.27294019838872" lon="13.615564664671373"><ele>64.0</ele><time>2026-03-29T09:25:06.999Z</time></trkpt><trkpt lat="37.27282714002117" lon="13.615712001784738"><ele>63.0</ele><time>2026-03-29T09:25:07.999Z</time></trkpt><trkpt lat="37.27271151090964" lon="13.615860868647662"><ele>62.0</ele><time>2026-03-29T09:25:08.999Z</time></trkpt><trkpt lat="37.27259882744361" lon="13.616008273129879"><ele>62.333333333333336</ele><time>2026-03-29T09:25:09.999Z</time></trkpt><trkpt lat="37.272495359280285" lon="13.61616340407332"><ele>62.66666666666667</ele><time>2026-03-29T09:25:10.999Z</time></trkpt><trkpt lat="37.27241898366902" lon="13.616336276514694"><ele>63.0</ele><time>2026-03-29T09:25:11.999Z</time></trkpt><trkpt lat="37.272347071830815" lon="13.61650578503423"><ele>63.0</ele><time>2026-03-29T09:25:12.999Z</time></trkpt><trkpt lat="37.272287146706276" lon="13.616679348299568"><ele>63.0</ele><time>2026-03-29T09:25:13.999Z</time></trkpt><trkpt lat="37.27223388847092" lon="13.61686243091904"><ele>63.0</ele><time>2026-03-29T09:25:14.999Z</time></trkpt><trkpt lat="37.2721884785005" lon="13.617048703591976"><ele>63.33333333333333</ele><time>2026-03-29T09:25:15.999Z</time></trkpt><trkpt lat="37.27213953123106" lon="13.617237288078552"><ele>63.666666666666664</ele><time>2026-03-29T09:25:16.999Z</time></trkpt><trkpt lat="37.272084760558094" lon="13.617428480672274"><ele>64.0</ele><time>2026-03-29T09:25:17.999Z</time></trkpt><trkpt lat="37.27202756834369" lon="13.617615514794105"><ele>64.0</ele><time>2026-03-29T09:25:19Z</time></trkpt><trkpt lat="37.27197060460621" lon="13.617799894353888"><ele>64.0</ele><time>2026-03-29T09:25:20Z</time></trkpt><trkpt lat="37.27191351800088" lon="13.617982193363979"><ele>64.0</ele><time>2026-03-29T09:25:21Z</time></trkpt><trkpt lat="37.27185724073795" lon="13.61816282563198"><ele>64.0</ele><time>2026-03-29T09:25:22Z</time></trkpt><trkpt lat="37.271804295247776" lon="13.618336101762546"><ele>64.0</ele><time>2026-03-29T09:25:23Z</time></trkpt><trkpt lat="37.27175475376845" lon="13.618496818902734"><ele>64.0</ele><time>2026-03-29T09:25:24Z</time></trkpt><trkpt lat="37.27170664800728" lon="13.618650174921578"><ele>64.0</ele><time>2026-03-29T09:25:25Z</time></trkpt><trkpt lat="37.27165403442364" lon="13.618803222317638"><ele>64.25</ele><time>2026-03-29T09:25:26Z</time></trkpt><trkpt lat="37.27160253595462" lon="13.618952835994316"><ele>64.5</ele><time>2026-03-29T09:25:27Z</time></trkpt><trkpt lat="37.271553221357294" lon="13.619102799310715"><ele>64.75</ele><time>2026-03-29T09:25:28Z</time></trkpt><trkpt lat="37.271504967022" lon="13.619256895298669"><ele>65.0</ele><time>2026-03-29T09:25:29Z</time></trkpt><trkpt lat="37.27145600248693" lon="13.619415156163448"><ele>65.5</ele><time>2026-03-29T09:25:30Z</time></trkpt><trkpt lat="37.27140674961008" lon="13.61957521778572"><ele>66.0</ele><time>2026-03-29T09:25:31Z</time></trkpt><trkpt lat="37.27135819059748" lon="13.619731138202095"><ele>66.5</ele><time>2026-03-29T09:25:32Z</time></trkpt><trkpt lat="37.27131184550056" lon="13.619889688352096"><ele>67.0</ele><time>2026-03-29T09:25:33Z</time></trkpt><trkpt lat="37.27126513618231" lon="13.620046143659135"><ele>67.0</ele><time>2026-03-29T09:25:34Z</time></trkpt><trkpt lat="37.271220629759114" lon="13.620195171848295"><ele>67.0</ele><time>2026-03-29T09:25:35Z</time></trkpt><trkpt lat="37.27117421484588" lon="13.620358520815891"><ele>67.0</ele><time>2026-03-29T09:25:36Z</time></trkpt><trkpt lat="37.27110871248141" lon="13.620534693405103"><ele>67.0</ele><time>2026-03-29T09:25:37Z</time></trkpt><trkpt lat="37.271045067987416" lon="13.620737406121536"><ele>67.0</ele><time>2026-03-29T09:25:38Z</time></trkpt><trkpt lat="37.270985829004154" lon="13.620919282882847"><ele>67.0</ele><time>2026-03-29T09:25:39Z</time></trkpt><trkpt lat="37.27094594403964" lon="13.621095508839003"><ele>67.0</ele><time>2026-03-29T09:25:40Z</time></trkpt><trkpt lat="37.27089786911214" lon="13.621250378060994"><ele>67.0</ele><time>2026-03-29T09:25:41Z</time></trkpt><trkpt lat="37.2708515168535" lon="13.621403639445862"><ele>67.0</ele><time>2026-03-29T09:25:42Z</time></trkpt><trkpt lat="37.270805437285716" lon="13.621552872841155"><ele>67.0</ele><time>2026-03-29T09:25:43Z</time></trkpt><trkpt lat="37.27076222658889" lon="13.621694169099118"><ele>67.0</ele><time>2026-03-29T09:25:44Z</time></trkpt><trkpt lat="37.27072028410612" lon="13.621837182070067"><ele>67.0</ele><time>2026-03-29T09:25:45Z</time></trkpt><trkpt lat="37.27067932377525" lon="13.62198975081989"><ele>67.0</ele><time>2026-03-29T09:25:46Z</time></trkpt><trkpt lat="37.27064037433575" lon="13.62214577259677"><ele>67.0</ele><time>2026-03-29T09:25:47Z</time></trkpt><trkpt lat="37.27060727462714" lon="13.622312347606169"><ele>67.0</ele><time>2026-03-29T09:25:48Z</time></trkpt><trkpt lat="37.270578741686684" lon="13.62249074648589"><ele>67.0</ele><time>2026-03-29T09:25:49Z</time></trkpt><trkpt lat="37.27055502710442" lon="13.62267421560111"><ele>68.0</ele><time>2026-03-29T09:25:50Z</time></trkpt><trkpt lat="37.27053738227976" lon="13.622864239568912"><ele>69.0</ele><time>2026-03-29T09:25:51Z</time></trkpt><trkpt lat="37.27052537718705" lon="13.623053518275523"><ele>70.0</ele><time>2026-03-29T09:25:52Z</time></trkpt><trkpt lat="37.27052062255684" lon="13.623238421684198"><ele>70.0</ele><time>2026-03-29T09:25:53Z</time></trkpt><trkpt lat="37.27052207258978" lon="13.623422992160638"><ele>70.0</ele><time>2026-03-29T09:25:54Z</time></trkpt><trkpt lat="37.2705285076361" lon="13.62360789243451"><ele>70.0</ele><time>2026-03-29T09:25:55Z</time></trkpt><trkpt lat="37.270541944014795" lon="13.623796542918626"><ele>70.0</ele><time>2026-03-29T09:25:56Z</time></trkpt><trkpt lat="37.2705606962298" lon="13.623988143245963"><ele>70.0</ele><time>2026-03-29T09:25:57Z</time></trkpt><trkpt lat="37.27058508476389" lon="13.624183524010297"><ele>70.0</ele><time>2026-03-29T09:25:58Z</time></trkpt><trkpt lat="37.27061577406363" lon="13.624383039560833"><ele>70.0</ele><time>2026-03-29T09:25:59Z</time></trkpt><trkpt lat="37.27065413386769" lon="13.62458190194699"><ele>70.0</ele><time>2026-03-29T09:26:00Z</time></trkpt><trkpt lat="37.27069699388879" lon="13.624771122258007"><ele>70.0</ele><time>2026-03-29T09:26:01Z</time></trkpt><trkpt lat="37.27074610482571" lon="13.624956349591201"><ele>70.0</ele><time>2026-03-29T09:26:02Z</time></trkpt><trkpt lat="37.270802864155264" lon="13.6251399452285"><ele>69.33333333333333</ele><time>2026-03-29T09:26:03Z</time></trkpt><trkpt lat="37.27086202409482" lon="13.625320204312237"><ele>68.66666666666667</ele><time>2026-03-29T09:26:04Z</time></trkpt><trkpt lat="37.270920418473004" lon="13.625495762245292"><ele>68.0</ele><time>2026-03-29T09:26:05Z</time></trkpt><trkpt lat="37.27097776170126" lon="13.625666910488858"><ele>68.0</ele><time>2026-03-29T09:26:06Z</time></trkpt><trkpt lat="37.27103410368059" lon="13.625833781630183"><ele>68.0</ele><time>2026-03-29T09:26:07Z</time></trkpt><trkpt lat="37.271091677733814" lon="13.625997412940476"><ele>68.0</ele><time>2026-03-29T09:26:08Z</time></trkpt><trkpt lat="37.271146994192485" lon="13.626159593897263"><ele>68.0</ele><time>2026-03-29T09:26:09Z</time></trkpt><trkpt lat="37.27119890821154" lon="13.626320738569234"><ele>67.25</ele><time>2026-03-29T09:26:10Z</time></trkpt><trkpt lat="37.27124759879188" lon="13.626472142092828"><ele>66.5</ele><time>2026-03-29T09:26:11Z</time></trkpt><trkpt lat="37.27129348417968" lon="13.626611372036843"><ele>65.75</ele><time>2026-03-29T09:26:12Z</time></trkpt><trkpt lat="37.27133804245305" lon="13.62675155801706"><ele>65.0</ele><time>2026-03-29T09:26:13Z</time></trkpt><trkpt lat="37.27138442464657" lon="13.626898469392206"><ele>65.5</ele><time>2026-03-29T09:26:14Z</time></trkpt><trkpt lat="37.2714307573911" lon="13.62703989121343"><ele>66.0</ele><time>2026-03-29T09:26:15Z</time></trkpt><trkpt lat="37.2714732300504" lon="13.627161912992415"><ele>66.5</ele><time>2026-03-29T09:26:16Z</time></trkpt><trkpt lat="37.27152203999195" lon="13.627292293536216"><ele>67.0</ele><time>2026-03-29T09:26:17Z</time></trkpt><trkpt lat="37.27156738077379" lon="13.6274474039878"><ele>67.33333333333333</ele><time>2026-03-29T09:26:18Z</time></trkpt><trkpt lat="37.27162720200031" lon="13.627617276327433"><ele>67.66666666666667</ele><time>2026-03-29T09:26:19Z</time></trkpt><trkpt lat="37.27169594218534" lon="13.627814248187974"><ele>68.0</ele><time>2026-03-29T09:26:20Z</time></trkpt><trkpt lat="37.27177869567323" lon="13.628011803077317"><ele>68.0</ele><time>2026-03-29T09:26:21Z</time></trkpt><trkpt lat="37.27184839709707" lon="13.62821395603276"><ele>68.0</ele><time>2026-03-29T09:26:22Z</time></trkpt><trkpt lat="37.271912483302785" lon="13.628402853977985"><ele>68.0</ele><time>2026-03-29T09:26:23Z</time></trkpt><trkpt lat="37.27197375484602" lon="13.628592077673709"><ele>68.33333333333334</ele><time>2026-03-29T09:26:24Z</time></trkpt><trkpt lat="37.272033465515996" lon="13.628781664439156"><ele>68.66666666666667</ele><time>2026-03-29T09:26:25Z</time></trkpt><trkpt lat="37.27208891255436" lon="13.628966020955046"><ele>69.0</ele><time>2026-03-29T09:26:26Z</time></trkpt><trkpt lat="37.2721360978322" lon="13.629142731587475"><ele>69.0</ele><time>2026-03-29T09:26:26.998Z</time></trkpt><trkpt lat="37.272176838972925" lon="13.629306424705197"><ele>69.0</ele><time>2026-03-29T09:26:27.998Z</time></trkpt><trkpt lat="37.27220861030755" lon="13.6294659609644"><ele>69.0</ele><time>2026-03-29T09:26:28.998Z</time></trkpt><trkpt lat="37.27223349355655" lon="13.6296355971469"><ele>69.0</ele><time>2026-03-29T09:26:29.998Z</time></trkpt><trkpt lat="37.2722455296491" lon="13.629812348981455"><ele>69.25</ele><time>2026-03-29T09:26:30.998Z</time></trkpt><trkpt lat="37.27224476062215" lon="13.629991685889646"><ele>69.5</ele><time>2026-03-29T09:26:31.998Z</time></trkpt><trkpt lat="37.27223283027395" lon="13.63017408056896"><ele>69.75</ele><time>2026-03-29T09:26:32.998Z</time></trkpt><trkpt lat="37.272208070998865" lon="13.630357308285324"><ele>70.0</ele><time>2026-03-29T09:26:33.998Z</time></trkpt><trkpt lat="37.27217250683129" lon="13.63054182781585"><ele>70.0</ele><time>2026-03-29T09:26:34.998Z</time></trkpt><trkpt lat="37.272128655875605" lon="13.630737747724936"><ele>70.0</ele><time>2026-03-29T09:26:35.999Z</time></trkpt><trkpt lat="37.27208117538967" lon="13.630953647431477"><ele>70.0</ele><time>2026-03-29T09:26:36.999Z</time></trkpt><trkpt lat="37.27204115425232" lon="13.631159335157996"><ele>70.0</ele><time>2026-03-29T09:26:37.999Z</time></trkpt><trkpt lat="37.272000070154895" lon="13.63135933333495"><ele>70.0</ele><time>2026-03-29T09:26:38.999Z</time></trkpt><trkpt lat="37.271957018996424" lon="13.631556130554067"><ele>70.0</ele><time>2026-03-29T09:26:39.999Z</time></trkpt><trkpt lat="37.27191568947451" lon="13.631752548670237"><ele>70.0</ele><time>2026-03-29T09:26:40.999Z</time></trkpt><trkpt lat="37.27187456495934" lon="13.631944309821538"><ele>70.0</ele><time>2026-03-29T09:26:41.999Z</time></trkpt><trkpt lat="37.27183187970067" lon="13.632141350746538"><ele>70.0</ele><time>2026-03-29T09:26:42.999Z</time></trkpt><trkpt lat="37.27179029566895" lon="13.632344976961715"><ele>70.66666666666666</ele><time>2026-03-29T09:26:43.999Z</time></trkpt><trkpt lat="37.271748222042426" lon="13.632548383895672"><ele>71.33333333333333</ele><time>2026-03-29T09:26:44.999Z</time></trkpt><trkpt lat="37.27170758600577" lon="13.632750914020608"><ele>72.0</ele><time>2026-03-29T09:26:45.999Z</time></trkpt><trkpt lat="37.27167322942758" lon="13.63294895410951"><ele>72.66666666666667</ele><time>2026-03-29T09:26:46.999Z</time></trkpt><trkpt lat="37.2716463624563" lon="13.633145629902778"><ele>73.33333333333334</ele><time>2026-03-29T09:26:47.999Z</time></trkpt><trkpt lat="37.271625650524385" lon="13.63334599687039"><ele>74.0</ele><time>2026-03-29T09:26:48.999Z</time></trkpt><trkpt lat="37.27161102528838" lon="13.63354519388946"><ele>74.0</ele><time>2026-03-29T09:26:49.999Z</time></trkpt><trkpt lat="37.271606377119056" lon="13.633740116105596"><ele>74.0</ele><time>2026-03-29T09:26:50.999Z</time></trkpt><trkpt lat="37.27160715025324" lon="13.633936199869725"><ele>74.0</ele><time>2026-03-29T09:26:51.999Z</time></trkpt><trkpt lat="37.27161366826854" lon="13.634130215376242"><ele>74.0</ele><time>2026-03-29T09:26:52.999Z</time></trkpt><trkpt lat="37.27162640182587" lon="13.634320106577261"><ele>74.0</ele><time>2026-03-29T09:26:53.999Z</time></trkpt><trkpt lat="37.271644293339214" lon="13.634508675252693"><ele>74.0</ele><time>2026-03-29T09:26:54.999Z</time></trkpt><trkpt lat="37.2716643001356" lon="13.63469354172094"><ele>72.75</ele><time>2026-03-29T09:26:55.999Z</time></trkpt><trkpt lat="37.27168430917624" lon="13.634878594140067"><ele>71.5</ele><time>2026-03-29T09:26:56.999Z</time></trkpt><trkpt lat="37.2717044262014" lon="13.635062769298424"><ele>70.25</ele><time>2026-03-29T09:26:57.999Z</time></trkpt><trkpt lat="37.27172501279007" lon="13.635248962873336"><ele>69.0</ele><time>2026-03-29T09:26:58.999Z</time></trkpt><trkpt lat="37.27174800870015" lon="13.63543496497187"><ele>68.25</ele><time>2026-03-29T09:27:00Z</time></trkpt><trkpt lat="37.271768465090794" lon="13.635619513025814"><ele>67.5</ele><time>2026-03-29T09:27:01Z</time></trkpt><trkpt lat="37.27178584850329" lon="13.635803205861857"><ele>66.75</ele><time>2026-03-29T09:27:02Z</time></trkpt><trkpt lat="37.27180206053888" lon="13.635986935777838"><ele>66.0</ele><time>2026-03-29T09:27:03Z</time></trkpt><trkpt lat="37.27181247592108" lon="13.636172906020128"><ele>64.66666666666667</ele><time>2026-03-29T09:27:04Z</time></trkpt><trkpt lat="37.27181469649111" lon="13.63636243923725"><ele>63.333333333333336</ele><time>2026-03-29T09:27:05Z</time></trkpt><trkpt lat="37.271806352268406" lon="13.636553345534873"><ele>62.0</ele><time>2026-03-29T09:27:06Z</time></trkpt><trkpt lat="37.27178697684246" lon="13.636747081193086"><ele>62.0</ele><time>2026-03-29T09:27:07Z</time></trkpt><trkpt lat="37.271757848021984" lon="13.63694059784731"><ele>62.0</ele><time>2026-03-29T09:27:08Z</time></trkpt><trkpt lat="37.271717702208484" lon="13.637134658413748"><ele>62.0</ele><time>2026-03-29T09:27:09Z</time></trkpt><trkpt lat="37.27166894324051" lon="13.637326642207961"><ele>61.66666666666667</ele><time>2026-03-29T09:27:10Z</time></trkpt><trkpt lat="37.271610529218904" lon="13.637516130821444"><ele>61.33333333333333</ele><time>2026-03-29T09:27:11Z</time></trkpt><trkpt lat="37.271544167243235" lon="13.637699166496933"><ele>61.0</ele><time>2026-03-29T09:27:12Z</time></trkpt><trkpt lat="37.271469662071375" lon="13.637872781034364"><ele>60.33333333333333</ele><time>2026-03-29T09:27:13Z</time></trkpt><trkpt lat="37.27138688254471" lon="13.638041466541331"><ele>59.66666666666667</ele><time>2026-03-29T09:27:14Z</time></trkpt><trkpt lat="37.27129254325099" lon="13.638200786180038"><ele>59.0</ele><time>2026-03-29T09:27:15Z</time></trkpt><trkpt lat="37.271191687639885" lon="13.638351323170026"><ele>59.0</ele><time>2026-03-29T09:27:16Z</time></trkpt><trkpt lat="37.27108313847698" lon="13.638498119159042"><ele>59.0</ele><time>2026-03-29T09:27:17Z</time></trkpt><trkpt lat="37.27096607623338" lon="13.638639521332138"><ele>59.0</ele><time>2026-03-29T09:27:18Z</time></trkpt><trkpt lat="37.27084102780832" lon="13.63877556574673"><ele>58.333333333333336</ele><time>2026-03-29T09:27:19Z</time></trkpt><trkpt lat="37.27071004563418" lon="13.638908019270593"><ele>57.66666666666667</ele><time>2026-03-29T09:27:20Z</time></trkpt><trkpt lat="37.27056961171554" lon="13.63904186251038"><ele>57.0</ele><time>2026-03-29T09:27:21Z</time></trkpt><trkpt lat="37.27042628764701" lon="13.6391712385749"><ele>56.66666666666667</ele><time>2026-03-29T09:27:22Z</time></trkpt><trkpt lat="37.27028466360154" lon="13.639301770246362"><ele>56.333333333333336</ele><time>2026-03-29T09:27:23Z</time></trkpt><trkpt lat="37.27014776374072" lon="13.639428604229469"><ele>56.0</ele><time>2026-03-29T09:27:24Z</time></trkpt><trkpt lat="37.27001398870517" lon="13.639552657233422"><ele>55.66666666666667</ele><time>2026-03-29T09:27:25Z</time></trkpt><trkpt lat="37.269883048866426" lon="13.639681521417339"><ele>55.33333333333333</ele><time>2026-03-29T09:27:26Z</time></trkpt><trkpt lat="37.26975922685072" lon="13.639824180653452"><ele>55.0</ele><time>2026-03-29T09:27:27Z</time></trkpt><trkpt lat="37.26964855419492" lon="13.639982518743627"><ele>54.0</ele><time>2026-03-29T09:27:28Z</time></trkpt><trkpt lat="37.26955051351234" lon="13.640154203923013"><ele>53.0</ele><time>2026-03-29T09:27:29Z</time></trkpt><trkpt lat="37.26944086461738" lon="13.640322887462554"><ele>52.0</ele><time>2026-03-29T09:27:30Z</time></trkpt><trkpt lat="37.26935510603018" lon="13.640518292558806"><ele>50.666666666666664</ele><time>2026-03-29T09:27:31Z</time></trkpt><trkpt lat="37.26929083918898" lon="13.640729899080618"><ele>49.33333333333333</ele><time>2026-03-29T09:27:32Z</time></trkpt><trkpt lat="37.26921462003686" lon="13.640940768440265"><ele>48.0</ele><time>2026-03-29T09:27:33Z</time></trkpt><trkpt lat="37.2691381559299" lon="13.641155132937472"><ele>47.0</ele><time>2026-03-29T09:27:34Z</time></trkpt><trkpt lat="37.269059692937915" lon="13.641373018894463"><ele>46.0</ele><time>2026-03-29T09:27:35Z</time></trkpt><trkpt lat="37.268979464479315" lon="13.6415915827467"><ele>45.0</ele><time>2026-03-29T09:27:36Z</time></trkpt><trkpt lat="37.2688979513276" lon="13.641813199175182"><ele>44.333333333333336</ele><time>2026-03-29T09:27:37Z</time></trkpt><trkpt lat="37.268816346907535" lon="13.64203993227927"><ele>43.66666666666667</ele><time>2026-03-29T09:27:38Z</time></trkpt><trkpt lat="37.26873424335757" lon="13.642267869837575"><ele>43.0</ele><time>2026-03-29T09:27:39Z</time></trkpt><trkpt lat="37.26865319790841" lon="13.642494084618463"><ele>43.0</ele><time>2026-03-29T09:27:40Z</time></trkpt><trkpt lat="37.26857323015215" lon="13.642716936579953"><ele>43.0</ele><time>2026-03-29T09:27:41Z</time></trkpt><trkpt lat="37.26849599162337" lon="13.642931934777478"><ele>43.0</ele><time>2026-03-29T09:27:42Z</time></trkpt><trkpt lat="37.268413703220155" lon="13.64315188849943"><ele>43.66666666666667</ele><time>2026-03-29T09:27:43Z</time></trkpt><trkpt lat="37.268328664279935" lon="13.643373957315248"><ele>44.333333333333336</ele><time>2026-03-29T09:27:44Z</time></trkpt><trkpt lat="37.26824351286746" lon="13.643596228323924"><ele>45.0</ele><time>2026-03-29T09:27:45Z</time></trkpt><trkpt lat="37.26815161604465" lon="13.643813421239994"><ele>45.333333333333336</ele><time>2026-03-29T09:27:46Z</time></trkpt><trkpt lat="37.26802080127843" lon="13.643998860295307"><ele>45.66666666666667</ele><time>2026-03-29T09:27:47Z</time></trkpt><trkpt lat="37.26788586408851" lon="13.644173806337013"><ele>46.0</ele><time>2026-03-29T09:27:48Z</time></trkpt><trkpt lat="37.26774200612885" lon="13.64434916847022"><ele>48.333333333333336</ele><time>2026-03-29T09:27:49Z</time></trkpt><trkpt lat="37.26756455100158" lon="13.64449044250676"><ele>50.66666666666667</ele><time>2026-03-29T09:27:50Z</time></trkpt><trkpt lat="37.26736156427829" lon="13.644617539268753"><ele>53.0</ele><time>2026-03-29T09:27:51Z</time></trkpt><trkpt lat="37.26714852595657" lon="13.64468655962411"><ele>53.0</ele><time>2026-03-29T09:27:52Z</time></trkpt><trkpt lat="37.2669360096887" lon="13.644748179666815"><ele>53.0</ele><time>2026-03-29T09:27:53Z</time></trkpt><trkpt lat="37.266720573532524" lon="13.6448150216024"><ele>53.0</ele><time>2026-03-29T09:27:54Z</time></trkpt><trkpt lat="37.26651098476469" lon="13.644860813285126"><ele>55.0</ele><time>2026-03-29T09:27:55Z</time></trkpt><trkpt lat="37.26630802438206" lon="13.644913619745815"><ele>57.0</ele><time>2026-03-29T09:27:56Z</time></trkpt><trkpt lat="37.266107978404754" lon="13.644965585214777"><ele>59.0</ele><time>2026-03-29T09:27:57Z</time></trkpt><trkpt lat="37.26591596144506" lon="13.645022150572037"><ele>59.0</ele><time>2026-03-29T09:27:58Z</time></trkpt><trkpt lat="37.265727691409644" lon="13.645093755654427"><ele>59.0</ele><time>2026-03-29T09:27:59Z</time></trkpt><trkpt lat="37.26553338362742" lon="13.645192431987756"><ele>59.0</ele><time>2026-03-29T09:28:00Z</time></trkpt><trkpt lat="37.2653521594058" lon="13.645320155309347"><ele>60.66666666666667</ele><time>2026-03-29T09:28:01Z</time></trkpt><trkpt lat="37.2651821421399" lon="13.645460817961986"><ele>62.33333333333333</ele><time>2026-03-29T09:28:02Z</time></trkpt><trkpt lat="37.265023026612" lon="13.645633986014483"><ele>64.0</ele><time>2026-03-29T09:28:03Z</time></trkpt><trkpt lat="37.264855983311485" lon="13.645838782290303"><ele>61.5</ele><time>2026-03-29T09:28:04Z</time></trkpt><trkpt lat="37.26469863753702" lon="13.646076086490604"><ele>59.0</ele><time>2026-03-29T09:28:05Z</time></trkpt><trkpt lat="37.26454135954815" lon="13.646321542556102"><ele>64.0</ele><time>2026-03-29T09:28:06Z</time></trkpt><trkpt lat="37.264384251703866" lon="13.646568198519335"><ele>69.0</ele><time>2026-03-29T09:28:07Z</time></trkpt><trkpt lat="37.264243131358434" lon="13.646813230433423"><ele>71.66666666666667</ele><time>2026-03-29T09:28:08Z</time></trkpt><trkpt lat="37.264106303025194" lon="13.647022695797865"><ele>74.33333333333334</ele><time>2026-03-29T09:28:09Z</time></trkpt><trkpt lat="37.2639682914768" lon="13.647233134672193"><ele>77.0</ele><time>2026-03-29T09:28:10Z</time></trkpt><trkpt lat="37.26384050945619" lon="13.647436308454367"><ele>77.0</ele><time>2026-03-29T09:28:11Z</time></trkpt><trkpt lat="37.263730975639824" lon="13.647623632094458"><ele>77.0</ele><time>2026-03-29T09:28:12Z</time></trkpt><trkpt lat="37.26362461429847" lon="13.647830548188354"><ele>77.0</ele><time>2026-03-29T09:28:13.001Z</time></trkpt><trkpt lat="37.263531086993986" lon="13.64806956926679"><ele>78.5</ele><time>2026-03-29T09:28:14.001Z</time></trkpt><trkpt lat="37.26341246955963" lon="13.648321071963744"><ele>80.0</ele><time>2026-03-29T09:28:15.001Z</time></trkpt><trkpt lat="37.2633015522515" lon="13.648598262784422"><ele>80.0</ele><time>2026-03-29T09:28:16.001Z</time></trkpt><trkpt lat="37.263187808935626" lon="13.648884055476604"><ele>80.0</ele><time>2026-03-29T09:28:17.001Z</time></trkpt><trkpt lat="37.26307051129239" lon="13.649177020329219"><ele>80.5</ele><time>2026-03-29T09:28:18.001Z</time></trkpt><trkpt lat="37.26294757476234" lon="13.649484097032953"><ele>81.0</ele><time>2026-03-29T09:28:19.001Z</time></trkpt><trkpt lat="37.262823818241245" lon="13.649797386451297"><ele>81.0</ele><time>2026-03-29T09:28:20.001Z</time></trkpt><trkpt lat="37.26269830043335" lon="13.650116501548663"><ele>81.0</ele><time>2026-03-29T09:28:21.001Z</time></trkpt><trkpt lat="37.26257464694247" lon="13.650430877300348"><ele>82.0</ele><time>2026-03-29T09:28:22.001Z</time></trkpt><trkpt lat="37.262467802927866" lon="13.650747811851588"><ele>83.0</ele><time>2026-03-29T09:28:23.001Z</time></trkpt><trkpt lat="37.262347073635446" lon="13.651047907759791"><ele>82.5</ele><time>2026-03-29T09:28:24.001Z</time></trkpt><trkpt lat="37.262227254348566" lon="13.65134693937762"><ele>82.0</ele><time>2026-03-29T09:28:25.001Z</time></trkpt><trkpt lat="37.26210609141289" lon="13.65164657187031"><ele>82.0</ele><time>2026-03-29T09:28:26.001Z</time></trkpt><trkpt lat="37.261985194563486" lon="13.651947564785972"><ele>82.0</ele><time>2026-03-29T09:28:27.001Z</time></trkpt><trkpt lat="37.26186490030785" lon="13.652251750405597"><ele>82.0</ele><time>2026-03-29T09:28:28.001Z</time></trkpt><trkpt lat="37.26174222342689" lon="13.652562701030249"><ele>82.0</ele><time>2026-03-29T09:28:29.001Z</time></trkpt><trkpt lat="37.261617685339836" lon="13.652876465098691"><ele>82.5</ele><time>2026-03-29T09:28:30.001Z</time></trkpt><trkpt lat="37.26149152431398" lon="13.653190312136854"><ele>83.0</ele><time>2026-03-29T09:28:31.001Z</time></trkpt><trkpt lat="37.261365778166805" lon="13.653505171282426"><ele>81.5</ele><time>2026-03-29T09:28:32.001Z</time></trkpt><trkpt lat="37.26124061959806" lon="13.653818941353682"><ele>80.0</ele><time>2026-03-29T09:28:32.999Z</time></trkpt><trkpt lat="37.26111409675323" lon="13.654133021710948"><ele>80.0</ele><time>2026-03-29T09:28:33.999Z</time></trkpt><trkpt lat="37.260989410474544" lon="13.654448263974702"><ele>80.0</ele><time>2026-03-29T09:28:34.999Z</time></trkpt><trkpt lat="37.260868428023144" lon="13.654762531215097"><ele>80.0</ele><time>2026-03-29T09:28:35.999Z</time></trkpt><trkpt lat="37.260746760131084" lon="13.65507189112188"><ele>80.0</ele><time>2026-03-29T09:28:36.999Z</time></trkpt><trkpt lat="37.26062235727633" lon="13.65537621888133"><ele>77.5</ele><time>2026-03-29T09:28:37.999Z</time></trkpt><trkpt lat="37.260495239920004" lon="13.655677376253434"><ele>75.0</ele><time>2026-03-29T09:28:38.999Z</time></trkpt><trkpt lat="37.26035530461855" lon="13.655973751345451"><ele>76.5</ele><time>2026-03-29T09:28:39.999Z</time></trkpt><trkpt lat="37.26019719606392" lon="13.656260856133963"><ele>78.0</ele><time>2026-03-29T09:28:40.999Z</time></trkpt><trkpt lat="37.26001881346197" lon="13.65653250095953"><ele>78.0</ele><time>2026-03-29T09:28:41.999Z</time></trkpt><trkpt lat="37.25981973978435" lon="13.656787114392381"><ele>78.0</ele><time>2026-03-29T09:28:42.999Z</time></trkpt><trkpt lat="37.25960387220542" lon="13.657022017477606"><ele>77.5</ele><time>2026-03-29T09:28:43.999Z</time></trkpt><trkpt lat="37.259380326405896" lon="13.65724421950927"><ele>77.0</ele><time>2026-03-29T09:28:44.999Z</time></trkpt><trkpt lat="37.25915739928" lon="13.657465792517788"><ele>75.5</ele><time>2026-03-29T09:28:45.999Z</time></trkpt><trkpt lat="37.25894408401116" lon="13.657688226709059"><ele>74.0</ele><time>2026-03-29T09:28:46.999Z</time></trkpt><trkpt lat="37.2587358610714" lon="13.657909911673755"><ele>74.0</ele><time>2026-03-29T09:28:47.999Z</time></trkpt><trkpt lat="37.25853304368684" lon="13.658130503345184"><ele>74.0</ele><time>2026-03-29T09:28:48.999Z</time></trkpt><trkpt lat="37.258340992991734" lon="13.658341583184379"><ele>74.0</ele><time>2026-03-29T09:28:50Z</time></trkpt><trkpt lat="37.258155904811616" lon="13.658558748056048"><ele>74.0</ele><time>2026-03-29T09:28:51Z</time></trkpt><trkpt lat="37.25798226648351" lon="13.658792953633057"><ele>72.5</ele><time>2026-03-29T09:28:52Z</time></trkpt><trkpt lat="37.25782889549205" lon="13.659049950535138"><ele>71.0</ele><time>2026-03-29T09:28:53Z</time></trkpt><trkpt lat="37.257693364995866" lon="13.659333009414878"><ele>71.5</ele><time>2026-03-29T09:28:54Z</time></trkpt><trkpt lat="37.257569614130524" lon="13.659638564778053"><ele>72.0</ele><time>2026-03-29T09:28:55Z</time></trkpt><trkpt lat="37.257454621477315" lon="13.659957182383899"><ele>72.0</ele><time>2026-03-29T09:28:56Z</time></trkpt><trkpt lat="37.257334708923125" lon="13.660281082610009"><ele>72.0</ele><time>2026-03-29T09:28:57Z</time></trkpt><trkpt lat="37.25721022556723" lon="13.660604152810917"><ele>70.0</ele><time>2026-03-29T09:28:58Z</time></trkpt><trkpt lat="37.257084971480175" lon="13.660926959684563"><ele>68.0</ele><time>2026-03-29T09:28:59Z</time></trkpt><trkpt lat="37.25695916254223" lon="13.661246441254903"><ele>68.0</ele><time>2026-03-29T09:29:00Z</time></trkpt><trkpt lat="37.25683467528738" lon="13.661568529646383"><ele>68.0</ele><time>2026-03-29T09:29:01Z</time></trkpt><trkpt lat="37.2567109052414" lon="13.66188860773828"><ele>69.0</ele><time>2026-03-29T09:29:02Z</time></trkpt><trkpt lat="37.25658532088663" lon="13.662210308713142"><ele>70.0</ele><time>2026-03-29T09:29:03Z</time></trkpt><trkpt lat="37.256457852371824" lon="13.662529257928306"><ele>69.0</ele><time>2026-03-29T09:29:04Z</time></trkpt><trkpt lat="37.25632552615756" lon="13.66283157838295"><ele>68.0</ele><time>2026-03-29T09:29:05Z</time></trkpt><trkpt lat="37.25617231561926" lon="13.66311903863015"><ele>68.0</ele><time>2026-03-29T09:29:06Z</time></trkpt><trkpt lat="37.255984015812366" lon="13.663390780960126"><ele>68.0</ele><time>2026-03-29T09:29:07Z</time></trkpt><trkpt lat="37.25576224980513" lon="13.663645588542284"><ele>66.0</ele><time>2026-03-29T09:29:08Z</time></trkpt><trkpt lat="37.25551344768886" lon="13.663875402657892"><ele>64.0</ele><time>2026-03-29T09:29:09Z</time></trkpt><trkpt lat="37.25524562021145" lon="13.66407478262741"><ele>64.0</ele><time>2026-03-29T09:29:10Z</time></trkpt><trkpt lat="37.25495821790411" lon="13.664232000266518"><ele>64.0</ele><time>2026-03-29T09:29:11Z</time></trkpt><trkpt lat="37.254652704258035" lon="13.66435078024314"><ele>64.0</ele><time>2026-03-29T09:29:12Z</time></trkpt><trkpt lat="37.254336405377266" lon="13.664442606430228"><ele>64.0</ele><time>2026-03-29T09:29:13Z</time></trkpt><trkpt lat="37.2540176537817" lon="13.664530802896715"><ele>63.0</ele><time>2026-03-29T09:29:14Z</time></trkpt><trkpt lat="37.253697249805285" lon="13.664625671314562"><ele>62.0</ele><time>2026-03-29T09:29:15Z</time></trkpt><trkpt lat="37.25337638043773" lon="13.664721518371994"><ele>61.0</ele><time>2026-03-29T09:29:16Z</time></trkpt><trkpt lat="37.253051097744134" lon="13.664817541836127"><ele>60.0</ele><time>2026-03-29T09:29:17Z</time></trkpt><trkpt lat="37.25272335958601" lon="13.664916593591274"><ele>60.0</ele><time>2026-03-29T09:29:18Z</time></trkpt><trkpt lat="37.2523942624879" lon="13.665016465245717"><ele>60.0</ele><time>2026-03-29T09:29:19Z</time></trkpt><trkpt lat="37.25206702402547" lon="13.665114296013016"><ele>59.5</ele><time>2026-03-29T09:29:20Z</time></trkpt><trkpt lat="37.25174788604303" lon="13.665209679302574"><ele>59.0</ele><time>2026-03-29T09:29:21Z</time></trkpt><trkpt lat="37.251435778237216" lon="13.665298294380142"><ele>59.0</ele><time>2026-03-29T09:29:22Z</time></trkpt><trkpt lat="37.25113607309294" lon="13.665392295210047"><ele>59.0</ele><time>2026-03-29T09:29:23Z</time></trkpt><trkpt lat="37.250847973406856" lon="13.665501752640466"><ele>59.5</ele><time>2026-03-29T09:29:24Z</time></trkpt><trkpt lat="37.25056945832963" lon="13.665640836849512"><ele>60.0</ele><time>2026-03-29T09:29:25Z</time></trkpt><trkpt lat="37.25029988121697" lon="13.665816744656912"><ele>60.0</ele><time>2026-03-29T09:29:26Z</time></trkpt><trkpt lat="37.250036814704934" lon="13.6660175170817"><ele>60.0</ele><time>2026-03-29T09:29:27Z</time></trkpt><trkpt lat="37.24978047157875" lon="13.666223966085044"><ele>60.0</ele><time>2026-03-29T09:29:28Z</time></trkpt><trkpt lat="37.24954277797185" lon="13.666411120171523"><ele>60.0</ele><time>2026-03-29T09:29:29Z</time></trkpt><trkpt lat="37.249312072330554" lon="13.666586132516352"><ele>60.0</ele><time>2026-03-29T09:29:30Z</time></trkpt><trkpt lat="37.24908994043133" lon="13.666753177357437"><ele>60.0</ele><time>2026-03-29T09:29:31Z</time></trkpt><trkpt lat="37.24887713894043" lon="13.666913053341435"><ele>60.5</ele><time>2026-03-29T09:29:32Z</time></trkpt><trkpt lat="37.248663884245914" lon="13.667071169527988"><ele>61.0</ele><time>2026-03-29T09:29:33Z</time></trkpt><trkpt lat="37.24845457952962" lon="13.667227628976343"><ele>61.0</ele><time>2026-03-29T09:29:34Z</time></trkpt><trkpt lat="37.248247946636525" lon="13.667381424287651"><ele>61.0</ele><time>2026-03-29T09:29:35Z</time></trkpt><trkpt lat="37.2480452704446" lon="13.667532071943826"><ele>61.0</ele><time>2026-03-29T09:29:36Z</time></trkpt><trkpt lat="37.247846089179276" lon="13.667681632866165"><ele>61.0</ele><time>2026-03-29T09:29:37Z</time></trkpt><trkpt lat="37.247650256673936" lon="13.667827817988472"><ele>61.0</ele><time>2026-03-29T09:29:38Z</time></trkpt><trkpt lat="37.24745418086179" lon="13.667973734770552"><ele>61.0</ele><time>2026-03-29T09:29:39Z</time></trkpt><trkpt lat="37.247259833405984" lon="13.668120585583983"><ele>60.5</ele><time>2026-03-29T09:29:40Z</time></trkpt><trkpt lat="37.24706645678356" lon="13.668266119473282"><ele>60.0</ele><time>2026-03-29T09:29:41Z</time></trkpt><trkpt lat="37.24686974231477" lon="13.668419396572059"><ele>60.0</ele><time>2026-03-29T09:29:42Z</time></trkpt><trkpt lat="37.24667143120682" lon="13.668579762238524"><ele>60.0</ele><time>2026-03-29T09:29:43Z</time></trkpt><trkpt lat="37.24647546608882" lon="13.668741281861111"><ele>60.0</ele><time>2026-03-29T09:29:44Z</time></trkpt><trkpt lat="37.24628141313655" lon="13.6689061342181"><ele>60.0</ele><time>2026-03-29T09:29:45Z</time></trkpt><trkpt lat="37.246078699944235" lon="13.669081558891119"><ele>60.0</ele><time>2026-03-29T09:29:46Z</time></trkpt><trkpt lat="37.245858606004475" lon="13.669249894139227"><ele>60.0</ele><time>2026-03-29T09:29:47Z</time></trkpt><trkpt lat="37.24565268449755" lon="13.66944006553732"><ele>59.5</ele><time>2026-03-29T09:29:48Z</time></trkpt><trkpt lat="37.24546298488268" lon="13.669616772971885"><ele>59.0</ele><time>2026-03-29T09:29:49Z</time></trkpt><trkpt lat="37.245291656747" lon="13.669778807324455"><ele>59.0</ele><time>2026-03-29T09:29:50Z</time></trkpt><trkpt lat="37.24512553662095" lon="13.669935982164152"><ele>59.0</ele><time>2026-03-29T09:29:51Z</time></trkpt><trkpt lat="37.24495728846759" lon="13.670103775974216"><ele>59.0</ele><time>2026-03-29T09:29:52Z</time></trkpt><trkpt lat="37.244789703793366" lon="13.670280805056851"><ele>58.333333333333336</ele><time>2026-03-29T09:29:53Z</time></trkpt><trkpt lat="37.244640012985336" lon="13.670483239808568"><ele>57.66666666666667</ele><time>2026-03-29T09:29:54Z</time></trkpt><trkpt lat="37.24448307186327" lon="13.67067787806012"><ele>57.0</ele><time>2026-03-29T09:29:55Z</time></trkpt><trkpt lat="37.24430930242637" lon="13.670859694712018"><ele>57.0</ele><time>2026-03-29T09:29:56Z</time></trkpt><trkpt lat="37.24414828234769" lon="13.671054525777945"><ele>57.0</ele><time>2026-03-29T09:29:57Z</time></trkpt><trkpt lat="37.244001614487374" lon="13.671235980529303"><ele>57.0</ele><time>2026-03-29T09:29:58Z</time></trkpt><trkpt lat="37.2438632056309" lon="13.671407217366669"><ele>57.33333333333333</ele><time>2026-03-29T09:29:59Z</time></trkpt><trkpt lat="37.243730113131285" lon="13.671565923056407"><ele>57.666666666666664</ele><time>2026-03-29T09:30:00Z</time></trkpt><trkpt lat="37.243609991677296" lon="13.671712989791944"><ele>58.0</ele><time>2026-03-29T09:30:01Z</time></trkpt><trkpt lat="37.2435162729084" lon="13.671858405638954"><ele>58.0</ele><time>2026-03-29T09:30:02Z</time></trkpt><trkpt lat="37.24341182297005" lon="13.671970603156565"><ele>58.0</ele><time>2026-03-29T09:30:03Z</time></trkpt><trkpt lat="37.24332390788336" lon="13.67206143594834"><ele>58.0</ele><time>2026-03-29T09:30:04Z</time></trkpt><trkpt lat="37.24324966951278" lon="13.672136438661374"><ele>58.0</ele><time>2026-03-29T09:30:05Z</time></trkpt><trkpt lat="37.243194566329805" lon="13.672192776313466"><ele>58.0</ele><time>2026-03-29T09:30:06Z</time></trkpt><trkpt lat="37.24309186096338" lon="13.672275717582325"><ele>58.666666666666664</ele><time>2026-03-29T09:30:08Z</time></trkpt><trkpt lat="37.24319870569445" lon="13.672534399188141"><ele>59.33333333333333</ele><time>2026-03-29T09:30:10Z</time></trkpt><trkpt lat="37.24329740470348" lon="13.672650237732059"><ele>60.0</ele><time>2026-03-29T09:30:11Z</time></trkpt><trkpt lat="37.2434129870241" lon="13.67279616081755"><ele>60.0</ele><time>2026-03-29T09:30:12Z</time></trkpt><trkpt lat="37.24354143039013" lon="13.672973160869448"><ele>60.0</ele><time>2026-03-29T09:30:13Z</time></trkpt><trkpt lat="37.24368106620966" lon="13.673165295118846"><ele>60.0</ele><time>2026-03-29T09:30:14Z</time></trkpt><trkpt lat="37.2438353800712" lon="13.673379640212378"><ele>63.0</ele><time>2026-03-29T09:30:15Z</time></trkpt><trkpt lat="37.243999735617074" lon="13.67361413234224"><ele>66.0</ele><time>2026-03-29T09:30:16Z</time></trkpt><trkpt lat="37.24416953345114" lon="13.67385832172514"><ele>66.0</ele><time>2026-03-29T09:30:17Z</time></trkpt><trkpt lat="37.244347454327325" lon="13.674113490667343"><ele>66.0</ele><time>2026-03-29T09:30:18Z</time></trkpt><trkpt lat="37.244533463583636" lon="13.674381540492737"><ele>67.5</ele><time>2026-03-29T09:30:19Z</time></trkpt><trkpt lat="37.244724367800195" lon="13.674655864218312"><ele>69.0</ele><time>2026-03-29T09:30:20Z</time></trkpt><trkpt lat="37.24491959788167" lon="13.674936254876485"><ele>69.0</ele><time>2026-03-29T09:30:21Z</time></trkpt><trkpt lat="37.24512029715541" lon="13.675224120896198"><ele>69.0</ele><time>2026-03-29T09:30:22Z</time></trkpt><trkpt lat="37.24532493298501" lon="13.675518669451954"><ele>70.0</ele><time>2026-03-29T09:30:23Z</time></trkpt><trkpt lat="37.245532321791444" lon="13.675817707199338"><ele>71.0</ele><time>2026-03-29T09:30:24Z</time></trkpt><trkpt lat="37.24574215038106" lon="13.676122670231557"><ele>72.0</ele><time>2026-03-29T09:30:25Z</time></trkpt><trkpt lat="37.24595464845916" lon="13.676428864531987"><ele>73.0</ele><time>2026-03-29T09:30:26Z</time></trkpt><trkpt lat="37.24617186341648" lon="13.676740935925597"><ele>72.5</ele><time>2026-03-29T09:30:27Z</time></trkpt><trkpt lat="37.24639036013009" lon="13.677054236074628"><ele>72.0</ele><time>2026-03-29T09:30:28Z</time></trkpt><trkpt lat="37.24660909240162" lon="13.677368429893974"><ele>72.0</ele><time>2026-03-29T09:30:29Z</time></trkpt><trkpt lat="37.24682646367103" lon="13.677681315680838"><ele>72.0</ele><time>2026-03-29T09:30:30Z</time></trkpt><trkpt lat="37.24703797672293" lon="13.677985742676594"><ele>73.0</ele><time>2026-03-29T09:30:31Z</time></trkpt><trkpt lat="37.24724227947039" lon="13.678280518088336"><ele>74.0</ele><time>2026-03-29T09:30:32Z</time></trkpt><trkpt lat="37.24743992273172" lon="13.678565053862151"><ele>75.5</ele><time>2026-03-29T09:30:33Z</time></trkpt><trkpt lat="37.24763176927627" lon="13.67884164295938"><ele>77.0</ele><time>2026-03-29T09:30:34Z</time></trkpt><trkpt lat="37.24781949399566" lon="13.679108994287825"><ele>77.0</ele><time>2026-03-29T09:30:35Z</time></trkpt><trkpt lat="37.248002932673096" lon="13.679367324410373"><ele>77.0</ele><time>2026-03-29T09:30:36Z</time></trkpt><trkpt lat="37.24818572443991" lon="13.679631227587672"><ele>78.0</ele><time>2026-03-29T09:30:37Z</time></trkpt><trkpt lat="37.24835068298283" lon="13.679883990922033"><ele>79.0</ele><time>2026-03-29T09:30:38Z</time></trkpt><trkpt lat="37.24849546195584" lon="13.680145846386896"><ele>80.0</ele><time>2026-03-29T09:30:38.999Z</time></trkpt><trkpt lat="37.24861999210693" lon="13.680428314529669"><ele>81.0</ele><time>2026-03-29T09:30:39.999Z</time></trkpt><trkpt lat="37.248705379649195" lon="13.68073851115202"><ele>81.0</ele><time>2026-03-29T09:30:40.999Z</time></trkpt><trkpt lat="37.24875374682125" lon="13.68106214280709"><ele>81.0</ele><time>2026-03-29T09:30:41.999Z</time></trkpt><trkpt lat="37.24877105795194" lon="13.681390249437701"><ele>82.5</ele><time>2026-03-29T09:30:42.999Z</time></trkpt><trkpt lat="37.24875466998133" lon="13.68171142610097"><ele>84.0</ele><time>2026-03-29T09:30:43.999Z</time></trkpt><trkpt lat="37.248705877323616" lon="13.68202308622388"><ele>86.0</ele><time>2026-03-29T09:30:44.999Z</time></trkpt><trkpt lat="37.24862405662948" lon="13.682331994482869"><ele>88.0</ele><time>2026-03-29T09:30:45.999Z</time></trkpt><trkpt lat="37.24849554910169" lon="13.682630255187682"><ele>88.5</ele><time>2026-03-29T09:30:46.999Z</time></trkpt><trkpt lat="37.248386689956696" lon="13.682945367775954"><ele>89.0</ele><time>2026-03-29T09:30:47.999Z</time></trkpt><trkpt lat="37.24827351921202" lon="13.683255677462123"><ele>89.0</ele><time>2026-03-29T09:30:48.999Z</time></trkpt><trkpt lat="37.2481849464711" lon="13.683577388934474"><ele>89.0</ele><time>2026-03-29T09:30:49.999Z</time></trkpt><trkpt lat="37.24810797908999" lon="13.683909469409484"><ele>87.5</ele><time>2026-03-29T09:30:50.999Z</time></trkpt><trkpt lat="37.24804174142827" lon="13.684248449342258"><ele>86.0</ele><time>2026-03-29T09:30:51.999Z</time></trkpt><trkpt lat="37.24798926159867" lon="13.68459368346719"><ele>86.0</ele><time>2026-03-29T09:30:52.999Z</time></trkpt><trkpt lat="37.247950400153826" lon="13.684944879961774"><ele>86.0</ele><time>2026-03-29T09:30:53.999Z</time></trkpt><trkpt lat="37.2479272363237" lon="13.685296312162764"><ele>87.0</ele><time>2026-03-29T09:30:54.999Z</time></trkpt><trkpt lat="37.24792498617546" lon="13.685647913528742"><ele>88.0</ele><time>2026-03-29T09:30:55.999Z</time></trkpt><trkpt lat="37.2479471545387" lon="13.686001911218083"><ele>88.0</ele><time>2026-03-29T09:30:56.999Z</time></trkpt><trkpt lat="37.24799046138869" lon="13.686357878929138"><ele>88.0</ele><time>2026-03-29T09:30:57.999Z</time></trkpt><trkpt lat="37.24805685950927" lon="13.686719496817993"><ele>91.0</ele><time>2026-03-29T09:30:58.999Z</time></trkpt><trkpt lat="37.248152902060625" lon="13.68708234155636"><ele>94.0</ele><time>2026-03-29T09:30:59.999Z</time></trkpt><trkpt lat="37.2482590391113" lon="13.687446239576444"><ele>95.0</ele><time>2026-03-29T09:31:00.999Z</time></trkpt><trkpt lat="37.24837543673374" lon="13.687810944816476"><ele>96.0</ele><time>2026-03-29T09:31:01.999Z</time></trkpt><trkpt lat="37.248495050835146" lon="13.68818062825416"><ele>96.0</ele><time>2026-03-29T09:31:02.999Z</time></trkpt><trkpt lat="37.24861356332414" lon="13.688556321893053"><ele>96.0</ele><time>2026-03-29T09:31:03.999Z</time></trkpt><trkpt lat="37.248729575879395" lon="13.688933931853656"><ele>96.0</ele><time>2026-03-29T09:31:04.999Z</time></trkpt><trkpt lat="37.24884378446784" lon="13.68931413112524"><ele>96.0</ele><time>2026-03-29T09:31:05.999Z</time></trkpt><trkpt lat="37.248962407725664" lon="13.68969400814282"><ele>99.5</ele><time>2026-03-29T09:31:06.999Z</time></trkpt><trkpt lat="37.24908072588222" lon="13.690073228238427"><ele>103.0</ele><time>2026-03-29T09:31:07.999Z</time></trkpt><trkpt lat="37.249199935205915" lon="13.690455070618311"><ele>103.5</ele><time>2026-03-29T09:31:08.999Z</time></trkpt><trkpt lat="37.24931553675689" lon="13.690837310247174"><ele>104.0</ele><time>2026-03-29T09:31:09.999Z</time></trkpt><trkpt lat="37.2494287905597" lon="13.691217091436426"><ele>104.0</ele><time>2026-03-29T09:31:11Z</time></trkpt><trkpt lat="37.24954154053148" lon="13.691588499142622"><ele>104.0</ele><time>2026-03-29T09:31:12Z</time></trkpt><trkpt lat="37.24964741039042" lon="13.691935819578438"><ele>104.0</ele><time>2026-03-29T09:31:13Z</time></trkpt><trkpt lat="37.24974374473551" lon="13.692256707941493"><ele>104.0</ele><time>2026-03-29T09:31:14Z</time></trkpt><trkpt lat="37.24983966988019" lon="13.692577318386316"><ele>107.0</ele><time>2026-03-29T09:31:15Z</time></trkpt><trkpt lat="37.24995087057294" lon="13.692899113597035"><ele>110.0</ele><time>2026-03-29T09:31:16Z</time></trkpt><trkpt lat="37.250090876980074" lon="13.693211495389397"><ele>110.0</ele><time>2026-03-29T09:31:17Z</time></trkpt><trkpt lat="37.25025446981915" lon="13.693515879658603"><ele>110.0</ele><time>2026-03-29T09:31:18Z</time></trkpt><trkpt lat="37.250433530861436" lon="13.693814383445716"><ele>109.5</ele><time>2026-03-29T09:31:19Z</time></trkpt><trkpt lat="37.25061385330907" lon="13.694118813346169"><ele>109.0</ele><time>2026-03-29T09:31:20Z</time></trkpt><trkpt lat="37.25078930342031" lon="13.694428941619861"><ele>113.5</ele><time>2026-03-29T09:31:21Z</time></trkpt><trkpt lat="37.25096477660336" lon="13.694731630368253"><ele>118.0</ele><time>2026-03-29T09:31:22Z</time></trkpt><trkpt lat="37.25114106400852" lon="13.695026376832134"><ele>118.5</ele><time>2026-03-29T09:31:23Z</time></trkpt><trkpt lat="37.251296085726715" lon="13.695305924775013"><ele>119.0</ele><time>2026-03-29T09:31:24Z</time></trkpt><trkpt lat="37.25141727193805" lon="13.695583886203291"><ele>124.0</ele><time>2026-03-29T09:31:25Z</time></trkpt><trkpt lat="37.25149776412729" lon="13.695874633257514"><ele>129.0</ele><time>2026-03-29T09:31:26Z</time></trkpt><trkpt lat="37.25154143906467" lon="13.696189089543795"><ele>131.0</ele><time>2026-03-29T09:31:27Z</time></trkpt><trkpt lat="37.251558610448704" lon="13.696509629702534"><ele>133.0</ele><time>2026-03-29T09:31:28Z</time></trkpt><trkpt lat="37.25157690287486" lon="13.696833991784613"><ele>133.0</ele><time>2026-03-29T09:31:29Z</time></trkpt><trkpt lat="37.251618043592686" lon="13.697143754912405"><ele>133.0</ele><time>2026-03-29T09:31:30Z</time></trkpt><trkpt lat="37.251681816457406" lon="13.697419104877689"><ele>133.0</ele><time>2026-03-29T09:31:31Z</time></trkpt><trkpt lat="37.25178101839906" lon="13.697676701817294"><ele>133.0</ele><time>2026-03-29T09:31:32Z</time></trkpt><trkpt lat="37.251911485978425" lon="13.69792784957594"><ele>128.0</ele><time>2026-03-29T09:31:33Z</time></trkpt><trkpt lat="37.25207965021964" lon="13.698166339382094"><ele>123.0</ele><time>2026-03-29T09:31:34Z</time></trkpt><trkpt lat="37.25227327122589" lon="13.698377650294649"><ele>125.0</ele><time>2026-03-29T09:31:35Z</time></trkpt><trkpt lat="37.25246990486262" lon="13.698586826345393"><ele>127.0</ele><time>2026-03-29T09:31:36Z</time></trkpt><trkpt lat="37.25264565260353" lon="13.698793630295"><ele>127.0</ele><time>2026-03-29T09:31:37Z</time></trkpt><trkpt lat="37.25281315867223" lon="13.698994028245956"><ele>127.0</ele><time>2026-03-29T09:31:38Z</time></trkpt><trkpt lat="37.2529798191862" lon="13.69918730434129"><ele>128.66666666666669</ele><time>2026-03-29T09:31:39Z</time></trkpt><trkpt lat="37.25312553641758" lon="13.699379825040563"><ele>130.33333333333334</ele><time>2026-03-29T09:31:40Z</time></trkpt><trkpt lat="37.25324674239489" lon="13.69960086213437"><ele>132.0</ele><time>2026-03-29T09:31:41Z</time></trkpt><trkpt lat="37.25333517860272" lon="13.699859304842247"><ele>132.0</ele><time>2026-03-29T09:31:42Z</time></trkpt><trkpt lat="37.253390796533175" lon="13.700124049643117"><ele>132.0</ele><time>2026-03-29T09:31:43Z</time></trkpt><trkpt lat="37.25341525939157" lon="13.700407265733576"><ele>132.0</ele><time>2026-03-29T09:31:44Z</time></trkpt><trkpt lat="37.25341018362488" lon="13.700701741048851"><ele>132.0</ele><time>2026-03-29T09:31:45Z</time></trkpt><trkpt lat="37.25338520000535" lon="13.701010907031831"><ele>132.0</ele><time>2026-03-29T09:31:46Z</time></trkpt><trkpt lat="37.25334969353147" lon="13.701332622165786"><ele>132.0</ele><time>2026-03-29T09:31:47Z</time></trkpt><trkpt lat="37.25331868122205" lon="13.701661332854014"><ele>132.0</ele><time>2026-03-29T09:31:48Z</time></trkpt><trkpt lat="37.25329044263142" lon="13.701994494139816"><ele>130.5</ele><time>2026-03-29T09:31:49Z</time></trkpt><trkpt lat="37.25326079768299" lon="13.702327690382576"><ele>129.0</ele><time>2026-03-29T09:31:50Z</time></trkpt><trkpt lat="37.25321967259511" lon="13.702662323406495"><ele>128.0</ele><time>2026-03-29T09:31:51Z</time></trkpt><trkpt lat="37.25315876972237" lon="13.702992267236263"><ele>127.0</ele><time>2026-03-29T09:31:52Z</time></trkpt><trkpt lat="37.25308447308292" lon="13.703315088842928"><ele>129.5</ele><time>2026-03-29T09:31:53Z</time></trkpt><trkpt lat="37.253009454753716" lon="13.703633331467655"><ele>132.0</ele><time>2026-03-29T09:31:54Z</time></trkpt><trkpt lat="37.25294171906921" lon="13.703950733422737"><ele>132.0</ele><time>2026-03-29T09:31:55Z</time></trkpt><trkpt lat="37.252873126588916" lon="13.70426624688185"><ele>132.0</ele><time>2026-03-29T09:31:56Z</time></trkpt><trkpt lat="37.252810864515645" lon="13.704568824855418"><ele>131.0</ele><time>2026-03-29T09:31:57Z</time></trkpt><trkpt lat="37.25275222051685" lon="13.70484932820367"><ele>130.0</ele><time>2026-03-29T09:31:58Z</time></trkpt><trkpt lat="37.25269916154591" lon="13.705116989290365"><ele>130.33333333333334</ele><time>2026-03-29T09:31:59Z</time></trkpt><trkpt lat="37.25266913901282" lon="13.705385995625225"><ele>130.66666666666666</ele><time>2026-03-29T09:32:00Z</time></trkpt><trkpt lat="37.25268103501812" lon="13.70565968938291"><ele>131.0</ele><time>2026-03-29T09:32:01Z</time></trkpt><trkpt lat="37.2527274095761" lon="13.705938496111804"><ele>131.0</ele><time>2026-03-29T09:32:02Z</time></trkpt><trkpt lat="37.25281279318158" lon="13.706221471834482"><ele>131.0</ele><time>2026-03-29T09:32:03Z</time></trkpt><trkpt lat="37.25293699678355" lon="13.70648623640132"><ele>131.0</ele><time>2026-03-29T09:32:04Z</time></trkpt><trkpt lat="37.25309343759408" lon="13.706721015065696"><ele>131.0</ele><time>2026-03-29T09:32:05Z</time></trkpt><trkpt lat="37.253282650133" lon="13.706923858183222"><ele>132.0</ele><time>2026-03-29T09:32:06Z</time></trkpt><trkpt lat="37.25349424296658" lon="13.707079959162117"><ele>133.0</ele><time>2026-03-29T09:32:07Z</time></trkpt><trkpt lat="37.253705524202935" lon="13.707180867368297"><ele>133.0</ele><time>2026-03-29T09:32:08Z</time></trkpt><trkpt lat="37.25390719442359" lon="13.707283752264296"><ele>133.0</ele><time>2026-03-29T09:32:09Z</time></trkpt><trkpt lat="37.254091453786664" lon="13.707423746311752"><ele>133.0</ele><time>2026-03-29T09:32:10Z</time></trkpt><trkpt lat="37.254250212895755" lon="13.707613686141771"><ele>135.0</ele><time>2026-03-29T09:32:11Z</time></trkpt><trkpt lat="37.25437486348798" lon="13.707850716118767"><ele>137.0</ele><time>2026-03-29T09:32:12Z</time></trkpt><trkpt lat="37.25447238734499" lon="13.708122011004784"><ele>137.0</ele><time>2026-03-29T09:32:13Z</time></trkpt><trkpt lat="37.25454880943538" lon="13.7084147916479"><ele>137.0</ele><time>2026-03-29T09:32:14Z</time></trkpt><trkpt lat="37.25462062178518" lon="13.708726751333105"><ele>137.0</ele><time>2026-03-29T09:32:15Z</time></trkpt><trkpt lat="37.25464941057613" lon="13.709046282127302"><ele>137.0</ele><time>2026-03-29T09:32:16Z</time></trkpt><trkpt lat="37.25465206455763" lon="13.709383327791665"><ele>137.5</ele><time>2026-03-29T09:32:17.001Z</time></trkpt><trkpt lat="37.25465312988692" lon="13.709731754561123"><ele>138.0</ele><time>2026-03-29T09:32:18.001Z</time></trkpt><trkpt lat="37.25466480273275" lon="13.71008053731448"><ele>139.0</ele><time>2026-03-29T09:32:19.001Z</time></trkpt><trkpt lat="37.254683489172045" lon="13.710433333188"><ele>140.0</ele><time>2026-03-29T09:32:20.001Z</time></trkpt><trkpt lat="37.25470134972053" lon="13.710795255423825"><ele>141.0</ele><time>2026-03-29T09:32:21.001Z</time></trkpt><trkpt lat="37.25471682634287" lon="13.711153506662738"><ele>142.0</ele><time>2026-03-29T09:32:22.001Z</time></trkpt><trkpt lat="37.25472869815325" lon="13.711510639260787"><ele>142.0</ele><time>2026-03-29T09:32:23.001Z</time></trkpt><trkpt lat="37.25474160132991" lon="13.711867099734791"><ele>142.0</ele><time>2026-03-29T09:32:24.001Z</time></trkpt><trkpt lat="37.25475744251743" lon="13.712221045877586"><ele>146.5</ele><time>2026-03-29T09:32:25.001Z</time></trkpt><trkpt lat="37.25477370503041" lon="13.712568358530621"><ele>151.0</ele><time>2026-03-29T09:32:26.001Z</time></trkpt><trkpt lat="37.25478777142094" lon="13.712912865747407"><ele>161.5</ele><time>2026-03-29T09:32:27.001Z</time></trkpt><trkpt lat="37.25479740250353" lon="13.713253383526617"><ele>172.0</ele><time>2026-03-29T09:32:28.001Z</time></trkpt><trkpt lat="37.2547965117881" lon="13.713589883696612"><ele>170.5</ele><time>2026-03-29T09:32:29.001Z</time></trkpt><trkpt lat="37.2547741406925" lon="13.713919683895975"><ele>169.0</ele><time>2026-03-29T09:32:30.001Z</time></trkpt><trkpt lat="37.25473217241313" lon="13.714221388531021"><ele>171.66666666666669</ele><time>2026-03-29T09:32:31.001Z</time></trkpt><trkpt lat="37.254682735661895" lon="13.714487992559457"><ele>174.33333333333334</ele><time>2026-03-29T09:32:32.001Z</time></trkpt><trkpt lat="37.254633296672544" lon="13.714724950860719"><ele>177.0</ele><time>2026-03-29T09:32:33.001Z</time></trkpt><trkpt lat="37.25460258821144" lon="13.714930022496416"><ele>177.0</ele><time>2026-03-29T09:32:34.001Z</time></trkpt><trkpt lat="37.25461111474072" lon="13.715122282498543"><ele>177.0</ele><time>2026-03-29T09:32:35.001Z</time></trkpt><trkpt lat="37.254656462311274" lon="13.715312291171943"><ele>177.0</ele><time>2026-03-29T09:32:36.001Z</time></trkpt><trkpt lat="37.25475986245729" lon="13.715477066408296"><ele>174.66666666666666</ele><time>2026-03-29T09:32:37.001Z</time></trkpt><trkpt lat="37.254898610072416" lon="13.715608502053831"><ele>172.33333333333331</ele><time>2026-03-29T09:32:38.001Z</time></trkpt><trkpt lat="37.255083564570384" lon="13.715708361193574"><ele>170.0</ele><time>2026-03-29T09:32:39.001Z</time></trkpt><trkpt lat="37.25528827283004" lon="13.715801812542935"><ele>170.0</ele><time>2026-03-29T09:32:40.001Z</time></trkpt><trkpt lat="37.25550592587299" lon="13.715910129250998"><ele>170.0</ele><time>2026-03-29T09:32:41.001Z</time></trkpt><trkpt lat="37.25573532878365" lon="13.716033596467689"><ele>158.5</ele><time>2026-03-29T09:32:42.001Z</time></trkpt><trkpt lat="37.25597253563232" lon="13.716154581030704"><ele>147.0</ele><time>2026-03-29T09:32:43.001Z</time></trkpt><trkpt lat="37.25621863341986" lon="13.716264018255652"><ele>153.0</ele><time>2026-03-29T09:32:44.001Z</time></trkpt><trkpt lat="37.256473668214475" lon="13.716353674161159"><ele>159.0</ele><time>2026-03-29T09:32:45Z</time></trkpt><trkpt lat="37.25672806712848" lon="13.716425963108456"><ele>159.0</ele><time>2026-03-29T09:32:46Z</time></trkpt><trkpt lat="37.25697457559746" lon="13.716496397664761"><ele>159.0</ele><time>2026-03-29T09:32:47Z</time></trkpt><trkpt lat="37.25720538414341" lon="13.716576299138575"><ele>165.0</ele><time>2026-03-29T09:32:48Z</time></trkpt><trkpt lat="37.25742265441359" lon="13.716677951517845"><ele>171.0</ele><time>2026-03-29T09:32:49Z</time></trkpt><trkpt lat="37.25762770672173" lon="13.716808579600729"><ele>168.66666666666666</ele><time>2026-03-29T09:32:50Z</time></trkpt><trkpt lat="37.257818104652465" lon="13.716963138145559"><ele>166.33333333333331</ele><time>2026-03-29T09:32:51Z</time></trkpt><trkpt lat="37.2579890257813" lon="13.717137028940309"><ele>164.0</ele><time>2026-03-29T09:32:52Z</time></trkpt><trkpt lat="37.258137060864456" lon="13.717335676873274"><ele>164.0</ele><time>2026-03-29T09:32:53Z</time></trkpt><trkpt lat="37.25827294964418" lon="13.717566214654079"><ele>164.0</ele><time>2026-03-29T09:32:54Z</time></trkpt><trkpt lat="37.25839861876764" lon="13.717809640223217"><ele>162.5</ele><time>2026-03-29T09:32:55Z</time></trkpt><trkpt lat="37.2585169379232" lon="13.718052220451847"><ele>161.0</ele><time>2026-03-29T09:32:56Z</time></trkpt><trkpt lat="37.25863522051282" lon="13.718291751511972"><ele>161.0</ele><time>2026-03-29T09:32:57Z</time></trkpt><trkpt lat="37.25874731187943" lon="13.718525781158114"><ele>161.0</ele><time>2026-03-29T09:32:58Z</time></trkpt><trkpt lat="37.25884390267435" lon="13.718747919964557"><ele>161.0</ele><time>2026-03-29T09:32:59Z</time></trkpt><trkpt lat="37.25892941851039" lon="13.718959378288409"><ele>162.66666666666666</ele><time>2026-03-29T09:33:00Z</time></trkpt><trkpt lat="37.259017889515654" lon="13.7191628083632"><ele>164.33333333333334</ele><time>2026-03-29T09:33:01Z</time></trkpt><trkpt lat="37.25912779055757" lon="13.719343194446742"><ele>166.0</ele><time>2026-03-29T09:33:02Z</time></trkpt><trkpt lat="37.25926702269744" lon="13.719504188155978"><ele>166.0</ele><time>2026-03-29T09:33:03Z</time></trkpt><trkpt lat="37.259432883105156" lon="13.719635169705167"><ele>166.0</ele><time>2026-03-29T09:33:04Z</time></trkpt><trkpt lat="37.259627294182586" lon="13.719740868834009"><ele>166.0</ele><time>2026-03-29T09:33:05Z</time></trkpt><trkpt lat="37.25984075871871" lon="13.719810085246053"><ele>171.0</ele><time>2026-03-29T09:33:06Z</time></trkpt><trkpt lat="37.26006831290116" lon="13.719867996396166"><ele>176.0</ele><time>2026-03-29T09:33:07Z</time></trkpt><trkpt lat="37.26030449114678" lon="13.719953403708788"><ele>176.0</ele><time>2026-03-29T09:33:08Z</time></trkpt><trkpt lat="37.26053847410359" lon="13.720053583817435"><ele>176.0</ele><time>2026-03-29T09:33:09Z</time></trkpt><trkpt lat="37.26077747672543" lon="13.720151485603973"><ele>173.5</ele><time>2026-03-29T09:33:10Z</time></trkpt><trkpt lat="37.26101691031249" lon="13.720244229839674"><ele>171.0</ele><time>2026-03-29T09:33:11Z</time></trkpt><trkpt lat="37.26125000645686" lon="13.720343639606096"><ele>180.0</ele><time>2026-03-29T09:33:12Z</time></trkpt><trkpt lat="37.26147373664902" lon="13.72047147027439"><ele>189.0</ele><time>2026-03-29T09:33:13Z</time></trkpt><trkpt lat="37.26167721710034" lon="13.720638262554333"><ele>189.0</ele><time>2026-03-29T09:33:14Z</time></trkpt><trkpt lat="37.261860801188796" lon="13.720835870058107"><ele>189.0</ele><time>2026-03-29T09:33:15Z</time></trkpt><trkpt lat="37.26202813949641" lon="13.721067633512492"><ele>187.5</ele><time>2026-03-29T09:33:16Z</time></trkpt><trkpt lat="37.26219212253439" lon="13.721313898530456"><ele>186.0</ele><time>2026-03-29T09:33:17Z</time></trkpt><trkpt lat="37.26236199350805" lon="13.721566708611919"><ele>188.5</ele><time>2026-03-29T09:33:18Z</time></trkpt><trkpt lat="37.26253683086947" lon="13.72182193182889"><ele>191.0</ele><time>2026-03-29T09:33:19Z</time></trkpt><trkpt lat="37.26271201187523" lon="13.722079615176593"><ele>191.0</ele><time>2026-03-29T09:33:20Z</time></trkpt><trkpt lat="37.262890069493515" lon="13.722341758502568"><ele>191.0</ele><time>2026-03-29T09:33:21Z</time></trkpt><trkpt lat="37.263068992631894" lon="13.722601614155753"><ele>196.5</ele><time>2026-03-29T09:33:22Z</time></trkpt><trkpt lat="37.263247744773025" lon="13.722862166482033"><ele>202.0</ele><time>2026-03-29T09:33:23Z</time></trkpt><trkpt lat="37.263424642060784" lon="13.723124956711455"><ele>202.0</ele><time>2026-03-29T09:33:24Z</time></trkpt><trkpt lat="37.26360045638384" lon="13.723387715946076"><ele>202.0</ele><time>2026-03-29T09:33:25Z</time></trkpt><trkpt lat="37.26377744730763" lon="13.723648601429037"><ele>210.0</ele><time>2026-03-29T09:33:26Z</time></trkpt><trkpt lat="37.26395308152425" lon="13.723908536471466"><ele>218.0</ele><time>2026-03-29T09:33:27Z</time></trkpt><trkpt lat="37.26412636641498" lon="13.724169164020116"><ele>218.0</ele><time>2026-03-29T09:33:28Z</time></trkpt><trkpt lat="37.26429501026197" lon="13.724426317832119"><ele>218.0</ele><time>2026-03-29T09:33:29Z</time></trkpt><trkpt lat="37.264462186074866" lon="13.724679607779146"><ele>218.0</ele><time>2026-03-29T09:33:30Z</time></trkpt><trkpt lat="37.264628182247655" lon="13.724926102638825"><ele>218.0</ele><time>2026-03-29T09:33:31Z</time></trkpt><trkpt lat="37.26479675796181" lon="13.72516278831976"><ele>222.5</ele><time>2026-03-29T09:33:32Z</time></trkpt><trkpt lat="37.26497850403659" lon="13.725379239879791"><ele>227.0</ele><time>2026-03-29T09:33:33Z</time></trkpt><trkpt lat="37.26518021305126" lon="13.725577578730308"><ele>227.0</ele><time>2026-03-29T09:33:34Z</time></trkpt><trkpt lat="37.265393921004716" lon="13.72576295362654"><ele>227.0</ele><time>2026-03-29T09:33:35Z</time></trkpt><trkpt lat="37.26561320550768" lon="13.725943865279469"><ele>233.0</ele><time>2026-03-29T09:33:36Z</time></trkpt><trkpt lat="37.2658348453333" lon="13.726126102778728"><ele>239.0</ele><time>2026-03-29T09:33:37Z</time></trkpt><trkpt lat="37.266053591610635" lon="13.726307040025326"><ele>239.0</ele><time>2026-03-29T09:33:38Z</time></trkpt><trkpt lat="37.266257900300964" lon="13.726491510492027"><ele>239.0</ele><time>2026-03-29T09:33:39Z</time></trkpt><trkpt lat="37.26644462454937" lon="13.726692197489342"><ele>243.0</ele><time>2026-03-29T09:33:40Z</time></trkpt><trkpt lat="37.26660699174467" lon="13.726918668913338"><ele>247.0</ele><time>2026-03-29T09:33:41Z</time></trkpt><trkpt lat="37.26674246234795" lon="13.727175309363261"><ele>247.0</ele><time>2026-03-29T09:33:42Z</time></trkpt><trkpt lat="37.26686716360266" lon="13.72745233466503"><ele>247.0</ele><time>2026-03-29T09:33:43Z</time></trkpt><trkpt lat="37.266992871426716" lon="13.727739435066006"><ele>249.5</ele><time>2026-03-29T09:33:44Z</time></trkpt><trkpt lat="37.267120430993295" lon="13.728034958648681"><ele>252.0</ele><time>2026-03-29T09:33:45Z</time></trkpt><trkpt lat="37.26725276265269" lon="13.728337269130785"><ele>252.0</ele><time>2026-03-29T09:33:46Z</time></trkpt><trkpt lat="37.26739028756297" lon="13.728644281123511"><ele>252.0</ele><time>2026-03-29T09:33:47Z</time></trkpt><trkpt lat="37.26753082387394" lon="13.728954538692319"><ele>252.0</ele><time>2026-03-29T09:33:48Z</time></trkpt><trkpt lat="37.267670908285496" lon="13.729266174052796"><ele>252.0</ele><time>2026-03-29T09:33:49Z</time></trkpt><trkpt lat="37.26780923961696" lon="13.729576789324824"><ele>252.0</ele><time>2026-03-29T09:33:50Z</time></trkpt><trkpt lat="37.26794570107661" lon="13.729883367974088"><ele>252.0</ele><time>2026-03-29T09:33:51Z</time></trkpt><trkpt lat="37.26807878701703" lon="13.730183486623488"><ele>252.0</ele><time>2026-03-29T09:33:52Z</time></trkpt><trkpt lat="37.26820782653737" lon="13.730476107510457"><ele>252.0</ele><time>2026-03-29T09:33:53Z</time></trkpt><trkpt lat="37.26834071399658" lon="13.73076433843071"><ele>252.0</ele><time>2026-03-29T09:33:54Z</time></trkpt><trkpt lat="37.268488188860914" lon="13.731044346036844"><ele>252.0</ele><time>2026-03-29T09:33:55Z</time></trkpt><trkpt lat="37.268652323288364" lon="13.731312679613527"><ele>253.0</ele><time>2026-03-29T09:33:56Z</time></trkpt><trkpt lat="37.26883898373443" lon="13.731559932121593"><ele>254.0</ele><time>2026-03-29T09:33:57Z</time></trkpt><trkpt lat="37.26904569581538" lon="13.731785437080116"><ele>251.5</ele><time>2026-03-29T09:33:58Z</time></trkpt><trkpt lat="37.26927336819796" lon="13.731987755124972"><ele>249.0</ele><time>2026-03-29T09:33:59Z</time></trkpt><trkpt lat="37.2695290919208" lon="13.732164957684807"><ele>249.0</ele><time>2026-03-29T09:34:00Z</time></trkpt><trkpt lat="37.26979916959863" lon="13.732327961697546"><ele>249.0</ele><time>2026-03-29T09:34:01Z</time></trkpt><trkpt lat="37.27007678883609" lon="13.732480918488365"><ele>249.0</ele><time>2026-03-29T09:34:02Z</time></trkpt><trkpt lat="37.27035619029754" lon="13.732635630632016"><ele>249.0</ele><time>2026-03-29T09:34:03Z</time></trkpt><trkpt lat="37.27063496023573" lon="13.732794074212837"><ele>247.5</ele><time>2026-03-29T09:34:04Z</time></trkpt><trkpt lat="37.27091532081948" lon="13.732952200700197"><ele>246.0</ele><time>2026-03-29T09:34:05Z</time></trkpt><trkpt lat="37.271195943965466" lon="13.733111033148196"><ele>247.0</ele><time>2026-03-29T09:34:06.001Z</time></trkpt><trkpt lat="37.27147491827134" lon="13.733270215325462"><ele>248.0</ele><time>2026-03-29T09:34:07.001Z</time></trkpt><trkpt lat="37.27175578110745" lon="13.733431872501262"><ele>248.0</ele><time>2026-03-29T09:34:08.001Z</time></trkpt><trkpt lat="37.27204032231091" lon="13.733601028464069"><ele>248.0</ele><time>2026-03-29T09:34:09.001Z</time></trkpt><trkpt lat="37.272326216416666" lon="13.733779847589123"><ele>248.5</ele><time>2026-03-29T09:34:10.001Z</time></trkpt><trkpt lat="37.27261092754187" lon="13.733966674503858"><ele>249.0</ele><time>2026-03-29T09:34:11.001Z</time></trkpt><trkpt lat="37.272875730452675" lon="13.734147365417673"><ele>248.5</ele><time>2026-03-29T09:34:12.001Z</time></trkpt><trkpt lat="37.27313048800009" lon="13.734321083453603"><ele>248.0</ele><time>2026-03-29T09:34:13.001Z</time></trkpt><trkpt lat="37.273369953636724" lon="13.734482735206814"><ele>248.0</ele><time>2026-03-29T09:34:14.001Z</time></trkpt><trkpt lat="37.273598030597874" lon="13.734644355563582"><ele>248.0</ele><time>2026-03-29T09:34:15.001Z</time></trkpt><trkpt lat="37.273814912530234" lon="13.734823088980782"><ele>250.5</ele><time>2026-03-29T09:34:16.001Z</time></trkpt><trkpt lat="37.274012443308095" lon="13.735020665615432"><ele>253.0</ele><time>2026-03-29T09:34:17.001Z</time></trkpt><trkpt lat="37.27421029361598" lon="13.735241289013196"><ele>253.5</ele><time>2026-03-29T09:34:18.001Z</time></trkpt><trkpt lat="37.274405870603914" lon="13.735477103456475"><ele>254.0</ele><time>2026-03-29T09:34:19.001Z</time></trkpt><trkpt lat="37.27461379258055" lon="13.735711545317525"><ele>255.0</ele><time>2026-03-29T09:34:20.001Z</time></trkpt><trkpt lat="37.27482401930603" lon="13.735948585901879"><ele>256.0</ele><time>2026-03-29T09:34:21.001Z</time></trkpt><trkpt lat="37.27504464976718" lon="13.736177036855224"><ele>257.0</ele><time>2026-03-29T09:34:22.001Z</time></trkpt><trkpt lat="37.27525476556226" lon="13.73642698473019"><ele>258.0</ele><time>2026-03-29T09:34:23.001Z</time></trkpt><trkpt lat="37.27547020751029" lon="13.736671141366879"><ele>261.5</ele><time>2026-03-29T09:34:24.001Z</time></trkpt><trkpt lat="37.27569079927295" lon="13.736914493656602"><ele>265.0</ele><time>2026-03-29T09:34:25.001Z</time></trkpt><trkpt lat="37.27591260254228" lon="13.737154280728777"><ele>265.0</ele><time>2026-03-29T09:34:26.001Z</time></trkpt><trkpt lat="37.27613211073153" lon="13.737397308489284"><ele>265.0</ele><time>2026-03-29T09:34:27.001Z</time></trkpt><trkpt lat="37.27634500600277" lon="13.73764801898971"><ele>267.5</ele><time>2026-03-29T09:34:28.001Z</time></trkpt><trkpt lat="37.27654780343743" lon="13.737912006301338"><ele>270.0</ele><time>2026-03-29T09:34:29.001Z</time></trkpt><trkpt lat="37.27674193640939" lon="13.738183780324027"><ele>270.0</ele><time>2026-03-29T09:34:30.001Z</time></trkpt><trkpt lat="37.276931179474715" lon="13.738457201291451"><ele>270.0</ele><time>2026-03-29T09:34:31.001Z</time></trkpt><trkpt lat="37.277121111926384" lon="13.738726477421897"><ele>273.5</ele><time>2026-03-29T09:34:32.001Z</time></trkpt><trkpt lat="37.27731182306226" lon="13.738990456169326"><ele>277.0</ele><time>2026-03-29T09:34:33.001Z</time></trkpt><trkpt lat="37.277500168253695" lon="13.739254178555383"><ele>280.5</ele><time>2026-03-29T09:34:34.001Z</time></trkpt><trkpt lat="37.2776862251736" lon="13.739518029754088"><ele>284.0</ele><time>2026-03-29T09:34:35.001Z</time></trkpt><trkpt lat="37.27787094596122" lon="13.739775006213105"><ele>284.0</ele><time>2026-03-29T09:34:36.001Z</time></trkpt><trkpt lat="37.278052708629126" lon="13.740032173277886"><ele>284.0</ele><time>2026-03-29T09:34:37.001Z</time></trkpt><trkpt lat="37.27822658095961" lon="13.740297980114548"><ele>288.5</ele><time>2026-03-29T09:34:38.001Z</time></trkpt><trkpt lat="37.278383120468575" lon="13.740581930438712"><ele>293.0</ele><time>2026-03-29T09:34:39.001Z</time></trkpt><trkpt lat="37.278500805293206" lon="13.740892001886786"><ele>295.0</ele><time>2026-03-29T09:34:40.001Z</time></trkpt><trkpt lat="37.27862537639073" lon="13.741208465458975"><ele>297.0</ele><time>2026-03-29T09:34:41.001Z</time></trkpt><trkpt lat="37.27872030481166" lon="13.741551436313035"><ele>296.5</ele><time>2026-03-29T09:34:42.001Z</time></trkpt><trkpt lat="37.27881434533496" lon="13.74190342779141"><ele>296.0</ele><time>2026-03-29T09:34:43.001Z</time></trkpt><trkpt lat="37.27891155629463" lon="13.742258364492924"><ele>295.0</ele><time>2026-03-29T09:34:44.001Z</time></trkpt><trkpt lat="37.279012897243966" lon="13.742615286174713"><ele>294.0</ele><time>2026-03-29T09:34:45.001Z</time></trkpt><trkpt lat="37.27911619876402" lon="13.742968154034644"><ele>294.0</ele><time>2026-03-29T09:34:46.001Z</time></trkpt><trkpt lat="37.27921434545984" lon="13.74331361423689"><ele>294.0</ele><time>2026-03-29T09:34:47.001Z</time></trkpt><trkpt lat="37.27931039993574" lon="13.743656896248352"><ele>290.0</ele><time>2026-03-29T09:34:48.001Z</time></trkpt><trkpt lat="37.279402784328006" lon="13.743995947928594"><ele>286.0</ele><time>2026-03-29T09:34:49.001Z</time></trkpt><trkpt lat="37.279493254791575" lon="13.744327410418583"><ele>282.0</ele><time>2026-03-29T09:34:50.001Z</time></trkpt><trkpt lat="37.279583989337205" lon="13.744654670172856"><ele>278.0</ele><time>2026-03-29T09:34:50.999Z</time></trkpt><trkpt lat="37.279676002504345" lon="13.744979747730557"><ele>278.0</ele><time>2026-03-29T09:34:51.999Z</time></trkpt><trkpt lat="37.27976021509525" lon="13.74528423187607"><ele>278.0</ele><time>2026-03-29T09:34:52.999Z</time></trkpt><trkpt lat="37.27983866905331" lon="13.745575150129126"><ele>278.0</ele><time>2026-03-29T09:34:53.999Z</time></trkpt><trkpt lat="37.279911804044424" lon="13.745852611831177"><ele>278.0</ele><time>2026-03-29T09:34:54.999Z</time></trkpt><trkpt lat="37.27998691514521" lon="13.746136702962453"><ele>278.0</ele><time>2026-03-29T09:34:55.999Z</time></trkpt><trkpt lat="37.28006298467154" lon="13.746412383667566"><ele>278.0</ele><time>2026-03-29T09:34:56.999Z</time></trkpt><trkpt lat="37.280145935626805" lon="13.746681570249649"><ele>275.0</ele><time>2026-03-29T09:34:57.999Z</time></trkpt><trkpt lat="37.28024997444829" lon="13.746952049453824"><ele>272.0</ele><time>2026-03-29T09:34:58.999Z</time></trkpt><trkpt lat="37.28039462154793" lon="13.747224651690258"><ele>272.0</ele><time>2026-03-29T09:34:59.999Z</time></trkpt><trkpt lat="37.28056396858803" lon="13.747496748197413"><ele>272.0</ele><time>2026-03-29T09:35:00.999Z</time></trkpt><trkpt lat="37.28072541587516" lon="13.747797876866793"><ele>271.0</ele><time>2026-03-29T09:35:01.999Z</time></trkpt><trkpt lat="37.280903454835965" lon="13.748100519868737"><ele>270.0</ele><time>2026-03-29T09:35:02.999Z</time></trkpt><trkpt lat="37.28117022497384" lon="13.748336471062256"><ele>271.0</ele><time>2026-03-29T09:35:03.999Z</time></trkpt><trkpt lat="37.28137745856294" lon="13.748639326475502"><ele>272.0</ele><time>2026-03-29T09:35:04.999Z</time></trkpt><trkpt lat="37.281585893740676" lon="13.748942742658866"><ele>273.5</ele><time>2026-03-29T09:35:05.999Z</time></trkpt><trkpt lat="37.28179369185941" lon="13.74923948308519"><ele>275.0</ele><time>2026-03-29T09:35:06.999Z</time></trkpt><trkpt lat="37.281996281818856" lon="13.749529311307874"><ele>275.5</ele><time>2026-03-29T09:35:07.999Z</time></trkpt><trkpt lat="37.28219007212797" lon="13.749808991516252"><ele>276.0</ele><time>2026-03-29T09:35:08.999Z</time></trkpt><trkpt lat="37.282371785234666" lon="13.750074967235067"><ele>279.0</ele><time>2026-03-29T09:35:09.999Z</time></trkpt><trkpt lat="37.28253488447212" lon="13.750328471233157"><ele>282.0</ele><time>2026-03-29T09:35:10.999Z</time></trkpt><trkpt lat="37.282670440201564" lon="13.750581570517545"><ele>282.0</ele><time>2026-03-29T09:35:11.999Z</time></trkpt><trkpt lat="37.28276651868632" lon="13.750845592462586"><ele>282.0</ele><time>2026-03-29T09:35:13Z</time></trkpt><trkpt lat="37.28282645361074" lon="13.75113104681077"><ele>284.5</ele><time>2026-03-29T09:35:14Z</time></trkpt><trkpt lat="37.282840998651416" lon="13.751444130218871"><ele>287.0</ele><time>2026-03-29T09:35:15Z</time></trkpt><trkpt lat="37.28283979134526" lon="13.751763830013356"><ele>288.0</ele><time>2026-03-29T09:35:16Z</time></trkpt><trkpt lat="37.28284068677174" lon="13.752077603465079"><ele>289.0</ele><time>2026-03-29T09:35:17Z</time></trkpt><trkpt lat="37.28286004072835" lon="13.75238344715658"><ele>289.0</ele><time>2026-03-29T09:35:18Z</time></trkpt><trkpt lat="37.28289766004199" lon="13.75268981067894"><ele>289.0</ele><time>2026-03-29T09:35:19Z</time></trkpt><trkpt lat="37.28296994816557" lon="13.752981236212639"><ele>290.0</ele><time>2026-03-29T09:35:20Z</time></trkpt><trkpt lat="37.283086824020934" lon="13.753261901304755"><ele>291.0</ele><time>2026-03-29T09:35:21Z</time></trkpt><trkpt lat="37.28321827738331" lon="13.753541312735136"><ele>294.5</ele><time>2026-03-29T09:35:22Z</time></trkpt><trkpt lat="37.283345756673675" lon="13.753831723335182"><ele>298.0</ele><time>2026-03-29T09:35:23Z</time></trkpt><trkpt lat="37.283465304494676" lon="13.754125187100845"><ele>297.5</ele><time>2026-03-29T09:35:24Z</time></trkpt><trkpt lat="37.28358158092196" lon="13.754416063141521"><ele>297.0</ele><time>2026-03-29T09:35:25Z</time></trkpt><trkpt lat="37.2836916057529" lon="13.754686846163532"><ele>297.0</ele><time>2026-03-29T09:35:26Z</time></trkpt><trkpt lat="37.28379365490145" lon="13.754933808244242"><ele>297.0</ele><time>2026-03-29T09:35:27Z</time></trkpt><trkpt lat="37.28389353501837" lon="13.755165284584079"><ele>297.0</ele><time>2026-03-29T09:35:28Z</time></trkpt><trkpt lat="37.28399287018931" lon="13.75537097429213"><ele>298.25</ele><time>2026-03-29T09:35:29Z</time></trkpt><trkpt lat="37.28409397285868" lon="13.755538253199736"><ele>299.5</ele><time>2026-03-29T09:35:30Z</time></trkpt><trkpt lat="37.284195540485086" lon="13.755668534093477"><ele>300.75</ele><time>2026-03-29T09:35:31Z</time></trkpt><trkpt lat="37.28430150176447" lon="13.755757257917617"><ele>302.0</ele><time>2026-03-29T09:35:32Z</time></trkpt><trkpt lat="37.28441871189832" lon="13.7558600449142"><ele>302.0</ele><time>2026-03-29T09:35:33Z</time></trkpt><trkpt lat="37.284552131215385" lon="13.755980891808534"><ele>302.0</ele><time>2026-03-29T09:35:34Z</time></trkpt><trkpt lat="37.284695930707684" lon="13.756113578138686"><ele>302.0</ele><time>2026-03-29T09:35:35Z</time></trkpt><trkpt lat="37.284855595724466" lon="13.75627062903696"><ele>302.5</ele><time>2026-03-29T09:35:36Z</time></trkpt><trkpt lat="37.28503115341209" lon="13.756440203160425"><ele>303.0</ele><time>2026-03-29T09:35:37Z</time></trkpt><trkpt lat="37.28522006562526" lon="13.756620843778025"><ele>303.0</ele><time>2026-03-29T09:35:38Z</time></trkpt><trkpt lat="37.285421711198346" lon="13.756810896659939"><ele>303.0</ele><time>2026-03-29T09:35:39Z</time></trkpt><trkpt lat="37.28562914379869" lon="13.757002099300113"><ele>306.5</ele><time>2026-03-29T09:35:40Z</time></trkpt><trkpt lat="37.28584073167628" lon="13.7572023101008"><ele>310.0</ele><time>2026-03-29T09:35:41Z</time></trkpt><trkpt lat="37.28605096864235" lon="13.757416516635743"><ele>310.0</ele><time>2026-03-29T09:35:42Z</time></trkpt><trkpt lat="37.28624818891759" lon="13.757646260089128"><ele>310.0</ele><time>2026-03-29T09:35:43Z</time></trkpt><trkpt lat="37.28643384183786" lon="13.757896713464824"><ele>311.0</ele><time>2026-03-29T09:35:44Z</time></trkpt><trkpt lat="37.28661486470618" lon="13.758162225964714"><ele>312.0</ele><time>2026-03-29T09:35:45Z</time></trkpt><trkpt lat="37.28680048314567" lon="13.758435190419394"><ele>317.0</ele><time>2026-03-29T09:35:46Z</time></trkpt><trkpt lat="37.28699269266474" lon="13.75870176078286"><ele>322.0</ele><time>2026-03-29T09:35:47Z</time></trkpt><trkpt lat="37.28719268095717" lon="13.758955705708537"><ele>320.0</ele><time>2026-03-29T09:35:48Z</time></trkpt><trkpt lat="37.28740602664586" lon="13.759187229742569"><ele>318.0</ele><time>2026-03-29T09:35:49Z</time></trkpt><trkpt lat="37.287639516546385" lon="13.759386830810909"><ele>322.0</ele><time>2026-03-29T09:35:50Z</time></trkpt><trkpt lat="37.28789303683927" lon="13.759557516489968"><ele>326.0</ele><time>2026-03-29T09:35:51Z</time></trkpt><trkpt lat="37.288159792965864" lon="13.75969527609781"><ele>326.0</ele><time>2026-03-29T09:35:52Z</time></trkpt><trkpt lat="37.28842662227404" lon="13.759813590318982"><ele>326.0</ele><time>2026-03-29T09:35:53Z</time></trkpt><trkpt lat="37.28868528543965" lon="13.759935369029092"><ele>326.5</ele><time>2026-03-29T09:35:54Z</time></trkpt><trkpt lat="37.28893742080419" lon="13.760071964698874"><ele>327.0</ele><time>2026-03-29T09:35:55Z</time></trkpt><trkpt lat="37.28917769104507" lon="13.760235530792764"><ele>328.0</ele><time>2026-03-29T09:35:56Z</time></trkpt><trkpt lat="37.28939808597208" lon="13.760418801022713"><ele>329.0</ele><time>2026-03-29T09:35:57Z</time></trkpt><trkpt lat="37.28960740604284" lon="13.760601963730162"><ele>328.5</ele><time>2026-03-29T09:35:58Z</time></trkpt><trkpt lat="37.289806350255176" lon="13.760781199161283"><ele>328.0</ele><time>2026-03-29T09:35:59.001Z</time></trkpt><trkpt lat="37.290015344246044" lon="13.760979833681997"><ele>329.0</ele><time>2026-03-29T09:36:00.001Z</time></trkpt><trkpt lat="37.2902165484441" lon="13.761201796854586"><ele>330.0</ele><time>2026-03-29T09:36:01.001Z</time></trkpt><trkpt lat="37.290391984512674" lon="13.761444804174122"><ele>330.0</ele><time>2026-03-29T09:36:02.001Z</time></trkpt><trkpt lat="37.29053898821431" lon="13.761699360409995"><ele>330.0</ele><time>2026-03-29T09:36:03.001Z</time></trkpt><trkpt lat="37.29067726086804" lon="13.761978428346099"><ele>332.5</ele><time>2026-03-29T09:36:04.001Z</time></trkpt><trkpt lat="37.29080936387855" lon="13.762255688180794"><ele>335.0</ele><time>2026-03-29T09:36:05.001Z</time></trkpt><trkpt lat="37.29093573766599" lon="13.76252557614643"><ele>334.0</ele><time>2026-03-29T09:36:06.001Z</time></trkpt><trkpt lat="37.29105856616541" lon="13.762780352017339"><ele>333.0</ele><time>2026-03-29T09:36:07.001Z</time></trkpt><trkpt lat="37.29117807418099" lon="13.763019222025552"><ele>333.0</ele><time>2026-03-29T09:36:08.001Z</time></trkpt><trkpt lat="37.291321352005305" lon="13.763258075833292"><ele>333.0</ele><time>2026-03-29T09:36:09.001Z</time></trkpt><trkpt lat="37.29149839616699" lon="13.763489976999963"><ele>329.5</ele><time>2026-03-29T09:36:10.001Z</time></trkpt><trkpt lat="37.29169323234008" lon="13.763721144340975"><ele>326.0</ele><time>2026-03-29T09:36:11.001Z</time></trkpt><trkpt lat="37.2918892522624" lon="13.763948831356691"><ele>326.0</ele><time>2026-03-29T09:36:12.001Z</time></trkpt><trkpt lat="37.292081172070375" lon="13.764178606160474"><ele>326.0</ele><time>2026-03-29T09:36:13.001Z</time></trkpt><trkpt lat="37.292272381716046" lon="13.764409742008949"><ele>327.0</ele><time>2026-03-29T09:36:14.001Z</time></trkpt><trkpt lat="37.29246232848372" lon="13.764638696055101"><ele>328.0</ele><time>2026-03-29T09:36:15.001Z</time></trkpt><trkpt lat="37.29265215291426" lon="13.764867289706332"><ele>328.0</ele><time>2026-03-29T09:36:16.001Z</time></trkpt><trkpt lat="37.29284256484834" lon="13.765093839328388"><ele>328.0</ele><time>2026-03-29T09:36:17.001Z</time></trkpt><trkpt lat="37.29303506156691" lon="13.765324516789578"><ele>330.5</ele><time>2026-03-29T09:36:18.001Z</time></trkpt><trkpt lat="37.29321805884229" lon="13.765544971977167"><ele>333.0</ele><time>2026-03-29T09:36:19.001Z</time></trkpt><trkpt lat="37.29338595646452" lon="13.765749588859666"><ele>333.0</ele><time>2026-03-29T09:36:20.001Z</time></trkpt><trkpt lat="37.29354630351061" lon="13.765932206553245"><ele>333.0</ele><time>2026-03-29T09:36:21.001Z</time></trkpt><trkpt lat="37.293713425807624" lon="13.766113804444371"><ele>333.0</ele><time>2026-03-29T09:36:22.001Z</time></trkpt><trkpt lat="37.293901854661264" lon="13.76626319767527"><ele>335.3333333333333</ele><time>2026-03-29T09:36:23.001Z</time></trkpt><trkpt lat="37.29410248195855" lon="13.766379014836811"><ele>337.66666666666663</ele><time>2026-03-29T09:36:24.001Z</time></trkpt><trkpt lat="37.29430704774006" lon="13.76647493353967"><ele>340.0</ele><time>2026-03-29T09:36:25.001Z</time></trkpt><trkpt lat="37.2945108396935" lon="13.766555943953984"><ele>340.0</ele><time>2026-03-29T09:36:26.001Z</time></trkpt><trkpt lat="37.294724492888996" lon="13.766639054151469"><ele>340.0</ele><time>2026-03-29T09:36:27.001Z</time></trkpt><trkpt lat="37.29493561675326" lon="13.766735069429059"><ele>340.0</ele><time>2026-03-29T09:36:28.001Z</time></trkpt><trkpt lat="37.29514109413424" lon="13.766844162678183"><ele>342.0</ele><time>2026-03-29T09:36:29.001Z</time></trkpt><trkpt lat="37.295336150278835" lon="13.76696841380817"><ele>344.0</ele><time>2026-03-29T09:36:30.001Z</time></trkpt><trkpt lat="37.29552136394754" lon="13.767114785010977"><ele>346.0</ele><time>2026-03-29T09:36:31.001Z</time></trkpt><trkpt lat="37.29569645177061" lon="13.767289786965929"><ele>347.0</ele><time>2026-03-29T09:36:32.001Z</time></trkpt><trkpt lat="37.29585629291934" lon="13.767492659262512"><ele>348.0</ele><time>2026-03-29T09:36:33.001Z</time></trkpt><trkpt lat="37.29598821648924" lon="13.76771134913941"><ele>349.0</ele><time>2026-03-29T09:36:34.001Z</time></trkpt><trkpt lat="37.29609423023093" lon="13.767945132804996"><ele>350.66666666666663</ele><time>2026-03-29T09:36:35.001Z</time></trkpt><trkpt lat="37.29617410205524" lon="13.768197539222138"><ele>352.3333333333333</ele><time>2026-03-29T09:36:36.001Z</time></trkpt><trkpt lat="37.29623389694679" lon="13.768473932242252"><ele>354.0</ele><time>2026-03-29T09:36:37.001Z</time></trkpt><trkpt lat="37.296269786972665" lon="13.768756952552403"><ele>356.0</ele><time>2026-03-29T09:36:38.001Z</time></trkpt><trkpt lat="37.29628106647412" lon="13.769053711252987"><ele>358.0</ele><time>2026-03-29T09:36:39.001Z</time></trkpt><trkpt lat="37.29627141642411" lon="13.769364787094815"><ele>358.0</ele><time>2026-03-29T09:36:40.001Z</time></trkpt><trkpt lat="37.29625594247672" lon="13.76968386285164"><ele>358.0</ele><time>2026-03-29T09:36:41.001Z</time></trkpt><trkpt lat="37.29624636803532" lon="13.770007598695324"><ele>357.5</ele><time>2026-03-29T09:36:42.001Z</time></trkpt><trkpt lat="37.296245957319655" lon="13.770334379898697"><ele>357.0</ele><time>2026-03-29T09:36:43.001Z</time></trkpt><trkpt lat="37.29625389007471" lon="13.770655942062515"><ele>357.0</ele><time>2026-03-29T09:36:44.001Z</time></trkpt><trkpt lat="37.29627122957495" lon="13.770952850542528"><ele>357.0</ele><time>2026-03-29T09:36:45.001Z</time></trkpt><trkpt lat="37.2962981192603" lon="13.771229363148024"><ele>356.3333333333333</ele><time>2026-03-29T09:36:46.001Z</time></trkpt><trkpt lat="37.296325615585666" lon="13.771488398464694"><ele>355.66666666666663</ele><time>2026-03-29T09:36:47.001Z</time></trkpt><trkpt lat="37.29634712974594" lon="13.7717338279209"><ele>355.0</ele><time>2026-03-29T09:36:48.001Z</time></trkpt><trkpt lat="37.29636719264312" lon="13.771975325422037"><ele>355.0</ele><time>2026-03-29T09:36:49.001Z</time></trkpt><trkpt lat="37.29639023796439" lon="13.772222766548433"><ele>355.0</ele><time>2026-03-29T09:36:50.001Z</time></trkpt><trkpt lat="37.29641637911558" lon="13.77247580996128"><ele>355.0</ele><time>2026-03-29T09:36:51.001Z</time></trkpt><trkpt lat="37.29644164196988" lon="13.772730726783816"><ele>357.3333333333333</ele><time>2026-03-29T09:36:52.001Z</time></trkpt><trkpt lat="37.29646396121847" lon="13.772983497567232"><ele>359.6666666666667</ele><time>2026-03-29T09:36:53.001Z</time></trkpt><trkpt lat="37.29648682440281" lon="13.773236816942617"><ele>362.0</ele><time>2026-03-29T09:36:54.001Z</time></trkpt><trkpt lat="37.29651169899823" lon="13.773491212834275"><ele>361.6666666666667</ele><time>2026-03-29T09:36:55.001Z</time></trkpt><trkpt lat="37.29653651591165" lon="13.773749528556388"><ele>361.3333333333333</ele><time>2026-03-29T09:36:56.001Z</time></trkpt><trkpt lat="37.29656142127205" lon="13.774001349118498"><ele>361.0</ele><time>2026-03-29T09:36:57Z</time></trkpt><trkpt lat="37.29659510228126" lon="13.774244237688565"><ele>361.0</ele><time>2026-03-29T09:36:58Z</time></trkpt><trkpt lat="37.29664821529314" lon="13.774476147210393"><ele>361.0</ele><time>2026-03-29T09:36:59Z</time></trkpt><trkpt lat="37.29672044530708" lon="13.774701681633479"><ele>361.0</ele><time>2026-03-29T09:37:00Z</time></trkpt><trkpt lat="37.296798115461414" lon="13.774922636274326"><ele>361.0</ele><time>2026-03-29T09:37:01Z</time></trkpt><trkpt lat="37.29687564725364" lon="13.775146058483825"><ele>361.0</ele><time>2026-03-29T09:37:02Z</time></trkpt><trkpt lat="37.29694905970925" lon="13.775368595130471"><ele>361.0</ele><time>2026-03-29T09:37:03Z</time></trkpt><trkpt lat="37.29702279065372" lon="13.77559575730091"><ele>361.66666666666663</ele><time>2026-03-29T09:37:04Z</time></trkpt><trkpt lat="37.29709914439365" lon="13.77582998210882"><ele>362.3333333333333</ele><time>2026-03-29T09:37:05Z</time></trkpt><trkpt lat="37.29717461757815" lon="13.776075759370048"><ele>363.0</ele><time>2026-03-29T09:37:06Z</time></trkpt><trkpt lat="37.29724175718376" lon="13.776331640658006"><ele>367.6666666666667</ele><time>2026-03-29T09:37:07Z</time></trkpt><trkpt lat="37.297294304537616" lon="13.77658804014903"><ele>372.33333333333337</ele><time>2026-03-29T09:37:08Z</time></trkpt><trkpt lat="37.297333683134866" lon="13.77683001025495"><ele>377.0</ele><time>2026-03-29T09:37:09Z</time></trkpt><trkpt lat="37.29736397898336" lon="13.77706707959272"><ele>377.33333333333337</ele><time>2026-03-29T09:37:10Z</time></trkpt><trkpt lat="37.29738606522433" lon="13.777300739545158"><ele>377.6666666666667</ele><time>2026-03-29T09:37:11Z</time></trkpt><trkpt lat="37.297402997540324" lon="13.777529442266175"><ele>378.0</ele><time>2026-03-29T09:37:12Z</time></trkpt><trkpt lat="37.297413361365386" lon="13.777753346363117"><ele>380.0</ele><time>2026-03-29T09:37:13Z</time></trkpt><trkpt lat="37.29741942173081" lon="13.777972047448475"><ele>382.0</ele><time>2026-03-29T09:37:14Z</time></trkpt><trkpt lat="37.297426684533804" lon="13.778189019455857"><ele>384.0</ele><time>2026-03-29T09:37:15Z</time></trkpt><trkpt lat="37.297433550377455" lon="13.778402278589374"><ele>387.33333333333337</ele><time>2026-03-29T09:37:16Z</time></trkpt><trkpt lat="37.29742453094572" lon="13.778611790224378"><ele>390.6666666666667</ele><time>2026-03-29T09:37:17Z</time></trkpt><trkpt lat="37.29739483984065" lon="13.778821509911616"><ele>394.0</ele><time>2026-03-29T09:37:18Z</time></trkpt><trkpt lat="37.297347763832136" lon="13.779045202794196"><ele>394.0</ele><time>2026-03-29T09:37:19Z</time></trkpt><trkpt lat="37.29727858992464" lon="13.77927728387774"><ele>394.0</ele><time>2026-03-29T09:37:20Z</time></trkpt><trkpt lat="37.297181695265145" lon="13.779510872473942"><ele>394.0</ele><time>2026-03-29T09:37:21Z</time></trkpt><trkpt lat="37.29705026173888" lon="13.779738754923658"><ele>389.5</ele><time>2026-03-29T09:37:22Z</time></trkpt><trkpt lat="37.2968962684786" lon="13.77995634376177"><ele>385.0</ele><time>2026-03-29T09:37:23Z</time></trkpt><trkpt lat="37.29672832848488" lon="13.78016125402065"><ele>384.5</ele><time>2026-03-29T09:37:24Z</time></trkpt><trkpt lat="37.29655601076825" lon="13.780371255203194"><ele>384.0</ele><time>2026-03-29T09:37:25Z</time></trkpt><trkpt lat="37.29638934620604" lon="13.78058012346356"><ele>384.0</ele><time>2026-03-29T09:37:26Z</time></trkpt><trkpt lat="37.29622654945244" lon="13.780777623478862"><ele>384.0</ele><time>2026-03-29T09:37:27Z</time></trkpt><trkpt lat="37.296074592786795" lon="13.780950945433142"><ele>384.0</ele><time>2026-03-29T09:37:28Z</time></trkpt><trkpt lat="37.295942427827384" lon="13.781098481536256"><ele>387.25</ele><time>2026-03-29T09:37:29Z</time></trkpt><trkpt lat="37.295831297373596" lon="13.781220118660379"><ele>390.5</ele><time>2026-03-29T09:37:30Z</time></trkpt><trkpt lat="37.29574371102329" lon="13.781317490357322"><ele>393.75</ele><time>2026-03-29T09:37:31Z</time></trkpt><trkpt lat="37.29568287431561" lon="13.78139718455628"><ele>397.0</ele><time>2026-03-29T09:37:32Z</time></trkpt><trkpt lat="37.29567745231294" lon="13.781531988552752"><ele>397.0</ele><time>2026-03-29T09:37:34Z</time></trkpt><trkpt lat="37.2957944831361" lon="13.78159665458671"><ele>397.0</ele><time>2026-03-29T09:37:36Z</time></trkpt><trkpt lat="37.29589335928032" lon="13.781603707763301"><ele>397.0</ele><time>2026-03-29T09:37:37Z</time></trkpt><trkpt lat="37.296000722271906" lon="13.7816172775836"><ele>397.0</ele><time>2026-03-29T09:37:38Z</time></trkpt><trkpt lat="37.29611580952254" lon="13.781620550061"><ele>397.0</ele><time>2026-03-29T09:37:39Z</time></trkpt><trkpt lat="37.29623685364129" lon="13.781602378085191"><ele>397.0</ele><time>2026-03-29T09:37:40Z</time></trkpt><trkpt lat="37.296346696757716" lon="13.781572033552154"><ele>397.0</ele><time>2026-03-29T09:37:41Z</time></trkpt><trkpt lat="37.29646022545896" lon="13.78154673073626"><ele>397.0</ele><time>2026-03-29T09:37:42Z</time></trkpt><trkpt lat="37.29657062913869" lon="13.781520780293251"><ele>399.6</ele><time>2026-03-29T09:37:43Z</time></trkpt><trkpt lat="37.29668581535206" lon="13.781502656008692"><ele>402.20000000000005</ele><time>2026-03-29T09:37:44Z</time></trkpt><trkpt lat="37.29680165960478" lon="13.781486400792554"><ele>404.8</ele><time>2026-03-29T09:37:45Z</time></trkpt><trkpt lat="37.29690989842293" lon="13.781474414402258"><ele>407.4</ele><time>2026-03-29T09:37:46Z</time></trkpt><trkpt lat="37.29701157820931" lon="13.781483871482695"><ele>410.0</ele><time>2026-03-29T09:37:47Z</time></trkpt><trkpt lat="37.29710241017967" lon="13.781530083266713"><ele>410.0</ele><time>2026-03-29T09:37:48Z</time></trkpt><trkpt lat="37.29717594365759" lon="13.781616106450219"><ele>410.0</ele><time>2026-03-29T09:37:49Z</time></trkpt><trkpt lat="37.29723924329492" lon="13.781733821964561"><ele>410.0</ele><time>2026-03-29T09:37:50.001Z</time></trkpt><trkpt lat="37.297300296730675" lon="13.781871933605046"><ele>410.0</ele><time>2026-03-29T09:37:51.001Z</time></trkpt><trkpt lat="37.29736690097326" lon="13.78201366866088"><ele>415.75</ele><time>2026-03-29T09:37:52.001Z</time></trkpt><trkpt lat="37.29743536062574" lon="13.782156927202834"><ele>421.5</ele><time>2026-03-29T09:37:53.001Z</time></trkpt><trkpt lat="37.2974887469832" lon="13.782296329118585"><ele>427.25</ele><time>2026-03-29T09:37:54.001Z</time></trkpt><trkpt lat="37.297502076333465" lon="13.782466183055858"><ele>433.0</ele><time>2026-03-29T09:37:55.001Z</time></trkpt><trkpt lat="37.2975156641153" lon="13.782648503365412"><ele>435.6666666666667</ele><time>2026-03-29T09:37:56.001Z</time></trkpt><trkpt lat="37.29751252002444" lon="13.78285342320751"><ele>438.33333333333337</ele><time>2026-03-29T09:37:57.001Z</time></trkpt><trkpt lat="37.29750855613367" lon="13.783059529500935"><ele>441.0</ele><time>2026-03-29T09:37:58.001Z</time></trkpt><trkpt lat="37.29749281322322" lon="13.783270605037183"><ele>441.0</ele><time>2026-03-29T09:37:59.001Z</time></trkpt><trkpt lat="37.29750695259046" lon="13.783492260308206"><ele>441.0</ele><time>2026-03-29T09:38:00.001Z</time></trkpt><trkpt lat="37.29752808377447" lon="13.783717871089847"><ele>441.0</ele><time>2026-03-29T09:38:01.001Z</time></trkpt><trkpt lat="37.29755352234622" lon="13.78394786966336"><ele>444.33333333333337</ele><time>2026-03-29T09:38:02.001Z</time></trkpt><trkpt lat="37.29759550056122" lon="13.784178887720074"><ele>447.6666666666667</ele><time>2026-03-29T09:38:03.001Z</time></trkpt><trkpt lat="37.29761658750045" lon="13.784406589955385"><ele>451.0</ele><time>2026-03-29T09:38:04.001Z</time></trkpt><trkpt lat="37.29763601009846" lon="13.784613792530628"><ele>455.0</ele><time>2026-03-29T09:38:05.001Z</time></trkpt><trkpt lat="37.297646866025566" lon="13.784804396442903"><ele>459.0</ele><time>2026-03-29T09:38:06.001Z</time></trkpt><trkpt lat="37.29761673945317" lon="13.78497909637468"><ele>463.0</ele><time>2026-03-29T09:38:07.001Z</time></trkpt><trkpt lat="37.297575930394814" lon="13.785163024642609"><ele>467.0</ele><time>2026-03-29T09:38:08.001Z</time></trkpt><trkpt lat="37.29753336898603" lon="13.7853561242483"><ele>471.66666666666663</ele><time>2026-03-29T09:38:09.001Z</time></trkpt><trkpt lat="37.29749717597165" lon="13.78555959904726"><ele>476.33333333333337</ele><time>2026-03-29T09:38:10.001Z</time></trkpt><trkpt lat="37.29746280938066" lon="13.785772406769256"><ele>481.0</ele><time>2026-03-29T09:38:11.001Z</time></trkpt><trkpt lat="37.29743353060855" lon="13.78598713208292"><ele>485.33333333333337</ele><time>2026-03-29T09:38:12.001Z</time></trkpt><trkpt lat="37.297420331873596" lon="13.786202238236314"><ele>489.66666666666663</ele><time>2026-03-29T09:38:13.001Z</time></trkpt><trkpt lat="37.29738123763877" lon="13.786403066371406"><ele>494.0</ele><time>2026-03-29T09:38:14.001Z</time></trkpt><trkpt lat="37.29734205752433" lon="13.786575943909376"><ele>493.99999999999994</ele><time>2026-03-29T09:38:15.001Z</time></trkpt><trkpt lat="37.297307153032634" lon="13.786721587629767"><ele>494.0</ele><time>2026-03-29T09:38:16.001Z</time></trkpt><trkpt lat="37.29728105851972" lon="13.786847033300006"><ele>494.0</ele><time>2026-03-29T09:38:17.001Z</time></trkpt><trkpt lat="37.297267057258715" lon="13.786952902725437"><ele>494.0</ele><time>2026-03-29T09:38:18.001Z</time></trkpt><trkpt lat="37.2972413507399" lon="13.787037981103813"><ele>493.99999999999994</ele><time>2026-03-29T09:38:19.001Z</time></trkpt><trkpt lat="37.2972781525825" lon="13.787108772884277"><ele>494.0</ele><time>2026-03-29T09:38:20.001Z</time></trkpt><trkpt lat="37.297321553021185" lon="13.787170365201888"><ele>494.0</ele><time>2026-03-29T09:38:22.001Z</time></trkpt><trkpt lat="37.297438062082854" lon="13.787002430173501"><ele>494.0</ele><time>2026-03-29T09:38:26.001Z</time></trkpt><trkpt lat="37.29746168772736" lon="13.78688881541859"><ele>494.0</ele><time>2026-03-29T09:38:27.001Z</time></trkpt><trkpt lat="37.29750136050918" lon="13.786760218966885"><ele>494.0</ele><time>2026-03-29T09:38:28.001Z</time></trkpt><trkpt lat="37.297544598214316" lon="13.78661460613357"><ele>494.0</ele><time>2026-03-29T09:38:29.001Z</time></trkpt><trkpt lat="37.29758549019898" lon="13.786459672593484"><ele>494.0</ele><time>2026-03-29T09:38:30.001Z</time></trkpt><trkpt lat="37.29762421333189" lon="13.786299079623188"><ele>494.0</ele><time>2026-03-29T09:38:31.001Z</time></trkpt><trkpt lat="37.29766658534292" lon="13.78613976059798"><ele>494.0</ele><time>2026-03-29T09:38:32.001Z</time></trkpt><trkpt lat="37.29771467053233" lon="13.785980820730607"><ele>490.75</ele><time>2026-03-29T09:38:33.001Z</time></trkpt><trkpt lat="37.29776898007751" lon="13.785828222465426"><ele>487.5</ele><time>2026-03-29T09:38:34.001Z</time></trkpt><trkpt lat="37.2978361074542" lon="13.785665936553867"><ele>484.25</ele><time>2026-03-29T09:38:35.001Z</time></trkpt><trkpt lat="37.29791435188915" lon="13.785503501856752"><ele>481.0</ele><time>2026-03-29T09:38:36.001Z</time></trkpt><trkpt lat="37.29800006168602" lon="13.785349767499227"><ele>481.25</ele><time>2026-03-29T09:38:37.001Z</time></trkpt><trkpt lat="37.29808694266612" lon="13.785207497785034"><ele>481.5</ele><time>2026-03-29T09:38:38.001Z</time></trkpt><trkpt lat="37.298169990508676" lon="13.785073862629478"><ele>481.75</ele><time>2026-03-29T09:38:39.001Z</time></trkpt><trkpt lat="37.29824824183339" lon="13.784941765856608"><ele>482.0</ele><time>2026-03-29T09:38:40.001Z</time></trkpt><trkpt lat="37.298322831551495" lon="13.784819863205744"><ele>482.0</ele><time>2026-03-29T09:38:41.001Z</time></trkpt><trkpt lat="37.298398487023206" lon="13.784694507652416"><ele>482.0</ele><time>2026-03-29T09:38:42.001Z</time></trkpt><trkpt lat="37.29847835250098" lon="13.784567898137018"><ele>482.0</ele><time>2026-03-29T09:38:43.001Z</time></trkpt><trkpt lat="37.29854841274543" lon="13.784441298760875"><ele>482.0</ele><time>2026-03-29T09:38:44.001Z</time></trkpt><trkpt lat="37.29860957827391" lon="13.784297977227123"><ele>478.0</ele><time>2026-03-29T09:38:45.001Z</time></trkpt><trkpt lat="37.29866054711914" lon="13.78413924941292"><ele>474.0</ele><time>2026-03-29T09:38:46.001Z</time></trkpt><trkpt lat="37.29870844959059" lon="13.783980437694561"><ele>470.0</ele><time>2026-03-29T09:38:47.001Z</time></trkpt><trkpt lat="37.29875652785816" lon="13.783824596858656"><ele>466.0</ele><time>2026-03-29T09:38:48.001Z</time></trkpt><trkpt lat="37.2988071589981" lon="13.783671267424216"><ele>466.0</ele><time>2026-03-29T09:38:49.001Z</time></trkpt><trkpt lat="37.298858882726094" lon="13.783518208774375"><ele>466.0</ele><time>2026-03-29T09:38:50.001Z</time></trkpt><trkpt lat="37.298909300227216" lon="13.783365182035556"><ele>466.0</ele><time>2026-03-29T09:38:51.001Z</time></trkpt><trkpt lat="37.298963527133864" lon="13.78320999134088"><ele>466.0</ele><time>2026-03-29T09:38:52.001Z</time></trkpt><trkpt lat="37.299017346549256" lon="13.783053097894834"><ele>467.25</ele><time>2026-03-29T09:38:53.001Z</time></trkpt><trkpt lat="37.29907086808515" lon="13.782901245430004"><ele>468.5</ele><time>2026-03-29T09:38:54.001Z</time></trkpt><trkpt lat="37.299120539262205" lon="13.78274479400379"><ele>469.75</ele><time>2026-03-29T09:38:55.002Z</time></trkpt><trkpt lat="37.29917044579288" lon="13.782588276762699"><ele>471.0</ele><time>2026-03-29T09:38:56.002Z</time></trkpt><trkpt lat="37.29922677497995" lon="13.782423412898146"><ele>468.5</ele><time>2026-03-29T09:38:57.002Z</time></trkpt><trkpt lat="37.29928073245807" lon="13.782263394691753"><ele>466.0</ele><time>2026-03-29T09:38:58.002Z</time></trkpt><trkpt lat="37.29933015163544" lon="13.782109082559684"><ele>463.5</ele><time>2026-03-29T09:38:59.002Z</time></trkpt><trkpt lat="37.29938229333307" lon="13.781954475247147"><ele>461.0</ele><time>2026-03-29T09:39:00.002Z</time></trkpt><trkpt lat="37.2994306620815" lon="13.781806927602917"><ele>459.6</ele><time>2026-03-29T09:39:01.002Z</time></trkpt><trkpt lat="37.29947719897634" lon="13.781665197154187"><ele>458.20000000000005</ele><time>2026-03-29T09:39:02.002Z</time></trkpt><trkpt lat="37.29952132608788" lon="13.78153326146653"><ele>456.79999999999995</ele><time>2026-03-29T09:39:03Z</time></trkpt><trkpt lat="37.29956382238499" lon="13.781412371560933"><ele>455.4</ele><time>2026-03-29T09:39:04Z</time></trkpt><trkpt lat="37.29961321266824" lon="13.78131172698141"><ele>454.0</ele><time>2026-03-29T09:39:05Z</time></trkpt><trkpt lat="37.29968564675115" lon="13.78124715674481"><ele>454.2</ele><time>2026-03-29T09:39:06Z</time></trkpt><trkpt lat="37.29977547617567" lon="13.781233564588653"><ele>454.4</ele><time>2026-03-29T09:39:07Z</time></trkpt><trkpt lat="37.29984811211231" lon="13.781303073056447"><ele>454.6</ele><time>2026-03-29T09:39:08Z</time></trkpt><trkpt lat="37.29991619579969" lon="13.781407231778537"><ele>454.8</ele><time>2026-03-29T09:39:09Z</time></trkpt><trkpt lat="37.300018125005536" lon="13.781528395136153"><ele>455.0</ele><time>2026-03-29T09:39:10Z</time></trkpt><trkpt lat="37.30011299544442" lon="13.781698667057855"><ele>459.0</ele><time>2026-03-29T09:39:11Z</time></trkpt><trkpt lat="37.30022851435587" lon="13.781869735898024"><ele>463.0</ele><time>2026-03-29T09:39:12Z</time></trkpt><trkpt lat="37.30035914510669" lon="13.782031417520985"><ele>467.0</ele><time>2026-03-29T09:39:13Z</time></trkpt><trkpt lat="37.300487893549715" lon="13.782218063272685"><ele>462.3333333333333</ele><time>2026-03-29T09:39:14Z</time></trkpt><trkpt lat="37.300607140677805" lon="13.782399917593759"><ele>457.66666666666663</ele><time>2026-03-29T09:39:15Z</time></trkpt><trkpt lat="37.300718420616704" lon="13.782572731572232"><ele>453.0</ele><time>2026-03-29T09:39:16Z</time></trkpt><trkpt lat="37.30082761636016" lon="13.782735670341086"><ele>453.0</ele><time>2026-03-29T09:39:17Z</time></trkpt><trkpt lat="37.30093209619551" lon="13.78289020807755"><ele>453.0</ele><time>2026-03-29T09:39:18Z</time></trkpt><trkpt lat="37.301031863961896" lon="13.783038560349985"><ele>453.0</ele><time>2026-03-29T09:39:19Z</time></trkpt><trkpt lat="37.30112825772446" lon="13.783191914884725"><ele>453.0</ele><time>2026-03-29T09:39:20Z</time></trkpt><trkpt lat="37.301218685045065" lon="13.78333204259039"><ele>453.0</ele><time>2026-03-29T09:39:21Z</time></trkpt><trkpt lat="37.3013045620979" lon="13.783458504469627"><ele>453.0</ele><time>2026-03-29T09:39:22Z</time></trkpt><trkpt lat="37.3013844088391" lon="13.783579463137894"><ele>453.0</ele><time>2026-03-29T09:39:23Z</time></trkpt><trkpt lat="37.30145128399209" lon="13.783683153225144"><ele>451.5</ele><time>2026-03-29T09:39:24Z</time></trkpt><trkpt lat="37.30151068491782" lon="13.783759705640605"><ele>450.0</ele><time>2026-03-29T09:39:25Z</time></trkpt><trkpt lat="37.30158037474904" lon="13.783791262792526"><ele>448.5</ele><time>2026-03-29T09:39:26Z</time></trkpt><trkpt lat="37.3016502212108" lon="13.783762232079878"><ele>447.0</ele><time>2026-03-29T09:39:27Z</time></trkpt><trkpt lat="37.30168546356941" lon="13.783681548388826"><ele>445.5</ele><time>2026-03-29T09:39:28Z</time></trkpt><trkpt lat="37.30167572337817" lon="13.783572049781265"><ele>444.0</ele><time>2026-03-29T09:39:29Z</time></trkpt><trkpt lat="37.301614670550336" lon="13.783451595898082"><ele>446.25</ele><time>2026-03-29T09:39:30Z</time></trkpt><trkpt lat="37.30152986267351" lon="13.783317126284109"><ele>448.5</ele><time>2026-03-29T09:39:31Z</time></trkpt><trkpt lat="37.3014494930308" lon="13.783171323762188"><ele>450.75</ele><time>2026-03-29T09:39:32Z</time></trkpt><trkpt lat="37.30139361660247" lon="13.783010815747417"><ele>453.0</ele><time>2026-03-29T09:39:33Z</time></trkpt><trkpt lat="37.301375379919506" lon="13.782836261685976"><ele>450.33333333333337</ele><time>2026-03-29T09:39:34Z</time></trkpt><trkpt lat="37.30139806537679" lon="13.782653046237781"><ele>447.6666666666667</ele><time>2026-03-29T09:39:35Z</time></trkpt><trkpt lat="37.301421502291355" lon="13.782444146471715"><ele>445.0</ele><time>2026-03-29T09:39:36Z</time></trkpt><trkpt lat="37.301412860851784" lon="13.78221636265185"><ele>445.0</ele><time>2026-03-29T09:39:37Z</time></trkpt><trkpt lat="37.30138655665295" lon="13.781997833690731"><ele>445.0</ele><time>2026-03-29T09:39:38Z</time></trkpt><trkpt lat="37.30135643805276" lon="13.78178892883854"><ele>445.0</ele><time>2026-03-29T09:39:39Z</time></trkpt><trkpt lat="37.30133046336565" lon="13.781588169042541"><ele>443.25</ele><time>2026-03-29T09:39:40Z</time></trkpt><trkpt lat="37.30130547129426" lon="13.781405174616589"><ele>441.5</ele><time>2026-03-29T09:39:41Z</time></trkpt><trkpt lat="37.301266814983855" lon="13.781239346588912"><ele>439.75</ele><time>2026-03-29T09:39:42Z</time></trkpt><trkpt lat="37.301195212406846" lon="13.78107309392274"><ele>438.0</ele><time>2026-03-29T09:39:43Z</time></trkpt><trkpt lat="37.30107314724563" lon="13.780899803837968"><ele>434.0</ele><time>2026-03-29T09:39:44Z</time></trkpt><trkpt lat="37.300945755872235" lon="13.780730968545557"><ele>430.0</ele><time>2026-03-29T09:39:45Z</time></trkpt><trkpt lat="37.30083291034521" lon="13.780577057435229"><ele>426.0</ele><time>2026-03-29T09:39:46Z</time></trkpt><trkpt lat="37.30073282971683" lon="13.780435383419718"><ele>426.0</ele><time>2026-03-29T09:39:47Z</time></trkpt><trkpt lat="37.30064535501534" lon="13.780310027690577"><ele>426.0</ele><time>2026-03-29T09:39:48Z</time></trkpt><trkpt lat="37.300574603351656" lon="13.780207688213213"><ele>426.0</ele><time>2026-03-29T09:39:49Z</time></trkpt><trkpt lat="37.30053179241564" lon="13.780123326307542"><ele>426.0</ele><time>2026-03-29T09:39:50Z</time></trkpt><trkpt lat="37.30053035861857" lon="13.780028986438637"><ele>426.0</ele><time>2026-03-29T09:39:51Z</time></trkpt><trkpt lat="37.30058655292944" lon="13.779966437243171"><ele>426.0</ele><time>2026-03-29T09:39:52.001Z</time></trkpt><trkpt lat="37.30066440354663" lon="13.78000241802045"><ele>426.0</ele><time>2026-03-29T09:39:53.001Z</time></trkpt><trkpt lat="37.3007707397033" lon="13.78005382405773"><ele>426.0</ele><time>2026-03-29T09:39:54.001Z</time></trkpt><trkpt lat="37.300885632852115" lon="13.78015667704081"><ele>426.0</ele><time>2026-03-29T09:39:55.001Z</time></trkpt><trkpt lat="37.30102053552595" lon="13.780254775601698"><ele>426.0</ele><time>2026-03-29T09:39:56.001Z</time></trkpt><trkpt lat="37.301177092383256" lon="13.7803592246444"><ele>426.0</ele><time>2026-03-29T09:39:57.001Z</time></trkpt><trkpt lat="37.3013367812304" lon="13.78047500619804"><ele>426.0</ele><time>2026-03-29T09:39:58.001Z</time></trkpt><trkpt lat="37.301493612468434" lon="13.780593781263452"><ele>422.33333333333337</ele><time>2026-03-29T09:39:59.001Z</time></trkpt><trkpt lat="37.301640194534876" lon="13.78070537813595"><ele>418.6666666666667</ele><time>2026-03-29T09:40:00.001Z</time></trkpt><trkpt lat="37.30178095914479" lon="13.780808824901507"><ele>415.0</ele><time>2026-03-29T09:40:01.001Z</time></trkpt><trkpt lat="37.30190896130345" lon="13.7809147880311"><ele>417.33333333333337</ele><time>2026-03-29T09:40:02.001Z</time></trkpt><trkpt lat="37.302020933713266" lon="13.781033456262778"><ele>419.66666666666663</ele><time>2026-03-29T09:40:03.001Z</time></trkpt><trkpt lat="37.30211341205914" lon="13.781178709361317"><ele>422.0</ele><time>2026-03-29T09:40:04.001Z</time></trkpt><trkpt lat="37.302199439403786" lon="13.78135062739783"><ele>418.0</ele><time>2026-03-29T09:40:05.001Z</time></trkpt><trkpt lat="37.3022743283652" lon="13.78152948121487"><ele>414.0</ele><time>2026-03-29T09:40:06.001Z</time></trkpt><trkpt lat="37.30234213804678" lon="13.781697351929097"><ele>410.0</ele><time>2026-03-29T09:40:07.001Z</time></trkpt><trkpt lat="37.302407652378825" lon="13.781853026382414"><ele>410.0</ele><time>2026-03-29T09:40:08.001Z</time></trkpt><trkpt lat="37.302459958550095" lon="13.78199002902888"><ele>410.0</ele><time>2026-03-29T09:40:09.001Z</time></trkpt><trkpt lat="37.30251647057193" lon="13.782105688735589"><ele>410.0</ele><time>2026-03-29T09:40:10.001Z</time></trkpt><trkpt lat="37.3025994291808" lon="13.782178860182402"><ele>410.0</ele><time>2026-03-29T09:40:11.001Z</time></trkpt><trkpt lat="37.302710675723525" lon="13.782201003884989"><ele>410.0</ele><time>2026-03-29T09:40:12.001Z</time></trkpt><trkpt lat="37.30284770727031" lon="13.78220014473251"><ele>410.0</ele><time>2026-03-29T09:40:13.001Z</time></trkpt><trkpt lat="37.30297219338082" lon="13.782208912588379"><ele>410.0</ele><time>2026-03-29T09:40:14.001Z</time></trkpt><trkpt lat="37.30308122987549" lon="13.782246826146212"><ele>410.0</ele><time>2026-03-29T09:40:15.001Z</time></trkpt><trkpt lat="37.303178353225725" lon="13.78232362576196"><ele>410.0</ele><time>2026-03-29T09:40:16.001Z</time></trkpt><trkpt lat="37.30326902252177" lon="13.782442596353862"><ele>408.2</ele><time>2026-03-29T09:40:17.001Z</time></trkpt><trkpt lat="37.303341763121125" lon="13.782579043491667"><ele>406.4</ele><time>2026-03-29T09:40:18.001Z</time></trkpt><trkpt lat="37.30339629671348" lon="13.782694897404092"><ele>404.6</ele><time>2026-03-29T09:40:19.001Z</time></trkpt><trkpt lat="37.30341484303165" lon="13.782800309430538"><ele>402.8</ele><time>2026-03-29T09:40:20.001Z</time></trkpt><trkpt lat="37.30339062108811" lon="13.782904539466099"><ele>401.0</ele><time>2026-03-29T09:40:21.001Z</time></trkpt><trkpt lat="37.30332852850913" lon="13.783002927944406"><ele>401.0</ele><time>2026-03-29T09:40:22.001Z</time></trkpt><trkpt lat="37.30327670318441" lon="13.783103467723143"><ele>401.0</ele><time>2026-03-29T09:40:23.001Z</time></trkpt><trkpt lat="37.303276310901715" lon="13.783224179897347"><ele>401.0</ele><time>2026-03-29T09:40:24.001Z</time></trkpt><trkpt lat="37.30332624421451" lon="13.783316084829167"><ele>401.0</ele><time>2026-03-29T09:40:25.001Z</time></trkpt><trkpt lat="37.30342399540332" lon="13.783378613288672"><ele>401.0</ele><time>2026-03-29T09:40:26.001Z</time></trkpt><trkpt lat="37.303558463561195" lon="13.783411069768242"><ele>401.0</ele><time>2026-03-29T09:40:27.001Z</time></trkpt><trkpt lat="37.30371360904275" lon="13.783455030742854"><ele>401.0</ele><time>2026-03-29T09:40:28.001Z</time></trkpt><trkpt lat="37.30387712405575" lon="13.783510516512726"><ele>401.0</ele><time>2026-03-29T09:40:29.001Z</time></trkpt><trkpt lat="37.30403870584727" lon="13.783560693048102"><ele>398.5</ele><time>2026-03-29T09:40:30.001Z</time></trkpt><trkpt lat="37.30418733311828" lon="13.783612455157725"><ele>396.0</ele><time>2026-03-29T09:40:31.001Z</time></trkpt><trkpt lat="37.30432242643173" lon="13.783683509908466"><ele>393.5</ele><time>2026-03-29T09:40:32.001Z</time></trkpt><trkpt lat="37.3044382383087" lon="13.783784645479775"><ele>391.0</ele><time>2026-03-29T09:40:33.001Z</time></trkpt><trkpt lat="37.304532517791316" lon="13.783907701260036"><ele>391.0</ele><time>2026-03-29T09:40:34.001Z</time></trkpt><trkpt lat="37.30457248019586" lon="13.784033810001134"><ele>391.0</ele><time>2026-03-29T09:40:35.001Z</time></trkpt><trkpt lat="37.304545948850674" lon="13.784166090152961"><ele>391.0</ele><time>2026-03-29T09:40:36.001Z</time></trkpt><trkpt lat="37.304549185440145" lon="13.784329953453959"><ele>391.0</ele><time>2026-03-29T09:40:37.001Z</time></trkpt><trkpt lat="37.304525085440034" lon="13.784466740382266"><ele>390.6</ele><time>2026-03-29T09:40:38.001Z</time></trkpt><trkpt lat="37.304474679689214" lon="13.784573065163409"><ele>390.20000000000005</ele><time>2026-03-29T09:40:39.001Z</time></trkpt><trkpt lat="37.304379901547804" lon="13.784617255878425"><ele>389.79999999999995</ele><time>2026-03-29T09:40:40.001Z</time></trkpt><trkpt lat="37.30426650421298" lon="13.784689210866109"><ele>389.4</ele><time>2026-03-29T09:40:41.001Z</time></trkpt><trkpt lat="37.30416300463006" lon="13.784742849769675"><ele>389.0</ele><time>2026-03-29T09:40:42.001Z</time></trkpt><trkpt lat="37.304085303304035" lon="13.784795061529609"><ele>389.0</ele><time>2026-03-29T09:40:43.001Z</time></trkpt><trkpt lat="37.304032626857285" lon="13.784860465901371"><ele>389.0</ele><time>2026-03-29T09:40:44.001Z</time></trkpt><trkpt lat="37.304053194921586" lon="13.7849742935804"><ele>389.0</ele><time>2026-03-29T09:40:45.001Z</time></trkpt><trkpt lat="37.304083715068664" lon="13.785080061330316"><ele>389.0</ele><time>2026-03-29T09:40:46.001Z</time></trkpt><trkpt lat="37.30419282551333" lon="13.785131358829567"><ele>389.0</ele><time>2026-03-29T09:40:47.001Z</time></trkpt><trkpt lat="37.30431415335611" lon="13.785173182168432"><ele>387.25</ele><time>2026-03-29T09:40:48.001Z</time></trkpt><trkpt lat="37.304454800749426" lon="13.785191224848901"><ele>385.5</ele><time>2026-03-29T09:40:49.001Z</time></trkpt><trkpt lat="37.30460605826791" lon="13.785219003630122"><ele>383.75</ele><time>2026-03-29T09:40:50.001Z</time></trkpt><trkpt lat="37.30474212882117" lon="13.785238406174024"><ele>382.0</ele><time>2026-03-29T09:40:51.001Z</time></trkpt><trkpt lat="37.30486383426945" lon="13.785228335858509"><ele>382.0</ele><time>2026-03-29T09:40:52.001Z</time></trkpt><trkpt lat="37.304967003871575" lon="13.785204360118959"><ele>382.0</ele><time>2026-03-29T09:40:53.001Z</time></trkpt><trkpt lat="37.30505565346168" lon="13.78519730397216"><ele>382.0</ele><time>2026-03-29T09:40:54.001Z</time></trkpt><trkpt lat="37.305186399478245" lon="13.78536092473321"><ele>382.0</ele><time>2026-03-29T09:40:56.001Z</time></trkpt><trkpt lat="37.30523879301135" lon="13.785487498456565"><ele>382.0</ele><time>2026-03-29T09:40:57.001Z</time></trkpt><trkpt lat="37.30533035362769" lon="13.785575112796513"><ele>382.0</ele><time>2026-03-29T09:40:58.002Z</time></trkpt><trkpt lat="37.30545538757043" lon="13.785594882428626"><ele>382.0</ele><time>2026-03-29T09:40:59.002Z</time></trkpt><trkpt lat="37.30560231018747" lon="13.785581179240246"><ele>382.0</ele><time>2026-03-29T09:41:00.002Z</time></trkpt><trkpt lat="37.30576093184354" lon="13.785560789485345"><ele>380.0</ele><time>2026-03-29T09:41:01.002Z</time></trkpt><trkpt lat="37.30590598301214" lon="13.785559691370555"><ele>378.0</ele><time>2026-03-29T09:41:02.002Z</time></trkpt><trkpt lat="37.30604636975519" lon="13.78557888435544"><ele>376.0</ele><time>2026-03-29T09:41:03.002Z</time></trkpt><trkpt lat="37.30617604838165" lon="13.785638176353402"><ele>374.0</ele><time>2026-03-29T09:41:04.002Z</time></trkpt><trkpt lat="37.306289300958944" lon="13.785740953105767"><ele>374.0</ele><time>2026-03-29T09:41:05.002Z</time></trkpt><trkpt lat="37.306381931141445" lon="13.785894375824773"><ele>374.0</ele><time>2026-03-29T09:41:06.002Z</time></trkpt><trkpt lat="37.30646070462901" lon="13.786074062267469"><ele>374.0</ele><time>2026-03-29T09:41:07.002Z</time></trkpt><trkpt lat="37.30653558869757" lon="13.786257936377117"><ele>372.0</ele><time>2026-03-29T09:41:08.002Z</time></trkpt><trkpt lat="37.30661551726942" lon="13.78642429273454"><ele>370.0</ele><time>2026-03-29T09:41:09Z</time></trkpt><trkpt lat="37.3066927158278" lon="13.786565988604705"><ele>368.0</ele><time>2026-03-29T09:41:10Z</time></trkpt><trkpt lat="37.30677928598966" lon="13.786666757595846"><ele>366.0</ele><time>2026-03-29T09:41:11Z</time></trkpt><trkpt lat="37.3068933443125" lon="13.786732331669453"><ele>366.0</ele><time>2026-03-29T09:41:12Z</time></trkpt><trkpt lat="37.307042167668605" lon="13.786767572507658"><ele>366.0</ele><time>2026-03-29T09:41:13Z</time></trkpt><trkpt lat="37.30721070140488" lon="13.786797832103574"><ele>366.0</ele><time>2026-03-29T09:41:14Z</time></trkpt><trkpt lat="37.307374056079766" lon="13.786828710848047"><ele>364.75</ele><time>2026-03-29T09:41:15Z</time></trkpt><trkpt lat="37.30752150148276" lon="13.786863599545224"><ele>363.5</ele><time>2026-03-29T09:41:16Z</time></trkpt><trkpt lat="37.30764912744356" lon="13.78692294408502"><ele>362.25</ele><time>2026-03-29T09:41:17Z</time></trkpt><trkpt lat="37.307743228283684" lon="13.787024342929929"><ele>361.0</ele><time>2026-03-29T09:41:18Z</time></trkpt><trkpt lat="37.30784303129237" lon="13.78709510502803"><ele>361.0</ele><time>2026-03-29T09:41:19Z</time></trkpt><trkpt lat="37.307923074483014" lon="13.78718029597502"><ele>361.0</ele><time>2026-03-29T09:41:20Z</time></trkpt><trkpt lat="37.30808662082808" lon="13.787342390938088"><ele>361.0</ele><time>2026-03-29T09:41:22Z</time></trkpt><trkpt lat="37.308161760161774" lon="13.787420908598355"><ele>361.0</ele><time>2026-03-29T09:41:23Z</time></trkpt><trkpt lat="37.30823162983651" lon="13.787496968581163"><ele>360.4</ele><time>2026-03-29T09:41:24Z</time></trkpt><trkpt lat="37.308295675174364" lon="13.78757626312238"><ele>359.8</ele><time>2026-03-29T09:41:25Z</time></trkpt><trkpt lat="37.30833756296768" lon="13.787661721443072"><ele>359.2</ele><time>2026-03-29T09:41:26Z</time></trkpt><trkpt lat="37.308364365686295" lon="13.787753528002751"><ele>358.59999999999997</ele><time>2026-03-29T09:41:27Z</time></trkpt><trkpt lat="37.30839902280297" lon="13.787917241236217"><ele>358.0</ele><time>2026-03-29T09:41:29Z</time></trkpt><trkpt lat="37.30843499545977" lon="13.788057129125928"><ele>358.0</ele><time>2026-03-29T09:41:31Z</time></trkpt><trkpt lat="37.30850041921482" lon="13.788221756424184"><ele>358.0</ele><time>2026-03-29T09:41:33Z</time></trkpt><trkpt lat="37.3085718472161" lon="13.788325760452251"><ele>358.0</ele><time>2026-03-29T09:41:34Z</time></trkpt><trkpt lat="37.30866855578818" lon="13.788436770864015"><ele>358.0</ele><time>2026-03-29T09:41:35Z</time></trkpt><trkpt lat="37.308786922327144" lon="13.788550274207191"><ele>357.0</ele><time>2026-03-29T09:41:36Z</time></trkpt><trkpt lat="37.30892071003247" lon="13.788681312166723"><ele>356.0</ele><time>2026-03-29T09:41:37Z</time></trkpt><trkpt lat="37.30906048886619" lon="13.788818305042351"><ele>355.0</ele><time>2026-03-29T09:41:38Z</time></trkpt><trkpt lat="37.30919546867388" lon="13.788974620567314"><ele>355.0</ele><time>2026-03-29T09:41:39Z</time></trkpt><trkpt lat="37.30934215987912" lon="13.789119963996457"><ele>355.0</ele><time>2026-03-29T09:41:40Z</time></trkpt><trkpt lat="37.309491047823165" lon="13.789252284562455"><ele>355.0</ele><time>2026-03-29T09:41:41Z</time></trkpt><trkpt lat="37.30963900780788" lon="13.78938535354155"><ele>354.3333333333333</ele><time>2026-03-29T09:41:42Z</time></trkpt><trkpt lat="37.30977415621959" lon="13.789547125169886"><ele>353.6666666666667</ele><time>2026-03-29T09:41:43Z</time></trkpt><trkpt lat="37.309927100056335" lon="13.789682080388673"><ele>353.0</ele><time>2026-03-29T09:41:44Z</time></trkpt><trkpt lat="37.31006112512846" lon="13.789828458226614"><ele>353.0</ele><time>2026-03-29T09:41:45Z</time></trkpt><trkpt lat="37.310190050478944" lon="13.789965974196067"><ele>353.0</ele><time>2026-03-29T09:41:46Z</time></trkpt><trkpt lat="37.31031561870201" lon="13.790093077329782"><ele>353.0</ele><time>2026-03-29T09:41:47Z</time></trkpt><trkpt lat="37.31043229237174" lon="13.790218359998349"><ele>355.6666666666667</ele><time>2026-03-29T09:41:48Z</time></trkpt><trkpt lat="37.31053320362018" lon="13.79035639566666"><ele>358.3333333333333</ele><time>2026-03-29T09:41:49Z</time></trkpt><trkpt lat="37.31062613105363" lon="13.790530309454464"><ele>361.0</ele><time>2026-03-29T09:41:50Z</time></trkpt><trkpt lat="37.31071610263409" lon="13.790737484486973"><ele>356.66666666666663</ele><time>2026-03-29T09:41:51Z</time></trkpt><trkpt lat="37.310809717662366" lon="13.79095971996217"><ele>352.3333333333333</ele><time>2026-03-29T09:41:52Z</time></trkpt><trkpt lat="37.31091042563978" lon="13.791187059702134"><ele>348.0</ele><time>2026-03-29T09:41:53Z</time></trkpt><trkpt lat="37.31101647251291" lon="13.791411744891805"><ele>348.0</ele><time>2026-03-29T09:41:54Z</time></trkpt><trkpt lat="37.31112044854368" lon="13.791624409187738"><ele>348.0</ele><time>2026-03-29T09:41:55Z</time></trkpt><trkpt lat="37.31122647937747" lon="13.791827741614267"><ele>348.0</ele><time>2026-03-29T09:41:56Z</time></trkpt><trkpt lat="37.311340971893706" lon="13.792030369556294"><ele>345.0</ele><time>2026-03-29T09:41:57Z</time></trkpt><trkpt lat="37.31145958898593" lon="13.792234184561025"><ele>342.0</ele><time>2026-03-29T09:41:58Z</time></trkpt><trkpt lat="37.31157962071032" lon="13.792448849099378"><ele>339.0</ele><time>2026-03-29T09:41:59.001Z</time></trkpt><trkpt lat="37.31170456768541" lon="13.79266712987676"><ele>340.0</ele><time>2026-03-29T09:42:00.001Z</time></trkpt><trkpt lat="37.311824239596845" lon="13.792878222476165"><ele>341.0</ele><time>2026-03-29T09:42:01.001Z</time></trkpt><trkpt lat="37.311933762196745" lon="13.793074514316366"><ele>342.0</ele><time>2026-03-29T09:42:02.001Z</time></trkpt><trkpt lat="37.31203089704718" lon="13.793251934240109"><ele>342.0</ele><time>2026-03-29T09:42:03.001Z</time></trkpt><trkpt lat="37.31211097580057" lon="13.793429639927616"><ele>342.0</ele><time>2026-03-29T09:42:04.001Z</time></trkpt><trkpt lat="37.31217387161786" lon="13.793628516198915"><ele>342.0</ele><time>2026-03-29T09:42:05.001Z</time></trkpt><trkpt lat="37.31221749784347" lon="13.7938360313824"><ele>342.3333333333333</ele><time>2026-03-29T09:42:06.001Z</time></trkpt><trkpt lat="37.312237733298964" lon="13.79404675623853"><ele>342.66666666666663</ele><time>2026-03-29T09:42:07.001Z</time></trkpt><trkpt lat="37.31224281342841" lon="13.794249384741537"><ele>343.0</ele><time>2026-03-29T09:42:08.001Z</time></trkpt><trkpt lat="37.31223273418805" lon="13.794439203334214"><ele>343.0</ele><time>2026-03-29T09:42:09.001Z</time></trkpt><trkpt lat="37.31220006424689" lon="13.79465300760085"><ele>343.0</ele><time>2026-03-29T09:42:10.001Z</time></trkpt><trkpt lat="37.31215216349788" lon="13.794869036730526"><ele>343.0</ele><time>2026-03-29T09:42:11.001Z</time></trkpt><trkpt lat="37.31210494830452" lon="13.795068406475583"><ele>342.25</ele><time>2026-03-29T09:42:12.001Z</time></trkpt><trkpt lat="37.31206222155536" lon="13.79525395915256"><ele>341.5</ele><time>2026-03-29T09:42:13.001Z</time></trkpt><trkpt lat="37.31202671117405" lon="13.79543149129987"><ele>340.75</ele><time>2026-03-29T09:42:14.001Z</time></trkpt><trkpt lat="37.312002782593225" lon="13.795602561602948"><ele>340.0</ele><time>2026-03-29T09:42:15.001Z</time></trkpt><trkpt lat="37.31199372419435" lon="13.795782729390956"><ele>340.0</ele><time>2026-03-29T09:42:16.001Z</time></trkpt><trkpt lat="37.31200562517347" lon="13.795970140928764"><ele>340.0</ele><time>2026-03-29T09:42:17.001Z</time></trkpt><trkpt lat="37.312039601555405" lon="13.796142868619667"><ele>340.0</ele><time>2026-03-29T09:42:18.001Z</time></trkpt><trkpt lat="37.31209194716571" lon="13.796292045208796"><ele>340.0</ele><time>2026-03-29T09:42:19.001Z</time></trkpt><trkpt lat="37.31216710451175" lon="13.796420718601913"><ele>339.0</ele><time>2026-03-29T09:42:20.001Z</time></trkpt><trkpt lat="37.31223698860543" lon="13.796570953857536"><ele>338.0</ele><time>2026-03-29T09:42:21.001Z</time></trkpt><trkpt lat="37.31233281869746" lon="13.79670945438596"><ele>337.0</ele><time>2026-03-29T09:42:22.001Z</time></trkpt><trkpt lat="37.31245173422812" lon="13.796842420568733"><ele>336.0</ele><time>2026-03-29T09:42:23.001Z</time></trkpt><trkpt lat="37.31255380704321" lon="13.796992768177386"><ele>336.0</ele><time>2026-03-29T09:42:24.001Z</time></trkpt><trkpt lat="37.31265628798164" lon="13.797142386096942"><ele>336.0</ele><time>2026-03-29T09:42:25.001Z</time></trkpt><trkpt lat="37.31275501806069" lon="13.797285868573763"><ele>336.0</ele><time>2026-03-29T09:42:26.001Z</time></trkpt><trkpt lat="37.31284257133852" lon="13.797413977294733"><ele>336.0</ele><time>2026-03-29T09:42:27.001Z</time></trkpt><trkpt lat="37.31292383075819" lon="13.797540517897469"><ele>336.0</ele><time>2026-03-29T09:42:28.001Z</time></trkpt><trkpt lat="37.312989860085516" lon="13.797666818749278"><ele>336.0</ele><time>2026-03-29T09:42:29.001Z</time></trkpt><trkpt lat="37.313022373747245" lon="13.797802568127398"><ele>336.0</ele><time>2026-03-29T09:42:30.001Z</time></trkpt><trkpt lat="37.31306397549593" lon="13.797942770864015"><ele>336.0</ele><time>2026-03-29T09:42:31.001Z</time></trkpt><trkpt lat="37.313072530990965" lon="13.798106288372804"><ele>336.5</ele><time>2026-03-29T09:42:32.001Z</time></trkpt><trkpt lat="37.313044169209405" lon="13.798273097231638"><ele>337.0</ele><time>2026-03-29T09:42:33.001Z</time></trkpt><trkpt lat="37.31301200402577" lon="13.798440044859783"><ele>337.5</ele><time>2026-03-29T09:42:34.001Z</time></trkpt><trkpt lat="37.31296700825878" lon="13.798612005618418"><ele>338.0</ele><time>2026-03-29T09:42:35.001Z</time></trkpt><trkpt lat="37.31291658574972" lon="13.79878798479817"><ele>337.0</ele><time>2026-03-29T09:42:36.001Z</time></trkpt><trkpt lat="37.31286744957876" lon="13.79895908926489"><ele>336.0</ele><time>2026-03-29T09:42:37.001Z</time></trkpt><trkpt lat="37.31281980710825" lon="13.799124903134055"><ele>335.0</ele><time>2026-03-29T09:42:38.001Z</time></trkpt><trkpt lat="37.31277345132509" lon="13.799286238702596"><ele>334.0</ele><time>2026-03-29T09:42:39.001Z</time></trkpt><trkpt lat="37.31273049167387" lon="13.79944255160682"><ele>333.6</ele><time>2026-03-29T09:42:40.001Z</time></trkpt><trkpt lat="37.31269430370845" lon="13.799574809487817"><ele>333.2</ele><time>2026-03-29T09:42:41.001Z</time></trkpt><trkpt lat="37.31266661433207" lon="13.799671784369385"><ele>332.8</ele><time>2026-03-29T09:42:42.001Z</time></trkpt><trkpt lat="37.31264336707093" lon="13.799752236486587"><ele>332.40000000000003</ele><time>2026-03-29T09:42:43.001Z</time></trkpt><trkpt lat="37.31260852682019" lon="13.799872808639511"><ele>332.0</ele><time>2026-03-29T09:42:44.001Z</time></trkpt><trkpt lat="37.31256534259091" lon="13.800020765394725"><ele>330.6666666666667</ele><time>2026-03-29T09:42:45.001Z</time></trkpt><trkpt lat="37.31251344974087" lon="13.800187026680229"><ele>329.3333333333333</ele><time>2026-03-29T09:42:46.001Z</time></trkpt><trkpt lat="37.31245469433718" lon="13.800367585164814"><ele>328.0</ele><time>2026-03-29T09:42:47.001Z</time></trkpt><trkpt lat="37.312398311136945" lon="13.800551278890838"><ele>328.0</ele><time>2026-03-29T09:42:48.001Z</time></trkpt><trkpt lat="37.31235393459307" lon="13.80072827175865"><ele>328.0</ele><time>2026-03-29T09:42:49.001Z</time></trkpt><trkpt lat="37.31230602978327" lon="13.800888725754593"><ele>328.0</ele><time>2026-03-29T09:42:50.001Z</time></trkpt><trkpt lat="37.312250424045835" lon="13.80105873181336"><ele>328.0</ele><time>2026-03-29T09:42:51.001Z</time></trkpt><trkpt lat="37.312197207445166" lon="13.801244129747065"><ele>330.66666666666663</ele><time>2026-03-29T09:42:52.001Z</time></trkpt><trkpt lat="37.3121406854602" lon="13.801435916719646"><ele>333.3333333333333</ele><time>2026-03-29T09:42:53.001Z</time></trkpt><trkpt lat="37.31209538434475" lon="13.801634292585046"><ele>336.0</ele><time>2026-03-29T09:42:54.001Z</time></trkpt><trkpt lat="37.31203269327964" lon="13.801802881255822"><ele>334.4</ele><time>2026-03-29T09:42:55.001Z</time></trkpt><trkpt lat="37.311973753893824" lon="13.801952653435992"><ele>332.8</ele><time>2026-03-29T09:42:56.001Z</time></trkpt><trkpt lat="37.31191646356398" lon="13.802071342243323"><ele>331.2</ele><time>2026-03-29T09:42:57.001Z</time></trkpt><trkpt lat="37.31184758987792" lon="13.802159542314174"><ele>329.59999999999997</ele><time>2026-03-29T09:42:58.001Z</time></trkpt><trkpt lat="37.31178968903696" lon="13.80224330169664"><ele>328.0</ele><time>2026-03-29T09:42:59.001Z</time></trkpt><trkpt lat="37.31173298968676" lon="13.802318850842996"><ele>328.0</ele><time>2026-03-29T09:43:00.001Z</time></trkpt><trkpt lat="37.31167862715893" lon="13.802379315921744"><ele>328.0</ele><time>2026-03-29T09:43:01.001Z</time></trkpt><trkpt lat="37.311607906159495" lon="13.802451943734573"><ele>328.0</ele><time>2026-03-29T09:43:02.001Z</time></trkpt><trkpt lat="37.31152807622416" lon="13.802529789405607"><ele>328.0</ele><time>2026-03-29T09:43:03.001Z</time></trkpt><trkpt lat="37.31143653222154" lon="13.80261426923252"><ele>328.0</ele><time>2026-03-29T09:43:04.001Z</time></trkpt><trkpt lat="37.31133784953968" lon="13.802704652269018"><ele>328.0</ele><time>2026-03-29T09:43:05.002Z</time></trkpt><trkpt lat="37.31123694843672" lon="13.802813642458"><ele>328.0</ele><time>2026-03-29T09:43:06.002Z</time></trkpt><trkpt lat="37.3111250935508" lon="13.802918344767747"><ele>328.0</ele><time>2026-03-29T09:43:07.002Z</time></trkpt><trkpt lat="37.3110193020355" lon="13.803039995100619"><ele>328.0</ele><time>2026-03-29T09:43:08.002Z</time></trkpt><trkpt lat="37.31092450438787" lon="13.803170317004081"><ele>328.0</ele><time>2026-03-29T09:43:09.002Z</time></trkpt><trkpt lat="37.310836726953795" lon="13.803316007874015"><ele>328.0</ele><time>2026-03-29T09:43:10.002Z</time></trkpt><trkpt lat="37.31076182975751" lon="13.803477145670636"><ele>328.0</ele><time>2026-03-29T09:43:11.002Z</time></trkpt><trkpt lat="37.31069725161601" lon="13.803654247239884"><ele>328.0</ele><time>2026-03-29T09:43:12.002Z</time></trkpt><trkpt lat="37.31063875279047" lon="13.803843583959074"><ele>327.66666666666663</ele><time>2026-03-29T09:43:13.002Z</time></trkpt><trkpt lat="37.31058047478329" lon="13.804038177254203"><ele>327.3333333333333</ele><time>2026-03-29T09:43:14.002Z</time></trkpt><trkpt lat="37.310502857688995" lon="13.804229305005357"><ele>327.0</ele><time>2026-03-29T09:43:15Z</time></trkpt><trkpt lat="37.31043782976957" lon="13.80443016423669"><ele>328.0</ele><time>2026-03-29T09:43:16Z</time></trkpt><trkpt lat="37.31038889119096" lon="13.804642722519182"><ele>329.0</ele><time>2026-03-29T09:43:17Z</time></trkpt><trkpt lat="37.31032412580669" lon="13.804851012182606"><ele>330.0</ele><time>2026-03-29T09:43:18Z</time></trkpt><trkpt lat="37.31025876919545" lon="13.805060711517612"><ele>330.0</ele><time>2026-03-29T09:43:19Z</time></trkpt><trkpt lat="37.31019386199307" lon="13.805270030539518"><ele>330.0</ele><time>2026-03-29T09:43:20Z</time></trkpt><trkpt lat="37.31012953878881" lon="13.805478478972336"><ele>330.0</ele><time>2026-03-29T09:43:21Z</time></trkpt><trkpt lat="37.31006639399498" lon="13.805683981416266"><ele>330.0</ele><time>2026-03-29T09:43:22Z</time></trkpt><trkpt lat="37.31000286252" lon="13.805888259380286"><ele>330.0</ele><time>2026-03-29T09:43:23Z</time></trkpt><trkpt lat="37.30993886510845" lon="13.806090292761462"><ele>330.0</ele><time>2026-03-29T09:43:24Z</time></trkpt><trkpt lat="37.3098744888278" lon="13.806288997894745"><ele>329.6666666666667</ele><time>2026-03-29T09:43:25Z</time></trkpt><trkpt lat="37.30981085196118" lon="13.806489062683402"><ele>329.33333333333337</ele><time>2026-03-29T09:43:26Z</time></trkpt><trkpt lat="37.30975020543693" lon="13.806686622907469"><ele>329.0</ele><time>2026-03-29T09:43:27Z</time></trkpt><trkpt lat="37.309694640045" lon="13.80687251529607"><ele>330.25</ele><time>2026-03-29T09:43:28Z</time></trkpt><trkpt lat="37.309641947439104" lon="13.807040528701235"><ele>331.5</ele><time>2026-03-29T09:43:29Z</time></trkpt><trkpt lat="37.309595047223276" lon="13.807194077902048"><ele>332.75</ele><time>2026-03-29T09:43:30Z</time></trkpt><trkpt lat="37.309559157357064" lon="13.807340759540843"><ele>334.0</ele><time>2026-03-29T09:43:31Z</time></trkpt><trkpt lat="37.309548194394246" lon="13.807486928949276"><ele>334.0</ele><time>2026-03-29T09:43:32Z</time></trkpt><trkpt lat="37.30954162028688" lon="13.807641161388554"><ele>334.0</ele><time>2026-03-29T09:43:33Z</time></trkpt><trkpt lat="37.3095632760203" lon="13.807804330694697"><ele>334.0</ele><time>2026-03-29T09:43:34Z</time></trkpt><trkpt lat="37.309594058329125" lon="13.807966206727892"><ele>334.0</ele><time>2026-03-29T09:43:35Z</time></trkpt><trkpt lat="37.30962855017225" lon="13.808130561606635"><ele>334.0</ele><time>2026-03-29T09:43:36Z</time></trkpt><trkpt lat="37.30966327603021" lon="13.80829736638616"><ele>334.0</ele><time>2026-03-29T09:43:37Z</time></trkpt><trkpt lat="37.309689775631135" lon="13.808452869905791"><ele>334.0</ele><time>2026-03-29T09:43:38Z</time></trkpt><trkpt lat="37.30972057631904" lon="13.808595973347495"><ele>334.0</ele><time>2026-03-29T09:43:39Z</time></trkpt><trkpt lat="37.30970511367349" lon="13.808732717339913"><ele>334.0</ele><time>2026-03-29T09:43:40Z</time></trkpt><trkpt lat="37.30965869350318" lon="13.808869956267133"><ele>334.0</ele><time>2026-03-29T09:43:41Z</time></trkpt><trkpt lat="37.309579232208385" lon="13.80900408485158"><ele>334.0</ele><time>2026-03-29T09:43:42Z</time></trkpt><trkpt lat="37.30949175480646" lon="13.809138203245835"><ele>334.0</ele><time>2026-03-29T09:43:43Z</time></trkpt><trkpt lat="37.30940105196887" lon="13.809277764918653"><ele>333.0</ele><time>2026-03-29T09:43:44Z</time></trkpt><trkpt lat="37.30930227380055" lon="13.809408410662213"><ele>332.0</ele><time>2026-03-29T09:43:45Z</time></trkpt><trkpt lat="37.309190101003736" lon="13.8095165602833"><ele>331.0</ele><time>2026-03-29T09:43:46Z</time></trkpt><trkpt lat="37.30906350656833" lon="13.809605572135588"><ele>330.0</ele><time>2026-03-29T09:43:47Z</time></trkpt><trkpt lat="37.308925779429075" lon="13.809677924951083"><ele>330.6666666666667</ele><time>2026-03-29T09:43:48Z</time></trkpt><trkpt lat="37.308777429289734" lon="13.809735328647388"><ele>331.33333333333337</ele><time>2026-03-29T09:43:49Z</time></trkpt><trkpt lat="37.30862062196051" lon="13.809789386565278"><ele>332.0</ele><time>2026-03-29T09:43:50Z</time></trkpt><trkpt lat="37.3084629607624" lon="13.809850384314103"><ele>332.0</ele><time>2026-03-29T09:43:51Z</time></trkpt><trkpt lat="37.308310093908204" lon="13.809912107439365"><ele>332.0</ele><time>2026-03-29T09:43:52Z</time></trkpt><trkpt lat="37.308167625162106" lon="13.809969750429834"><ele>332.0</ele><time>2026-03-29T09:43:53Z</time></trkpt><trkpt lat="37.30803049976828" lon="13.810015037581408"><ele>332.25</ele><time>2026-03-29T09:43:54Z</time></trkpt><trkpt lat="37.30788907635013" lon="13.810043169051614"><ele>332.5</ele><time>2026-03-29T09:43:55Z</time></trkpt><trkpt lat="37.307747980534664" lon="13.81005914473167"><ele>332.75</ele><time>2026-03-29T09:43:56Z</time></trkpt><trkpt lat="37.307612537098066" lon="13.810071437628569"><ele>333.0</ele><time>2026-03-29T09:43:57.001Z</time></trkpt><trkpt lat="37.30749221130863" lon="13.810098660350445"><ele>333.0</ele><time>2026-03-29T09:43:58.001Z</time></trkpt><trkpt lat="37.3073654764518" lon="13.81013023311141"><ele>333.0</ele><time>2026-03-29T09:43:59.001Z</time></trkpt><trkpt lat="37.30724581106688" lon="13.810218428276762"><ele>333.0</ele><time>2026-03-29T09:44:00.001Z</time></trkpt><trkpt lat="37.307131485316376" lon="13.810323979363748"><ele>333.0</ele><time>2026-03-29T09:44:01.001Z</time></trkpt><trkpt lat="37.307018631685075" lon="13.810431220073015"><ele>332.5</ele><time>2026-03-29T09:44:02.001Z</time></trkpt><trkpt lat="37.306906245149285" lon="13.810541537175089"><ele>332.0</ele><time>2026-03-29T09:44:03.001Z</time></trkpt><trkpt lat="37.30681223511347" lon="13.810652173338884"><ele>331.5</ele><time>2026-03-29T09:44:04.001Z</time></trkpt><trkpt lat="37.306715630744044" lon="13.810736089538734"><ele>331.0</ele><time>2026-03-29T09:44:05.001Z</time></trkpt><trkpt lat="37.30663743390489" lon="13.810806018516232"><ele>331.0</ele><time>2026-03-29T09:44:06.001Z</time></trkpt><trkpt lat="37.30654078562657" lon="13.810911662200876"><ele>331.0</ele><time>2026-03-29T09:44:08.001Z</time></trkpt><trkpt lat="37.30650790788419" lon="13.811003750346798"><ele>331.0</ele><time>2026-03-29T09:44:11.001Z</time></trkpt><trkpt lat="37.30663726296365" lon="13.811124951194836"><ele>331.0</ele><time>2026-03-29T09:44:15.001Z</time></trkpt><trkpt lat="37.30674476681636" lon="13.811164064146116"><ele>331.3333333333333</ele><time>2026-03-29T09:44:16.001Z</time></trkpt><trkpt lat="37.30687051537285" lon="13.81121146803631"><ele>331.6666666666667</ele><time>2026-03-29T09:44:17.001Z</time></trkpt><trkpt lat="37.307023605968936" lon="13.811265061517854"><ele>332.0</ele><time>2026-03-29T09:44:18.001Z</time></trkpt><trkpt lat="37.307364233308526" lon="13.811392883525878"><ele>331.33333333333337</ele><time>2026-03-29T09:44:20.001Z</time></trkpt><trkpt lat="37.30755694003396" lon="13.811463345191159"><ele>330.6666666666667</ele><time>2026-03-29T09:44:21.001Z</time></trkpt><trkpt lat="37.30775626327393" lon="13.811533434123941"><ele>330.0</ele><time>2026-03-29T09:44:22.001Z</time></trkpt><trkpt lat="37.307970834752446" lon="13.811609495163701"><ele>330.0</ele><time>2026-03-29T09:44:23.001Z</time></trkpt><trkpt lat="37.30819269303639" lon="13.811687963344804"><ele>330.0</ele><time>2026-03-29T09:44:24.001Z</time></trkpt><trkpt lat="37.30842270912486" lon="13.811771260808134"><ele>329.5</ele><time>2026-03-29T09:44:25.001Z</time></trkpt><trkpt lat="37.308654577269294" lon="13.811855623949706"><ele>329.0</ele><time>2026-03-29T09:44:26.001Z</time></trkpt><trkpt lat="37.30889554939292" lon="13.811942070813927"><ele>328.5</ele><time>2026-03-29T09:44:27.001Z</time></trkpt><trkpt lat="37.30914112875877" lon="13.812030138262639"><ele>328.0</ele><time>2026-03-29T09:44:28.001Z</time></trkpt><trkpt lat="37.30938901841575" lon="13.812118830362586"><ele>328.0</ele><time>2026-03-29T09:44:29.001Z</time></trkpt><trkpt lat="37.3096377176104" lon="13.812208041792902"><ele>328.0</ele><time>2026-03-29T09:44:30.001Z</time></trkpt><trkpt lat="37.30988663433333" lon="13.812296605103036"><ele>328.5</ele><time>2026-03-29T09:44:31.001Z</time></trkpt><trkpt lat="37.31013427264123" lon="13.812386427223297"><ele>329.0</ele><time>2026-03-29T09:44:32.001Z</time></trkpt><trkpt lat="37.3103793539561" lon="13.812476342866074"><ele>327.5</ele><time>2026-03-29T09:44:33.001Z</time></trkpt><trkpt lat="37.310613399299235" lon="13.8125612065366"><ele>326.0</ele><time>2026-03-29T09:44:34.001Z</time></trkpt><trkpt lat="37.310838829188846" lon="13.81264107984645"><ele>329.0</ele><time>2026-03-29T09:44:35.001Z</time></trkpt><trkpt lat="37.31106086595833" lon="13.81271847647674"><ele>332.0</ele><time>2026-03-29T09:44:36.001Z</time></trkpt><trkpt lat="37.31127861351964" lon="13.812795137337172"><ele>330.5</ele><time>2026-03-29T09:44:37.001Z</time></trkpt><trkpt lat="37.311493848714115" lon="13.812872954812791"><ele>329.0</ele><time>2026-03-29T09:44:38.001Z</time></trkpt><trkpt lat="37.3117105231012" lon="13.812955055278774"><ele>329.0</ele><time>2026-03-29T09:44:39.001Z</time></trkpt><trkpt lat="37.311923974364916" lon="13.813048616438055"><ele>329.0</ele><time>2026-03-29T09:44:40.001Z</time></trkpt><trkpt lat="37.31213576976773" lon="13.81316441306132"><ele>326.0</ele><time>2026-03-29T09:44:41.001Z</time></trkpt><trkpt lat="37.31235005169175" lon="13.813291231462625"><ele>323.0</ele><time>2026-03-29T09:44:42.001Z</time></trkpt><trkpt lat="37.31256425385467" lon="13.81342233633976"><ele>323.5</ele><time>2026-03-29T09:44:43.001Z</time></trkpt><trkpt lat="37.312782232387306" lon="13.813552595041049"><ele>324.0</ele><time>2026-03-29T09:44:44.001Z</time></trkpt><trkpt lat="37.31300178695527" lon="13.81368363403083"><ele>324.5</ele><time>2026-03-29T09:44:45.001Z</time></trkpt><trkpt lat="37.31322159142351" lon="13.813815559867765"><ele>325.0</ele><time>2026-03-29T09:44:46.001Z</time></trkpt><trkpt lat="37.31344152423134" lon="13.813947887798852"><ele>325.0</ele><time>2026-03-29T09:44:47.001Z</time></trkpt><trkpt lat="37.313660948501564" lon="13.814079640737361"><ele>325.0</ele><time>2026-03-29T09:44:48.001Z</time></trkpt><trkpt lat="37.31388099327635" lon="13.814212104722008"><ele>326.0</ele><time>2026-03-29T09:44:49.001Z</time></trkpt><trkpt lat="37.314101228283135" lon="13.81434145929094"><ele>327.0</ele><time>2026-03-29T09:44:50.001Z</time></trkpt><trkpt lat="37.314320288862326" lon="13.814468659478"><ele>327.0</ele><time>2026-03-29T09:44:51.001Z</time></trkpt><trkpt lat="37.31453949739343" lon="13.81459790632121"><ele>327.0</ele><time>2026-03-29T09:44:52.001Z</time></trkpt><trkpt lat="37.3147509679713" lon="13.814746616068184"><ele>326.0</ele><time>2026-03-29T09:44:53.001Z</time></trkpt><trkpt lat="37.314978148060554" lon="13.814859732523672"><ele>325.0</ele><time>2026-03-29T09:44:54.001Z</time></trkpt><trkpt lat="37.31519785528767" lon="13.814993963801438"><ele>325.0</ele><time>2026-03-29T09:44:55.001Z</time></trkpt><trkpt lat="37.31541468938027" lon="13.815127089605205"><ele>325.0</ele><time>2026-03-29T09:44:56.001Z</time></trkpt><trkpt lat="37.31562939008171" lon="13.815258949852389"><ele>326.5</ele><time>2026-03-29T09:44:57.001Z</time></trkpt><trkpt lat="37.3158406581769" lon="13.815387413027311"><ele>328.0</ele><time>2026-03-29T09:44:58.001Z</time></trkpt><trkpt lat="37.31605065835803" lon="13.815511234860669"><ele>328.0</ele><time>2026-03-29T09:44:59.001Z</time></trkpt><trkpt lat="37.31625969641867" lon="13.81563281993311"><ele>328.0</ele><time>2026-03-29T09:45:00.001Z</time></trkpt><trkpt lat="37.31646532966294" lon="13.815753688477423"><ele>329.0</ele><time>2026-03-29T09:45:01.001Z</time></trkpt><trkpt lat="37.31666999921428" lon="13.815874607198339"><ele>330.0</ele><time>2026-03-29T09:45:02.002Z</time></trkpt><trkpt lat="37.316872362577996" lon="13.815994263777084"><ele>332.3333333333333</ele><time>2026-03-29T09:45:03.002Z</time></trkpt><trkpt lat="37.31707437883148" lon="13.81611196428012"><ele>334.66666666666663</ele><time>2026-03-29T09:45:04.002Z</time></trkpt><trkpt lat="37.31727633052558" lon="13.816233240221566"><ele>337.0</ele><time>2026-03-29T09:45:05.002Z</time></trkpt><trkpt lat="37.31747742973752" lon="13.816357164674868"><ele>337.0</ele><time>2026-03-29T09:45:06.002Z</time></trkpt><trkpt lat="37.31767722468984" lon="13.81647782982856"><ele>337.0</ele><time>2026-03-29T09:45:07.002Z</time></trkpt><trkpt lat="37.31787492399343" lon="13.81659727745946"><ele>337.0</ele><time>2026-03-29T09:45:08.002Z</time></trkpt><trkpt lat="37.31807202662742" lon="13.816715945913517"><ele>337.3333333333333</ele><time>2026-03-29T09:45:09.002Z</time></trkpt><trkpt lat="37.31826928429432" lon="13.816835713117554"><ele>337.6666666666667</ele><time>2026-03-29T09:45:10.002Z</time></trkpt><trkpt lat="37.31846597635922" lon="13.81695582715813"><ele>338.0</ele><time>2026-03-29T09:45:11.002Z</time></trkpt><trkpt lat="37.31866236210171" lon="13.817075074606677"><ele>338.0</ele><time>2026-03-29T09:45:12.002Z</time></trkpt><trkpt lat="37.3188585351557" lon="13.817192525553283"><ele>338.0</ele><time>2026-03-29T09:45:13.002Z</time></trkpt><trkpt lat="37.31905400093108" lon="13.817308001147412"><ele>338.0</ele><time>2026-03-29T09:45:14.002Z</time></trkpt><trkpt lat="37.319246471016925" lon="13.817420857995073"><ele>337.6666666666667</ele><time>2026-03-29T09:45:15.002Z</time></trkpt><trkpt lat="37.31943567614573" lon="13.817535191749238"><ele>337.3333333333333</ele><time>2026-03-29T09:45:16.002Z</time></trkpt><trkpt lat="37.319621008799494" lon="13.817651233818228"><ele>337.0</ele><time>2026-03-29T09:45:17.002Z</time></trkpt><trkpt lat="37.31980105831456" lon="13.817771804077802"><ele>340.0</ele><time>2026-03-29T09:45:18.002Z</time></trkpt><trkpt lat="37.31997151176648" lon="13.817908100199713"><ele>343.0</ele><time>2026-03-29T09:45:19.002Z</time></trkpt><trkpt lat="37.32013099782194" lon="13.818058141286501"><ele>346.0</ele><time>2026-03-29T09:45:20.002Z</time></trkpt><trkpt lat="37.32027037942498" lon="13.818223939701916"><ele>346.0</ele><time>2026-03-29T09:45:21Z</time></trkpt><trkpt lat="37.32039826257118" lon="13.818412703368322"><ele>346.0</ele><time>2026-03-29T09:45:22Z</time></trkpt><trkpt lat="37.32051020794932" lon="13.818624574018852"><ele>346.0</ele><time>2026-03-29T09:45:23Z</time></trkpt><trkpt lat="37.32060734601786" lon="13.818855900687142"><ele>345.0</ele><time>2026-03-29T09:45:24Z</time></trkpt><trkpt lat="37.32070039088864" lon="13.81909883905758"><ele>344.0</ele><time>2026-03-29T09:45:25Z</time></trkpt><trkpt lat="37.32078593461331" lon="13.819357579691022"><ele>343.0</ele><time>2026-03-29T09:45:26Z</time></trkpt><trkpt lat="37.32087253334912" lon="13.819617533657269"><ele>347.0</ele><time>2026-03-29T09:45:27Z</time></trkpt><trkpt lat="37.32096226202718" lon="13.81987883569446"><ele>351.0</ele><time>2026-03-29T09:45:28Z</time></trkpt><trkpt lat="37.32105430813867" lon="13.820141531600278"><ele>353.0</ele><time>2026-03-29T09:45:29Z</time></trkpt><trkpt lat="37.32114589890973" lon="13.820404245813036"><ele>355.0</ele><time>2026-03-29T09:45:30Z</time></trkpt><trkpt lat="37.321238284494434" lon="13.820671104683388"><ele>355.0</ele><time>2026-03-29T09:45:31Z</time></trkpt><trkpt lat="37.3213303208639" lon="13.820938110508202"><ele>355.0</ele><time>2026-03-29T09:45:32Z</time></trkpt><trkpt lat="37.32142068332874" lon="13.821203203015008"><ele>351.0</ele><time>2026-03-29T09:45:33Z</time></trkpt><trkpt lat="37.32151291632108" lon="13.821468113690697"><ele>347.0</ele><time>2026-03-29T09:45:34Z</time></trkpt><trkpt lat="37.321605897209295" lon="13.821734543072157"><ele>349.5</ele><time>2026-03-29T09:45:35Z</time></trkpt><trkpt lat="37.321699210037" lon="13.822003215129634"><ele>352.0</ele><time>2026-03-29T09:45:36Z</time></trkpt><trkpt lat="37.32178877613006" lon="13.822274237969273"><ele>352.0</ele><time>2026-03-29T09:45:37Z</time></trkpt><trkpt lat="37.32187193896907" lon="13.822549312982796"><ele>352.0</ele><time>2026-03-29T09:45:38Z</time></trkpt><trkpt lat="37.32194822019521" lon="13.822827764846306"><ele>355.0</ele><time>2026-03-29T09:45:39Z</time></trkpt><trkpt lat="37.32201821098384" lon="13.823107419858738"><ele>358.0</ele><time>2026-03-29T09:45:40Z</time></trkpt><trkpt lat="37.322081618138476" lon="13.823381899714116"><ele>359.0</ele><time>2026-03-29T09:45:41Z</time></trkpt><trkpt lat="37.32212688938384" lon="13.82364980744779"><ele>360.0</ele><time>2026-03-29T09:45:42Z</time></trkpt><trkpt lat="37.32215277670765" lon="13.823906840488766"><ele>361.0</ele><time>2026-03-29T09:45:43Z</time></trkpt><trkpt lat="37.32217201069997" lon="13.824148396162084"><ele>361.3333333333333</ele><time>2026-03-29T09:45:44Z</time></trkpt><trkpt lat="37.32219845721833" lon="13.824376119550216"><ele>361.6666666666667</ele><time>2026-03-29T09:45:45Z</time></trkpt><trkpt lat="37.32224278899464" lon="13.8245825006639"><ele>362.0</ele><time>2026-03-29T09:45:46Z</time></trkpt><trkpt lat="37.32231501682032" lon="13.824768817935635"><ele>360.0</ele><time>2026-03-29T09:45:47Z</time></trkpt><trkpt lat="37.322416452024335" lon="13.824938806483566"><ele>358.0</ele><time>2026-03-29T09:45:48Z</time></trkpt><trkpt lat="37.32253688035344" lon="13.825085574535978"><ele>356.0</ele><time>2026-03-29T09:45:49Z</time></trkpt><trkpt lat="37.32265590172396" lon="13.82523995095289"><ele>356.0</ele><time>2026-03-29T09:45:50Z</time></trkpt><trkpt lat="37.32274689305469" lon="13.825414586885268"><ele>356.0</ele><time>2026-03-29T09:45:51Z</time></trkpt><trkpt lat="37.322811166905325" lon="13.825599694530705"><ele>356.0</ele><time>2026-03-29T09:45:52Z</time></trkpt><trkpt lat="37.32284878048438" lon="13.82579416206667"><ele>355.6666666666667</ele><time>2026-03-29T09:45:53Z</time></trkpt><trkpt lat="37.322853375072" lon="13.8259962183065"><ele>355.3333333333333</ele><time>2026-03-29T09:45:54Z</time></trkpt><trkpt lat="37.32283079011707" lon="13.82620077998003"><ele>355.0</ele><time>2026-03-29T09:45:55Z</time></trkpt><trkpt lat="37.322782610182706" lon="13.826399718559234"><ele>355.0</ele><time>2026-03-29T09:45:56Z</time></trkpt><trkpt lat="37.32270317164754" lon="13.826583713280284"><ele>355.0</ele><time>2026-03-29T09:45:57Z</time></trkpt><trkpt lat="37.32261387986359" lon="13.826759684332178"><ele>355.0</ele><time>2026-03-29T09:45:58Z</time></trkpt><trkpt lat="37.32252996210958" lon="13.826937787401498"><ele>354.66666666666663</ele><time>2026-03-29T09:45:59Z</time></trkpt><trkpt lat="37.32246683464432" lon="13.82713045211445"><ele>354.3333333333333</ele><time>2026-03-29T09:46:00Z</time></trkpt><trkpt lat="37.32242801117655" lon="13.827331708543326"><ele>354.0</ele><time>2026-03-29T09:46:01.001Z</time></trkpt><trkpt lat="37.32241765855984" lon="13.827541768147885"><ele>355.0</ele><time>2026-03-29T09:46:02.001Z</time></trkpt><trkpt lat="37.32243637775794" lon="13.827756075829964"><ele>356.0</ele><time>2026-03-29T09:46:03.001Z</time></trkpt><trkpt lat="37.322477100624525" lon="13.827982480390205"><ele>357.0</ele><time>2026-03-29T09:46:04.001Z</time></trkpt><trkpt lat="37.32253173430489" lon="13.828220289952652"><ele>357.0</ele><time>2026-03-29T09:46:05.001Z</time></trkpt><trkpt lat="37.32258419848874" lon="13.82847052444061"><ele>357.0</ele><time>2026-03-29T09:46:06.001Z</time></trkpt><trkpt lat="37.32263341663802" lon="13.828728135867474"><ele>357.0</ele><time>2026-03-29T09:46:07.001Z</time></trkpt><trkpt lat="37.32267954252494" lon="13.828979740282744"><ele>359.3333333333333</ele><time>2026-03-29T09:46:08.001Z</time></trkpt><trkpt lat="37.3227267796083" lon="13.829215623494711"><ele>361.66666666666663</ele><time>2026-03-29T09:46:09.001Z</time></trkpt><trkpt lat="37.32277355574916" lon="13.829435133081075"><ele>364.0</ele><time>2026-03-29T09:46:10.001Z</time></trkpt><trkpt lat="37.32282811652146" lon="13.829653915014875"><ele>365.66666666666663</ele><time>2026-03-29T09:46:11.001Z</time></trkpt><trkpt lat="37.32290799591174" lon="13.829873420433993"><ele>367.3333333333333</ele><time>2026-03-29T09:46:12.001Z</time></trkpt><trkpt lat="37.32301332818067" lon="13.830094470216851"><ele>369.0</ele><time>2026-03-29T09:46:13.001Z</time></trkpt><trkpt lat="37.32313802891315" lon="13.830312764946457"><ele>363.5</ele><time>2026-03-29T09:46:14.001Z</time></trkpt><trkpt lat="37.323279038981774" lon="13.830529885073574"><ele>358.0</ele><time>2026-03-29T09:46:15.001Z</time></trkpt><trkpt lat="37.323413373000356" lon="13.830765130820525"><ele>363.0</ele><time>2026-03-29T09:46:16.001Z</time></trkpt><trkpt lat="37.32355752366874" lon="13.830997512666631"><ele>368.0</ele><time>2026-03-29T09:46:17.001Z</time></trkpt><trkpt lat="37.323702358938924" lon="13.831230951405471"><ele>368.0</ele><time>2026-03-29T09:46:18.001Z</time></trkpt><trkpt lat="37.32384221158898" lon="13.831454361962786"><ele>368.0</ele><time>2026-03-29T09:46:19.001Z</time></trkpt><trkpt lat="37.323990471124496" lon="13.8316609305182"><ele>368.0</ele><time>2026-03-29T09:46:20.001Z</time></trkpt><trkpt lat="37.324121342504014" lon="13.83187246083211"><ele>367.33333333333337</ele><time>2026-03-29T09:46:21.001Z</time></trkpt><trkpt lat="37.32424477497415" lon="13.832078484698997"><ele>366.6666666666667</ele><time>2026-03-29T09:46:22.001Z</time></trkpt><trkpt lat="37.32436763871673" lon="13.832276751635174"><ele>366.0</ele><time>2026-03-29T09:46:23.001Z</time></trkpt><trkpt lat="37.32448957794779" lon="13.832460605542586"><ele>366.0</ele><time>2026-03-29T09:46:24.001Z</time></trkpt><trkpt lat="37.324625143737045" lon="13.832632207814168"><ele>366.0</ele><time>2026-03-29T09:46:25.001Z</time></trkpt><trkpt lat="37.324785477698484" lon="13.832784038309716"><ele>366.0</ele><time>2026-03-29T09:46:26.001Z</time></trkpt><trkpt lat="37.324969836436225" lon="13.83290391657593"><ele>366.0</ele><time>2026-03-29T09:46:27.001Z</time></trkpt><trkpt lat="37.325175511822415" lon="13.832984208068183"><ele>366.0</ele><time>2026-03-29T09:46:28.001Z</time></trkpt><trkpt lat="37.325398246075956" lon="13.833031471685032"><ele>366.0</ele><time>2026-03-29T09:46:29.001Z</time></trkpt><trkpt lat="37.325638620906545" lon="13.833053267151978"><ele>366.0</ele><time>2026-03-29T09:46:30.001Z</time></trkpt><trkpt lat="37.32588215074217" lon="13.833074581750715"><ele>366.0</ele><time>2026-03-29T09:46:31.001Z</time></trkpt><trkpt lat="37.32611335022682" lon="13.833100880520494"><ele>366.0</ele><time>2026-03-29T09:46:32.001Z</time></trkpt><trkpt lat="37.3263278760844" lon="13.833126162189675"><ele>366.0</ele><time>2026-03-29T09:46:33.001Z</time></trkpt><trkpt lat="37.32653134357741" lon="13.833146310975902"><ele>366.0</ele><time>2026-03-29T09:46:34.001Z</time></trkpt><trkpt lat="37.326724962404114" lon="13.833165668808354"><ele>365.3333333333333</ele><time>2026-03-29T09:46:35.001Z</time></trkpt><trkpt lat="37.32690479285402" lon="13.833203555691412"><ele>364.66666666666663</ele><time>2026-03-29T09:46:36.001Z</time></trkpt><trkpt lat="37.32707004269056" lon="13.833266817361112"><ele>364.0</ele><time>2026-03-29T09:46:37.001Z</time></trkpt><trkpt lat="37.32722113748802" lon="13.83337473410368"><ele>362.0</ele><time>2026-03-29T09:46:38.001Z</time></trkpt><trkpt lat="37.32733894260825" lon="13.83352459029524"><ele>360.0</ele><time>2026-03-29T09:46:39.001Z</time></trkpt><trkpt lat="37.32743175356827" lon="13.833706403794869"><ele>358.0</ele><time>2026-03-29T09:46:40.001Z</time></trkpt><trkpt lat="37.3275077590571" lon="13.833919442567423"><ele>358.0</ele><time>2026-03-29T09:46:41.001Z</time></trkpt><trkpt lat="37.327575093194646" lon="13.834160481031468"><ele>358.0</ele><time>2026-03-29T09:46:42.001Z</time></trkpt><trkpt lat="37.327651570161436" lon="13.83441082142186"><ele>358.0</ele><time>2026-03-29T09:46:43.001Z</time></trkpt><trkpt lat="37.32773955337291" lon="13.834668526998787"><ele>359.0</ele><time>2026-03-29T09:46:44.001Z</time></trkpt><trkpt lat="37.32782815721541" lon="13.834933267854106"><ele>360.0</ele><time>2026-03-29T09:46:45.001Z</time></trkpt><trkpt lat="37.327912347394346" lon="13.835200108901844"><ele>361.5</ele><time>2026-03-29T09:46:46.001Z</time></trkpt><trkpt lat="37.327997553163186" lon="13.835468548858964"><ele>363.0</ele><time>2026-03-29T09:46:47.001Z</time></trkpt><trkpt lat="37.32808524551677" lon="13.835732498594588"><ele>361.0</ele><time>2026-03-29T09:46:48.001Z</time></trkpt><trkpt lat="37.32816939620217" lon="13.835981596709635"><ele>359.0</ele><time>2026-03-29T09:46:49.001Z</time></trkpt><trkpt lat="37.328249585993014" lon="13.836215457116621"><ele>357.0</ele><time>2026-03-29T09:46:50.001Z</time></trkpt><trkpt lat="37.32833292855895" lon="13.836428570200528"><ele>357.0</ele><time>2026-03-29T09:46:51.001Z</time></trkpt><trkpt lat="37.32843222415668" lon="13.836631600323456"><ele>357.0</ele><time>2026-03-29T09:46:52.001Z</time></trkpt><trkpt lat="37.32854486899587" lon="13.83682036853799"><ele>357.0</ele><time>2026-03-29T09:46:53.001Z</time></trkpt><trkpt lat="37.32867344862216" lon="13.836994286006746"><ele>357.6666666666667</ele><time>2026-03-29T09:46:54.001Z</time></trkpt><trkpt lat="37.328817845838394" lon="13.83714450382756"><ele>358.33333333333337</ele><time>2026-03-29T09:46:55.001Z</time></trkpt><trkpt lat="37.32898207539961" lon="13.837286625284607"><ele>359.0</ele><time>2026-03-29T09:46:56.001Z</time></trkpt><trkpt lat="37.32916178482791" lon="13.83742588684077"><ele>359.0</ele><time>2026-03-29T09:46:57.001Z</time></trkpt><trkpt lat="37.32933485114716" lon="13.83758804766398"><ele>359.0</ele><time>2026-03-29T09:46:58.001Z</time></trkpt><trkpt lat="37.32952553966244" lon="13.837718392100133"><ele>359.0</ele><time>2026-03-29T09:46:59.001Z</time></trkpt><trkpt lat="37.329703655879925" lon="13.837865298761644"><ele>359.6666666666667</ele><time>2026-03-29T09:47:00.001Z</time></trkpt><trkpt lat="37.329867448655975" lon="13.838000228428056"><ele>360.3333333333333</ele><time>2026-03-29T09:47:01.001Z</time></trkpt><trkpt lat="37.330025609303306" lon="13.838130644118698"><ele>361.0</ele><time>2026-03-29T09:47:02.001Z</time></trkpt><trkpt lat="37.33017291168979" lon="13.83825155464759"><ele>361.0</ele><time>2026-03-29T09:47:03.001Z</time></trkpt><trkpt lat="37.33031105104742" lon="13.838361818255015"><ele>361.0</ele><time>2026-03-29T09:47:04.002Z</time></trkpt><trkpt lat="37.33044303833485" lon="13.838461681627392"><ele>361.0</ele><time>2026-03-29T09:47:05.002Z</time></trkpt><trkpt lat="37.330574391255446" lon="13.838534568818206"><ele>363.66666666666663</ele><time>2026-03-29T09:47:06.002Z</time></trkpt><trkpt lat="37.33072040599502" lon="13.838581367200392"><ele>366.3333333333333</ele><time>2026-03-29T09:47:07.002Z</time></trkpt><trkpt lat="37.33088617662242" lon="13.838591799502977"><ele>369.0</ele><time>2026-03-29T09:47:08.002Z</time></trkpt><trkpt lat="37.33105904641583" lon="13.838566779792924"><ele>369.0</ele><time>2026-03-29T09:47:09.002Z</time></trkpt><trkpt lat="37.331242710841984" lon="13.838516767631383"><ele>369.0</ele><time>2026-03-29T09:47:10.002Z</time></trkpt><trkpt lat="37.33143464539283" lon="13.838484215571837"><ele>369.0</ele><time>2026-03-29T09:47:11.002Z</time></trkpt><trkpt lat="37.33161539521109" lon="13.83841675095006"><ele>367.0</ele><time>2026-03-29T09:47:12.002Z</time></trkpt><trkpt lat="37.331791116946064" lon="13.838374864702367"><ele>365.0</ele><time>2026-03-29T09:47:13.002Z</time></trkpt><trkpt lat="37.331964584299726" lon="13.838331882347216"><ele>363.0</ele><time>2026-03-29T09:47:14.002Z</time></trkpt><trkpt lat="37.3321354361942" lon="13.838285207930872"><ele>363.6666666666667</ele><time>2026-03-29T09:47:15.002Z</time></trkpt><trkpt lat="37.332307056157454" lon="13.838241618753921"><ele>364.33333333333337</ele><time>2026-03-29T09:47:16.002Z</time></trkpt><trkpt lat="37.332479900579166" lon="13.838200231890811"><ele>365.0</ele><time>2026-03-29T09:47:17.002Z</time></trkpt><trkpt lat="37.33264926535221" lon="13.838164603088094"><ele>365.0</ele><time>2026-03-29T09:47:18.002Z</time></trkpt><trkpt lat="37.33281153890702" lon="13.838146268582756"><ele>365.0</ele><time>2026-03-29T09:47:19.002Z</time></trkpt><trkpt lat="37.33296640944427" lon="13.83815196998246"><ele>365.0</ele><time>2026-03-29T09:47:20.002Z</time></trkpt><trkpt lat="37.33312145255524" lon="13.838186874873715"><ele>365.33333333333337</ele><time>2026-03-29T09:47:21.002Z</time></trkpt><trkpt lat="37.33327079138252" lon="13.838273141739302"><ele>365.6666666666667</ele><time>2026-03-29T09:47:22.002Z</time></trkpt><trkpt lat="37.33341939992899" lon="13.838357134008474"><ele>366.0</ele><time>2026-03-29T09:47:23.002Z</time></trkpt><trkpt lat="37.3335751513521" lon="13.838421696278946"><ele>369.0</ele><time>2026-03-29T09:47:24.002Z</time></trkpt><trkpt lat="37.33372775441297" lon="13.838506208393962"><ele>372.0</ele><time>2026-03-29T09:47:25.002Z</time></trkpt><trkpt lat="37.33387581635025" lon="13.83861121499745"><ele>375.0</ele><time>2026-03-29T09:47:26.002Z</time></trkpt><trkpt lat="37.3340263154164" lon="13.838694417739653"><ele>375.0</ele><time>2026-03-29T09:47:27Z</time></trkpt><trkpt lat="37.33417245441138" lon="13.838775210030839"><ele>375.0</ele><time>2026-03-29T09:47:28Z</time></trkpt><trkpt lat="37.33432153981309" lon="13.838836653028967"><ele>375.0</ele><time>2026-03-29T09:47:29Z</time></trkpt><trkpt lat="37.334459275426376" lon="13.838927830479898"><ele>375.0</ele><time>2026-03-29T09:47:30Z</time></trkpt><trkpt lat="37.334592380067505" lon="13.839032899380777"><ele>375.0</ele><time>2026-03-29T09:47:31Z</time></trkpt><trkpt lat="37.33470635766734" lon="13.839169752214401"><ele>375.0</ele><time>2026-03-29T09:47:32Z</time></trkpt><trkpt lat="37.33482421552696" lon="13.839304521755603"><ele>374.75</ele><time>2026-03-29T09:47:33Z</time></trkpt><trkpt lat="37.3349465240008" lon="13.839422410943158"><ele>374.5</ele><time>2026-03-29T09:47:34Z</time></trkpt><trkpt lat="37.33505323144804" lon="13.839541052929182"><ele>374.25</ele><time>2026-03-29T09:47:35Z</time></trkpt><trkpt lat="37.33517906576991" lon="13.839641964516076"><ele>374.0</ele><time>2026-03-29T09:47:36Z</time></trkpt><trkpt lat="37.33532143181969" lon="13.839713082409423"><ele>374.0</ele><time>2026-03-29T09:47:37Z</time></trkpt><trkpt lat="37.33547199672961" lon="13.839751987085506"><ele>374.0</ele><time>2026-03-29T09:47:38Z</time></trkpt><trkpt lat="37.33562012554946" lon="13.839776070747567"><ele>374.0</ele><time>2026-03-29T09:47:39Z</time></trkpt><trkpt lat="37.33577088083232" lon="13.839793336376875"><ele>373.0</ele><time>2026-03-29T09:47:40Z</time></trkpt><trkpt lat="37.33592107378415" lon="13.839791670048763"><ele>372.0</ele><time>2026-03-29T09:47:41Z</time></trkpt><trkpt lat="37.336063142709506" lon="13.839748101967686"><ele>371.0</ele><time>2026-03-29T09:47:42Z</time></trkpt><trkpt lat="37.33618924336131" lon="13.839672623496517"><ele>370.0</ele><time>2026-03-29T09:47:43Z</time></trkpt><trkpt lat="37.33629857488457" lon="13.839564141761127"><ele>370.75</ele><time>2026-03-29T09:47:44Z</time></trkpt><trkpt lat="37.33640323738998" lon="13.839437155432055"><ele>371.5</ele><time>2026-03-29T09:47:45Z</time></trkpt><trkpt lat="37.336505111827805" lon="13.839318678884204"><ele>372.25</ele><time>2026-03-29T09:47:46Z</time></trkpt><trkpt lat="37.336612644261145" lon="13.839233683653267"><ele>373.0</ele><time>2026-03-29T09:47:47Z</time></trkpt><trkpt lat="37.33674232244168" lon="13.83917836908719"><ele>373.0</ele><time>2026-03-29T09:47:48Z</time></trkpt><trkpt lat="37.33688612191246" lon="13.839161277912842"><ele>373.0</ele><time>2026-03-29T09:47:49Z</time></trkpt><trkpt lat="37.33705168663449" lon="13.83917939264175"><ele>373.0</ele><time>2026-03-29T09:47:50Z</time></trkpt><trkpt lat="37.337229785367015" lon="13.839215528312083"><ele>374.0</ele><time>2026-03-29T09:47:51Z</time></trkpt><trkpt lat="37.33742911050104" lon="13.839240230899032"><ele>375.0</ele><time>2026-03-29T09:47:52Z</time></trkpt><trkpt lat="37.337641451625444" lon="13.839309415596107"><ele>376.0</ele><time>2026-03-29T09:47:53Z</time></trkpt><trkpt lat="37.33786862662348" lon="13.839350032839322"><ele>381.0</ele><time>2026-03-29T09:47:54Z</time></trkpt><trkpt lat="37.33810085466617" lon="13.839378316831324"><ele>386.0</ele><time>2026-03-29T09:47:55Z</time></trkpt><trkpt lat="37.338334893418924" lon="13.839422284284483"><ele>386.0</ele><time>2026-03-29T09:47:56Z</time></trkpt><trkpt lat="37.338571069060194" lon="13.839462276923907"><ele>386.0</ele><time>2026-03-29T09:47:57Z</time></trkpt><trkpt lat="37.33879862837448" lon="13.839501964469193"><ele>387.0</ele><time>2026-03-29T09:47:58Z</time></trkpt><trkpt lat="37.33901073201375" lon="13.839540111257996"><ele>388.0</ele><time>2026-03-29T09:47:59Z</time></trkpt><trkpt lat="37.33922612400991" lon="13.839578538281954"><ele>389.0</ele><time>2026-03-29T09:48:00Z</time></trkpt><trkpt lat="37.33944247073444" lon="13.83962376402751"><ele>389.0</ele><time>2026-03-29T09:48:01Z</time></trkpt><trkpt lat="37.33965667051454" lon="13.839686769309063"><ele>389.0</ele><time>2026-03-29T09:48:02Z</time></trkpt><trkpt lat="37.33986696311923" lon="13.839765960440927"><ele>389.0</ele><time>2026-03-29T09:48:03Z</time></trkpt><trkpt lat="37.34006839138065" lon="13.839885403261263"><ele>388.0</ele><time>2026-03-29T09:48:04Z</time></trkpt><trkpt lat="37.34028680198268" lon="13.840002873179133"><ele>387.0</ele><time>2026-03-29T09:48:05Z</time></trkpt><trkpt lat="37.34051387176849" lon="13.840126441500484"><ele>386.5</ele><time>2026-03-29T09:48:06Z</time></trkpt><trkpt lat="37.34074630219263" lon="13.840248885379793"><ele>386.0</ele><time>2026-03-29T09:48:07Z</time></trkpt><trkpt lat="37.340985458771804" lon="13.840352272642036"><ele>386.0</ele><time>2026-03-29T09:48:08.001Z</time></trkpt><trkpt lat="37.34120646374182" lon="13.84049119779901"><ele>386.0</ele><time>2026-03-29T09:48:09.001Z</time></trkpt><trkpt lat="37.341431992346855" lon="13.840588347869824"><ele>385.0</ele><time>2026-03-29T09:48:10.001Z</time></trkpt><trkpt lat="37.341634181249034" lon="13.840696918972617"><ele>384.0</ele><time>2026-03-29T09:48:11.001Z</time></trkpt><trkpt lat="37.341824578193496" lon="13.840794356593788"><ele>383.0</ele><time>2026-03-29T09:48:12.001Z</time></trkpt><trkpt lat="37.34200454073372" lon="13.840893319063051"><ele>382.0</ele><time>2026-03-29T09:48:13.001Z</time></trkpt><trkpt lat="37.342181816930776" lon="13.840998213176924"><ele>381.0</ele><time>2026-03-29T09:48:14.001Z</time></trkpt><trkpt lat="37.34234081273929" lon="13.84110616739481"><ele>380.0</ele><time>2026-03-29T09:48:15.001Z</time></trkpt><trkpt lat="37.34248315751141" lon="13.841242942980651"><ele>380.0</ele><time>2026-03-29T09:48:16.001Z</time></trkpt><trkpt lat="37.342609765536764" lon="13.841412701126327"><ele>380.0</ele><time>2026-03-29T09:48:17.001Z</time></trkpt><trkpt lat="37.34270877341252" lon="13.841606590716388"><ele>380.0</ele><time>2026-03-29T09:48:18.001Z</time></trkpt><trkpt lat="37.34275978710829" lon="13.841830210026101"><ele>381.0</ele><time>2026-03-29T09:48:19.001Z</time></trkpt><trkpt lat="37.342817579918375" lon="13.842057439601048"><ele>382.0</ele><time>2026-03-29T09:48:20.001Z</time></trkpt><trkpt lat="37.34284075789242" lon="13.842304097256953"><ele>383.0</ele><time>2026-03-29T09:48:21.001Z</time></trkpt><trkpt lat="37.34287597130396" lon="13.842521695208609"><ele>384.0</ele><time>2026-03-29T09:48:22.001Z</time></trkpt><trkpt lat="37.342909757045895" lon="13.842720402232368"><ele>385.0</ele><time>2026-03-29T09:48:23.001Z</time></trkpt><trkpt lat="37.342950689385624" lon="13.842910856630752"><ele>386.0</ele><time>2026-03-29T09:48:24.001Z</time></trkpt><trkpt lat="37.34302467859887" lon="13.843092906877427"><ele>387.0</ele><time>2026-03-29T09:48:25.001Z</time></trkpt><trkpt lat="37.34314314661288" lon="13.84324825976165"><ele>388.0</ele><time>2026-03-29T09:48:26.001Z</time></trkpt><trkpt lat="37.34328412645464" lon="13.843393245338095"><ele>389.0</ele><time>2026-03-29T09:48:27.001Z</time></trkpt><trkpt lat="37.343439006896844" lon="13.843524204461659"><ele>389.0</ele><time>2026-03-29T09:48:28.001Z</time></trkpt><trkpt lat="37.34358262820639" lon="13.843635714883328"><ele>389.0</ele><time>2026-03-29T09:48:29.001Z</time></trkpt><trkpt lat="37.34372361646669" lon="13.84370558618745"><ele>389.0</ele><time>2026-03-29T09:48:30.001Z</time></trkpt><trkpt lat="37.34388435002603" lon="13.843715590489257"><ele>389.3333333333333</ele><time>2026-03-29T09:48:31.001Z</time></trkpt><trkpt lat="37.344053670488535" lon="13.843660337078889"><ele>389.66666666666663</ele><time>2026-03-29T09:48:32.001Z</time></trkpt><trkpt lat="37.34423973057785" lon="13.843599380091133"><ele>390.0</ele><time>2026-03-29T09:48:33.001Z</time></trkpt><trkpt lat="37.34443967070788" lon="13.843534122712517"><ele>392.0</ele><time>2026-03-29T09:48:34.001Z</time></trkpt><trkpt lat="37.34462882366753" lon="13.84336742016515"><ele>394.0</ele><time>2026-03-29T09:48:35.001Z</time></trkpt><trkpt lat="37.34483961851661" lon="13.843272970461888"><ele>394.0</ele><time>2026-03-29T09:48:36.001Z</time></trkpt><trkpt lat="37.34504895976926" lon="13.843177927612405"><ele>394.0</ele><time>2026-03-29T09:48:37.001Z</time></trkpt><trkpt lat="37.345252053301394" lon="13.843082145055623"><ele>394.0</ele><time>2026-03-29T09:48:38.001Z</time></trkpt><trkpt lat="37.34544894439368" lon="13.842988348273423"><ele>395.0</ele><time>2026-03-29T09:48:39.001Z</time></trkpt><trkpt lat="37.34564312221232" lon="13.842898806688458"><ele>396.0</ele><time>2026-03-29T09:48:40.001Z</time></trkpt><trkpt lat="37.345826616819515" lon="13.842812679375678"><ele>397.0</ele><time>2026-03-29T09:48:41.001Z</time></trkpt><trkpt lat="37.34599402020009" lon="13.84273347048958"><ele>397.0</ele><time>2026-03-29T09:48:42.001Z</time></trkpt><trkpt lat="37.34615403763543" lon="13.842658326127905"><ele>397.0</ele><time>2026-03-29T09:48:43.001Z</time></trkpt><trkpt lat="37.34631490004546" lon="13.842581237808679"><ele>397.0</ele><time>2026-03-29T09:48:44.001Z</time></trkpt><trkpt lat="37.34647371754554" lon="13.842504701013008"><ele>400.0</ele><time>2026-03-29T09:48:45.001Z</time></trkpt><trkpt lat="37.34662348721814" lon="13.842434529832953"><ele>403.0</ele><time>2026-03-29T09:48:46.001Z</time></trkpt><trkpt lat="37.346765440752684" lon="13.84236738149832"><ele>406.0</ele><time>2026-03-29T09:48:47.001Z</time></trkpt><trkpt lat="37.34689192371521" lon="13.842304714883078"><ele>409.0</ele><time>2026-03-29T09:48:48.001Z</time></trkpt><trkpt lat="37.34700792165816" lon="13.842249543459422"><ele>409.0</ele><time>2026-03-29T09:48:49.001Z</time></trkpt><trkpt lat="37.347118935610496" lon="13.84220990603633"><ele>409.0</ele><time>2026-03-29T09:48:50.001Z</time></trkpt><trkpt lat="37.3472324313768" lon="13.842195222570853"><ele>409.0</ele><time>2026-03-29T09:48:51.001Z</time></trkpt><trkpt lat="37.347348408385095" lon="13.842214677756598"><ele>409.0</ele><time>2026-03-29T09:48:52.001Z</time></trkpt><trkpt lat="37.34746061903373" lon="13.842268300665312"><ele>409.0</ele><time>2026-03-29T09:48:53.001Z</time></trkpt><trkpt lat="37.34756466688774" lon="13.842350903242545"><ele>409.0</ele><time>2026-03-29T09:48:54.001Z</time></trkpt><trkpt lat="37.34766470881238" lon="13.842451923203537"><ele>409.0</ele><time>2026-03-29T09:48:55.001Z</time></trkpt><trkpt lat="37.34776407801553" lon="13.842559653349639"><ele>409.0</ele><time>2026-03-29T09:48:56.001Z</time></trkpt><trkpt lat="37.347861062849965" lon="13.84266525202738"><ele>409.6</ele><time>2026-03-29T09:48:57.001Z</time></trkpt><trkpt lat="37.34794908072099" lon="13.842759137938863"><ele>410.2</ele><time>2026-03-29T09:48:58.001Z</time></trkpt><trkpt lat="37.348030650901954" lon="13.842843352228192"><ele>410.8</ele><time>2026-03-29T09:48:59.001Z</time></trkpt><trkpt lat="37.348104270407134" lon="13.842921347888094"><ele>411.40000000000003</ele><time>2026-03-29T09:49:00.001Z</time></trkpt><trkpt lat="37.34817187326621" lon="13.84298607541233"><ele>412.0</ele><time>2026-03-29T09:49:01.001Z</time></trkpt><trkpt lat="37.348235925146206" lon="13.843037100505358"><ele>412.00000000000006</ele><time>2026-03-29T09:49:02.001Z</time></trkpt><trkpt lat="37.34829970831771" lon="13.843079306785743"><ele>412.0</ele><time>2026-03-29T09:49:03.001Z</time></trkpt><trkpt lat="37.348362001689004" lon="13.84311139791922"><ele>412.0</ele><time>2026-03-29T09:49:04.001Z</time></trkpt><trkpt lat="37.34843563970063" lon="13.843139885688286"><ele>412.0</ele><time>2026-03-29T09:49:05.001Z</time></trkpt><trkpt lat="37.34851778340328" lon="13.843162567021977"><ele>412.00000000000006</ele><time>2026-03-29T09:49:06.001Z</time></trkpt><trkpt lat="37.34860347892473" lon="13.843177067916722"><ele>412.0</ele><time>2026-03-29T09:49:07.001Z</time></trkpt><trkpt lat="37.34869384492865" lon="13.843184420641208"><ele>412.00000000000006</ele><time>2026-03-29T09:49:08.001Z</time></trkpt><trkpt lat="37.348778804680556" lon="13.843186581931244"><ele>412.0</ele><time>2026-03-29T09:49:09.001Z</time></trkpt><trkpt lat="37.34885209489426" lon="13.843184445413339"><ele>412.0</ele><time>2026-03-29T09:49:10.001Z</time></trkpt><trkpt lat="37.348920993298236" lon="13.843185366505184"><ele>412.0</ele><time>2026-03-29T09:49:11.001Z</time></trkpt><trkpt lat="37.348993838459144" lon="13.843188740092796"><ele>412.00000000000006</ele><time>2026-03-29T09:49:12.002Z</time></trkpt><trkpt lat="37.34906465433272" lon="13.84318931684344"><ele>412.0</ele><time>2026-03-29T09:49:13.002Z</time></trkpt><trkpt lat="37.34917910933309" lon="13.84318958822759"><ele>413.5</ele><time>2026-03-29T09:49:15.002Z</time></trkpt><trkpt lat="37.349313472149916" lon="13.84316043040133"><ele>415.0</ele><time>2026-03-29T09:49:17.002Z</time></trkpt><trkpt lat="37.349426727771025" lon="13.843121906093463"><ele>416.5</ele><time>2026-03-29T09:49:18.002Z</time></trkpt><trkpt lat="37.34953490124822" lon="13.843070771597061"><ele>418.0</ele><time>2026-03-29T09:49:19.002Z</time></trkpt><trkpt lat="37.34961623807176" lon="13.843018926372562"><ele>418.00000000000006</ele><time>2026-03-29T09:49:20.002Z</time></trkpt><trkpt lat="37.34968372329994" lon="13.842975808663123"><ele>418.0</ele><time>2026-03-29T09:49:21.002Z</time></trkpt><trkpt lat="37.34975994894709" lon="13.842942256037825"><ele>418.0</ele><time>2026-03-29T09:49:23.002Z</time></trkpt><trkpt lat="37.34983732369026" lon="13.84288517175526"><ele>418.0</ele><time>2026-03-29T09:50:16Z</time></trkpt><trkpt lat="37.349917454756095" lon="13.842973252220524"><ele>418.00000000000006</ele><time>2026-03-29T09:50:18Z</time></trkpt><trkpt lat="37.349966798972176" lon="13.843054791945558"><ele>418.0</ele><time>2026-03-29T09:50:19Z</time></trkpt><trkpt lat="37.35000873063864" lon="13.843150911375723"><ele>417.79999999999995</ele><time>2026-03-29T09:50:20Z</time></trkpt><trkpt lat="37.35005774786592" lon="13.843262379068474"><ele>417.6</ele><time>2026-03-29T09:50:21Z</time></trkpt><trkpt lat="37.350095574910405" lon="13.843389085668324"><ele>417.4</ele><time>2026-03-29T09:50:22Z</time></trkpt><trkpt lat="37.350115072271755" lon="13.843524207251685"><ele>417.20000000000005</ele><time>2026-03-29T09:50:23Z</time></trkpt><trkpt lat="37.35010647379649" lon="13.84366392679712"><ele>417.0</ele><time>2026-03-29T09:50:24Z</time></trkpt><trkpt lat="37.35009897055695" lon="13.843807069844166"><ele>417.0</ele><time>2026-03-29T09:50:25Z</time></trkpt><trkpt lat="37.35009929329405" lon="13.843949584168868"><ele>417.0</ele><time>2026-03-29T09:50:26Z</time></trkpt><trkpt lat="37.35016619052042" lon="13.844098146379386"><ele>417.0</ele><time>2026-03-29T09:50:27.001Z</time></trkpt><trkpt lat="37.35023008443486" lon="13.844256008210827"><ele>417.0</ele><time>2026-03-29T09:50:28.001Z</time></trkpt><trkpt lat="37.35030480147306" lon="13.844425666403488"><ele>415.0</ele><time>2026-03-29T09:50:29.001Z</time></trkpt><trkpt lat="37.35038123098206" lon="13.844600207828393"><ele>413.0</ele><time>2026-03-29T09:50:30.001Z</time></trkpt><trkpt lat="37.350453403331784" lon="13.844771046303629"><ele>411.0</ele><time>2026-03-29T09:50:31.001Z</time></trkpt><trkpt lat="37.35052161314586" lon="13.844935869179139"><ele>412.5</ele><time>2026-03-29T09:50:32.001Z</time></trkpt><trkpt lat="37.35058853347515" lon="13.845094178124969"><ele>414.0</ele><time>2026-03-29T09:50:33.001Z</time></trkpt><trkpt lat="37.350654057818495" lon="13.845247959733708"><ele>415.5</ele><time>2026-03-29T09:50:34.001Z</time></trkpt><trkpt lat="37.35072582597765" lon="13.845382452060127"><ele>417.0</ele><time>2026-03-29T09:50:35.001Z</time></trkpt><trkpt lat="37.3508157032704" lon="13.845493792749874"><ele>417.0</ele><time>2026-03-29T09:50:36.001Z</time></trkpt><trkpt lat="37.35093590130125" lon="13.845596342023407"><ele>417.0</ele><time>2026-03-29T09:50:37.001Z</time></trkpt><trkpt lat="37.35125174305044" lon="13.845767009554761"><ele>418.66666666666663</ele><time>2026-03-29T09:50:39.001Z</time></trkpt><trkpt lat="37.351426045471804" lon="13.845863536183737"><ele>420.3333333333333</ele><time>2026-03-29T09:50:40.001Z</time></trkpt><trkpt lat="37.35160070648153" lon="13.845966243174653"><ele>422.0</ele><time>2026-03-29T09:50:41.001Z</time></trkpt><trkpt lat="37.35177569696238" lon="13.846070008834236"><ele>422.0</ele><time>2026-03-29T09:50:42.001Z</time></trkpt><trkpt lat="37.35195057840422" lon="13.846185071555137"><ele>422.0</ele><time>2026-03-29T09:50:43.001Z</time></trkpt><trkpt lat="37.35212281299858" lon="13.84631772341023"><ele>422.0</ele><time>2026-03-29T09:50:44.001Z</time></trkpt><trkpt lat="37.3522835501241" lon="13.84645147340711"><ele>423.3333333333333</ele><time>2026-03-29T09:50:45.001Z</time></trkpt><trkpt lat="37.352441597630246" lon="13.846589791617264"><ele>424.66666666666663</ele><time>2026-03-29T09:50:46.001Z</time></trkpt><trkpt lat="37.35259259343091" lon="13.846730107047826"><ele>426.0</ele><time>2026-03-29T09:50:47.001Z</time></trkpt><trkpt lat="37.35272946011775" lon="13.846869009968295"><ele>426.33333333333337</ele><time>2026-03-29T09:50:48.001Z</time></trkpt><trkpt lat="37.352851722914295" lon="13.847012962572336"><ele>426.6666666666667</ele><time>2026-03-29T09:50:49.001Z</time></trkpt><trkpt lat="37.3529567935767" lon="13.847170185412924"><ele>427.0</ele><time>2026-03-29T09:50:50.001Z</time></trkpt><trkpt lat="37.3530450996979" lon="13.847322881419165"><ele>427.0</ele><time>2026-03-29T09:50:51.001Z</time></trkpt><trkpt lat="37.3531187908907" lon="13.847475785398986"><ele>427.0</ele><time>2026-03-29T09:50:52.001Z</time></trkpt><trkpt lat="37.353184822360646" lon="13.847641079539615"><ele>427.0</ele><time>2026-03-29T09:50:53.001Z</time></trkpt><trkpt lat="37.3532488919134" lon="13.847807952600748"><ele>427.0</ele><time>2026-03-29T09:50:54.001Z</time></trkpt><trkpt lat="37.353315592422376" lon="13.847969890108395"><ele>428.0</ele><time>2026-03-29T09:50:55.001Z</time></trkpt><trkpt lat="37.35338179190809" lon="13.848126781175885"><ele>429.0</ele><time>2026-03-29T09:50:56.001Z</time></trkpt><trkpt lat="37.35344697367694" lon="13.848282540335227"><ele>430.0</ele><time>2026-03-29T09:50:57.001Z</time></trkpt><trkpt lat="37.35351568503363" lon="13.848441584504275"><ele>431.0</ele><time>2026-03-29T09:50:58.001Z</time></trkpt><trkpt lat="37.35359244277002" lon="13.848617727828723"><ele>431.0</ele><time>2026-03-29T09:50:59.001Z</time></trkpt><trkpt lat="37.353658733023806" lon="13.848792545940157"><ele>431.0</ele><time>2026-03-29T09:51:00.001Z</time></trkpt><trkpt lat="37.35370640659401" lon="13.848969456805937"><ele>431.0</ele><time>2026-03-29T09:51:01.001Z</time></trkpt><trkpt lat="37.35372956129882" lon="13.849155947603064"><ele>431.66666666666663</ele><time>2026-03-29T09:51:02.001Z</time></trkpt><trkpt lat="37.35372946088582" lon="13.849343041144383"><ele>432.33333333333337</ele><time>2026-03-29T09:51:03.001Z</time></trkpt><trkpt lat="37.35370075108237" lon="13.849527986616962"><ele>433.0</ele><time>2026-03-29T09:51:04.001Z</time></trkpt><trkpt lat="37.35364685311382" lon="13.849707120310471"><ele>433.0</ele><time>2026-03-29T09:51:05.001Z</time></trkpt><trkpt lat="37.35356528405806" lon="13.849879163768676"><ele>433.0</ele><time>2026-03-29T09:51:06.001Z</time></trkpt><trkpt lat="37.35346003410213" lon="13.850055874138816"><ele>433.0</ele><time>2026-03-29T09:51:07.001Z</time></trkpt><trkpt lat="37.353371925845565" lon="13.850232443698854"><ele>434.33333333333337</ele><time>2026-03-29T09:51:08.001Z</time></trkpt><trkpt lat="37.353319792825594" lon="13.850402812837503"><ele>435.66666666666663</ele><time>2026-03-29T09:51:09.001Z</time></trkpt><trkpt lat="37.353293357264505" lon="13.850598529360989"><ele>437.0</ele><time>2026-03-29T09:51:10.001Z</time></trkpt><trkpt lat="37.3532821181527" lon="13.850805321732777"><ele>437.5</ele><time>2026-03-29T09:51:11.001Z</time></trkpt><trkpt lat="37.353279818922495" lon="13.850994313944831"><ele>438.0</ele><time>2026-03-29T09:51:12.001Z</time></trkpt><trkpt lat="37.35330271669218" lon="13.851152154302204"><ele>438.5</ele><time>2026-03-29T09:51:13.001Z</time></trkpt><trkpt lat="37.353345072214296" lon="13.851279117456869"><ele>439.0</ele><time>2026-03-29T09:51:14.001Z</time></trkpt><trkpt lat="37.35339586923515" lon="13.851373503020811"><ele>439.00000000000006</ele><time>2026-03-29T09:51:15.001Z</time></trkpt><trkpt lat="37.353450359921375" lon="13.851459722844504"><ele>439.0</ele><time>2026-03-29T09:51:16.001Z</time></trkpt><trkpt lat="37.353502802917625" lon="13.851546146007392"><ele>439.0</ele><time>2026-03-29T09:51:17.001Z</time></trkpt><trkpt lat="37.35355269352178" lon="13.851623925630514"><ele>439.0</ele><time>2026-03-29T09:51:18.001Z</time></trkpt><trkpt lat="37.353591155327614" lon="13.851720789059508"><ele>439.00000000000006</ele><time>2026-03-29T09:51:19.001Z</time></trkpt><trkpt lat="37.35363239698523" lon="13.851837128928452"><ele>439.0</ele><time>2026-03-29T09:51:20.001Z</time></trkpt><trkpt lat="37.353682544980686" lon="13.851950934437493"><ele>439.79999999999995</ele><time>2026-03-29T09:51:21.001Z</time></trkpt><trkpt lat="37.35373679466533" lon="13.852068708791846"><ele>440.59999999999997</ele><time>2026-03-29T09:51:22.001Z</time></trkpt><trkpt lat="37.353790262228344" lon="13.852181016781689"><ele>441.4</ele><time>2026-03-29T09:51:23.002Z</time></trkpt><trkpt lat="37.35384735664851" lon="13.85230219379453"><ele>442.2</ele><time>2026-03-29T09:51:24.002Z</time></trkpt><trkpt lat="37.353904369994936" lon="13.852417817613388"><ele>443.0</ele><time>2026-03-29T09:51:25.002Z</time></trkpt><trkpt lat="37.35395819369765" lon="13.852521251695082"><ele>443.66666666666663</ele><time>2026-03-29T09:51:26.002Z</time></trkpt><trkpt lat="37.35400102541348" lon="13.852610371942687"><ele>444.3333333333333</ele><time>2026-03-29T09:51:27.002Z</time></trkpt><trkpt lat="37.354032255592614" lon="13.852681320043141"><ele>445.0</ele><time>2026-03-29T09:51:28.002Z</time></trkpt><trkpt lat="37.35406740480502" lon="13.852760109846699"><ele>445.66666666666663</ele><time>2026-03-29T09:51:30.002Z</time></trkpt><trkpt lat="37.35409920875041" lon="13.852830554564626"><ele>446.3333333333333</ele><time>2026-03-29T09:51:35.002Z</time></trkpt><trkpt lat="37.354128070044574" lon="13.852905016773892"><ele>447.0</ele><time>2026-03-29T09:51:37.002Z</time></trkpt><trkpt lat="37.354246842168195" lon="13.852876685596192"><ele>447.0</ele><time>2026-03-29T09:51:38.002Z</time></trkpt><trkpt lat="37.35432602895872" lon="13.852835741122279"><ele>447.0</ele><time>2026-03-29T09:51:38.999Z</time></trkpt><trkpt lat="37.35441335235169" lon="13.852772422934368"><ele>447.0</ele><time>2026-03-29T09:51:39.999Z</time></trkpt><trkpt lat="37.354490558558524" lon="13.852706710432063"><ele>447.0</ele><time>2026-03-29T09:51:40.999Z</time></trkpt><trkpt lat="37.354556726969875" lon="13.852657073394955"><ele>447.0</ele><time>2026-03-29T09:51:41.999Z</time></trkpt><trkpt lat="37.35461123257164" lon="13.852616698399055"><ele>447.0</ele><time>2026-03-29T09:51:42.999Z</time></trkpt><trkpt lat="37.35468668589566" lon="13.852564109812084"><ele>447.5</ele><time>2026-03-29T09:51:45.999Z</time></trkpt><trkpt lat="37.35474677369809" lon="13.85252246025163"><ele>448.0</ele><time>2026-03-29T09:51:47.999Z</time></trkpt><trkpt lat="37.35483629612875" lon="13.85246230407182"><ele>448.5</ele><time>2026-03-29T09:51:50.999Z</time></trkpt><trkpt lat="37.3549358130574" lon="13.852382502660113"><ele>449.0</ele><time>2026-03-29T09:51:52.999Z</time></trkpt><trkpt lat="37.355002662303335" lon="13.852357355431975"><ele>449.5</ele><time>2026-03-29T09:51:53.999Z</time></trkpt><trkpt lat="37.355059055822174" lon="13.852316899850447"><ele>450.0</ele><time>2026-03-29T09:51:54.999Z</time></trkpt><trkpt lat="37.35515847234015" lon="13.852244930297212"><ele>450.0</ele><time>2026-03-29T09:51:57Z</time></trkpt><trkpt lat="37.35526410705284" lon="13.852167167388087"><ele>450.0</ele><time>2026-03-29T09:51:59Z</time></trkpt><trkpt lat="37.35537457732987" lon="13.852087280912238"><ele>450.0</ele><time>2026-03-29T09:52:01Z</time></trkpt><trkpt lat="37.35543049462068" lon="13.852048832957745"><ele>450.0</ele><time>2026-03-29T09:52:02Z</time></trkpt><trkpt lat="37.3554869512127" lon="13.852013013297437"><ele>450.0</ele><time>2026-03-29T09:52:03Z</time></trkpt><trkpt lat="37.35559782954297" lon="13.85195183819669"><ele>450.4</ele><time>2026-03-29T09:52:05Z</time></trkpt><trkpt lat="37.35568184931451" lon="13.851909521627718"><ele>450.8</ele><time>2026-03-29T09:52:06Z</time></trkpt><trkpt lat="37.35578712045157" lon="13.851857911166059"><ele>451.20000000000005</ele><time>2026-03-29T09:52:07Z</time></trkpt><trkpt lat="37.3559036436526" lon="13.851802496696134"><ele>451.6</ele><time>2026-03-29T09:52:08Z</time></trkpt><trkpt lat="37.35601464681784" lon="13.851749733463427"><ele>452.0</ele><time>2026-03-29T09:52:09Z</time></trkpt><trkpt lat="37.356112610745264" lon="13.851704620302794"><ele>451.99999999999994</ele><time>2026-03-29T09:52:10Z</time></trkpt><trkpt lat="37.35620306881739" lon="13.85166235155407"><ele>452.0</ele><time>2026-03-29T09:52:11Z</time></trkpt><trkpt lat="37.356284158723625" lon="13.85162446025123"><ele>452.0</ele><time>2026-03-29T09:52:12Z</time></trkpt><trkpt lat="37.3563535556632" lon="13.851591820475589"><ele>452.0</ele><time>2026-03-29T09:52:13Z</time></trkpt><trkpt lat="37.356411120686246" lon="13.85154515073828"><ele>451.99999999999994</ele><time>2026-03-29T09:52:14Z</time></trkpt><trkpt lat="37.35652235323232" lon="13.851496019621315"><ele>452.0</ele><time>2026-03-29T09:52:16Z</time></trkpt><trkpt lat="37.35658698019704" lon="13.851483189114553"><ele>451.8</ele><time>2026-03-29T09:52:17Z</time></trkpt><trkpt lat="37.356688106816094" lon="13.851436594501472"><ele>451.6</ele><time>2026-03-29T09:52:19Z</time></trkpt><trkpt lat="37.35679301473129" lon="13.8513888107874"><ele>451.40000000000003</ele><time>2026-03-29T09:52:21Z</time></trkpt><trkpt lat="37.356894645200555" lon="13.851342733561236"><ele>451.20000000000005</ele><time>2026-03-29T09:52:23Z</time></trkpt><trkpt lat="37.356990416712364" lon="13.851299312584594"><ele>451.0</ele><time>2026-03-29T09:52:25Z</time></trkpt><trkpt lat="37.35708448143199" lon="13.851255901830928"><ele>451.0</ele><time>2026-03-29T09:52:27Z</time></trkpt><trkpt lat="37.35717795249" lon="13.85121315755953"><ele>451.0</ele><time>2026-03-29T09:52:29Z</time></trkpt><trkpt lat="37.35726840853632" lon="13.851169951188146"><ele>451.0</ele><time>2026-03-29T09:52:31Z</time></trkpt><trkpt lat="37.357358192188904" lon="13.851127721135104"><ele>451.0</ele><time>2026-03-29T09:52:33.001Z</time></trkpt><trkpt lat="37.35744893070363" lon="13.851085041958337"><ele>451.0</ele><time>2026-03-29T09:52:35.001Z</time></trkpt><trkpt lat="37.357556867338744" lon="13.851034273537389"><ele>451.00000000000006</ele><time>2026-03-29T09:52:37.001Z</time></trkpt><trkpt lat="37.35766081370102" lon="13.85098566007941"><ele>451.0</ele><time>2026-03-29T09:52:39.001Z</time></trkpt><trkpt lat="37.357755203122935" lon="13.850941417209068"><ele>451.0</ele><time>2026-03-29T09:52:41.001Z</time></trkpt><trkpt lat="37.35783135710374" lon="13.850905721780038"><ele>451.0</ele><time>2026-03-29T09:52:43.001Z</time></trkpt><trkpt lat="37.357899082238845" lon="13.850873565765394"><ele>451.00000000000006</ele><time>2026-03-29T09:52:45.001Z</time></trkpt><trkpt lat="37.35795924039664" lon="13.85083928490065"><ele>451.0</ele><time>2026-03-29T09:52:46.001Z</time></trkpt><trkpt lat="37.35802405337034" lon="13.85079065313256"><ele>450.33333333333337</ele><time>2026-03-29T09:52:47.001Z</time></trkpt><trkpt lat="37.358105998937255" lon="13.850708560811624"><ele>449.6666666666667</ele><time>2026-03-29T09:52:49.001Z</time></trkpt><trkpt lat="37.358134977282134" lon="13.850624387670553"><ele>449.0</ele><time>2026-03-29T09:52:51.001Z</time></trkpt><trkpt lat="37.358115438518126" lon="13.850531625896997"><ele>448.33333333333337</ele><time>2026-03-29T09:52:52.001Z</time></trkpt><trkpt lat="37.35810424222824" lon="13.850431627010106"><ele>447.6666666666667</ele><time>2026-03-29T09:52:53.001Z</time></trkpt><trkpt lat="37.3581122062485" lon="13.850340917854407"><ele>447.0</ele><time>2026-03-29T09:52:54.001Z</time></trkpt><trkpt lat="37.358115840654385" lon="13.85020265335153"><ele>447.0</ele><time>2026-03-29T09:52:56.001Z</time></trkpt><trkpt lat="37.358130267384304" lon="13.850070534343889"><ele>447.0</ele><time>2026-03-29T09:52:58.001Z</time></trkpt><trkpt lat="37.35812481738512" lon="13.849988889832034"><ele>447.0</ele><time>2026-03-29T09:52:59.001Z</time></trkpt><trkpt lat="37.358115392258064" lon="13.849910419600782"><ele>447.0</ele><time>2026-03-29T09:53:00.001Z</time></trkpt><trkpt lat="37.35815735638771" lon="13.84985094384715"><ele>447.0</ele><time>2026-03-29T09:53:01.001Z</time></trkpt><trkpt lat="37.35815727895215" lon="13.849768523009939"><ele>447.0</ele><time>2026-03-29T09:53:07.001Z</time></trkpt><trkpt lat="37.35796952845132" lon="13.84968821211264"><ele>446.40000000000003</ele><time>2026-03-29T09:53:08.001Z</time></trkpt><trkpt lat="37.35786215779253" lon="13.849588345536832"><ele>445.80000000000007</ele><time>2026-03-29T09:53:10.001Z</time></trkpt><trkpt lat="37.357806009121674" lon="13.849538848647784"><ele>445.2</ele><time>2026-03-29T09:53:11.001Z</time></trkpt><trkpt lat="37.35770611674377" lon="13.84946365363825"><ele>444.6</ele><time>2026-03-29T09:53:13.001Z</time></trkpt><trkpt lat="37.357628092058334" lon="13.849407050032456"><ele>444.0</ele><time>2026-03-29T09:53:15.001Z</time></trkpt><trkpt lat="37.35754291564559" lon="13.849339406706749"><ele>444.0</ele><time>2026-03-29T09:53:17.001Z</time></trkpt><trkpt lat="37.35747071693952" lon="13.849281371673289"><ele>444.0</ele><time>2026-03-29T09:53:19.001Z</time></trkpt><trkpt lat="37.35740585784321" lon="13.849232890325869"><ele>444.0</ele><time>2026-03-29T09:53:21.001Z</time></trkpt><trkpt lat="37.35734172477091" lon="13.849190601271722"><ele>444.0</ele><time>2026-03-29T09:53:23.002Z</time></trkpt><trkpt lat="37.35728041424053" lon="13.849155842670609"><ele>444.0</ele><time>2026-03-29T09:53:24.002Z</time></trkpt><trkpt lat="37.357208230436115" lon="13.84910788388357"><ele>444.0</ele><time>2026-03-29T09:53:25.002Z</time></trkpt><trkpt lat="37.35714935159984" lon="13.849062415500882"><ele>444.0</ele><time>2026-03-29T09:53:26.002Z</time></trkpt><trkpt lat="37.35709104488652" lon="13.849016523947437"><ele>444.0</ele><time>2026-03-29T09:53:28.002Z</time></trkpt><trkpt lat="37.35702176808525" lon="13.848976600890657"><ele>444.0</ele><time>2026-03-29T09:53:34.002Z</time></trkpt><trkpt lat="37.35693874507599" lon="13.84891735010726"><ele>444.0</ele><time>2026-03-29T09:53:36.002Z</time></trkpt><trkpt lat="37.35688278212427" lon="13.848880315875734"><ele>444.0</ele><time>2026-03-29T09:53:37.002Z</time></trkpt><trkpt lat="37.35680099171577" lon="13.848818550555295"><ele>444.0</ele><time>2026-03-29T09:53:39.002Z</time></trkpt><trkpt lat="37.356714119214715" lon="13.848751923711054"><ele>444.0</ele><time>2026-03-29T09:53:41.002Z</time></trkpt><trkpt lat="37.35661948689643" lon="13.848676993390276"><ele>444.0</ele><time>2026-03-29T09:53:43.002Z</time></trkpt><trkpt lat="37.356546520106846" lon="13.848616116761253"><ele>444.0</ele><time>2026-03-29T09:53:44.999Z</time></trkpt><trkpt lat="37.35646945073857" lon="13.848550951799508"><ele>444.0</ele><time>2026-03-29T09:53:47.999Z</time></trkpt><trkpt lat="37.356405927029215" lon="13.848490279421956"><ele>444.0</ele><time>2026-03-29T09:53:50.999Z</time></trkpt><trkpt lat="37.35634846255943" lon="13.848442751673142"><ele>444.0</ele><time>2026-03-29T09:53:52.999Z</time></trkpt><trkpt lat="37.356275363503045" lon="13.848372894955324"><ele>443.6</ele><time>2026-03-29T09:53:56Z</time></trkpt><trkpt lat="37.35621792630582" lon="13.848317730793458"><ele>443.2</ele><time>2026-03-29T09:53:58Z</time></trkpt><trkpt lat="37.35611272549845" lon="13.84823457040784"><ele>442.80000000000007</ele><time>2026-03-29T09:54:00Z</time></trkpt><trkpt lat="37.35604165759689" lon="13.84816595256231"><ele>442.40000000000003</ele><time>2026-03-29T09:54:01Z</time></trkpt><trkpt lat="37.35597730675155" lon="13.848104912586514"><ele>442.0</ele><time>2026-03-29T09:54:02Z</time></trkpt><trkpt lat="37.35586742750888" lon="13.847997826853234"><ele>442.00000000000006</ele><time>2026-03-29T09:54:04Z</time></trkpt><trkpt lat="37.35579879788104" lon="13.847930364890667"><ele>442.0</ele><time>2026-03-29T09:54:05Z</time></trkpt><trkpt lat="37.35572728446903" lon="13.847854029114249"><ele>442.0</ele><time>2026-03-29T09:54:06Z</time></trkpt><trkpt lat="37.35565954965704" lon="13.847777032632967"><ele>442.0</ele><time>2026-03-29T09:54:07Z</time></trkpt><trkpt lat="37.355606628545075" lon="13.847717701571595"><ele>442.00000000000006</ele><time>2026-03-29T09:54:08Z</time></trkpt><trkpt lat="37.355544648042574" lon="13.847646083610929"><ele>442.0</ele><time>2026-03-29T09:54:10Z</time></trkpt><trkpt lat="37.3554791804384" lon="13.847557579415861"><ele>442.1666666666667</ele><time>2026-03-29T09:54:12Z</time></trkpt><trkpt lat="37.35542377214674" lon="13.847476488381266"><ele>442.33333333333337</ele><time>2026-03-29T09:54:13Z</time></trkpt><trkpt lat="37.35536229643308" lon="13.84739990031683"><ele>442.5</ele><time>2026-03-29T09:54:14Z</time></trkpt><trkpt lat="37.35530396251079" lon="13.847327466377688"><ele>442.66666666666663</ele><time>2026-03-29T09:54:15Z</time></trkpt><trkpt lat="37.355247381114246" lon="13.847261640677988"><ele>442.8333333333333</ele><time>2026-03-29T09:54:16Z</time></trkpt><trkpt lat="37.355190956344245" lon="13.847194169541835"><ele>443.0</ele><time>2026-03-29T09:54:17Z</time></trkpt><trkpt lat="37.355142253443766" lon="13.8471320979324"><ele>442.99999999999994</ele><time>2026-03-29T09:54:18Z</time></trkpt><trkpt lat="37.35509752289968" lon="13.847074755787846"><ele>443.0</ele><time>2026-03-29T09:54:19Z</time></trkpt><trkpt lat="37.35501721395021" lon="13.846965253928078"><ele>443.0</ele><time>2026-03-29T09:54:21Z</time></trkpt><trkpt lat="37.35497110433733" lon="13.846901812264178"><ele>443.0</ele><time>2026-03-29T09:54:22Z</time></trkpt><trkpt lat="37.35492069692224" lon="13.846830116690322"><ele>442.99999999999994</ele><time>2026-03-29T09:54:23Z</time></trkpt><trkpt lat="37.35486554242288" lon="13.846755559962471"><ele>443.0</ele><time>2026-03-29T09:54:24Z</time></trkpt><trkpt lat="37.35481590400785" lon="13.846693520899816"><ele>443.2</ele><time>2026-03-29T09:54:25Z</time></trkpt><trkpt lat="37.354735218974135" lon="13.84660033523443"><ele>443.4</ele><time>2026-03-29T09:54:27Z</time></trkpt><trkpt lat="37.354667354330026" lon="13.846534852163051"><ele>443.59999999999997</ele><time>2026-03-29T09:54:29.001Z</time></trkpt><trkpt lat="37.35459618709919" lon="13.846461620631567"><ele>443.79999999999995</ele><time>2026-03-29T09:54:32.001Z</time></trkpt><trkpt lat="37.35451566675079" lon="13.846391086294426"><ele>444.0</ele><time>2026-03-29T09:54:34.001Z</time></trkpt><trkpt lat="37.3544372658499" lon="13.846282977237088"><ele>443.0</ele><time>2026-03-29T09:54:36.001Z</time></trkpt><trkpt lat="37.35437303560612" lon="13.84614524916028"><ele>442.0</ele><time>2026-03-29T09:54:38.001Z</time></trkpt><trkpt lat="37.35428850374441" lon="13.846038898475717"><ele>441.0</ele><time>2026-03-29T09:54:40.001Z</time></trkpt><trkpt lat="37.35423942004048" lon="13.845977145568368"><ele>440.0</ele><time>2026-03-29T09:54:43.001Z</time></trkpt><trkpt lat="37.35419350566803" lon="13.845919371265857"><ele>439.0</ele><time>2026-03-29T09:54:47.001Z</time></trkpt><trkpt lat="37.35414364037584" lon="13.845856627620277"><ele>439.0</ele><time>2026-03-29T09:54:52.001Z</time></trkpt><trkpt lat="37.354073197338096" lon="13.845767991649852"><ele>439.0</ele><time>2026-03-29T09:54:55.001Z</time></trkpt><trkpt lat="37.35398566561129" lon="13.845661498760029"><ele>439.0</ele><time>2026-03-29T09:54:57.001Z</time></trkpt><trkpt lat="37.35392786662732" lon="13.845591101808976"><ele>439.0</ele><time>2026-03-29T09:54:58.001Z</time></trkpt><trkpt lat="37.353866451459616" lon="13.84551630039534"><ele>439.0</ele><time>2026-03-29T09:54:59.001Z</time></trkpt><trkpt lat="37.35381223877073" lon="13.845453796772686"><ele>438.0</ele><time>2026-03-29T09:55:00.001Z</time></trkpt><trkpt lat="37.35376308589827" lon="13.845394377741336"><ele>437.0</ele><time>2026-03-29T09:55:01.001Z</time></trkpt><trkpt lat="37.353713282054805" lon="13.845335041132897"><ele>436.0</ele><time>2026-03-29T09:55:02.001Z</time></trkpt><trkpt lat="37.353618520385545" lon="13.845338001685327"><ele>435.0</ele><time>2026-03-29T09:55:03.001Z</time></trkpt><trkpt lat="37.35351471456521" lon="13.845292444815245"><ele>434.0</ele><time>2026-03-29T09:55:05.001Z</time></trkpt><trkpt lat="37.353550039851775" lon="13.84513557157471"><ele>434.0</ele><time>2026-03-29T09:55:07.001Z</time></trkpt><trkpt lat="37.35345725054298" lon="13.84525178935061"><ele>434.0</ele><time>2026-03-29T09:55:08.001Z</time></trkpt><trkpt lat="37.35354704016371" lon="13.84513188889028"><ele>434.0</ele><time>2026-03-29T09:55:39.002Z</time></trkpt><trkpt lat="37.353479604704155" lon="13.84522192820918"><ele>434.0</ele><time>2026-03-29T09:55:53Z</time></trkpt><trkpt lat="37.3534079790974" lon="13.845164381449356"><ele>434.0</ele><time>2026-03-29T09:56:23Z</time></trkpt><trkpt lat="37.353375904467676" lon="13.845087039305769"><ele>434.4</ele><time>2026-03-29T09:56:26Z</time></trkpt><trkpt lat="37.35332544945605" lon="13.844968544763741"><ele>434.79999999999995</ele><time>2026-03-29T09:56:30Z</time></trkpt><trkpt lat="37.353408128224004" lon="13.844894345753547"><ele>435.20000000000005</ele><time>2026-03-29T09:56:31Z</time></trkpt><trkpt lat="37.35334714018059" lon="13.844817911904292"><ele>435.6</ele><time>2026-03-29T09:56:32Z</time></trkpt><trkpt lat="37.353276091612294" lon="13.844748411797593"><ele>436.0</ele><time>2026-03-29T09:56:33Z</time></trkpt><trkpt lat="37.353204181459866" lon="13.844686533822356"><ele>436.00000000000006</ele><time>2026-03-29T09:56:34Z</time></trkpt><trkpt lat="37.35314780328524" lon="13.84464796218336"><ele>436.0</ele><time>2026-03-29T09:56:35Z</time></trkpt><trkpt lat="37.35302876095082" lon="13.844610757554532"><ele>436.0</ele><time>2026-03-29T09:56:37Z</time></trkpt><trkpt lat="37.352959327992345" lon="13.844584729621737"><ele>436.0</ele><time>2026-03-29T09:56:39Z</time></trkpt><trkpt lat="37.35291255125534" lon="13.84450835406126"><ele>436.00000000000006</ele><time>2026-03-29T09:56:43Z</time></trkpt><trkpt lat="37.35292395335912" lon="13.844601457095132"><ele>436.0</ele><time>2026-03-29T09:57:57.001Z</time></trkpt><trkpt lat="37.35298468341343" lon="13.84465168815217"><ele>435.8571428571429</ele><time>2026-03-29T10:08:41Z</time></trkpt><trkpt lat="37.352996343453555" lon="13.84457214247636"><ele>435.7142857142857</ele><time>2026-03-29T10:08:44Z</time></trkpt><trkpt lat="37.35294669954096" lon="13.84450336739732"><ele>435.57142857142856</ele><time>2026-03-29T10:08:46Z</time></trkpt><trkpt lat="37.352926216327255" lon="13.84442706925091"><ele>435.42857142857144</ele><time>2026-03-29T10:08:49Z</time></trkpt><trkpt lat="37.3529087673333" lon="13.844321316227388"><ele>435.2857142857143</ele><time>2026-03-29T10:08:52Z</time></trkpt><trkpt lat="37.35289944308829" lon="13.844235107032668"><ele>435.14285714285717</ele><time>2026-03-29T10:08:54Z</time></trkpt><trkpt lat="37.35288744665975" lon="13.844149343516227"><ele>435.0</ele><time>2026-03-29T10:08:55Z</time></trkpt><trkpt lat="37.35286330658272" lon="13.844042400900046"><ele>435.0</ele><time>2026-03-29T10:08:56Z</time></trkpt><trkpt lat="37.352818606950734" lon="13.84392667463959"><ele>435.0</ele><time>2026-03-29T10:08:57Z</time></trkpt><trkpt lat="37.35278033958659" lon="13.843815561536704"><ele>435.0</ele><time>2026-03-29T10:08:58Z</time></trkpt><trkpt lat="37.352748183889055" lon="13.843736380231666"><ele>435.0</ele><time>2026-03-29T10:08:59Z</time></trkpt><trkpt lat="37.352721283697285" lon="13.84365366767899"><ele>435.0</ele><time>2026-03-29T10:09:00Z</time></trkpt><trkpt lat="37.352681710023965" lon="13.843558163268225"><ele>435.0</ele><time>2026-03-29T10:09:01Z</time></trkpt><trkpt lat="37.35265635780149" lon="13.843464884542202"><ele>435.5</ele><time>2026-03-29T10:09:02Z</time></trkpt><trkpt lat="37.352621928394875" lon="13.84338054412378"><ele>436.0</ele><time>2026-03-29T10:09:03Z</time></trkpt><trkpt lat="37.35259515615964" lon="13.843304229438196"><ele>436.5</ele><time>2026-03-29T10:09:04Z</time></trkpt><trkpt lat="37.35255945873074" lon="13.843175969611812"><ele>437.0</ele><time>2026-03-29T10:09:06Z</time></trkpt><trkpt lat="37.35253339953302" lon="13.84309188362669"><ele>437.5</ele><time>2026-03-29T10:09:07Z</time></trkpt><trkpt lat="37.35249920171893" lon="13.842979173806258"><ele>438.0</ele><time>2026-03-29T10:09:08Z</time></trkpt><trkpt lat="37.35246832866474" lon="13.842860621514948"><ele>438.0</ele><time>2026-03-29T10:09:09Z</time></trkpt><trkpt lat="37.352430230156976" lon="13.842727896099293"><ele>438.0</ele><time>2026-03-29T10:09:10Z</time></trkpt><trkpt lat="37.35239869794241" lon="13.842613290824398"><ele>438.0</ele><time>2026-03-29T10:09:11Z</time></trkpt><trkpt lat="37.3523759562946" lon="13.842513337548803"><ele>438.0</ele><time>2026-03-29T10:09:12Z</time></trkpt><trkpt lat="37.35235485282661" lon="13.842427068844362"><ele>438.0</ele><time>2026-03-29T10:09:13Z</time></trkpt><trkpt lat="37.35233329524737" lon="13.842345481439056"><ele>438.0</ele><time>2026-03-29T10:09:14Z</time></trkpt><trkpt lat="37.35228836303294" lon="13.842217936515814"><ele>438.79999999999995</ele><time>2026-03-29T10:09:16Z</time></trkpt><trkpt lat="37.35225864033798" lon="13.842120097439214"><ele>439.59999999999997</ele><time>2026-03-29T10:09:18Z</time></trkpt><trkpt lat="37.35222432461183" lon="13.841986885143061"><ele>440.40000000000003</ele><time>2026-03-29T10:09:20Z</time></trkpt><trkpt lat="37.35220824577574" lon="13.84186173817285"><ele>441.20000000000005</ele><time>2026-03-29T10:09:22Z</time></trkpt><trkpt lat="37.35218547055182" lon="13.841743483470834"><ele>442.0</ele><time>2026-03-29T10:09:24Z</time></trkpt><trkpt lat="37.352171955090014" lon="13.841658789122846"><ele>440.1666666666667</ele><time>2026-03-29T10:09:25Z</time></trkpt><trkpt lat="37.352155344209514" lon="13.841559409291609"><ele>438.33333333333337</ele><time>2026-03-29T10:09:26Z</time></trkpt><trkpt lat="37.352135347123145" lon="13.841462611053378"><ele>436.5</ele><time>2026-03-29T10:09:27Z</time></trkpt><trkpt lat="37.35211956079051" lon="13.841373629560396"><ele>434.66666666666663</ele><time>2026-03-29T10:09:28Z</time></trkpt><trkpt lat="37.35210480882221" lon="13.841290585268451"><ele>432.8333333333333</ele><time>2026-03-29T10:09:29Z</time></trkpt><trkpt lat="37.35207498405017" lon="13.84113392186846"><ele>431.0</ele><time>2026-03-29T10:09:31Z</time></trkpt><trkpt lat="37.3520608445101" lon="13.841051806777234"><ele>431.16666666666663</ele><time>2026-03-29T10:09:32Z</time></trkpt><trkpt lat="37.35203551482634" lon="13.84089985919869"><ele>431.3333333333333</ele><time>2026-03-29T10:09:34Z</time></trkpt><trkpt lat="37.35202149441437" lon="13.840813622024475"><ele>431.5</ele><time>2026-03-29T10:09:35Z</time></trkpt><trkpt lat="37.35200086891089" lon="13.840710271663475"><ele>431.66666666666663</ele><time>2026-03-29T10:09:36.001Z</time></trkpt><trkpt lat="37.35197833427483" lon="13.840602321079398"><ele>431.8333333333333</ele><time>2026-03-29T10:09:37.001Z</time></trkpt><trkpt lat="37.35195800162411" lon="13.84050147177289"><ele>432.0</ele><time>2026-03-29T10:09:38.001Z</time></trkpt><trkpt lat="37.35194053341194" lon="13.840415623070058"><ele>432.0</ele><time>2026-03-29T10:09:39.001Z</time></trkpt><trkpt lat="37.351912745541505" lon="13.840269355286795"><ele>432.00000000000006</ele><time>2026-03-29T10:09:41.001Z</time></trkpt><trkpt lat="37.35188516666571" lon="13.840117353629172"><ele>432.00000000000006</ele><time>2026-03-29T10:09:43.001Z</time></trkpt><trkpt lat="37.351859472713485" lon="13.839972993057971"><ele>432.0</ele><time>2026-03-29T10:09:45.001Z</time></trkpt><trkpt lat="37.35184461062588" lon="13.83987331088057"><ele>432.0</ele><time>2026-03-29T10:09:47.001Z</time></trkpt><trkpt lat="37.35182239403479" lon="13.839736075594447"><ele>432.8</ele><time>2026-03-29T10:09:49.001Z</time></trkpt><trkpt lat="37.35180490503536" lon="13.839632571399726"><ele>433.6</ele><time>2026-03-29T10:09:50.001Z</time></trkpt><trkpt lat="37.35178381427921" lon="13.839516652036744"><ele>434.40000000000003</ele><time>2026-03-29T10:09:51.001Z</time></trkpt><trkpt lat="37.35176655986481" lon="13.839341723921995"><ele>435.20000000000005</ele><time>2026-03-29T10:09:53.001Z</time></trkpt><trkpt lat="37.35175745016878" lon="13.839224320668263"><ele>436.0</ele><time>2026-03-29T10:09:55.001Z</time></trkpt><trkpt lat="37.351745902732205" lon="13.839131074287579"><ele>436.6</ele><time>2026-03-29T10:09:56.001Z</time></trkpt><trkpt lat="37.351724359529236" lon="13.839008030483136"><ele>437.20000000000005</ele><time>2026-03-29T10:09:57.001Z</time></trkpt><trkpt lat="37.35170668142504" lon="13.838881595580723"><ele>437.79999999999995</ele><time>2026-03-29T10:09:58.001Z</time></trkpt><trkpt lat="37.3517258186601" lon="13.838773362768729"><ele>438.4</ele><time>2026-03-29T10:09:59.001Z</time></trkpt><trkpt lat="37.35171550873141" lon="13.83868931954594"><ele>439.0</ele><time>2026-03-29T10:10:00.001Z</time></trkpt><trkpt lat="37.351699126346105" lon="13.838556086140782"><ele>439.00000000000006</ele><time>2026-03-29T10:10:02.001Z</time></trkpt><trkpt lat="37.351686828316154" lon="13.838456069667249"><ele>439.0</ele><time>2026-03-29T10:10:03.001Z</time></trkpt><trkpt lat="37.351661418965406" lon="13.838339643113644"><ele>439.0</ele><time>2026-03-29T10:10:04.001Z</time></trkpt><trkpt lat="37.35165416206124" lon="13.838227739090856"><ele>439.0</ele><time>2026-03-29T10:10:05.001Z</time></trkpt><trkpt lat="37.35164671182919" lon="13.838129873590814"><ele>439.00000000000006</ele><time>2026-03-29T10:10:06.001Z</time></trkpt><trkpt lat="37.351642482177034" lon="13.838045827047102"><ele>439.0</ele><time>2026-03-29T10:10:07.001Z</time></trkpt><trkpt lat="37.351636153535" lon="13.837908602556693"><ele>439.00000000000006</ele><time>2026-03-29T10:10:09.001Z</time></trkpt><trkpt lat="37.351646560750716" lon="13.837830038888562"><ele>439.0</ele><time>2026-03-29T10:10:10.001Z</time></trkpt><trkpt lat="37.351645168156175" lon="13.837743691340775"><ele>439.0</ele><time>2026-03-29T10:10:11.001Z</time></trkpt><trkpt lat="37.35164468244674" lon="13.83765898365659"><ele>439.0</ele><time>2026-03-29T10:10:12.001Z</time></trkpt><trkpt lat="37.35164548619957" lon="13.837510044242844"><ele>439.00000000000006</ele><time>2026-03-29T10:10:14.001Z</time></trkpt><trkpt lat="37.35164750707114" lon="13.837369856682399"><ele>439.0</ele><time>2026-03-29T10:10:16.001Z</time></trkpt><trkpt lat="37.3516501744536" lon="13.83722231713761"><ele>439.0</ele><time>2026-03-29T10:10:18.001Z</time></trkpt><trkpt lat="37.35165554733326" lon="13.837076094029277"><ele>439.0</ele><time>2026-03-29T10:10:20.001Z</time></trkpt><trkpt lat="37.351660927429414" lon="13.836945246297013"><ele>439.0</ele><time>2026-03-29T10:10:22.001Z</time></trkpt><trkpt lat="37.351651291168366" lon="13.836817645528695"><ele>439.0</ele><time>2026-03-29T10:10:24.001Z</time></trkpt><trkpt lat="37.351660004273064" lon="13.836710977910846"><ele>439.0</ele><time>2026-03-29T10:10:26.001Z</time></trkpt><trkpt lat="37.351682744962574" lon="13.83662277090163"><ele>439.0</ele><time>2026-03-29T10:10:29.001Z</time></trkpt><trkpt lat="37.35172343494552" lon="13.83650837355928"><ele>439.0</ele><time>2026-03-29T10:10:32.001Z</time></trkpt><trkpt lat="37.35172153817552" lon="13.836383192995555"><ele>439.0</ele><time>2026-03-29T10:10:33.998Z</time></trkpt><trkpt lat="37.351701405435" lon="13.836210943450213"><ele>439.0</ele><time>2026-03-29T10:10:35.998Z</time></trkpt><trkpt lat="37.35170431605429" lon="13.836100931832513"><ele>439.0</ele><time>2026-03-29T10:10:36.998Z</time></trkpt><trkpt lat="37.351712371717966" lon="13.836007742418374"><ele>438.79999999999995</ele><time>2026-03-29T10:10:37.998Z</time></trkpt><trkpt lat="37.3517217954349" lon="13.835927442491815"><ele>438.59999999999997</ele><time>2026-03-29T10:10:38.998Z</time></trkpt><trkpt lat="37.35173788342819" lon="13.83577846254384"><ele>438.4</ele><time>2026-03-29T10:10:40.998Z</time></trkpt><trkpt lat="37.35175146239178" lon="13.835633681602593"><ele>438.2</ele><time>2026-03-29T10:10:42.998Z</time></trkpt><trkpt lat="37.351762503633026" lon="13.835511969859779"><ele>438.0</ele><time>2026-03-29T10:10:44.998Z</time></trkpt><trkpt lat="37.35179058092506" lon="13.835438038195388"><ele>438.0</ele><time>2026-03-29T10:10:45.998Z</time></trkpt><trkpt lat="37.35181099242095" lon="13.835280049516697"><ele>437.99999999999994</ele><time>2026-03-29T10:10:47.998Z</time></trkpt><trkpt lat="37.3518217552768" lon="13.835196742915269"><ele>437.99999999999994</ele><time>2026-03-29T10:10:48.998Z</time></trkpt><trkpt lat="37.351842535116155" lon="13.835045148610922"><ele>438.0</ele><time>2026-03-29T10:10:50.999Z</time></trkpt><trkpt lat="37.351858153867354" lon="13.834929452551581"><ele>438.0</ele><time>2026-03-29T10:10:51.999Z</time></trkpt><trkpt lat="37.35186556868263" lon="13.834788434584002"><ele>438.4</ele><time>2026-03-29T10:10:52.999Z</time></trkpt><trkpt lat="37.35188545336621" lon="13.83466619874209"><ele>438.79999999999995</ele><time>2026-03-29T10:10:53.999Z</time></trkpt><trkpt lat="37.35189981360851" lon="13.83457103072816"><ele>439.2</ele><time>2026-03-29T10:10:54.999Z</time></trkpt><trkpt lat="37.35191183521459" lon="13.834489258968569"><ele>439.6</ele><time>2026-03-29T10:10:55.999Z</time></trkpt><trkpt lat="37.35193332139327" lon="13.834347779605569"><ele>440.0</ele><time>2026-03-29T10:10:57.999Z</time></trkpt><trkpt lat="37.35195650341293" lon="13.834198414611548"><ele>440.0</ele><time>2026-03-29T10:10:59.999Z</time></trkpt><trkpt lat="37.351999201199895" lon="13.834051862341179"><ele>440.0</ele><time>2026-03-29T10:11:01.999Z</time></trkpt><trkpt lat="37.35201405042646" lon="13.833973474016974"><ele>440.0</ele><time>2026-03-29T10:11:02.999Z</time></trkpt><trkpt lat="37.352045572194555" lon="13.833803334664738"><ele>440.0</ele><time>2026-03-29T10:11:04.999Z</time></trkpt><trkpt lat="37.352068274768804" lon="13.8336808965508"><ele>440.0</ele><time>2026-03-29T10:11:05.999Z</time></trkpt><trkpt lat="37.352097702160044" lon="13.833532776595922"><ele>439.75</ele><time>2026-03-29T10:11:06.999Z</time></trkpt><trkpt lat="37.35213720414178" lon="13.833352704642666"><ele>439.5</ele><time>2026-03-29T10:11:07.999Z</time></trkpt><trkpt lat="37.35217411212089" lon="13.83319215487033"><ele>439.25</ele><time>2026-03-29T10:11:08.999Z</time></trkpt><trkpt lat="37.35220877690161" lon="13.83305198605206"><ele>439.0</ele><time>2026-03-29T10:11:09.999Z</time></trkpt><trkpt lat="37.352241220141146" lon="13.832923550952632"><ele>439.0</ele><time>2026-03-29T10:11:10.999Z</time></trkpt><trkpt lat="37.35227017373116" lon="13.83281240345416"><ele>439.0</ele><time>2026-03-29T10:11:11.999Z</time></trkpt><trkpt lat="37.35228400163104" lon="13.832695945219735"><ele>439.0</ele><time>2026-03-29T10:11:12.999Z</time></trkpt><trkpt lat="37.35233311093717" lon="13.832581230698413"><ele>439.0</ele><time>2026-03-29T10:11:13.999Z</time></trkpt><trkpt lat="37.352371313119406" lon="13.832443511812517"><ele>439.0</ele><time>2026-03-29T10:11:14.999Z</time></trkpt><trkpt lat="37.35241861835569" lon="13.832275436755612"><ele>438.6</ele><time>2026-03-29T10:11:15.999Z</time></trkpt><trkpt lat="37.35246156823983" lon="13.832125774035188"><ele>438.2</ele><time>2026-03-29T10:11:16.999Z</time></trkpt><trkpt lat="37.352498935242714" lon="13.831997898975583"><ele>437.80000000000007</ele><time>2026-03-29T10:11:17.999Z</time></trkpt><trkpt lat="37.35251798257557" lon="13.831878805678643"><ele>437.40000000000003</ele><time>2026-03-29T10:11:18.999Z</time></trkpt><trkpt lat="37.35254891075313" lon="13.831783608783459"><ele>437.0</ele><time>2026-03-29T10:11:19.999Z</time></trkpt><trkpt lat="37.35257930467706" lon="13.831705708987254"><ele>436.6</ele><time>2026-03-29T10:11:20.999Z</time></trkpt><trkpt lat="37.35262815499739" lon="13.831558893848717"><ele>436.20000000000005</ele><time>2026-03-29T10:11:22.999Z</time></trkpt><trkpt lat="37.352659857188264" lon="13.831480541969405"><ele>435.8</ele><time>2026-03-29T10:11:24Z</time></trkpt><trkpt lat="37.35268678626243" lon="13.831380404689169"><ele>435.4</ele><time>2026-03-29T10:11:25Z</time></trkpt><trkpt lat="37.35271308598659" lon="13.831241311103705"><ele>435.0</ele><time>2026-03-29T10:11:26Z</time></trkpt><trkpt lat="37.352764911817175" lon="13.831077694492976"><ele>434.33333333333337</ele><time>2026-03-29T10:11:27Z</time></trkpt><trkpt lat="37.352834618497596" lon="13.830890787806085"><ele>433.6666666666667</ele><time>2026-03-29T10:11:28Z</time></trkpt><trkpt lat="37.35290994145016" lon="13.830683953468148"><ele>433.0</ele><time>2026-03-29T10:11:29Z</time></trkpt><trkpt lat="37.35298802273887" lon="13.830462490427028"><ele>433.33333333333337</ele><time>2026-03-29T10:11:30Z</time></trkpt><trkpt lat="37.353067208372075" lon="13.830233522852664"><ele>433.66666666666663</ele><time>2026-03-29T10:11:31Z</time></trkpt><trkpt lat="37.35314987923154" lon="13.829996363692436"><ele>434.0</ele><time>2026-03-29T10:11:32Z</time></trkpt><trkpt lat="37.35323282569057" lon="13.829755992722625"><ele>434.0</ele><time>2026-03-29T10:11:33Z</time></trkpt><trkpt lat="37.35331820228766" lon="13.829513075693491"><ele>434.0</ele><time>2026-03-29T10:11:34Z</time></trkpt><trkpt lat="37.35340313171216" lon="13.8292713424235"><ele>434.0</ele><time>2026-03-29T10:11:35Z</time></trkpt><trkpt lat="37.35348722838292" lon="13.829029083515573"><ele>433.3333333333333</ele><time>2026-03-29T10:11:36Z</time></trkpt><trkpt lat="37.35356655642575" lon="13.828801830419462"><ele>432.66666666666663</ele><time>2026-03-29T10:11:37Z</time></trkpt><trkpt lat="37.353639908026906" lon="13.828582147294096"><ele>432.0</ele><time>2026-03-29T10:11:38Z</time></trkpt><trkpt lat="37.35371572854738" lon="13.828359493557919"><ele>432.33333333333337</ele><time>2026-03-29T10:11:39Z</time></trkpt><trkpt lat="37.353791932769944" lon="13.828142323096955"><ele>432.6666666666667</ele><time>2026-03-29T10:11:40Z</time></trkpt><trkpt lat="37.353863405472005" lon="13.827933606326722"><ele>433.0</ele><time>2026-03-29T10:11:41Z</time></trkpt><trkpt lat="37.35393033527181" lon="13.827729788661076"><ele>432.0</ele><time>2026-03-29T10:11:42Z</time></trkpt><trkpt lat="37.35400179989228" lon="13.8275136468795"><ele>431.0</ele><time>2026-03-29T10:11:43Z</time></trkpt><trkpt lat="37.35407353763166" lon="13.827286621583893"><ele>430.0</ele><time>2026-03-29T10:11:44Z</time></trkpt><trkpt lat="37.35415619381847" lon="13.82705789352617"><ele>430.0</ele><time>2026-03-29T10:11:45Z</time></trkpt><trkpt lat="37.35424507810797" lon="13.826823014470438"><ele>430.0</ele><time>2026-03-29T10:11:46Z</time></trkpt><trkpt lat="37.354331777461525" lon="13.826584442589413"><ele>430.0</ele><time>2026-03-29T10:11:47Z</time></trkpt><trkpt lat="37.354417240573824" lon="13.826339802243325"><ele>429.33333333333337</ele><time>2026-03-29T10:11:48Z</time></trkpt><trkpt lat="37.35450398068583" lon="13.82609487223828"><ele>428.66666666666663</ele><time>2026-03-29T10:11:49Z</time></trkpt><trkpt lat="37.354591583415306" lon="13.825844190858922"><ele>428.0</ele><time>2026-03-29T10:11:50Z</time></trkpt><trkpt lat="37.35468066015592" lon="13.82558599173713"><ele>427.5</ele><time>2026-03-29T10:11:51Z</time></trkpt><trkpt lat="37.35477073402456" lon="13.825323035872552"><ele>427.0</ele><time>2026-03-29T10:11:52Z</time></trkpt><trkpt lat="37.354863274942325" lon="13.825057937303473"><ele>426.0</ele><time>2026-03-29T10:11:53Z</time></trkpt><trkpt lat="37.35495450023799" lon="13.824792741913827"><ele>425.0</ele><time>2026-03-29T10:11:54Z</time></trkpt><trkpt lat="37.355047592428406" lon="13.824525535061314"><ele>425.0</ele><time>2026-03-29T10:11:55Z</time></trkpt><trkpt lat="37.35513978118009" lon="13.824255030178568"><ele>425.0</ele><time>2026-03-29T10:11:56Z</time></trkpt><trkpt lat="37.3552261992137" lon="13.82397533657046"><ele>425.0</ele><time>2026-03-29T10:11:57Z</time></trkpt><trkpt lat="37.355299029156285" lon="13.82368911570471"><ele>425.0</ele><time>2026-03-29T10:11:58Z</time></trkpt><trkpt lat="37.355362383329464" lon="13.82339155532627"><ele>425.0</ele><time>2026-03-29T10:11:59Z</time></trkpt><trkpt lat="37.35542039975351" lon="13.823076807510876"><ele>425.0</ele><time>2026-03-29T10:12:00Z</time></trkpt><trkpt lat="37.35546996065677" lon="13.82274469386028"><ele>424.5</ele><time>2026-03-29T10:12:01Z</time></trkpt><trkpt lat="37.355514047606704" lon="13.822401732519788"><ele>424.0</ele><time>2026-03-29T10:12:02Z</time></trkpt><trkpt lat="37.355555804898295" lon="13.82205799208192"><ele>424.0</ele><time>2026-03-29T10:12:03Z</time></trkpt><trkpt lat="37.35559979368993" lon="13.821704346409687"><ele>424.0</ele><time>2026-03-29T10:12:04Z</time></trkpt><trkpt lat="37.35564488962225" lon="13.821346347096647"><ele>424.0</ele><time>2026-03-29T10:12:05Z</time></trkpt><trkpt lat="37.35568870692647" lon="13.82098879434986"><ele>424.0</ele><time>2026-03-29T10:12:06Z</time></trkpt><trkpt lat="37.3557333026394" lon="13.820630225545123"><ele>422.0</ele><time>2026-03-29T10:12:07Z</time></trkpt><trkpt lat="37.355779503069016" lon="13.820270623641804"><ele>420.0</ele><time>2026-03-29T10:12:08Z</time></trkpt><trkpt lat="37.355824787747885" lon="13.819911105606948"><ele>420.0</ele><time>2026-03-29T10:12:09Z</time></trkpt><trkpt lat="37.35586773021897" lon="13.819552230319868"><ele>420.0</ele><time>2026-03-29T10:12:10Z</time></trkpt><trkpt lat="37.35590572794677" lon="13.819194173395013"><ele>420.0</ele><time>2026-03-29T10:12:11Z</time></trkpt><trkpt lat="37.35593622750423" lon="13.818834319529497"><ele>420.0</ele><time>2026-03-29T10:12:12Z</time></trkpt><trkpt lat="37.355959256472374" lon="13.818471815133664"><ele>422.0</ele><time>2026-03-29T10:12:13Z</time></trkpt><trkpt lat="37.355974490677895" lon="13.818108342828126"><ele>424.0</ele><time>2026-03-29T10:12:14Z</time></trkpt><trkpt lat="37.35598539965287" lon="13.817744138979924"><ele>424.5</ele><time>2026-03-29T10:12:15Z</time></trkpt><trkpt lat="37.35599127861584" lon="13.817382442035122"><ele>425.0</ele><time>2026-03-29T10:12:16Z</time></trkpt><trkpt lat="37.35599419809047" lon="13.817022385784181"><ele>425.5</ele><time>2026-03-29T10:12:17Z</time></trkpt><trkpt lat="37.3559982027663" lon="13.816662109758555"><ele>426.0</ele><time>2026-03-29T10:12:18Z</time></trkpt><trkpt lat="37.35600402612188" lon="13.816302990939633"><ele>427.0</ele><time>2026-03-29T10:12:19Z</time></trkpt><trkpt lat="37.356012027768706" lon="13.815948394984082"><ele>428.0</ele><time>2026-03-29T10:12:20Z</time></trkpt><trkpt lat="37.35602329234487" lon="13.815599185728923"><ele>428.0</ele><time>2026-03-29T10:12:21Z</time></trkpt><trkpt lat="37.356049912777074" lon="13.815258910225413"><ele>428.0</ele><time>2026-03-29T10:12:22.001Z</time></trkpt><trkpt lat="37.35608708918846" lon="13.81492366344419"><ele>427.5</ele><time>2026-03-29T10:12:23.001Z</time></trkpt><trkpt lat="37.35613024954258" lon="13.814605683188573"><ele>427.0</ele><time>2026-03-29T10:12:24.001Z</time></trkpt><trkpt lat="37.35617773654241" lon="13.814314867642178"><ele>427.0</ele><time>2026-03-29T10:12:25.001Z</time></trkpt><trkpt lat="37.356228276709565" lon="13.814044020292311"><ele>427.0</ele><time>2026-03-29T10:12:26.001Z</time></trkpt><trkpt lat="37.35628223915585" lon="13.813792032130818"><ele>427.0</ele><time>2026-03-29T10:12:27.001Z</time></trkpt><trkpt lat="37.356338198672255" lon="13.813558352917294"><ele>430.33333333333337</ele><time>2026-03-29T10:12:28.001Z</time></trkpt><trkpt lat="37.35639619168364" lon="13.813337763628548"><ele>433.66666666666663</ele><time>2026-03-29T10:12:29.001Z</time></trkpt><trkpt lat="37.35645705776844" lon="13.813127280904304"><ele>437.0</ele><time>2026-03-29T10:12:30.001Z</time></trkpt><trkpt lat="37.35651585311389" lon="13.812926865218971"><ele>437.0</ele><time>2026-03-29T10:12:31.001Z</time></trkpt><trkpt lat="37.35657841197694" lon="13.812704530380165"><ele>437.0</ele><time>2026-03-29T10:12:32.001Z</time></trkpt><trkpt lat="37.35664707617388" lon="13.812463846715044"><ele>437.0</ele><time>2026-03-29T10:12:33.001Z</time></trkpt><trkpt lat="37.35673373484645" lon="13.812217427096499"><ele>436.0</ele><time>2026-03-29T10:12:34.001Z</time></trkpt><trkpt lat="37.35682985010309" lon="13.81197756222645"><ele>435.0</ele><time>2026-03-29T10:12:35.001Z</time></trkpt><trkpt lat="37.35693756099773" lon="13.811731685772777"><ele>434.0</ele><time>2026-03-29T10:12:36.001Z</time></trkpt><trkpt lat="37.35705186255193" lon="13.81148936220212"><ele>432.5</ele><time>2026-03-29T10:12:37.001Z</time></trkpt><trkpt lat="37.357169188990994" lon="13.81124756861621"><ele>431.0</ele><time>2026-03-29T10:12:38.001Z</time></trkpt><trkpt lat="37.357291862709296" lon="13.811002343958892"><ele>433.5</ele><time>2026-03-29T10:12:38.997Z</time></trkpt><trkpt lat="37.3574192608059" lon="13.810734368269298"><ele>436.0</ele><time>2026-03-29T10:12:39.997Z</time></trkpt><trkpt lat="37.35754679583519" lon="13.810452076792485"><ele>434.5</ele><time>2026-03-29T10:12:40.997Z</time></trkpt><trkpt lat="37.35768257060159" lon="13.810157380401899"><ele>433.0</ele><time>2026-03-29T10:12:41.997Z</time></trkpt><trkpt lat="37.35783780011071" lon="13.809868556417205"><ele>433.0</ele><time>2026-03-29T10:12:42.997Z</time></trkpt><trkpt lat="37.3579819293089" lon="13.809562575515193"><ele>433.0</ele><time>2026-03-29T10:12:43.997Z</time></trkpt><trkpt lat="37.358116863326174" lon="13.809241557727267"><ele>434.0</ele><time>2026-03-29T10:12:44.997Z</time></trkpt><trkpt lat="37.358265567377074" lon="13.8089304826441"><ele>435.0</ele><time>2026-03-29T10:12:45.997Z</time></trkpt><trkpt lat="37.35841318249396" lon="13.808621463212901"><ele>434.0</ele><time>2026-03-29T10:12:46.998Z</time></trkpt><trkpt lat="37.35855906619852" lon="13.808312763149816"><ele>433.0</ele><time>2026-03-29T10:12:47.998Z</time></trkpt><trkpt lat="37.35870501149031" lon="13.808006117711699"><ele>433.0</ele><time>2026-03-29T10:12:48.998Z</time></trkpt><trkpt lat="37.35884824092648" lon="13.807701538117954"><ele>433.0</ele><time>2026-03-29T10:12:49.998Z</time></trkpt><trkpt lat="37.358989465983434" lon="13.80739498966765"><ele>433.0</ele><time>2026-03-29T10:12:50.998Z</time></trkpt><trkpt lat="37.35913092355071" lon="13.807087363499022"><ele>433.0</ele><time>2026-03-29T10:12:51.998Z</time></trkpt><trkpt lat="37.359272361209825" lon="13.80677906217843"><ele>433.0</ele><time>2026-03-29T10:12:52.998Z</time></trkpt><trkpt lat="37.359416354453586" lon="13.806465966389021"><ele>433.0</ele><time>2026-03-29T10:12:53.998Z</time></trkpt><trkpt lat="37.35956096087669" lon="13.806139328886337"><ele>432.5</ele><time>2026-03-29T10:12:54.998Z</time></trkpt><trkpt lat="37.35970014312532" lon="13.805803112943165"><ele>432.0</ele><time>2026-03-29T10:12:55.998Z</time></trkpt><trkpt lat="37.359834948124146" lon="13.805457494816563"><ele>434.0</ele><time>2026-03-29T10:12:56.998Z</time></trkpt><trkpt lat="37.35996882155322" lon="13.805106563494336"><ele>436.0</ele><time>2026-03-29T10:12:57.998Z</time></trkpt><trkpt lat="37.3601035002979" lon="13.804753137910918"><ele>436.0</ele><time>2026-03-29T10:12:58.998Z</time></trkpt><trkpt lat="37.360236114695006" lon="13.804401046505825"><ele>436.0</ele><time>2026-03-29T10:12:59.998Z</time></trkpt><trkpt lat="37.36036643136736" lon="13.804048766543895"><ele>436.0</ele><time>2026-03-29T10:13:00.998Z</time></trkpt><trkpt lat="37.360496874210305" lon="13.80369870825497"><ele>436.0</ele><time>2026-03-29T10:13:01.998Z</time></trkpt><trkpt lat="37.360627622942665" lon="13.803349322676171"><ele>436.0</ele><time>2026-03-29T10:13:02.999Z</time></trkpt><trkpt lat="37.360754756022224" lon="13.803002315819894"><ele>436.0</ele><time>2026-03-29T10:13:03.999Z</time></trkpt><trkpt lat="37.360876629552614" lon="13.802655598584488"><ele>437.0</ele><time>2026-03-29T10:13:04.999Z</time></trkpt><trkpt lat="37.36099106205544" lon="13.802309626231349"><ele>438.0</ele><time>2026-03-29T10:13:05.999Z</time></trkpt><trkpt lat="37.36109541472476" lon="13.801962009814892"><ele>439.0</ele><time>2026-03-29T10:13:06.999Z</time></trkpt><trkpt lat="37.36119209812621" lon="13.8016132955621"><ele>440.0</ele><time>2026-03-29T10:13:07.999Z</time></trkpt><trkpt lat="37.3612890950335" lon="13.801267740959913"><ele>439.5</ele><time>2026-03-29T10:13:08.999Z</time></trkpt><trkpt lat="37.3613776033019" lon="13.800915044411381"><ele>439.0</ele><time>2026-03-29T10:13:09.999Z</time></trkpt><trkpt lat="37.361459030352286" lon="13.800557249185474"><ele>439.0</ele><time>2026-03-29T10:13:10.999Z</time></trkpt><trkpt lat="37.36154290118639" lon="13.80019217538223"><ele>439.0</ele><time>2026-03-29T10:13:11.999Z</time></trkpt><trkpt lat="37.361624319113915" lon="13.799820982851012"><ele>439.0</ele><time>2026-03-29T10:13:12.999Z</time></trkpt><trkpt lat="37.36170047581232" lon="13.79944204530434"><ele>439.0</ele><time>2026-03-29T10:13:13.999Z</time></trkpt><trkpt lat="37.3617684012273" lon="13.799057212542687"><ele>440.0</ele><time>2026-03-29T10:13:14.999Z</time></trkpt><trkpt lat="37.361824245196125" lon="13.798664692390075"><ele>441.0</ele><time>2026-03-29T10:13:15.999Z</time></trkpt><trkpt lat="37.361863683813404" lon="13.798266013232334"><ele>442.5</ele><time>2026-03-29T10:13:16.999Z</time></trkpt><trkpt lat="37.36188947788512" lon="13.797864332923174"><ele>444.0</ele><time>2026-03-29T10:13:17.999Z</time></trkpt><trkpt lat="37.361912855804036" lon="13.797462712646523"><ele>444.0</ele><time>2026-03-29T10:13:18.999Z</time></trkpt><trkpt lat="37.36193160793913" lon="13.797062054361918"><ele>444.0</ele><time>2026-03-29T10:13:19.999Z</time></trkpt><trkpt lat="37.361949173386606" lon="13.79666027746258"><ele>444.0</ele><time>2026-03-29T10:13:20.999Z</time></trkpt><trkpt lat="37.361966898009605" lon="13.796260810572711"><ele>444.0</ele><time>2026-03-29T10:13:21.999Z</time></trkpt><trkpt lat="37.36198438084885" lon="13.795860725219883"><ele>446.0</ele><time>2026-03-29T10:13:22.999Z</time></trkpt><trkpt lat="37.36199928900412" lon="13.795462026921323"><ele>448.0</ele><time>2026-03-29T10:13:23.999Z</time></trkpt><trkpt lat="37.36201146546201" lon="13.795063160660836"><ele>449.0</ele><time>2026-03-29T10:13:24.999Z</time></trkpt><trkpt lat="37.36202326128061" lon="13.794665699940225"><ele>450.0</ele><time>2026-03-29T10:13:25.999Z</time></trkpt><trkpt lat="37.362034684498155" lon="13.794274668140725"><ele>452.5</ele><time>2026-03-29T10:13:26.999Z</time></trkpt><trkpt lat="37.362045552053765" lon="13.793891550805172"><ele>455.0</ele><time>2026-03-29T10:13:27.999Z</time></trkpt><trkpt lat="37.36205656992511" lon="13.793512406781836"><ele>457.5</ele><time>2026-03-29T10:13:29Z</time></trkpt><trkpt lat="37.3620680012019" lon="13.793141556480988"><ele>460.0</ele><time>2026-03-29T10:13:30Z</time></trkpt><trkpt lat="37.362080718341765" lon="13.792777504951031"><ele>461.0</ele><time>2026-03-29T10:13:31Z</time></trkpt><trkpt lat="37.362092967254455" lon="13.792419587159014"><ele>462.0</ele><time>2026-03-29T10:13:32Z</time></trkpt><trkpt lat="37.36210191763504" lon="13.792064105995776"><ele>459.5</ele><time>2026-03-29T10:13:33Z</time></trkpt><trkpt lat="37.36210367212165" lon="13.791707895927628"><ele>457.0</ele><time>2026-03-29T10:13:34Z</time></trkpt><trkpt lat="37.362100271829014" lon="13.791351872375815"><ele>457.0</ele><time>2026-03-29T10:13:35Z</time></trkpt><trkpt lat="37.362095811320856" lon="13.790990729324347"><ele>457.0</ele><time>2026-03-29T10:13:36Z</time></trkpt><trkpt lat="37.36209210973438" lon="13.790627156418843"><ele>457.0</ele><time>2026-03-29T10:13:37Z</time></trkpt><trkpt lat="37.36208666449589" lon="13.79026413942162"><ele>457.0</ele><time>2026-03-29T10:13:38Z</time></trkpt><trkpt lat="37.362082895098354" lon="13.789903272904311"><ele>458.5</ele><time>2026-03-29T10:13:39Z</time></trkpt><trkpt lat="37.36207974853419" lon="13.789544758635929"><ele>460.0</ele><time>2026-03-29T10:13:40Z</time></trkpt><trkpt lat="37.362076317575266" lon="13.789186377450699"><ele>461.5</ele><time>2026-03-29T10:13:41Z</time></trkpt><trkpt lat="37.36207269251309" lon="13.78882972878672"><ele>463.0</ele><time>2026-03-29T10:13:42Z</time></trkpt><trkpt lat="37.36206799318618" lon="13.788473012284703"><ele>463.0</ele><time>2026-03-29T10:13:43Z</time></trkpt><trkpt lat="37.36206285909116" lon="13.788116767709075"><ele>463.0</ele><time>2026-03-29T10:13:44Z</time></trkpt><trkpt lat="37.36205687052364" lon="13.787766024238602"><ele>463.5</ele><time>2026-03-29T10:13:45Z</time></trkpt><trkpt lat="37.36205101892346" lon="13.787421658478149"><ele>464.0</ele><time>2026-03-29T10:13:46Z</time></trkpt><trkpt lat="37.36204674545803" lon="13.78708154532079"><ele>464.0</ele><time>2026-03-29T10:13:47Z</time></trkpt><trkpt lat="37.36204179664829" lon="13.786740202629414"><ele>464.0</ele><time>2026-03-29T10:13:48Z</time></trkpt><trkpt lat="37.36203879429228" lon="13.786401734863967"><ele>464.0</ele><time>2026-03-29T10:13:49Z</time></trkpt><trkpt lat="37.36203711000934" lon="13.786060438276946"><ele>464.0</ele><time>2026-03-29T10:13:50Z</time></trkpt><trkpt lat="37.36203346532397" lon="13.785720237389526"><ele>465.0</ele><time>2026-03-29T10:13:51Z</time></trkpt><trkpt lat="37.36202828073369" lon="13.785378064686125"><ele>466.0</ele><time>2026-03-29T10:13:52Z</time></trkpt><trkpt lat="37.36202179213359" lon="13.785038627805443"><ele>468.5</ele><time>2026-03-29T10:13:53Z</time></trkpt><trkpt lat="37.36201375366029" lon="13.784698520194032"><ele>471.0</ele><time>2026-03-29T10:13:54Z</time></trkpt><trkpt lat="37.362005696880736" lon="13.784357260255629"><ele>473.0</ele><time>2026-03-29T10:13:55Z</time></trkpt><trkpt lat="37.36199839134141" lon="13.784019698996744"><ele>475.0</ele><time>2026-03-29T10:13:56Z</time></trkpt><trkpt lat="37.361990778712894" lon="13.783687859983534"><ele>477.0</ele><time>2026-03-29T10:13:57Z</time></trkpt><trkpt lat="37.361985012797064" lon="13.783363819705116"><ele>479.0</ele><time>2026-03-29T10:13:58Z</time></trkpt><trkpt lat="37.36198250918314" lon="13.783057300005005"><ele>479.0</ele><time>2026-03-29T10:13:59Z</time></trkpt><trkpt lat="37.36198576698292" lon="13.782756533154362"><ele>479.0</ele><time>2026-03-29T10:14:00Z</time></trkpt><trkpt lat="37.36200903455097" lon="13.782476109374361"><ele>480.66666666666663</ele><time>2026-03-29T10:14:01Z</time></trkpt><trkpt lat="37.362065667073" lon="13.782210839554821"><ele>482.33333333333337</ele><time>2026-03-29T10:14:02Z</time></trkpt><trkpt lat="37.36216637505859" lon="13.78195384690518"><ele>484.0</ele><time>2026-03-29T10:14:03Z</time></trkpt><trkpt lat="37.36225163863079" lon="13.78167927516177"><ele>491.0</ele><time>2026-03-29T10:14:04Z</time></trkpt><trkpt lat="37.36235795470425" lon="13.78141233830558"><ele>498.0</ele><time>2026-03-29T10:14:05Z</time></trkpt><trkpt lat="37.36246562331207" lon="13.781143199635194"><ele>497.5</ele><time>2026-03-29T10:14:06Z</time></trkpt><trkpt lat="37.36256978115527" lon="13.78086991415234"><ele>497.0</ele><time>2026-03-29T10:14:07Z</time></trkpt><trkpt lat="37.36267215223072" lon="13.78059209200924"><ele>497.0</ele><time>2026-03-29T10:14:08Z</time></trkpt><trkpt lat="37.36277190189084" lon="13.780313071476675"><ele>497.0</ele><time>2026-03-29T10:14:09Z</time></trkpt><trkpt lat="37.362871780302456" lon="13.780035726562955"><ele>497.0</ele><time>2026-03-29T10:14:10Z</time></trkpt><trkpt lat="37.36297008913812" lon="13.779761769816279"><ele>497.0</ele><time>2026-03-29T10:14:11Z</time></trkpt><trkpt lat="37.363065299044166" lon="13.779494813914667"><ele>497.0</ele><time>2026-03-29T10:14:12.001Z</time></trkpt><trkpt lat="37.36315960214549" lon="13.779231642275352"><ele>497.0</ele><time>2026-03-29T10:14:13.001Z</time></trkpt><trkpt lat="37.363256831483255" lon="13.778971219072055"><ele>497.5</ele><time>2026-03-29T10:14:14.001Z</time></trkpt><trkpt lat="37.36344671147004" lon="13.778459490945512"><ele>498.0</ele><time>2026-03-29T10:14:16.001Z</time></trkpt><trkpt lat="37.363541659325946" lon="13.778203992173404"><ele>498.0</ele><time>2026-03-29T10:14:17.001Z</time></trkpt><trkpt lat="37.363634629491195" lon="13.77794535311462"><ele>498.0</ele><time>2026-03-29T10:14:18.001Z</time></trkpt><trkpt lat="37.363727987349954" lon="13.777681476173559"><ele>498.0</ele><time>2026-03-29T10:14:19.001Z</time></trkpt><trkpt lat="37.36381833146256" lon="13.77741284658746"><ele>498.0</ele><time>2026-03-29T10:14:20.001Z</time></trkpt><trkpt lat="37.363898624580465" lon="13.777138494437356"><ele>500.5</ele><time>2026-03-29T10:14:21.001Z</time></trkpt><trkpt lat="37.36396487986413" lon="13.776856987768216"><ele>503.0</ele><time>2026-03-29T10:14:22.001Z</time></trkpt><trkpt lat="37.36402387981558" lon="13.776568709604057"><ele>503.0</ele><time>2026-03-29T10:14:23.001Z</time></trkpt><trkpt lat="37.364084084444166" lon="13.776280530753777"><ele>503.0</ele><time>2026-03-29T10:14:24.001Z</time></trkpt><trkpt lat="37.364147158940554" lon="13.77599979862389"><ele>503.0</ele><time>2026-03-29T10:14:25.001Z</time></trkpt><trkpt lat="37.364204951122844" lon="13.775723549012197"><ele>503.0</ele><time>2026-03-29T10:14:26.001Z</time></trkpt><trkpt lat="37.364257910751924" lon="13.775470491516959"><ele>503.0</ele><time>2026-03-29T10:14:27.001Z</time></trkpt><trkpt lat="37.36430677722617" lon="13.775234653006185"><ele>502.0</ele><time>2026-03-29T10:14:28.001Z</time></trkpt><trkpt lat="37.36435163301933" lon="13.775018063895141"><ele>501.0</ele><time>2026-03-29T10:14:29.001Z</time></trkpt><trkpt lat="37.364394750965374" lon="13.774816015229117"><ele>500.0</ele><time>2026-03-29T10:14:30.001Z</time></trkpt><trkpt lat="37.364437393257475" lon="13.774631502812142"><ele>499.66666666666663</ele><time>2026-03-29T10:14:31.001Z</time></trkpt><trkpt lat="37.3645525041838" lon="13.774322771013926"><ele>499.33333333333337</ele><time>2026-03-29T10:14:33.001Z</time></trkpt><trkpt lat="37.36465220222077" lon="13.774209922421011"><ele>499.0</ele><time>2026-03-29T10:14:34.001Z</time></trkpt><trkpt lat="37.3647666643285" lon="13.774131336481783"><ele>500.79999999999995</ele><time>2026-03-29T10:14:35.001Z</time></trkpt><trkpt lat="37.36488663692897" lon="13.774104659491949"><ele>502.59999999999997</ele><time>2026-03-29T10:14:36.001Z</time></trkpt><trkpt lat="37.36500142681237" lon="13.774113815837415"><ele>504.4</ele><time>2026-03-29T10:14:37.001Z</time></trkpt><trkpt lat="37.365102432041404" lon="13.774159202901142"><ele>506.2</ele><time>2026-03-29T10:14:38.001Z</time></trkpt><trkpt lat="37.365186048347674" lon="13.774208137877634"><ele>508.0</ele><time>2026-03-29T10:14:39.001Z</time></trkpt><trkpt lat="37.36526311049335" lon="13.774245634975973"><ele>508.0</ele><time>2026-03-29T10:14:40.001Z</time></trkpt><trkpt lat="37.36533728873502" lon="13.774285289314605"><ele>507.99999999999994</ele><time>2026-03-29T10:14:41.001Z</time></trkpt><trkpt lat="37.36540058824631" lon="13.774317579435538"><ele>507.99999999999994</ele><time>2026-03-29T10:14:42.001Z</time></trkpt><trkpt lat="37.3654494864608" lon="13.774523585646604"><ele>508.0</ele><time>2026-03-29T10:14:44.001Z</time></trkpt><trkpt lat="37.36546247515101" lon="13.774645711405478"><ele>508.0</ele><time>2026-03-29T10:14:44.998Z</time></trkpt><trkpt lat="37.36548024990428" lon="13.774782003862944"><ele>508.5</ele><time>2026-03-29T10:14:45.998Z</time></trkpt><trkpt lat="37.36550606384571" lon="13.774936229729411"><ele>509.0</ele><time>2026-03-29T10:14:46.998Z</time></trkpt><trkpt lat="37.36553551677352" lon="13.775097600063148"><ele>509.5</ele><time>2026-03-29T10:14:47.998Z</time></trkpt><trkpt lat="37.3655631784198" lon="13.775253323881094"><ele>510.0</ele><time>2026-03-29T10:14:48.998Z</time></trkpt><trkpt lat="37.36558864420907" lon="13.775390272949497"><ele>511.8</ele><time>2026-03-29T10:14:49.998Z</time></trkpt><trkpt lat="37.3656302350296" lon="13.77551315498628"><ele>513.6</ele><time>2026-03-29T10:14:50.998Z</time></trkpt><trkpt lat="37.36569945743117" lon="13.775609484354725"><ele>515.4</ele><time>2026-03-29T10:14:51.998Z</time></trkpt><trkpt lat="37.36578991933459" lon="13.775674425789607"><ele>517.2</ele><time>2026-03-29T10:14:52.998Z</time></trkpt><trkpt lat="37.36589389825302" lon="13.775701951804352"><ele>519.0</ele><time>2026-03-29T10:14:53.998Z</time></trkpt><trkpt lat="37.36600172321492" lon="13.775709864154924"><ele>519.0</ele><time>2026-03-29T10:14:54.998Z</time></trkpt><trkpt lat="37.36611113088048" lon="13.775723644813755"><ele>519.0</ele><time>2026-03-29T10:14:55.998Z</time></trkpt><trkpt lat="37.36621751026977" lon="13.775744649491594"><ele>519.0</ele><time>2026-03-29T10:14:56.998Z</time></trkpt><trkpt lat="37.36632037824391" lon="13.77576266354029"><ele>519.0</ele><time>2026-03-29T10:14:57.998Z</time></trkpt><trkpt lat="37.3664205015622" lon="13.775771758641948"><ele>519.0</ele><time>2026-03-29T10:14:58.999Z</time></trkpt><trkpt lat="37.366518644508915" lon="13.77575397206589"><ele>519.25</ele><time>2026-03-29T10:14:59.999Z</time></trkpt><trkpt lat="37.36662618104218" lon="13.775704240273136"><ele>519.5</ele><time>2026-03-29T10:15:00.999Z</time></trkpt><trkpt lat="37.36672753560407" lon="13.775623906596751"><ele>519.75</ele><time>2026-03-29T10:15:01.999Z</time></trkpt><trkpt lat="37.366806423520664" lon="13.77551435258632"><ele>520.0</ele><time>2026-03-29T10:15:02.999Z</time></trkpt><trkpt lat="37.36686059220938" lon="13.77538844956193"><ele>520.0</ele><time>2026-03-29T10:15:03.999Z</time></trkpt><trkpt lat="37.36688723944737" lon="13.775257910703782"><ele>520.0</ele><time>2026-03-29T10:15:04.999Z</time></trkpt><trkpt lat="37.36689320588816" lon="13.77512924138016"><ele>520.0</ele><time>2026-03-29T10:15:05.999Z</time></trkpt><trkpt lat="37.366879737239856" lon="13.775007696963446"><ele>520.0</ele><time>2026-03-29T10:15:06.999Z</time></trkpt><trkpt lat="37.366847319163334" lon="13.77489406909557"><ele>520.0</ele><time>2026-03-29T10:15:07.999Z</time></trkpt><trkpt lat="37.36679492405341" lon="13.77477651739869"><ele>518.3333333333334</ele><time>2026-03-29T10:15:08.999Z</time></trkpt><trkpt lat="37.36671619845138" lon="13.774677125171857"><ele>516.6666666666666</ele><time>2026-03-29T10:15:09.999Z</time></trkpt><trkpt lat="37.36662759637379" lon="13.774600779927692"><ele>515.0</ele><time>2026-03-29T10:15:10.999Z</time></trkpt><trkpt lat="37.36639904386541" lon="13.774510455951653"><ele>515.25</ele><time>2026-03-29T10:15:12.999Z</time></trkpt><trkpt lat="37.366303260696306" lon="13.774437954721865"><ele>515.5</ele><time>2026-03-29T10:15:13.999Z</time></trkpt><trkpt lat="37.366230496311104" lon="13.774338188354976"><ele>515.75</ele><time>2026-03-29T10:15:14.999Z</time></trkpt><trkpt lat="37.366180387807546" lon="13.774210102251464"><ele>516.0</ele><time>2026-03-29T10:15:15.999Z</time></trkpt><trkpt lat="37.36615284488828" lon="13.774053982297639"><ele>514.25</ele><time>2026-03-29T10:15:16.999Z</time></trkpt><trkpt lat="37.36612667911957" lon="13.773890473891065"><ele>512.5</ele><time>2026-03-29T10:15:18Z</time></trkpt><trkpt lat="37.366183291968106" lon="13.773710912955057"><ele>510.75</ele><time>2026-03-29T10:15:19Z</time></trkpt><trkpt lat="37.36618976549917" lon="13.773528732559988"><ele>509.0</ele><time>2026-03-29T10:15:20Z</time></trkpt><trkpt lat="37.36621360282773" lon="13.773342511334226"><ele>508.66666666666663</ele><time>2026-03-29T10:15:21Z</time></trkpt><trkpt lat="37.36624004701655" lon="13.77315193518563"><ele>508.33333333333337</ele><time>2026-03-29T10:15:22Z</time></trkpt><trkpt lat="37.36626748117249" lon="13.772959739065156"><ele>508.0</ele><time>2026-03-29T10:15:23Z</time></trkpt><trkpt lat="37.36630198308086" lon="13.772764114865568"><ele>508.6666666666667</ele><time>2026-03-29T10:15:24Z</time></trkpt><trkpt lat="37.36634141591266" lon="13.772565433147179"><ele>509.33333333333337</ele><time>2026-03-29T10:15:25Z</time></trkpt><trkpt lat="37.36638571911147" lon="13.77236687977723"><ele>510.0</ele><time>2026-03-29T10:15:26Z</time></trkpt><trkpt lat="37.36643555804515" lon="13.77216658601069"><ele>510.33333333333337</ele><time>2026-03-29T10:15:27Z</time></trkpt><trkpt lat="37.3664885363869" lon="13.771964856544926"><ele>510.6666666666667</ele><time>2026-03-29T10:15:28Z</time></trkpt><trkpt lat="37.366547281424545" lon="13.771764007584451"><ele>511.0</ele><time>2026-03-29T10:15:29Z</time></trkpt><trkpt lat="37.36661360179996" lon="13.771563423487471"><ele>510.33333333333337</ele><time>2026-03-29T10:15:30Z</time></trkpt><trkpt lat="37.36668255862868" lon="13.77136494987947"><ele>509.66666666666663</ele><time>2026-03-29T10:15:31Z</time></trkpt><trkpt lat="37.36674950887779" lon="13.771166747382738"><ele>509.0</ele><time>2026-03-29T10:15:32Z</time></trkpt><trkpt lat="37.36681757915081" lon="13.770974242309572"><ele>509.0</ele><time>2026-03-29T10:15:33Z</time></trkpt><trkpt lat="37.36688582115565" lon="13.770785120968315"><ele>509.0</ele><time>2026-03-29T10:15:34Z</time></trkpt><trkpt lat="37.36695440074816" lon="13.77060127856373"><ele>509.0</ele><time>2026-03-29T10:15:35Z</time></trkpt><trkpt lat="37.36702260839246" lon="13.77042019795232"><ele>509.0</ele><time>2026-03-29T10:15:36Z</time></trkpt><trkpt lat="37.36709167896822" lon="13.770241209039893"><ele>509.0</ele><time>2026-03-29T10:15:37Z</time></trkpt><trkpt lat="37.36715970218827" lon="13.770062203743475"><ele>509.0</ele><time>2026-03-29T10:15:38Z</time></trkpt><trkpt lat="37.36722673002061" lon="13.769887386691483"><ele>509.0</ele><time>2026-03-29T10:15:39Z</time></trkpt><trkpt lat="37.367292972413225" lon="13.769717636354853"><ele>509.0</ele><time>2026-03-29T10:15:40Z</time></trkpt><trkpt lat="37.36735680799614" lon="13.769560510122451"><ele>509.0</ele><time>2026-03-29T10:15:41Z</time></trkpt><trkpt lat="37.36742064163819" lon="13.769419918247927"><ele>509.0</ele><time>2026-03-29T10:15:42Z</time></trkpt><trkpt lat="37.3674913559709" lon="13.769305007681611"><ele>508.99999999999994</ele><time>2026-03-29T10:15:43Z</time></trkpt><trkpt lat="37.367566984057916" lon="13.769215132316512"><ele>509.0</ele><time>2026-03-29T10:15:44Z</time></trkpt><trkpt lat="37.367639616810834" lon="13.769149313200735"><ele>509.0</ele><time>2026-03-29T10:15:45Z</time></trkpt><trkpt lat="37.36766839758559" lon="13.769064931751005"><ele>509.0</ele><time>2026-03-29T10:15:46Z</time></trkpt><trkpt lat="37.3677245385071" lon="13.768965814613479"><ele>508.99999999999994</ele><time>2026-03-29T10:15:48Z</time></trkpt><trkpt lat="37.3677499320044" lon="13.76888694475219"><ele>509.0</ele><time>2026-03-29T10:16:47.002Z</time></trkpt><trkpt lat="37.36769206744374" lon="13.768853615416125"><ele>509.0</ele><time>2026-03-29T10:16:49.002Z</time></trkpt><trkpt lat="37.36758086690253" lon="13.768980884453729"><ele>509.0</ele><time>2026-03-29T10:16:50.998Z</time></trkpt><trkpt lat="37.367528944187555" lon="13.769097622411865"><ele>509.0</ele><time>2026-03-29T10:16:51.998Z</time></trkpt><trkpt lat="37.36746702906278" lon="13.76922894482698"><ele>509.0</ele><time>2026-03-29T10:16:52.998Z</time></trkpt><trkpt lat="37.36740379080053" lon="13.769361383915932"><ele>509.75</ele><time>2026-03-29T10:16:53.998Z</time></trkpt><trkpt lat="37.367344565807066" lon="13.769499354517063"><ele>510.5</ele><time>2026-03-29T10:16:54.999Z</time></trkpt><trkpt lat="37.36728728376404" lon="13.769640986359988"><ele>511.25</ele><time>2026-03-29T10:16:55.999Z</time></trkpt><trkpt lat="37.36723139377818" lon="13.769785837905083"><ele>512.0</ele><time>2026-03-29T10:16:56.999Z</time></trkpt><trkpt lat="37.36717594907938" lon="13.769935395511633"><ele>512.0</ele><time>2026-03-29T10:16:57.999Z</time></trkpt><trkpt lat="37.36711794318161" lon="13.770090441930142"><ele>512.0</ele><time>2026-03-29T10:16:58.999Z</time></trkpt><trkpt lat="37.367059601024266" lon="13.770254052255842"><ele>512.0</ele><time>2026-03-29T10:16:59.999Z</time></trkpt><trkpt lat="37.367000368836074" lon="13.77041872533965"><ele>512.0</ele><time>2026-03-29T10:17:00.999Z</time></trkpt><trkpt lat="37.36693492823375" lon="13.77058434936569"><ele>511.0</ele><time>2026-03-29T10:17:01.999Z</time></trkpt><trkpt lat="37.36686452224646" lon="13.770752491112885"><ele>510.0</ele><time>2026-03-29T10:17:02.999Z</time></trkpt><trkpt lat="37.36679930366264" lon="13.77092456927031"><ele>509.0</ele><time>2026-03-29T10:17:03.999Z</time></trkpt><trkpt lat="37.36673548335762" lon="13.771099864441863"><ele>509.0</ele><time>2026-03-29T10:17:04.999Z</time></trkpt><trkpt lat="37.366671936209826" lon="13.771274106819737"><ele>509.0</ele><time>2026-03-29T10:17:05.999Z</time></trkpt><trkpt lat="37.366609590596816" lon="13.771448249599098"><ele>509.0</ele><time>2026-03-29T10:17:06.999Z</time></trkpt><trkpt lat="37.36654992455224" lon="13.771628251537678"><ele>509.0</ele><time>2026-03-29T10:17:07.999Z</time></trkpt><trkpt lat="37.36649398536656" lon="13.771815756983335"><ele>509.0</ele><time>2026-03-29T10:17:08.999Z</time></trkpt><trkpt lat="37.36644084218193" lon="13.772012384835937"><ele>509.0</ele><time>2026-03-29T10:17:09.999Z</time></trkpt><trkpt lat="37.36638796002041" lon="13.772221134335211"><ele>509.3333333333333</ele><time>2026-03-29T10:17:10.999Z</time></trkpt><trkpt lat="37.366333145126305" lon="13.772445515046721"><ele>509.66666666666663</ele><time>2026-03-29T10:17:11.999Z</time></trkpt><trkpt lat="37.36628221889907" lon="13.77268265773814"><ele>510.0</ele><time>2026-03-29T10:17:12.999Z</time></trkpt><trkpt lat="37.36623861539626" lon="13.77292594219088"><ele>509.66666666666663</ele><time>2026-03-29T10:17:13.999Z</time></trkpt><trkpt lat="37.36620395253645" lon="13.773176504913847"><ele>509.3333333333333</ele><time>2026-03-29T10:17:14.999Z</time></trkpt><trkpt lat="37.36617267021622" lon="13.773434448176625"><ele>509.0</ele><time>2026-03-29T10:17:15.999Z</time></trkpt><trkpt lat="37.36614274928788" lon="13.77369733929345"><ele>509.0</ele><time>2026-03-29T10:17:17Z</time></trkpt><trkpt lat="37.36611468237331" lon="13.77397210603517"><ele>509.0</ele><time>2026-03-29T10:17:18Z</time></trkpt><trkpt lat="37.36608727350465" lon="13.774257029125192"><ele>509.0</ele><time>2026-03-29T10:17:19Z</time></trkpt><trkpt lat="37.366058438459454" lon="13.774551288483266"><ele>512.5</ele><time>2026-03-29T10:17:20Z</time></trkpt><trkpt lat="37.366028579149635" lon="13.774850825513347"><ele>516.0</ele><time>2026-03-29T10:17:21Z</time></trkpt><trkpt lat="37.365997772116195" lon="13.775156347140078"><ele>517.5</ele><time>2026-03-29T10:17:22Z</time></trkpt><trkpt lat="37.36596560181226" lon="13.77546637119552"><ele>519.0</ele><time>2026-03-29T10:17:23Z</time></trkpt><trkpt lat="37.36593218697454" lon="13.775780705307296"><ele>518.0</ele><time>2026-03-29T10:17:24Z</time></trkpt><trkpt lat="37.36589891428406" lon="13.776096369443732"><ele>517.0</ele><time>2026-03-29T10:17:25Z</time></trkpt><trkpt lat="37.365867481531794" lon="13.776416334262914"><ele>517.0</ele><time>2026-03-29T10:17:26Z</time></trkpt><trkpt lat="37.36583667860443" lon="13.776737303826481"><ele>517.0</ele><time>2026-03-29T10:17:27Z</time></trkpt><trkpt lat="37.36580523787035" lon="13.77705879315706"><ele>516.5</ele><time>2026-03-29T10:17:28Z</time></trkpt><trkpt lat="37.365774629956526" lon="13.777376309535784"><ele>516.0</ele><time>2026-03-29T10:17:29Z</time></trkpt><trkpt lat="37.36574331659404" lon="13.777697051402246"><ele>516.0</ele><time>2026-03-29T10:17:30Z</time></trkpt><trkpt lat="37.36571035264817" lon="13.778017230685917"><ele>516.0</ele><time>2026-03-29T10:17:31Z</time></trkpt><trkpt lat="37.36567762559761" lon="13.7783363220068"><ele>515.5</ele><time>2026-03-29T10:17:32Z</time></trkpt><trkpt lat="37.3656467726852" lon="13.778653443042058"><ele>515.0</ele><time>2026-03-29T10:17:33Z</time></trkpt><trkpt lat="37.365615859885246" lon="13.778967018385705"><ele>515.0</ele><time>2026-03-29T10:17:34Z</time></trkpt><trkpt lat="37.36558499293104" lon="13.779278307090955"><ele>515.0</ele><time>2026-03-29T10:17:35Z</time></trkpt><trkpt lat="37.36555424375303" lon="13.779585266622606"><ele>514.5</ele><time>2026-03-29T10:17:36Z</time></trkpt><trkpt lat="37.36552384873499" lon="13.779889617906957"><ele>514.0</ele><time>2026-03-29T10:17:37Z</time></trkpt><trkpt lat="37.36549511571583" lon="13.780194512907514"><ele>514.0</ele><time>2026-03-29T10:17:38Z</time></trkpt><trkpt lat="37.36546631015444" lon="13.78049685174074"><ele>514.0</ele><time>2026-03-29T10:17:39Z</time></trkpt><trkpt lat="37.3654380025053" lon="13.780799762606478"><ele>513.5</ele><time>2026-03-29T10:17:40Z</time></trkpt><trkpt lat="37.365408140873896" lon="13.781100796294377"><ele>513.0</ele><time>2026-03-29T10:17:41Z</time></trkpt><trkpt lat="37.36537773050123" lon="13.781397043850193"><ele>513.0</ele><time>2026-03-29T10:17:42Z</time></trkpt><trkpt lat="37.3653480046766" lon="13.781692351914176"><ele>513.0</ele><time>2026-03-29T10:17:43Z</time></trkpt><trkpt lat="37.365319690568356" lon="13.781988086775671"><ele>516.0</ele><time>2026-03-29T10:17:44Z</time></trkpt><trkpt lat="37.36529037309278" lon="13.782282583371561"><ele>519.0</ele><time>2026-03-29T10:17:45.001Z</time></trkpt><trkpt lat="37.36525904401457" lon="13.782576947165149"><ele>519.5</ele><time>2026-03-29T10:17:46.001Z</time></trkpt><trkpt lat="37.36523098135481" lon="13.782872245691168"><ele>520.0</ele><time>2026-03-29T10:17:47.001Z</time></trkpt><trkpt lat="37.365204819517494" lon="13.783166986493724"><ele>520.0</ele><time>2026-03-29T10:17:48.001Z</time></trkpt><trkpt lat="37.365181875059015" lon="13.783461432312588"><ele>520.0</ele><time>2026-03-29T10:17:49.001Z</time></trkpt><trkpt lat="37.36517251511721" lon="13.783755215676175"><ele>520.0</ele><time>2026-03-29T10:17:50.001Z</time></trkpt><trkpt lat="37.365168972777994" lon="13.784051210115987"><ele>520.0</ele><time>2026-03-29T10:17:51.001Z</time></trkpt><trkpt lat="37.365177501217666" lon="13.784345842680464"><ele>520.0</ele><time>2026-03-29T10:17:52.001Z</time></trkpt><trkpt lat="37.36519409359867" lon="13.784640517449832"><ele>520.0</ele><time>2026-03-29T10:17:53.001Z</time></trkpt><trkpt lat="37.36521617501872" lon="13.78493382573115"><ele>520.0</ele><time>2026-03-29T10:17:54.001Z</time></trkpt><trkpt lat="37.36524664415638" lon="13.785236180346303"><ele>520.0</ele><time>2026-03-29T10:17:55.001Z</time></trkpt><trkpt lat="37.36528537353549" lon="13.785546423619227"><ele>520.0</ele><time>2026-03-29T10:17:56.001Z</time></trkpt><trkpt lat="37.3653277012033" lon="13.785859464917888"><ele>520.0</ele><time>2026-03-29T10:17:57.001Z</time></trkpt><trkpt lat="37.36537453509807" lon="13.786171192238426"><ele>520.5</ele><time>2026-03-29T10:17:58.001Z</time></trkpt><trkpt lat="37.365425591601294" lon="13.786481070579974"><ele>521.0</ele><time>2026-03-29T10:17:59.001Z</time></trkpt><trkpt lat="37.36547721146339" lon="13.78679120273557"><ele>518.0</ele><time>2026-03-29T10:18:00.001Z</time></trkpt><trkpt lat="37.36552689127176" lon="13.787099797131566"><ele>515.0</ele><time>2026-03-29T10:18:01.001Z</time></trkpt><trkpt lat="37.365574136217745" lon="13.787410119059137"><ele>511.0</ele><time>2026-03-29T10:18:02.001Z</time></trkpt><trkpt lat="37.365623636272645" lon="13.787721831437276"><ele>507.0</ele><time>2026-03-29T10:18:03.001Z</time></trkpt><trkpt lat="37.365673716112376" lon="13.78803375121619"><ele>507.0</ele><time>2026-03-29T10:18:04.001Z</time></trkpt><trkpt lat="37.36572273974315" lon="13.788346024946396"><ele>507.0</ele><time>2026-03-29T10:18:05.001Z</time></trkpt><trkpt lat="37.36577312401247" lon="13.78865692452252"><ele>507.5</ele><time>2026-03-29T10:18:06.001Z</time></trkpt><trkpt lat="37.36582402394349" lon="13.788969969997806"><ele>508.0</ele><time>2026-03-29T10:18:07.001Z</time></trkpt><trkpt lat="37.36587568498349" lon="13.78928281659469"><ele>506.0</ele><time>2026-03-29T10:18:08.001Z</time></trkpt><trkpt lat="37.36592696263337" lon="13.789596910520435"><ele>504.0</ele><time>2026-03-29T10:18:09.001Z</time></trkpt><trkpt lat="37.365978937230615" lon="13.789911575304943"><ele>502.0</ele><time>2026-03-29T10:18:10.001Z</time></trkpt><trkpt lat="37.36603130662145" lon="13.790227303016742"><ele>500.0</ele><time>2026-03-29T10:18:11.001Z</time></trkpt><trkpt lat="37.36608346538851" lon="13.790545488378834"><ele>500.0</ele><time>2026-03-29T10:18:12.001Z</time></trkpt><trkpt lat="37.366135568657754" lon="13.790866506328742"><ele>500.0</ele><time>2026-03-29T10:18:13.001Z</time></trkpt><trkpt lat="37.366188356600226" lon="13.791193420640008"><ele>498.0</ele><time>2026-03-29T10:18:14.001Z</time></trkpt><trkpt lat="37.36624039446754" lon="13.791520917941313"><ele>496.0</ele><time>2026-03-29T10:18:15.001Z</time></trkpt><trkpt lat="37.36629530321354" lon="13.791849706052208"><ele>493.5</ele><time>2026-03-29T10:18:16.001Z</time></trkpt><trkpt lat="37.366349985385035" lon="13.792178544712044"><ele>491.0</ele><time>2026-03-29T10:18:17.001Z</time></trkpt><trkpt lat="37.36640426100558" lon="13.792509899122548"><ele>495.5</ele><time>2026-03-29T10:18:18.001Z</time></trkpt><trkpt lat="37.36645826010078" lon="13.792841207777819"><ele>500.0</ele><time>2026-03-29T10:18:19.001Z</time></trkpt><trkpt lat="37.36651320273266" lon="13.79317377482432"><ele>496.0</ele><time>2026-03-29T10:18:20.002Z</time></trkpt><trkpt lat="37.36656721797389" lon="13.793505597287236"><ele>492.0</ele><time>2026-03-29T10:18:21.002Z</time></trkpt><trkpt lat="37.366620160540464" lon="13.793840990957445"><ele>492.0</ele><time>2026-03-29T10:18:22.002Z</time></trkpt><trkpt lat="37.366671175579995" lon="13.794180011397295"><ele>492.0</ele><time>2026-03-29T10:18:23.002Z</time></trkpt><trkpt lat="37.36672317188004" lon="13.794517501208297"><ele>488.5</ele><time>2026-03-29T10:18:24.002Z</time></trkpt><trkpt lat="37.36677672825408" lon="13.794855698120088"><ele>485.0</ele><time>2026-03-29T10:18:25.002Z</time></trkpt><trkpt lat="37.36683243697095" lon="13.795197264063658"><ele>483.5</ele><time>2026-03-29T10:18:26.002Z</time></trkpt><trkpt lat="37.366887263714595" lon="13.7955400496406"><ele>482.0</ele><time>2026-03-29T10:18:27.002Z</time></trkpt><trkpt lat="37.36694507663312" lon="13.795882451919429"><ele>480.5</ele><time>2026-03-29T10:18:28.002Z</time></trkpt><trkpt lat="37.367000441080215" lon="13.796220619531114"><ele>479.0</ele><time>2026-03-29T10:18:29.002Z</time></trkpt><trkpt lat="37.36705613453127" lon="13.796558913623214"><ele>479.0</ele><time>2026-03-29T10:18:30.002Z</time></trkpt><trkpt lat="37.36711115018795" lon="13.796896478273288"><ele>479.0</ele><time>2026-03-29T10:18:31.002Z</time></trkpt><trkpt lat="37.367166606747254" lon="13.797231127706297"><ele>484.5</ele><time>2026-03-29T10:18:32.002Z</time></trkpt><trkpt lat="37.36721968392003" lon="13.797565676223686"><ele>490.0</ele><time>2026-03-29T10:18:33.002Z</time></trkpt><trkpt lat="37.36727228211515" lon="13.797900066631998"><ele>490.0</ele><time>2026-03-29T10:18:34.002Z</time></trkpt><trkpt lat="37.36732562521939" lon="13.798231658142472"><ele>490.0</ele><time>2026-03-29T10:18:35.002Z</time></trkpt><trkpt lat="37.367376714542374" lon="13.798560494282496"><ele>486.0</ele><time>2026-03-29T10:18:36.002Z</time></trkpt><trkpt lat="37.36742654733082" lon="13.79887818351578"><ele>482.0</ele><time>2026-03-29T10:18:37.002Z</time></trkpt><trkpt lat="37.36747746293688" lon="13.799183007248386"><ele>479.5</ele><time>2026-03-29T10:18:38.002Z</time></trkpt><trkpt lat="37.367527875093145" lon="13.799481123739147"><ele>477.0</ele><time>2026-03-29T10:18:39.002Z</time></trkpt><trkpt lat="37.36757967125993" lon="13.799770439009277"><ele>477.0</ele><time>2026-03-29T10:18:40.002Z</time></trkpt><trkpt lat="37.36764206397097" lon="13.800050552966685"><ele>477.0</ele><time>2026-03-29T10:18:41.002Z</time></trkpt><trkpt lat="37.36771569409483" lon="13.800321525925757"><ele>477.0</ele><time>2026-03-29T10:18:42.002Z</time></trkpt><trkpt lat="37.367803748789505" lon="13.80058595962644"><ele>477.0</ele><time>2026-03-29T10:18:43.002Z</time></trkpt><trkpt lat="37.36790499307372" lon="13.800849365296962"><ele>479.0</ele><time>2026-03-29T10:18:44.002Z</time></trkpt><trkpt lat="37.368013866285935" lon="13.80110431479438"><ele>481.0</ele><time>2026-03-29T10:18:45.002Z</time></trkpt><trkpt lat="37.36813400513313" lon="13.801355693031113"><ele>481.0</ele><time>2026-03-29T10:18:46.002Z</time></trkpt><trkpt lat="37.368267569896354" lon="13.801601183266332"><ele>481.0</ele><time>2026-03-29T10:18:47.002Z</time></trkpt><trkpt lat="37.36841351060037" lon="13.801831760067579"><ele>479.5</ele><time>2026-03-29T10:18:48.002Z</time></trkpt><trkpt lat="37.368572993529455" lon="13.802058545054892"><ele>478.0</ele><time>2026-03-29T10:18:49.002Z</time></trkpt><trkpt lat="37.36875219536712" lon="13.802271891239226"><ele>482.5</ele><time>2026-03-29T10:18:50.002Z</time></trkpt><trkpt lat="37.36895246136709" lon="13.802475401714315"><ele>487.0</ele><time>2026-03-29T10:18:51.002Z</time></trkpt><trkpt lat="37.369157182858864" lon="13.802659646508435"><ele>484.0</ele><time>2026-03-29T10:18:52.002Z</time></trkpt><trkpt lat="37.36936965311741" lon="13.802826968946665"><ele>481.0</ele><time>2026-03-29T10:18:53.002Z</time></trkpt><trkpt lat="37.36958705616709" lon="13.802974640738581"><ele>480.0</ele><time>2026-03-29T10:18:54.002Z</time></trkpt><trkpt lat="37.369799839516546" lon="13.803099632657299"><ele>479.0</ele><time>2026-03-29T10:18:55.002Z</time></trkpt><trkpt lat="37.37000821077758" lon="13.803209789187758"><ele>479.0</ele><time>2026-03-29T10:18:56.002Z</time></trkpt><trkpt lat="37.37020653920841" lon="13.803308702005179"><ele>479.0</ele><time>2026-03-29T10:18:56.999Z</time></trkpt><trkpt lat="37.370392881053434" lon="13.803397044128445"><ele>479.0</ele><time>2026-03-29T10:18:57.999Z</time></trkpt><trkpt lat="37.37055912247147" lon="13.803474484415885"><ele>477.25</ele><time>2026-03-29T10:18:58.999Z</time></trkpt><trkpt lat="37.37070471178738" lon="13.803547130953353"><ele>475.5</ele><time>2026-03-29T10:18:59.999Z</time></trkpt><trkpt lat="37.37083187068094" lon="13.803612354733783"><ele>473.75</ele><time>2026-03-29T10:19:00.999Z</time></trkpt><trkpt lat="37.370940308534195" lon="13.803671528898528"><ele>472.0</ele><time>2026-03-29T10:19:01.999Z</time></trkpt><trkpt lat="37.37102425925903" lon="13.803737445138916"><ele>472.00000000000006</ele><time>2026-03-29T10:19:02.999Z</time></trkpt><trkpt lat="37.37109284493885" lon="13.803815676362019"><ele>472.0</ele><time>2026-03-29T10:19:03.999Z</time></trkpt><trkpt lat="37.37112135737732" lon="13.80391195499007"><ele>472.0</ele><time>2026-03-29T10:19:04.999Z</time></trkpt><trkpt lat="37.371127082702934" lon="13.804012153769746"><ele>472.0</ele><time>2026-03-29T10:19:05.999Z</time></trkpt><trkpt lat="37.371110534069565" lon="13.804099841446352"><ele>472.00000000000006</ele><time>2026-03-29T10:19:06.999Z</time></trkpt><trkpt lat="37.371078320055545" lon="13.804176996425861"><ele>472.0</ele><time>2026-03-29T10:19:08Z</time></trkpt><trkpt lat="37.37097964257331" lon="13.804276879092058"><ele>472.00000000000006</ele><time>2026-03-29T10:19:10Z</time></trkpt><trkpt lat="37.370894681576466" lon="13.804309469730184"><ele>472.0</ele><time>2026-03-29T10:19:11Z</time></trkpt><trkpt lat="37.370816778901215" lon="13.804319271559354"><ele>472.0</ele><time>2026-03-29T10:19:12Z</time></trkpt><trkpt lat="37.37074610495758" lon="13.804287427186457"><ele>472.0</ele><time>2026-03-29T10:19:13Z</time></trkpt><trkpt lat="37.370680982233395" lon="13.804222578223209"><ele>472.00000000000006</ele><time>2026-03-29T10:19:14Z</time></trkpt><trkpt lat="37.37062550699352" lon="13.804130322239326"><ele>472.0</ele><time>2026-03-29T10:19:15Z</time></trkpt><trkpt lat="37.37057599381425" lon="13.804037972037916"><ele>471.40000000000003</ele><time>2026-03-29T10:19:16Z</time></trkpt><trkpt lat="37.37051547641876" lon="13.803963283547708"><ele>470.80000000000007</ele><time>2026-03-29T10:19:17Z</time></trkpt><trkpt lat="37.37043779651398" lon="13.803894628947265"><ele>470.2</ele><time>2026-03-29T10:19:18Z</time></trkpt><trkpt lat="37.370359831340764" lon="13.803848177814807"><ele>469.6</ele><time>2026-03-29T10:19:19Z</time></trkpt><trkpt lat="37.370267682823346" lon="13.803825663652262"><ele>469.0</ele><time>2026-03-29T10:19:20Z</time></trkpt><trkpt lat="37.370162891110034" lon="13.803833721813199"><ele>469.0</ele><time>2026-03-29T10:19:21Z</time></trkpt><trkpt lat="37.370056597739286" lon="13.803845379898227"><ele>469.0</ele><time>2026-03-29T10:19:22Z</time></trkpt><trkpt lat="37.36995115921936" lon="13.80385648680878"><ele>469.0</ele><time>2026-03-29T10:19:23Z</time></trkpt><trkpt lat="37.36983445717138" lon="13.803862133745543"><ele>469.0</ele><time>2026-03-29T10:19:24Z</time></trkpt><trkpt lat="37.36971829373147" lon="13.803859937831964"><ele>469.0</ele><time>2026-03-29T10:19:25Z</time></trkpt><trkpt lat="37.36960430213599" lon="13.803867223375375"><ele>469.6</ele><time>2026-03-29T10:19:26Z</time></trkpt><trkpt lat="37.369495716774956" lon="13.803890240564966"><ele>470.2</ele><time>2026-03-29T10:19:27Z</time></trkpt><trkpt lat="37.369391596553406" lon="13.803905550754305"><ele>470.80000000000007</ele><time>2026-03-29T10:19:28Z</time></trkpt><trkpt lat="37.36930536676519" lon="13.803900998093937"><ele>471.40000000000003</ele><time>2026-03-29T10:19:29Z</time></trkpt><trkpt lat="37.36923753396644" lon="13.803884513589155"><ele>472.0</ele><time>2026-03-29T10:19:30Z</time></trkpt><trkpt lat="37.369156059425656" lon="13.803865774199886"><ele>472.00000000000006</ele><time>2026-03-29T10:19:31Z</time></trkpt><trkpt lat="37.369085197368214" lon="13.8038369884885"><ele>472.0</ele><time>2026-03-29T10:19:32Z</time></trkpt><trkpt lat="37.36902161937464" lon="13.803796787108324"><ele>472.0</ele><time>2026-03-29T10:19:33.001Z</time></trkpt><trkpt lat="37.36896179009502" lon="13.803756344558776"><ele>472.0</ele><time>2026-03-29T10:19:34.001Z</time></trkpt><trkpt lat="37.368857785607716" lon="13.803690177794993"><ele>472.00000000000006</ele><time>2026-03-29T10:19:36.001Z</time></trkpt><trkpt lat="37.36878702154564" lon="13.803637434526232"><ele>472.0</ele><time>2026-03-29T10:19:38.001Z</time></trkpt><trkpt lat="37.368707749540455" lon="13.803588342667627"><ele>472.00000000000006</ele><time>2026-03-29T10:19:40.001Z</time></trkpt><trkpt lat="37.368629765163675" lon="13.803493239962718"><ele>472.0</ele><time>2026-03-29T10:19:53.001Z</time></trkpt><trkpt lat="37.36860597762776" lon="13.803412112096307"><ele>472.0</ele><time>2026-03-29T10:19:54.001Z</time></trkpt><trkpt lat="37.36852204372585" lon="13.803339839384815"><ele>472.0</ele><time>2026-03-29T10:19:56.001Z</time></trkpt><trkpt lat="37.368453916715104" lon="13.80338246402199"><ele>472.00000000000006</ele><time>2026-03-29T10:19:57.001Z</time></trkpt><trkpt lat="37.368377593263695" lon="13.803445548907732"><ele>472.0</ele><time>2026-03-29T10:19:59.001Z</time></trkpt><trkpt lat="37.36828846652057" lon="13.80347094262462"><ele>472.0</ele><time>2026-03-29T10:20:01.001Z</time></trkpt><trkpt lat="37.36824267244183" lon="13.803343719014643"><ele>472.00000000000006</ele><time>2026-03-29T10:20:03.001Z</time></trkpt><trkpt lat="37.368197373651824" lon="13.803240935644835"><ele>472.00000000000006</ele><time>2026-03-29T10:20:04.001Z</time></trkpt><trkpt lat="37.36813633835551" lon="13.803137552562664"><ele>472.0</ele><time>2026-03-29T10:20:05.002Z</time></trkpt><trkpt lat="37.36802167889808" lon="13.803072890200935"><ele>472.0</ele><time>2026-03-29T10:20:06.002Z</time></trkpt><trkpt lat="37.367924137669156" lon="13.80297542297976"><ele>470.75</ele><time>2026-03-29T10:20:07.002Z</time></trkpt><trkpt lat="37.36780394745232" lon="13.802882732463011"><ele>469.5</ele><time>2026-03-29T10:20:08.002Z</time></trkpt><trkpt lat="37.36767569440909" lon="13.80279330601643"><ele>468.25</ele><time>2026-03-29T10:20:09.002Z</time></trkpt><trkpt lat="37.367551078581116" lon="13.802711468278329"><ele>467.0</ele><time>2026-03-29T10:20:10.002Z</time></trkpt><trkpt lat="37.36743059094127" lon="13.802635498559761"><ele>467.0</ele><time>2026-03-29T10:20:11.002Z</time></trkpt><trkpt lat="37.36731414769442" lon="13.802568479654376"><ele>467.0</ele><time>2026-03-29T10:20:12.002Z</time></trkpt><trkpt lat="37.367206051772115" lon="13.80250923508238"><ele>467.0</ele><time>2026-03-29T10:20:13.002Z</time></trkpt><trkpt lat="37.36710621717744" lon="13.802454518325284"><ele>467.0</ele><time>2026-03-29T10:20:14.002Z</time></trkpt><trkpt lat="37.36701879616211" lon="13.802406605128878"><ele>465.8333333333333</ele><time>2026-03-29T10:20:15.002Z</time></trkpt><trkpt lat="37.36694277518779" lon="13.802368108525588"><ele>464.66666666666663</ele><time>2026-03-29T10:20:16.002Z</time></trkpt><trkpt lat="37.36687884995624" lon="13.802342190735532"><ele>463.5</ele><time>2026-03-29T10:20:17.002Z</time></trkpt><trkpt lat="37.36676953527151" lon="13.802362842349355"><ele>462.33333333333337</ele><time>2026-03-29T10:20:19.002Z</time></trkpt><trkpt lat="37.36673992510046" lon="13.802452803125805"><ele>461.1666666666667</ele><time>2026-03-29T10:20:20.002Z</time></trkpt><trkpt lat="37.36678462366728" lon="13.802557495279567"><ele>460.0</ele><time>2026-03-29T10:20:21.002Z</time></trkpt><trkpt lat="37.366824359727566" lon="13.802647479153896"><ele>459.4</ele><time>2026-03-29T10:20:22.002Z</time></trkpt><trkpt lat="37.36685839045245" lon="13.802753593724407"><ele>458.8</ele><time>2026-03-29T10:20:23.002Z</time></trkpt><trkpt lat="37.366892368740004" lon="13.802873169984126"><ele>458.20000000000005</ele><time>2026-03-29T10:20:24.002Z</time></trkpt><trkpt lat="37.36693056421082" lon="13.802988182473829"><ele>457.6</ele><time>2026-03-29T10:20:25.002Z</time></trkpt><trkpt lat="37.366966940732695" lon="13.803087271762966"><ele>457.0</ele><time>2026-03-29T10:20:26.002Z</time></trkpt><trkpt lat="37.366991308099415" lon="13.803194950771188"><ele>457.0</ele><time>2026-03-29T10:20:27.002Z</time></trkpt><trkpt lat="37.367031512277656" lon="13.803304029285433"><ele>457.00000000000006</ele><time>2026-03-29T10:20:28.002Z</time></trkpt><trkpt lat="37.36706623348563" lon="13.803413462045437"><ele>457.00000000000006</ele><time>2026-03-29T10:20:29.002Z</time></trkpt><trkpt lat="37.367117106225976" lon="13.803521613467414"><ele>457.0</ele><time>2026-03-29T10:20:30.002Z</time></trkpt><trkpt lat="37.367172234998534" lon="13.803627610927741"><ele>457.0</ele><time>2026-03-29T10:20:31.002Z</time></trkpt><trkpt lat="37.367237167761495" lon="13.80373715158563"><ele>457.0</ele><time>2026-03-29T10:20:32.002Z</time></trkpt><trkpt lat="37.36731096754201" lon="13.8038572220554"><ele>457.0</ele><time>2026-03-29T10:20:33.002Z</time></trkpt><trkpt lat="37.36738686603961" lon="13.803984568990861"><ele>457.0</ele><time>2026-03-29T10:20:34.002Z</time></trkpt><trkpt lat="37.36745462975421" lon="13.804094164831652"><ele>457.0</ele><time>2026-03-29T10:20:35.002Z</time></trkpt><trkpt lat="37.367508304245774" lon="13.804194341101644"><ele>457.00000000000006</ele><time>2026-03-29T10:20:36.002Z</time></trkpt><trkpt lat="37.36754858353059" lon="13.804292354392704"><ele>457.0</ele><time>2026-03-29T10:20:37.002Z</time></trkpt><trkpt lat="37.36757820703234" lon="13.80438801764081"><ele>457.00000000000006</ele><time>2026-03-29T10:20:38.002Z</time></trkpt><trkpt lat="37.36760229126146" lon="13.804478418215508"><ele>457.00000000000006</ele><time>2026-03-29T10:20:39.003Z</time></trkpt><trkpt lat="37.367608527408926" lon="13.804563190943973"><ele>457.0</ele><time>2026-03-29T10:20:40.003Z</time></trkpt><trkpt lat="37.36759369607722" lon="13.804640344556859"><ele>457.00000000000006</ele><time>2026-03-29T10:20:41.003Z</time></trkpt><trkpt lat="37.36755335680273" lon="13.804717171335234"><ele>457.00000000000006</ele><time>2026-03-29T10:20:42.003Z</time></trkpt><trkpt lat="37.36749377503356" lon="13.804771879637922"><ele>456.20000000000005</ele><time>2026-03-29T10:20:43.003Z</time></trkpt><trkpt lat="37.36743425519273" lon="13.804806700814344"><ele>455.40000000000003</ele><time>2026-03-29T10:20:44.003Z</time></trkpt><trkpt lat="37.367324286740576" lon="13.804753465304195"><ele>454.59999999999997</ele><time>2026-03-29T10:20:45.003Z</time></trkpt><trkpt lat="37.36720591115225" lon="13.804761602438996"><ele>453.79999999999995</ele><time>2026-03-29T10:20:46.003Z</time></trkpt><trkpt lat="37.36707994786777" lon="13.80473844975136"><ele>453.0</ele><time>2026-03-29T10:20:47.003Z</time></trkpt><trkpt lat="37.36696446345553" lon="13.804676894083201"><ele>452.75</ele><time>2026-03-29T10:20:48.003Z</time></trkpt><trkpt lat="37.36685617143418" lon="13.804639538626489"><ele>452.5</ele><time>2026-03-29T10:20:49.003Z</time></trkpt><trkpt lat="37.36673941241524" lon="13.804599262492877"><ele>452.25</ele><time>2026-03-29T10:20:50.003Z</time></trkpt><trkpt lat="37.366609415551835" lon="13.804613408281543"><ele>452.0</ele><time>2026-03-29T10:20:51.003Z</time></trkpt><trkpt lat="37.366477866322896" lon="13.804620013940008"><ele>451.75</ele><time>2026-03-29T10:20:52.003Z</time></trkpt><trkpt lat="37.36633651439382" lon="13.804638457102458"><ele>451.5</ele><time>2026-03-29T10:20:53.003Z</time></trkpt><trkpt lat="37.36619162895985" lon="13.804639038273763"><ele>451.25</ele><time>2026-03-29T10:20:54.003Z</time></trkpt><trkpt lat="37.36605414485838" lon="13.804654558968014"><ele>451.0</ele><time>2026-03-29T10:20:55.003Z</time></trkpt><trkpt lat="37.36591524527968" lon="13.804668535317855"><ele>451.0</ele><time>2026-03-29T10:20:56.003Z</time></trkpt><trkpt lat="37.36577675647064" lon="13.804682859901659"><ele>451.0</ele><time>2026-03-29T10:20:57.003Z</time></trkpt><trkpt lat="37.36563986896312" lon="13.804689496375111"><ele>451.0</ele><time>2026-03-29T10:20:58.003Z</time></trkpt><trkpt lat="37.36550793391702" lon="13.80469093540347"><ele>451.0</ele><time>2026-03-29T10:20:59.003Z</time></trkpt><trkpt lat="37.36537614435977" lon="13.804704039878906"><ele>450.75</ele><time>2026-03-29T10:21:00.003Z</time></trkpt><trkpt lat="37.365241689755536" lon="13.804691373136347"><ele>450.5</ele><time>2026-03-29T10:21:01.003Z</time></trkpt><trkpt lat="37.36511268029581" lon="13.804678011173301"><ele>450.25</ele><time>2026-03-29T10:21:02.003Z</time></trkpt><trkpt lat="37.36499166885756" lon="13.80462895694169"><ele>450.0</ele><time>2026-03-29T10:21:03.001Z</time></trkpt><trkpt lat="37.36486793810733" lon="13.8045967402575"><ele>450.0</ele><time>2026-03-29T10:21:04.001Z</time></trkpt><trkpt lat="37.36473816744164" lon="13.804554003155555"><ele>450.0</ele><time>2026-03-29T10:21:05.001Z</time></trkpt><trkpt lat="37.36461674068484" lon="13.8045030305952"><ele>450.0</ele><time>2026-03-29T10:21:06.001Z</time></trkpt><trkpt lat="37.36450179519328" lon="13.804454296799593"><ele>450.0</ele><time>2026-03-29T10:21:07.001Z</time></trkpt><trkpt lat="37.36438618304578" lon="13.804406013641486"><ele>449.75</ele><time>2026-03-29T10:21:08.001Z</time></trkpt><trkpt lat="37.36426665338661" lon="13.80435645094577"><ele>449.5</ele><time>2026-03-29T10:21:09.001Z</time></trkpt><trkpt lat="37.36414932347074" lon="13.804310325936498"><ele>449.25</ele><time>2026-03-29T10:21:10.001Z</time></trkpt><trkpt lat="37.36403824060427" lon="13.804266656782415"><ele>449.0</ele><time>2026-03-29T10:21:11.001Z</time></trkpt><trkpt lat="37.36392778138195" lon="13.80421768753951"><ele>448.0</ele><time>2026-03-29T10:21:12.001Z</time></trkpt><trkpt lat="37.36381893875164" lon="13.804162927850648"><ele>447.0</ele><time>2026-03-29T10:21:13.001Z</time></trkpt><trkpt lat="37.36371696214986" lon="13.804098788422182"><ele>446.0</ele><time>2026-03-29T10:21:14.001Z</time></trkpt><trkpt lat="37.36361309405022" lon="13.80403155544829"><ele>445.0</ele><time>2026-03-29T10:21:15.001Z</time></trkpt><trkpt lat="37.36352389020815" lon="13.80396520249407"><ele>445.00000000000006</ele><time>2026-03-29T10:21:16.001Z</time></trkpt><trkpt lat="37.363437182135165" lon="13.803903610982662"><ele>445.0</ele><time>2026-03-29T10:21:17.001Z</time></trkpt><trkpt lat="37.363355281552636" lon="13.803849156133786"><ele>445.0</ele><time>2026-03-29T10:21:18.001Z</time></trkpt><trkpt lat="37.363278082438136" lon="13.803800116334779"><ele>445.0</ele><time>2026-03-29T10:21:19.001Z</time></trkpt><trkpt lat="37.36320242792413" lon="13.803756821225615"><ele>445.00000000000006</ele><time>2026-03-29T10:21:20.001Z</time></trkpt><trkpt lat="37.36313330128034" lon="13.803718079057816"><ele>445.0</ele><time>2026-03-29T10:21:21.001Z</time></trkpt><trkpt lat="37.36306660095616" lon="13.803681374682364"><ele>444.83333333333337</ele><time>2026-03-29T10:21:22.001Z</time></trkpt><trkpt lat="37.36300171501976" lon="13.803650381231794"><ele>444.6666666666667</ele><time>2026-03-29T10:21:23.001Z</time></trkpt><trkpt lat="37.36293587011185" lon="13.803624177363927"><ele>444.5</ele><time>2026-03-29T10:21:24.001Z</time></trkpt><trkpt lat="37.362858641615496" lon="13.803594288468684"><ele>444.33333333333337</ele><time>2026-03-29T10:21:25.001Z</time></trkpt><trkpt lat="37.36277954852151" lon="13.803570386490314"><ele>444.1666666666667</ele><time>2026-03-29T10:21:26.001Z</time></trkpt><trkpt lat="37.36269524625534" lon="13.803543004930962"><ele>444.0</ele><time>2026-03-29T10:21:27.001Z</time></trkpt><trkpt lat="37.36261495207959" lon="13.803517725330963"><ele>444.0</ele><time>2026-03-29T10:21:28.001Z</time></trkpt><trkpt lat="37.36254060735475" lon="13.803497853586322"><ele>444.0</ele><time>2026-03-29T10:21:29.001Z</time></trkpt><trkpt lat="37.36245888076827" lon="13.803481338313691"><ele>444.0</ele><time>2026-03-29T10:21:30.001Z</time></trkpt><trkpt lat="37.362367969605685" lon="13.803476936554729"><ele>444.0</ele><time>2026-03-29T10:21:31.001Z</time></trkpt><trkpt lat="37.36226994476082" lon="13.803437053428317"><ele>444.0</ele><time>2026-03-29T10:21:32.001Z</time></trkpt><trkpt lat="37.36217926992094" lon="13.803363355699224"><ele>442.5</ele><time>2026-03-29T10:21:33.001Z</time></trkpt><trkpt lat="37.36207734711415" lon="13.803300785325293"><ele>441.0</ele><time>2026-03-29T10:21:34.001Z</time></trkpt><trkpt lat="37.36196880426438" lon="13.803236005277187"><ele>439.5</ele><time>2026-03-29T10:21:35.001Z</time></trkpt><trkpt lat="37.361854092048404" lon="13.803179128735568"><ele>438.0</ele><time>2026-03-29T10:21:36.001Z</time></trkpt><trkpt lat="37.36174713035763" lon="13.803135976023052"><ele>438.0</ele><time>2026-03-29T10:21:37.001Z</time></trkpt><trkpt lat="37.36163464066062" lon="13.80311037761343"><ele>437.99999999999994</ele><time>2026-03-29T10:21:38.001Z</time></trkpt><trkpt lat="37.36152968425627" lon="13.803121578318644"><ele>437.99999999999994</ele><time>2026-03-29T10:21:39.001Z</time></trkpt><trkpt lat="37.36142723908074" lon="13.803129572809182"><ele>438.0</ele><time>2026-03-29T10:21:40.001Z</time></trkpt><trkpt lat="37.361325825412116" lon="13.803158139334743"><ele>438.0</ele><time>2026-03-29T10:21:41.001Z</time></trkpt><trkpt lat="37.3612301826485" lon="13.803198566412352"><ele>437.6666666666667</ele><time>2026-03-29T10:21:42.001Z</time></trkpt><trkpt lat="37.361141223658976" lon="13.803237762424148"><ele>437.33333333333337</ele><time>2026-03-29T10:21:43.001Z</time></trkpt><trkpt lat="37.36105354607716" lon="13.80328779987535"><ele>437.0</ele><time>2026-03-29T10:21:44.001Z</time></trkpt><trkpt lat="37.36097473686582" lon="13.803332960911705"><ele>436.6666666666667</ele><time>2026-03-29T10:21:45.001Z</time></trkpt><trkpt lat="37.36090294630618" lon="13.803369568718654"><ele>436.33333333333337</ele><time>2026-03-29T10:21:46.001Z</time></trkpt><trkpt lat="37.360837044388894" lon="13.8033990580287"><ele>436.0</ele><time>2026-03-29T10:21:47.002Z</time></trkpt><trkpt lat="37.36077609655045" lon="13.803421745077406"><ele>436.0</ele><time>2026-03-29T10:21:48.002Z</time></trkpt><trkpt lat="37.360673567695244" lon="13.803439055554756"><ele>436.0</ele><time>2026-03-29T10:21:50.002Z</time></trkpt><trkpt lat="37.36061943493381" lon="13.8033972445773"><ele>436.0</ele><time>2026-03-29T10:22:15.002Z</time></trkpt><trkpt lat="37.36041906287628" lon="13.803381718845964"><ele>436.0</ele><time>2026-03-29T10:22:27.003Z</time></trkpt><trkpt lat="37.3604632571158" lon="13.80363663303418"><ele>436.0</ele><time>2026-03-29T10:22:28.003Z</time></trkpt><trkpt lat="37.36042334663561" lon="13.80376279885938"><ele>436.0</ele><time>2026-03-29T10:22:29.003Z</time></trkpt><trkpt lat="37.36037667068905" lon="13.803903753906164"><ele>436.0</ele><time>2026-03-29T10:22:30.003Z</time></trkpt><trkpt lat="37.36032409840058" lon="13.804049241568613"><ele>436.0</ele><time>2026-03-29T10:22:31.003Z</time></trkpt><trkpt lat="37.360203070855086" lon="13.804373940655973"><ele>436.0</ele><time>2026-03-29T10:22:33.003Z</time></trkpt><trkpt lat="37.360136094229965" lon="13.8045515011853"><ele>436.0</ele><time>2026-03-29T10:22:34.003Z</time></trkpt><trkpt lat="37.36007014514231" lon="13.804733412536393"><ele>436.0</ele><time>2026-03-29T10:22:35.003Z</time></trkpt><trkpt lat="37.36000070483039" lon="13.80492184895716"><ele>436.0</ele><time>2026-03-29T10:22:36.003Z</time></trkpt><trkpt lat="37.35992911049472" lon="13.805115049260525"><ele>436.0</ele><time>2026-03-29T10:22:37.003Z</time></trkpt><trkpt lat="37.35985546252877" lon="13.805311596472448"><ele>436.0</ele><time>2026-03-29T10:22:38.003Z</time></trkpt><trkpt lat="37.35977959626862" lon="13.805510895722259"><ele>435.0</ele><time>2026-03-29T10:22:39.003Z</time></trkpt><trkpt lat="37.359700763788" lon="13.805712390788994"><ele>434.0</ele><time>2026-03-29T10:22:40.003Z</time></trkpt><trkpt lat="37.35961951800041" lon="13.805916173855161"><ele>433.0</ele><time>2026-03-29T10:22:41.003Z</time></trkpt><trkpt lat="37.359536480725225" lon="13.806121349996314"><ele>433.0</ele><time>2026-03-29T10:22:42.003Z</time></trkpt><trkpt lat="37.359446942227386" lon="13.806325875710717"><ele>433.0</ele><time>2026-03-29T10:22:43.002Z</time></trkpt><trkpt lat="37.35935339533506" lon="13.806532096761616"><ele>433.0</ele><time>2026-03-29T10:22:44.002Z</time></trkpt><trkpt lat="37.35925556586567" lon="13.806743394169995"><ele>434.33333333333337</ele><time>2026-03-29T10:22:45.002Z</time></trkpt><trkpt lat="37.35915419951711" lon="13.80695947287182"><ele>435.66666666666663</ele><time>2026-03-29T10:22:46.002Z</time></trkpt><trkpt lat="37.359051919484266" lon="13.807179178125477"><ele>437.0</ele><time>2026-03-29T10:22:47.002Z</time></trkpt><trkpt lat="37.35894789588352" lon="13.807404143905677"><ele>435.66666666666663</ele><time>2026-03-29T10:22:48.002Z</time></trkpt><trkpt lat="37.35884409306243" lon="13.807634243944133"><ele>434.33333333333337</ele><time>2026-03-29T10:22:49.002Z</time></trkpt><trkpt lat="37.35873757347295" lon="13.807865938143408"><ele>433.0</ele><time>2026-03-29T10:22:50.002Z</time></trkpt><trkpt lat="37.35862999521912" lon="13.80809703422391"><ele>433.0</ele><time>2026-03-29T10:22:51.002Z</time></trkpt><trkpt lat="37.35852172696552" lon="13.808327944649806"><ele>433.0</ele><time>2026-03-29T10:22:52.002Z</time></trkpt><trkpt lat="37.358414359992445" lon="13.80855789719835"><ele>433.0</ele><time>2026-03-29T10:22:53.002Z</time></trkpt><trkpt lat="37.358309401976754" lon="13.808788513571786"><ele>433.0</ele><time>2026-03-29T10:22:54.002Z</time></trkpt><trkpt lat="37.358204136561426" lon="13.809017187675767"><ele>433.0</ele><time>2026-03-29T10:22:55.002Z</time></trkpt><trkpt lat="37.35809830027813" lon="13.809244993822194"><ele>433.0</ele><time>2026-03-29T10:22:56.002Z</time></trkpt><trkpt lat="37.35799183809406" lon="13.809472951766454"><ele>433.0</ele><time>2026-03-29T10:22:57.003Z</time></trkpt><trkpt lat="37.35788572471151" lon="13.809700996528534"><ele>433.0</ele><time>2026-03-29T10:22:58.003Z</time></trkpt><trkpt lat="37.3577788288132" lon="13.809928030621382"><ele>433.0</ele><time>2026-03-29T10:22:59.003Z</time></trkpt><trkpt lat="37.357672026929755" lon="13.810155072037688"><ele>434.0</ele><time>2026-03-29T10:23:00.003Z</time></trkpt><trkpt lat="37.357564834335896" lon="13.810378515073392"><ele>435.0</ele><time>2026-03-29T10:23:01.003Z</time></trkpt><trkpt lat="37.35745629900321" lon="13.810599698486053"><ele>436.0</ele><time>2026-03-29T10:23:02.003Z</time></trkpt><trkpt lat="37.3573462885771" lon="13.810819086955718"><ele>437.6666666666667</ele><time>2026-03-29T10:23:03.003Z</time></trkpt><trkpt lat="37.35723720084812" lon="13.811037109769117"><ele>439.33333333333337</ele><time>2026-03-29T10:23:04.003Z</time></trkpt><trkpt lat="37.35713007007888" lon="13.811256623035447"><ele>441.0</ele><time>2026-03-29T10:23:05.003Z</time></trkpt><trkpt lat="37.35702405190463" lon="13.811480021175498"><ele>438.66666666666663</ele><time>2026-03-29T10:23:06.003Z</time></trkpt><trkpt lat="37.3569202849593" lon="13.811707139211583"><ele>436.3333333333333</ele><time>2026-03-29T10:23:07.003Z</time></trkpt><trkpt lat="37.35681877007223" lon="13.811941076480435"><ele>434.0</ele><time>2026-03-29T10:23:08.003Z</time></trkpt><trkpt lat="37.35672513894876" lon="13.81217689645938"><ele>434.0</ele><time>2026-03-29T10:23:09.001Z</time></trkpt><trkpt lat="37.35663962686789" lon="13.812417533625126"><ele>434.0</ele><time>2026-03-29T10:23:10.001Z</time></trkpt><trkpt lat="37.356565106388956" lon="13.81266220683703"><ele>434.0</ele><time>2026-03-29T10:23:11.001Z</time></trkpt><trkpt lat="37.35649636392477" lon="13.812901412717652"><ele>435.0</ele><time>2026-03-29T10:23:12.001Z</time></trkpt><trkpt lat="37.35642700262405" lon="13.813140902967056"><ele>436.0</ele><time>2026-03-29T10:23:13.001Z</time></trkpt><trkpt lat="37.356359581996166" lon="13.81338060393079"><ele>437.0</ele><time>2026-03-29T10:23:14.001Z</time></trkpt><trkpt lat="37.356294024593566" lon="13.813619917725463"><ele>434.66666666666663</ele><time>2026-03-29T10:23:15.001Z</time></trkpt><trkpt lat="37.356230545264054" lon="13.813860800711575"><ele>432.33333333333337</ele><time>2026-03-29T10:23:16.001Z</time></trkpt><trkpt lat="37.356175062850824" lon="13.81409942247088"><ele>430.0</ele><time>2026-03-29T10:23:17.001Z</time></trkpt><trkpt lat="37.35613026676865" lon="13.814328119417542"><ele>430.0</ele><time>2026-03-29T10:23:18.001Z</time></trkpt><trkpt lat="37.35609508986346" lon="13.814553387408065"><ele>430.0</ele><time>2026-03-29T10:23:19.001Z</time></trkpt><trkpt lat="37.356067224378634" lon="13.814766824961131"><ele>430.0</ele><time>2026-03-29T10:23:20.001Z</time></trkpt><trkpt lat="37.3560410611797" lon="13.814987848176047"><ele>429.33333333333337</ele><time>2026-03-29T10:23:21.001Z</time></trkpt><trkpt lat="37.35602172029978" lon="13.815228849306223"><ele>428.66666666666663</ele><time>2026-03-29T10:23:22.001Z</time></trkpt><trkpt lat="37.356009956502234" lon="13.815487138127986"><ele>428.0</ele><time>2026-03-29T10:23:23.001Z</time></trkpt><trkpt lat="37.35599945305032" lon="13.815759506578543"><ele>427.3333333333333</ele><time>2026-03-29T10:23:24.001Z</time></trkpt><trkpt lat="37.355990343026775" lon="13.816036450628918"><ele>426.66666666666663</ele><time>2026-03-29T10:23:25.001Z</time></trkpt><trkpt lat="37.35598648129453" lon="13.816323362919526"><ele>426.0</ele><time>2026-03-29T10:23:26.001Z</time></trkpt><trkpt lat="37.35598250815136" lon="13.816626940255407"><ele>425.5</ele><time>2026-03-29T10:23:27.001Z</time></trkpt><trkpt lat="37.35598009158803" lon="13.816946360866869"><ele>425.0</ele><time>2026-03-29T10:23:28.001Z</time></trkpt><trkpt lat="37.355976155897544" lon="13.817267131287435"><ele>425.0</ele><time>2026-03-29T10:23:29.001Z</time></trkpt><trkpt lat="37.35597107429983" lon="13.817572054225126"><ele>425.0</ele><time>2026-03-29T10:23:30.001Z</time></trkpt><trkpt lat="37.355963008705295" lon="13.817869840585399"><ele>424.66666666666663</ele><time>2026-03-29T10:23:31.001Z</time></trkpt><trkpt lat="37.35595175915836" lon="13.818152298620678"><ele>424.33333333333337</ele><time>2026-03-29T10:23:32.001Z</time></trkpt><trkpt lat="37.355937062699354" lon="13.818432241861522"><ele>424.0</ele><time>2026-03-29T10:23:33.001Z</time></trkpt><trkpt lat="37.35592193988119" lon="13.81874710518778"><ele>422.0</ele><time>2026-03-29T10:23:34.001Z</time></trkpt><trkpt lat="37.355893642051264" lon="13.819072650593988"><ele>420.0</ele><time>2026-03-29T10:23:35.001Z</time></trkpt><trkpt lat="37.35585090595862" lon="13.819400945339599"><ele>419.0</ele><time>2026-03-29T10:23:36.001Z</time></trkpt><trkpt lat="37.35580980689949" lon="13.819728569063091"><ele>418.0</ele><time>2026-03-29T10:23:37.001Z</time></trkpt><trkpt lat="37.3557734314775" lon="13.820055720064857"><ele>419.0</ele><time>2026-03-29T10:23:38.001Z</time></trkpt><trkpt lat="37.3557342182169" lon="13.820376256798932"><ele>420.0</ele><time>2026-03-29T10:23:39.001Z</time></trkpt><trkpt lat="37.3556947430686" lon="13.820686336022044"><ele>422.0</ele><time>2026-03-29T10:23:40.001Z</time></trkpt><trkpt lat="37.35565693342633" lon="13.820986078377196"><ele>424.0</ele><time>2026-03-29T10:23:41.001Z</time></trkpt><trkpt lat="37.355621003847645" lon="13.821280053063427"><ele>424.0</ele><time>2026-03-29T10:23:42.001Z</time></trkpt><trkpt lat="37.3555854187877" lon="13.821572778849188"><ele>424.0</ele><time>2026-03-29T10:23:43.001Z</time></trkpt><trkpt lat="37.3555491603589" lon="13.821857696671149"><ele>424.0</ele><time>2026-03-29T10:23:44.001Z</time></trkpt><trkpt lat="37.35551300421149" lon="13.822138610330098"><ele>424.0</ele><time>2026-03-29T10:23:45.001Z</time></trkpt><trkpt lat="37.35547685943173" lon="13.822404722809338"><ele>424.0</ele><time>2026-03-29T10:23:46.001Z</time></trkpt><trkpt lat="37.35544111096538" lon="13.82265587589933"><ele>424.33333333333337</ele><time>2026-03-29T10:23:47.001Z</time></trkpt><trkpt lat="37.3554064851999" lon="13.8229018411591"><ele>424.66666666666663</ele><time>2026-03-29T10:23:48.001Z</time></trkpt><trkpt lat="37.35537174343276" lon="13.823143021107118"><ele>425.0</ele><time>2026-03-29T10:23:49.001Z</time></trkpt><trkpt lat="37.355331997835094" lon="13.823378741411808"><ele>425.0</ele><time>2026-03-29T10:23:50.001Z</time></trkpt><trkpt lat="37.355282762737154" lon="13.823609626989828"><ele>425.0</ele><time>2026-03-29T10:23:51.001Z</time></trkpt><trkpt lat="37.355225407301134" lon="13.823835614695163"><ele>425.0</ele><time>2026-03-29T10:23:52.001Z</time></trkpt><trkpt lat="37.355162289336235" lon="13.824057386106396"><ele>425.0</ele><time>2026-03-29T10:23:53.001Z</time></trkpt><trkpt lat="37.355094073336225" lon="13.824276716891147"><ele>425.0</ele><time>2026-03-29T10:23:54.001Z</time></trkpt><trkpt lat="37.35502222468382" lon="13.824492155037612"><ele>425.0</ele><time>2026-03-29T10:23:55.001Z</time></trkpt><trkpt lat="37.354949962047" lon="13.824702098786965"><ele>425.0</ele><time>2026-03-29T10:23:56.001Z</time></trkpt><trkpt lat="37.354877549710174" lon="13.824908043079985"><ele>425.0</ele><time>2026-03-29T10:23:57.001Z</time></trkpt><trkpt lat="37.35480709555573" lon="13.825112773016093"><ele>425.0</ele><time>2026-03-29T10:23:58.001Z</time></trkpt><trkpt lat="37.35473861839672" lon="13.825313596668387"><ele>425.3333333333333</ele><time>2026-03-29T10:23:59.001Z</time></trkpt><trkpt lat="37.354673615560664" lon="13.825503424491247"><ele>425.66666666666663</ele><time>2026-03-29T10:24:00.001Z</time></trkpt><trkpt lat="37.354610295788454" lon="13.825690232070276"><ele>426.0</ele><time>2026-03-29T10:24:01.001Z</time></trkpt><trkpt lat="37.35454637384349" lon="13.825871619665902"><ele>426.66666666666663</ele><time>2026-03-29T10:24:02.001Z</time></trkpt><trkpt lat="37.35448207566939" lon="13.826051253090315"><ele>427.3333333333333</ele><time>2026-03-29T10:24:03.001Z</time></trkpt><trkpt lat="37.35441586197732" lon="13.826240316166677"><ele>428.0</ele><time>2026-03-29T10:24:04.001Z</time></trkpt><trkpt lat="37.35434829195162" lon="13.82643366439123"><ele>428.0</ele><time>2026-03-29T10:24:05.001Z</time></trkpt><trkpt lat="37.35428176560903" lon="13.826628467690677"><ele>428.0</ele><time>2026-03-29T10:24:06.001Z</time></trkpt><trkpt lat="37.354216606976095" lon="13.826816728902617"><ele>428.0</ele><time>2026-03-29T10:24:07.001Z</time></trkpt><trkpt lat="37.35415429760644" lon="13.827003918218736"><ele>428.66666666666663</ele><time>2026-03-29T10:24:08.001Z</time></trkpt><trkpt lat="37.354093349375646" lon="13.82718779153704"><ele>429.33333333333337</ele><time>2026-03-29T10:24:09.001Z</time></trkpt><trkpt lat="37.354033140625816" lon="13.827370764469341"><ele>430.0</ele><time>2026-03-29T10:24:10.001Z</time></trkpt><trkpt lat="37.35397370671948" lon="13.827551886831094"><ele>429.33333333333337</ele><time>2026-03-29T10:24:11.001Z</time></trkpt><trkpt lat="37.35391248057616" lon="13.827728386024752"><ele>428.66666666666663</ele><time>2026-03-29T10:24:12.001Z</time></trkpt><trkpt lat="37.353853663979855" lon="13.827904919896929"><ele>428.0</ele><time>2026-03-29T10:24:13.001Z</time></trkpt><trkpt lat="37.353787684960984" lon="13.828080159512252"><ele>428.0</ele><time>2026-03-29T10:24:14.002Z</time></trkpt><trkpt lat="37.35372261544495" lon="13.828262210099668"><ele>428.0</ele><time>2026-03-29T10:24:15.002Z</time></trkpt><trkpt lat="37.35365522739934" lon="13.828449122486886"><ele>428.0</ele><time>2026-03-29T10:24:16.002Z</time></trkpt><trkpt lat="37.35358808815562" lon="13.828635650999873"><ele>429.3333333333333</ele><time>2026-03-29T10:24:17.002Z</time></trkpt><trkpt lat="37.35352255744107" lon="13.828826385100088"><ele>430.66666666666663</ele><time>2026-03-29T10:24:18.002Z</time></trkpt><trkpt lat="37.35345699221229" lon="13.82901635288394"><ele>432.0</ele><time>2026-03-29T10:24:19.002Z</time></trkpt><trkpt lat="37.353390344318306" lon="13.829208578955157"><ele>432.66666666666663</ele><time>2026-03-29T10:24:20.002Z</time></trkpt><trkpt lat="37.35332521729057" lon="13.829395494356483"><ele>433.3333333333333</ele><time>2026-03-29T10:24:21.002Z</time></trkpt><trkpt lat="37.35325969145744" lon="13.829585403010947"><ele>434.0</ele><time>2026-03-29T10:24:22.002Z</time></trkpt><trkpt lat="37.35319721655431" lon="13.829770065433403"><ele>434.0</ele><time>2026-03-29T10:24:23.002Z</time></trkpt><trkpt lat="37.35313499378078" lon="13.829952874199133"><ele>434.0</ele><time>2026-03-29T10:24:24.002Z</time></trkpt><trkpt lat="37.353070866553864" lon="13.830128078691567"><ele>434.0</ele><time>2026-03-29T10:24:25.002Z</time></trkpt><trkpt lat="37.35301223032373" lon="13.830302998965957"><ele>433.66666666666663</ele><time>2026-03-29T10:24:26.002Z</time></trkpt><trkpt lat="37.352951344298276" lon="13.83047845116919"><ele>433.33333333333337</ele><time>2026-03-29T10:24:27.002Z</time></trkpt><trkpt lat="37.352891555887865" lon="13.830655490832733"><ele>433.0</ele><time>2026-03-29T10:24:28.002Z</time></trkpt><trkpt lat="37.35283324913022" lon="13.83082765759548"><ele>433.5</ele><time>2026-03-29T10:24:29.002Z</time></trkpt><trkpt lat="37.35277882709523" lon="13.830996551725606"><ele>434.0</ele><time>2026-03-29T10:24:30.002Z</time></trkpt><trkpt lat="37.352727972288115" lon="13.831156499835602"><ele>434.5</ele><time>2026-03-29T10:24:31.002Z</time></trkpt><trkpt lat="37.352676226046384" lon="13.831306131312264"><ele>435.0</ele><time>2026-03-29T10:24:32.002Z</time></trkpt><trkpt lat="37.352627089894696" lon="13.831454988247739"><ele>435.0</ele><time>2026-03-29T10:24:33.002Z</time></trkpt><trkpt lat="37.35257983406193" lon="13.831605880691226"><ele>435.0</ele><time>2026-03-29T10:24:34.002Z</time></trkpt><trkpt lat="37.3525379240101" lon="13.83175374764874"><ele>435.0</ele><time>2026-03-29T10:24:35.002Z</time></trkpt><trkpt lat="37.35249677729455" lon="13.8318878473699"><ele>435.0</ele><time>2026-03-29T10:24:36.002Z</time></trkpt><trkpt lat="37.35245753073012" lon="13.83201277705055"><ele>435.4</ele><time>2026-03-29T10:24:37.002Z</time></trkpt><trkpt lat="37.35242036983296" lon="13.832137644905302"><ele>435.8</ele><time>2026-03-29T10:24:38.002Z</time></trkpt><trkpt lat="37.35238892945217" lon="13.832251513746433"><ele>436.20000000000005</ele><time>2026-03-29T10:24:39.002Z</time></trkpt><trkpt lat="37.3523641292064" lon="13.832344183608987"><ele>436.6</ele><time>2026-03-29T10:24:40.002Z</time></trkpt><trkpt lat="37.35233464528847" lon="13.83245720719268"><ele>437.0</ele><time>2026-03-29T10:24:42.002Z</time></trkpt><trkpt lat="37.35231144371102" lon="13.832550488540312"><ele>437.16666666666663</ele><time>2026-03-29T10:24:44.002Z</time></trkpt><trkpt lat="37.35228414848131" lon="13.832649247251664"><ele>437.3333333333333</ele><time>2026-03-29T10:24:46.002Z</time></trkpt><trkpt lat="37.352246628461074" lon="13.83278819449579"><ele>437.5</ele><time>2026-03-29T10:24:48.002Z</time></trkpt><trkpt lat="37.35222385081241" lon="13.83287497632831"><ele>437.66666666666663</ele><time>2026-03-29T10:24:49.002Z</time></trkpt><trkpt lat="37.35220144455787" lon="13.83296169383416"><ele>437.8333333333333</ele><time>2026-03-29T10:24:50.002Z</time></trkpt><trkpt lat="37.352179629449275" lon="13.833047557073751"><ele>438.0</ele><time>2026-03-29T10:24:51.002Z</time></trkpt><trkpt lat="37.35215561064349" lon="13.833142687886994"><ele>438.0</ele><time>2026-03-29T10:24:52.003Z</time></trkpt><trkpt lat="37.35213357764974" lon="13.833233917804028"><ele>437.99999999999994</ele><time>2026-03-29T10:24:53.003Z</time></trkpt><trkpt lat="37.352111882635306" lon="13.833329885048189"><ele>437.99999999999994</ele><time>2026-03-29T10:24:54.003Z</time></trkpt><trkpt lat="37.35209302395529" lon="13.833445972455925"><ele>438.0</ele><time>2026-03-29T10:24:55.003Z</time></trkpt><trkpt lat="37.3520528880433" lon="13.833583279033867"><ele>438.0</ele><time>2026-03-29T10:24:56.003Z</time></trkpt><trkpt lat="37.35202389787166" lon="13.833735668320632"><ele>438.4</ele><time>2026-03-29T10:24:57.003Z</time></trkpt><trkpt lat="37.352007856772744" lon="13.833894989414148"><ele>438.79999999999995</ele><time>2026-03-29T10:24:58.003Z</time></trkpt><trkpt lat="37.35198080249592" lon="13.834029532759194"><ele>439.2</ele><time>2026-03-29T10:24:59.003Z</time></trkpt><trkpt lat="37.35196075050342" lon="13.834136530640242"><ele>439.6</ele><time>2026-03-29T10:25:00.003Z</time></trkpt><trkpt lat="37.35194203379458" lon="13.834240387637793"><ele>440.0</ele><time>2026-03-29T10:25:01.003Z</time></trkpt><trkpt lat="37.35190499988762" lon="13.834383547875943"><ele>440.0</ele><time>2026-03-29T10:25:02.003Z</time></trkpt><trkpt lat="37.35189220512269" lon="13.834561582931721"><ele>440.0</ele><time>2026-03-29T10:25:03.003Z</time></trkpt><trkpt lat="37.351856830972956" lon="13.834735698750992"><ele>440.0</ele><time>2026-03-29T10:25:04.003Z</time></trkpt><trkpt lat="37.35182669402262" lon="13.834907260524707"><ele>440.0</ele><time>2026-03-29T10:25:05.003Z</time></trkpt><trkpt lat="37.35180475985438" lon="13.835063602269214"><ele>439.5</ele><time>2026-03-29T10:25:06.003Z</time></trkpt><trkpt lat="37.351783514117884" lon="13.835211944197681"><ele>439.0</ele><time>2026-03-29T10:25:07.003Z</time></trkpt><trkpt lat="37.35177829531571" lon="13.83534821555021"><ele>438.5</ele><time>2026-03-29T10:25:08.003Z</time></trkpt><trkpt lat="37.35175815111618" lon="13.835480454455151"><ele>438.0</ele><time>2026-03-29T10:25:09.003Z</time></trkpt><trkpt lat="37.351748392523305" lon="13.835630728179169"><ele>438.0</ele><time>2026-03-29T10:25:10.003Z</time></trkpt><trkpt lat="37.35171711480357" lon="13.83576270960082"><ele>437.99999999999994</ele><time>2026-03-29T10:25:11.003Z</time></trkpt><trkpt lat="37.35170074081143" lon="13.835898465069869"><ele>437.99999999999994</ele><time>2026-03-29T10:25:12.003Z</time></trkpt><trkpt lat="37.35169714871357" lon="13.836008740531403"><ele>438.0</ele><time>2026-03-29T10:25:13.003Z</time></trkpt><trkpt lat="37.351679697150374" lon="13.836113496530924"><ele>438.0</ele><time>2026-03-29T10:25:14.003Z</time></trkpt><trkpt lat="37.351681106712746" lon="13.836206934941984"><ele>438.1666666666667</ele><time>2026-03-29T10:25:15.001Z</time></trkpt><trkpt lat="37.35166547905027" lon="13.836285028816127"><ele>438.33333333333337</ele><time>2026-03-29T10:25:16.001Z</time></trkpt><trkpt lat="37.351627671125925" lon="13.836428627682668"><ele>438.5</ele><time>2026-03-29T10:25:18.001Z</time></trkpt><trkpt lat="37.35161743470357" lon="13.836521784315753"><ele>438.6666666666667</ele><time>2026-03-29T10:25:19.001Z</time></trkpt><trkpt lat="37.35161868881089" lon="13.836629361144668"><ele>438.83333333333337</ele><time>2026-03-29T10:25:20.001Z</time></trkpt><trkpt lat="37.35162722007014" lon="13.836746436139249"><ele>439.0</ele><time>2026-03-29T10:25:21.001Z</time></trkpt><trkpt lat="37.351634442618476" lon="13.8368794293191"><ele>439.0</ele><time>2026-03-29T10:25:22.001Z</time></trkpt><trkpt lat="37.35163466320968" lon="13.837019539243048"><ele>439.0</ele><time>2026-03-29T10:25:23.001Z</time></trkpt><trkpt lat="37.35162853705574" lon="13.837168563429145"><ele>439.0</ele><time>2026-03-29T10:25:24Z</time></trkpt><trkpt lat="37.35162367209721" lon="13.837328436463583"><ele>439.0</ele><time>2026-03-29T10:25:25Z</time></trkpt><trkpt lat="37.35161818433796" lon="13.837494288664837"><ele>439.0</ele><time>2026-03-29T10:25:26Z</time></trkpt><trkpt lat="37.351617757792305" lon="13.837657173843262"><ele>439.0</ele><time>2026-03-29T10:25:27Z</time></trkpt><trkpt lat="37.351618974770254" lon="13.837812287224606"><ele>439.0</ele><time>2026-03-29T10:25:28Z</time></trkpt><trkpt lat="37.351624178152" lon="13.837949411003846"><ele>439.0</ele><time>2026-03-29T10:25:29Z</time></trkpt><trkpt lat="37.351631356785056" lon="13.838080926365208"><ele>439.00000000000006</ele><time>2026-03-29T10:25:30Z</time></trkpt><trkpt lat="37.35163866512254" lon="13.838201928897258"><ele>439.0</ele><time>2026-03-29T10:25:31Z</time></trkpt><trkpt lat="37.35164835976372" lon="13.838309010543151"><ele>439.0</ele><time>2026-03-29T10:25:32Z</time></trkpt><trkpt lat="37.35165752796642" lon="13.83840300517333"><ele>439.0</ele><time>2026-03-29T10:25:33Z</time></trkpt><trkpt lat="37.351668303680384" lon="13.838495008684326"><ele>439.00000000000006</ele><time>2026-03-29T10:25:34Z</time></trkpt><trkpt lat="37.351678708291566" lon="13.838589171485138"><ele>439.0</ele><time>2026-03-29T10:25:35Z</time></trkpt><trkpt lat="37.35168860482901" lon="13.838682897950322"><ele>439.00000000000006</ele><time>2026-03-29T10:25:36Z</time></trkpt><trkpt lat="37.35169887242711" lon="13.838771669324663"><ele>439.0</ele><time>2026-03-29T10:25:37Z</time></trkpt><trkpt lat="37.351707900163966" lon="13.83885028666349"><ele>439.0</ele><time>2026-03-29T10:25:38Z</time></trkpt><trkpt lat="37.35171937326329" lon="13.838951553084119"><ele>439.0</ele><time>2026-03-29T10:25:40.001Z</time></trkpt><trkpt lat="37.3517289287817" lon="13.839072149037545"><ele>439.00000000000006</ele><time>2026-03-29T10:25:45.001Z</time></trkpt><trkpt lat="37.35168459835581" lon="13.839142793132794"><ele>439.0</ele><time>2026-03-29T10:25:47.001Z</time></trkpt><trkpt lat="37.35155562714432" lon="13.839120827576679"><ele>439.0</ele><time>2026-03-29T10:25:49.001Z</time></trkpt><trkpt lat="37.351493418179494" lon="13.839089551532759"><ele>439.0</ele><time>2026-03-29T10:25:50.001Z</time></trkpt><trkpt lat="37.35142536677465" lon="13.839057259817578"><ele>439.0</ele><time>2026-03-29T10:25:51.001Z</time></trkpt><trkpt lat="37.35136063198605" lon="13.839029592050197"><ele>439.0</ele><time>2026-03-29T10:25:52.001Z</time></trkpt><trkpt lat="37.35128207737802" lon="13.839024109408326"><ele>439.0</ele><time>2026-03-29T10:25:53.001Z</time></trkpt><trkpt lat="37.35120658150316" lon="13.839033522097742"><ele>439.0</ele><time>2026-03-29T10:25:54.001Z</time></trkpt><trkpt lat="37.351125823395364" lon="13.839054938701832"><ele>439.0</ele><time>2026-03-29T10:25:55.001Z</time></trkpt><trkpt lat="37.35104502300641" lon="13.83908844058848"><ele>437.79999999999995</ele><time>2026-03-29T10:25:56.001Z</time></trkpt><trkpt lat="37.35096277966981" lon="13.839125827201501"><ele>436.59999999999997</ele><time>2026-03-29T10:25:57.001Z</time></trkpt><trkpt lat="37.35088044561587" lon="13.839172562122675"><ele>435.4</ele><time>2026-03-29T10:25:58.001Z</time></trkpt><trkpt lat="37.35080043399525" lon="13.839236071312927"><ele>434.2</ele><time>2026-03-29T10:25:59.001Z</time></trkpt><trkpt lat="37.350721454888856" lon="13.839321005771724"><ele>433.0</ele><time>2026-03-29T10:26:00.001Z</time></trkpt><trkpt lat="37.35065155595978" lon="13.839407841155628"><ele>432.0</ele><time>2026-03-29T10:26:01.001Z</time></trkpt><trkpt lat="37.350589437585846" lon="13.83950136205626"><ele>430.99999999999994</ele><time>2026-03-29T10:26:02.001Z</time></trkpt><trkpt lat="37.350532130539136" lon="13.839601041099993"><ele>429.99999999999994</ele><time>2026-03-29T10:26:03.001Z</time></trkpt><trkpt lat="37.35048904417665" lon="13.839709461092529"><ele>429.0</ele><time>2026-03-29T10:26:04.001Z</time></trkpt><trkpt lat="37.35045728475319" lon="13.839821669871084"><ele>428.0</ele><time>2026-03-29T10:26:05.001Z</time></trkpt><trkpt lat="37.35043859638459" lon="13.839939300091004"><ele>427.79999999999995</ele><time>2026-03-29T10:26:06.001Z</time></trkpt><trkpt lat="37.3504351069135" lon="13.840177327458619"><ele>427.59999999999997</ele><time>2026-03-29T10:26:08.001Z</time></trkpt><trkpt lat="37.3504505434617" lon="13.840290585714827"><ele>427.40000000000003</ele><time>2026-03-29T10:26:09.001Z</time></trkpt><trkpt lat="37.350469593351285" lon="13.840394441568154"><ele>427.20000000000005</ele><time>2026-03-29T10:26:10.001Z</time></trkpt><trkpt lat="37.35049217918068" lon="13.840492246466338"><ele>427.0</ele><time>2026-03-29T10:26:11.001Z</time></trkpt><trkpt lat="37.350519130863475" lon="13.840593227506057"><ele>427.0</ele><time>2026-03-29T10:26:12.001Z</time></trkpt><trkpt lat="37.35055181889282" lon="13.84070765103548"><ele>427.00000000000006</ele><time>2026-03-29T10:26:13.001Z</time></trkpt><trkpt lat="37.350586541958236" lon="13.840835810118032"><ele>427.00000000000006</ele><time>2026-03-29T10:26:14.001Z</time></trkpt><trkpt lat="37.35062169159314" lon="13.84097793908759"><ele>427.0</ele><time>2026-03-29T10:26:15.001Z</time></trkpt><trkpt lat="37.35065975838707" lon="13.841124304368275"><ele>427.0</ele><time>2026-03-29T10:26:16.001Z</time></trkpt><trkpt lat="37.350692942069806" lon="13.841257747813684"><ele>427.00000000000006</ele><time>2026-03-29T10:26:17.001Z</time></trkpt><trkpt lat="37.35072434396995" lon="13.841379406698941"><ele>427.0</ele><time>2026-03-29T10:26:18.001Z</time></trkpt><trkpt lat="37.35075090189946" lon="13.841484700099507"><ele>427.0</ele><time>2026-03-29T10:26:19.001Z</time></trkpt><trkpt lat="37.350773630754155" lon="13.841584809205061"><ele>427.0</ele><time>2026-03-29T10:26:20.001Z</time></trkpt><trkpt lat="37.35079469152439" lon="13.84167499219315"><ele>427.00000000000006</ele><time>2026-03-29T10:26:21.001Z</time></trkpt><trkpt lat="37.350814141921504" lon="13.841752107300485"><ele>427.0</ele><time>2026-03-29T10:26:22.001Z</time></trkpt><trkpt lat="37.350825617988384" lon="13.84185990010638"><ele>426.6</ele><time>2026-03-29T10:26:24.002Z</time></trkpt><trkpt lat="37.35071372467166" lon="13.841939382469283"><ele>426.20000000000005</ele><time>2026-03-29T10:26:26.002Z</time></trkpt><trkpt lat="37.35064292528346" lon="13.841957559826831"><ele>425.8</ele><time>2026-03-29T10:26:27.002Z</time></trkpt><trkpt lat="37.350575210835615" lon="13.84199282644558"><ele>425.4</ele><time>2026-03-29T10:26:28.002Z</time></trkpt><trkpt lat="37.350467420150515" lon="13.842038647400102"><ele>425.0</ele><time>2026-03-29T10:26:30.002Z</time></trkpt><trkpt lat="37.35039456617127" lon="13.842077625979483"><ele>424.8</ele><time>2026-03-29T10:26:32.002Z</time></trkpt><trkpt lat="37.350365018559415" lon="13.842228107259466"><ele>424.6</ele><time>2026-03-29T10:26:36.002Z</time></trkpt><trkpt lat="37.35039193575929" lon="13.842315344228439"><ele>424.4</ele><time>2026-03-29T10:26:38.002Z</time></trkpt><trkpt lat="37.35042583809379" lon="13.842420262090036"><ele>424.2</ele><time>2026-03-29T10:26:41.002Z</time></trkpt><trkpt lat="37.350480838003875" lon="13.842553075303135"><ele>424.0</ele><time>2026-03-29T10:26:43.002Z</time></trkpt><trkpt lat="37.35053716882326" lon="13.842639352455645"><ele>424.00000000000006</ele><time>2026-03-29T10:26:46.002Z</time></trkpt><trkpt lat="37.350599797171405" lon="13.842656521060182"><ele>424.0</ele><time>2026-03-29T10:26:48.002Z</time></trkpt><trkpt lat="37.350696111172645" lon="13.842759923035134"><ele>424.0</ele><time>2026-03-29T10:26:50.002Z</time></trkpt><trkpt lat="37.35073556583669" lon="13.842824092226573"><ele>424.0</ele><time>2026-03-29T10:26:59.002Z</time></trkpt><trkpt lat="37.35079588960759" lon="13.842893218362873"><ele>424.00000000000006</ele><time>2026-03-29T10:27:17.003Z</time></trkpt><trkpt lat="37.350879343001786" lon="13.842964176954828"><ele>424.0</ele><time>2026-03-29T10:27:19.003Z</time></trkpt><trkpt lat="37.35093911300363" lon="13.843011577050152"><ele>424.00000000000006</ele><time>2026-03-29T10:27:23Z</time></trkpt><trkpt lat="37.35098820116672" lon="13.843078320160517"><ele>424.0</ele><time>2026-03-29T10:27:25Z</time></trkpt><trkpt lat="37.35104031033838" lon="13.84314163360102"><ele>424.0</ele><time>2026-03-29T10:27:29Z</time></trkpt><trkpt lat="37.35109001632209" lon="13.843211066230412"><ele>424.0</ele><time>2026-03-29T10:27:45Z</time></trkpt><trkpt lat="37.35114443295088" lon="13.843251775286415"><ele>424.00000000000006</ele><time>2026-03-29T10:27:47Z</time></trkpt><trkpt lat="37.35120705181901" lon="13.843314641952478"><ele>424.0</ele><time>2026-03-29T10:27:50Z</time></trkpt><trkpt lat="37.351320552264255" lon="13.843413050081006"><ele>425.00000000000006</ele><time>2026-03-29T10:27:52Z</time></trkpt><trkpt lat="37.35137898193695" lon="13.843470984794324"><ele>426.0</ele><time>2026-03-29T10:27:53Z</time></trkpt><trkpt lat="37.351438268249446" lon="13.843525635409847"><ele>427.0</ele><time>2026-03-29T10:27:54Z</time></trkpt><trkpt lat="37.35150294675416" lon="13.843579748685974"><ele>428.0</ele><time>2026-03-29T10:27:55Z</time></trkpt><trkpt lat="37.35156716460803" lon="13.84363340754657"><ele>429.00000000000006</ele><time>2026-03-29T10:27:56Z</time></trkpt><trkpt lat="37.351632076062394" lon="13.843692148079484"><ele>430.0</ele><time>2026-03-29T10:27:57Z</time></trkpt><trkpt lat="37.35169139253448" lon="13.843751674640288"><ele>430.00000000000006</ele><time>2026-03-29T10:27:58Z</time></trkpt><trkpt lat="37.351754419101425" lon="13.843806525165554"><ele>430.0</ele><time>2026-03-29T10:27:59Z</time></trkpt><trkpt lat="37.351816423310744" lon="13.843859863808927"><ele>430.0</ele><time>2026-03-29T10:28:00Z</time></trkpt><trkpt lat="37.35187138111321" lon="13.843909928654233"><ele>430.0</ele><time>2026-03-29T10:28:01Z</time></trkpt><trkpt lat="37.35196513976818" lon="13.84399614379817"><ele>430.00000000000006</ele><time>2026-03-29T10:28:03Z</time></trkpt><trkpt lat="37.35201551945416" lon="13.84404513427296"><ele>430.0</ele><time>2026-03-29T10:28:04Z</time></trkpt><trkpt lat="37.35207276939841" lon="13.844096549990619"><ele>430.0</ele><time>2026-03-29T10:28:05Z</time></trkpt><trkpt lat="37.35213052891486" lon="13.84415413922791"><ele>430.0</ele><time>2026-03-29T10:28:06Z</time></trkpt><trkpt lat="37.352186037065024" lon="13.844205435722435"><ele>430.0</ele><time>2026-03-29T10:28:07Z</time></trkpt><trkpt lat="37.35226615860224" lon="13.844277468102954"><ele>430.0</ele><time>2026-03-29T10:28:09.001Z</time></trkpt><trkpt lat="37.35235164284056" lon="13.844356887813774"><ele>430.0</ele><time>2026-03-29T10:28:11.001Z</time></trkpt><trkpt lat="37.3524608434551" lon="13.844452637961066"><ele>430.6</ele><time>2026-03-29T10:28:13.001Z</time></trkpt><trkpt lat="37.352558028650094" lon="13.844535727868987"><ele>431.2</ele><time>2026-03-29T10:28:15.001Z</time></trkpt><trkpt lat="37.352635726485296" lon="13.844599952061117"><ele>431.79999999999995</ele><time>2026-03-29T10:28:17.001Z</time></trkpt><trkpt lat="37.35272002017504" lon="13.844670219305547"><ele>432.4</ele><time>2026-03-29T10:28:19.001Z</time></trkpt><trkpt lat="37.352804493933455" lon="13.844743579692633"><ele>433.0</ele><time>2026-03-29T10:28:21.001Z</time></trkpt><trkpt lat="37.35291040844696" lon="13.844810267367054"><ele>433.0</ele><time>2026-03-29T10:28:23.001Z</time></trkpt><trkpt lat="37.35301235643919" lon="13.844867677621554"><ele>433.0</ele><time>2026-03-29T10:28:24.001Z</time></trkpt><trkpt lat="37.35311690694334" lon="13.844938638740286"><ele>433.0</ele><time>2026-03-29T10:28:25.001Z</time></trkpt><trkpt lat="37.35323486863614" lon="13.84501507490387"><ele>433.0</ele><time>2026-03-29T10:28:26.001Z</time></trkpt><trkpt lat="37.35334092261085" lon="13.845075706551066"><ele>433.2</ele><time>2026-03-29T10:28:27.001Z</time></trkpt><trkpt lat="37.35344068120352" lon="13.84513919053405"><ele>433.4</ele><time>2026-03-29T10:28:28.001Z</time></trkpt><trkpt lat="37.3535292281621" lon="13.845209624878686"><ele>433.59999999999997</ele><time>2026-03-29T10:28:29.001Z</time></trkpt><trkpt lat="37.35360694016696" lon="13.845291285369226"><ele>433.79999999999995</ele><time>2026-03-29T10:28:30.001Z</time></trkpt><trkpt lat="37.35368020974322" lon="13.845371809480664"><ele>434.0</ele><time>2026-03-29T10:28:31.001Z</time></trkpt><trkpt lat="37.35374396257032" lon="13.845441223786192"><ele>433.99999999999994</ele><time>2026-03-29T10:28:32.001Z</time></trkpt><trkpt lat="37.353797907149826" lon="13.84550061910179"><ele>434.0</ele><time>2026-03-29T10:28:33.001Z</time></trkpt><trkpt lat="37.35384452858469" lon="13.84555459527014"><ele>434.0</ele><time>2026-03-29T10:28:34.001Z</time></trkpt><trkpt lat="37.35392294788979" lon="13.845650058318487"><ele>434.0</ele><time>2026-03-29T10:28:36.001Z</time></trkpt><trkpt lat="37.35399257418767" lon="13.845738019080226"><ele>433.99999999999994</ele><time>2026-03-29T10:28:38.001Z</time></trkpt><trkpt lat="37.35405508322141" lon="13.845807555309014"><ele>434.0</ele><time>2026-03-29T10:28:40.001Z</time></trkpt><trkpt lat="37.35410144255961" lon="13.84586956726853"><ele>434.66666666666663</ele><time>2026-03-29T10:28:42.001Z</time></trkpt><trkpt lat="37.3541538862036" lon="13.845931055654116"><ele>435.3333333333333</ele><time>2026-03-29T10:28:46.001Z</time></trkpt><trkpt lat="37.35420815188661" lon="13.845997597539478"><ele>436.0</ele><time>2026-03-29T10:28:49.002Z</time></trkpt><trkpt lat="37.35425544903068" lon="13.846059372840802"><ele>436.66666666666663</ele><time>2026-03-29T10:28:51.002Z</time></trkpt><trkpt lat="37.354313571650145" lon="13.846131462841436"><ele>437.3333333333333</ele><time>2026-03-29T10:28:53.002Z</time></trkpt><trkpt lat="37.35437098014398" lon="13.846203817619234"><ele>438.0</ele><time>2026-03-29T10:28:55.002Z</time></trkpt><trkpt lat="37.35443021250465" lon="13.846276711215994"><ele>438.0</ele><time>2026-03-29T10:28:56.002Z</time></trkpt><trkpt lat="37.35449379041615" lon="13.846359857944629"><ele>438.0</ele><time>2026-03-29T10:28:58.002Z</time></trkpt><trkpt lat="37.354552868801264" lon="13.846416300050882"><ele>438.0</ele><time>2026-03-29T10:29:03.002Z</time></trkpt><trkpt lat="37.35459423445844" lon="13.846504670289596"><ele>438.0</ele><time>2026-03-29T10:29:05.002Z</time></trkpt><trkpt lat="37.35442110728419" lon="13.84634719010346"><ele>438.0</ele><time>2026-03-29T10:29:07.002Z</time></trkpt><trkpt lat="37.3543391367455" lon="13.846405352866679"><ele>437.99999999999994</ele><time>2026-03-29T10:29:10.002Z</time></trkpt><trkpt lat="37.35427346896589" lon="13.846493819590332"><ele>437.99999999999994</ele><time>2026-03-29T10:29:12.002Z</time></trkpt><trkpt lat="37.354201423088455" lon="13.846590878797873"><ele>438.0</ele><time>2026-03-29T10:29:14.002Z</time></trkpt><trkpt lat="37.35415041882319" lon="13.846659591037696"><ele>438.0</ele><time>2026-03-29T10:29:16.002Z</time></trkpt><trkpt lat="37.35430114713074" lon="13.846949360794685"><ele>438.0</ele><time>2026-03-29T10:29:18.002Z</time></trkpt><trkpt lat="37.35423010115384" lon="13.846923357347032"><ele>438.0</ele><time>2026-03-29T10:29:42Z</time></trkpt><trkpt lat="37.35416308393581" lon="13.84683589141797"><ele>438.0</ele><time>2026-03-29T10:29:45Z</time></trkpt><trkpt lat="37.35412061286122" lon="13.846773709573807"><ele>438.0</ele><time>2026-03-29T10:29:48Z</time></trkpt><trkpt lat="37.35401645099312" lon="13.84679332201637"><ele>438.0</ele><time>2026-03-29T10:29:54Z</time></trkpt><trkpt lat="37.35396540012021" lon="13.84686219417961"><ele>438.0</ele><time>2026-03-29T10:29:55Z</time></trkpt><trkpt lat="37.35392072722714" lon="13.846936872791456"><ele>437.1666666666667</ele><time>2026-03-29T10:29:56Z</time></trkpt><trkpt lat="37.35387448134168" lon="13.846996868703993"><ele>436.33333333333337</ele><time>2026-03-29T10:29:57Z</time></trkpt><trkpt lat="37.35382873945693" lon="13.847059845374254"><ele>435.5</ele><time>2026-03-29T10:29:58Z</time></trkpt><trkpt lat="37.353752014458294" lon="13.847155656916982"><ele>434.6666666666667</ele><time>2026-03-29T10:30:00Z</time></trkpt><trkpt lat="37.35369250811258" lon="13.84722380903098"><ele>433.83333333333337</ele><time>2026-03-29T10:30:03Z</time></trkpt><trkpt lat="37.35366373573896" lon="13.847321225848603"><ele>433.0</ele><time>2026-03-29T10:30:06Z</time></trkpt><trkpt lat="37.35360010428869" lon="13.847438403016294"><ele>432.59999999999997</ele><time>2026-03-29T10:30:08Z</time></trkpt><trkpt lat="37.35355804234728" lon="13.84751927599225"><ele>432.19999999999993</ele><time>2026-03-29T10:30:09Z</time></trkpt><trkpt lat="37.353516221174225" lon="13.847603479382082"><ele>431.8</ele><time>2026-03-29T10:30:10Z</time></trkpt><trkpt lat="37.35347599411641" lon="13.84767515487752"><ele>431.4</ele><time>2026-03-29T10:30:11Z</time></trkpt><trkpt lat="37.35341541207435" lon="13.847799678206645"><ele>431.0</ele><time>2026-03-29T10:30:13.001Z</time></trkpt><trkpt lat="37.35331280585452" lon="13.847911453328253"><ele>431.0</ele><time>2026-03-29T10:30:15.001Z</time></trkpt><trkpt lat="37.35330245887625" lon="13.848009084047051"><ele>431.0</ele><time>2026-03-29T10:30:16.001Z</time></trkpt><trkpt lat="37.35333342434671" lon="13.848116225958853"><ele>431.0</ele><time>2026-03-29T10:30:17.001Z</time></trkpt><trkpt lat="37.35338594412975" lon="13.848234142345321"><ele>431.0</ele><time>2026-03-29T10:30:18.001Z</time></trkpt><trkpt lat="37.353454300573986" lon="13.848374937600234"><ele>431.0</ele><time>2026-03-29T10:30:19.001Z</time></trkpt><trkpt lat="37.35353067741215" lon="13.848538143071517"><ele>431.0</ele><time>2026-03-29T10:30:20.001Z</time></trkpt><trkpt lat="37.353599604344076" lon="13.848710812932062"><ele>431.0</ele><time>2026-03-29T10:30:21.001Z</time></trkpt><trkpt lat="37.35370402246123" lon="13.849048226507737"><ele>431.0</ele><time>2026-03-29T10:30:23.001Z</time></trkpt><trkpt lat="37.35371711362575" lon="13.84921917095181"><ele>431.66666666666663</ele><time>2026-03-29T10:30:24.001Z</time></trkpt><trkpt lat="37.35370743625878" lon="13.849403414410629"><ele>432.33333333333337</ele><time>2026-03-29T10:30:25.001Z</time></trkpt><trkpt lat="37.35366806770197" lon="13.849604731782529"><ele>433.0</ele><time>2026-03-29T10:30:26.001Z</time></trkpt><trkpt lat="37.353598021320636" lon="13.849794455710049"><ele>433.0</ele><time>2026-03-29T10:30:27.001Z</time></trkpt><trkpt lat="37.35349802010102" lon="13.849975801388805"><ele>433.0</ele><time>2026-03-29T10:30:28.001Z</time></trkpt><trkpt lat="37.35339629892206" lon="13.85014800140745"><ele>433.0</ele><time>2026-03-29T10:30:29.001Z</time></trkpt><trkpt lat="37.35332719162681" lon="13.85032411833227"><ele>434.0</ele><time>2026-03-29T10:30:30.001Z</time></trkpt><trkpt lat="37.35328895496504" lon="13.850513272470975"><ele>435.0</ele><time>2026-03-29T10:30:31.001Z</time></trkpt><trkpt lat="37.35326965471452" lon="13.85069906498252"><ele>436.0</ele><time>2026-03-29T10:30:32.001Z</time></trkpt><trkpt lat="37.353263706381725" lon="13.850862437344073"><ele>437.0</ele><time>2026-03-29T10:30:33.001Z</time></trkpt><trkpt lat="37.353269851154934" lon="13.85100204794777"><ele>437.3333333333333</ele><time>2026-03-29T10:30:34.001Z</time></trkpt><trkpt lat="37.353286556011426" lon="13.851117406952511"><ele>437.66666666666663</ele><time>2026-03-29T10:30:35.001Z</time></trkpt><trkpt lat="37.35331649036899" lon="13.851221138649889"><ele>438.0</ele><time>2026-03-29T10:30:36.001Z</time></trkpt><trkpt lat="37.35335307148153" lon="13.851310573292459"><ele>438.33333333333337</ele><time>2026-03-29T10:30:37.001Z</time></trkpt><trkpt lat="37.35338928485695" lon="13.85138328174427"><ele>438.6666666666667</ele><time>2026-03-29T10:30:38.001Z</time></trkpt><trkpt lat="37.35343024336239" lon="13.85145304761109"><ele>439.0</ele><time>2026-03-29T10:30:39.001Z</time></trkpt><trkpt lat="37.35350077126473" lon="13.85156932317635"><ele>439.00000000000006</ele><time>2026-03-29T10:30:41.001Z</time></trkpt><trkpt lat="37.35357289409145" lon="13.851641570047205"><ele>439.0</ele><time>2026-03-29T10:30:43.001Z</time></trkpt><trkpt lat="37.353586432171106" lon="13.8517378047325"><ele>439.0</ele><time>2026-03-29T10:30:44.001Z</time></trkpt><trkpt lat="37.35361564185038" lon="13.851818234531617"><ele>439.0</ele><time>2026-03-29T10:30:45.001Z</time></trkpt><trkpt lat="37.35364624681783" lon="13.851898081693744"><ele>439.00000000000006</ele><time>2026-03-29T10:30:46.001Z</time></trkpt><trkpt lat="37.3536778759534" lon="13.851972714477725"><ele>439.0</ele><time>2026-03-29T10:30:47.001Z</time></trkpt><trkpt lat="37.35371864543953" lon="13.852053020195768"><ele>440.0</ele><time>2026-03-29T10:30:48.001Z</time></trkpt><trkpt lat="37.353784609884684" lon="13.852172399784553"><ele>441.0</ele><time>2026-03-29T10:30:49.001Z</time></trkpt><trkpt lat="37.35385103840323" lon="13.85231251336703"><ele>442.0</ele><time>2026-03-29T10:30:50.001Z</time></trkpt><trkpt lat="37.353908654888414" lon="13.852445748080454"><ele>443.0</ele><time>2026-03-29T10:30:51.002Z</time></trkpt><trkpt lat="37.35395942496239" lon="13.852558972183202"><ele>444.3333333333333</ele><time>2026-03-29T10:30:52.002Z</time></trkpt><trkpt lat="37.354007361537796" lon="13.852659522670987"><ele>445.66666666666663</ele><time>2026-03-29T10:30:53.002Z</time></trkpt><trkpt lat="37.35404033910663" lon="13.852734286527594"><ele>447.0</ele><time>2026-03-29T10:30:54.002Z</time></trkpt><trkpt lat="37.35407552948897" lon="13.852821577496185"><ele>448.33333333333337</ele><time>2026-03-29T10:30:56.002Z</time></trkpt><trkpt lat="37.35413370109833" lon="13.852917829309169"><ele>449.6666666666667</ele><time>2026-03-29T10:30:59.002Z</time></trkpt><trkpt lat="37.354233722709594" lon="13.852878401034394"><ele>451.0</ele><time>2026-03-29T10:31:00.002Z</time></trkpt><trkpt lat="37.354308003727695" lon="13.852830389089926"><ele>451.00000000000006</ele><time>2026-03-29T10:31:01.002Z</time></trkpt><trkpt lat="37.35438909723331" lon="13.852764315347756"><ele>451.0</ele><time>2026-03-29T10:31:02.002Z</time></trkpt><trkpt lat="37.35448539062461" lon="13.852723952520678"><ele>451.0</ele><time>2026-03-29T10:31:03.002Z</time></trkpt><trkpt lat="37.35455889193979" lon="13.852648468940583"><ele>451.0</ele><time>2026-03-29T10:31:04.002Z</time></trkpt><trkpt lat="37.35463066690902" lon="13.852600719366672"><ele>451.00000000000006</ele><time>2026-03-29T10:31:05.002Z</time></trkpt><trkpt lat="37.35469134213403" lon="13.852556701044076"><ele>451.0</ele><time>2026-03-29T10:31:06.002Z</time></trkpt><trkpt lat="37.35478954314669" lon="13.852508853439025"><ele>450.8</ele><time>2026-03-29T10:31:08.002Z</time></trkpt><trkpt lat="37.3548684015443" lon="13.852452859514068"><ele>450.6</ele><time>2026-03-29T10:31:10.002Z</time></trkpt><trkpt lat="37.35492330507295" lon="13.85241393868312"><ele>450.4</ele><time>2026-03-29T10:31:11.002Z</time></trkpt><trkpt lat="37.35500816633121" lon="13.852330734507301"><ele>450.2</ele><time>2026-03-29T10:31:13.002Z</time></trkpt><trkpt lat="37.35509701386671" lon="13.852278742388535"><ele>450.0</ele><time>2026-03-29T10:31:15.002Z</time></trkpt><trkpt lat="37.35518162521458" lon="13.852214131339332"><ele>450.0</ele><time>2026-03-29T10:31:17.002Z</time></trkpt><trkpt lat="37.35523923933908" lon="13.852170700982844"><ele>450.0</ele><time>2026-03-29T10:31:19.002Z</time></trkpt><trkpt lat="37.35531182400626" lon="13.85211614048054"><ele>450.0</ele><time>2026-03-29T10:31:22.002Z</time></trkpt><trkpt lat="37.35537143214451" lon="13.852067613926435"><ele>450.0</ele><time>2026-03-29T10:31:27.002Z</time></trkpt><trkpt lat="37.355477140715834" lon="13.852017982053152"><ele>450.0</ele><time>2026-03-29T10:31:38Z</time></trkpt><trkpt lat="37.35556551484537" lon="13.851968112749308"><ele>450.0</ele><time>2026-03-29T10:31:39Z</time></trkpt><trkpt lat="37.35568419081361" lon="13.851908341620698"><ele>450.5</ele><time>2026-03-29T10:31:40Z</time></trkpt><trkpt lat="37.355803278720025" lon="13.851850202427178"><ele>451.0</ele><time>2026-03-29T10:31:41Z</time></trkpt><trkpt lat="37.35590881604564" lon="13.851800037360372"><ele>451.5</ele><time>2026-03-29T10:31:42Z</time></trkpt><trkpt lat="37.356010862648354" lon="13.851752163849772"><ele>452.0</ele><time>2026-03-29T10:31:43Z</time></trkpt><trkpt lat="37.35611004919153" lon="13.851705816504072"><ele>451.99999999999994</ele><time>2026-03-29T10:31:44Z</time></trkpt><trkpt lat="37.35620065818185" lon="13.851663477235471"><ele>452.0</ele><time>2026-03-29T10:31:45Z</time></trkpt><trkpt lat="37.356283076831446" lon="13.851624883877811"><ele>452.0</ele><time>2026-03-29T10:31:46Z</time></trkpt><trkpt lat="37.356354717194264" lon="13.851591274815952"><ele>452.0</ele><time>2026-03-29T10:31:47Z</time></trkpt><trkpt lat="37.35644383583854" lon="13.851549466071267"><ele>451.99999999999994</ele><time>2026-03-29T10:31:49Z</time></trkpt><trkpt lat="37.35653266702537" lon="13.851513510641025"><ele>452.0</ele><time>2026-03-29T10:31:52Z</time></trkpt><trkpt lat="37.356597035211045" lon="13.85148444041561"><ele>451.8</ele><time>2026-03-29T10:31:53Z</time></trkpt><trkpt lat="37.35668782779308" lon="13.851423694099644"><ele>451.6</ele><time>2026-03-29T10:31:54Z</time></trkpt><trkpt lat="37.356776649133955" lon="13.85137867456971"><ele>451.40000000000003</ele><time>2026-03-29T10:31:55Z</time></trkpt><trkpt lat="37.35686105799333" lon="13.851340543548847"><ele>451.20000000000005</ele><time>2026-03-29T10:31:56Z</time></trkpt><trkpt lat="37.35694178959968" lon="13.851321359786859"><ele>451.0</ele><time>2026-03-29T10:31:57Z</time></trkpt><trkpt lat="37.357038477128114" lon="13.85127694007834"><ele>451.00000000000006</ele><time>2026-03-29T10:31:59Z</time></trkpt><trkpt lat="37.35713958142603" lon="13.85121767469128"><ele>451.0</ele><time>2026-03-29T10:32:01Z</time></trkpt><trkpt lat="37.357231674051164" lon="13.85118722989497"><ele>451.0</ele><time>2026-03-29T10:32:02Z</time></trkpt><trkpt lat="37.357298522250105" lon="13.851155787614637"><ele>451.0</ele><time>2026-03-29T10:32:03Z</time></trkpt><trkpt lat="37.35736521884574" lon="13.85112441663885"><ele>451.00000000000006</ele><time>2026-03-29T10:32:06Z</time></trkpt><trkpt lat="37.35744404240143" lon="13.851087341705297"><ele>451.0</ele><time>2026-03-29T10:32:08Z</time></trkpt><trkpt lat="37.35754798727265" lon="13.851038450908467"><ele>451.00000000000006</ele><time>2026-03-29T10:32:10Z</time></trkpt><trkpt lat="37.357632005115086" lon="13.850999163952096"><ele>451.0</ele><time>2026-03-29T10:32:11Z</time></trkpt><trkpt lat="37.35771661279614" lon="13.85095950605104"><ele>451.0</ele><time>2026-03-29T10:32:13Z</time></trkpt><trkpt lat="37.357794491782336" lon="13.85092300206738"><ele>451.0</ele><time>2026-03-29T10:32:16.001Z</time></trkpt><trkpt lat="37.35789622370181" lon="13.850875110392291"><ele>451.00000000000006</ele><time>2026-03-29T10:32:19.001Z</time></trkpt><trkpt lat="37.35796220730084" lon="13.850837421881419"><ele>451.0</ele><time>2026-03-29T10:32:20.001Z</time></trkpt><trkpt lat="37.3580414679699" lon="13.850776819061327"><ele>450.20000000000005</ele><time>2026-03-29T10:32:21.001Z</time></trkpt><trkpt lat="37.358118479454696" lon="13.850711392098178"><ele>449.40000000000003</ele><time>2026-03-29T10:32:23.001Z</time></trkpt><trkpt lat="37.35816266846285" lon="13.850640867972839"><ele>448.6</ele><time>2026-03-29T10:32:26.001Z</time></trkpt><trkpt lat="37.35825904641006" lon="13.850666315304883"><ele>447.8</ele><time>2026-03-29T10:32:27.001Z</time></trkpt><trkpt lat="37.35836645289709" lon="13.850692473865248"><ele>447.0</ele><time>2026-03-29T10:32:29.001Z</time></trkpt><trkpt lat="37.35846768695248" lon="13.850719739565829"><ele>447.0</ele><time>2026-03-29T10:32:31.001Z</time></trkpt><trkpt lat="37.35858461861879" lon="13.85076249657388"><ele>447.0</ele><time>2026-03-29T10:32:33.001Z</time></trkpt><trkpt lat="37.358663296983885" lon="13.850784718663158"><ele>447.0</ele><time>2026-03-29T10:32:34.001Z</time></trkpt><trkpt lat="37.35873460443983" lon="13.850802578329873"><ele>447.0</ele><time>2026-03-29T10:32:35.001Z</time></trkpt><trkpt lat="37.35880155135381" lon="13.850819531386426"><ele>447.0</ele><time>2026-03-29T10:32:36.001Z</time></trkpt><trkpt lat="37.35886672958734" lon="13.850837760958548"><ele>447.0</ele><time>2026-03-29T10:32:37.001Z</time></trkpt><trkpt lat="37.35898570031657" lon="13.850873496149735"><ele>447.6</ele><time>2026-03-29T10:32:39.001Z</time></trkpt><trkpt lat="37.359084913079734" lon="13.850901478546293"><ele>448.20000000000005</ele><time>2026-03-29T10:32:41.001Z</time></trkpt><trkpt lat="37.35915626446916" lon="13.850917846047237"><ele>448.8</ele><time>2026-03-29T10:32:43.001Z</time></trkpt><trkpt lat="37.35923774534277" lon="13.85098444571263"><ele>449.4</ele><time>2026-03-29T10:32:45.001Z</time></trkpt><trkpt lat="37.35928997196763" lon="13.851075111775334"><ele>450.0</ele><time>2026-03-29T10:32:51.001Z</time></trkpt><trkpt lat="37.35934714367146" lon="13.851162375370736"><ele>451.2</ele><time>2026-03-29T10:32:54.002Z</time></trkpt><trkpt lat="37.359407003342476" lon="13.851239906564265"><ele>452.4</ele><time>2026-03-29T10:32:57.002Z</time></trkpt><trkpt lat="37.35944840578967" lon="13.851302563808629"><ele>453.6</ele><time>2026-03-29T10:32:59.002Z</time></trkpt><trkpt lat="37.359533403852765" lon="13.851404437007705"><ele>454.8</ele><time>2026-03-29T10:33:01.002Z</time></trkpt><trkpt lat="37.35959263114913" lon="13.851500686120508"><ele>456.0</ele><time>2026-03-29T10:33:02.002Z</time></trkpt><trkpt lat="37.3596707148371" lon="13.85162804763703"><ele>456.25</ele><time>2026-03-29T10:33:03.002Z</time></trkpt><trkpt lat="37.35974330323449" lon="13.851774658290884"><ele>456.5</ele><time>2026-03-29T10:33:04.002Z</time></trkpt><trkpt lat="37.35982149290059" lon="13.85186232456193"><ele>456.75</ele><time>2026-03-29T10:33:05.002Z</time></trkpt><trkpt lat="37.35993697025523" lon="13.852050531819524"><ele>457.0</ele><time>2026-03-29T10:33:07.002Z</time></trkpt><trkpt lat="37.35999000045595" lon="13.852127378799205"><ele>458.0</ele><time>2026-03-29T10:33:08.002Z</time></trkpt><trkpt lat="37.3600319543531" lon="13.852207398316038"><ele>459.00000000000006</ele><time>2026-03-29T10:33:09.002Z</time></trkpt><trkpt lat="37.360111957483184" lon="13.852290747423579"><ele>460.00000000000006</ele><time>2026-03-29T10:33:11.002Z</time></trkpt><trkpt lat="37.360169484490996" lon="13.852379749560997"><ele>461.0</ele><time>2026-03-29T10:33:13.002Z</time></trkpt><trkpt lat="37.36024335681092" lon="13.852493544929011"><ele>462.0</ele><time>2026-03-29T10:33:15.002Z</time></trkpt><trkpt lat="37.36031902377871" lon="13.852584982432946"><ele>462.1666666666667</ele><time>2026-03-29T10:33:16.002Z</time></trkpt><trkpt lat="37.360403185717054" lon="13.852686796035439"><ele>462.33333333333337</ele><time>2026-03-29T10:33:17.002Z</time></trkpt><trkpt lat="37.36047002377545" lon="13.852766272473941"><ele>462.5</ele><time>2026-03-29T10:33:18.002Z</time></trkpt><trkpt lat="37.360520716702226" lon="13.852826864736754"><ele>462.6666666666667</ele><time>2026-03-29T10:33:19.002Z</time></trkpt><trkpt lat="37.36057335330788" lon="13.85288978017987"><ele>462.83333333333337</ele><time>2026-03-29T10:33:20.002Z</time></trkpt><trkpt lat="37.36064187474026" lon="13.852971821633691"><ele>463.0</ele><time>2026-03-29T10:33:21.002Z</time></trkpt><trkpt lat="37.3607057685729" lon="13.853048283555657"><ele>463.00000000000006</ele><time>2026-03-29T10:33:22.002Z</time></trkpt><trkpt lat="37.360756411673094" lon="13.853108888225368"><ele>463.0</ele><time>2026-03-29T10:33:23.002Z</time></trkpt><trkpt lat="37.36080201420351" lon="13.85316398425707"><ele>463.0</ele><time>2026-03-29T10:33:24.002Z</time></trkpt><trkpt lat="37.36087827542705" lon="13.853255732561829"><ele>463.0</ele><time>2026-03-29T10:33:26.002Z</time></trkpt><trkpt lat="37.360965187821854" lon="13.853339253489699"><ele>463.00000000000006</ele><time>2026-03-29T10:33:28.002Z</time></trkpt><trkpt lat="37.36101814777272" lon="13.853406366347945"><ele>463.0</ele><time>2026-03-29T10:33:30.002Z</time></trkpt><trkpt lat="37.361069417630716" lon="13.853491871866892"><ele>463.0</ele><time>2026-03-29T10:33:32.003Z</time></trkpt><trkpt lat="37.361117813591115" lon="13.853551579765664"><ele>462.99999999999994</ele><time>2026-03-29T10:33:34.003Z</time></trkpt><trkpt lat="37.361172349529184" lon="13.853619327905216"><ele>463.0</ele><time>2026-03-29T10:33:36.003Z</time></trkpt><trkpt lat="37.36122124950798" lon="13.853677437256787"><ele>463.0</ele><time>2026-03-29T10:33:41.999Z</time></trkpt><trkpt lat="37.36127446359059" lon="13.853740673190401"><ele>462.99999999999994</ele><time>2026-03-29T10:33:43.999Z</time></trkpt><trkpt lat="37.3613356406072" lon="13.853793916409002"><ele>463.0</ele><time>2026-03-29T10:33:45.999Z</time></trkpt><trkpt lat="37.36139647740785" lon="13.853858094317658"><ele>463.0</ele><time>2026-03-29T10:33:48.999Z</time></trkpt><trkpt lat="37.361448776551285" lon="13.853924188167156"><ele>463.0</ele><time>2026-03-29T10:33:52.999Z</time></trkpt><trkpt lat="37.36152790487181" lon="13.854008102023206"><ele>462.99999999999994</ele><time>2026-03-29T10:33:55.999Z</time></trkpt><trkpt lat="37.36159262482837" lon="13.854068947266486"><ele>462.99999999999994</ele><time>2026-03-29T10:33:56.999Z</time></trkpt><trkpt lat="37.36165992498077" lon="13.854158887310394"><ele>463.0</ele><time>2026-03-29T10:33:58Z</time></trkpt><trkpt lat="37.36172242993414" lon="13.854233690031162"><ele>463.0</ele><time>2026-03-29T10:33:59Z</time></trkpt><trkpt lat="37.3617744377017" lon="13.854330694676461"><ele>463.0</ele><time>2026-03-29T10:34:00Z</time></trkpt><trkpt lat="37.36185010122098" lon="13.854395741073521"><ele>462.99999999999994</ele><time>2026-03-29T10:34:01Z</time></trkpt><trkpt lat="37.36194209301955" lon="13.854443383303735"><ele>462.99999999999994</ele><time>2026-03-29T10:34:02Z</time></trkpt><trkpt lat="37.36200517841108" lon="13.854458167963765"><ele>463.0</ele><time>2026-03-29T10:34:03Z</time></trkpt><trkpt lat="37.36213717564166" lon="13.854511492059782"><ele>463.0</ele><time>2026-03-29T10:34:05Z</time></trkpt><trkpt lat="37.36223752828574" lon="13.854567014434755"><ele>463.33333333333337</ele><time>2026-03-29T10:34:07Z</time></trkpt><trkpt lat="37.362287679897676" lon="13.854643365120902"><ele>463.6666666666667</ele><time>2026-03-29T10:34:09Z</time></trkpt><trkpt lat="37.362309223926516" lon="13.85478198677168"><ele>464.0</ele><time>2026-03-29T10:34:11Z</time></trkpt><trkpt lat="37.36232887346418" lon="13.854881150192522"><ele>464.33333333333337</ele><time>2026-03-29T10:34:14Z</time></trkpt><trkpt lat="37.36232354825837" lon="13.854985370927643"><ele>464.6666666666667</ele><time>2026-03-29T10:34:17Z</time></trkpt><trkpt lat="37.362315107604296" lon="13.855099583464483"><ele>465.0</ele><time>2026-03-29T10:34:20Z</time></trkpt><trkpt lat="37.36233462447731" lon="13.85520614691244"><ele>465.4</ele><time>2026-03-29T10:34:23Z</time></trkpt><trkpt lat="37.362444035822335" lon="13.8552648568144"><ele>465.8</ele><time>2026-03-29T10:34:26Z</time></trkpt><trkpt lat="37.36240066162643" lon="13.855371961435612"><ele>466.20000000000005</ele><time>2026-03-29T10:34:27Z</time></trkpt><trkpt lat="37.3624050098428" lon="13.855472409338054"><ele>466.6</ele><time>2026-03-29T10:34:28Z</time></trkpt><trkpt lat="37.362407439704384" lon="13.85556903685195"><ele>467.0</ele><time>2026-03-29T10:34:29.001Z</time></trkpt><trkpt lat="37.362420731991186" lon="13.855730547546461"><ele>467.0</ele><time>2026-03-29T10:34:31.001Z</time></trkpt><trkpt lat="37.36242420024687" lon="13.855824073619457"><ele>467.00000000000006</ele><time>2026-03-29T10:34:32.001Z</time></trkpt><trkpt lat="37.36242736927787" lon="13.855910413247088"><ele>467.00000000000006</ele><time>2026-03-29T10:34:33.001Z</time></trkpt><trkpt lat="37.362443681128774" lon="13.856054175013796"><ele>467.0</ele><time>2026-03-29T10:34:35.001Z</time></trkpt><trkpt lat="37.3624591825862" lon="13.856193652172028"><ele>467.0</ele><time>2026-03-29T10:34:37.001Z</time></trkpt><trkpt lat="37.36247005236392" lon="13.85631511894104"><ele>466.75</ele><time>2026-03-29T10:34:39.001Z</time></trkpt><trkpt lat="37.362480766587886" lon="13.856441515940494"><ele>466.5</ele><time>2026-03-29T10:34:41.001Z</time></trkpt><trkpt lat="37.362493570015204" lon="13.856562695063653"><ele>466.25</ele><time>2026-03-29T10:34:43.001Z</time></trkpt><trkpt lat="37.36250419615132" lon="13.856702565018614"><ele>466.0</ele><time>2026-03-29T10:34:45.001Z</time></trkpt><trkpt lat="37.3625109241075" lon="13.856896268747013"><ele>466.00000000000006</ele><time>2026-03-29T10:34:47.001Z</time></trkpt><trkpt lat="37.3625349638594" lon="13.857028405802017"><ele>466.0</ele><time>2026-03-29T10:34:48.001Z</time></trkpt><trkpt lat="37.362542682881504" lon="13.857140798249475"><ele>466.0</ele><time>2026-03-29T10:34:49.001Z</time></trkpt><trkpt lat="37.362549864623034" lon="13.85724043309295"><ele>466.0</ele><time>2026-03-29T10:34:50.001Z</time></trkpt><trkpt lat="37.36255687979567" lon="13.857327380344707"><ele>466.00000000000006</ele><time>2026-03-29T10:34:52.001Z</time></trkpt><trkpt lat="37.362571687101536" lon="13.857433945386946"><ele>466.0</ele><time>2026-03-29T10:34:54.001Z</time></trkpt><trkpt lat="37.36257468700391" lon="13.85758586513611"><ele>466.25</ele><time>2026-03-29T10:34:56.001Z</time></trkpt><trkpt lat="37.36258622574732" lon="13.857709224802566"><ele>466.5</ele><time>2026-03-29T10:34:57.001Z</time></trkpt><trkpt lat="37.36259979253304" lon="13.857854266068083"><ele>466.75</ele><time>2026-03-29T10:34:58.001Z</time></trkpt><trkpt lat="37.36262359088844" lon="13.858003781951899"><ele>467.0</ele><time>2026-03-29T10:34:59.001Z</time></trkpt><trkpt lat="37.36263528449904" lon="13.858156732600028"><ele>467.0</ele><time>2026-03-29T10:35:00.001Z</time></trkpt><trkpt lat="37.36264957990793" lon="13.858298176915962"><ele>467.00000000000006</ele><time>2026-03-29T10:35:01.001Z</time></trkpt><trkpt lat="37.36266275701147" lon="13.858430319114836"><ele>467.00000000000006</ele><time>2026-03-29T10:35:02.001Z</time></trkpt><trkpt lat="37.36267722231839" lon="13.858548868843485"><ele>467.0</ele><time>2026-03-29T10:35:03.001Z</time></trkpt><trkpt lat="37.36267460634253" lon="13.858655762089436"><ele>467.0</ele><time>2026-03-29T10:35:04.002Z</time></trkpt><trkpt lat="37.362682904061494" lon="13.858744741240344"><ele>467.16666666666663</ele><time>2026-03-29T10:35:05.002Z</time></trkpt><trkpt lat="37.36269342205507" lon="13.858857529152644"><ele>467.3333333333333</ele><time>2026-03-29T10:35:06.002Z</time></trkpt><trkpt lat="37.36270300333255" lon="13.858960272334889"><ele>467.5</ele><time>2026-03-29T10:35:07.002Z</time></trkpt><trkpt lat="37.362727082481314" lon="13.859039407007106"><ele>467.66666666666663</ele><time>2026-03-29T10:35:08.002Z</time></trkpt><trkpt lat="37.36273275895646" lon="13.859123062706495"><ele>467.8333333333333</ele><time>2026-03-29T10:35:10.002Z</time></trkpt><trkpt lat="37.36274901322397" lon="13.859282446606153"><ele>468.0</ele><time>2026-03-29T10:35:12.002Z</time></trkpt><trkpt lat="37.36274119330458" lon="13.859370388358574"><ele>468.0</ele><time>2026-03-29T10:35:14.002Z</time></trkpt><trkpt lat="37.36276600150338" lon="13.859466430260866"><ele>468.0</ele><time>2026-03-29T10:35:18.002Z</time></trkpt><trkpt lat="37.36276635544722" lon="13.85956091817511"><ele>468.0</ele><time>2026-03-29T10:35:22.002Z</time></trkpt><trkpt lat="37.36277253888249" lon="13.859699967660891"><ele>468.0</ele><time>2026-03-29T10:35:27.002Z</time></trkpt><trkpt lat="37.36278216974782" lon="13.859800055510323"><ele>468.0</ele><time>2026-03-29T10:35:28.002Z</time></trkpt><trkpt lat="37.36279193217768" lon="13.859901510610479"><ele>468.0</ele><time>2026-03-29T10:35:29.002Z</time></trkpt><trkpt lat="37.362804687745395" lon="13.8600270873109"><ele>468.1666666666667</ele><time>2026-03-29T10:35:31.002Z</time></trkpt><trkpt lat="37.36281480592352" lon="13.860121212557946"><ele>468.33333333333337</ele><time>2026-03-29T10:35:33.002Z</time></trkpt><trkpt lat="37.36282407167254" lon="13.860202205124123"><ele>468.5</ele><time>2026-03-29T10:35:36.002Z</time></trkpt><trkpt lat="37.36283349243085" lon="13.860284552573368"><ele>468.6666666666667</ele><time>2026-03-29T10:35:38.002Z</time></trkpt><trkpt lat="37.36284594935453" lon="13.860378929720289"><ele>468.83333333333337</ele><time>2026-03-29T10:35:39.002Z</time></trkpt><trkpt lat="37.36287483995728" lon="13.860499077128395"><ele>469.0</ele><time>2026-03-29T10:35:40.003Z</time></trkpt><trkpt lat="37.36288974810321" lon="13.860613807690921"><ele>469.0</ele><time>2026-03-29T10:35:41.003Z</time></trkpt><trkpt lat="37.362903567248416" lon="13.860726527309431"><ele>469.0</ele><time>2026-03-29T10:35:42.003Z</time></trkpt><trkpt lat="37.36291279259818" lon="13.860863629718231"><ele>469.0</ele><time>2026-03-29T10:35:43.003Z</time></trkpt><trkpt lat="37.36292307730806" lon="13.861007919606255"><ele>469.0</ele><time>2026-03-29T10:35:44.003Z</time></trkpt><trkpt lat="37.36294052658096" lon="13.861156848109188"><ele>469.0</ele><time>2026-03-29T10:35:44.999Z</time></trkpt><trkpt lat="37.3629572496726" lon="13.861290628935176"><ele>469.1666666666667</ele><time>2026-03-29T10:35:45.999Z</time></trkpt><trkpt lat="37.362973913576376" lon="13.8613995509391"><ele>469.33333333333337</ele><time>2026-03-29T10:35:46.999Z</time></trkpt><trkpt lat="37.36298608842717" lon="13.861485644559465"><ele>469.5</ele><time>2026-03-29T10:35:47.999Z</time></trkpt><trkpt lat="37.36299168168891" lon="13.861568985557241"><ele>469.66666666666663</ele><time>2026-03-29T10:35:48.999Z</time></trkpt><trkpt lat="37.36299793076891" lon="13.861661527611998"><ele>469.8333333333333</ele><time>2026-03-29T10:35:49.999Z</time></trkpt><trkpt lat="37.363023786678184" lon="13.861758074989014"><ele>470.0</ele><time>2026-03-29T10:35:50.999Z</time></trkpt><trkpt lat="37.363044282046786" lon="13.861843520158333"><ele>470.0</ele><time>2026-03-29T10:35:51.999Z</time></trkpt><trkpt lat="37.36307231853077" lon="13.861933427406"><ele>470.0</ele><time>2026-03-29T10:35:52.999Z</time></trkpt><trkpt lat="37.3630999747978" lon="13.86201877445395"><ele>470.0</ele><time>2026-03-29T10:35:53.999Z</time></trkpt><trkpt lat="37.363147901068515" lon="13.862167461259972"><ele>470.0</ele><time>2026-03-29T10:35:55.999Z</time></trkpt><trkpt lat="37.363181726925774" lon="13.86230040727975"><ele>470.0</ele><time>2026-03-29T10:35:57.999Z</time></trkpt><trkpt lat="37.36321160504519" lon="13.86240651525216"><ele>470.0</ele><time>2026-03-29T10:36:00.999Z</time></trkpt><trkpt lat="37.36323405937435" lon="13.86249476887321"><ele>470.0</ele><time>2026-03-29T10:36:01.999Z</time></trkpt><trkpt lat="37.363258237192646" lon="13.862617893509896"><ele>470.0</ele><time>2026-03-29T10:36:02.999Z</time></trkpt><trkpt lat="37.3632883421739" lon="13.862766921205832"><ele>470.0</ele><time>2026-03-29T10:36:03.999Z</time></trkpt><trkpt lat="37.363320058941916" lon="13.862926443098726"><ele>470.0</ele><time>2026-03-29T10:36:04.999Z</time></trkpt><trkpt lat="37.36332437470818" lon="13.863108571757001"><ele>470.0</ele><time>2026-03-29T10:36:05.999Z</time></trkpt><trkpt lat="37.363339475921755" lon="13.86328944864793"><ele>470.0</ele><time>2026-03-29T10:36:07Z</time></trkpt><trkpt lat="37.36335233819169" lon="13.863470816979103"><ele>470.0</ele><time>2026-03-29T10:36:08Z</time></trkpt><trkpt lat="37.36337836372347" lon="13.8636503717133"><ele>470.0</ele><time>2026-03-29T10:36:09Z</time></trkpt><trkpt lat="37.36338705883799" lon="13.86382065298799"><ele>470.0</ele><time>2026-03-29T10:36:10Z</time></trkpt><trkpt lat="37.363390451940354" lon="13.863986917850907"><ele>470.0</ele><time>2026-03-29T10:36:11Z</time></trkpt><trkpt lat="37.36339227839237" lon="13.864137339043534"><ele>470.0</ele><time>2026-03-29T10:36:12Z</time></trkpt><trkpt lat="37.363384687437296" lon="13.864275087962975"><ele>470.0</ele><time>2026-03-29T10:36:13Z</time></trkpt><trkpt lat="37.36336539697248" lon="13.864409758332515"><ele>471.0</ele><time>2026-03-29T10:36:14Z</time></trkpt><trkpt lat="37.3633432203147" lon="13.864560795313894"><ele>472.0</ele><time>2026-03-29T10:36:15Z</time></trkpt><trkpt lat="37.36332609626015" lon="13.864729366659692"><ele>473.0</ele><time>2026-03-29T10:36:16Z</time></trkpt><trkpt lat="37.36330609442688" lon="13.864910768543993"><ele>474.0</ele><time>2026-03-29T10:36:17Z</time></trkpt><trkpt lat="37.36328800167444" lon="13.865096517684014"><ele>473.25</ele><time>2026-03-29T10:36:18Z</time></trkpt><trkpt lat="37.36326733704386" lon="13.865287588102612"><ele>472.5</ele><time>2026-03-29T10:36:19Z</time></trkpt><trkpt lat="37.363246338284995" lon="13.86546357496413"><ele>471.75</ele><time>2026-03-29T10:36:20Z</time></trkpt><trkpt lat="37.36324654600885" lon="13.865634300495781"><ele>471.0</ele><time>2026-03-29T10:36:21Z</time></trkpt><trkpt lat="37.36328837696384" lon="13.86579047350469"><ele>471.0</ele><time>2026-03-29T10:36:22Z</time></trkpt><trkpt lat="37.363362694333176" lon="13.865905765707353"><ele>471.0</ele><time>2026-03-29T10:36:23Z</time></trkpt><trkpt lat="37.36346557733568" lon="13.865980317279844"><ele>471.0</ele><time>2026-03-29T10:36:24Z</time></trkpt><trkpt lat="37.36360641670312" lon="13.866025581701624"><ele>471.0</ele><time>2026-03-29T10:36:25Z</time></trkpt><trkpt lat="37.363911163893356" lon="13.866136547947233"><ele>466.0</ele><time>2026-03-29T10:36:27Z</time></trkpt><trkpt lat="37.36406482090064" lon="13.866205116840327"><ele>461.0</ele><time>2026-03-29T10:36:28Z</time></trkpt><trkpt lat="37.36421381035103" lon="13.866265957714061"><ele>456.0</ele><time>2026-03-29T10:36:29Z</time></trkpt><trkpt lat="37.36436582423964" lon="13.866322476718883"><ele>456.0</ele><time>2026-03-29T10:36:30Z</time></trkpt><trkpt lat="37.36452180905373" lon="13.866379582991073"><ele>456.0</ele><time>2026-03-29T10:36:31Z</time></trkpt><trkpt lat="37.36467132880758" lon="13.866436675902097"><ele>456.0</ele><time>2026-03-29T10:36:32Z</time></trkpt><trkpt lat="37.364816587908095" lon="13.86649482746411"><ele>456.0</ele><time>2026-03-29T10:36:33Z</time></trkpt><trkpt lat="37.36494771920837" lon="13.866549378645008"><ele>456.0</ele><time>2026-03-29T10:36:34.001Z</time></trkpt><trkpt lat="37.36506232664966" lon="13.866604533797412"><ele>456.0</ele><time>2026-03-29T10:36:35.001Z</time></trkpt><trkpt lat="37.36516195940611" lon="13.866672643894022"><ele>456.0</ele><time>2026-03-29T10:36:36.001Z</time></trkpt><trkpt lat="37.36524426598223" lon="13.866773713547971"><ele>453.5</ele><time>2026-03-29T10:36:37.001Z</time></trkpt><trkpt lat="37.365307383954374" lon="13.866908226865526"><ele>451.0</ele><time>2026-03-29T10:36:38.001Z</time></trkpt><trkpt lat="37.365344761584886" lon="13.867073742794958"><ele>448.5</ele><time>2026-03-29T10:36:39.001Z</time></trkpt><trkpt lat="37.3653500693522" lon="13.867270433141286"><ele>446.0</ele><time>2026-03-29T10:36:40.001Z</time></trkpt><trkpt lat="37.36532561502913" lon="13.867496532438777"><ele>444.66666666666663</ele><time>2026-03-29T10:36:41.001Z</time></trkpt><trkpt lat="37.36528372076619" lon="13.867744259222668"><ele>443.33333333333337</ele><time>2026-03-29T10:36:42.001Z</time></trkpt><trkpt lat="37.365245869361146" lon="13.868020415344748"><ele>442.0</ele><time>2026-03-29T10:36:43.001Z</time></trkpt><trkpt lat="37.365209317274335" lon="13.868302159958262"><ele>441.0</ele><time>2026-03-29T10:36:44.001Z</time></trkpt><trkpt lat="37.36517672806948" lon="13.868592308117083"><ele>440.0</ele><time>2026-03-29T10:36:45.001Z</time></trkpt><trkpt lat="37.365143579815516" lon="13.868887014323665"><ele>440.0</ele><time>2026-03-29T10:36:46.001Z</time></trkpt><trkpt lat="37.36510810080738" lon="13.86918847206021"><ele>440.0</ele><time>2026-03-29T10:36:47.001Z</time></trkpt><trkpt lat="37.36507028829009" lon="13.86950234834158"><ele>439.0</ele><time>2026-03-29T10:36:48.001Z</time></trkpt><trkpt lat="37.36503110104721" lon="13.86981924711598"><ele>438.0</ele><time>2026-03-29T10:36:49.001Z</time></trkpt><trkpt lat="37.36499231256697" lon="13.870139807989059"><ele>436.5</ele><time>2026-03-29T10:36:50.001Z</time></trkpt><trkpt lat="37.364953561299096" lon="13.870466578101285"><ele>435.0</ele><time>2026-03-29T10:36:51.001Z</time></trkpt><trkpt lat="37.36491548374201" lon="13.870794545692153"><ele>434.5</ele><time>2026-03-29T10:36:52.001Z</time></trkpt><trkpt lat="37.36487474726843" lon="13.87112463960722"><ele>434.0</ele><time>2026-03-29T10:36:53.001Z</time></trkpt><trkpt lat="37.36482834809143" lon="13.87145509774504"><ele>434.5</ele><time>2026-03-29T10:36:54.001Z</time></trkpt><trkpt lat="37.36477015124729" lon="13.87178033886975"><ele>435.0</ele><time>2026-03-29T10:36:55.001Z</time></trkpt><trkpt lat="37.36469992874849" lon="13.872098690519136"><ele>433.5</ele><time>2026-03-29T10:36:56.001Z</time></trkpt><trkpt lat="37.364622699767686" lon="13.87239828171804"><ele>432.0</ele><time>2026-03-29T10:36:57.001Z</time></trkpt><trkpt lat="37.364538550734046" lon="13.872681147824366"><ele>432.0</ele><time>2026-03-29T10:36:58.001Z</time></trkpt><trkpt lat="37.36445264150759" lon="13.872944819127296"><ele>432.0</ele><time>2026-03-29T10:36:59.001Z</time></trkpt><trkpt lat="37.364361287810034" lon="13.873184036984652"><ele>432.0</ele><time>2026-03-29T10:37:00.001Z</time></trkpt><trkpt lat="37.364269855008196" lon="13.873393105142288"><ele>432.0</ele><time>2026-03-29T10:37:01.001Z</time></trkpt><trkpt lat="37.364196429404956" lon="13.873609216138407"><ele>432.0</ele><time>2026-03-29T10:37:02.001Z</time></trkpt><trkpt lat="37.36415605165137" lon="13.87386245672923"><ele>432.0</ele><time>2026-03-29T10:37:03.001Z</time></trkpt><trkpt lat="37.364139162111734" lon="13.874138777198374"><ele>432.5</ele><time>2026-03-29T10:37:04.001Z</time></trkpt><trkpt lat="37.36413206084293" lon="13.87443561518751"><ele>433.0</ele><time>2026-03-29T10:37:05.001Z</time></trkpt><trkpt lat="37.3641188603079" lon="13.874736096475388"><ele>433.0</ele><time>2026-03-29T10:37:06.001Z</time></trkpt><trkpt lat="37.36410154209234" lon="13.875044153837289"><ele>433.0</ele><time>2026-03-29T10:37:07.002Z</time></trkpt><trkpt lat="37.36408113238537" lon="13.875357706848714"><ele>434.0</ele><time>2026-03-29T10:37:08.002Z</time></trkpt><trkpt lat="37.36406239853225" lon="13.875677194684169"><ele>435.0</ele><time>2026-03-29T10:37:09.002Z</time></trkpt><trkpt lat="37.36404662860882" lon="13.87599751471514"><ele>436.5</ele><time>2026-03-29T10:37:10.002Z</time></trkpt><trkpt lat="37.36403224125458" lon="13.876316092962742"><ele>438.0</ele><time>2026-03-29T10:37:11.002Z</time></trkpt><trkpt lat="37.3640168445457" lon="13.876631594758996"><ele>437.5</ele><time>2026-03-29T10:37:12.002Z</time></trkpt><trkpt lat="37.36400122983828" lon="13.876943800405902"><ele>437.0</ele><time>2026-03-29T10:37:13.002Z</time></trkpt><trkpt lat="37.36398719625872" lon="13.877248354532487"><ele>437.0</ele><time>2026-03-29T10:37:14.002Z</time></trkpt><trkpt lat="37.36397168072115" lon="13.87753739427575"><ele>437.0</ele><time>2026-03-29T10:37:15.002Z</time></trkpt><trkpt lat="37.3639502742263" lon="13.877810012424389"><ele>437.0</ele><time>2026-03-29T10:37:16.002Z</time></trkpt><trkpt lat="37.36391239837919" lon="13.878075178710716"><ele>435.0</ele><time>2026-03-29T10:37:17.002Z</time></trkpt><trkpt lat="37.363851763267185" lon="13.878327955950866"><ele>433.0</ele><time>2026-03-29T10:37:18.002Z</time></trkpt><trkpt lat="37.36377130711888" lon="13.878570781910152"><ele>431.0</ele><time>2026-03-29T10:37:19.002Z</time></trkpt><trkpt lat="37.36368484259636" lon="13.87880890668718"><ele>431.0</ele><time>2026-03-29T10:37:20.002Z</time></trkpt><trkpt lat="37.36361084977331" lon="13.879051510783668"><ele>431.0</ele><time>2026-03-29T10:37:21.002Z</time></trkpt><trkpt lat="37.36356137335039" lon="13.87930272682267"><ele>431.0</ele><time>2026-03-29T10:37:22.002Z</time></trkpt><trkpt lat="37.36354113333325" lon="13.879557974729543"><ele>431.0</ele><time>2026-03-29T10:37:23.002Z</time></trkpt><trkpt lat="37.36354896801104" lon="13.879818893417331"><ele>431.0</ele><time>2026-03-29T10:37:24.002Z</time></trkpt><trkpt lat="37.36359284798629" lon="13.880078556913626"><ele>431.0</ele><time>2026-03-29T10:37:25.002Z</time></trkpt><trkpt lat="37.36366387277019" lon="13.880340637506244"><ele>428.5</ele><time>2026-03-29T10:37:26.002Z</time></trkpt><trkpt lat="37.363746616145015" lon="13.880609118603243"><ele>426.0</ele><time>2026-03-29T10:37:27.002Z</time></trkpt><trkpt lat="37.36382965226556" lon="13.880878274011105"><ele>427.5</ele><time>2026-03-29T10:37:28.002Z</time></trkpt><trkpt lat="37.363907754467256" lon="13.881152020670047"><ele>429.0</ele><time>2026-03-29T10:37:29.002Z</time></trkpt><trkpt lat="37.36398543897454" lon="13.881429156817314"><ele>429.0</ele><time>2026-03-29T10:37:30.002Z</time></trkpt><trkpt lat="37.36405932652064" lon="13.881707538129845"><ele>429.0</ele><time>2026-03-29T10:37:31.002Z</time></trkpt><trkpt lat="37.364123622428615" lon="13.881990761786897"><ele>428.0</ele><time>2026-03-29T10:37:32.002Z</time></trkpt><trkpt lat="37.36417550408939" lon="13.882268630480496"><ele>427.0</ele><time>2026-03-29T10:37:33.002Z</time></trkpt><trkpt lat="37.364218539104286" lon="13.882532917358157"><ele>426.0</ele><time>2026-03-29T10:37:34.002Z</time></trkpt><trkpt lat="37.36426139463595" lon="13.882781167791595"><ele>425.66666666666663</ele><time>2026-03-29T10:37:35.002Z</time></trkpt><trkpt lat="37.364305911056086" lon="13.8830232421536"><ele>425.3333333333333</ele><time>2026-03-29T10:37:36.002Z</time></trkpt><trkpt lat="37.3643499802446" lon="13.88326453772475"><ele>425.0</ele><time>2026-03-29T10:37:37.002Z</time></trkpt><trkpt lat="37.364389975650994" lon="13.883505829671199"><ele>425.66666666666663</ele><time>2026-03-29T10:37:38.002Z</time></trkpt><trkpt lat="37.36442915484939" lon="13.883741497506492"><ele>426.33333333333337</ele><time>2026-03-29T10:37:39.002Z</time></trkpt><trkpt lat="37.3644698043701" lon="13.883971093181954"><ele>427.0</ele><time>2026-03-29T10:37:40.002Z</time></trkpt><trkpt lat="37.3645076967732" lon="13.884189686602834"><ele>427.0</ele><time>2026-03-29T10:37:41.003Z</time></trkpt><trkpt lat="37.364543467286545" lon="13.884402473834191"><ele>427.0</ele><time>2026-03-29T10:37:42.003Z</time></trkpt><trkpt lat="37.36457801896654" lon="13.884615112154655"><ele>427.0</ele><time>2026-03-29T10:37:43.003Z</time></trkpt><trkpt lat="37.364608605764765" lon="13.88482066031708"><ele>427.0</ele><time>2026-03-29T10:37:44.003Z</time></trkpt><trkpt lat="37.36462892628405" lon="13.885022587966121"><ele>427.0</ele><time>2026-03-29T10:37:45.003Z</time></trkpt><trkpt lat="37.36462328431994" lon="13.885231618235705"><ele>427.0</ele><time>2026-03-29T10:37:46.003Z</time></trkpt><trkpt lat="37.36458781710329" lon="13.885442418924901"><ele>427.0</ele><time>2026-03-29T10:37:47.003Z</time></trkpt><trkpt lat="37.364536716089866" lon="13.88564597875221"><ele>427.0</ele><time>2026-03-29T10:37:48.003Z</time></trkpt><trkpt lat="37.3644782956938" lon="13.885833280789873"><ele>427.0</ele><time>2026-03-29T10:37:49.003Z</time></trkpt><trkpt lat="37.364422760362906" lon="13.886023046671292"><ele>426.6666666666667</ele><time>2026-03-29T10:37:50.003Z</time></trkpt><trkpt lat="37.364385934358" lon="13.886212896547894"><ele>426.33333333333337</ele><time>2026-03-29T10:37:51Z</time></trkpt><trkpt lat="37.36436738011021" lon="13.886404709220662"><ele>426.0</ele><time>2026-03-29T10:37:52Z</time></trkpt><trkpt lat="37.36437193505529" lon="13.886610796723632"><ele>425.0</ele><time>2026-03-29T10:37:53Z</time></trkpt><trkpt lat="37.364400210533994" lon="13.886823172833108"><ele>424.0</ele><time>2026-03-29T10:37:54Z</time></trkpt><trkpt lat="37.36443364652606" lon="13.887038877855248"><ele>423.0</ele><time>2026-03-29T10:37:55Z</time></trkpt><trkpt lat="37.36445752780684" lon="13.887252391025125"><ele>423.0</ele><time>2026-03-29T10:37:56Z</time></trkpt><trkpt lat="37.364463812975714" lon="13.887466295354448"><ele>423.0</ele><time>2026-03-29T10:37:57Z</time></trkpt><trkpt lat="37.36445523487942" lon="13.887680601800358"><ele>423.0</ele><time>2026-03-29T10:37:58Z</time></trkpt><trkpt lat="37.364435434023925" lon="13.887899456294637"><ele>422.33333333333337</ele><time>2026-03-29T10:37:59Z</time></trkpt><trkpt lat="37.36441539074791" lon="13.888122583979294"><ele>421.6666666666667</ele><time>2026-03-29T10:38:00Z</time></trkpt><trkpt lat="37.36440582688623" lon="13.888343856929522"><ele>421.0</ele><time>2026-03-29T10:38:01Z</time></trkpt><trkpt lat="37.364405390211" lon="13.888569349093576"><ele>420.33333333333337</ele><time>2026-03-29T10:38:02Z</time></trkpt><trkpt lat="37.364424442546515" lon="13.888808953068937"><ele>419.66666666666663</ele><time>2026-03-29T10:38:03Z</time></trkpt><trkpt lat="37.364474937485326" lon="13.889060609676497"><ele>419.0</ele><time>2026-03-29T10:38:04Z</time></trkpt><trkpt lat="37.364555999026166" lon="13.889322776940675"><ele>418.0</ele><time>2026-03-29T10:38:05Z</time></trkpt><trkpt lat="37.364643280846046" lon="13.889593749390265"><ele>417.0</ele><time>2026-03-29T10:38:06Z</time></trkpt><trkpt lat="37.36472271244611" lon="13.889847724308506"><ele>416.0</ele><time>2026-03-29T10:38:07Z</time></trkpt><trkpt lat="37.364794268341946" lon="13.890087413775396"><ele>415.0</ele><time>2026-03-29T10:38:08Z</time></trkpt><trkpt lat="37.364863522434625" lon="13.890315510897391"><ele>414.0</ele><time>2026-03-29T10:38:09Z</time></trkpt><trkpt lat="37.364926891994365" lon="13.890539783281694"><ele>413.0</ele><time>2026-03-29T10:38:10Z</time></trkpt><trkpt lat="37.36497459830418" lon="13.890755296055083"><ele>412.66666666666663</ele><time>2026-03-29T10:38:11Z</time></trkpt><trkpt lat="37.36499303216663" lon="13.890968709674542"><ele>412.33333333333337</ele><time>2026-03-29T10:38:12Z</time></trkpt><trkpt lat="37.36497004384497" lon="13.891184847219883"><ele>412.0</ele><time>2026-03-29T10:38:13Z</time></trkpt><trkpt lat="37.364913644469695" lon="13.891403649967822"><ele>412.0</ele><time>2026-03-29T10:38:14Z</time></trkpt><trkpt lat="37.3648454713287" lon="13.891621849157076"><ele>412.0</ele><time>2026-03-29T10:38:15Z</time></trkpt><trkpt lat="37.364788123755986" lon="13.891823548224236"><ele>412.0</ele><time>2026-03-29T10:38:16Z</time></trkpt><trkpt lat="37.364738346379895" lon="13.892011576118144"><ele>411.5</ele><time>2026-03-29T10:38:17Z</time></trkpt><trkpt lat="37.36469228029151" lon="13.89219471786154"><ele>411.0</ele><time>2026-03-29T10:38:18Z</time></trkpt><trkpt lat="37.36464342689891" lon="13.892367884815538"><ele>410.5</ele><time>2026-03-29T10:38:19Z</time></trkpt><trkpt lat="37.364592920550564" lon="13.892528075664186"><ele>410.0</ele><time>2026-03-29T10:38:20Z</time></trkpt><trkpt lat="37.36453611098556" lon="13.892687403791626"><ele>410.0</ele><time>2026-03-29T10:38:21Z</time></trkpt><trkpt lat="37.36445681016131" lon="13.892839999486599"><ele>410.0</ele><time>2026-03-29T10:38:22Z</time></trkpt><trkpt lat="37.364342286441776" lon="13.893001209259348"><ele>410.0</ele><time>2026-03-29T10:38:23Z</time></trkpt><trkpt lat="37.364193032207226" lon="13.893150439149236"><ele>410.0</ele><time>2026-03-29T10:38:24Z</time></trkpt><trkpt lat="37.36401788692462" lon="13.89329126415837"><ele>410.0</ele><time>2026-03-29T10:38:25Z</time></trkpt><trkpt lat="37.36385073635343" lon="13.89343934834962"><ele>410.0</ele><time>2026-03-29T10:38:26Z</time></trkpt><trkpt lat="37.36368814079224" lon="13.893596490902114"><ele>411.3333333333333</ele><time>2026-03-29T10:38:27Z</time></trkpt><trkpt lat="37.36352702677815" lon="13.893745031847336"><ele>412.66666666666663</ele><time>2026-03-29T10:38:28Z</time></trkpt><trkpt lat="37.3633510886503" lon="13.893919297521707"><ele>414.0</ele><time>2026-03-29T10:38:29.001Z</time></trkpt><trkpt lat="37.36316544307973" lon="13.894088750883148"><ele>415.0</ele><time>2026-03-29T10:38:30.001Z</time></trkpt><trkpt lat="37.362972268576726" lon="13.89424007868064"><ele>416.0</ele><time>2026-03-29T10:38:31.001Z</time></trkpt><trkpt lat="37.362782987631306" lon="13.894407262605975"><ele>416.0</ele><time>2026-03-29T10:38:32.001Z</time></trkpt><trkpt lat="37.36261472435803" lon="13.89459852995297"><ele>416.0</ele><time>2026-03-29T10:38:33.001Z</time></trkpt><trkpt lat="37.36246865529109" lon="13.894815496430981"><ele>416.0</ele><time>2026-03-29T10:38:34.001Z</time></trkpt><trkpt lat="37.36234055877763" lon="13.895055861998738"><ele>416.0</ele><time>2026-03-29T10:38:35.001Z</time></trkpt><trkpt lat="37.36222342982462" lon="13.8953145874445"><ele>408.5</ele><time>2026-03-29T10:38:36.001Z</time></trkpt><trkpt lat="37.36212615930615" lon="13.895602743692"><ele>401.0</ele><time>2026-03-29T10:38:37.001Z</time></trkpt><trkpt lat="37.362051048079564" lon="13.895911642514234"><ele>402.0</ele><time>2026-03-29T10:38:38.001Z</time></trkpt><trkpt lat="37.361986210381026" lon="13.896220146988329"><ele>403.0</ele><time>2026-03-29T10:38:39.001Z</time></trkpt><trkpt lat="37.36193743903161" lon="13.896518660324231"><ele>405.0</ele><time>2026-03-29T10:38:40.001Z</time></trkpt><trkpt lat="37.3618952522542" lon="13.896798075518756"><ele>407.0</ele><time>2026-03-29T10:38:41.001Z</time></trkpt><trkpt lat="37.361869639365985" lon="13.897078867559726"><ele>407.0</ele><time>2026-03-29T10:38:42.001Z</time></trkpt><trkpt lat="37.3618754461864" lon="13.897362746018706"><ele>407.0</ele><time>2026-03-29T10:38:43.001Z</time></trkpt><trkpt lat="37.361909465353044" lon="13.897645950218772"><ele>404.5</ele><time>2026-03-29T10:38:44.001Z</time></trkpt><trkpt lat="37.361968894640384" lon="13.89792846316981"><ele>402.0</ele><time>2026-03-29T10:38:45.001Z</time></trkpt><trkpt lat="37.362054947305396" lon="13.898211481969263"><ele>405.0</ele><time>2026-03-29T10:38:46.001Z</time></trkpt><trkpt lat="37.36215188754605" lon="13.898493343966926"><ele>408.0</ele><time>2026-03-29T10:38:47.001Z</time></trkpt><trkpt lat="37.36224900748977" lon="13.898771361030452"><ele>408.0</ele><time>2026-03-29T10:38:48.001Z</time></trkpt><trkpt lat="37.36234227404531" lon="13.899033783860899"><ele>408.0</ele><time>2026-03-29T10:38:49.001Z</time></trkpt><trkpt lat="37.362427292055145" lon="13.899282734454038"><ele>408.0</ele><time>2026-03-29T10:38:50.001Z</time></trkpt><trkpt lat="37.36251070599227" lon="13.899514692275345"><ele>405.66666666666663</ele><time>2026-03-29T10:38:51.001Z</time></trkpt><trkpt lat="37.36260771193803" lon="13.899740947031082"><ele>403.3333333333333</ele><time>2026-03-29T10:38:52.001Z</time></trkpt><trkpt lat="37.36272132854016" lon="13.89995997012197"><ele>401.0</ele><time>2026-03-29T10:38:53.001Z</time></trkpt><trkpt lat="37.362828433570805" lon="13.900166647689908"><ele>399.0</ele><time>2026-03-29T10:38:54.001Z</time></trkpt><trkpt lat="37.36291224948477" lon="13.900371152037357"><ele>397.0</ele><time>2026-03-29T10:38:55.001Z</time></trkpt><trkpt lat="37.362961668169035" lon="13.900594053867987"><ele>395.0</ele><time>2026-03-29T10:38:56.001Z</time></trkpt><trkpt lat="37.362973853379195" lon="13.900832541655877"><ele>395.3333333333333</ele><time>2026-03-29T10:38:57.001Z</time></trkpt><trkpt lat="37.36294938760513" lon="13.901084121519313"><ele>395.66666666666663</ele><time>2026-03-29T10:38:58.001Z</time></trkpt><trkpt lat="37.36291371822416" lon="13.901346808881033"><ele>396.0</ele><time>2026-03-29T10:38:59.001Z</time></trkpt><trkpt lat="37.36288602676739" lon="13.901613682524875"><ele>395.66666666666663</ele><time>2026-03-29T10:39:00.001Z</time></trkpt><trkpt lat="37.36288277298124" lon="13.901860472470322"><ele>395.3333333333333</ele><time>2026-03-29T10:39:01.001Z</time></trkpt><trkpt lat="37.362920544611214" lon="13.902104987382694"><ele>395.0</ele><time>2026-03-29T10:39:02.001Z</time></trkpt><trkpt lat="37.3630025768448" lon="13.902354188649937"><ele>400.3333333333333</ele><time>2026-03-29T10:39:03.002Z</time></trkpt><trkpt lat="37.36310433870996" lon="13.902591597145996"><ele>405.66666666666663</ele><time>2026-03-29T10:39:04.002Z</time></trkpt><trkpt lat="37.363185486111995" lon="13.902817429499741"><ele>411.0</ele><time>2026-03-29T10:39:05.002Z</time></trkpt><trkpt lat="37.363228705804154" lon="13.90304914956526"><ele>411.0</ele><time>2026-03-29T10:39:06.002Z</time></trkpt><trkpt lat="37.363235295962184" lon="13.903289012187248"><ele>411.0</ele><time>2026-03-29T10:39:07.002Z</time></trkpt><trkpt lat="37.363202269086436" lon="13.90352794200823"><ele>411.0</ele><time>2026-03-29T10:39:08.002Z</time></trkpt><trkpt lat="37.363129077613124" lon="13.903751423751316"><ele>407.0</ele><time>2026-03-29T10:39:09.002Z</time></trkpt><trkpt lat="37.36301321029441" lon="13.903959790683643"><ele>403.0</ele><time>2026-03-29T10:39:10.002Z</time></trkpt><trkpt lat="37.36288241894618" lon="13.904158290684816"><ele>399.0</ele><time>2026-03-29T10:39:11.002Z</time></trkpt><trkpt lat="37.36278107733095" lon="13.904360700506855"><ele>399.0</ele><time>2026-03-29T10:39:12.002Z</time></trkpt><trkpt lat="37.36271792929249" lon="13.904579912451878"><ele>399.0</ele><time>2026-03-29T10:39:13.002Z</time></trkpt><trkpt lat="37.362684894342095" lon="13.90482124095409"><ele>399.0</ele><time>2026-03-29T10:39:14.002Z</time></trkpt><trkpt lat="37.36268516088915" lon="13.905075485577838"><ele>396.66666666666663</ele><time>2026-03-29T10:39:15.002Z</time></trkpt><trkpt lat="37.362723925534986" lon="13.90534023538371"><ele>394.3333333333333</ele><time>2026-03-29T10:39:16.002Z</time></trkpt><trkpt lat="37.362790414694" lon="13.90561439475935"><ele>392.0</ele><time>2026-03-29T10:39:17.002Z</time></trkpt><trkpt lat="37.36287010648433" lon="13.905901071256016"><ele>389.0</ele><time>2026-03-29T10:39:18.002Z</time></trkpt><trkpt lat="37.36294553136434" lon="13.906195997749876"><ele>386.0</ele><time>2026-03-29T10:39:19.002Z</time></trkpt><trkpt lat="37.36301919505997" lon="13.906494849629002"><ele>388.0</ele><time>2026-03-29T10:39:20.002Z</time></trkpt><trkpt lat="37.36309090975106" lon="13.906780818565439"><ele>390.0</ele><time>2026-03-29T10:39:21.002Z</time></trkpt><trkpt lat="37.36315592114127" lon="13.907049849416243"><ele>390.0</ele><time>2026-03-29T10:39:22.002Z</time></trkpt><trkpt lat="37.36321904931435" lon="13.907310125942448"><ele>390.0</ele><time>2026-03-29T10:39:23.002Z</time></trkpt><trkpt lat="37.363291318056596" lon="13.907563883986816"><ele>390.0</ele><time>2026-03-29T10:39:24.002Z</time></trkpt><trkpt lat="37.36338836795104" lon="13.907805551046213"><ele>390.0</ele><time>2026-03-29T10:39:25.002Z</time></trkpt><trkpt lat="37.36351826674048" lon="13.908032770531042"><ele>390.0</ele><time>2026-03-29T10:39:26.002Z</time></trkpt><trkpt lat="37.36367497990568" lon="13.908226963564712"><ele>390.0</ele><time>2026-03-29T10:39:27.002Z</time></trkpt><trkpt lat="37.36385400131917" lon="13.908382311273998"><ele>387.6666666666667</ele><time>2026-03-29T10:39:28.002Z</time></trkpt><trkpt lat="37.364054770064115" lon="13.908490925200674"><ele>385.33333333333337</ele><time>2026-03-29T10:39:29.002Z</time></trkpt><trkpt lat="37.36427194681906" lon="13.9085557905655"><ele>383.0</ele><time>2026-03-29T10:39:30.002Z</time></trkpt><trkpt lat="37.36449252357961" lon="13.90859318581465"><ele>382.6666666666667</ele><time>2026-03-29T10:39:31.002Z</time></trkpt><trkpt lat="37.36470119078755" lon="13.908589358544447"><ele>382.3333333333333</ele><time>2026-03-29T10:39:32.002Z</time></trkpt><trkpt lat="37.364894485079844" lon="13.9085777414433"><ele>382.0</ele><time>2026-03-29T10:39:33.002Z</time></trkpt><trkpt lat="37.36508355338136" lon="13.908596881242003"><ele>382.0</ele><time>2026-03-29T10:39:34.002Z</time></trkpt><trkpt lat="37.36525855879453" lon="13.9086492200944"><ele>382.0</ele><time>2026-03-29T10:39:35.002Z</time></trkpt><trkpt lat="37.365419240327206" lon="13.908752695346926"><ele>382.0</ele><time>2026-03-29T10:39:36.002Z</time></trkpt><trkpt lat="37.36556857093116" lon="13.90890343820977"><ele>382.0</ele><time>2026-03-29T10:39:37.003Z</time></trkpt><trkpt lat="37.365697171563454" lon="13.909090021742083"><ele>382.0</ele><time>2026-03-29T10:39:38.003Z</time></trkpt><trkpt lat="37.36579291999436" lon="13.909311821471315"><ele>382.0</ele><time>2026-03-29T10:39:39.003Z</time></trkpt><trkpt lat="37.36584733382376" lon="13.909556938355351"><ele>382.0</ele><time>2026-03-29T10:39:40.003Z</time></trkpt><trkpt lat="37.36585664556321" lon="13.909813769640353"><ele>382.0</ele><time>2026-03-29T10:39:41.003Z</time></trkpt><trkpt lat="37.36581624185096" lon="13.91006709228061"><ele>382.0</ele><time>2026-03-29T10:39:42.003Z</time></trkpt><trkpt lat="37.3657338625101" lon="13.91030986507092"><ele>381.0</ele><time>2026-03-29T10:39:43.003Z</time></trkpt><trkpt lat="37.365627563170634" lon="13.910559619013748"><ele>380.0</ele><time>2026-03-29T10:39:44.003Z</time></trkpt><trkpt lat="37.365517574795234" lon="13.910828722337225"><ele>377.5</ele><time>2026-03-29T10:39:45.003Z</time></trkpt><trkpt lat="37.36541457973937" lon="13.911118943419556"><ele>375.0</ele><time>2026-03-29T10:39:46.003Z</time></trkpt><trkpt lat="37.36530593201103" lon="13.911424772834325"><ele>375.0</ele><time>2026-03-29T10:39:47.003Z</time></trkpt><trkpt lat="37.36519586808663" lon="13.91172799072014"><ele>375.0</ele><time>2026-03-29T10:39:48.003Z</time></trkpt><trkpt lat="37.36508688001813" lon="13.912023016758605"><ele>372.5</ele><time>2026-03-29T10:39:49.003Z</time></trkpt><trkpt lat="37.36498131413755" lon="13.912317447680522"><ele>370.0</ele><time>2026-03-29T10:39:50.003Z</time></trkpt><trkpt lat="37.364883423829845" lon="13.912599946461405"><ele>367.5</ele><time>2026-03-29T10:39:51.003Z</time></trkpt><trkpt lat="37.36478679239907" lon="13.912878609921885"><ele>365.0</ele><time>2026-03-29T10:39:52.003Z</time></trkpt><trkpt lat="37.36468732941616" lon="13.91315880429342"><ele>367.5</ele><time>2026-03-29T10:39:53.003Z</time></trkpt><trkpt lat="37.364587512167915" lon="13.913436988658242"><ele>370.0</ele><time>2026-03-29T10:39:54.003Z</time></trkpt><trkpt lat="37.36448975342725" lon="13.913698444049242"><ele>370.0</ele><time>2026-03-29T10:39:55.003Z</time></trkpt><trkpt lat="37.36438644688053" lon="13.913921406331266"><ele>370.0</ele><time>2026-03-29T10:39:56.003Z</time></trkpt><trkpt lat="37.36426093459484" lon="13.914121353537357"><ele>370.0</ele><time>2026-03-29T10:39:57Z</time></trkpt><trkpt lat="37.364107238820075" lon="13.914302013819645"><ele>371.66666666666663</ele><time>2026-03-29T10:39:58Z</time></trkpt><trkpt lat="37.36392943427378" lon="13.914449749846348"><ele>373.3333333333333</ele><time>2026-03-29T10:39:59Z</time></trkpt><trkpt lat="37.36372949629143" lon="13.9145654238565"><ele>375.0</ele><time>2026-03-29T10:40:00Z</time></trkpt><trkpt lat="37.363515976476435" lon="13.91464195424712"><ele>376.3333333333333</ele><time>2026-03-29T10:40:01Z</time></trkpt><trkpt lat="37.3632965928929" lon="13.914669314303568"><ele>377.66666666666663</ele><time>2026-03-29T10:40:02Z</time></trkpt><trkpt lat="37.36307018770511" lon="13.914657203536864"><ele>379.0</ele><time>2026-03-29T10:40:03Z</time></trkpt><trkpt lat="37.362841473061216" lon="13.914619975440347"><ele>381.5</ele><time>2026-03-29T10:40:04Z</time></trkpt><trkpt lat="37.36261478047744" lon="13.914596690361964"><ele>384.0</ele><time>2026-03-29T10:40:05Z</time></trkpt><trkpt lat="37.362386302301246" lon="13.91460191689751"><ele>387.0</ele><time>2026-03-29T10:40:06Z</time></trkpt><trkpt lat="37.36215496231107" lon="13.914639508777602"><ele>390.0</ele><time>2026-03-29T10:40:07Z</time></trkpt><trkpt lat="37.36192227706544" lon="13.914715809168289"><ele>390.0</ele><time>2026-03-29T10:40:08.001Z</time></trkpt><trkpt lat="37.36169308453576" lon="13.914820424496304"><ele>390.0</ele><time>2026-03-29T10:40:09.001Z</time></trkpt><trkpt lat="37.36147237056852" lon="13.91493721549377"><ele>392.5</ele><time>2026-03-29T10:40:10.001Z</time></trkpt><trkpt lat="37.3612581232627" lon="13.915061329681253"><ele>395.0</ele><time>2026-03-29T10:40:11.001Z</time></trkpt><trkpt lat="37.36104907348168" lon="13.915181162200756"><ele>396.0</ele><time>2026-03-29T10:40:12.001Z</time></trkpt><trkpt lat="37.36084773788531" lon="13.915290968719157"><ele>397.0</ele><time>2026-03-29T10:40:13.001Z</time></trkpt><trkpt lat="37.360662360362596" lon="13.91539366341867"><ele>398.0</ele><time>2026-03-29T10:40:14.001Z</time></trkpt><trkpt lat="37.360487162412596" lon="13.915492801370101"><ele>399.66666666666663</ele><time>2026-03-29T10:40:15.001Z</time></trkpt><trkpt lat="37.36032546694474" lon="13.915592053519545"><ele>401.33333333333337</ele><time>2026-03-29T10:40:16.001Z</time></trkpt><trkpt lat="37.360165717351386" lon="13.915709256407718"><ele>403.0</ele><time>2026-03-29T10:40:17.001Z</time></trkpt><trkpt lat="37.360015543845776" lon="13.915850695492445"><ele>403.33333333333337</ele><time>2026-03-29T10:40:18.001Z</time></trkpt><trkpt lat="37.359876822481624" lon="13.916004212975201"><ele>403.66666666666663</ele><time>2026-03-29T10:40:19.001Z</time></trkpt><trkpt lat="37.35974319659061" lon="13.91616501833424"><ele>404.0</ele><time>2026-03-29T10:40:20.001Z</time></trkpt><trkpt lat="37.35961099111846" lon="13.916323085990383"><ele>404.0</ele><time>2026-03-29T10:40:21.001Z</time></trkpt><trkpt lat="37.35947780454293" lon="13.916478507771835"><ele>404.0</ele><time>2026-03-29T10:40:22.001Z</time></trkpt><trkpt lat="37.35934785641049" lon="13.916634302250683"><ele>404.0</ele><time>2026-03-29T10:40:23.001Z</time></trkpt><trkpt lat="37.35922203514388" lon="13.916790188255229"><ele>408.66666666666663</ele><time>2026-03-29T10:40:24.001Z</time></trkpt><trkpt lat="37.359102134061594" lon="13.916954918823434"><ele>413.33333333333337</ele><time>2026-03-29T10:40:25.001Z</time></trkpt><trkpt lat="37.35898625265833" lon="13.91713906003714"><ele>418.0</ele><time>2026-03-29T10:40:26.001Z</time></trkpt><trkpt lat="37.358875711968636" lon="13.917342169855761"><ele>417.33333333333337</ele><time>2026-03-29T10:40:27.001Z</time></trkpt><trkpt lat="37.358768757398764" lon="13.917563045490391"><ele>416.66666666666663</ele><time>2026-03-29T10:40:28.001Z</time></trkpt><trkpt lat="37.35866186267124" lon="13.91779497046598"><ele>416.0</ele><time>2026-03-29T10:40:29.001Z</time></trkpt><trkpt lat="37.358547039446606" lon="13.918035401371789"><ele>416.0</ele><time>2026-03-29T10:40:30.001Z</time></trkpt><trkpt lat="37.35843119429562" lon="13.91827304288861"><ele>416.0</ele><time>2026-03-29T10:40:31.001Z</time></trkpt><trkpt lat="37.35832583377537" lon="13.918494213708227"><ele>416.0</ele><time>2026-03-29T10:40:32.001Z</time></trkpt><trkpt lat="37.35821981199781" lon="13.918712450556356"><ele>419.3333333333333</ele><time>2026-03-29T10:40:33.001Z</time></trkpt><trkpt lat="37.35811689577177" lon="13.918931897361885"><ele>422.66666666666663</ele><time>2026-03-29T10:40:34.001Z</time></trkpt><trkpt lat="37.35801603318944" lon="13.919142192087573"><ele>426.0</ele><time>2026-03-29T10:40:35.001Z</time></trkpt><trkpt lat="37.35792199922755" lon="13.919333013988792"><ele>426.33333333333337</ele><time>2026-03-29T10:40:36.001Z</time></trkpt><trkpt lat="37.35783813304076" lon="13.919509158906532"><ele>426.6666666666667</ele><time>2026-03-29T10:40:37.001Z</time></trkpt><trkpt lat="37.35776106523271" lon="13.91969260823385"><ele>427.0</ele><time>2026-03-29T10:40:38.001Z</time></trkpt><trkpt lat="37.35769876989794" lon="13.919884576578466"><ele>426.0</ele><time>2026-03-29T10:40:39.001Z</time></trkpt><trkpt lat="37.35765108731716" lon="13.920084655015128"><ele>425.0</ele><time>2026-03-29T10:40:40.001Z</time></trkpt><trkpt lat="37.35758169195591" lon="13.92050045554933"><ele>425.0</ele><time>2026-03-29T10:40:42.001Z</time></trkpt><trkpt lat="37.357548895212716" lon="13.920716502827311"><ele>425.0</ele><time>2026-03-29T10:40:43.001Z</time></trkpt><trkpt lat="37.35751332329125" lon="13.92093393224135"><ele>425.0</ele><time>2026-03-29T10:40:44.001Z</time></trkpt><trkpt lat="37.357479400478375" lon="13.921149328907987"><ele>425.3333333333333</ele><time>2026-03-29T10:40:45.001Z</time></trkpt><trkpt lat="37.357446176486185" lon="13.921361195981051"><ele>425.66666666666663</ele><time>2026-03-29T10:40:46.001Z</time></trkpt><trkpt lat="37.35741260091632" lon="13.921571487625886"><ele>426.0</ele><time>2026-03-29T10:40:47.002Z</time></trkpt><trkpt lat="37.357379091687896" lon="13.921781705505799"><ele>428.0</ele><time>2026-03-29T10:40:48.002Z</time></trkpt><trkpt lat="37.357346619252674" lon="13.921986969299038"><ele>430.0</ele><time>2026-03-29T10:40:49.002Z</time></trkpt><trkpt lat="37.357313223309035" lon="13.92218142394656"><ele>432.0</ele><time>2026-03-29T10:40:50.002Z</time></trkpt><trkpt lat="37.35728092629994" lon="13.922359977649752"><ele>432.0</ele><time>2026-03-29T10:40:51.002Z</time></trkpt><trkpt lat="37.35724852847309" lon="13.922529383029483"><ele>432.0</ele><time>2026-03-29T10:40:52.002Z</time></trkpt><trkpt lat="37.35721756704075" lon="13.922688382287141"><ele>432.0</ele><time>2026-03-29T10:40:53.002Z</time></trkpt><trkpt lat="37.35718690225117" lon="13.922834844992588"><ele>432.0</ele><time>2026-03-29T10:40:54.002Z</time></trkpt><trkpt lat="37.3571579048831" lon="13.922974732616197"><ele>430.8</ele><time>2026-03-29T10:40:55.002Z</time></trkpt><trkpt lat="37.35712630490454" lon="13.923104003870904"><ele>429.6</ele><time>2026-03-29T10:40:56.002Z</time></trkpt><trkpt lat="37.35709102299179" lon="13.923223112814885"><ele>428.40000000000003</ele><time>2026-03-29T10:40:57.002Z</time></trkpt><trkpt lat="37.357052839096376" lon="13.923331074036827"><ele>427.20000000000005</ele><time>2026-03-29T10:40:58.002Z</time></trkpt><trkpt lat="37.35701955393583" lon="13.92343021951772"><ele>426.0</ele><time>2026-03-29T10:40:59.002Z</time></trkpt><trkpt lat="37.35699636670136" lon="13.923512554434206"><ele>426.0</ele><time>2026-03-29T10:41:00.002Z</time></trkpt><trkpt lat="37.3569766998049" lon="13.92365585195682"><ele>426.0</ele><time>2026-03-29T10:41:02.002Z</time></trkpt><trkpt lat="37.356980389451536" lon="13.923767967684629"><ele>426.0</ele><time>2026-03-29T10:41:04.002Z</time></trkpt><trkpt lat="37.356983867226454" lon="13.92386147351429"><ele>426.0</ele><time>2026-03-29T10:41:06.002Z</time></trkpt><trkpt lat="37.35695681078136" lon="13.923982700342046"><ele>426.0</ele><time>2026-03-29T10:41:08.002Z</time></trkpt><trkpt lat="37.356917241493456" lon="13.924124012509795"><ele>426.0</ele><time>2026-03-29T10:41:10.002Z</time></trkpt><trkpt lat="37.356901004799816" lon="13.924206167733532"><ele>426.0</ele><time>2026-03-29T10:41:11.002Z</time></trkpt><trkpt lat="37.35689292520333" lon="13.9243197820374"><ele>426.0</ele><time>2026-03-29T10:41:13.002Z</time></trkpt><trkpt lat="37.356942525106454" lon="13.924391650509136"><ele>426.0</ele><time>2026-03-29T10:41:29.003Z</time></trkpt><trkpt lat="37.35697775635511" lon="13.924469175038928"><ele>426.0</ele><time>2026-03-29T10:41:31.003Z</time></trkpt><trkpt lat="37.35696704674687" lon="13.924611496516786"><ele>426.0</ele><time>2026-03-29T10:41:33.003Z</time></trkpt><trkpt lat="37.35696786253411" lon="13.924727332181247"><ele>426.6</ele><time>2026-03-29T10:41:34.003Z</time></trkpt><trkpt lat="37.356974845745896" lon="13.92485184424564"><ele>427.20000000000005</ele><time>2026-03-29T10:41:35.003Z</time></trkpt><trkpt lat="37.356991699257875" lon="13.924986613468684"><ele>427.79999999999995</ele><time>2026-03-29T10:41:36.003Z</time></trkpt><trkpt lat="37.35701867940231" lon="13.925108545892837"><ele>428.4</ele><time>2026-03-29T10:41:37.003Z</time></trkpt><trkpt lat="37.35704225646204" lon="13.92522544883857"><ele>429.0</ele><time>2026-03-29T10:41:38.003Z</time></trkpt><trkpt lat="37.35706401977982" lon="13.925344362562187"><ele>429.2</ele><time>2026-03-29T10:41:39.003Z</time></trkpt><trkpt lat="37.35708328723662" lon="13.925465704918572"><ele>429.4</ele><time>2026-03-29T10:41:40.003Z</time></trkpt><trkpt lat="37.3571035097069" lon="13.925581877449106"><ele>429.6</ele><time>2026-03-29T10:41:41.003Z</time></trkpt><trkpt lat="37.357122968309646" lon="13.925700301741122"><ele>429.8</ele><time>2026-03-29T10:41:42.003Z</time></trkpt><trkpt lat="37.35714609144389" lon="13.925810235641089"><ele>430.0</ele><time>2026-03-29T10:41:43.003Z</time></trkpt><trkpt lat="37.35716721866329" lon="13.925917320000002"><ele>429.6</ele><time>2026-03-29T10:41:44.003Z</time></trkpt><trkpt lat="37.35718387615263" lon="13.926006040274316"><ele>429.2</ele><time>2026-03-29T10:41:45.003Z</time></trkpt><trkpt lat="37.357205146579616" lon="13.926163655661181"><ele>428.79999999999995</ele><time>2026-03-29T10:41:47.003Z</time></trkpt><trkpt lat="37.35722700402057" lon="13.92631109068114"><ele>428.4</ele><time>2026-03-29T10:41:49.003Z</time></trkpt><trkpt lat="37.35724759909823" lon="13.92641224900684"><ele>428.0</ele><time>2026-03-29T10:41:50.003Z</time></trkpt><trkpt lat="37.35726985452301" lon="13.926535093609765"><ele>429.0</ele><time>2026-03-29T10:41:51.003Z</time></trkpt><trkpt lat="37.35728738233975" lon="13.926637666899838"><ele>429.99999999999994</ele><time>2026-03-29T10:41:52.003Z</time></trkpt><trkpt lat="37.35730236418334" lon="13.926725919404582"><ele>430.99999999999994</ele><time>2026-03-29T10:41:53.003Z</time></trkpt><trkpt lat="37.35730338594574" lon="13.926837135278236"><ele>432.0</ele><time>2026-03-29T10:41:55.003Z</time></trkpt><trkpt lat="37.357334172652585" lon="13.926987144732191"><ele>433.0</ele><time>2026-03-29T10:41:57.004Z</time></trkpt><trkpt lat="37.35735606236885" lon="13.927108107291978"><ele>433.1666666666667</ele><time>2026-03-29T10:41:58.004Z</time></trkpt><trkpt lat="37.35737698461773" lon="13.9272295487052"><ele>433.33333333333337</ele><time>2026-03-29T10:41:59.004Z</time></trkpt><trkpt lat="37.35739331518536" lon="13.927331198887364"><ele>433.5</ele><time>2026-03-29T10:42:00.004Z</time></trkpt><trkpt lat="37.35740750003039" lon="13.927422199861866"><ele>433.66666666666663</ele><time>2026-03-29T10:42:01.004Z</time></trkpt><trkpt lat="37.35742238042339" lon="13.927503461132007"><ele>433.8333333333333</ele><time>2026-03-29T10:42:02.004Z</time></trkpt><trkpt lat="37.35744021663831" lon="13.92763212237773"><ele>434.0</ele><time>2026-03-29T10:42:04.001Z</time></trkpt><trkpt lat="37.35744683485266" lon="13.927723011562287"><ele>433.49999999999994</ele><time>2026-03-29T10:42:06.001Z</time></trkpt><trkpt lat="37.357451552795844" lon="13.927807613064372"><ele>433.0</ele><time>2026-03-29T10:42:07.001Z</time></trkpt><trkpt lat="37.35746222463648" lon="13.92790466425853"><ele>432.5</ele><time>2026-03-29T10:42:08.001Z</time></trkpt><trkpt lat="37.35747496114212" lon="13.928001359809636"><ele>432.0</ele><time>2026-03-29T10:42:09.001Z</time></trkpt><trkpt lat="37.3575026539915" lon="13.928142386368116"><ele>431.49999999999994</ele><time>2026-03-29T10:42:11.001Z</time></trkpt><trkpt lat="37.357561302566886" lon="13.928209201009311"><ele>431.0</ele><time>2026-03-29T10:42:13.001Z</time></trkpt><trkpt lat="37.3576536329346" lon="13.928232423398791"><ele>431.0</ele><time>2026-03-29T10:42:15.001Z</time></trkpt><trkpt lat="37.35769498546778" lon="13.928341682320504"><ele>431.0</ele><time>2026-03-29T10:42:17.001Z</time></trkpt><trkpt lat="37.35773320641477" lon="13.928474722548026"><ele>431.0</ele><time>2026-03-29T10:42:19.001Z</time></trkpt><trkpt lat="37.35777661210336" lon="13.92858787081516"><ele>431.0</ele><time>2026-03-29T10:42:21.001Z</time></trkpt><trkpt lat="37.357809174879264" lon="13.928656969403326"><ele>431.0</ele><time>2026-03-29T10:42:23.001Z</time></trkpt><trkpt lat="37.35782335334569" lon="13.928756372977762"><ele>431.0</ele><time>2026-03-29T10:42:26.001Z</time></trkpt><trkpt lat="37.35784666865162" lon="13.928891983800824"><ele>431.0</ele><time>2026-03-29T10:42:28.001Z</time></trkpt><trkpt lat="37.35788120574438" lon="13.929012059393553"><ele>431.0</ele><time>2026-03-29T10:42:30.001Z</time></trkpt><trkpt lat="37.35793866971607" lon="13.929143669423237"><ele>431.0</ele><time>2026-03-29T10:42:32.001Z</time></trkpt><trkpt lat="37.3579851802062" lon="13.929225042018825"><ele>431.0</ele><time>2026-03-29T10:42:33.001Z</time></trkpt><trkpt lat="37.358029009963275" lon="13.92928481757708"><ele>430.99999999999994</ele><time>2026-03-29T10:42:34.001Z</time></trkpt><trkpt lat="37.358077143607" lon="13.929389597959254"><ele>431.0</ele><time>2026-03-29T10:42:36.001Z</time></trkpt><trkpt lat="37.35816855369393" lon="13.929480692386864"><ele>431.0</ele><time>2026-03-29T10:42:38.001Z</time></trkpt><trkpt lat="37.35821088973345" lon="13.929550997219561"><ele>431.0</ele><time>2026-03-29T10:42:39.001Z</time></trkpt><trkpt lat="37.35825639834946" lon="13.929631168900874"><ele>430.99999999999994</ele><time>2026-03-29T10:42:40.001Z</time></trkpt><trkpt lat="37.35830830487471" lon="13.929709429892041"><ele>431.0</ele><time>2026-03-29T10:42:41.001Z</time></trkpt><trkpt lat="37.35835922184483" lon="13.929780739157701"><ele>430.99999999999994</ele><time>2026-03-29T10:42:42.001Z</time></trkpt><trkpt lat="37.35840134953623" lon="13.929840960866283"><ele>431.0</ele><time>2026-03-29T10:42:43.002Z</time></trkpt><trkpt lat="37.35846023475849" lon="13.929897646884564"><ele>431.0</ele><time>2026-03-29T10:42:45.002Z</time></trkpt><trkpt lat="37.35852914813051" lon="13.929943272674667"><ele>431.0</ele><time>2026-03-29T10:42:48.002Z</time></trkpt><trkpt lat="37.35860745620307" lon="13.929999081634604"><ele>430.99999999999994</ele><time>2026-03-29T10:42:49.002Z</time></trkpt><trkpt lat="37.35869478517596" lon="13.930052931315702"><ele>431.0</ele><time>2026-03-29T10:42:50.002Z</time></trkpt><trkpt lat="37.358789706314205" lon="13.930120330260278"><ele>431.20000000000005</ele><time>2026-03-29T10:42:51.002Z</time></trkpt><trkpt lat="37.358888202766245" lon="13.930192669598524"><ele>431.40000000000003</ele><time>2026-03-29T10:42:52.002Z</time></trkpt><trkpt lat="37.358991475208164" lon="13.93026678073684"><ele>431.6</ele><time>2026-03-29T10:42:53.002Z</time></trkpt><trkpt lat="37.35908507528154" lon="13.930336270369889"><ele>431.8</ele><time>2026-03-29T10:42:54.002Z</time></trkpt><trkpt lat="37.35917033040979" lon="13.930399833738829"><ele>432.0</ele><time>2026-03-29T10:42:55.002Z</time></trkpt><trkpt lat="37.35926507502252" lon="13.93046984295207"><ele>432.0</ele><time>2026-03-29T10:42:56.002Z</time></trkpt><trkpt lat="37.35935328472026" lon="13.930539924986823"><ele>432.0</ele><time>2026-03-29T10:42:57.002Z</time></trkpt><trkpt lat="37.35944936210367" lon="13.930620374519389"><ele>432.0</ele><time>2026-03-29T10:42:58.002Z</time></trkpt><trkpt lat="37.35954981450615" lon="13.930713429052906"><ele>432.0</ele><time>2026-03-29T10:42:59.002Z</time></trkpt><trkpt lat="37.35965246246338" lon="13.930827075756794"><ele>432.5</ele><time>2026-03-29T10:43:00.002Z</time></trkpt><trkpt lat="37.35975541311731" lon="13.930946764240728"><ele>433.0</ele><time>2026-03-29T10:43:01.002Z</time></trkpt><trkpt lat="37.35985939634289" lon="13.931073492010501"><ele>433.5</ele><time>2026-03-29T10:43:02.002Z</time></trkpt><trkpt lat="37.359959283183535" lon="13.931203504521266"><ele>434.0</ele><time>2026-03-29T10:43:03.002Z</time></trkpt><trkpt lat="37.360044833660055" lon="13.93133759357408"><ele>434.0</ele><time>2026-03-29T10:43:04.002Z</time></trkpt><trkpt lat="37.36012499819609" lon="13.93147929288802"><ele>434.0</ele><time>2026-03-29T10:43:05.002Z</time></trkpt><trkpt lat="37.36020404013499" lon="13.931631257982126"><ele>434.0</ele><time>2026-03-29T10:43:06.002Z</time></trkpt><trkpt lat="37.36028546526613" lon="13.931786706253678"><ele>434.0</ele><time>2026-03-29T10:43:07.002Z</time></trkpt><trkpt lat="37.36035836119166" lon="13.931919977836655"><ele>433.75</ele><time>2026-03-29T10:43:08.002Z</time></trkpt><trkpt lat="37.36043297541921" lon="13.932048557151933"><ele>433.5</ele><time>2026-03-29T10:43:09.002Z</time></trkpt><trkpt lat="37.36049414117109" lon="13.932165055734249"><ele>433.25</ele><time>2026-03-29T10:43:10.002Z</time></trkpt><trkpt lat="37.36055664959134" lon="13.932279584326595"><ele>433.0</ele><time>2026-03-29T10:43:11.002Z</time></trkpt><trkpt lat="37.36062526309519" lon="13.93241503419729"><ele>433.25</ele><time>2026-03-29T10:43:12.002Z</time></trkpt><trkpt lat="37.36070466098038" lon="13.932557432711699"><ele>433.5</ele><time>2026-03-29T10:43:13.002Z</time></trkpt><trkpt lat="37.360785275570734" lon="13.93270813283318"><ele>433.75</ele><time>2026-03-29T10:43:14.002Z</time></trkpt><trkpt lat="37.36087189483179" lon="13.932865906510044"><ele>434.0</ele><time>2026-03-29T10:43:15.002Z</time></trkpt><trkpt lat="37.36096432879594" lon="13.933033407000734"><ele>434.0</ele><time>2026-03-29T10:43:16.002Z</time></trkpt><trkpt lat="37.3610568897616" lon="13.933205979386107"><ele>434.0</ele><time>2026-03-29T10:43:17.002Z</time></trkpt><trkpt lat="37.361150632946824" lon="13.933383345789553"><ele>434.0</ele><time>2026-03-29T10:43:18.002Z</time></trkpt><trkpt lat="37.36124410182819" lon="13.933565928940403"><ele>432.66666666666663</ele><time>2026-03-29T10:43:19.002Z</time></trkpt><trkpt lat="37.36134013681588" lon="13.933753141515185"><ele>431.33333333333337</ele><time>2026-03-29T10:43:20.002Z</time></trkpt><trkpt lat="37.36143925231232" lon="13.933935214154268"><ele>430.0</ele><time>2026-03-29T10:43:21.003Z</time></trkpt><trkpt lat="37.36153151164707" lon="13.934109850093474"><ele>432.33333333333337</ele><time>2026-03-29T10:43:22.003Z</time></trkpt><trkpt lat="37.361621399468895" lon="13.934281688100482"><ele>434.66666666666663</ele><time>2026-03-29T10:43:23.003Z</time></trkpt><trkpt lat="37.36171928137428" lon="13.93445323043097"><ele>437.0</ele><time>2026-03-29T10:43:24.003Z</time></trkpt><trkpt lat="37.36183234312844" lon="13.934608455340017"><ele>437.0</ele><time>2026-03-29T10:43:25.003Z</time></trkpt><trkpt lat="37.36195534224249" lon="13.93475289795091"><ele>437.0</ele><time>2026-03-29T10:43:26.003Z</time></trkpt><trkpt lat="37.3620859898948" lon="13.934895822634623"><ele>437.0</ele><time>2026-03-29T10:43:27.003Z</time></trkpt><trkpt lat="37.36221785695585" lon="13.935042502693296"><ele>439.3333333333333</ele><time>2026-03-29T10:43:28.003Z</time></trkpt><trkpt lat="37.36234939631953" lon="13.935183714587481"><ele>441.66666666666663</ele><time>2026-03-29T10:43:29.003Z</time></trkpt><trkpt lat="37.362495183573884" lon="13.935325145107647"><ele>444.0</ele><time>2026-03-29T10:43:30.003Z</time></trkpt><trkpt lat="37.36265941833405" lon="13.935461430000595"><ele>444.0</ele><time>2026-03-29T10:43:31.003Z</time></trkpt><trkpt lat="37.36283082018193" lon="13.935603152098555"><ele>444.0</ele><time>2026-03-29T10:43:32.003Z</time></trkpt><trkpt lat="37.36300495455702" lon="13.935747773759106"><ele>444.0</ele><time>2026-03-29T10:43:33.003Z</time></trkpt><trkpt lat="37.36317807806452" lon="13.93589282341368"><ele>447.66666666666663</ele><time>2026-03-29T10:43:34.003Z</time></trkpt><trkpt lat="37.36334297793154" lon="13.936037119293402"><ele>451.3333333333333</ele><time>2026-03-29T10:43:35.003Z</time></trkpt><trkpt lat="37.36350395032901" lon="13.936183084486677"><ele>455.0</ele><time>2026-03-29T10:43:36.003Z</time></trkpt><trkpt lat="37.3636587975569" lon="13.936334025436478"><ele>455.0</ele><time>2026-03-29T10:43:37.003Z</time></trkpt><trkpt lat="37.363808413928766" lon="13.936495985006994"><ele>455.0</ele><time>2026-03-29T10:43:38.003Z</time></trkpt><trkpt lat="37.36394866916571" lon="13.93665442072369"><ele>455.0</ele><time>2026-03-29T10:43:39.003Z</time></trkpt><trkpt lat="37.364074618992895" lon="13.936802959265819"><ele>454.66666666666663</ele><time>2026-03-29T10:43:40.003Z</time></trkpt><trkpt lat="37.36418734282848" lon="13.936963597240368"><ele>454.33333333333337</ele><time>2026-03-29T10:43:41.003Z</time></trkpt><trkpt lat="37.36429463527762" lon="13.937148737766028"><ele>454.0</ele><time>2026-03-29T10:43:42.003Z</time></trkpt><trkpt lat="37.364392980531846" lon="13.93735531174159"><ele>454.6666666666667</ele><time>2026-03-29T10:43:43.003Z</time></trkpt><trkpt lat="37.364487610929515" lon="13.937573251241506"><ele>455.33333333333337</ele><time>2026-03-29T10:43:44.003Z</time></trkpt><trkpt lat="37.36457474349617" lon="13.937790781351913"><ele>456.0</ele><time>2026-03-29T10:43:45.003Z</time></trkpt><trkpt lat="37.364660133186106" lon="13.938008733045745"><ele>454.33333333333337</ele><time>2026-03-29T10:43:46.003Z</time></trkpt><trkpt lat="37.36474068627921" lon="13.93820524342458"><ele>452.6666666666667</ele><time>2026-03-29T10:43:47.003Z</time></trkpt><trkpt lat="37.364822262014584" lon="13.938393192116965"><ele>451.0</ele><time>2026-03-29T10:43:48.003Z</time></trkpt><trkpt lat="37.36492608041901" lon="13.938556945127226"><ele>448.33333333333337</ele><time>2026-03-29T10:43:49.003Z</time></trkpt><trkpt lat="37.36505634104519" lon="13.938700932414866"><ele>445.66666666666663</ele><time>2026-03-29T10:43:50.003Z</time></trkpt><trkpt lat="37.36521275285182" lon="13.93883464869998"><ele>443.0</ele><time>2026-03-29T10:43:51.003Z</time></trkpt><trkpt lat="37.365376120387914" lon="13.938972235020891"><ele>442.3333333333333</ele><time>2026-03-29T10:43:52.003Z</time></trkpt><trkpt lat="37.36553684957578" lon="13.93913352957314"><ele>441.66666666666663</ele><time>2026-03-29T10:43:53.003Z</time></trkpt><trkpt lat="37.36569016013659" lon="13.939304396913888"><ele>441.0</ele><time>2026-03-29T10:43:54.003Z</time></trkpt><trkpt lat="37.365844911257604" lon="13.939498534109855"><ele>441.0</ele><time>2026-03-29T10:43:55.003Z</time></trkpt><trkpt lat="37.36597078385689" lon="13.939703679960576"><ele>441.0</ele><time>2026-03-29T10:43:56.003Z</time></trkpt><trkpt lat="37.36610053812508" lon="13.939923145191031"><ele>441.0</ele><time>2026-03-29T10:43:57.004Z</time></trkpt><trkpt lat="37.36623424621269" lon="13.940139774867562"><ele>442.33333333333337</ele><time>2026-03-29T10:43:58.004Z</time></trkpt><trkpt lat="37.36636692822941" lon="13.940354024336726"><ele>443.6666666666667</ele><time>2026-03-29T10:43:59.004Z</time></trkpt><trkpt lat="37.366494966981385" lon="13.94056193009649"><ele>445.0</ele><time>2026-03-29T10:44:00.004Z</time></trkpt><trkpt lat="37.36662072879029" lon="13.940768546394642"><ele>443.33333333333337</ele><time>2026-03-29T10:44:01.004Z</time></trkpt><trkpt lat="37.36674432847058" lon="13.940976046735283"><ele>441.66666666666663</ele><time>2026-03-29T10:44:02.004Z</time></trkpt><trkpt lat="37.36686602306731" lon="13.941178450837919"><ele>440.0</ele><time>2026-03-29T10:44:03.004Z</time></trkpt><trkpt lat="37.36698205340882" lon="13.941380631329896"><ele>440.0</ele><time>2026-03-29T10:44:04.004Z</time></trkpt><trkpt lat="37.36708590029928" lon="13.941592478619603"><ele>440.0</ele><time>2026-03-29T10:44:05.004Z</time></trkpt><trkpt lat="37.367170636404445" lon="13.941817232033276"><ele>440.0</ele><time>2026-03-29T10:44:06.004Z</time></trkpt><trkpt lat="37.36723614728596" lon="13.94205506469673"><ele>441.0</ele><time>2026-03-29T10:44:07.004Z</time></trkpt><trkpt lat="37.367285104182095" lon="13.942284731757567"><ele>442.0</ele><time>2026-03-29T10:44:08.004Z</time></trkpt><trkpt lat="37.367317158620715" lon="13.942505917115415"><ele>443.0</ele><time>2026-03-29T10:44:09.001Z</time></trkpt><trkpt lat="37.36732919129293" lon="13.942731557698911"><ele>443.3333333333333</ele><time>2026-03-29T10:44:10.001Z</time></trkpt><trkpt lat="37.36731698969049" lon="13.942962799471266"><ele>443.66666666666663</ele><time>2026-03-29T10:44:11.001Z</time></trkpt><trkpt lat="37.36728984367099" lon="13.94319630889112"><ele>444.0</ele><time>2026-03-29T10:44:12.001Z</time></trkpt><trkpt lat="37.36726176437046" lon="13.94343743382483"><ele>445.33333333333337</ele><time>2026-03-29T10:44:13.001Z</time></trkpt><trkpt lat="37.36723861120878" lon="13.943677101595346"><ele>446.6666666666667</ele><time>2026-03-29T10:44:14.001Z</time></trkpt><trkpt lat="37.36721620938471" lon="13.94390326904507"><ele>448.0</ele><time>2026-03-29T10:44:15.001Z</time></trkpt><trkpt lat="37.36719114687406" lon="13.944113407316207"><ele>448.33333333333337</ele><time>2026-03-29T10:44:16.001Z</time></trkpt><trkpt lat="37.36717672438499" lon="13.944316608022367"><ele>448.66666666666663</ele><time>2026-03-29T10:44:17.001Z</time></trkpt><trkpt lat="37.36719072178891" lon="13.944517316500647"><ele>449.0</ele><time>2026-03-29T10:44:18.001Z</time></trkpt><trkpt lat="37.36723522930648" lon="13.944718367992678"><ele>449.0</ele><time>2026-03-29T10:44:19.001Z</time></trkpt><trkpt lat="37.36730475942398" lon="13.944917369608794"><ele>449.0</ele><time>2026-03-29T10:44:20.001Z</time></trkpt><trkpt lat="37.36739887212449" lon="13.945114761018674"><ele>449.0</ele><time>2026-03-29T10:44:21.001Z</time></trkpt><trkpt lat="37.36749995348555" lon="13.945321425576289"><ele>446.66666666666663</ele><time>2026-03-29T10:44:22.001Z</time></trkpt><trkpt lat="37.36760291449161" lon="13.945528688378714"><ele>444.33333333333337</ele><time>2026-03-29T10:44:23.001Z</time></trkpt><trkpt lat="37.36772505285048" lon="13.94572299451371"><ele>442.0</ele><time>2026-03-29T10:44:24.001Z</time></trkpt><trkpt lat="37.367865551022064" lon="13.94590305499055"><ele>443.33333333333337</ele><time>2026-03-29T10:44:25.001Z</time></trkpt><trkpt lat="37.36800849376906" lon="13.946081032477144"><ele>444.66666666666663</ele><time>2026-03-29T10:44:26.001Z</time></trkpt><trkpt lat="37.368150219766534" lon="13.946262532119109"><ele>446.0</ele><time>2026-03-29T10:44:27.001Z</time></trkpt><trkpt lat="37.368292162860655" lon="13.946447591921508"><ele>446.0</ele><time>2026-03-29T10:44:28.001Z</time></trkpt><trkpt lat="37.36843577708034" lon="13.946633113641237"><ele>446.0</ele><time>2026-03-29T10:44:29.001Z</time></trkpt><trkpt lat="37.36858016749127" lon="13.946817479629324"><ele>446.0</ele><time>2026-03-29T10:44:30.001Z</time></trkpt><trkpt lat="37.36872793861682" lon="13.947000122826374"><ele>447.0</ele><time>2026-03-29T10:44:31.001Z</time></trkpt><trkpt lat="37.3688813489239" lon="13.947177584103814"><ele>448.0</ele><time>2026-03-29T10:44:32.001Z</time></trkpt><trkpt lat="37.369041303630105" lon="13.947350153182931"><ele>449.0</ele><time>2026-03-29T10:44:33.001Z</time></trkpt><trkpt lat="37.369207404828686" lon="13.94751674050927"><ele>449.3333333333333</ele><time>2026-03-29T10:44:34.001Z</time></trkpt><trkpt lat="37.369369527884096" lon="13.94768194421908"><ele>449.66666666666663</ele><time>2026-03-29T10:44:35.001Z</time></trkpt><trkpt lat="37.36952150514208" lon="13.947842380613876"><ele>450.0</ele><time>2026-03-29T10:44:36.001Z</time></trkpt><trkpt lat="37.36965963394113" lon="13.947989957281466"><ele>451.33333333333337</ele><time>2026-03-29T10:44:37.001Z</time></trkpt><trkpt lat="37.3697992653677" lon="13.948124970756139"><ele>452.6666666666667</ele><time>2026-03-29T10:44:38.001Z</time></trkpt><trkpt lat="37.36994291695688" lon="13.948243879157568"><ele>454.0</ele><time>2026-03-29T10:44:39.001Z</time></trkpt><trkpt lat="37.37007295532263" lon="13.948341081971774"><ele>454.0</ele><time>2026-03-29T10:44:40.001Z</time></trkpt><trkpt lat="37.37020650509649" lon="13.948444680816657"><ele>454.0</ele><time>2026-03-29T10:44:41.001Z</time></trkpt><trkpt lat="37.37035779864718" lon="13.948553506203575"><ele>454.0</ele><time>2026-03-29T10:44:42.001Z</time></trkpt><trkpt lat="37.37052556764313" lon="13.94865618097047"><ele>450.33333333333337</ele><time>2026-03-29T10:44:43.001Z</time></trkpt><trkpt lat="37.37070887883374" lon="13.948749776674218"><ele>446.66666666666663</ele><time>2026-03-29T10:44:44.001Z</time></trkpt><trkpt lat="37.37089688478828" lon="13.948842127342978"><ele>443.0</ele><time>2026-03-29T10:44:45.001Z</time></trkpt><trkpt lat="37.37108691038179" lon="13.948939324332462"><ele>443.0</ele><time>2026-03-29T10:44:46.001Z</time></trkpt><trkpt lat="37.37127905225144" lon="13.949038298336815"><ele>443.0</ele><time>2026-03-29T10:44:47.001Z</time></trkpt><trkpt lat="37.37146953287052" lon="13.949138089881124"><ele>443.0</ele><time>2026-03-29T10:44:48.001Z</time></trkpt><trkpt lat="37.37166706856881" lon="13.94924335392189"><ele>442.0</ele><time>2026-03-29T10:44:49.001Z</time></trkpt><trkpt lat="37.371863494086874" lon="13.949349925234655"><ele>441.0</ele><time>2026-03-29T10:44:50.001Z</time></trkpt><trkpt lat="37.37205959261557" lon="13.949454466653556"><ele>440.0</ele><time>2026-03-29T10:44:51.002Z</time></trkpt><trkpt lat="37.37225259889224" lon="13.949553805819155"><ele>439.0</ele><time>2026-03-29T10:44:52.002Z</time></trkpt><trkpt lat="37.37243845369296" lon="13.94965162892926"><ele>438.0</ele><time>2026-03-29T10:44:53.002Z</time></trkpt><trkpt lat="37.37261737996029" lon="13.949756628654006"><ele>437.0</ele><time>2026-03-29T10:44:54.002Z</time></trkpt><trkpt lat="37.37278578441388" lon="13.94987749015877"><ele>437.0</ele><time>2026-03-29T10:44:55.002Z</time></trkpt><trkpt lat="37.37295035708061" lon="13.950018526613318"><ele>437.0</ele><time>2026-03-29T10:44:56.002Z</time></trkpt><trkpt lat="37.373118327237975" lon="13.950161682104666"><ele>437.0</ele><time>2026-03-29T10:44:57.002Z</time></trkpt><trkpt lat="37.37328730213024" lon="13.950308718714584"><ele>435.3333333333333</ele><time>2026-03-29T10:44:58.002Z</time></trkpt><trkpt lat="37.37345702086481" lon="13.950461462313099"><ele>433.66666666666663</ele><time>2026-03-29T10:44:59.002Z</time></trkpt><trkpt lat="37.373626269007524" lon="13.950614372069955"><ele>432.0</ele><time>2026-03-29T10:45:00.002Z</time></trkpt><trkpt lat="37.37379548673758" lon="13.950767867361904"><ele>430.66666666666663</ele><time>2026-03-29T10:45:01.002Z</time></trkpt><trkpt lat="37.37396492724453" lon="13.950917001463083"><ele>429.3333333333333</ele><time>2026-03-29T10:45:02.002Z</time></trkpt><trkpt lat="37.374132705481394" lon="13.951066622932169"><ele>428.0</ele><time>2026-03-29T10:45:03.002Z</time></trkpt><trkpt lat="37.37429950126979" lon="13.951215456556323"><ele>428.0</ele><time>2026-03-29T10:45:04.002Z</time></trkpt><trkpt lat="37.37446515414075" lon="13.951362847691893"><ele>428.0</ele><time>2026-03-29T10:45:05.002Z</time></trkpt><trkpt lat="37.374626209059734" lon="13.95150883780391"><ele>428.0</ele><time>2026-03-29T10:45:06.002Z</time></trkpt><trkpt lat="37.37478579825064" lon="13.95165449956007"><ele>426.3333333333333</ele><time>2026-03-29T10:45:07.002Z</time></trkpt><trkpt lat="37.374947450610854" lon="13.951802699788699"><ele>424.66666666666663</ele><time>2026-03-29T10:45:08.002Z</time></trkpt><trkpt lat="37.37511146038837" lon="13.951947549702272"><ele>423.0</ele><time>2026-03-29T10:45:09.002Z</time></trkpt><trkpt lat="37.37528253581594" lon="13.952086983135509"><ele>423.0</ele><time>2026-03-29T10:45:10.002Z</time></trkpt><trkpt lat="37.375462328009284" lon="13.952224215265538"><ele>423.0</ele><time>2026-03-29T10:45:11.002Z</time></trkpt><trkpt lat="37.37565168979561" lon="13.952349161502458"><ele>423.0</ele><time>2026-03-29T10:45:12.002Z</time></trkpt><trkpt lat="37.375848357204134" lon="13.95247172559042"><ele>423.66666666666663</ele><time>2026-03-29T10:45:13.002Z</time></trkpt><trkpt lat="37.37604551713505" lon="13.952587921639758"><ele>424.3333333333333</ele><time>2026-03-29T10:45:14.002Z</time></trkpt><trkpt lat="37.37624346440041" lon="13.952704306491752"><ele>425.0</ele><time>2026-03-29T10:45:15.002Z</time></trkpt><trkpt lat="37.37643951632237" lon="13.952818211611953"><ele>425.66666666666663</ele><time>2026-03-29T10:45:16.002Z</time></trkpt><trkpt lat="37.376632496347106" lon="13.952930653233697"><ele>426.33333333333337</ele><time>2026-03-29T10:45:17.002Z</time></trkpt><trkpt lat="37.37682152253905" lon="13.953044368786614"><ele>427.0</ele><time>2026-03-29T10:45:18.002Z</time></trkpt><trkpt lat="37.377012107875395" lon="13.953161030976386"><ele>427.33333333333337</ele><time>2026-03-29T10:45:19.002Z</time></trkpt><trkpt lat="37.37719941112609" lon="13.953273627347347"><ele>427.66666666666663</ele><time>2026-03-29T10:45:20.002Z</time></trkpt><trkpt lat="37.3773813654786" lon="13.953381001759414"><ele>428.0</ele><time>2026-03-29T10:45:21.002Z</time></trkpt><trkpt lat="37.37755899866429" lon="13.953480790952733"><ele>429.3333333333333</ele><time>2026-03-29T10:45:22.002Z</time></trkpt><trkpt lat="37.3777378235402" lon="13.953573172174645"><ele>430.66666666666663</ele><time>2026-03-29T10:45:23.002Z</time></trkpt><trkpt lat="37.377915474478755" lon="13.95365694150426"><ele>432.0</ele><time>2026-03-29T10:45:24.002Z</time></trkpt><trkpt lat="37.378087080409685" lon="13.953733895693142"><ele>432.33333333333337</ele><time>2026-03-29T10:45:25.002Z</time></trkpt><trkpt lat="37.37825635580815" lon="13.953809764869357"><ele>432.6666666666667</ele><time>2026-03-29T10:45:26.002Z</time></trkpt><trkpt lat="37.37842814001794" lon="13.953885941731023"><ele>433.0</ele><time>2026-03-29T10:45:27.002Z</time></trkpt><trkpt lat="37.37860162473766" lon="13.953965781814164"><ele>433.0</ele><time>2026-03-29T10:45:28.002Z</time></trkpt><trkpt lat="37.37877124535833" lon="13.95404373637516"><ele>433.0</ele><time>2026-03-29T10:45:29.002Z</time></trkpt><trkpt lat="37.378939741295866" lon="13.954122615155613"><ele>433.0</ele><time>2026-03-29T10:45:30.002Z</time></trkpt><trkpt lat="37.37910335197659" lon="13.954207063479522"><ele>434.0</ele><time>2026-03-29T10:45:31.003Z</time></trkpt><trkpt lat="37.37926044318777" lon="13.954300225420791"><ele>435.0</ele><time>2026-03-29T10:45:32.003Z</time></trkpt><trkpt lat="37.379413544805665" lon="13.95439793224976"><ele>436.0</ele><time>2026-03-29T10:45:33.003Z</time></trkpt><trkpt lat="37.37957301375323" lon="13.954469296526772"><ele>436.0</ele><time>2026-03-29T10:45:34.003Z</time></trkpt><trkpt lat="37.379739966381806" lon="13.954514096429818"><ele>436.0</ele><time>2026-03-29T10:45:35.003Z</time></trkpt><trkpt lat="37.3799147765686" lon="13.954545228150252"><ele>436.0</ele><time>2026-03-29T10:45:36.003Z</time></trkpt><trkpt lat="37.3800911957005" lon="13.954568666272408"><ele>436.0</ele><time>2026-03-29T10:45:37.003Z</time></trkpt><trkpt lat="37.380268461288345" lon="13.954576744759011"><ele>436.0</ele><time>2026-03-29T10:45:38.003Z</time></trkpt><trkpt lat="37.380443840721675" lon="13.954560315133334"><ele>436.0</ele><time>2026-03-29T10:45:39.003Z</time></trkpt><trkpt lat="37.38061686200137" lon="13.954527349983008"><ele>437.33333333333337</ele><time>2026-03-29T10:45:40.003Z</time></trkpt><trkpt lat="37.38078752075431" lon="13.954495616062227"><ele>438.66666666666663</ele><time>2026-03-29T10:45:41.003Z</time></trkpt><trkpt lat="37.380958536996324" lon="13.954474809649405"><ele>440.0</ele><time>2026-03-29T10:45:42.003Z</time></trkpt><trkpt lat="37.38112570590957" lon="13.954461404866471"><ele>440.0</ele><time>2026-03-29T10:45:43.003Z</time></trkpt><trkpt lat="37.38128894532462" lon="13.954456365079169"><ele>440.0</ele><time>2026-03-29T10:45:44.003Z</time></trkpt><trkpt lat="37.381442236985265" lon="13.954431686779172"><ele>440.0</ele><time>2026-03-29T10:45:45.003Z</time></trkpt><trkpt lat="37.38158826394056" lon="13.954379090280424"><ele>440.0</ele><time>2026-03-29T10:45:46.003Z</time></trkpt><trkpt lat="37.38171947331696" lon="13.954286851606955"><ele>440.0</ele><time>2026-03-29T10:45:47.003Z</time></trkpt><trkpt lat="37.38184201437989" lon="13.954160193070905"><ele>440.0</ele><time>2026-03-29T10:45:48.003Z</time></trkpt><trkpt lat="37.38196432649867" lon="13.954026987565753"><ele>440.0</ele><time>2026-03-29T10:45:49.003Z</time></trkpt><trkpt lat="37.382085326211595" lon="13.953907838925968"><ele>440.0</ele><time>2026-03-29T10:45:50.003Z</time></trkpt><trkpt lat="37.3822105692973" lon="13.95380035923459"><ele>440.0</ele><time>2026-03-29T10:45:51.003Z</time></trkpt><trkpt lat="37.38234367391637" lon="13.953711561632586"><ele>439.66666666666663</ele><time>2026-03-29T10:45:52.003Z</time></trkpt><trkpt lat="37.38248721745812" lon="13.953649208917348"><ele>439.33333333333337</ele><time>2026-03-29T10:45:53.003Z</time></trkpt><trkpt lat="37.38264119187697" lon="13.953614615954454"><ele>439.0</ele><time>2026-03-29T10:45:54.003Z</time></trkpt><trkpt lat="37.38280320365677" lon="13.953607333136103"><ele>439.0</ele><time>2026-03-29T10:45:55.003Z</time></trkpt><trkpt lat="37.38296843753993" lon="13.953617370594488"><ele>439.0</ele><time>2026-03-29T10:45:56.003Z</time></trkpt><trkpt lat="37.38314638792019" lon="13.953634199117742"><ele>439.0</ele><time>2026-03-29T10:45:57.003Z</time></trkpt><trkpt lat="37.38332719415809" lon="13.953653788661535"><ele>436.33333333333337</ele><time>2026-03-29T10:45:58.003Z</time></trkpt><trkpt lat="37.38350961948631" lon="13.953686822505944"><ele>433.66666666666663</ele><time>2026-03-29T10:45:59.003Z</time></trkpt><trkpt lat="37.3836961827716" lon="13.953729696097035"><ele>431.0</ele><time>2026-03-29T10:46:00.003Z</time></trkpt><trkpt lat="37.38387982122101" lon="13.953779928955841"><ele>430.66666666666663</ele><time>2026-03-29T10:46:01.003Z</time></trkpt><trkpt lat="37.384061746874956" lon="13.95383071469744"><ele>430.33333333333337</ele><time>2026-03-29T10:46:02.003Z</time></trkpt><trkpt lat="37.38424060257289" lon="13.953880317218635"><ele>430.0</ele><time>2026-03-29T10:46:03.003Z</time></trkpt><trkpt lat="37.384408993262994" lon="13.953929686622528"><ele>430.0</ele><time>2026-03-29T10:46:04.003Z</time></trkpt><trkpt lat="37.3845749493014" lon="13.953976901013416"><ele>430.0</ele><time>2026-03-29T10:46:05.003Z</time></trkpt><trkpt lat="37.384731979528794" lon="13.95402372868295"><ele>430.0</ele><time>2026-03-29T10:46:06.003Z</time></trkpt><trkpt lat="37.38487601004964" lon="13.954074995603252"><ele>428.6666666666667</ele><time>2026-03-29T10:46:07.003Z</time></trkpt><trkpt lat="37.38500784260569" lon="13.954149031776556"><ele>427.33333333333337</ele><time>2026-03-29T10:46:08.003Z</time></trkpt><trkpt lat="37.38513869888377" lon="13.954260380851007"><ele>426.0</ele><time>2026-03-29T10:46:09.004Z</time></trkpt><trkpt lat="37.38526422611484" lon="13.954395122977164"><ele>426.0</ele><time>2026-03-29T10:46:10.004Z</time></trkpt><trkpt lat="37.38539126040319" lon="13.954537856774282"><ele>426.0</ele><time>2026-03-29T10:46:11.004Z</time></trkpt><trkpt lat="37.38552454105751" lon="13.954675177145523"><ele>426.0</ele><time>2026-03-29T10:46:12.004Z</time></trkpt><trkpt lat="37.38566387132141" lon="13.954801766199527"><ele>427.33333333333337</ele><time>2026-03-29T10:46:13.004Z</time></trkpt><trkpt lat="37.385801956790075" lon="13.954918161217655"><ele>428.6666666666667</ele><time>2026-03-29T10:46:14.004Z</time></trkpt><trkpt lat="37.385935178926445" lon="13.955029850679466"><ele>430.0</ele><time>2026-03-29T10:46:15.001Z</time></trkpt><trkpt lat="37.38606957794177" lon="13.955141847509013"><ele>426.6666666666667</ele><time>2026-03-29T10:46:16.001Z</time></trkpt><trkpt lat="37.386203769130475" lon="13.955245648498948"><ele>423.33333333333337</ele><time>2026-03-29T10:46:17.001Z</time></trkpt><trkpt lat="37.38633583992364" lon="13.955330837412552"><ele>420.0</ele><time>2026-03-29T10:46:18.001Z</time></trkpt><trkpt lat="37.38647340944292" lon="13.955394314972734"><ele>419.66666666666663</ele><time>2026-03-29T10:46:19.001Z</time></trkpt><trkpt lat="37.386621574301145" lon="13.955436426989106"><ele>419.3333333333333</ele><time>2026-03-29T10:46:20.001Z</time></trkpt><trkpt lat="37.38677512379133" lon="13.955462436256868"><ele>419.0</ele><time>2026-03-29T10:46:21.001Z</time></trkpt><trkpt lat="37.3869273272313" lon="13.955486538547826"><ele>419.0</ele><time>2026-03-29T10:46:22.001Z</time></trkpt><trkpt lat="37.387077134125995" lon="13.955509219746034"><ele>419.0</ele><time>2026-03-29T10:46:23.001Z</time></trkpt><trkpt lat="37.38723593988358" lon="13.955533685484394"><ele>419.0</ele><time>2026-03-29T10:46:24.001Z</time></trkpt><trkpt lat="37.38740289897874" lon="13.955560234111545"><ele>419.0</ele><time>2026-03-29T10:46:25.001Z</time></trkpt><trkpt lat="37.38757740677409" lon="13.955589721874285"><ele>419.0</ele><time>2026-03-29T10:46:26.001Z</time></trkpt><trkpt lat="37.38775139585027" lon="13.955617174498622"><ele>419.0</ele><time>2026-03-29T10:46:27.001Z</time></trkpt><trkpt lat="37.38792351458226" lon="13.955642699383057"><ele>419.66666666666663</ele><time>2026-03-29T10:46:28.001Z</time></trkpt><trkpt lat="37.388085023543255" lon="13.955669434486774"><ele>420.33333333333337</ele><time>2026-03-29T10:46:29.001Z</time></trkpt><trkpt lat="37.388236047225156" lon="13.955709216468621"><ele>421.0</ele><time>2026-03-29T10:46:30.001Z</time></trkpt><trkpt lat="37.388372501056544" lon="13.955782467565822"><ele>419.6666666666667</ele><time>2026-03-29T10:46:31.001Z</time></trkpt><trkpt lat="37.38849798616889" lon="13.955893611313765"><ele>418.33333333333337</ele><time>2026-03-29T10:46:32.001Z</time></trkpt><trkpt lat="37.388611416151114" lon="13.956030628075423"><ele>417.0</ele><time>2026-03-29T10:46:33.001Z</time></trkpt><trkpt lat="37.388721675288956" lon="13.956182512250939"><ele>417.0</ele><time>2026-03-29T10:46:34.001Z</time></trkpt><trkpt lat="37.388836387442986" lon="13.956333008797143"><ele>417.0</ele><time>2026-03-29T10:46:35.001Z</time></trkpt><trkpt lat="37.38895387549601" lon="13.956472338798385"><ele>417.0</ele><time>2026-03-29T10:46:36.001Z</time></trkpt><trkpt lat="37.38906251443469" lon="13.956596865215563"><ele>417.0</ele><time>2026-03-29T10:46:37.001Z</time></trkpt><trkpt lat="37.38917769595129" lon="13.956705620983065"><ele>417.0</ele><time>2026-03-29T10:46:38.001Z</time></trkpt><trkpt lat="37.389310758946735" lon="13.956793901470409"><ele>417.0</ele><time>2026-03-29T10:46:39.001Z</time></trkpt><trkpt lat="37.389456041962426" lon="13.956862061402893"><ele>417.0</ele><time>2026-03-29T10:46:40.001Z</time></trkpt><trkpt lat="37.38960982798242" lon="13.956909287364907"><ele>418.33333333333337</ele><time>2026-03-29T10:46:41.001Z</time></trkpt><trkpt lat="37.389765041567756" lon="13.956956761970991"><ele>419.6666666666667</ele><time>2026-03-29T10:46:42.001Z</time></trkpt><trkpt lat="37.38990952631029" lon="13.95701087933799"><ele>421.0</ele><time>2026-03-29T10:46:43.001Z</time></trkpt><trkpt lat="37.390042521536635" lon="13.957075992403198"><ele>421.0</ele><time>2026-03-29T10:46:44.001Z</time></trkpt><trkpt lat="37.390159369585675" lon="13.957168985999578"><ele>421.0</ele><time>2026-03-29T10:46:45.001Z</time></trkpt><trkpt lat="37.390259821230146" lon="13.957296829014018"><ele>421.0</ele><time>2026-03-29T10:46:46.001Z</time></trkpt><trkpt lat="37.390344075061215" lon="13.957455970688383"><ele>421.0</ele><time>2026-03-29T10:46:47.001Z</time></trkpt><trkpt lat="37.39042794227907" lon="13.95762271382596"><ele>422.5</ele><time>2026-03-29T10:46:48.001Z</time></trkpt><trkpt lat="37.3905179253525" lon="13.957786008498323"><ele>424.0</ele><time>2026-03-29T10:46:49.001Z</time></trkpt><trkpt lat="37.390607325223996" lon="13.957941395444944"><ele>425.5</ele><time>2026-03-29T10:46:50.001Z</time></trkpt><trkpt lat="37.39069598690313" lon="13.958068725937965"><ele>427.0</ele><time>2026-03-29T10:46:51.001Z</time></trkpt><trkpt lat="37.3907940989627" lon="13.958166597782355"><ele>427.0</ele><time>2026-03-29T10:46:52.001Z</time></trkpt><trkpt lat="37.39091032942398" lon="13.958242444307595"><ele>427.0</ele><time>2026-03-29T10:46:53.001Z</time></trkpt><trkpt lat="37.39103554502045" lon="13.958302818438575"><ele>427.0</ele><time>2026-03-29T10:46:54.001Z</time></trkpt><trkpt lat="37.391162538202124" lon="13.958364664302225"><ele>427.0</ele><time>2026-03-29T10:46:55.001Z</time></trkpt><trkpt lat="37.3912888098583" lon="13.95843321464523"><ele>427.75</ele><time>2026-03-29T10:46:56.001Z</time></trkpt><trkpt lat="37.3914086754068" lon="13.958501689653486"><ele>428.5</ele><time>2026-03-29T10:46:57.001Z</time></trkpt><trkpt lat="37.39152480629792" lon="13.958571660087324"><ele>429.25</ele><time>2026-03-29T10:46:58.001Z</time></trkpt><trkpt lat="37.391640442397176" lon="13.958652824351745"><ele>430.0</ele><time>2026-03-29T10:46:59.001Z</time></trkpt><trkpt lat="37.39175072905557" lon="13.95873689391226"><ele>430.0</ele><time>2026-03-29T10:47:00.001Z</time></trkpt><trkpt lat="37.39185353362152" lon="13.958817231065288"><ele>430.0</ele><time>2026-03-29T10:47:01.001Z</time></trkpt><trkpt lat="37.39195276107361" lon="13.958893010251579"><ele>430.0</ele><time>2026-03-29T10:47:02.001Z</time></trkpt><trkpt lat="37.39204710311293" lon="13.958966233597797"><ele>430.0</ele><time>2026-03-29T10:47:03.001Z</time></trkpt><trkpt lat="37.39213729412732" lon="13.959037709624539"><ele>429.2</ele><time>2026-03-29T10:47:04.001Z</time></trkpt><trkpt lat="37.39222339149538" lon="13.959106737483477"><ele>428.4</ele><time>2026-03-29T10:47:05.001Z</time></trkpt><trkpt lat="37.39231331833957" lon="13.959181101624836"><ele>427.6</ele><time>2026-03-29T10:47:06.001Z</time></trkpt><trkpt lat="37.39240923062011" lon="13.959259117060917"><ele>426.8</ele><time>2026-03-29T10:47:07.002Z</time></trkpt><trkpt lat="37.3925010006145" lon="13.95933043691024"><ele>426.0</ele><time>2026-03-29T10:47:08.002Z</time></trkpt><trkpt lat="37.39258735646315" lon="13.959399227292879"><ele>425.8</ele><time>2026-03-29T10:47:09.002Z</time></trkpt><trkpt lat="37.39267778762941" lon="13.959472051320951"><ele>425.6</ele><time>2026-03-29T10:47:10.002Z</time></trkpt><trkpt lat="37.392770340268164" lon="13.959543487989347"><ele>425.4</ele><time>2026-03-29T10:47:11.002Z</time></trkpt><trkpt lat="37.392855617932035" lon="13.959617645581783"><ele>425.2</ele><time>2026-03-29T10:47:12.002Z</time></trkpt><trkpt lat="37.392929544780436" lon="13.959701756833192"><ele>425.0</ele><time>2026-03-29T10:47:13.002Z</time></trkpt><trkpt lat="37.39299136572893" lon="13.959801386565458"><ele>424.2</ele><time>2026-03-29T10:47:14.002Z</time></trkpt><trkpt lat="37.393040924143044" lon="13.959913572298545"><ele>423.4</ele><time>2026-03-29T10:47:15.002Z</time></trkpt><trkpt lat="37.393071887526624" lon="13.960033682830659"><ele>422.6</ele><time>2026-03-29T10:47:16.002Z</time></trkpt><trkpt lat="37.393088179940776" lon="13.96015924921078"><ele>421.8</ele><time>2026-03-29T10:47:17.002Z</time></trkpt><trkpt lat="37.39310690370586" lon="13.960298753120801"><ele>421.0</ele><time>2026-03-29T10:47:18.002Z</time></trkpt><trkpt lat="37.393126949949604" lon="13.96044325851553"><ele>421.0</ele><time>2026-03-29T10:47:19.002Z</time></trkpt><trkpt lat="37.39315187288227" lon="13.960593246875241"><ele>421.0</ele><time>2026-03-29T10:47:20.002Z</time></trkpt><trkpt lat="37.39318464187108" lon="13.960747855579474"><ele>421.0</ele><time>2026-03-29T10:47:21.002Z</time></trkpt><trkpt lat="37.393230293705294" lon="13.960895654214395"><ele>421.0</ele><time>2026-03-29T10:47:22.002Z</time></trkpt><trkpt lat="37.39329627851918" lon="13.961030071079195"><ele>421.75</ele><time>2026-03-29T10:47:23.002Z</time></trkpt><trkpt lat="37.3933890074553" lon="13.961146096254092"><ele>422.5</ele><time>2026-03-29T10:47:24.002Z</time></trkpt><trkpt lat="37.393503122248944" lon="13.961237220301317"><ele>423.25</ele><time>2026-03-29T10:47:25.002Z</time></trkpt><trkpt lat="37.3936286819312" lon="13.96131425965622"><ele>424.0</ele><time>2026-03-29T10:47:26.002Z</time></trkpt><trkpt lat="37.393755055022" lon="13.96138932853062"><ele>422.25</ele><time>2026-03-29T10:47:27.002Z</time></trkpt><trkpt lat="37.39387555981604" lon="13.961464229431408"><ele>420.5</ele><time>2026-03-29T10:47:28.002Z</time></trkpt><trkpt lat="37.39398916179631" lon="13.961537910789204"><ele>418.75</ele><time>2026-03-29T10:47:29.002Z</time></trkpt><trkpt lat="37.3941000574839" lon="13.961610703991635"><ele>417.0</ele><time>2026-03-29T10:47:30.002Z</time></trkpt><trkpt lat="37.39421318943478" lon="13.961681514248886"><ele>416.0</ele><time>2026-03-29T10:47:31.002Z</time></trkpt><trkpt lat="37.39433990917107" lon="13.961758450102419"><ele>415.0</ele><time>2026-03-29T10:47:32.002Z</time></trkpt><trkpt lat="37.394472392449536" lon="13.9618422798462"><ele>414.0</ele><time>2026-03-29T10:47:33.002Z</time></trkpt><trkpt lat="37.394598656324234" lon="13.961924012928417"><ele>413.0</ele><time>2026-03-29T10:47:34.002Z</time></trkpt><trkpt lat="37.39471634033311" lon="13.962000661040156"><ele>413.0</ele><time>2026-03-29T10:47:35.002Z</time></trkpt><trkpt lat="37.39483204860189" lon="13.962077253608475"><ele>413.0</ele><time>2026-03-29T10:47:36.002Z</time></trkpt><trkpt lat="37.39494552391132" lon="13.962154412370978"><ele>413.0</ele><time>2026-03-29T10:47:37.002Z</time></trkpt><trkpt lat="37.39505756367091" lon="13.962232205051738"><ele>413.0</ele><time>2026-03-29T10:47:38.002Z</time></trkpt><trkpt lat="37.395166710549" lon="13.962318509233553"><ele>413.0</ele><time>2026-03-29T10:47:39.002Z</time></trkpt><trkpt lat="37.39526926555662" lon="13.962424094237425"><ele>413.0</ele><time>2026-03-29T10:47:40.002Z</time></trkpt><trkpt lat="37.39536420562683" lon="13.962547269795378"><ele>413.0</ele><time>2026-03-29T10:47:41.002Z</time></trkpt><trkpt lat="37.39547338742328" lon="13.962695397899239"><ele>413.0</ele><time>2026-03-29T10:47:42.002Z</time></trkpt><trkpt lat="37.39560105097231" lon="13.962866770243721"><ele>412.0</ele><time>2026-03-29T10:47:43.002Z</time></trkpt><trkpt lat="37.39574860201588" lon="13.963051354066408"><ele>411.0</ele><time>2026-03-29T10:47:44.002Z</time></trkpt><trkpt lat="37.395899976120454" lon="13.963246146056306"><ele>410.0</ele><time>2026-03-29T10:47:45.002Z</time></trkpt><trkpt lat="37.39603550549834" lon="13.963441190028536"><ele>410.0</ele><time>2026-03-29T10:47:46.003Z</time></trkpt><trkpt lat="37.396158628428154" lon="13.96362447819578"><ele>410.0</ele><time>2026-03-29T10:47:47.003Z</time></trkpt><trkpt lat="37.396279135222784" lon="13.963793511115684"><ele>410.0</ele><time>2026-03-29T10:47:48.003Z</time></trkpt><trkpt lat="37.39639659613966" lon="13.963947690628158"><ele>408.66666666666663</ele><time>2026-03-29T10:47:49.003Z</time></trkpt><trkpt lat="37.39650541658672" lon="13.964096322040575"><ele>407.33333333333337</ele><time>2026-03-29T10:47:50.003Z</time></trkpt><trkpt lat="37.396608072087204" lon="13.964247640419616"><ele>406.0</ele><time>2026-03-29T10:47:51.003Z</time></trkpt><trkpt lat="37.396697238784824" lon="13.964400953827026"><ele>405.0</ele><time>2026-03-29T10:47:52.003Z</time></trkpt><trkpt lat="37.39677311310574" lon="13.964569778913773"><ele>404.0</ele><time>2026-03-29T10:47:53.003Z</time></trkpt><trkpt lat="37.39683066562889" lon="13.964747773005993"><ele>403.0</ele><time>2026-03-29T10:47:54.003Z</time></trkpt><trkpt lat="37.39687587227195" lon="13.964937028402332"><ele>401.33333333333337</ele><time>2026-03-29T10:47:55.003Z</time></trkpt><trkpt lat="37.39691399439385" lon="13.96512754231871"><ele>399.66666666666663</ele><time>2026-03-29T10:47:56.003Z</time></trkpt><trkpt lat="37.39694820598636" lon="13.96531820488614"><ele>398.0</ele><time>2026-03-29T10:47:57.003Z</time></trkpt><trkpt lat="37.39698441426533" lon="13.965509696658657"><ele>398.0</ele><time>2026-03-29T10:47:58.003Z</time></trkpt><trkpt lat="37.39702481929958" lon="13.96569950426245"><ele>398.0</ele><time>2026-03-29T10:47:59.003Z</time></trkpt><trkpt lat="37.397063964902834" lon="13.965885356545831"><ele>398.0</ele><time>2026-03-29T10:48:00.003Z</time></trkpt><trkpt lat="37.39710264213792" lon="13.966071711450471"><ele>396.66666666666663</ele><time>2026-03-29T10:48:01.003Z</time></trkpt><trkpt lat="37.397138342477184" lon="13.966259498738413"><ele>395.33333333333337</ele><time>2026-03-29T10:48:02.003Z</time></trkpt><trkpt lat="37.39717607061164" lon="13.966444786444905"><ele>394.0</ele><time>2026-03-29T10:48:03.003Z</time></trkpt><trkpt lat="37.397212275913446" lon="13.966627774406497"><ele>394.75</ele><time>2026-03-29T10:48:04.003Z</time></trkpt><trkpt lat="37.39724688315158" lon="13.966807238513153"><ele>395.5</ele><time>2026-03-29T10:48:05.003Z</time></trkpt><trkpt lat="37.397283253893704" lon="13.966985013911062"><ele>396.25</ele><time>2026-03-29T10:48:06.003Z</time></trkpt><trkpt lat="37.397329821608494" lon="13.967158334192375"><ele>397.0</ele><time>2026-03-29T10:48:07.003Z</time></trkpt><trkpt lat="37.3973976926176" lon="13.967328226157953"><ele>397.0</ele><time>2026-03-29T10:48:08.003Z</time></trkpt><trkpt lat="37.39748450790164" lon="13.967485106612221"><ele>397.0</ele><time>2026-03-29T10:48:09.003Z</time></trkpt><trkpt lat="37.39759922865526" lon="13.967618532573056"><ele>397.0</ele><time>2026-03-29T10:48:10.003Z</time></trkpt><trkpt lat="37.397730783619004" lon="13.967732250152169"><ele>395.6666666666667</ele><time>2026-03-29T10:48:11.003Z</time></trkpt><trkpt lat="37.397876702146846" lon="13.967827692722805"><ele>394.33333333333337</ele><time>2026-03-29T10:48:12.003Z</time></trkpt><trkpt lat="37.398023186222794" lon="13.967911700817192"><ele>393.0</ele><time>2026-03-29T10:48:13.003Z</time></trkpt><trkpt lat="37.39816304043281" lon="13.96799560710576"><ele>393.0</ele><time>2026-03-29T10:48:14.003Z</time></trkpt><trkpt lat="37.39830124826137" lon="13.968079555597267"><ele>393.0</ele><time>2026-03-29T10:48:15.003Z</time></trkpt><trkpt lat="37.39843292102991" lon="13.968161267132864"><ele>393.0</ele><time>2026-03-29T10:48:16.003Z</time></trkpt><trkpt lat="37.39855595411039" lon="13.96824090519436"><ele>393.0</ele><time>2026-03-29T10:48:17.003Z</time></trkpt><trkpt lat="37.39867773864172" lon="13.968307713336397"><ele>393.0</ele><time>2026-03-29T10:48:18.003Z</time></trkpt><trkpt lat="37.39880045340235" lon="13.968353475958288"><ele>393.0</ele><time>2026-03-29T10:48:19.003Z</time></trkpt><trkpt lat="37.398921223138004" lon="13.968374157449933"><ele>393.0</ele><time>2026-03-29T10:48:20.003Z</time></trkpt><trkpt lat="37.39904053502879" lon="13.96837054970154"><ele>393.0</ele><time>2026-03-29T10:48:21Z</time></trkpt><trkpt lat="37.39916488683107" lon="13.968349175413199"><ele>392.75</ele><time>2026-03-29T10:48:22Z</time></trkpt><trkpt lat="37.39929039161376" lon="13.968318714697746"><ele>392.5</ele><time>2026-03-29T10:48:23Z</time></trkpt><trkpt lat="37.39941456029388" lon="13.968281118423398"><ele>392.25</ele><time>2026-03-29T10:48:24Z</time></trkpt><trkpt lat="37.39953554292712" lon="13.968240459286214"><ele>392.0</ele><time>2026-03-29T10:48:25Z</time></trkpt><trkpt lat="37.39965083656337" lon="13.96818557140998"><ele>390.0</ele><time>2026-03-29T10:48:26Z</time></trkpt><trkpt lat="37.39975813485007" lon="13.968106480199745"><ele>388.0</ele><time>2026-03-29T10:48:27Z</time></trkpt><trkpt lat="37.399858269848124" lon="13.968015756891049"><ele>386.0</ele><time>2026-03-29T10:48:28Z</time></trkpt><trkpt lat="37.39995120719229" lon="13.967919758382084"><ele>384.0</ele><time>2026-03-29T10:48:29Z</time></trkpt><trkpt lat="37.40004008312731" lon="13.967832924754196"><ele>384.0</ele><time>2026-03-29T10:48:30Z</time></trkpt><trkpt lat="37.400131727343535" lon="13.96775997011691"><ele>384.0</ele><time>2026-03-29T10:48:31Z</time></trkpt><trkpt lat="37.400230626640834" lon="13.967712330708284"><ele>384.0</ele><time>2026-03-29T10:48:32Z</time></trkpt><trkpt lat="37.4003351909085" lon="13.967693094444522"><ele>384.0</ele><time>2026-03-29T10:48:33Z</time></trkpt><trkpt lat="37.400442994817055" lon="13.96770064517645"><ele>384.0</ele><time>2026-03-29T10:48:34Z</time></trkpt><trkpt lat="37.400549907735204" lon="13.967724821690277"><ele>383.2</ele><time>2026-03-29T10:48:35Z</time></trkpt><trkpt lat="37.400656932930296" lon="13.967761368949736"><ele>382.4</ele><time>2026-03-29T10:48:36Z</time></trkpt><trkpt lat="37.40075746003051" lon="13.967799702671975"><ele>381.6</ele><time>2026-03-29T10:48:37Z</time></trkpt><trkpt lat="37.40085342496873" lon="13.967841884247198"><ele>380.8</ele><time>2026-03-29T10:48:38Z</time></trkpt><trkpt lat="37.40094283784962" lon="13.967907041224374"><ele>380.0</ele><time>2026-03-29T10:48:39Z</time></trkpt><trkpt lat="37.40102194185146" lon="13.968004142545466"><ele>380.0</ele><time>2026-03-29T10:48:40Z</time></trkpt><trkpt lat="37.40107849386433" lon="13.968127610962846"><ele>380.0</ele><time>2026-03-29T10:48:41Z</time></trkpt><trkpt lat="37.401115926300626" lon="13.968265669593588"><ele>380.0</ele><time>2026-03-29T10:48:42Z</time></trkpt><trkpt lat="37.401152973915835" lon="13.968411817336229"><ele>380.0</ele><time>2026-03-29T10:48:43Z</time></trkpt><trkpt lat="37.40119394694071" lon="13.968558402079925"><ele>379.5</ele><time>2026-03-29T10:48:44Z</time></trkpt><trkpt lat="37.40123743032277" lon="13.968705583508918"><ele>379.0</ele><time>2026-03-29T10:48:45Z</time></trkpt><trkpt lat="37.40129896378284" lon="13.968852714647793"><ele>378.5</ele><time>2026-03-29T10:48:46Z</time></trkpt><trkpt lat="37.40138648990134" lon="13.968993726843236"><ele>378.0</ele><time>2026-03-29T10:48:47Z</time></trkpt><trkpt lat="37.40148098785788" lon="13.969128339563845"><ele>376.75</ele><time>2026-03-29T10:48:48Z</time></trkpt><trkpt lat="37.40157466006617" lon="13.96925469021922"><ele>375.5</ele><time>2026-03-29T10:48:49.001Z</time></trkpt><trkpt lat="37.40166996831942" lon="13.969372459209724"><ele>374.25</ele><time>2026-03-29T10:48:50.001Z</time></trkpt><trkpt lat="37.40178088075305" lon="13.969477062951647"><ele>373.0</ele><time>2026-03-29T10:48:51.001Z</time></trkpt><trkpt lat="37.401910788237366" lon="13.96956309686142"><ele>373.0</ele><time>2026-03-29T10:48:52.001Z</time></trkpt><trkpt lat="37.4020409132861" lon="13.969643259268464"><ele>373.0</ele><time>2026-03-29T10:48:53.001Z</time></trkpt><trkpt lat="37.402163874751956" lon="13.969715539772789"><ele>373.0</ele><time>2026-03-29T10:48:54.001Z</time></trkpt><trkpt lat="37.402282377008625" lon="13.969779284469656"><ele>373.0</ele><time>2026-03-29T10:48:55.001Z</time></trkpt><trkpt lat="37.40240881025023" lon="13.969833306593898"><ele>373.75</ele><time>2026-03-29T10:48:56.001Z</time></trkpt><trkpt lat="37.402544441578506" lon="13.969863414994032"><ele>374.5</ele><time>2026-03-29T10:48:57.001Z</time></trkpt><trkpt lat="37.402684365817954" lon="13.969868263728946"><ele>375.25</ele><time>2026-03-29T10:48:58.001Z</time></trkpt><trkpt lat="37.40281988177578" lon="13.969863212733207"><ele>376.0</ele><time>2026-03-29T10:48:59.001Z</time></trkpt><trkpt lat="37.402944533933756" lon="13.969859044505391"><ele>375.75</ele><time>2026-03-29T10:49:00.001Z</time></trkpt><trkpt lat="37.40305957272543" lon="13.969854390518671"><ele>375.5</ele><time>2026-03-29T10:49:01.001Z</time></trkpt><trkpt lat="37.40316301029943" lon="13.969819102684713"><ele>375.25</ele><time>2026-03-29T10:49:02.001Z</time></trkpt><trkpt lat="37.40325674209314" lon="13.969744664363844"><ele>375.0</ele><time>2026-03-29T10:49:03.001Z</time></trkpt><trkpt lat="37.403334471160576" lon="13.969634609039028"><ele>375.0</ele><time>2026-03-29T10:49:04.001Z</time></trkpt><trkpt lat="37.40340654717783" lon="13.96950801914868"><ele>375.0</ele><time>2026-03-29T10:49:05.001Z</time></trkpt><trkpt lat="37.40348830746289" lon="13.96938286457881"><ele>375.0</ele><time>2026-03-29T10:49:06.001Z</time></trkpt><trkpt lat="37.40357144055606" lon="13.969256438835691"><ele>375.0</ele><time>2026-03-29T10:49:07.001Z</time></trkpt><trkpt lat="37.40364935290299" lon="13.969141361917403"><ele>375.6</ele><time>2026-03-29T10:49:08.001Z</time></trkpt><trkpt lat="37.403731475226785" lon="13.969043739770262"><ele>376.2</ele><time>2026-03-29T10:49:09Z</time></trkpt><trkpt lat="37.4038255160624" lon="13.96897396044649"><ele>376.79999999999995</ele><time>2026-03-29T10:49:10Z</time></trkpt><trkpt lat="37.403930819858395" lon="13.968931952120116"><ele>377.4</ele><time>2026-03-29T10:49:11Z</time></trkpt><trkpt lat="37.40404333004961" lon="13.968933182425378"><ele>378.0</ele><time>2026-03-29T10:49:12Z</time></trkpt><trkpt lat="37.40416066586201" lon="13.96896259049035"><ele>375.75</ele><time>2026-03-29T10:49:13Z</time></trkpt><trkpt lat="37.40427916935765" lon="13.968999920036554"><ele>373.5</ele><time>2026-03-29T10:49:14Z</time></trkpt><trkpt lat="37.4043976775616" lon="13.96903294875555"><ele>371.25</ele><time>2026-03-29T10:49:15Z</time></trkpt><trkpt lat="37.40451429790381" lon="13.969056671571416"><ele>369.0</ele><time>2026-03-29T10:49:16Z</time></trkpt><trkpt lat="37.40462952540908" lon="13.969053128083395"><ele>372.25</ele><time>2026-03-29T10:49:17Z</time></trkpt><trkpt lat="37.40474087339197" lon="13.969006715016942"><ele>375.5</ele><time>2026-03-29T10:49:18Z</time></trkpt><trkpt lat="37.40484438455521" lon="13.968923252846706"><ele>378.75</ele><time>2026-03-29T10:49:19Z</time></trkpt><trkpt lat="37.40492991150667" lon="13.968805525751884"><ele>382.0</ele><time>2026-03-29T10:49:20Z</time></trkpt><trkpt lat="37.40500309161478" lon="13.968658234741829"><ele>382.0</ele><time>2026-03-29T10:49:21Z</time></trkpt><trkpt lat="37.40507850321344" lon="13.968501859876582"><ele>382.0</ele><time>2026-03-29T10:49:22Z</time></trkpt><trkpt lat="37.405161727032684" lon="13.968348099205194"><ele>382.0</ele><time>2026-03-29T10:49:23.001Z</time></trkpt><trkpt lat="37.40525000743039" lon="13.96819573981867"><ele>382.0</ele><time>2026-03-29T10:49:24.001Z</time></trkpt><trkpt lat="37.40534473616838" lon="13.968053598154889"><ele>380.0</ele><time>2026-03-29T10:49:25.001Z</time></trkpt><trkpt lat="37.40545479267199" lon="13.967925834339315"><ele>378.0</ele><time>2026-03-29T10:49:26.001Z</time></trkpt><trkpt lat="37.40559908344387" lon="13.967816877242466"><ele>376.0</ele><time>2026-03-29T10:49:27.001Z</time></trkpt><trkpt lat="37.40574747958171" lon="13.967712982060522"><ele>377.0</ele><time>2026-03-29T10:49:28.001Z</time></trkpt><trkpt lat="37.40589333580858" lon="13.967615548846778"><ele>378.0</ele><time>2026-03-29T10:49:29.001Z</time></trkpt><trkpt lat="37.40604227699891" lon="13.967534261490945"><ele>379.0</ele><time>2026-03-29T10:49:30.001Z</time></trkpt><trkpt lat="37.40619172013394" lon="13.967467868655653"><ele>383.0</ele><time>2026-03-29T10:49:31.001Z</time></trkpt><trkpt lat="37.40633959074995" lon="13.967407470196129"><ele>387.0</ele><time>2026-03-29T10:49:32.001Z</time></trkpt><trkpt lat="37.40648500530329" lon="13.967347162876488"><ele>391.0</ele><time>2026-03-29T10:49:33.001Z</time></trkpt><trkpt lat="37.406635252657814" lon="13.967289976084805"><ele>391.0</ele><time>2026-03-29T10:49:34.001Z</time></trkpt><trkpt lat="37.40680162806523" lon="13.967241765733734"><ele>391.0</ele><time>2026-03-29T10:49:35.001Z</time></trkpt><trkpt lat="37.406971409081564" lon="13.967207580962159"><ele>391.0</ele><time>2026-03-29T10:49:36.001Z</time></trkpt><trkpt lat="37.4071405378716" lon="13.967172916799024"><ele>394.0</ele><time>2026-03-29T10:49:37.001Z</time></trkpt><trkpt lat="37.40731021040134" lon="13.967135162671608"><ele>397.0</ele><time>2026-03-29T10:49:38.001Z</time></trkpt><trkpt lat="37.407483296607964" lon="13.9670982429357"><ele>400.0</ele><time>2026-03-29T10:49:39.001Z</time></trkpt><trkpt lat="37.40765568617488" lon="13.967061115158948"><ele>400.0</ele><time>2026-03-29T10:49:40.001Z</time></trkpt><trkpt lat="37.40782496153549" lon="13.96702311819242"><ele>400.0</ele><time>2026-03-29T10:49:41.001Z</time></trkpt><trkpt lat="37.40798676837267" lon="13.966986877850104"><ele>400.0</ele><time>2026-03-29T10:49:42.001Z</time></trkpt><trkpt lat="37.408148315707045" lon="13.966956527239898"><ele>400.5</ele><time>2026-03-29T10:49:43.001Z</time></trkpt><trkpt lat="37.408302400831495" lon="13.966937748327812"><ele>401.0</ele><time>2026-03-29T10:49:44.001Z</time></trkpt><trkpt lat="37.408447397523" lon="13.966946869414194"><ele>401.5</ele><time>2026-03-29T10:49:45.001Z</time></trkpt><trkpt lat="37.40858434984417" lon="13.966996711548004"><ele>402.0</ele><time>2026-03-29T10:49:46.001Z</time></trkpt><trkpt lat="37.40870828960477" lon="13.967093465136726"><ele>400.33333333333337</ele><time>2026-03-29T10:49:47.001Z</time></trkpt><trkpt lat="37.4088296858921" lon="13.967222330881373"><ele>398.6666666666667</ele><time>2026-03-29T10:49:48.001Z</time></trkpt><trkpt lat="37.408957115588244" lon="13.967356025001411"><ele>397.0</ele><time>2026-03-29T10:49:49.001Z</time></trkpt><trkpt lat="37.40909750186999" lon="13.967470599659674"><ele>398.33333333333337</ele><time>2026-03-29T10:49:50.001Z</time></trkpt><trkpt lat="37.40925420907595" lon="13.967537994470684"><ele>399.66666666666663</ele><time>2026-03-29T10:49:51.001Z</time></trkpt><trkpt lat="37.40942439222151" lon="13.96757734153539"><ele>401.0</ele><time>2026-03-29T10:49:52.001Z</time></trkpt><trkpt lat="37.409610552531504" lon="13.96760540130081"><ele>401.3333333333333</ele><time>2026-03-29T10:49:53.001Z</time></trkpt><trkpt lat="37.40979790091093" lon="13.967640210753995"><ele>401.66666666666663</ele><time>2026-03-29T10:49:54.001Z</time></trkpt><trkpt lat="37.409980184458206" lon="13.967675413731207"><ele>402.0</ele><time>2026-03-29T10:49:55.001Z</time></trkpt><trkpt lat="37.410158993668595" lon="13.967706877649233"><ele>402.0</ele><time>2026-03-29T10:49:56.001Z</time></trkpt><trkpt lat="37.41032843583789" lon="13.967740403714462"><ele>402.0</ele><time>2026-03-29T10:49:57.001Z</time></trkpt><trkpt lat="37.41048513107592" lon="13.967777691547864"><ele>402.0</ele><time>2026-03-29T10:49:58.001Z</time></trkpt><trkpt lat="37.41063205880497" lon="13.967827595387744"><ele>401.33333333333337</ele><time>2026-03-29T10:49:59.001Z</time></trkpt><trkpt lat="37.410763295216064" lon="13.967904316659677"><ele>400.6666666666667</ele><time>2026-03-29T10:50:00.002Z</time></trkpt><trkpt lat="37.41088642246859" lon="13.968025726931433"><ele>400.0</ele><time>2026-03-29T10:50:01.002Z</time></trkpt><trkpt lat="37.41100859455385" lon="13.968176769184756"><ele>400.0</ele><time>2026-03-29T10:50:02.002Z</time></trkpt><trkpt lat="37.41112834353819" lon="13.968333513966483"><ele>400.0</ele><time>2026-03-29T10:50:03.002Z</time></trkpt><trkpt lat="37.411237981909196" lon="13.968479472806873"><ele>400.0</ele><time>2026-03-29T10:50:04.002Z</time></trkpt><trkpt lat="37.41135023367213" lon="13.968620401424035"><ele>401.0</ele><time>2026-03-29T10:50:05.002Z</time></trkpt><trkpt lat="37.411463581711686" lon="13.968761721151226"><ele>402.0</ele><time>2026-03-29T10:50:06.002Z</time></trkpt><trkpt lat="37.4115728541131" lon="13.968903391645615"><ele>403.0</ele><time>2026-03-29T10:50:07.002Z</time></trkpt><trkpt lat="37.411678052769005" lon="13.969042397569192"><ele>403.0</ele><time>2026-03-29T10:50:08.002Z</time></trkpt><trkpt lat="37.41177329750651" lon="13.969189202111219"><ele>403.0</ele><time>2026-03-29T10:50:09.002Z</time></trkpt><trkpt lat="37.4118512312097" lon="13.969346811357813"><ele>403.0</ele><time>2026-03-29T10:50:10.002Z</time></trkpt><trkpt lat="37.411905508957226" lon="13.969522421003107"><ele>403.0</ele><time>2026-03-29T10:50:11.002Z</time></trkpt><trkpt lat="37.41194262001933" lon="13.969712687527654"><ele>404.0</ele><time>2026-03-29T10:50:12.002Z</time></trkpt><trkpt lat="37.41195933571986" lon="13.969922147381299"><ele>405.0</ele><time>2026-03-29T10:50:13.002Z</time></trkpt><trkpt lat="37.411972290457264" lon="13.970140307709032"><ele>406.0</ele><time>2026-03-29T10:50:14.002Z</time></trkpt><trkpt lat="37.411985690950694" lon="13.97035628839387"><ele>408.0</ele><time>2026-03-29T10:50:15.002Z</time></trkpt><trkpt lat="37.41198904979971" lon="13.970562186722187"><ele>410.0</ele><time>2026-03-29T10:50:16.002Z</time></trkpt><trkpt lat="37.4119611183013" lon="13.970747617763553"><ele>412.0</ele><time>2026-03-29T10:50:17.002Z</time></trkpt><trkpt lat="37.41190337487966" lon="13.970919762872809"><ele>415.33333333333337</ele><time>2026-03-29T10:50:18.002Z</time></trkpt><trkpt lat="37.411811087566775" lon="13.971078391071215"><ele>418.66666666666663</ele><time>2026-03-29T10:50:19.002Z</time></trkpt><trkpt lat="37.411699555429465" lon="13.971231639418045"><ele>422.0</ele><time>2026-03-29T10:50:20.002Z</time></trkpt><trkpt lat="37.41159415069146" lon="13.971360138603501"><ele>422.0</ele><time>2026-03-29T10:50:21.002Z</time></trkpt><trkpt lat="37.41148651943214" lon="13.97146249024115"><ele>422.0</ele><time>2026-03-29T10:50:22.002Z</time></trkpt><trkpt lat="37.41136886321311" lon="13.971550952513299"><ele>422.0</ele><time>2026-03-29T10:50:23.002Z</time></trkpt><trkpt lat="37.41125300546559" lon="13.971631851429986"><ele>422.0</ele><time>2026-03-29T10:50:24.002Z</time></trkpt><trkpt lat="37.411166663716" lon="13.971708628881705"><ele>420.40000000000003</ele><time>2026-03-29T10:50:25.002Z</time></trkpt><trkpt lat="37.411112716692095" lon="13.971804006527911"><ele>418.8</ele><time>2026-03-29T10:50:26.002Z</time></trkpt><trkpt lat="37.411100394573694" lon="13.971935756042903"><ele>417.2</ele><time>2026-03-29T10:50:26.999Z</time></trkpt><trkpt lat="37.41114729818731" lon="13.972048883846021"><ele>415.6</ele><time>2026-03-29T10:50:27.999Z</time></trkpt><trkpt lat="37.41123520813221" lon="13.972118222760713"><ele>414.0</ele><time>2026-03-29T10:50:28.999Z</time></trkpt><trkpt lat="37.411339650562525" lon="13.972122299518157"><ele>418.5</ele><time>2026-03-29T10:50:29.999Z</time></trkpt><trkpt lat="37.41144062713356" lon="13.972070461444453"><ele>423.0</ele><time>2026-03-29T10:50:30.999Z</time></trkpt><trkpt lat="37.41152776014842" lon="13.971959263006886"><ele>427.5</ele><time>2026-03-29T10:50:31.999Z</time></trkpt><trkpt lat="37.411633648092135" lon="13.971846213583541"><ele>432.0</ele><time>2026-03-29T10:50:32.999Z</time></trkpt><trkpt lat="37.41176158213577" lon="13.97174723624393"><ele>431.5</ele><time>2026-03-29T10:50:33.999Z</time></trkpt><trkpt lat="37.41190094701983" lon="13.97167394617021"><ele>431.0</ele><time>2026-03-29T10:50:34.999Z</time></trkpt><trkpt lat="37.41202722179687" lon="13.971631269696424"><ele>430.5</ele><time>2026-03-29T10:50:35.999Z</time></trkpt><trkpt lat="37.41215556265337" lon="13.971603638252308"><ele>430.0</ele><time>2026-03-29T10:50:36.999Z</time></trkpt><trkpt lat="37.41229810171621" lon="13.971601641989967"><ele>430.0</ele><time>2026-03-29T10:50:37.999Z</time></trkpt><trkpt lat="37.41244856431961" lon="13.97163305415951"><ele>430.0</ele><time>2026-03-29T10:50:38.999Z</time></trkpt><trkpt lat="37.412609135033215" lon="13.971685117463757"><ele>430.0</ele><time>2026-03-29T10:50:39.999Z</time></trkpt><trkpt lat="37.412782198002375" lon="13.9717334586568"><ele>429.0</ele><time>2026-03-29T10:50:40.999Z</time></trkpt><trkpt lat="37.41294451904531" lon="13.971764334651075"><ele>428.0</ele><time>2026-03-29T10:50:41.999Z</time></trkpt><trkpt lat="37.41310283532243" lon="13.971793947709301"><ele>427.0</ele><time>2026-03-29T10:50:42.999Z</time></trkpt><trkpt lat="37.41326629769573" lon="13.971826348364576"><ele>427.0</ele><time>2026-03-29T10:50:43.999Z</time></trkpt><trkpt lat="37.41343170070751" lon="13.971856051742236"><ele>427.0</ele><time>2026-03-29T10:50:44.999Z</time></trkpt><trkpt lat="37.41359732181243" lon="13.971878925944841"><ele>427.0</ele><time>2026-03-29T10:50:45.999Z</time></trkpt><trkpt lat="37.41376631671947" lon="13.971887360785463"><ele>424.0</ele><time>2026-03-29T10:50:46.999Z</time></trkpt><trkpt lat="37.41393590798256" lon="13.971880596523324"><ele>421.0</ele><time>2026-03-29T10:50:47.999Z</time></trkpt><trkpt lat="37.414105521671736" lon="13.971866907501328"><ele>418.0</ele><time>2026-03-29T10:50:48.999Z</time></trkpt><trkpt lat="37.41427234453627" lon="13.97185490989699"><ele>418.0</ele><time>2026-03-29T10:50:49.999Z</time></trkpt><trkpt lat="37.414432765760424" lon="13.971847121453106"><ele>418.0</ele><time>2026-03-29T10:50:51Z</time></trkpt><trkpt lat="37.41458837982842" lon="13.971845268918257"><ele>418.0</ele><time>2026-03-29T10:50:52Z</time></trkpt><trkpt lat="37.414740128789965" lon="13.971857036581767"><ele>417.6666666666667</ele><time>2026-03-29T10:50:53Z</time></trkpt><trkpt lat="37.414885620016506" lon="13.971898990035573"><ele>417.33333333333337</ele><time>2026-03-29T10:50:54Z</time></trkpt><trkpt lat="37.41502926564519" lon="13.971965828646725"><ele>417.0</ele><time>2026-03-29T10:50:55Z</time></trkpt><trkpt lat="37.415175446850334" lon="13.972047570936766"><ele>417.0</ele><time>2026-03-29T10:50:56Z</time></trkpt><trkpt lat="37.41532398168779" lon="13.972133746930677"><ele>417.0</ele><time>2026-03-29T10:50:57Z</time></trkpt><trkpt lat="37.415477265433694" lon="13.972219383006752"><ele>417.0</ele><time>2026-03-29T10:50:58Z</time></trkpt><trkpt lat="37.41562957740391" lon="13.972302370901998"><ele>419.33333333333337</ele><time>2026-03-29T10:50:59Z</time></trkpt><trkpt lat="37.41578086636782" lon="13.972376769532517"><ele>421.6666666666667</ele><time>2026-03-29T10:51:00Z</time></trkpt><trkpt lat="37.41593293123954" lon="13.972440230601993"><ele>424.0</ele><time>2026-03-29T10:51:01Z</time></trkpt><trkpt lat="37.41609086063056" lon="13.972485627644902"><ele>424.0</ele><time>2026-03-29T10:51:02Z</time></trkpt><trkpt lat="37.416257495426564" lon="13.972508402737517"><ele>424.0</ele><time>2026-03-29T10:51:03Z</time></trkpt><trkpt lat="37.416428921100994" lon="13.972507014453816"><ele>424.0</ele><time>2026-03-29T10:51:04Z</time></trkpt><trkpt lat="37.41660278962879" lon="13.972502118777255"><ele>423.6666666666667</ele><time>2026-03-29T10:51:05Z</time></trkpt><trkpt lat="37.416781655410865" lon="13.97250456875046"><ele>423.33333333333337</ele><time>2026-03-29T10:51:06Z</time></trkpt><trkpt lat="37.416962233129944" lon="13.97252071952952"><ele>423.0</ele><time>2026-03-29T10:51:07Z</time></trkpt><trkpt lat="37.417140551638454" lon="13.972555882570958"><ele>422.0</ele><time>2026-03-29T10:51:08Z</time></trkpt><trkpt lat="37.41731647775962" lon="13.972602853793477"><ele>421.0</ele><time>2026-03-29T10:51:09Z</time></trkpt><trkpt lat="37.41749119281696" lon="13.972656136689501"><ele>420.0</ele><time>2026-03-29T10:51:10Z</time></trkpt><trkpt lat="37.4176648763131" lon="13.972709082911058"><ele>420.0</ele><time>2026-03-29T10:51:11Z</time></trkpt><trkpt lat="37.41783731412988" lon="13.972764481482965"><ele>420.0</ele><time>2026-03-29T10:51:12Z</time></trkpt><trkpt lat="37.418011175001006" lon="13.972822137295767"><ele>420.0</ele><time>2026-03-29T10:51:13Z</time></trkpt><trkpt lat="37.418184091487916" lon="13.972887111484193"><ele>420.66666666666663</ele><time>2026-03-29T10:51:14Z</time></trkpt><trkpt lat="37.41835410915374" lon="13.9729685560448"><ele>421.3333333333333</ele><time>2026-03-29T10:51:15Z</time></trkpt><trkpt lat="37.418519759177684" lon="13.973064403883685"><ele>422.0</ele><time>2026-03-29T10:51:16Z</time></trkpt><trkpt lat="37.41868561384905" lon="13.973161198568544"><ele>421.66666666666663</ele><time>2026-03-29T10:51:17Z</time></trkpt><trkpt lat="37.418850368933114" lon="13.973249490017409"><ele>421.33333333333337</ele><time>2026-03-29T10:51:18Z</time></trkpt><trkpt lat="37.41900574168475" lon="13.973323026691762"><ele>421.0</ele><time>2026-03-29T10:51:19Z</time></trkpt><trkpt lat="37.41916999484267" lon="13.97337227585523"><ele>421.0</ele><time>2026-03-29T10:51:20Z</time></trkpt><trkpt lat="37.41934492631512" lon="13.973392357161805"><ele>421.0</ele><time>2026-03-29T10:51:21Z</time></trkpt><trkpt lat="37.41952888081718" lon="13.973399025448602"><ele>421.0</ele><time>2026-03-29T10:51:22Z</time></trkpt><trkpt lat="37.41971575437949" lon="13.973404204514242"><ele>419.33333333333337</ele><time>2026-03-29T10:51:23.001Z</time></trkpt><trkpt lat="37.41990359600093" lon="13.973412654361182"><ele>417.66666666666663</ele><time>2026-03-29T10:51:24.001Z</time></trkpt><trkpt lat="37.42009257309103" lon="13.97342297347195"><ele>416.0</ele><time>2026-03-29T10:51:25.001Z</time></trkpt><trkpt lat="37.42027877479672" lon="13.973435651915638"><ele>416.0</ele><time>2026-03-29T10:51:26.001Z</time></trkpt><trkpt lat="37.42046173019398" lon="13.973449588101314"><ele>416.0</ele><time>2026-03-29T10:51:27.001Z</time></trkpt><trkpt lat="37.420642283041914" lon="13.973460520791896"><ele>416.0</ele><time>2026-03-29T10:51:28.001Z</time></trkpt><trkpt lat="37.420815999155074" lon="13.973470564466954"><ele>417.0</ele><time>2026-03-29T10:51:29.001Z</time></trkpt><trkpt lat="37.42098610849115" lon="13.97348097075451"><ele>418.0</ele><time>2026-03-29T10:51:30.001Z</time></trkpt><trkpt lat="37.42115060904151" lon="13.973491764652847"><ele>419.0</ele><time>2026-03-29T10:51:31.001Z</time></trkpt><trkpt lat="37.42131481894036" lon="13.973506962008708"><ele>419.3333333333333</ele><time>2026-03-29T10:51:32.001Z</time></trkpt><trkpt lat="37.42147761465281" lon="13.973542946751166"><ele>419.66666666666663</ele><time>2026-03-29T10:51:33.001Z</time></trkpt><trkpt lat="37.421641121794266" lon="13.97360710851027"><ele>420.0</ele><time>2026-03-29T10:51:34.001Z</time></trkpt><trkpt lat="37.42180784014101" lon="13.97369201310347"><ele>420.0</ele><time>2026-03-29T10:51:35.001Z</time></trkpt><trkpt lat="37.42197716998999" lon="13.973788947396569"><ele>420.0</ele><time>2026-03-29T10:51:36.001Z</time></trkpt><trkpt lat="37.422151945581014" lon="13.973885945172343"><ele>420.0</ele><time>2026-03-29T10:51:37.001Z</time></trkpt><trkpt lat="37.422332661706534" lon="13.973983306271998"><ele>419.33333333333337</ele><time>2026-03-29T10:51:38.001Z</time></trkpt><trkpt lat="37.42251316103637" lon="13.974083208039396"><ele>418.6666666666667</ele><time>2026-03-29T10:51:39.001Z</time></trkpt><trkpt lat="37.4226919780253" lon="13.974184435459938"><ele>418.0</ele><time>2026-03-29T10:51:40.001Z</time></trkpt><trkpt lat="37.422867122379586" lon="13.974282837928794"><ele>417.0</ele><time>2026-03-29T10:51:41.001Z</time></trkpt><trkpt lat="37.42304327831589" lon="13.974379266399037"><ele>416.0</ele><time>2026-03-29T10:51:42.001Z</time></trkpt><trkpt lat="37.4232199545524" lon="13.974475398383387"><ele>415.0</ele><time>2026-03-29T10:51:43.001Z</time></trkpt><trkpt lat="37.423397806390234" lon="13.974574560272966"><ele>415.0</ele><time>2026-03-29T10:51:44.001Z</time></trkpt><trkpt lat="37.42357501555797" lon="13.974680627008281"><ele>415.0</ele><time>2026-03-29T10:51:45.001Z</time></trkpt><trkpt lat="37.42375171652144" lon="13.974796874457311"><ele>415.0</ele><time>2026-03-29T10:51:46.001Z</time></trkpt><trkpt lat="37.42392928562292" lon="13.974918930114749"><ele>414.6666666666667</ele><time>2026-03-29T10:51:47.001Z</time></trkpt><trkpt lat="37.42410938664384" lon="13.975039414493947"><ele>414.33333333333337</ele><time>2026-03-29T10:51:48.001Z</time></trkpt><trkpt lat="37.42429101180786" lon="13.975160612857783"><ele>414.0</ele><time>2026-03-29T10:51:49.001Z</time></trkpt><trkpt lat="37.424472687881085" lon="13.975282115241193"><ele>415.33333333333337</ele><time>2026-03-29T10:51:50.001Z</time></trkpt><trkpt lat="37.42465352157754" lon="13.975407679854301"><ele>416.6666666666667</ele><time>2026-03-29T10:51:51.001Z</time></trkpt><trkpt lat="37.4248328505815" lon="13.975535565653098"><ele>418.0</ele><time>2026-03-29T10:51:52.001Z</time></trkpt><trkpt lat="37.425009215675146" lon="13.975667268279276"><ele>418.0</ele><time>2026-03-29T10:51:53.001Z</time></trkpt><trkpt lat="37.42518379457209" lon="13.975804615715909"><ele>418.0</ele><time>2026-03-29T10:51:54.001Z</time></trkpt><trkpt lat="37.42535627721529" lon="13.975945870634696"><ele>418.0</ele><time>2026-03-29T10:51:55.001Z</time></trkpt><trkpt lat="37.42552742680224" lon="13.976088952107238"><ele>419.33333333333337</ele><time>2026-03-29T10:51:56.001Z</time></trkpt><trkpt lat="37.425699887741615" lon="13.976231357131876"><ele>420.66666666666663</ele><time>2026-03-29T10:51:57.001Z</time></trkpt><trkpt lat="37.425871867971445" lon="13.976370848180881"><ele>422.0</ele><time>2026-03-29T10:51:58.002Z</time></trkpt><trkpt lat="37.42604939423759" lon="13.976500459635597"><ele>422.0</ele><time>2026-03-29T10:51:59.002Z</time></trkpt><trkpt lat="37.42623321618548" lon="13.976617197264131"><ele>422.0</ele><time>2026-03-29T10:52:00.002Z</time></trkpt><trkpt lat="37.42642330705913" lon="13.976716508750286"><ele>422.0</ele><time>2026-03-29T10:52:01.002Z</time></trkpt><trkpt lat="37.42661468757738" lon="13.976808228806814"><ele>424.3333333333333</ele><time>2026-03-29T10:52:02.002Z</time></trkpt><trkpt lat="37.42680673707768" lon="13.976903302665427"><ele>426.66666666666663</ele><time>2026-03-29T10:52:03.002Z</time></trkpt><trkpt lat="37.42699807941897" lon="13.97700145784132"><ele>429.0</ele><time>2026-03-29T10:52:04.002Z</time></trkpt><trkpt lat="37.42718620806309" lon="13.977094434457852"><ele>430.66666666666663</ele><time>2026-03-29T10:52:05.002Z</time></trkpt><trkpt lat="37.4273703356518" lon="13.977174197471784"><ele>432.3333333333333</ele><time>2026-03-29T10:52:06.002Z</time></trkpt><trkpt lat="37.427560781751026" lon="13.977246596832021"><ele>434.0</ele><time>2026-03-29T10:52:07.002Z</time></trkpt><trkpt lat="37.42774662304386" lon="13.977308372002511"><ele>434.0</ele><time>2026-03-29T10:52:08.002Z</time></trkpt><trkpt lat="37.4279262341643" lon="13.97735745459834"><ele>434.0</ele><time>2026-03-29T10:52:09.002Z</time></trkpt><trkpt lat="37.42810110896865" lon="13.9774004565272"><ele>434.0</ele><time>2026-03-29T10:52:10.002Z</time></trkpt><trkpt lat="37.42825923736948" lon="13.977453208959687"><ele>436.3333333333333</ele><time>2026-03-29T10:52:11.002Z</time></trkpt><trkpt lat="37.42841650308075" lon="13.977529473654124"><ele>438.66666666666663</ele><time>2026-03-29T10:52:12.002Z</time></trkpt><trkpt lat="37.42858200821322" lon="13.977629500260397"><ele>441.0</ele><time>2026-03-29T10:52:13.002Z</time></trkpt><trkpt lat="37.428759912844285" lon="13.977738550313108"><ele>435.66666666666663</ele><time>2026-03-29T10:52:14.002Z</time></trkpt><trkpt lat="37.42893965761449" lon="13.97785967095502"><ele>430.3333333333333</ele><time>2026-03-29T10:52:15.002Z</time></trkpt><trkpt lat="37.42912050152354" lon="13.977977314482542"><ele>425.0</ele><time>2026-03-29T10:52:16.002Z</time></trkpt><trkpt lat="37.429298552540104" lon="13.978090985958804"><ele>425.0</ele><time>2026-03-29T10:52:17.002Z</time></trkpt><trkpt lat="37.429470947644226" lon="13.978200301010375"><ele>425.0</ele><time>2026-03-29T10:52:18.002Z</time></trkpt><trkpt lat="37.42963548673698" lon="13.978311409057918"><ele>425.0</ele><time>2026-03-29T10:52:19.002Z</time></trkpt><trkpt lat="37.42979088432906" lon="13.978425948791237"><ele>421.0</ele><time>2026-03-29T10:52:20.002Z</time></trkpt><trkpt lat="37.4299365016685" lon="13.978542112193512"><ele>417.0</ele><time>2026-03-29T10:52:21.002Z</time></trkpt><trkpt lat="37.43007446368285" lon="13.978659333642852"><ele>413.0</ele><time>2026-03-29T10:52:22.002Z</time></trkpt><trkpt lat="37.43020479860279" lon="13.978782743297453"><ele>413.0</ele><time>2026-03-29T10:52:23.002Z</time></trkpt><trkpt lat="37.430327289038814" lon="13.978910243456061"><ele>413.0</ele><time>2026-03-29T10:52:24.002Z</time></trkpt><trkpt lat="37.430439972754705" lon="13.979055417763467"><ele>413.0</ele><time>2026-03-29T10:52:25.002Z</time></trkpt><trkpt lat="37.43054450287819" lon="13.979220992789408"><ele>413.0</ele><time>2026-03-29T10:52:26.002Z</time></trkpt><trkpt lat="37.430648436176696" lon="13.979396545172323"><ele>413.0</ele><time>2026-03-29T10:52:27.002Z</time></trkpt><trkpt lat="37.430753099896556" lon="13.979567091976278"><ele>413.0</ele><time>2026-03-29T10:52:28.002Z</time></trkpt><trkpt lat="37.43085191460219" lon="13.979729522883272"><ele>413.0</ele><time>2026-03-29T10:52:29.002Z</time></trkpt><trkpt lat="37.43094938257312" lon="13.979876974179057"><ele>413.0</ele><time>2026-03-29T10:52:30.002Z</time></trkpt><trkpt lat="37.431064203080545" lon="13.979999537403106"><ele>413.0</ele><time>2026-03-29T10:52:31.002Z</time></trkpt><trkpt lat="37.43119787397546" lon="13.980093286414142"><ele>410.0</ele><time>2026-03-29T10:52:32.002Z</time></trkpt><trkpt lat="37.43134576055557" lon="13.980153850774458"><ele>407.0</ele><time>2026-03-29T10:52:32.999Z</time></trkpt><trkpt lat="37.431502626048776" lon="13.980182018401337"><ele>404.0</ele><time>2026-03-29T10:52:33.999Z</time></trkpt><trkpt lat="37.4316736289811" lon="13.98018570078449"><ele>404.0</ele><time>2026-03-29T10:52:34.999Z</time></trkpt><trkpt lat="37.431849833333786" lon="13.980181963500938"><ele>404.0</ele><time>2026-03-29T10:52:35.999Z</time></trkpt><trkpt lat="37.43202489669241" lon="13.980180490134542"><ele>404.0</ele><time>2026-03-29T10:52:36.999Z</time></trkpt><trkpt lat="37.432189171633546" lon="13.980186145496997"><ele>404.3333333333333</ele><time>2026-03-29T10:52:37.999Z</time></trkpt><trkpt lat="37.432346638948005" lon="13.980193884751028"><ele>404.66666666666663</ele><time>2026-03-29T10:52:38.999Z</time></trkpt><trkpt lat="37.43249583320952" lon="13.980217769517692"><ele>405.0</ele><time>2026-03-29T10:52:39.999Z</time></trkpt><trkpt lat="37.43263689262671" lon="13.98027194252947"><ele>405.0</ele><time>2026-03-29T10:52:40.999Z</time></trkpt><trkpt lat="37.43276761625548" lon="13.980365054241487"><ele>405.0</ele><time>2026-03-29T10:52:41.999Z</time></trkpt><trkpt lat="37.43289510230351" lon="13.980480854071489"><ele>405.0</ele><time>2026-03-29T10:52:42.999Z</time></trkpt><trkpt lat="37.43300723944825" lon="13.980596161044312"><ele>405.0</ele><time>2026-03-29T10:52:43.999Z</time></trkpt><trkpt lat="37.433091169506845" lon="13.980718897722245"><ele>405.0</ele><time>2026-03-29T10:52:44.999Z</time></trkpt><trkpt lat="37.43313063455528" lon="13.98086229988476"><ele>405.0</ele><time>2026-03-29T10:52:45.999Z</time></trkpt><trkpt lat="37.43312432557322" lon="13.981013909552875"><ele>405.0</ele><time>2026-03-29T10:52:46.999Z</time></trkpt><trkpt lat="37.433068160754225" lon="13.98117133022393"><ele>405.5</ele><time>2026-03-29T10:52:47.999Z</time></trkpt><trkpt lat="37.432992255950445" lon="13.981320280992962"><ele>406.0</ele><time>2026-03-29T10:52:48.999Z</time></trkpt><trkpt lat="37.432916044292874" lon="13.981491506338882"><ele>406.5</ele><time>2026-03-29T10:52:49.999Z</time></trkpt><trkpt lat="37.43284914162601" lon="13.981664899655708"><ele>407.0</ele><time>2026-03-29T10:52:51Z</time></trkpt><trkpt lat="37.4327849521167" lon="13.98183394683129"><ele>404.66666666666663</ele><time>2026-03-29T10:52:52Z</time></trkpt><trkpt lat="37.43272591119502" lon="13.98201183300234"><ele>402.33333333333337</ele><time>2026-03-29T10:52:53Z</time></trkpt><trkpt lat="37.43267578463659" lon="13.982197489390758"><ele>400.0</ele><time>2026-03-29T10:52:54Z</time></trkpt><trkpt lat="37.4326301890283" lon="13.982390055463977"><ele>398.6666666666667</ele><time>2026-03-29T10:52:55Z</time></trkpt><trkpt lat="37.4325865195354" lon="13.982594885961642"><ele>397.33333333333337</ele><time>2026-03-29T10:52:56Z</time></trkpt><trkpt lat="37.43254491327462" lon="13.982801384776236"><ele>396.0</ele><time>2026-03-29T10:52:57Z</time></trkpt><trkpt lat="37.43251344730432" lon="13.982995129638716"><ele>396.0</ele><time>2026-03-29T10:52:58Z</time></trkpt><trkpt lat="37.43249304499813" lon="13.983176359231969"><ele>396.0</ele><time>2026-03-29T10:52:59Z</time></trkpt><trkpt lat="37.43248554541361" lon="13.983341812123836"><ele>396.0</ele><time>2026-03-29T10:53:00Z</time></trkpt><trkpt lat="37.43251153801242" lon="13.983501754263065"><ele>396.0</ele><time>2026-03-29T10:53:01Z</time></trkpt><trkpt lat="37.43257022996195" lon="13.983653217117428"><ele>395.0</ele><time>2026-03-29T10:53:02Z</time></trkpt><trkpt lat="37.43266445378836" lon="13.983782566857368"><ele>394.0</ele><time>2026-03-29T10:53:03Z</time></trkpt><trkpt lat="37.43277290042483" lon="13.98387301468328"><ele>393.0</ele><time>2026-03-29T10:53:04Z</time></trkpt><trkpt lat="37.43289405810533" lon="13.98393831371228"><ele>392.0</ele><time>2026-03-29T10:53:05Z</time></trkpt><trkpt lat="37.43301638546647" lon="13.983998474193578"><ele>392.0</ele><time>2026-03-29T10:53:06Z</time></trkpt><trkpt lat="37.433109740648675" lon="13.984099523417402"><ele>392.0</ele><time>2026-03-29T10:53:07Z</time></trkpt><trkpt lat="37.43316480607902" lon="13.984238974167887"><ele>392.0</ele><time>2026-03-29T10:53:08Z</time></trkpt><trkpt lat="37.433181326047546" lon="13.984399082425446"><ele>392.0</ele><time>2026-03-29T10:53:09Z</time></trkpt><trkpt lat="37.43316770356696" lon="13.984580870594288"><ele>391.0</ele><time>2026-03-29T10:53:10Z</time></trkpt><trkpt lat="37.433145640148716" lon="13.984767954548753"><ele>390.0</ele><time>2026-03-29T10:53:11Z</time></trkpt><trkpt lat="37.43311516035399" lon="13.984936530633588"><ele>389.0</ele><time>2026-03-29T10:53:12Z</time></trkpt><trkpt lat="37.43305944666581" lon="13.9850904546758"><ele>388.0</ele><time>2026-03-29T10:53:13Z</time></trkpt><trkpt lat="37.43297083120702" lon="13.98522855870623"><ele>385.33333333333337</ele><time>2026-03-29T10:53:14Z</time></trkpt><trkpt lat="37.43285247572526" lon="13.98534764730172"><ele>382.6666666666667</ele><time>2026-03-29T10:53:15Z</time></trkpt><trkpt lat="37.432720847081555" lon="13.985460536982325"><ele>380.0</ele><time>2026-03-29T10:53:16Z</time></trkpt><trkpt lat="37.43259868271959" lon="13.985573584068131"><ele>380.0</ele><time>2026-03-29T10:53:17Z</time></trkpt><trkpt lat="37.43248680075932" lon="13.9857114317674"><ele>380.0</ele><time>2026-03-29T10:53:18Z</time></trkpt><trkpt lat="37.43238281374342" lon="13.985867121484675"><ele>380.0</ele><time>2026-03-29T10:53:19Z</time></trkpt><trkpt lat="37.43228572213238" lon="13.986016104844653"><ele>380.5</ele><time>2026-03-29T10:53:20Z</time></trkpt><trkpt lat="37.43219203600371" lon="13.986159793220834"><ele>381.0</ele><time>2026-03-29T10:53:21Z</time></trkpt><trkpt lat="37.43210609481927" lon="13.986306262518902"><ele>381.5</ele><time>2026-03-29T10:53:22Z</time></trkpt><trkpt lat="37.43203346958128" lon="13.986471565743953"><ele>382.0</ele><time>2026-03-29T10:53:23.001Z</time></trkpt><trkpt lat="37.43198338613751" lon="13.98667052842227"><ele>376.66666666666663</ele><time>2026-03-29T10:53:24.001Z</time></trkpt><trkpt lat="37.43195755064944" lon="13.986867911747975"><ele>371.3333333333333</ele><time>2026-03-29T10:53:25.001Z</time></trkpt><trkpt lat="37.431949752668544" lon="13.987062381583076"><ele>366.0</ele><time>2026-03-29T10:53:26.001Z</time></trkpt><trkpt lat="37.43196439288111" lon="13.987264411148711"><ele>366.0</ele><time>2026-03-29T10:53:27.001Z</time></trkpt><trkpt lat="37.432004388891855" lon="13.987470155785612"><ele>366.0</ele><time>2026-03-29T10:53:28.001Z</time></trkpt><trkpt lat="37.43206397959096" lon="13.987672473009397"><ele>366.0</ele><time>2026-03-29T10:53:29.001Z</time></trkpt><trkpt lat="37.4321006618253" lon="13.987856044144754"><ele>366.0</ele><time>2026-03-29T10:53:30.001Z</time></trkpt><trkpt lat="37.432104383789145" lon="13.988044801190833"><ele>366.0</ele><time>2026-03-29T10:53:31.001Z</time></trkpt><trkpt lat="37.43208028580974" lon="13.988230182162116"><ele>366.0</ele><time>2026-03-29T10:53:32.001Z</time></trkpt><trkpt lat="37.432046739182944" lon="13.988403178561969"><ele>366.0</ele><time>2026-03-29T10:53:33.001Z</time></trkpt><trkpt lat="37.432040965112535" lon="13.988571128245272"><ele>366.5</ele><time>2026-03-29T10:53:34.001Z</time></trkpt><trkpt lat="37.432078472618706" lon="13.988733189611441"><ele>367.0</ele><time>2026-03-29T10:53:35.001Z</time></trkpt><trkpt lat="37.43215165151016" lon="13.988894150382986"><ele>367.5</ele><time>2026-03-29T10:53:36.001Z</time></trkpt><trkpt lat="37.43225023670273" lon="13.989060431978585"><ele>368.0</ele><time>2026-03-29T10:53:37.001Z</time></trkpt><trkpt lat="37.43234529109973" lon="13.989231512855822"><ele>366.5</ele><time>2026-03-29T10:53:38.001Z</time></trkpt><trkpt lat="37.43242860293406" lon="13.989393670727477"><ele>365.0</ele><time>2026-03-29T10:53:39.001Z</time></trkpt><trkpt lat="37.43250735585904" lon="13.98954818897728"><ele>363.5</ele><time>2026-03-29T10:53:40.001Z</time></trkpt><trkpt lat="37.43256926043497" lon="13.98969634580958"><ele>362.0</ele><time>2026-03-29T10:53:41.001Z</time></trkpt><trkpt lat="37.43260134018888" lon="13.989849607843492"><ele>362.0</ele><time>2026-03-29T10:53:42.001Z</time></trkpt><trkpt lat="37.4325934375438" lon="13.990000839703027"><ele>362.0</ele><time>2026-03-29T10:53:43.001Z</time></trkpt><trkpt lat="37.43255250691019" lon="13.990147072448424"><ele>362.0</ele><time>2026-03-29T10:53:44.001Z</time></trkpt><trkpt lat="37.43250252332704" lon="13.990289030541275"><ele>362.0</ele><time>2026-03-29T10:53:45.001Z</time></trkpt><trkpt lat="37.432459173035596" lon="13.990415514264019"><ele>360.40000000000003</ele><time>2026-03-29T10:53:46.001Z</time></trkpt><trkpt lat="37.432441346617985" lon="13.990524781679207"><ele>358.8</ele><time>2026-03-29T10:53:47.001Z</time></trkpt><trkpt lat="37.43246710397931" lon="13.990625947322249"><ele>357.2</ele><time>2026-03-29T10:53:48.001Z</time></trkpt><trkpt lat="37.432529271700055" lon="13.990706000555246"><ele>355.6</ele><time>2026-03-29T10:53:49.001Z</time></trkpt><trkpt lat="37.43262334418442" lon="13.990738162899435"><ele>354.0</ele><time>2026-03-29T10:53:50.001Z</time></trkpt><trkpt lat="37.43271781484618" lon="13.99071899738339"><ele>354.0</ele><time>2026-03-29T10:53:51.001Z</time></trkpt><trkpt lat="37.43279866274327" lon="13.990641361954918"><ele>354.0</ele><time>2026-03-29T10:53:52.001Z</time></trkpt><trkpt lat="37.43287191748059" lon="13.990531063239859"><ele>354.0</ele><time>2026-03-29T10:53:53.001Z</time></trkpt><trkpt lat="37.43295359778843" lon="13.990416968011719"><ele>354.0</ele><time>2026-03-29T10:53:54.001Z</time></trkpt><trkpt lat="37.43304599051823" lon="13.99033377626698"><ele>353.0</ele><time>2026-03-29T10:53:55.001Z</time></trkpt><trkpt lat="37.43316119676245" lon="13.990284402282704"><ele>352.0</ele><time>2026-03-29T10:53:56.001Z</time></trkpt><trkpt lat="37.433298532453456" lon="13.990258321714276"><ele>351.0</ele><time>2026-03-29T10:53:57.002Z</time></trkpt><trkpt lat="37.433442880931935" lon="13.990225976025576"><ele>350.0</ele><time>2026-03-29T10:53:58.002Z</time></trkpt><trkpt lat="37.433579119274526" lon="13.990171554249276"><ele>350.0</ele><time>2026-03-29T10:53:59.002Z</time></trkpt><trkpt lat="37.4337056064572" lon="13.990117170100316"><ele>350.0</ele><time>2026-03-29T10:54:00.002Z</time></trkpt><trkpt lat="37.433824888427196" lon="13.990085784300822"><ele>350.0</ele><time>2026-03-29T10:54:01.002Z</time></trkpt><trkpt lat="37.433939791374065" lon="13.990106676631209"><ele>350.0</ele><time>2026-03-29T10:54:02.002Z</time></trkpt><trkpt lat="37.43404482846406" lon="13.99018087173294"><ele>349.0</ele><time>2026-03-29T10:54:03.002Z</time></trkpt><trkpt lat="37.43413923058199" lon="13.990306202959216"><ele>348.0</ele><time>2026-03-29T10:54:04.002Z</time></trkpt><trkpt lat="37.43422782087176" lon="13.990462612638758"><ele>347.0</ele><time>2026-03-29T10:54:05.002Z</time></trkpt><trkpt lat="37.434317294285464" lon="13.990621657131255"><ele>346.0</ele><time>2026-03-29T10:54:06.002Z</time></trkpt><trkpt lat="37.43440323170582" lon="13.990758045766038"><ele>347.25</ele><time>2026-03-29T10:54:07.002Z</time></trkpt><trkpt lat="37.43447781858639" lon="13.990883590898259"><ele>348.5</ele><time>2026-03-29T10:54:08.002Z</time></trkpt><trkpt lat="37.434529555906316" lon="13.991009888596457"><ele>349.75</ele><time>2026-03-29T10:54:09.002Z</time></trkpt><trkpt lat="37.43452805852142" lon="13.991143686700907"><ele>351.0</ele><time>2026-03-29T10:54:10.002Z</time></trkpt><trkpt lat="37.43447602874557" lon="13.991285412508484"><ele>351.0</ele><time>2026-03-29T10:54:11.002Z</time></trkpt><trkpt lat="37.43438505255775" lon="13.991425588355645"><ele>351.0</ele><time>2026-03-29T10:54:12.002Z</time></trkpt><trkpt lat="37.434288031213086" lon="13.991575584554548"><ele>351.0</ele><time>2026-03-29T10:54:13.002Z</time></trkpt><trkpt lat="37.43420124439749" lon="13.99172813253721"><ele>351.0</ele><time>2026-03-29T10:54:14.002Z</time></trkpt><trkpt lat="37.43412581714849" lon="13.991879817809087"><ele>352.25</ele><time>2026-03-29T10:54:15.002Z</time></trkpt><trkpt lat="37.434065036786265" lon="13.992042079769028"><ele>353.5</ele><time>2026-03-29T10:54:16.002Z</time></trkpt><trkpt lat="37.43402639355818" lon="13.99221799398394"><ele>354.75</ele><time>2026-03-29T10:54:17.002Z</time></trkpt><trkpt lat="37.43401577361407" lon="13.992403393090767"><ele>356.0</ele><time>2026-03-29T10:54:18.002Z</time></trkpt><trkpt lat="37.43402190608263" lon="13.992588233706547"><ele>356.0</ele><time>2026-03-29T10:54:19.002Z</time></trkpt><trkpt lat="37.43402793141532" lon="13.992756455693968"><ele>356.0</ele><time>2026-03-29T10:54:20.002Z</time></trkpt><trkpt lat="37.43401852061795" lon="13.992910286304147"><ele>356.0</ele><time>2026-03-29T10:54:21.002Z</time></trkpt><trkpt lat="37.4339885658358" lon="13.99305893302942"><ele>356.0</ele><time>2026-03-29T10:54:22.002Z</time></trkpt><trkpt lat="37.43392770688133" lon="13.993191981778462"><ele>356.0</ele><time>2026-03-29T10:54:23.002Z</time></trkpt><trkpt lat="37.43383166724699" lon="13.993294118713123"><ele>356.0</ele><time>2026-03-29T10:54:24.002Z</time></trkpt><trkpt lat="37.433722772027934" lon="13.99337312421416"><ele>356.0</ele><time>2026-03-29T10:54:25.002Z</time></trkpt><trkpt lat="37.43361733047593" lon="13.993419636607056"><ele>356.0</ele><time>2026-03-29T10:54:26.002Z</time></trkpt><trkpt lat="37.433520067849194" lon="13.993406759394697"><ele>356.0</ele><time>2026-03-29T10:54:27.002Z</time></trkpt><trkpt lat="37.433424296032435" lon="13.993336718296272"><ele>356.0</ele><time>2026-03-29T10:54:28.002Z</time></trkpt><trkpt lat="37.43333213861138" lon="13.993220982618297"><ele>356.0</ele><time>2026-03-29T10:54:29.002Z</time></trkpt><trkpt lat="37.43323322176705" lon="13.993121080614937"><ele>356.0</ele><time>2026-03-29T10:54:30.002Z</time></trkpt><trkpt lat="37.43311522588893" lon="13.993066110454695"><ele>356.0</ele><time>2026-03-29T10:54:31.002Z</time></trkpt><trkpt lat="37.43298121529651" lon="13.993052298236861"><ele>356.0</ele><time>2026-03-29T10:54:32.003Z</time></trkpt><trkpt lat="37.432841780444534" lon="13.993071799413682"><ele>356.0</ele><time>2026-03-29T10:54:33.003Z</time></trkpt><trkpt lat="37.43271721533869" lon="13.993109235231534"><ele>356.0</ele><time>2026-03-29T10:54:34.003Z</time></trkpt><trkpt lat="37.43261169655359" lon="13.99316796270695"><ele>356.4</ele><time>2026-03-29T10:54:35.003Z</time></trkpt><trkpt lat="37.43252774673532" lon="13.993264976814642"><ele>356.8</ele><time>2026-03-29T10:54:36.003Z</time></trkpt><trkpt lat="37.432490149637935" lon="13.993390273158031"><ele>357.2</ele><time>2026-03-29T10:54:37.003Z</time></trkpt><trkpt lat="37.43251291859063" lon="13.993509955844166"><ele>357.59999999999997</ele><time>2026-03-29T10:54:38.003Z</time></trkpt><trkpt lat="37.432582299642526" lon="13.993594590214723"><ele>358.0</ele><time>2026-03-29T10:54:39Z</time></trkpt><trkpt lat="37.43268764192015" lon="13.993635475605522"><ele>360.0</ele><time>2026-03-29T10:54:40Z</time></trkpt><trkpt lat="37.43280914676134" lon="13.993649035560866"><ele>362.0</ele><time>2026-03-29T10:54:41Z</time></trkpt><trkpt lat="37.43292492386264" lon="13.993697875825967"><ele>364.0</ele><time>2026-03-29T10:54:42Z</time></trkpt><trkpt lat="37.433018402698394" lon="13.993802295988125"><ele>366.0</ele><time>2026-03-29T10:54:43Z</time></trkpt><trkpt lat="37.43309736466632" lon="13.99395032397807"><ele>366.0</ele><time>2026-03-29T10:54:44Z</time></trkpt><trkpt lat="37.43315883199981" lon="13.99413631205529"><ele>366.0</ele><time>2026-03-29T10:54:45Z</time></trkpt><trkpt lat="37.43320892431202" lon="13.994353457501685"><ele>366.0</ele><time>2026-03-29T10:54:46Z</time></trkpt><trkpt lat="37.433271111593534" lon="13.994589611789852"><ele>368.6666666666667</ele><time>2026-03-29T10:54:47Z</time></trkpt><trkpt lat="37.433344198388355" lon="13.99483461566962"><ele>371.33333333333337</ele><time>2026-03-29T10:54:48Z</time></trkpt><trkpt lat="37.433425564385594" lon="13.99509257515619"><ele>374.0</ele><time>2026-03-29T10:54:49Z</time></trkpt><trkpt lat="37.43351154306994" lon="13.995357257207909"><ele>375.6666666666667</ele><time>2026-03-29T10:54:50Z</time></trkpt><trkpt lat="37.43360063976137" lon="13.995612672812783"><ele>377.3333333333333</ele><time>2026-03-29T10:54:51Z</time></trkpt><trkpt lat="37.43368861420437" lon="13.99585901012891"><ele>379.0</ele><time>2026-03-29T10:54:52Z</time></trkpt><trkpt lat="37.433773559566724" lon="13.996091981088156"><ele>380.3333333333333</ele><time>2026-03-29T10:54:53Z</time></trkpt><trkpt lat="37.433852939286794" lon="13.996311070793757"><ele>381.6666666666667</ele><time>2026-03-29T10:54:54Z</time></trkpt><trkpt lat="37.43392305516584" lon="13.996512762590692"><ele>383.0</ele><time>2026-03-29T10:54:55Z</time></trkpt><trkpt lat="37.4339910338042" lon="13.996702882796672"><ele>385.25</ele><time>2026-03-29T10:54:56Z</time></trkpt><trkpt lat="37.43405369800258" lon="13.996876692423012"><ele>387.5</ele><time>2026-03-29T10:54:57Z</time></trkpt><trkpt lat="37.43411014658388" lon="13.997037879638455"><ele>389.75</ele><time>2026-03-29T10:54:58Z</time></trkpt><trkpt lat="37.434164371808116" lon="13.997183325731639"><ele>392.0</ele><time>2026-03-29T10:54:59Z</time></trkpt><trkpt lat="37.434232427424206" lon="13.997310496906147"><ele>392.0</ele><time>2026-03-29T10:55:00Z</time></trkpt><trkpt lat="37.43432153850574" lon="13.997423185792108"><ele>392.0</ele><time>2026-03-29T10:55:01Z</time></trkpt><trkpt lat="37.43442369764746" lon="13.99751056638224"><ele>392.0</ele><time>2026-03-29T10:55:02Z</time></trkpt><trkpt lat="37.434532296712575" lon="13.997563055005816"><ele>392.0</ele><time>2026-03-29T10:55:03Z</time></trkpt><trkpt lat="37.43464872583558" lon="13.997596421102422"><ele>393.20000000000005</ele><time>2026-03-29T10:55:04Z</time></trkpt><trkpt lat="37.434760452117814" lon="13.997620872796524"><ele>394.4</ele><time>2026-03-29T10:55:05Z</time></trkpt><trkpt lat="37.434854985677106" lon="13.997645932537175"><ele>395.6</ele><time>2026-03-29T10:55:06Z</time></trkpt><trkpt lat="37.43494805357334" lon="13.997671547494258"><ele>396.79999999999995</ele><time>2026-03-29T10:55:07Z</time></trkpt><trkpt lat="37.43504257516158" lon="13.997696377175812"><ele>398.0</ele><time>2026-03-29T10:55:08Z</time></trkpt><trkpt lat="37.43513975261187" lon="13.997720034014675"><ele>398.0</ele><time>2026-03-29T10:55:09Z</time></trkpt><trkpt lat="37.435235879013206" lon="13.997753437932525"><ele>398.0</ele><time>2026-03-29T10:55:10Z</time></trkpt><trkpt lat="37.4353283734896" lon="13.997799839210563"><ele>398.0</ele><time>2026-03-29T10:55:11Z</time></trkpt><trkpt lat="37.43541274710895" lon="13.997863517718566"><ele>398.0</ele><time>2026-03-29T10:55:12Z</time></trkpt><trkpt lat="37.435484230969664" lon="13.997952462887156"><ele>398.0</ele><time>2026-03-29T10:55:13Z</time></trkpt><trkpt lat="37.43555348196596" lon="13.998076784250353"><ele>396.3333333333333</ele><time>2026-03-29T10:55:14Z</time></trkpt><trkpt lat="37.43561858440173" lon="13.998239084461321"><ele>394.66666666666663</ele><time>2026-03-29T10:55:15Z</time></trkpt><trkpt lat="37.43568233340011" lon="13.998425770308506"><ele>393.0</ele><time>2026-03-29T10:55:16.001Z</time></trkpt><trkpt lat="37.43572475536294" lon="13.998623024306202"><ele>395.75</ele><time>2026-03-29T10:55:17.001Z</time></trkpt><trkpt lat="37.435754850265184" lon="13.998813013307561"><ele>398.5</ele><time>2026-03-29T10:55:18.001Z</time></trkpt><trkpt lat="37.43580060157503" lon="13.998970553246112"><ele>401.25</ele><time>2026-03-29T10:55:19.001Z</time></trkpt><trkpt lat="37.43587484670673" lon="13.999102332788148"><ele>404.0</ele><time>2026-03-29T10:55:20.001Z</time></trkpt><trkpt lat="37.43598533940246" lon="13.999187634387752"><ele>405.3333333333333</ele><time>2026-03-29T10:55:21.001Z</time></trkpt><trkpt lat="37.43611556603009" lon="13.99920770702323"><ele>406.66666666666663</ele><time>2026-03-29T10:55:22.001Z</time></trkpt><trkpt lat="37.43626238674083" lon="13.999178843741912"><ele>408.0</ele><time>2026-03-29T10:55:23.001Z</time></trkpt><trkpt lat="37.43642465627337" lon="13.999114694855717"><ele>408.0</ele><time>2026-03-29T10:55:24.001Z</time></trkpt><trkpt lat="37.43660328541413" lon="13.999051806040432"><ele>408.0</ele><time>2026-03-29T10:55:25.001Z</time></trkpt><trkpt lat="37.436788481708945" lon="13.999003097193686"><ele>408.0</ele><time>2026-03-29T10:55:26.001Z</time></trkpt><trkpt lat="37.436981563089965" lon="13.998952926801318"><ele>410.33333333333337</ele><time>2026-03-29T10:55:27.001Z</time></trkpt><trkpt lat="37.4371661763436" lon="13.99889640470005"><ele>412.6666666666667</ele><time>2026-03-29T10:55:28.001Z</time></trkpt><trkpt lat="37.43733690302662" lon="13.998841243024652"><ele>415.0</ele><time>2026-03-29T10:55:29.001Z</time></trkpt><trkpt lat="37.437498033861345" lon="13.998799184725558"><ele>415.0</ele><time>2026-03-29T10:55:30.001Z</time></trkpt><trkpt lat="37.43766168116115" lon="13.998785158888852"><ele>415.0</ele><time>2026-03-29T10:55:31.001Z</time></trkpt><trkpt lat="37.437837328824585" lon="13.998816573255954"><ele>415.0</ele><time>2026-03-29T10:55:32.001Z</time></trkpt><trkpt lat="37.438010019232145" lon="13.998878326942352"><ele>414.6666666666667</ele><time>2026-03-29T10:55:33.001Z</time></trkpt><trkpt lat="37.43815838910307" lon="13.998950470993325"><ele>414.33333333333337</ele><time>2026-03-29T10:55:34.001Z</time></trkpt><trkpt lat="37.438291830765856" lon="13.999047891082574"><ele>414.0</ele><time>2026-03-29T10:55:35.001Z</time></trkpt><trkpt lat="37.43840326138383" lon="13.99918321297736"><ele>416.33333333333337</ele><time>2026-03-29T10:55:36.001Z</time></trkpt><trkpt lat="37.43848359119816" lon="13.999351485005473"><ele>418.6666666666667</ele><time>2026-03-29T10:55:37.001Z</time></trkpt><trkpt lat="37.438539388146104" lon="13.999558206007682"><ele>421.0</ele><time>2026-03-29T10:55:38.001Z</time></trkpt><trkpt lat="37.43858282241541" lon="13.999789731665397"><ele>421.0</ele><time>2026-03-29T10:55:39.001Z</time></trkpt><trkpt lat="37.438626170668535" lon="14.000033535414"><ele>421.0</ele><time>2026-03-29T10:55:40.001Z</time></trkpt><trkpt lat="37.43867097376171" lon="14.000271654135132"><ele>421.0</ele><time>2026-03-29T10:55:41.001Z</time></trkpt><trkpt lat="37.43871660419616" lon="14.000508884558192"><ele>421.0</ele><time>2026-03-29T10:55:42.001Z</time></trkpt><trkpt lat="37.43875837657606" lon="14.000726124919387"><ele>421.0</ele><time>2026-03-29T10:55:43.001Z</time></trkpt><trkpt lat="37.43879359739072" lon="14.000933580546633"><ele>421.0</ele><time>2026-03-29T10:55:44.001Z</time></trkpt><trkpt lat="37.43882673573872" lon="14.001126404198116"><ele>420.5</ele><time>2026-03-29T10:55:45.001Z</time></trkpt><trkpt lat="37.43885974655088" lon="14.001296022478119"><ele>420.0</ele><time>2026-03-29T10:55:46.001Z</time></trkpt><trkpt lat="37.43890386240276" lon="14.001437702228332"><ele>419.5</ele><time>2026-03-29T10:55:47.001Z</time></trkpt><trkpt lat="37.438981790131706" lon="14.001546746891743"><ele>419.0</ele><time>2026-03-29T10:55:48.001Z</time></trkpt><trkpt lat="37.4390900583711" lon="14.001613210027054"><ele>419.0</ele><time>2026-03-29T10:55:49.001Z</time></trkpt><trkpt lat="37.43922397720716" lon="14.001614305133126"><ele>419.0</ele><time>2026-03-29T10:55:50.001Z</time></trkpt><trkpt lat="37.43936707677553" lon="14.001561479871464"><ele>419.0</ele><time>2026-03-29T10:55:51.001Z</time></trkpt><trkpt lat="37.43951717633713" lon="14.001478043518361"><ele>419.0</ele><time>2026-03-29T10:55:52.002Z</time></trkpt><trkpt lat="37.439677059837045" lon="14.00140852870123"><ele>421.3333333333333</ele><time>2026-03-29T10:55:53.002Z</time></trkpt><trkpt lat="37.439841805721095" lon="14.00137612261748"><ele>423.66666666666663</ele><time>2026-03-29T10:55:54.002Z</time></trkpt><trkpt lat="37.44000995484317" lon="14.001382124435164"><ele>426.0</ele><time>2026-03-29T10:55:55.002Z</time></trkpt><trkpt lat="37.44016189100619" lon="14.001428906045822"><ele>426.0</ele><time>2026-03-29T10:55:56.002Z</time></trkpt><trkpt lat="37.440313637196994" lon="14.001509699225133"><ele>426.0</ele><time>2026-03-29T10:55:57.002Z</time></trkpt><trkpt lat="37.44046618128609" lon="14.001617422304665"><ele>426.0</ele><time>2026-03-29T10:55:58.002Z</time></trkpt><trkpt lat="37.440597027743024" lon="14.00174684832108"><ele>426.0</ele><time>2026-03-29T10:55:59.002Z</time></trkpt><trkpt lat="37.440712742801104" lon="14.001904965616262"><ele>426.0</ele><time>2026-03-29T10:56:00.002Z</time></trkpt><trkpt lat="37.440818801935166" lon="14.002087400386651"><ele>426.0</ele><time>2026-03-29T10:56:01.002Z</time></trkpt><trkpt lat="37.44091480931556" lon="14.002262629765836"><ele>426.0</ele><time>2026-03-29T10:56:02.002Z</time></trkpt><trkpt lat="37.4410028284327" lon="14.002438482136755"><ele>426.0</ele><time>2026-03-29T10:56:03.002Z</time></trkpt><trkpt lat="37.441069581436096" lon="14.002624896437132"><ele>426.0</ele><time>2026-03-29T10:56:04.002Z</time></trkpt><trkpt lat="37.4411056800756" lon="14.002821972129556"><ele>427.33333333333337</ele><time>2026-03-29T10:56:05.002Z</time></trkpt><trkpt lat="37.44110839166265" lon="14.00303222118919"><ele>428.6666666666667</ele><time>2026-03-29T10:56:06.002Z</time></trkpt><trkpt lat="37.44108627823297" lon="14.00326532402091"><ele>430.0</ele><time>2026-03-29T10:56:07.002Z</time></trkpt><trkpt lat="37.44105333972106" lon="14.003518079186183"><ele>430.33333333333337</ele><time>2026-03-29T10:56:08.002Z</time></trkpt><trkpt lat="37.44103103490202" lon="14.003786021089482"><ele>430.66666666666663</ele><time>2026-03-29T10:56:09.002Z</time></trkpt><trkpt lat="37.44102020294239" lon="14.004062363611737"><ele>431.0</ele><time>2026-03-29T10:56:10.002Z</time></trkpt><trkpt lat="37.44101197851239" lon="14.004341847005243"><ele>431.5</ele><time>2026-03-29T10:56:11.002Z</time></trkpt><trkpt lat="37.44100339234031" lon="14.004629930301924"><ele>432.0</ele><time>2026-03-29T10:56:12.002Z</time></trkpt><trkpt lat="37.44099457464428" lon="14.004926666797935"><ele>433.0</ele><time>2026-03-29T10:56:13.002Z</time></trkpt><trkpt lat="37.44098635276136" lon="14.005227031752508"><ele>434.0</ele><time>2026-03-29T10:56:14.002Z</time></trkpt><trkpt lat="37.44097860363544" lon="14.005524864170612"><ele>434.0</ele><time>2026-03-29T10:56:15.002Z</time></trkpt><trkpt lat="37.44097237877875" lon="14.005815312280834"><ele>434.0</ele><time>2026-03-29T10:56:16.002Z</time></trkpt><trkpt lat="37.44096659279705" lon="14.006090305250195"><ele>434.0</ele><time>2026-03-29T10:56:17.002Z</time></trkpt><trkpt lat="37.44096003285975" lon="14.006347493169894"><ele>435.0</ele><time>2026-03-29T10:56:18.002Z</time></trkpt><trkpt lat="37.4409543965215" lon="14.006600183666958"><ele>436.0</ele><time>2026-03-29T10:56:19.002Z</time></trkpt><trkpt lat="37.44094785494917" lon="14.006848772814605"><ele>437.0</ele><time>2026-03-29T10:56:20.002Z</time></trkpt><trkpt lat="37.44094307809058" lon="14.00709095085211"><ele>438.0</ele><time>2026-03-29T10:56:21.002Z</time></trkpt><trkpt lat="37.44093631079163" lon="14.007323357820388"><ele>439.0</ele><time>2026-03-29T10:56:22.002Z</time></trkpt><trkpt lat="37.440932175775885" lon="14.007529962436623"><ele>440.0</ele><time>2026-03-29T10:56:23.002Z</time></trkpt><trkpt lat="37.44093609103257" lon="14.007712725888016"><ele>441.25</ele><time>2026-03-29T10:56:24.002Z</time></trkpt><trkpt lat="37.44095860892523" lon="14.007886814327515"><ele>442.5</ele><time>2026-03-29T10:56:25.002Z</time></trkpt><trkpt lat="37.44100927319446" lon="14.008057318243017"><ele>443.75</ele><time>2026-03-29T10:56:26.002Z</time></trkpt><trkpt lat="37.44109630231911" lon="14.008208460225703"><ele>445.0</ele><time>2026-03-29T10:56:27.002Z</time></trkpt><trkpt lat="37.44121972986458" lon="14.00833249509535"><ele>446.6666666666667</ele><time>2026-03-29T10:56:28.003Z</time></trkpt><trkpt lat="37.44136711744031" lon="14.00843052329226"><ele>448.33333333333337</ele><time>2026-03-29T10:56:29.003Z</time></trkpt><trkpt lat="37.441514737626726" lon="14.008515144598334"><ele>450.0</ele><time>2026-03-29T10:56:30.003Z</time></trkpt><trkpt lat="37.4416598493428" lon="14.008561825481337"><ele>450.0</ele><time>2026-03-29T10:56:31.003Z</time></trkpt><trkpt lat="37.44180827950802" lon="14.008555149097687"><ele>450.0</ele><time>2026-03-29T10:56:32.003Z</time></trkpt><trkpt lat="37.4419587644267" lon="14.008562181716592"><ele>450.0</ele><time>2026-03-29T10:56:33.003Z</time></trkpt><trkpt lat="37.442114804246245" lon="14.00860877850073"><ele>449.66666666666663</ele><time>2026-03-29T10:56:34.003Z</time></trkpt><trkpt lat="37.442272326407775" lon="14.008691654118326"><ele>449.3333333333333</ele><time>2026-03-29T10:56:35.003Z</time></trkpt><trkpt lat="37.44244175854714" lon="14.008802949965453"><ele>449.0</ele><time>2026-03-29T10:56:36.003Z</time></trkpt><trkpt lat="37.44261780953308" lon="14.008926636777119"><ele>449.0</ele><time>2026-03-29T10:56:37.003Z</time></trkpt><trkpt lat="37.442794835875304" lon="14.009060132976947"><ele>449.0</ele><time>2026-03-29T10:56:38.003Z</time></trkpt><trkpt lat="37.44297228972892" lon="14.009207125167267"><ele>449.0</ele><time>2026-03-29T10:56:39.003Z</time></trkpt><trkpt lat="37.443152463013476" lon="14.009364327668225"><ele>447.3333333333333</ele><time>2026-03-29T10:56:40.003Z</time></trkpt><trkpt lat="37.44333094449083" lon="14.009526913914748"><ele>445.66666666666663</ele><time>2026-03-29T10:56:41.003Z</time></trkpt><trkpt lat="37.44350301765468" lon="14.009692879637607"><ele>444.0</ele><time>2026-03-29T10:56:42.003Z</time></trkpt><trkpt lat="37.44366876597292" lon="14.009855000003826"><ele>446.33333333333337</ele><time>2026-03-29T10:56:43.003Z</time></trkpt><trkpt lat="37.44382704718836" lon="14.010010376355595"><ele>448.6666666666667</ele><time>2026-03-29T10:56:44.003Z</time></trkpt><trkpt lat="37.44398172786848" lon="14.010159860072184"><ele>451.0</ele><time>2026-03-29T10:56:45.001Z</time></trkpt><trkpt lat="37.44413111723003" lon="14.010303508502089"><ele>451.0</ele><time>2026-03-29T10:56:46.001Z</time></trkpt><trkpt lat="37.44427085430303" lon="14.01043471924674"><ele>451.0</ele><time>2026-03-29T10:56:47.001Z</time></trkpt><trkpt lat="37.44441199658231" lon="14.010566846011853"><ele>451.0</ele><time>2026-03-29T10:56:48.001Z</time></trkpt><trkpt lat="37.44454994902796" lon="14.010699065993295"><ele>451.33333333333337</ele><time>2026-03-29T10:56:49.001Z</time></trkpt><trkpt lat="37.444687048164944" lon="14.010824386368965"><ele>451.66666666666663</ele><time>2026-03-29T10:56:50.001Z</time></trkpt><trkpt lat="37.444819392177465" lon="14.010928589909579"><ele>452.0</ele><time>2026-03-29T10:56:51.001Z</time></trkpt><trkpt lat="37.44496236694976" lon="14.011011437254663"><ele>452.0</ele><time>2026-03-29T10:56:52.001Z</time></trkpt><trkpt lat="37.445112791817856" lon="14.011074758039577"><ele>452.0</ele><time>2026-03-29T10:56:53.001Z</time></trkpt><trkpt lat="37.44526561463885" lon="14.011110480693874"><ele>452.0</ele><time>2026-03-29T10:56:54.001Z</time></trkpt><trkpt lat="37.44542980445233" lon="14.011121086560767"><ele>452.3333333333333</ele><time>2026-03-29T10:56:55.001Z</time></trkpt><trkpt lat="37.44560314736426" lon="14.011111770678736"><ele>452.66666666666663</ele><time>2026-03-29T10:56:56.001Z</time></trkpt><trkpt lat="37.44578210014886" lon="14.01109037393692"><ele>453.0</ele><time>2026-03-29T10:56:57.001Z</time></trkpt><trkpt lat="37.44596061640304" lon="14.011071713844775"><ele>453.0</ele><time>2026-03-29T10:56:58.001Z</time></trkpt><trkpt lat="37.44612686289225" lon="14.011064495602701"><ele>453.0</ele><time>2026-03-29T10:56:59.001Z</time></trkpt><trkpt lat="37.44627781600546" lon="14.011076876350756"><ele>453.0</ele><time>2026-03-29T10:57:00.001Z</time></trkpt><trkpt lat="37.446413352014574" lon="14.011123110551452"><ele>455.0</ele><time>2026-03-29T10:57:01.001Z</time></trkpt><trkpt lat="37.44654731465582" lon="14.011217576772538"><ele>457.0</ele><time>2026-03-29T10:57:02.001Z</time></trkpt><trkpt lat="37.44667641562678" lon="14.011347619929415"><ele>459.0</ele><time>2026-03-29T10:57:03.001Z</time></trkpt><trkpt lat="37.44679751664092" lon="14.011474578324254"><ele>459.0</ele><time>2026-03-29T10:57:04.001Z</time></trkpt><trkpt lat="37.4469185148418" lon="14.011577219727224"><ele>459.0</ele><time>2026-03-29T10:57:05.001Z</time></trkpt><trkpt lat="37.447055461966755" lon="14.011654051517544"><ele>459.0</ele><time>2026-03-29T10:57:06.001Z</time></trkpt><trkpt lat="37.447195743575485" lon="14.011685432602238"><ele>459.0</ele><time>2026-03-29T10:57:07.001Z</time></trkpt><trkpt lat="37.44734854067227" lon="14.011678795185764"><ele>461.33333333333337</ele><time>2026-03-29T10:57:08.001Z</time></trkpt><trkpt lat="37.44752170125716" lon="14.011644550412175"><ele>463.6666666666667</ele><time>2026-03-29T10:57:09.001Z</time></trkpt><trkpt lat="37.44770546566095" lon="14.011605924568366"><ele>466.0</ele><time>2026-03-29T10:57:10.001Z</time></trkpt><trkpt lat="37.44789669480695" lon="14.011568835951993"><ele>465.33333333333337</ele><time>2026-03-29T10:57:11.001Z</time></trkpt><trkpt lat="37.448086757729335" lon="14.011534400859475"><ele>464.66666666666663</ele><time>2026-03-29T10:57:12.001Z</time></trkpt><trkpt lat="37.44826387288868" lon="14.011505141198716"><ele>464.0</ele><time>2026-03-29T10:57:13.001Z</time></trkpt><trkpt lat="37.44842532634741" lon="14.01147692088269"><ele>464.0</ele><time>2026-03-29T10:57:14.001Z</time></trkpt><trkpt lat="37.44856974763227" lon="14.011452939287514"><ele>464.0</ele><time>2026-03-29T10:57:15.001Z</time></trkpt><trkpt lat="37.4486975687575" lon="14.011429586141507"><ele>464.0</ele><time>2026-03-29T10:57:16.001Z</time></trkpt><trkpt lat="37.44880807568129" lon="14.011420025308523"><ele>464.0</ele><time>2026-03-29T10:57:17.001Z</time></trkpt><trkpt lat="37.44891446853982" lon="14.011434471834988"><ele>463.25</ele><time>2026-03-29T10:57:18.001Z</time></trkpt><trkpt lat="37.44902215598458" lon="14.011492094388025"><ele>462.5</ele><time>2026-03-29T10:57:19.001Z</time></trkpt><trkpt lat="37.44911665242358" lon="14.011588867223994"><ele>461.75</ele><time>2026-03-29T10:57:20.001Z</time></trkpt><trkpt lat="37.44919161358101" lon="14.011721501450202"><ele>461.0</ele><time>2026-03-29T10:57:21.001Z</time></trkpt><trkpt lat="37.44923347790309" lon="14.011878269471218"><ele>460.25</ele><time>2026-03-29T10:57:22.001Z</time></trkpt><trkpt lat="37.449225093790616" lon="14.012052255343656"><ele>459.5</ele><time>2026-03-29T10:57:23.001Z</time></trkpt><trkpt lat="37.449184360017526" lon="14.012222508782026"><ele>458.75</ele><time>2026-03-29T10:57:24.001Z</time></trkpt><trkpt lat="37.449117548795826" lon="14.01239775418573"><ele>458.0</ele><time>2026-03-29T10:57:25.001Z</time></trkpt><trkpt lat="37.44904450010174" lon="14.012585110952264"><ele>458.0</ele><time>2026-03-29T10:57:26.001Z</time></trkpt><trkpt lat="37.448968671657276" lon="14.012783578368463"><ele>458.0</ele><time>2026-03-29T10:57:27.001Z</time></trkpt><trkpt lat="37.448892285001364" lon="14.012985496197956"><ele>458.0</ele><time>2026-03-29T10:57:28.001Z</time></trkpt><trkpt lat="37.44881527349633" lon="14.013184325156853"><ele>456.3333333333333</ele><time>2026-03-29T10:57:29.001Z</time></trkpt><trkpt lat="37.44873908792361" lon="14.013382037389757"><ele>454.66666666666663</ele><time>2026-03-29T10:57:30.001Z</time></trkpt><trkpt lat="37.44866693054087" lon="14.013579208232224"><ele>453.0</ele><time>2026-03-29T10:57:31.001Z</time></trkpt><trkpt lat="37.44860694875653" lon="14.013775300322921"><ele>453.0</ele><time>2026-03-29T10:57:32.001Z</time></trkpt><trkpt lat="37.44857139401482" lon="14.013971768453196"><ele>453.0</ele><time>2026-03-29T10:57:33.001Z</time></trkpt><trkpt lat="37.44856375971627" lon="14.014169115218742"><ele>453.0</ele><time>2026-03-29T10:57:34.001Z</time></trkpt><trkpt lat="37.44859104802647" lon="14.014366674879954"><ele>456.0</ele><time>2026-03-29T10:57:35.001Z</time></trkpt><trkpt lat="37.44864925232454" lon="14.01456240086251"><ele>459.0</ele><time>2026-03-29T10:57:36.001Z</time></trkpt><trkpt lat="37.44873625909561" lon="14.014755598805621"><ele>462.0</ele><time>2026-03-29T10:57:37.001Z</time></trkpt><trkpt lat="37.44883778249577" lon="14.01496107057327"><ele>464.0</ele><time>2026-03-29T10:57:38.002Z</time></trkpt><trkpt lat="37.44893948282235" lon="14.01517851174172"><ele>466.0</ele><time>2026-03-29T10:57:39.001Z</time></trkpt><trkpt lat="37.44902892723437" lon="14.015408353805885"><ele>468.0</ele><time>2026-03-29T10:57:40.001Z</time></trkpt><trkpt lat="37.44910280902874" lon="14.015646512521437"><ele>467.66666666666663</ele><time>2026-03-29T10:57:41.002Z</time></trkpt><trkpt lat="37.449161383230425" lon="14.015890736972262"><ele>467.3333333333333</ele><time>2026-03-29T10:57:42.002Z</time></trkpt><trkpt lat="37.44921937984591" lon="14.01612821406501"><ele>467.0</ele><time>2026-03-29T10:57:43.002Z</time></trkpt><trkpt lat="37.44929635100231" lon="14.01636201535287"><ele>467.0</ele><time>2026-03-29T10:57:44.002Z</time></trkpt><trkpt lat="37.44939167360148" lon="14.01659679005745"><ele>467.0</ele><time>2026-03-29T10:57:45.002Z</time></trkpt><trkpt lat="37.449500490839085" lon="14.016831580948272"><ele>467.0</ele><time>2026-03-29T10:57:46.002Z</time></trkpt><trkpt lat="37.44960522717807" lon="14.017061823595919"><ele>466.66666666666663</ele><time>2026-03-29T10:57:47.002Z</time></trkpt><trkpt lat="37.44970357942042" lon="14.017290772674867"><ele>466.33333333333337</ele><time>2026-03-29T10:57:48.002Z</time></trkpt><trkpt lat="37.44980353001625" lon="14.01751806943552"><ele>466.0</ele><time>2026-03-29T10:57:49.002Z</time></trkpt><trkpt lat="37.449902972363226" lon="14.017741861959653"><ele>463.6666666666667</ele><time>2026-03-29T10:57:50.002Z</time></trkpt><trkpt lat="37.450002854894585" lon="14.017962998037474"><ele>461.33333333333337</ele><time>2026-03-29T10:57:51.002Z</time></trkpt><trkpt lat="37.45010432179478" lon="14.018176753440711"><ele>459.0</ele><time>2026-03-29T10:57:52.002Z</time></trkpt><trkpt lat="37.4502087795884" lon="14.018384107117257"><ele>458.33333333333337</ele><time>2026-03-29T10:57:53.002Z</time></trkpt><trkpt lat="37.45031508526438" lon="14.018588047503544"><ele>457.6666666666667</ele><time>2026-03-29T10:57:54.002Z</time></trkpt><trkpt lat="37.45041459952723" lon="14.018784680350802"><ele>457.0</ele><time>2026-03-29T10:57:55.002Z</time></trkpt><trkpt lat="37.45051006144601" lon="14.018972140656802"><ele>457.0</ele><time>2026-03-29T10:57:56.002Z</time></trkpt><trkpt lat="37.45060479448375" lon="14.019148992369313"><ele>457.0</ele><time>2026-03-29T10:57:57.002Z</time></trkpt><trkpt lat="37.45070838903499" lon="14.01931294391336"><ele>457.0</ele><time>2026-03-29T10:57:58.002Z</time></trkpt><trkpt lat="37.45083289880403" lon="14.019465226265623"><ele>455.33333333333337</ele><time>2026-03-29T10:57:59.002Z</time></trkpt><trkpt lat="37.45097481869685" lon="14.01960250087879"><ele>453.66666666666663</ele><time>2026-03-29T10:58:00.002Z</time></trkpt><trkpt lat="37.45112254711086" lon="14.019734234154203"><ele>452.0</ele><time>2026-03-29T10:58:01.002Z</time></trkpt><trkpt lat="37.45126853718856" lon="14.019864680639047"><ele>449.66666666666663</ele><time>2026-03-29T10:58:02.002Z</time></trkpt><trkpt lat="37.4514079373509" lon="14.019992294851368"><ele>447.33333333333337</ele><time>2026-03-29T10:58:03.002Z</time></trkpt><trkpt lat="37.451544428763206" lon="14.020118257048628"><ele>445.0</ele><time>2026-03-29T10:58:04.002Z</time></trkpt><trkpt lat="37.45168086189284" lon="14.020246361884197"><ele>445.0</ele><time>2026-03-29T10:58:05.002Z</time></trkpt><trkpt lat="37.45181716809091" lon="14.02037828824835"><ele>445.0</ele><time>2026-03-29T10:58:06.002Z</time></trkpt><trkpt lat="37.45194524908778" lon="14.020509580424902"><ele>445.0</ele><time>2026-03-29T10:58:07.002Z</time></trkpt><trkpt lat="37.45205989691058" lon="14.0206480714727"><ele>445.0</ele><time>2026-03-29T10:58:08.002Z</time></trkpt><trkpt lat="37.452164970052436" lon="14.02080777635645"><ele>445.0</ele><time>2026-03-29T10:58:09.002Z</time></trkpt><trkpt lat="37.452260226026404" lon="14.020985342947442"><ele>445.0</ele><time>2026-03-29T10:58:10.002Z</time></trkpt><trkpt lat="37.45235000475538" lon="14.021165509854248"><ele>443.0</ele><time>2026-03-29T10:58:11.002Z</time></trkpt><trkpt lat="37.45243284619629" lon="14.021341395757862"><ele>441.0</ele><time>2026-03-29T10:58:12.002Z</time></trkpt><trkpt lat="37.45250996821895" lon="14.021508557901521"><ele>439.0</ele><time>2026-03-29T10:58:13.002Z</time></trkpt><trkpt lat="37.45257747470856" lon="14.021649369182928"><ele>437.0</ele><time>2026-03-29T10:58:14.002Z</time></trkpt><trkpt lat="37.452640064259626" lon="14.021776261602898"><ele>435.8</ele><time>2026-03-29T10:58:15.002Z</time></trkpt><trkpt lat="37.452709579987186" lon="14.02188308650546"><ele>434.6</ele><time>2026-03-29T10:58:16.002Z</time></trkpt><trkpt lat="37.45279884727425" lon="14.021952792062866"><ele>433.40000000000003</ele><time>2026-03-29T10:58:17.002Z</time></trkpt><trkpt lat="37.452903412051676" lon="14.021979633654928"><ele>432.20000000000005</ele><time>2026-03-29T10:58:18.003Z</time></trkpt><trkpt lat="37.453016922374985" lon="14.021957384190426"><ele>431.0</ele><time>2026-03-29T10:58:19.003Z</time></trkpt><trkpt lat="37.45312385256265" lon="14.021883339080087"><ele>431.0</ele><time>2026-03-29T10:58:20.003Z</time></trkpt><trkpt lat="37.45321986661641" lon="14.021774522021547"><ele>431.0</ele><time>2026-03-29T10:58:21.003Z</time></trkpt><trkpt lat="37.45330481596932" lon="14.021665675624781"><ele>431.0</ele><time>2026-03-29T10:58:22.003Z</time></trkpt><trkpt lat="37.453381978656225" lon="14.021578717156167"><ele>431.0</ele><time>2026-03-29T10:58:23.003Z</time></trkpt><trkpt lat="37.45345316454462" lon="14.021519724166119"><ele>431.0</ele><time>2026-03-29T10:58:24.003Z</time></trkpt><trkpt lat="37.4535163732289" lon="14.021478042052616"><ele>431.0</ele><time>2026-03-29T10:58:25.003Z</time></trkpt><trkpt lat="37.4535911827395" lon="14.02144921359355"><ele>431.0</ele><time>2026-03-29T10:58:26.003Z</time></trkpt><trkpt lat="37.45368509249597" lon="14.02145062248631"><ele>431.0</ele><time>2026-03-29T10:58:27.003Z</time></trkpt><trkpt lat="37.453771212225405" lon="14.021479616709414"><ele>431.0</ele><time>2026-03-29T10:58:28.003Z</time></trkpt><trkpt lat="37.453853908522724" lon="14.02152685537098"><ele>431.0</ele><time>2026-03-29T10:58:29.003Z</time></trkpt><trkpt lat="37.453943170204376" lon="14.021584536699388"><ele>430.0</ele><time>2026-03-29T10:58:30.003Z</time></trkpt><trkpt lat="37.45403990474482" lon="14.021649241528303"><ele>429.0</ele><time>2026-03-29T10:58:31.003Z</time></trkpt><trkpt lat="37.454136173841015" lon="14.021717128635084"><ele>428.0</ele><time>2026-03-29T10:58:32.003Z</time></trkpt><trkpt lat="37.454230438778666" lon="14.021786917483768"><ele>427.0</ele><time>2026-03-29T10:58:33.003Z</time></trkpt><trkpt lat="37.45432500945554" lon="14.021870134798856"><ele>426.0</ele><time>2026-03-29T10:58:34.003Z</time></trkpt><trkpt lat="37.4544074089846" lon="14.021973658921462"><ele>426.0</ele><time>2026-03-29T10:58:35.003Z</time></trkpt><trkpt lat="37.454474339374414" lon="14.02209033610499"><ele>426.0</ele><time>2026-03-29T10:58:36.003Z</time></trkpt><trkpt lat="37.45453074479552" lon="14.022209013979952"><ele>426.0</ele><time>2026-03-29T10:58:37.003Z</time></trkpt><trkpt lat="37.454577605361266" lon="14.022321628128177"><ele>426.0</ele><time>2026-03-29T10:58:38.003Z</time></trkpt><trkpt lat="37.45461327087923" lon="14.022444557886866"><ele>426.0</ele><time>2026-03-29T10:58:39.003Z</time></trkpt><trkpt lat="37.45463996028024" lon="14.022574829006421"><ele>425.8</ele><time>2026-03-29T10:58:40.003Z</time></trkpt><trkpt lat="37.45465343657468" lon="14.02271020705587"><ele>425.6</ele><time>2026-03-29T10:58:41.003Z</time></trkpt><trkpt lat="37.4546469544372" lon="14.022847168797766"><ele>425.4</ele><time>2026-03-29T10:58:42.003Z</time></trkpt><trkpt lat="37.454607696627065" lon="14.022973062723644"><ele>425.2</ele><time>2026-03-29T10:58:43.003Z</time></trkpt><trkpt lat="37.45453987642396" lon="14.02308512424519"><ele>425.0</ele><time>2026-03-29T10:58:44.003Z</time></trkpt><trkpt lat="37.45445834876679" lon="14.023194289634814"><ele>425.0</ele><time>2026-03-29T10:58:45.003Z</time></trkpt><trkpt lat="37.454373964838126" lon="14.02330545338728"><ele>425.0</ele><time>2026-03-29T10:58:46.003Z</time></trkpt><trkpt lat="37.45427515166176" lon="14.02344143337046"><ele>425.0</ele><time>2026-03-29T10:58:47.003Z</time></trkpt><trkpt lat="37.45415420771979" lon="14.023592697778707"><ele>425.0</ele><time>2026-03-29T10:58:48.003Z</time></trkpt><trkpt lat="37.45402057603584" lon="14.023746890526"><ele>425.66666666666663</ele><time>2026-03-29T10:58:49.003Z</time></trkpt><trkpt lat="37.45389759525886" lon="14.023902806767877"><ele>426.33333333333337</ele><time>2026-03-29T10:58:50.003Z</time></trkpt><trkpt lat="37.453800765879635" lon="14.024064686238878"><ele>427.0</ele><time>2026-03-29T10:58:51.001Z</time></trkpt><trkpt lat="37.45372440595684" lon="14.02421674392016"><ele>427.0</ele><time>2026-03-29T10:58:52.001Z</time></trkpt><trkpt lat="37.45365685660677" lon="14.024369968087377"><ele>427.0</ele><time>2026-03-29T10:58:53.001Z</time></trkpt><trkpt lat="37.453613129709986" lon="14.02453115508732"><ele>427.0</ele><time>2026-03-29T10:58:54.001Z</time></trkpt><trkpt lat="37.45361460356286" lon="14.0247198141093"><ele>427.0</ele><time>2026-03-29T10:58:55.001Z</time></trkpt><trkpt lat="37.45364284903116" lon="14.024922312392771"><ele>429.33333333333337</ele><time>2026-03-29T10:58:56.001Z</time></trkpt><trkpt lat="37.45368545946602" lon="14.025133457563534"><ele>431.66666666666663</ele><time>2026-03-29T10:58:57.001Z</time></trkpt><trkpt lat="37.453729547273426" lon="14.025348333899858"><ele>434.0</ele><time>2026-03-29T10:58:58.001Z</time></trkpt><trkpt lat="37.4537709688933" lon="14.025547779201668"><ele>439.5</ele><time>2026-03-29T10:58:59.001Z</time></trkpt><trkpt lat="37.45382132952449" lon="14.02571367803139"><ele>445.0</ele><time>2026-03-29T10:59:00.001Z</time></trkpt><trkpt lat="37.453907704003484" lon="14.02586237487593"><ele>450.5</ele><time>2026-03-29T10:59:01.001Z</time></trkpt><trkpt lat="37.45402768126662" lon="14.025993955812803"><ele>456.0</ele><time>2026-03-29T10:59:02.001Z</time></trkpt><trkpt lat="37.45416722617455" lon="14.026130058428896"><ele>456.0</ele><time>2026-03-29T10:59:03.001Z</time></trkpt><trkpt lat="37.45429856427652" lon="14.026279506513637"><ele>456.0</ele><time>2026-03-29T10:59:04.001Z</time></trkpt><trkpt lat="37.45441596186002" lon="14.026437130772777"><ele>456.0</ele><time>2026-03-29T10:59:05.001Z</time></trkpt><trkpt lat="37.45453853650997" lon="14.026612291713256"><ele>458.33333333333337</ele><time>2026-03-29T10:59:06.001Z</time></trkpt><trkpt lat="37.45465588138933" lon="14.026793443113737"><ele>460.6666666666667</ele><time>2026-03-29T10:59:07.001Z</time></trkpt><trkpt lat="37.45477200431805" lon="14.026971477242919"><ele>463.0</ele><time>2026-03-29T10:59:08.001Z</time></trkpt><trkpt lat="37.454887376675366" lon="14.027147617946712"><ele>463.0</ele><time>2026-03-29T10:59:09.001Z</time></trkpt><trkpt lat="37.455000545968616" lon="14.027319605764559"><ele>463.0</ele><time>2026-03-29T10:59:10.001Z</time></trkpt><trkpt lat="37.45510053456824" lon="14.027483806337163"><ele>463.0</ele><time>2026-03-29T10:59:11.001Z</time></trkpt><trkpt lat="37.45518823154466" lon="14.027648434046565"><ele>462.0</ele><time>2026-03-29T10:59:12.001Z</time></trkpt><trkpt lat="37.455266938169466" lon="14.027829863937745"><ele>461.0</ele><time>2026-03-29T10:59:13.001Z</time></trkpt><trkpt lat="37.45534838895864" lon="14.028029776424994"><ele>460.0</ele><time>2026-03-29T10:59:14.001Z</time></trkpt><trkpt lat="37.45543109774781" lon="14.028239890427981"><ele>463.33333333333337</ele><time>2026-03-29T10:59:15.001Z</time></trkpt><trkpt lat="37.45551300037862" lon="14.02844577974184"><ele>466.66666666666663</ele><time>2026-03-29T10:59:16.001Z</time></trkpt><trkpt lat="37.45559149807468" lon="14.028651955011565"><ele>470.0</ele><time>2026-03-29T10:59:17.001Z</time></trkpt><trkpt lat="37.45565956207167" lon="14.028845768342213"><ele>470.0</ele><time>2026-03-29T10:59:18.001Z</time></trkpt><trkpt lat="37.45571273455408" lon="14.029034303900339"><ele>470.0</ele><time>2026-03-29T10:59:19.001Z</time></trkpt><trkpt lat="37.455749542422375" lon="14.029215632829251"><ele>470.0</ele><time>2026-03-29T10:59:20.001Z</time></trkpt><trkpt lat="37.45578722896679" lon="14.029392567211271"><ele>470.0</ele><time>2026-03-29T10:59:21.001Z</time></trkpt><trkpt lat="37.45584162302019" lon="14.029562959708276"><ele>470.0</ele><time>2026-03-29T10:59:22.001Z</time></trkpt><trkpt lat="37.45592024191256" lon="14.029725064765532"><ele>470.0</ele><time>2026-03-29T10:59:23.001Z</time></trkpt><trkpt lat="37.45602289172814" lon="14.029877407759624"><ele>471.0</ele><time>2026-03-29T10:59:24.001Z</time></trkpt><trkpt lat="37.4561477396992" lon="14.030029053133074"><ele>472.0</ele><time>2026-03-29T10:59:25.001Z</time></trkpt><trkpt lat="37.45627924276127" lon="14.03017571252327"><ele>473.0</ele><time>2026-03-29T10:59:26.001Z</time></trkpt><trkpt lat="37.456398527322804" lon="14.030306083109691"><ele>473.0</ele><time>2026-03-29T10:59:27.001Z</time></trkpt><trkpt lat="37.456503682828014" lon="14.030435067489368"><ele>473.0</ele><time>2026-03-29T10:59:28.001Z</time></trkpt><trkpt lat="37.45659531796735" lon="14.030570142521519"><ele>473.0</ele><time>2026-03-29T10:59:29.001Z</time></trkpt><trkpt lat="37.45667430153548" lon="14.030703890500149"><ele>473.0</ele><time>2026-03-29T10:59:30.001Z</time></trkpt><trkpt lat="37.456743796371235" lon="14.030829538107039"><ele>471.2</ele><time>2026-03-29T10:59:31.001Z</time></trkpt><trkpt lat="37.456802392529504" lon="14.030939435161272"><ele>469.4</ele><time>2026-03-29T10:59:32.001Z</time></trkpt><trkpt lat="37.45685498087217" lon="14.031035503575394"><ele>467.59999999999997</ele><time>2026-03-29T10:59:33.001Z</time></trkpt><trkpt lat="37.45691954986393" lon="14.03113946372888"><ele>465.79999999999995</ele><time>2026-03-29T10:59:34.001Z</time></trkpt><trkpt lat="37.45701213244052" lon="14.03126669243614"><ele>464.0</ele><time>2026-03-29T10:59:35.001Z</time></trkpt><trkpt lat="37.45711897959473" lon="14.031410498732994"><ele>467.3333333333333</ele><time>2026-03-29T10:59:36.001Z</time></trkpt><trkpt lat="37.45726321541398" lon="14.03152848322192"><ele>470.66666666666663</ele><time>2026-03-29T10:59:37.001Z</time></trkpt><trkpt lat="37.45742207564554" lon="14.031621242695806"><ele>474.0</ele><time>2026-03-29T10:59:38.001Z</time></trkpt><trkpt lat="37.45758312303367" lon="14.031706578901748"><ele>474.0</ele><time>2026-03-29T10:59:39.001Z</time></trkpt><trkpt lat="37.4577314971636" lon="14.031790533977828"><ele>474.0</ele><time>2026-03-29T10:59:40.001Z</time></trkpt><trkpt lat="37.457868090334664" lon="14.03187273312906"><ele>474.0</ele><time>2026-03-29T10:59:41.001Z</time></trkpt><trkpt lat="37.457996401059624" lon="14.031957940075955"><ele>476.5</ele><time>2026-03-29T10:59:42.001Z</time></trkpt><trkpt lat="37.45812147191664" lon="14.032027744886816"><ele>479.0</ele><time>2026-03-29T10:59:43.001Z</time></trkpt><trkpt lat="37.458250844738146" lon="14.032071142345597"><ele>481.5</ele><time>2026-03-29T10:59:44.001Z</time></trkpt><trkpt lat="37.458379670004554" lon="14.032088082148734"><ele>484.0</ele><time>2026-03-29T10:59:45.001Z</time></trkpt><trkpt lat="37.45851141616535" lon="14.032084448984286"><ele>484.0</ele><time>2026-03-29T10:59:46.001Z</time></trkpt><trkpt lat="37.45864294109577" lon="14.032081651154137"><ele>484.0</ele><time>2026-03-29T10:59:47.001Z</time></trkpt><trkpt lat="37.458772162458885" lon="14.032105480033797"><ele>484.0</ele><time>2026-03-29T10:59:48.002Z</time></trkpt><trkpt lat="37.45889992783831" lon="14.032145880246318"><ele>484.0</ele><time>2026-03-29T10:59:49.002Z</time></trkpt><trkpt lat="37.45902552513801" lon="14.032196457557255"><ele>485.25</ele><time>2026-03-29T10:59:50.002Z</time></trkpt><trkpt lat="37.459150283330175" lon="14.032255838923367"><ele>486.5</ele><time>2026-03-29T10:59:51.002Z</time></trkpt><trkpt lat="37.45927504667707" lon="14.032318766364359"><ele>487.75</ele><time>2026-03-29T10:59:52.002Z</time></trkpt><trkpt lat="37.45940030328626" lon="14.03238692991872"><ele>489.0</ele><time>2026-03-29T10:59:53.002Z</time></trkpt><trkpt lat="37.459520086537275" lon="14.032469620616036"><ele>488.25</ele><time>2026-03-29T10:59:54.002Z</time></trkpt><trkpt lat="37.45963854272907" lon="14.032555058570376"><ele>487.5</ele><time>2026-03-29T10:59:55.002Z</time></trkpt><trkpt lat="37.459755910857034" lon="14.032642687443097"><ele>486.75</ele><time>2026-03-29T10:59:56.002Z</time></trkpt><trkpt lat="37.45987337746107" lon="14.032731194326637"><ele>486.0</ele><time>2026-03-29T10:59:57.002Z</time></trkpt><trkpt lat="37.45999250964926" lon="14.032817551580637"><ele>486.0</ele><time>2026-03-29T10:59:58.002Z</time></trkpt><trkpt lat="37.46011550206809" lon="14.032901207573204"><ele>486.0</ele><time>2026-03-29T10:59:59.002Z</time></trkpt><trkpt lat="37.460242557148995" lon="14.03298430756567"><ele>486.0</ele><time>2026-03-29T11:00:00.002Z</time></trkpt><trkpt lat="37.460376659828796" lon="14.033060678499291"><ele>486.0</ele><time>2026-03-29T11:00:01.002Z</time></trkpt><trkpt lat="37.46052464463913" lon="14.033134651245323"><ele>486.0</ele><time>2026-03-29T11:00:02.002Z</time></trkpt><trkpt lat="37.46068396649079" lon="14.033213506480912"><ele>486.0</ele><time>2026-03-29T11:00:03.002Z</time></trkpt><trkpt lat="37.46084894025158" lon="14.033296994228326"><ele>486.0</ele><time>2026-03-29T11:00:04.002Z</time></trkpt><trkpt lat="37.46101853207129" lon="14.033386260895679"><ele>485.0</ele><time>2026-03-29T11:00:05.002Z</time></trkpt><trkpt lat="37.461191377777965" lon="14.033475611236515"><ele>484.0</ele><time>2026-03-29T11:00:06.002Z</time></trkpt><trkpt lat="37.4613643335334" lon="14.03356326667879"><ele>483.0</ele><time>2026-03-29T11:00:07.002Z</time></trkpt><trkpt lat="37.46153660101902" lon="14.033648481154446"><ele>483.0</ele><time>2026-03-29T11:00:08.002Z</time></trkpt><trkpt lat="37.46170180294274" lon="14.033733322753296"><ele>483.0</ele><time>2026-03-29T11:00:09.002Z</time></trkpt><trkpt lat="37.46185914011656" lon="14.033815319976433"><ele>483.0</ele><time>2026-03-29T11:00:10.002Z</time></trkpt><trkpt lat="37.46200561472448" lon="14.033890648266157"><ele>483.0</ele><time>2026-03-29T11:00:11.002Z</time></trkpt><trkpt lat="37.46214297061916" lon="14.03395939506028"><ele>483.0</ele><time>2026-03-29T11:00:12.002Z</time></trkpt><trkpt lat="37.462275634290265" lon="14.03401336770975"><ele>483.0</ele><time>2026-03-29T11:00:13.002Z</time></trkpt><trkpt lat="37.46240343306026" lon="14.03406016183422"><ele>483.0</ele><time>2026-03-29T11:00:14.002Z</time></trkpt><trkpt lat="37.462522718143695" lon="14.034101302432797"><ele>483.5</ele><time>2026-03-29T11:00:15.002Z</time></trkpt><trkpt lat="37.46264072364854" lon="14.034143145747166"><ele>484.0</ele><time>2026-03-29T11:00:16.002Z</time></trkpt><trkpt lat="37.4627631478778" lon="14.034185430984804"><ele>484.5</ele><time>2026-03-29T11:00:17.002Z</time></trkpt><trkpt lat="37.46288200635468" lon="14.034227557978872"><ele>485.0</ele><time>2026-03-29T11:00:18.002Z</time></trkpt><trkpt lat="37.46299958788431" lon="14.03427073593547"><ele>484.0</ele><time>2026-03-29T11:00:19.002Z</time></trkpt><trkpt lat="37.46311734881254" lon="14.03431583603602"><ele>483.0</ele><time>2026-03-29T11:00:20.002Z</time></trkpt><trkpt lat="37.46322832317563" lon="14.034368201015631"><ele>482.0</ele><time>2026-03-29T11:00:21.002Z</time></trkpt><trkpt lat="37.463337942298956" lon="14.034430370454713"><ele>481.0</ele><time>2026-03-29T11:00:22.002Z</time></trkpt><trkpt lat="37.46344545217838" lon="14.034502108453038"><ele>481.0</ele><time>2026-03-29T11:00:23.002Z</time></trkpt><trkpt lat="37.46355282515322" lon="14.034578204995494"><ele>481.0</ele><time>2026-03-29T11:00:24.002Z</time></trkpt><trkpt lat="37.463658511331175" lon="14.034658610445847"><ele>481.0</ele><time>2026-03-29T11:00:25.002Z</time></trkpt><trkpt lat="37.46376362960121" lon="14.034742487406882"><ele>481.0</ele><time>2026-03-29T11:00:26.002Z</time></trkpt><trkpt lat="37.463867030051084" lon="14.034828526483864"><ele>481.0</ele><time>2026-03-29T11:00:27.002Z</time></trkpt><trkpt lat="37.46397148163494" lon="14.03491331150412"><ele>481.0</ele><time>2026-03-29T11:00:28.003Z</time></trkpt><trkpt lat="37.464075439297545" lon="14.034999060702903"><ele>481.0</ele><time>2026-03-29T11:00:29.003Z</time></trkpt><trkpt lat="37.46418012329858" lon="14.035085580775384"><ele>481.0</ele><time>2026-03-29T11:00:30.003Z</time></trkpt><trkpt lat="37.46428547026764" lon="14.035174149976788"><ele>481.25</ele><time>2026-03-29T11:00:31.003Z</time></trkpt><trkpt lat="37.464398336435806" lon="14.03526552947845"><ele>481.5</ele><time>2026-03-29T11:00:32.003Z</time></trkpt><trkpt lat="37.464519879181324" lon="14.035362421214364"><ele>481.75</ele><time>2026-03-29T11:00:33.003Z</time></trkpt><trkpt lat="37.464646971726346" lon="14.035467410987312"><ele>482.0</ele><time>2026-03-29T11:00:34.003Z</time></trkpt><trkpt lat="37.464783359393806" lon="14.035579298579105"><ele>481.66666666666663</ele><time>2026-03-29T11:00:35.003Z</time></trkpt><trkpt lat="37.464925066654835" lon="14.03569949199627"><ele>481.33333333333337</ele><time>2026-03-29T11:00:36.003Z</time></trkpt><trkpt lat="37.465070025550176" lon="14.035819578406018"><ele>481.0</ele><time>2026-03-29T11:00:37.003Z</time></trkpt><trkpt lat="37.46521564596573" lon="14.0359386321529"><ele>481.0</ele><time>2026-03-29T11:00:38.003Z</time></trkpt><trkpt lat="37.465358772249274" lon="14.03605603397346"><ele>481.0</ele><time>2026-03-29T11:00:39.003Z</time></trkpt><trkpt lat="37.46550331283082" lon="14.036175838591506"><ele>481.0</ele><time>2026-03-29T11:00:40.003Z</time></trkpt><trkpt lat="37.46564954506072" lon="14.036296216396645"><ele>480.6666666666667</ele><time>2026-03-29T11:00:41.003Z</time></trkpt><trkpt lat="37.465796327001414" lon="14.036416048666242"><ele>480.33333333333337</ele><time>2026-03-29T11:00:42.003Z</time></trkpt><trkpt lat="37.465944115464325" lon="14.036536764569219"><ele>480.0</ele><time>2026-03-29T11:00:43.003Z</time></trkpt><trkpt lat="37.466089717277704" lon="14.03665768607929"><ele>480.0</ele><time>2026-03-29T11:00:44.003Z</time></trkpt><trkpt lat="37.46623679537601" lon="14.036779333395335"><ele>480.0</ele><time>2026-03-29T11:00:45.003Z</time></trkpt><trkpt lat="37.46638436351357" lon="14.036901163293829"><ele>480.0</ele><time>2026-03-29T11:00:46.003Z</time></trkpt><trkpt lat="37.46653173349833" lon="14.037019903101871"><ele>479.66666666666663</ele><time>2026-03-29T11:00:47.003Z</time></trkpt><trkpt lat="37.46667951446208" lon="14.037128258888805"><ele>479.3333333333333</ele><time>2026-03-29T11:00:48.003Z</time></trkpt><trkpt lat="37.46682476780541" lon="14.037222406118042"><ele>479.0</ele><time>2026-03-29T11:00:49.003Z</time></trkpt><trkpt lat="37.46696509659175" lon="14.03729462464507"><ele>479.0</ele><time>2026-03-29T11:00:50.003Z</time></trkpt><trkpt lat="37.46709877859719" lon="14.037347172392915"><ele>479.0</ele><time>2026-03-29T11:00:51.003Z</time></trkpt><trkpt lat="37.46722302046694" lon="14.03738177139908"><ele>479.0</ele><time>2026-03-29T11:00:52.003Z</time></trkpt><trkpt lat="37.467339089146506" lon="14.037405878244238"><ele>479.0</ele><time>2026-03-29T11:00:53.003Z</time></trkpt><trkpt lat="37.46745074967635" lon="14.037427290865788"><ele>478.99999999999994</ele><time>2026-03-29T11:00:54.003Z</time></trkpt><trkpt lat="37.467557850429934" lon="14.037447869207266"><ele>479.0</ele><time>2026-03-29T11:00:55.003Z</time></trkpt><trkpt lat="37.4676551368419" lon="14.037469271479665"><ele>479.0</ele><time>2026-03-29T11:00:56.003Z</time></trkpt><trkpt lat="37.46774183111003" lon="14.037489688975192"><ele>479.0</ele><time>2026-03-29T11:00:57.001Z</time></trkpt><trkpt lat="37.46781181147092" lon="14.037506698169022"><ele>478.99999999999994</ele><time>2026-03-29T11:00:58.001Z</time></trkpt><trkpt lat="37.46787457304436" lon="14.037521908144123"><ele>479.0</ele><time>2026-03-29T11:00:59.001Z</time></trkpt><trkpt lat="37.46796823775138" lon="14.037544235888774"><ele>479.0</ele><time>2026-03-29T11:01:01.001Z</time></trkpt><trkpt lat="37.46805005865131" lon="14.037551878617968"><ele>479.0</ele><time>2026-03-29T11:01:04.001Z</time></trkpt><trkpt lat="37.46815464608375" lon="14.037580216270902"><ele>479.0</ele><time>2026-03-29T11:01:06.001Z</time></trkpt><trkpt lat="37.46823591166122" lon="14.03761183450664"><ele>479.0</ele><time>2026-03-29T11:01:07.001Z</time></trkpt><trkpt lat="37.46832674173038" lon="14.037648497017207"><ele>479.0</ele><time>2026-03-29T11:01:08.001Z</time></trkpt><trkpt lat="37.468431162565146" lon="14.037695555787561"><ele>479.0</ele><time>2026-03-29T11:01:09.001Z</time></trkpt><trkpt lat="37.468550267737605" lon="14.037751259984987"><ele>479.0</ele><time>2026-03-29T11:01:10Z</time></trkpt><trkpt lat="37.46866865525729" lon="14.037806105606057"><ele>479.0</ele><time>2026-03-29T11:01:11.001Z</time></trkpt><trkpt lat="37.46879558729527" lon="14.037870529954168"><ele>479.0</ele><time>2026-03-29T11:01:12.001Z</time></trkpt><trkpt lat="37.46893351859955" lon="14.03793482013062"><ele>479.3333333333333</ele><time>2026-03-29T11:01:13.001Z</time></trkpt><trkpt lat="37.46908038225857" lon="14.038002977738623"><ele>479.66666666666663</ele><time>2026-03-29T11:01:14.001Z</time></trkpt><trkpt lat="37.46922842074207" lon="14.03807285440516"><ele>480.0</ele><time>2026-03-29T11:01:15.001Z</time></trkpt><trkpt lat="37.46938495582261" lon="14.038143937999687"><ele>480.0</ele><time>2026-03-29T11:01:16.001Z</time></trkpt><trkpt lat="37.46954562221593" lon="14.038218476635986"><ele>480.0</ele><time>2026-03-29T11:01:17.001Z</time></trkpt><trkpt lat="37.46970568226805" lon="14.03829695166826"><ele>480.0</ele><time>2026-03-29T11:01:18.001Z</time></trkpt><trkpt lat="37.46986768245182" lon="14.038375312080136"><ele>479.0</ele><time>2026-03-29T11:01:19.001Z</time></trkpt><trkpt lat="37.470033810211106" lon="14.038451390972073"><ele>478.0</ele><time>2026-03-29T11:01:20.001Z</time></trkpt><trkpt lat="37.47019514759219" lon="14.038528247013605"><ele>477.0</ele><time>2026-03-29T11:01:21.001Z</time></trkpt><trkpt lat="37.470351800074155" lon="14.038610758928005"><ele>478.0</ele><time>2026-03-29T11:01:22.001Z</time></trkpt><trkpt lat="37.47050377021506" lon="14.038692548940652"><ele>479.0</ele><time>2026-03-29T11:01:23.001Z</time></trkpt><trkpt lat="37.470648709597626" lon="14.03878341200257"><ele>480.0</ele><time>2026-03-29T11:01:24.001Z</time></trkpt><trkpt lat="37.47079032641959" lon="14.038885979497136"><ele>480.0</ele><time>2026-03-29T11:01:25.001Z</time></trkpt><trkpt lat="37.4709309640508" lon="14.038988923401751"><ele>480.0</ele><time>2026-03-29T11:01:26.001Z</time></trkpt><trkpt lat="37.47106809312882" lon="14.039099489329887"><ele>480.0</ele><time>2026-03-29T11:01:27.001Z</time></trkpt><trkpt lat="37.47120393843548" lon="14.039220601735787"><ele>480.5</ele><time>2026-03-29T11:01:28.001Z</time></trkpt><trkpt lat="37.47133460900163" lon="14.039344822913044"><ele>481.0</ele><time>2026-03-29T11:01:29.001Z</time></trkpt><trkpt lat="37.471449965503076" lon="14.039458091889099"><ele>481.5</ele><time>2026-03-29T11:01:30.001Z</time></trkpt><trkpt lat="37.47155216179962" lon="14.03956137428589"><ele>482.0</ele><time>2026-03-29T11:01:31.001Z</time></trkpt><trkpt lat="37.47165883703134" lon="14.039666831711937"><ele>482.0</ele><time>2026-03-29T11:01:32.001Z</time></trkpt><trkpt lat="37.47176967204354" lon="14.039782851409894"><ele>482.0</ele><time>2026-03-29T11:01:33.001Z</time></trkpt><trkpt lat="37.47188634699235" lon="14.039906100750125"><ele>482.0</ele><time>2026-03-29T11:01:34.001Z</time></trkpt><trkpt lat="37.47200491659659" lon="14.040032990884859"><ele>481.3333333333333</ele><time>2026-03-29T11:01:35.001Z</time></trkpt><trkpt lat="37.47212258915614" lon="14.040161589617233"><ele>480.66666666666663</ele><time>2026-03-29T11:01:36.001Z</time></trkpt><trkpt lat="37.472238493507554" lon="14.04028404778779"><ele>480.0</ele><time>2026-03-29T11:01:37.001Z</time></trkpt><trkpt lat="37.47234976447592" lon="14.040409304550588"><ele>480.0</ele><time>2026-03-29T11:01:38.001Z</time></trkpt><trkpt lat="37.47246811164948" lon="14.040521855304213"><ele>480.0</ele><time>2026-03-29T11:01:39.001Z</time></trkpt><trkpt lat="37.472598281152784" lon="14.040613924117283"><ele>480.0</ele><time>2026-03-29T11:01:40.001Z</time></trkpt><trkpt lat="37.47273819950901" lon="14.040680844105038"><ele>480.0</ele><time>2026-03-29T11:01:41.001Z</time></trkpt><trkpt lat="37.47288124457869" lon="14.040725770322465"><ele>480.0</ele><time>2026-03-29T11:01:42.001Z</time></trkpt><trkpt lat="37.47302808333339" lon="14.040759133298204"><ele>480.0</ele><time>2026-03-29T11:01:43.001Z</time></trkpt><trkpt lat="37.47317326923091" lon="14.040782352587202"><ele>480.0</ele><time>2026-03-29T11:01:44.001Z</time></trkpt><trkpt lat="37.47331512433641" lon="14.04080933838241"><ele>480.0</ele><time>2026-03-29T11:01:45.001Z</time></trkpt><trkpt lat="37.473442291378156" lon="14.040850181765277"><ele>480.0</ele><time>2026-03-29T11:01:46.001Z</time></trkpt><trkpt lat="37.47356453134757" lon="14.040922464425103"><ele>480.0</ele><time>2026-03-29T11:01:47.001Z</time></trkpt><trkpt lat="37.473678898202934" lon="14.041025348038305"><ele>480.0</ele><time>2026-03-29T11:01:48.001Z</time></trkpt><trkpt lat="37.473781911812566" lon="14.041161404276442"><ele>480.0</ele><time>2026-03-29T11:01:49.001Z</time></trkpt><trkpt lat="37.47387918333857" lon="14.041316487134912"><ele>480.66666666666663</ele><time>2026-03-29T11:01:50.001Z</time></trkpt><trkpt lat="37.47397494135492" lon="14.041484433681829"><ele>481.3333333333333</ele><time>2026-03-29T11:01:51.001Z</time></trkpt><trkpt lat="37.47406978860822" lon="14.041661796955076"><ele>482.0</ele><time>2026-03-29T11:01:52.001Z</time></trkpt><trkpt lat="37.47415543517871" lon="14.041843310964516"><ele>482.0</ele><time>2026-03-29T11:01:53.001Z</time></trkpt><trkpt lat="37.47422058059744" lon="14.042020977385231"><ele>482.0</ele><time>2026-03-29T11:01:54.001Z</time></trkpt><trkpt lat="37.47428296970712" lon="14.042206898875135"><ele>482.0</ele><time>2026-03-29T11:01:55.001Z</time></trkpt><trkpt lat="37.47434189501031" lon="14.042390373182053"><ele>481.0</ele><time>2026-03-29T11:01:56.001Z</time></trkpt><trkpt lat="37.47439495446612" lon="14.042574503043598"><ele>480.0</ele><time>2026-03-29T11:01:57.001Z</time></trkpt><trkpt lat="37.474438105487884" lon="14.042760353413291"><ele>479.0</ele><time>2026-03-29T11:01:58.001Z</time></trkpt><trkpt lat="37.474471393486624" lon="14.042952731228544"><ele>479.0</ele><time>2026-03-29T11:01:59.002Z</time></trkpt><trkpt lat="37.47449714566349" lon="14.043151611749568"><ele>479.0</ele><time>2026-03-29T11:02:00.002Z</time></trkpt><trkpt lat="37.47452111338593" lon="14.043354367217242"><ele>479.0</ele><time>2026-03-29T11:02:01.002Z</time></trkpt><trkpt lat="37.47454421792245" lon="14.04356210090179"><ele>477.66666666666663</ele><time>2026-03-29T11:02:02.002Z</time></trkpt><trkpt lat="37.47456578659595" lon="14.043769277126948"><ele>476.33333333333337</ele><time>2026-03-29T11:02:03.002Z</time></trkpt><trkpt lat="37.47458633495866" lon="14.04397323837838"><ele>475.0</ele><time>2026-03-29T11:02:04.002Z</time></trkpt><trkpt lat="37.47460221522742" lon="14.044178120457087"><ele>477.6666666666667</ele><time>2026-03-29T11:02:05.002Z</time></trkpt><trkpt lat="37.47461739831295" lon="14.044384982053764"><ele>480.33333333333337</ele><time>2026-03-29T11:02:06.002Z</time></trkpt><trkpt lat="37.47463616617082" lon="14.044592863428948"><ele>483.0</ele><time>2026-03-29T11:02:07.002Z</time></trkpt><trkpt lat="37.474657978361215" lon="14.04479985547911"><ele>482.33333333333337</ele><time>2026-03-29T11:02:08.002Z</time></trkpt><trkpt lat="37.474675897426756" lon="14.044998633457142"><ele>481.6666666666667</ele><time>2026-03-29T11:02:09.002Z</time></trkpt><trkpt lat="37.47468378588497" lon="14.045193597892943"><ele>481.0</ele><time>2026-03-29T11:02:10.002Z</time></trkpt><trkpt lat="37.47468365255224" lon="14.045389476637569"><ele>481.0</ele><time>2026-03-29T11:02:11.002Z</time></trkpt><trkpt lat="37.47467832799848" lon="14.045584448776836"><ele>481.0</ele><time>2026-03-29T11:02:12.002Z</time></trkpt><trkpt lat="37.47466326605153" lon="14.045778601133424"><ele>481.0</ele><time>2026-03-29T11:02:13.002Z</time></trkpt><trkpt lat="37.47464543379678" lon="14.04597496534739"><ele>482.33333333333337</ele><time>2026-03-29T11:02:14.002Z</time></trkpt><trkpt lat="37.47462961208895" lon="14.04617428678889"><ele>483.66666666666663</ele><time>2026-03-29T11:02:15.002Z</time></trkpt><trkpt lat="37.47461372699568" lon="14.046377032184392"><ele>485.0</ele><time>2026-03-29T11:02:16.002Z</time></trkpt><trkpt lat="37.47459516921062" lon="14.046583437617"><ele>481.66666666666663</ele><time>2026-03-29T11:02:17.002Z</time></trkpt><trkpt lat="37.47457175498206" lon="14.046788760371294"><ele>478.33333333333337</ele><time>2026-03-29T11:02:18.002Z</time></trkpt><trkpt lat="37.47454287988952" lon="14.0469953485183"><ele>475.0</ele><time>2026-03-29T11:02:19.002Z</time></trkpt><trkpt lat="37.474515933708794" lon="14.047198952300015"><ele>475.0</ele><time>2026-03-29T11:02:20.002Z</time></trkpt><trkpt lat="37.47448925282309" lon="14.047399484488503"><ele>475.0</ele><time>2026-03-29T11:02:21.002Z</time></trkpt><trkpt lat="37.474465097370064" lon="14.047598628882527"><ele>475.0</ele><time>2026-03-29T11:02:22.002Z</time></trkpt><trkpt lat="37.47444431804556" lon="14.047789458313202"><ele>476.75</ele><time>2026-03-29T11:02:23.002Z</time></trkpt><trkpt lat="37.474437853101996" lon="14.047974258848413"><ele>478.5</ele><time>2026-03-29T11:02:24.002Z</time></trkpt><trkpt lat="37.474444230067746" lon="14.048156606309327"><ele>480.25</ele><time>2026-03-29T11:02:25.002Z</time></trkpt><trkpt lat="37.47447839035614" lon="14.0483269045053"><ele>482.0</ele><time>2026-03-29T11:02:26.002Z</time></trkpt><trkpt lat="37.47452636151791" lon="14.048489889805294"><ele>484.0</ele><time>2026-03-29T11:02:27.002Z</time></trkpt><trkpt lat="37.47457655036133" lon="14.048657138124959"><ele>486.0</ele><time>2026-03-29T11:02:28.002Z</time></trkpt><trkpt lat="37.47462758471334" lon="14.04882057338247"><ele>488.0</ele><time>2026-03-29T11:02:29.002Z</time></trkpt><trkpt lat="37.47468370290603" lon="14.048975958058675"><ele>490.0</ele><time>2026-03-29T11:02:30.002Z</time></trkpt><trkpt lat="37.47475850558961" lon="14.049120899513245"><ele>491.5</ele><time>2026-03-29T11:02:31.002Z</time></trkpt><trkpt lat="37.47485479484023" lon="14.04925107938852"><ele>493.0</ele><time>2026-03-29T11:02:32.002Z</time></trkpt><trkpt lat="37.47497054060558" lon="14.049363958739644"><ele>494.5</ele><time>2026-03-29T11:02:33.002Z</time></trkpt><trkpt lat="37.47509875119631" lon="14.049460150846485"><ele>496.0</ele><time>2026-03-29T11:02:34.002Z</time></trkpt><trkpt lat="37.47522935079362" lon="14.04955229100424"><ele>496.0</ele><time>2026-03-29T11:02:35.002Z</time></trkpt><trkpt lat="37.47535502138117" lon="14.049649663911396"><ele>496.0</ele><time>2026-03-29T11:02:36.002Z</time></trkpt><trkpt lat="37.47547454395331" lon="14.049741975807182"><ele>496.0</ele><time>2026-03-29T11:02:37.002Z</time></trkpt><trkpt lat="37.47558237956445" lon="14.049824198639174"><ele>496.0</ele><time>2026-03-29T11:02:38.002Z</time></trkpt><trkpt lat="37.47568210191581" lon="14.049911567634572"><ele>495.0</ele><time>2026-03-29T11:02:39.002Z</time></trkpt><trkpt lat="37.47577065686813" lon="14.050009001581337"><ele>494.0</ele><time>2026-03-29T11:02:40.003Z</time></trkpt><trkpt lat="37.47584891905577" lon="14.050109491849598"><ele>493.0</ele><time>2026-03-29T11:02:41.003Z</time></trkpt><trkpt lat="37.475938127832435" lon="14.050191767380634"><ele>492.0</ele><time>2026-03-29T11:02:42.003Z</time></trkpt><trkpt lat="37.47604794314042" lon="14.050257042464514"><ele>492.0</ele><time>2026-03-29T11:02:43.003Z</time></trkpt><trkpt lat="37.47616455439915" lon="14.050313077529127"><ele>492.00000000000006</ele><time>2026-03-29T11:02:44.003Z</time></trkpt><trkpt lat="37.476266473338605" lon="14.05036837148869"><ele>492.00000000000006</ele><time>2026-03-29T11:02:45.003Z</time></trkpt><trkpt lat="37.4763449678407" lon="14.05042327203646"><ele>492.0</ele><time>2026-03-29T11:02:46.003Z</time></trkpt><trkpt lat="37.4764039053035" lon="14.050474254427725"><ele>492.0</ele><time>2026-03-29T11:02:47.003Z</time></trkpt><trkpt lat="37.47645190949083" lon="14.050532403311557"><ele>493.0</ele><time>2026-03-29T11:02:49.003Z</time></trkpt><trkpt lat="37.47649104110605" lon="14.050614644786474"><ele>494.0</ele><time>2026-03-29T11:02:51.003Z</time></trkpt><trkpt lat="37.476541474493565" lon="14.050668808015402"><ele>495.0</ele><time>2026-03-29T11:02:52.003Z</time></trkpt><trkpt lat="37.47661189453972" lon="14.050708308427206"><ele>496.0</ele><time>2026-03-29T11:02:53.003Z</time></trkpt><trkpt lat="37.47669812425083" lon="14.050717896915716"><ele>497.0</ele><time>2026-03-29T11:02:54.003Z</time></trkpt><trkpt lat="37.47679077153614" lon="14.050713942474745"><ele>498.0</ele><time>2026-03-29T11:02:55.003Z</time></trkpt><trkpt lat="37.476895756749705" lon="14.0507301768053"><ele>498.0</ele><time>2026-03-29T11:02:56.003Z</time></trkpt><trkpt lat="37.477010720890604" lon="14.05077643555103"><ele>498.0</ele><time>2026-03-29T11:02:57.003Z</time></trkpt><trkpt lat="37.477128218292734" lon="14.050833622284854"><ele>498.0</ele><time>2026-03-29T11:02:58.003Z</time></trkpt><trkpt lat="37.477254205504494" lon="14.05090778408744"><ele>498.0</ele><time>2026-03-29T11:02:59.003Z</time></trkpt><trkpt lat="37.47738743117715" lon="14.050993369114938"><ele>499.0</ele><time>2026-03-29T11:03:00.003Z</time></trkpt><trkpt lat="37.47752627523543" lon="14.051081782071439"><ele>500.0</ele><time>2026-03-29T11:03:01.003Z</time></trkpt><trkpt lat="37.47781123519949" lon="14.051256252384134"><ele>501.3333333333333</ele><time>2026-03-29T11:03:03.001Z</time></trkpt><trkpt lat="37.47796148814991" lon="14.05134470463805"><ele>502.66666666666663</ele><time>2026-03-29T11:03:04.001Z</time></trkpt><trkpt lat="37.478114452052694" lon="14.05143511225995"><ele>504.0</ele><time>2026-03-29T11:03:05.001Z</time></trkpt><trkpt lat="37.47827019194157" lon="14.051529304007316"><ele>501.66666666666663</ele><time>2026-03-29T11:03:06.001Z</time></trkpt><trkpt lat="37.47842749042059" lon="14.051624842618134"><ele>499.3333333333333</ele><time>2026-03-29T11:03:07.001Z</time></trkpt><trkpt lat="37.47858477892269" lon="14.051719531610697"><ele>497.0</ele><time>2026-03-29T11:03:08.001Z</time></trkpt><trkpt lat="37.47874529912339" lon="14.051811759121334"><ele>498.66666666666663</ele><time>2026-03-29T11:03:09.001Z</time></trkpt><trkpt lat="37.47890747203144" lon="14.051903156633015"><ele>500.33333333333337</ele><time>2026-03-29T11:03:10.001Z</time></trkpt><trkpt lat="37.479066755774596" lon="14.051995377216743"><ele>502.0</ele><time>2026-03-29T11:03:11.001Z</time></trkpt><trkpt lat="37.47922162118131" lon="14.052087533114333"><ele>502.0</ele><time>2026-03-29T11:03:12.001Z</time></trkpt><trkpt lat="37.479373692805765" lon="14.052177003648774"><ele>502.0</ele><time>2026-03-29T11:03:13.001Z</time></trkpt><trkpt lat="37.47952373526015" lon="14.05226399124517"><ele>502.0</ele><time>2026-03-29T11:03:14.001Z</time></trkpt><trkpt lat="37.47967076019316" lon="14.052349633012122"><ele>503.6666666666667</ele><time>2026-03-29T11:03:15.001Z</time></trkpt><trkpt lat="37.47981652056843" lon="14.052434641669471"><ele>505.33333333333337</ele><time>2026-03-29T11:03:16.001Z</time></trkpt><trkpt lat="37.47995878290138" lon="14.052519636992255"><ele>507.0</ele><time>2026-03-29T11:03:17.001Z</time></trkpt><trkpt lat="37.48009555576945" lon="14.052602764967403"><ele>507.0</ele><time>2026-03-29T11:03:18.001Z</time></trkpt><trkpt lat="37.48022416096326" lon="14.052679291848895"><ele>507.0</ele><time>2026-03-29T11:03:19.001Z</time></trkpt><trkpt lat="37.48034557912824" lon="14.052750934623893"><ele>507.0</ele><time>2026-03-29T11:03:20.001Z</time></trkpt><trkpt lat="37.480457902385226" lon="14.052818384380771"><ele>507.0</ele><time>2026-03-29T11:03:21.001Z</time></trkpt><trkpt lat="37.48055997433517" lon="14.052879290643144"><ele>507.5</ele><time>2026-03-29T11:03:22.001Z</time></trkpt><trkpt lat="37.48064959070961" lon="14.052935702577846"><ele>508.0</ele><time>2026-03-29T11:03:23.001Z</time></trkpt><trkpt lat="37.480728630581154" lon="14.05298696899281"><ele>508.5</ele><time>2026-03-29T11:03:24.001Z</time></trkpt><trkpt lat="37.480791618054354" lon="14.053037600140211"><ele>509.0</ele><time>2026-03-29T11:03:25.001Z</time></trkpt><trkpt lat="37.48083453840834" lon="14.05316791238065"><ele>509.5</ele><time>2026-03-29T11:03:27.001Z</time></trkpt><trkpt lat="37.480813928660005" lon="14.053251937569316"><ele>510.0</ele><time>2026-03-29T11:03:28.001Z</time></trkpt><trkpt lat="37.48077526059344" lon="14.05334765945845"><ele>510.0</ele><time>2026-03-29T11:03:29.001Z</time></trkpt><trkpt lat="37.48073367743876" lon="14.053457653057915"><ele>510.0</ele><time>2026-03-29T11:03:30.001Z</time></trkpt><trkpt lat="37.48068602399025" lon="14.053584681048456"><ele>510.0</ele><time>2026-03-29T11:03:31.001Z</time></trkpt><trkpt lat="37.480635097941686" lon="14.053725734815934"><ele>510.0</ele><time>2026-03-29T11:03:32.001Z</time></trkpt><trkpt lat="37.480586985295496" lon="14.053870834426165"><ele>510.0</ele><time>2026-03-29T11:03:33.001Z</time></trkpt><trkpt lat="37.48054644405644" lon="14.054003709746016"><ele>510.0</ele><time>2026-03-29T11:03:34.001Z</time></trkpt><trkpt lat="37.4805042880273" lon="14.054130634625245"><ele>510.0</ele><time>2026-03-29T11:03:35.001Z</time></trkpt><trkpt lat="37.48046228704289" lon="14.054256352557486"><ele>510.0</ele><time>2026-03-29T11:03:36.001Z</time></trkpt><trkpt lat="37.48042004374452" lon="14.054385201007884"><ele>510.0</ele><time>2026-03-29T11:03:37.001Z</time></trkpt><trkpt lat="37.48037816649045" lon="14.05451562581693"><ele>509.4</ele><time>2026-03-29T11:03:38.001Z</time></trkpt><trkpt lat="37.48033463664135" lon="14.054644438716416"><ele>508.8</ele><time>2026-03-29T11:03:39.001Z</time></trkpt><trkpt lat="37.48029447632114" lon="14.054766596788133"><ele>508.20000000000005</ele><time>2026-03-29T11:03:40.001Z</time></trkpt><trkpt lat="37.48025565480397" lon="14.054883160336276"><ele>507.6</ele><time>2026-03-29T11:03:41.001Z</time></trkpt><trkpt lat="37.48021980312989" lon="14.054995227914796"><ele>507.0</ele><time>2026-03-29T11:03:42.001Z</time></trkpt><trkpt lat="37.48018577480675" lon="14.055102686000458"><ele>506.0</ele><time>2026-03-29T11:03:43.001Z</time></trkpt><trkpt lat="37.4801491265983" lon="14.055205724605779"><ele>505.00000000000006</ele><time>2026-03-29T11:03:44.001Z</time></trkpt><trkpt lat="37.48011230512033" lon="14.055300348135427"><ele>504.00000000000006</ele><time>2026-03-29T11:03:45.001Z</time></trkpt><trkpt lat="37.4800788591592" lon="14.055384023233495"><ele>503.0</ele><time>2026-03-29T11:03:46.001Z</time></trkpt><trkpt lat="37.48002125508313" lon="14.055504156577882"><ele>502.0</ele><time>2026-03-29T11:03:48.001Z</time></trkpt><trkpt lat="37.47995201112262" lon="14.055593216858492"><ele>502.00000000000006</ele><time>2026-03-29T11:03:50.001Z</time></trkpt><trkpt lat="37.47989405960638" lon="14.05563260345622"><ele>502.0</ele><time>2026-03-29T11:03:51.001Z</time></trkpt><trkpt lat="37.479828399136295" lon="14.055682465213343"><ele>502.0</ele><time>2026-03-29T11:03:52.001Z</time></trkpt><trkpt lat="37.47977493811689" lon="14.055764483937098"><ele>502.0</ele><time>2026-03-29T11:03:53.001Z</time></trkpt><trkpt lat="37.47972744357879" lon="14.05585771787438"><ele>502.00000000000006</ele><time>2026-03-29T11:03:54.001Z</time></trkpt><trkpt lat="37.4796667239216" lon="14.055940339823568"><ele>502.0</ele><time>2026-03-29T11:03:55.001Z</time></trkpt><trkpt lat="37.479594660082626" lon="14.05600308216333"><ele>501.50000000000006</ele><time>2026-03-29T11:03:56.002Z</time></trkpt><trkpt lat="37.47951863116342" lon="14.056056195666457"><ele>501.0</ele><time>2026-03-29T11:03:57.002Z</time></trkpt><trkpt lat="37.47944467450286" lon="14.056107758893225"><ele>500.5</ele><time>2026-03-29T11:03:58.002Z</time></trkpt><trkpt lat="37.47937128229855" lon="14.056155893552752"><ele>500.0</ele><time>2026-03-29T11:03:59.002Z</time></trkpt><trkpt lat="37.47929744411576" lon="14.056203545743175"><ele>499.50000000000006</ele><time>2026-03-29T11:04:00.002Z</time></trkpt><trkpt lat="37.47922465547278" lon="14.056255047866692"><ele>499.0</ele><time>2026-03-29T11:04:01.002Z</time></trkpt><trkpt lat="37.479152222785025" lon="14.056313154044908"><ele>499.0</ele><time>2026-03-29T11:04:02.002Z</time></trkpt><trkpt lat="37.47907586726629" lon="14.056375646054827"><ele>499.0</ele><time>2026-03-29T11:04:03.002Z</time></trkpt><trkpt lat="37.47899751802368" lon="14.056438452982805"><ele>499.0</ele><time>2026-03-29T11:04:04.002Z</time></trkpt><trkpt lat="37.478916065335696" lon="14.056504758575846"><ele>499.0</ele><time>2026-03-29T11:04:05.002Z</time></trkpt><trkpt lat="37.478839920373645" lon="14.056569211302062"><ele>499.0</ele><time>2026-03-29T11:04:06.002Z</time></trkpt><trkpt lat="37.47876415002897" lon="14.056628886954512"><ele>498.79999999999995</ele><time>2026-03-29T11:04:07.002Z</time></trkpt><trkpt lat="37.47868684362882" lon="14.056683894422012"><ele>498.59999999999997</ele><time>2026-03-29T11:04:08.002Z</time></trkpt><trkpt lat="37.47860922590957" lon="14.056738613597837"><ele>498.4</ele><time>2026-03-29T11:04:09.002Z</time></trkpt><trkpt lat="37.47853054287882" lon="14.056792826885086"><ele>498.2</ele><time>2026-03-29T11:04:10.002Z</time></trkpt><trkpt lat="37.47845247902638" lon="14.05684908956221"><ele>498.0</ele><time>2026-03-29T11:04:11.002Z</time></trkpt><trkpt lat="37.47837300523302" lon="14.056911048248368"><ele>498.0</ele><time>2026-03-29T11:04:12.002Z</time></trkpt><trkpt lat="37.478293587406654" lon="14.056979537362318"><ele>497.99999999999994</ele><time>2026-03-29T11:04:13.002Z</time></trkpt><trkpt lat="37.47821678584291" lon="14.057056186007934"><ele>497.99999999999994</ele><time>2026-03-29T11:04:14.002Z</time></trkpt><trkpt lat="37.47814481712593" lon="14.057134518454205"><ele>498.0</ele><time>2026-03-29T11:04:15.002Z</time></trkpt><trkpt lat="37.478084553725964" lon="14.05721112209601"><ele>498.0</ele><time>2026-03-29T11:04:16.002Z</time></trkpt><trkpt lat="37.47803056755857" lon="14.057287011726377"><ele>498.0</ele><time>2026-03-29T11:04:17.002Z</time></trkpt><trkpt lat="37.477979845438924" lon="14.057370684112172"><ele>498.0</ele><time>2026-03-29T11:04:18.002Z</time></trkpt><trkpt lat="37.47793431432197" lon="14.057459484344612"><ele>498.0</ele><time>2026-03-29T11:04:19.002Z</time></trkpt><trkpt lat="37.47789507392597" lon="14.057550078881308"><ele>498.0</ele><time>2026-03-29T11:04:20.002Z</time></trkpt><trkpt lat="37.4778622270053" lon="14.057633952150853"><ele>498.0</ele><time>2026-03-29T11:04:21.002Z</time></trkpt><trkpt lat="37.47783669442477" lon="14.057707791393106"><ele>498.0</ele><time>2026-03-29T11:04:22.002Z</time></trkpt><trkpt lat="37.477802292121495" lon="14.057837932595506"><ele>497.6666666666667</ele><time>2026-03-29T11:04:24.002Z</time></trkpt><trkpt lat="37.477753618883845" lon="14.057961607715207"><ele>497.33333333333337</ele><time>2026-03-29T11:04:26.002Z</time></trkpt><trkpt lat="37.47766480295387" lon="14.05803278155218"><ele>497.0</ele><time>2026-03-29T11:04:28.002Z</time></trkpt><trkpt lat="37.477600714856635" lon="14.058056852848756"><ele>496.6666666666667</ele><time>2026-03-29T11:04:29.002Z</time></trkpt><trkpt lat="37.477525219391595" lon="14.05807492137239"><ele>496.33333333333337</ele><time>2026-03-29T11:04:30.002Z</time></trkpt><trkpt lat="37.4774495960343" lon="14.058094916024938"><ele>496.0</ele><time>2026-03-29T11:04:31.002Z</time></trkpt><trkpt lat="37.4772956921027" lon="14.058146605741122"><ele>496.0</ele><time>2026-03-29T11:04:33.002Z</time></trkpt><trkpt lat="37.47721731966143" lon="14.058146451195917"><ele>496.0</ele><time>2026-03-29T11:04:34.002Z</time></trkpt><trkpt lat="37.477142311638765" lon="14.058116177530126"><ele>496.0</ele><time>2026-03-29T11:04:35.002Z</time></trkpt><trkpt lat="37.477068311491635" lon="14.058063592660062"><ele>496.0</ele><time>2026-03-29T11:04:36.002Z</time></trkpt><trkpt lat="37.4769914473018" lon="14.057982406371115"><ele>496.0</ele><time>2026-03-29T11:04:37.002Z</time></trkpt><trkpt lat="37.476894399418036" lon="14.05789127895636"><ele>494.6666666666667</ele><time>2026-03-29T11:04:38.002Z</time></trkpt><trkpt lat="37.47676698713994" lon="14.057786819943303"><ele>493.33333333333337</ele><time>2026-03-29T11:04:39.002Z</time></trkpt><trkpt lat="37.47662637740497" lon="14.057665687868814"><ele>492.0</ele><time>2026-03-29T11:04:40.003Z</time></trkpt><trkpt lat="37.4764837432878" lon="14.057540416896707"><ele>492.33333333333337</ele><time>2026-03-29T11:04:41.003Z</time></trkpt><trkpt lat="37.476333829999405" lon="14.057414047152877"><ele>492.6666666666667</ele><time>2026-03-29T11:04:42.003Z</time></trkpt><trkpt lat="37.47617308265764" lon="14.057286990761602"><ele>493.0</ele><time>2026-03-29T11:04:43.003Z</time></trkpt><trkpt lat="37.475999259920776" lon="14.057166020418839"><ele>493.0</ele><time>2026-03-29T11:04:44.003Z</time></trkpt><trkpt lat="37.47581996895619" lon="14.057057564988957"><ele>493.0</ele><time>2026-03-29T11:04:45.003Z</time></trkpt><trkpt lat="37.47563067260961" lon="14.056960029316587"><ele>493.0</ele><time>2026-03-29T11:04:46.003Z</time></trkpt><trkpt lat="37.475436685288486" lon="14.05687505561911"><ele>493.6666666666667</ele><time>2026-03-29T11:04:47.003Z</time></trkpt><trkpt lat="37.47523821432978" lon="14.05680386467434"><ele>494.33333333333337</ele><time>2026-03-29T11:04:48.003Z</time></trkpt><trkpt lat="37.47503862867825" lon="14.056745670743009"><ele>495.0</ele><time>2026-03-29T11:04:49.003Z</time></trkpt><trkpt lat="37.4748365365618" lon="14.056700288711456"><ele>495.0</ele><time>2026-03-29T11:04:50.003Z</time></trkpt><trkpt lat="37.47463346778847" lon="14.05666688888163"><ele>495.0</ele><time>2026-03-29T11:04:51.003Z</time></trkpt><trkpt lat="37.47442970651345" lon="14.056642174213767"><ele>495.0</ele><time>2026-03-29T11:04:52.003Z</time></trkpt><trkpt lat="37.47422501266256" lon="14.05662120973247"><ele>494.66666666666663</ele><time>2026-03-29T11:04:53.003Z</time></trkpt><trkpt lat="37.474021608695146" lon="14.05660241275787"><ele>494.3333333333333</ele><time>2026-03-29T11:04:54.003Z</time></trkpt><trkpt lat="37.473817630693674" lon="14.056582920176277"><ele>494.0</ele><time>2026-03-29T11:04:55.003Z</time></trkpt><trkpt lat="37.47361417018111" lon="14.056562365271777"><ele>494.0</ele><time>2026-03-29T11:04:56.003Z</time></trkpt><trkpt lat="37.47341223847754" lon="14.056540717856697"><ele>494.0</ele><time>2026-03-29T11:04:57.003Z</time></trkpt><trkpt lat="37.47321196810713" lon="14.05651773544413"><ele>494.0</ele><time>2026-03-29T11:04:58.003Z</time></trkpt><trkpt lat="37.473013164317" lon="14.05649706212176"><ele>497.0</ele><time>2026-03-29T11:04:59.003Z</time></trkpt><trkpt lat="37.47282075223579" lon="14.056475981929138"><ele>500.0</ele><time>2026-03-29T11:05:00.003Z</time></trkpt><trkpt lat="37.47262525327679" lon="14.056453796699357"><ele>503.0</ele><time>2026-03-29T11:05:01.003Z</time></trkpt><trkpt lat="37.47242953049548" lon="14.056430395417184"><ele>503.0</ele><time>2026-03-29T11:05:02.003Z</time></trkpt><trkpt lat="37.47223630902489" lon="14.056408327877108"><ele>503.0</ele><time>2026-03-29T11:05:03.003Z</time></trkpt><trkpt lat="37.471851245803336" lon="14.05636275352144"><ele>501.66666666666663</ele><time>2026-03-29T11:05:05.003Z</time></trkpt><trkpt lat="37.47166024432961" lon="14.056337058339293"><ele>500.33333333333337</ele><time>2026-03-29T11:05:06.003Z</time></trkpt><trkpt lat="37.471473398186454" lon="14.056314472343947"><ele>499.0</ele><time>2026-03-29T11:05:07.003Z</time></trkpt><trkpt lat="37.471293903962966" lon="14.056293081505759"><ele>496.6666666666667</ele><time>2026-03-29T11:05:08.003Z</time></trkpt><trkpt lat="37.47112557424238" lon="14.056270910365662"><ele>494.33333333333337</ele><time>2026-03-29T11:05:09.001Z</time></trkpt><trkpt lat="37.47096288221108" lon="14.056251638519203"><ele>492.0</ele><time>2026-03-29T11:05:10.001Z</time></trkpt><trkpt lat="37.47081300086201" lon="14.056242958500228"><ele>492.0</ele><time>2026-03-29T11:05:11.001Z</time></trkpt><trkpt lat="37.47066515924022" lon="14.05623511374593"><ele>492.0</ele><time>2026-03-29T11:05:12.001Z</time></trkpt><trkpt lat="37.470533928913774" lon="14.056221067983312"><ele>492.0</ele><time>2026-03-29T11:05:13.001Z</time></trkpt><trkpt lat="37.47042240355069" lon="14.056207896057535"><ele>492.0</ele><time>2026-03-29T11:05:14.001Z</time></trkpt><trkpt lat="37.470329603019074" lon="14.056196819856826"><ele>491.6666666666667</ele><time>2026-03-29T11:05:15.001Z</time></trkpt><trkpt lat="37.470245304165346" lon="14.056185868825809"><ele>491.33333333333337</ele><time>2026-03-29T11:05:16.001Z</time></trkpt><trkpt lat="37.47017041804765" lon="14.0561771636217"><ele>491.0</ele><time>2026-03-29T11:05:17.001Z</time></trkpt><trkpt lat="37.470099618466406" lon="14.056186132096046"><ele>490.6666666666667</ele><time>2026-03-29T11:05:18.001Z</time></trkpt><trkpt lat="37.47003173365284" lon="14.05623370932171"><ele>490.33333333333337</ele><time>2026-03-29T11:05:19.001Z</time></trkpt><trkpt lat="37.46998351251074" lon="14.05631015632779"><ele>490.0</ele><time>2026-03-29T11:05:20.001Z</time></trkpt><trkpt lat="37.46996773278751" lon="14.056419145906174"><ele>490.0</ele><time>2026-03-29T11:05:21.001Z</time></trkpt><trkpt lat="37.46997620352372" lon="14.05655613021068"><ele>490.0</ele><time>2026-03-29T11:05:22.001Z</time></trkpt><trkpt lat="37.470002566481234" lon="14.056708447485008"><ele>490.0</ele><time>2026-03-29T11:05:23.001Z</time></trkpt><trkpt lat="37.47003011713922" lon="14.056876574168346"><ele>490.0</ele><time>2026-03-29T11:05:24.001Z</time></trkpt><trkpt lat="37.47005749780022" lon="14.057059038436973"><ele>490.5</ele><time>2026-03-29T11:05:25.001Z</time></trkpt><trkpt lat="37.470095711875274" lon="14.057232287277742"><ele>491.0</ele><time>2026-03-29T11:05:26.001Z</time></trkpt><trkpt lat="37.470163433906954" lon="14.057392498385713"><ele>491.5</ele><time>2026-03-29T11:05:27.001Z</time></trkpt><trkpt lat="37.47025379167496" lon="14.05752717571965"><ele>492.0</ele><time>2026-03-29T11:05:28.001Z</time></trkpt><trkpt lat="37.47036538495248" lon="14.057624578445646"><ele>492.75</ele><time>2026-03-29T11:05:29.001Z</time></trkpt><trkpt lat="37.47048947094707" lon="14.057681811062992"><ele>493.5</ele><time>2026-03-29T11:05:30.001Z</time></trkpt><trkpt lat="37.47062412050444" lon="14.057694569108723"><ele>494.25</ele><time>2026-03-29T11:05:31.001Z</time></trkpt><trkpt lat="37.47077129016286" lon="14.057674001382717"><ele>495.0</ele><time>2026-03-29T11:05:32.001Z</time></trkpt><trkpt lat="37.47093043844687" lon="14.057648431063056"><ele>495.0</ele><time>2026-03-29T11:05:33.001Z</time></trkpt><trkpt lat="37.47109584303079" lon="14.05765696540512"><ele>495.0</ele><time>2026-03-29T11:05:34.001Z</time></trkpt><trkpt lat="37.47126609628126" lon="14.05771534126842"><ele>495.0</ele><time>2026-03-29T11:05:35.001Z</time></trkpt><trkpt lat="37.47143140708332" lon="14.057800960262732"><ele>497.0</ele><time>2026-03-29T11:05:36.001Z</time></trkpt><trkpt lat="37.47158015812037" lon="14.057912308354375"><ele>499.0</ele><time>2026-03-29T11:05:37.001Z</time></trkpt><trkpt lat="37.471701132136694" lon="14.058028054520802"><ele>501.0</ele><time>2026-03-29T11:05:38.001Z</time></trkpt><trkpt lat="37.47181134543125" lon="14.05815043468441"><ele>501.0</ele><time>2026-03-29T11:05:39.001Z</time></trkpt><trkpt lat="37.471915524956515" lon="14.058274406258432"><ele>501.0</ele><time>2026-03-29T11:05:40.001Z</time></trkpt><trkpt lat="37.47202791756305" lon="14.058399942977712"><ele>501.0</ele><time>2026-03-29T11:05:41.001Z</time></trkpt><trkpt lat="37.47214815653509" lon="14.058527762584262"><ele>503.33333333333337</ele><time>2026-03-29T11:05:42.001Z</time></trkpt><trkpt lat="37.47227437108581" lon="14.058660182506447"><ele>505.6666666666667</ele><time>2026-03-29T11:05:43.001Z</time></trkpt><trkpt lat="37.47240246368389" lon="14.05878445511707"><ele>508.0</ele><time>2026-03-29T11:05:44.001Z</time></trkpt><trkpt lat="37.472521811734694" lon="14.058888084123149"><ele>508.0</ele><time>2026-03-29T11:05:45.001Z</time></trkpt><trkpt lat="37.472637071691224" lon="14.05898039034862"><ele>508.0</ele><time>2026-03-29T11:05:46.001Z</time></trkpt><trkpt lat="37.472756867898205" lon="14.059068604484775"><ele>508.0</ele><time>2026-03-29T11:05:47.001Z</time></trkpt><trkpt lat="37.47288676330456" lon="14.05915996297081"><ele>508.0</ele><time>2026-03-29T11:05:48.001Z</time></trkpt><trkpt lat="37.4730134678699" lon="14.05925575637324"><ele>508.5</ele><time>2026-03-29T11:05:49.001Z</time></trkpt><trkpt lat="37.47313275574479" lon="14.059344072446326"><ele>509.0</ele><time>2026-03-29T11:05:50.001Z</time></trkpt><trkpt lat="37.4732421500962" lon="14.05942244066385"><ele>509.5</ele><time>2026-03-29T11:05:51.001Z</time></trkpt><trkpt lat="37.4733421195376" lon="14.059490180762651"><ele>510.0</ele><time>2026-03-29T11:05:52.001Z</time></trkpt><trkpt lat="37.47343366087751" lon="14.059551760883718"><ele>510.0</ele><time>2026-03-29T11:05:53.001Z</time></trkpt><trkpt lat="37.47349730760862" lon="14.059594153926751"><ele>510.0</ele><time>2026-03-29T11:05:54.001Z</time></trkpt><trkpt lat="37.47357227045664" lon="14.059657087314614"><ele>510.0</ele><time>2026-03-29T11:05:56.001Z</time></trkpt><trkpt lat="37.47363049259566" lon="14.059701251065233"><ele>510.0</ele><time>2026-03-29T11:07:22.001Z</time></trkpt><trkpt lat="37.47370486924281" lon="14.059743857680926"><ele>510.0</ele><time>2026-03-29T11:07:23.001Z</time></trkpt><trkpt lat="37.47378645899004" lon="14.059803606954336"><ele>510.0</ele><time>2026-03-29T11:07:24.001Z</time></trkpt><trkpt lat="37.47388673769068" lon="14.059872602308234"><ele>510.25</ele><time>2026-03-29T11:07:25.001Z</time></trkpt><trkpt lat="37.47400064893404" lon="14.059937676492183"><ele>510.5</ele><time>2026-03-29T11:07:26.001Z</time></trkpt><trkpt lat="37.47413221093213" lon="14.060021278115155"><ele>510.75</ele><time>2026-03-29T11:07:27.001Z</time></trkpt><trkpt lat="37.47427903427576" lon="14.06013085524204"><ele>511.0</ele><time>2026-03-29T11:07:28.001Z</time></trkpt><trkpt lat="37.474436919460516" lon="14.060271319844782"><ele>511.0</ele><time>2026-03-29T11:07:29.001Z</time></trkpt><trkpt lat="37.47459859876651" lon="14.060425432444035"><ele>511.0</ele><time>2026-03-29T11:07:30.001Z</time></trkpt><trkpt lat="37.474751087936276" lon="14.060600272557242"><ele>511.0</ele><time>2026-03-29T11:07:31.001Z</time></trkpt><trkpt lat="37.47490116053304" lon="14.060792224504972"><ele>512.3333333333334</ele><time>2026-03-29T11:07:32.001Z</time></trkpt><trkpt lat="37.47504114128253" lon="14.060991978599564"><ele>513.6666666666666</ele><time>2026-03-29T11:07:33.001Z</time></trkpt><trkpt lat="37.47516297472729" lon="14.06120010815251"><ele>515.0</ele><time>2026-03-29T11:07:34.001Z</time></trkpt><trkpt lat="37.475282538821794" lon="14.061414209926214"><ele>515.6666666666666</ele><time>2026-03-29T11:07:35.001Z</time></trkpt><trkpt lat="37.475383542930594" lon="14.061630403634384"><ele>516.3333333333334</ele><time>2026-03-29T11:07:36.001Z</time></trkpt><trkpt lat="37.47548359177008" lon="14.061867338325017"><ele>517.0</ele><time>2026-03-29T11:07:37.068Z</time></trkpt><trkpt lat="37.47557449995687" lon="14.062091537833894"><ele>517.5</ele><time>2026-03-29T11:07:38.066Z</time></trkpt><trkpt lat="37.47565924308875" lon="14.062327871703586"><ele>518.0</ele><time>2026-03-29T11:07:39.069Z</time></trkpt><trkpt lat="37.47598062809343" lon="14.063481367532196"><ele>515.0</ele><time>2026-03-29T11:07:44.001Z</time></trkpt><trkpt lat="37.475860744812536" lon="14.063842085280653"><ele>512.0</ele><time>2026-03-29T11:07:45.001Z</time></trkpt><trkpt lat="37.47588641134885" lon="14.064105351249548"><ele>508.3333333333333</ele><time>2026-03-29T11:07:46.001Z</time></trkpt><trkpt lat="37.47592326769525" lon="14.06437270282976"><ele>504.66666666666663</ele><time>2026-03-29T11:07:47.001Z</time></trkpt><trkpt lat="37.47597078678029" lon="14.064637861631121"><ele>501.0</ele><time>2026-03-29T11:07:48.001Z</time></trkpt><trkpt lat="37.47602166371638" lon="14.064900816258247"><ele>499.33333333333337</ele><time>2026-03-29T11:07:49.001Z</time></trkpt><trkpt lat="37.47606478475578" lon="14.065162634961704"><ele>497.6666666666667</ele><time>2026-03-29T11:07:50.001Z</time></trkpt><trkpt lat="37.47610921238059" lon="14.06542594972346"><ele>496.0</ele><time>2026-03-29T11:07:51.001Z</time></trkpt><trkpt lat="37.47615693361784" lon="14.065692316910125"><ele>497.6666666666667</ele><time>2026-03-29T11:07:52.001Z</time></trkpt><trkpt lat="37.47619267713305" lon="14.065945793424001"><ele>499.33333333333337</ele><time>2026-03-29T11:07:53.001Z</time></trkpt><trkpt lat="37.476221941229205" lon="14.066221100925654"><ele>501.0</ele><time>2026-03-29T11:07:54.001Z</time></trkpt><trkpt lat="37.476250473482395" lon="14.066514694529635"><ele>490.5</ele><time>2026-03-29T11:07:55.001Z</time></trkpt><trkpt lat="37.47628507144135" lon="14.066824748918972"><ele>480.0</ele><time>2026-03-29T11:07:56.001Z</time></trkpt><trkpt lat="37.476320862735236" lon="14.067139936943077"><ele>479.0</ele><time>2026-03-29T11:07:57.001Z</time></trkpt><trkpt lat="37.47635456158957" lon="14.06745545265594"><ele>478.0</ele><time>2026-03-29T11:07:58.001Z</time></trkpt><trkpt lat="37.476386682514395" lon="14.067780819562639"><ele>478.0</ele><time>2026-03-29T11:07:59.001Z</time></trkpt><trkpt lat="37.476415879979996" lon="14.068108584508815"><ele>478.0</ele><time>2026-03-29T11:08:00.001Z</time></trkpt><trkpt lat="37.47644010658961" lon="14.068434648783159"><ele>478.5</ele><time>2026-03-29T11:08:01.001Z</time></trkpt><trkpt lat="37.476456198769036" lon="14.068763250563094"><ele>479.0</ele><time>2026-03-29T11:08:02.001Z</time></trkpt><trkpt lat="37.47646155533386" lon="14.06908793583695"><ele>477.0</ele><time>2026-03-29T11:08:03.001Z</time></trkpt><trkpt lat="37.47645862701543" lon="14.069411980021272"><ele>475.0</ele><time>2026-03-29T11:08:04.001Z</time></trkpt><trkpt lat="37.47644335902438" lon="14.069733194098825"><ele>472.5</ele><time>2026-03-29T11:08:05.002Z</time></trkpt><trkpt lat="37.47642497737472" lon="14.070051700305456"><ele>470.0</ele><time>2026-03-29T11:08:06.002Z</time></trkpt><trkpt lat="37.47640188631121" lon="14.070373060862684"><ele>470.0</ele><time>2026-03-29T11:08:07.002Z</time></trkpt><trkpt lat="37.47637359121482" lon="14.070690593235101"><ele>470.0</ele><time>2026-03-29T11:08:08.002Z</time></trkpt><trkpt lat="37.476338595578525" lon="14.070993937368089"><ele>467.5</ele><time>2026-03-29T11:08:09.002Z</time></trkpt><trkpt lat="37.47630100189129" lon="14.071295528484919"><ele>465.0</ele><time>2026-03-29T11:08:10.002Z</time></trkpt><trkpt lat="37.476259849130464" lon="14.071592753250929"><ele>468.5</ele><time>2026-03-29T11:08:11.002Z</time></trkpt><trkpt lat="37.47621657026548" lon="14.071887934395184"><ele>472.0</ele><time>2026-03-29T11:08:12.002Z</time></trkpt><trkpt lat="37.476173778098634" lon="14.072182194333339"><ele>468.5</ele><time>2026-03-29T11:08:13.002Z</time></trkpt><trkpt lat="37.47612941048592" lon="14.072478039687693"><ele>465.0</ele><time>2026-03-29T11:08:14.002Z</time></trkpt><trkpt lat="37.47608390390866" lon="14.0727744636481"><ele>465.0</ele><time>2026-03-29T11:08:15.002Z</time></trkpt><trkpt lat="37.47603899175124" lon="14.073069865987062"><ele>465.0</ele><time>2026-03-29T11:08:16.002Z</time></trkpt><trkpt lat="37.47599862561837" lon="14.073364234356937"><ele>461.0</ele><time>2026-03-29T11:08:17.002Z</time></trkpt><trkpt lat="37.475961473277366" lon="14.073661970336488"><ele>457.0</ele><time>2026-03-29T11:08:18.002Z</time></trkpt><trkpt lat="37.4759277009994" lon="14.07396162604843"><ele>456.0</ele><time>2026-03-29T11:08:19.002Z</time></trkpt><trkpt lat="37.47590175987585" lon="14.074260618003029"><ele>455.0</ele><time>2026-03-29T11:08:20.002Z</time></trkpt><trkpt lat="37.475880905415025" lon="14.074562279922135"><ele>455.0</ele><time>2026-03-29T11:08:21.002Z</time></trkpt><trkpt lat="37.47586786305564" lon="14.074855785466644"><ele>455.0</ele><time>2026-03-29T11:08:22.002Z</time></trkpt><trkpt lat="37.47586332811391" lon="14.075133990544968"><ele>453.66666666666663</ele><time>2026-03-29T11:08:23.002Z</time></trkpt><trkpt lat="37.475866244241836" lon="14.075402096410008"><ele>452.33333333333337</ele><time>2026-03-29T11:08:24.002Z</time></trkpt><trkpt lat="37.47587232146412" lon="14.075657084456349"><ele>451.0</ele><time>2026-03-29T11:08:25.002Z</time></trkpt><trkpt lat="37.475880020373125" lon="14.07590220331961"><ele>449.0</ele><time>2026-03-29T11:08:26.002Z</time></trkpt><trkpt lat="37.475894163406025" lon="14.076147985661436"><ele>447.0</ele><time>2026-03-29T11:08:27.002Z</time></trkpt><trkpt lat="37.4759055671751" lon="14.076399298823231"><ele>445.0</ele><time>2026-03-29T11:08:28.002Z</time></trkpt><trkpt lat="37.47591744968285" lon="14.076655696205405"><ele>445.0</ele><time>2026-03-29T11:08:29.002Z</time></trkpt><trkpt lat="37.47593100891219" lon="14.076913269378563"><ele>445.0</ele><time>2026-03-29T11:08:30.002Z</time></trkpt><trkpt lat="37.47594501374985" lon="14.077177393930517"><ele>445.0</ele><time>2026-03-29T11:08:31.002Z</time></trkpt><trkpt lat="37.475960286229714" lon="14.077449319171505"><ele>443.6666666666667</ele><time>2026-03-29T11:08:32.002Z</time></trkpt><trkpt lat="37.47597472789307" lon="14.077727692952525"><ele>442.33333333333337</ele><time>2026-03-29T11:08:33.002Z</time></trkpt><trkpt lat="37.475989655352215" lon="14.078014295392785"><ele>441.0</ele><time>2026-03-29T11:08:34.002Z</time></trkpt><trkpt lat="37.476003390230915" lon="14.078309776343113"><ele>440.0</ele><time>2026-03-29T11:08:35.002Z</time></trkpt><trkpt lat="37.476018317378276" lon="14.078610780258321"><ele>439.0</ele><time>2026-03-29T11:08:36.002Z</time></trkpt><trkpt lat="37.47603358334299" lon="14.078919506225446"><ele>435.0</ele><time>2026-03-29T11:08:37.002Z</time></trkpt><trkpt lat="37.47604996299516" lon="14.079228027497336"><ele>431.0</ele><time>2026-03-29T11:08:38.002Z</time></trkpt><trkpt lat="37.47606544625772" lon="14.079545923311395"><ele>431.0</ele><time>2026-03-29T11:08:39.002Z</time></trkpt><trkpt lat="37.476081351440506" lon="14.079864669688284"><ele>431.0</ele><time>2026-03-29T11:08:40.002Z</time></trkpt><trkpt lat="37.47610180524102" lon="14.08018547226749"><ele>427.5</ele><time>2026-03-29T11:08:41.002Z</time></trkpt><trkpt lat="37.47611884672479" lon="14.08050774563021"><ele>424.0</ele><time>2026-03-29T11:08:42.002Z</time></trkpt><trkpt lat="37.47613501609867" lon="14.080826641130104"><ele>422.0</ele><time>2026-03-29T11:08:43.002Z</time></trkpt><trkpt lat="37.476152324531014" lon="14.081149321887006"><ele>420.0</ele><time>2026-03-29T11:08:44.002Z</time></trkpt><trkpt lat="37.47616878307319" lon="14.081473932341234"><ele>419.0</ele><time>2026-03-29T11:08:45.002Z</time></trkpt><trkpt lat="37.47617848380638" lon="14.081798752216992"><ele>418.0</ele><time>2026-03-29T11:08:46.002Z</time></trkpt><trkpt lat="37.476187817225366" lon="14.082121461473518"><ele>417.5</ele><time>2026-03-29T11:08:47.002Z</time></trkpt><trkpt lat="37.47619256746492" lon="14.082441380291792"><ele>417.0</ele><time>2026-03-29T11:08:48.002Z</time></trkpt><trkpt lat="37.47619339740164" lon="14.08276144058418"><ele>417.0</ele><time>2026-03-29T11:08:49.002Z</time></trkpt><trkpt lat="37.476186884677865" lon="14.083077476381458"><ele>417.0</ele><time>2026-03-29T11:08:50.002Z</time></trkpt><trkpt lat="37.47616986421101" lon="14.083396547186094"><ele>415.5</ele><time>2026-03-29T11:08:51.002Z</time></trkpt><trkpt lat="37.4761412073994" lon="14.08371543095406"><ele>414.0</ele><time>2026-03-29T11:08:52.002Z</time></trkpt><trkpt lat="37.476101208414626" lon="14.084031350334746"><ele>411.5</ele><time>2026-03-29T11:08:53.002Z</time></trkpt><trkpt lat="37.47605661729409" lon="14.084346655301584"><ele>409.0</ele><time>2026-03-29T11:08:54.002Z</time></trkpt><trkpt lat="37.4760035124899" lon="14.084658478224547"><ele>408.0</ele><time>2026-03-29T11:08:55.003Z</time></trkpt><trkpt lat="37.475941313355364" lon="14.084966232024215"><ele>407.0</ele><time>2026-03-29T11:08:56.003Z</time></trkpt><trkpt lat="37.4758766414922" lon="14.085270374203201"><ele>407.0</ele><time>2026-03-29T11:08:57.003Z</time></trkpt><trkpt lat="37.475801445239036" lon="14.085563738800737"><ele>407.0</ele><time>2026-03-29T11:08:58.003Z</time></trkpt><trkpt lat="37.47572192799148" lon="14.085847709921246"><ele>405.0</ele><time>2026-03-29T11:08:59.003Z</time></trkpt><trkpt lat="37.47563380442922" lon="14.086129015932164"><ele>403.0</ele><time>2026-03-29T11:09:00.003Z</time></trkpt><trkpt lat="37.475538331025255" lon="14.08640701730219"><ele>398.5</ele><time>2026-03-29T11:09:01.003Z</time></trkpt><trkpt lat="37.475433782817746" lon="14.086679332689494"><ele>394.0</ele><time>2026-03-29T11:09:02.003Z</time></trkpt><trkpt lat="37.47532137013199" lon="14.086951665268298"><ele>394.0</ele><time>2026-03-29T11:09:03.003Z</time></trkpt><trkpt lat="37.47520332280795" lon="14.087220499629609"><ele>394.0</ele><time>2026-03-29T11:09:04.003Z</time></trkpt><trkpt lat="37.47508129243551" lon="14.087484741213142"><ele>388.5</ele><time>2026-03-29T11:09:05.003Z</time></trkpt><trkpt lat="37.47494267846606" lon="14.087732432452386"><ele>383.0</ele><time>2026-03-29T11:09:06.003Z</time></trkpt><trkpt lat="37.47481424018157" lon="14.087985534301126"><ele>383.0</ele><time>2026-03-29T11:09:07.003Z</time></trkpt><trkpt lat="37.474697961680505" lon="14.088248540820407"><ele>383.0</ele><time>2026-03-29T11:09:08.003Z</time></trkpt><trkpt lat="37.474568667481925" lon="14.088497591990906"><ele>379.0</ele><time>2026-03-29T11:09:09.003Z</time></trkpt><trkpt lat="37.47443823953525" lon="14.088744980881104"><ele>375.0</ele><time>2026-03-29T11:09:10.003Z</time></trkpt><trkpt lat="37.474306152898386" lon="14.088991519478519"><ele>371.5</ele><time>2026-03-29T11:09:11.003Z</time></trkpt><trkpt lat="37.47417488344329" lon="14.089239103476027"><ele>368.0</ele><time>2026-03-29T11:09:12.003Z</time></trkpt><trkpt lat="37.47404521746677" lon="14.089486374666631"><ele>368.0</ele><time>2026-03-29T11:09:13.003Z</time></trkpt><trkpt lat="37.473916830017565" lon="14.089732609116918"><ele>368.0</ele><time>2026-03-29T11:09:14.003Z</time></trkpt><trkpt lat="37.47378752889631" lon="14.089977491638509"><ele>365.0</ele><time>2026-03-29T11:09:15.003Z</time></trkpt><trkpt lat="37.47365947647529" lon="14.090223374432467"><ele>362.0</ele><time>2026-03-29T11:09:16.003Z</time></trkpt><trkpt lat="37.47353180920746" lon="14.090469846107935"><ele>362.0</ele><time>2026-03-29T11:09:17.003Z</time></trkpt><trkpt lat="37.47340298054521" lon="14.090717495829916"><ele>362.0</ele><time>2026-03-29T11:09:18.003Z</time></trkpt><trkpt lat="37.47327585080816" lon="14.090966464179546"><ele>363.0</ele><time>2026-03-29T11:09:19.003Z</time></trkpt><trkpt lat="37.4731469714325" lon="14.091215888757834"><ele>364.0</ele><time>2026-03-29T11:09:20.003Z</time></trkpt><trkpt lat="37.473016791279285" lon="14.09146441931427"><ele>369.5</ele><time>2026-03-29T11:09:21.001Z</time></trkpt><trkpt lat="37.472885295027034" lon="14.091714727604034"><ele>375.0</ele><time>2026-03-29T11:09:22.001Z</time></trkpt><trkpt lat="37.472753964633206" lon="14.091965170300943"><ele>375.0</ele><time>2026-03-29T11:09:23.001Z</time></trkpt><trkpt lat="37.47262362955609" lon="14.092215724956596"><ele>375.0</ele><time>2026-03-29T11:09:24.001Z</time></trkpt><trkpt lat="37.47249352054386" lon="14.092467021631602"><ele>368.5</ele><time>2026-03-29T11:09:25.001Z</time></trkpt><trkpt lat="37.47236355698138" lon="14.09271779411231"><ele>362.0</ele><time>2026-03-29T11:09:26.001Z</time></trkpt><trkpt lat="37.472233697028614" lon="14.092965798567935"><ele>363.5</ele><time>2026-03-29T11:09:27.001Z</time></trkpt><trkpt lat="37.472103122808655" lon="14.0932158892307"><ele>365.0</ele><time>2026-03-29T11:09:28.001Z</time></trkpt><trkpt lat="37.47195979461258" lon="14.093451019132816"><ele>365.0</ele><time>2026-03-29T11:09:29.001Z</time></trkpt><trkpt lat="37.47182746636546" lon="14.093702456859456"><ele>365.0</ele><time>2026-03-29T11:09:30.001Z</time></trkpt><trkpt lat="37.471710407471406" lon="14.093964586588406"><ele>359.0</ele><time>2026-03-29T11:09:31.001Z</time></trkpt><trkpt lat="37.47157945623349" lon="14.094213099984257"><ele>353.0</ele><time>2026-03-29T11:09:32.001Z</time></trkpt><trkpt lat="37.47144703395601" lon="14.094463227543875"><ele>353.0</ele><time>2026-03-29T11:09:33.001Z</time></trkpt><trkpt lat="37.47131385897404" lon="14.094709386090923"><ele>353.0</ele><time>2026-03-29T11:09:34.001Z</time></trkpt><trkpt lat="37.471178274158" lon="14.0949536488835"><ele>350.0</ele><time>2026-03-29T11:09:35.001Z</time></trkpt><trkpt lat="37.47102600052099" lon="14.09517988624552"><ele>347.0</ele><time>2026-03-29T11:09:36.001Z</time></trkpt><trkpt lat="37.47089467882445" lon="14.095425006386645"><ele>347.0</ele><time>2026-03-29T11:09:37.001Z</time></trkpt><trkpt lat="37.470741583058015" lon="14.095655796392757"><ele>347.0</ele><time>2026-03-29T11:09:38.001Z</time></trkpt><trkpt lat="37.47058561640222" lon="14.095880181483254"><ele>349.0</ele><time>2026-03-29T11:09:39.001Z</time></trkpt><trkpt lat="37.470422869598856" lon="14.09609508742211"><ele>351.0</ele><time>2026-03-29T11:09:40.001Z</time></trkpt><trkpt lat="37.47024251241283" lon="14.096285365954385"><ele>351.0</ele><time>2026-03-29T11:09:41.001Z</time></trkpt><trkpt lat="37.470078684556334" lon="14.096497285002725"><ele>351.0</ele><time>2026-03-29T11:09:42.001Z</time></trkpt><trkpt lat="37.46988242932512" lon="14.096671628681758"><ele>349.5</ele><time>2026-03-29T11:09:43.001Z</time></trkpt><trkpt lat="37.469702508645526" lon="14.096869940007515"><ele>348.0</ele><time>2026-03-29T11:09:44.001Z</time></trkpt><trkpt lat="37.46950684568577" lon="14.097043432320152"><ele>348.0</ele><time>2026-03-29T11:09:45.001Z</time></trkpt><trkpt lat="37.46930857721227" lon="14.097203684656687"><ele>348.0</ele><time>2026-03-29T11:09:46.001Z</time></trkpt><trkpt lat="37.46910699771223" lon="14.097354770048495"><ele>340.5</ele><time>2026-03-29T11:09:47.001Z</time></trkpt><trkpt lat="37.46890141076838" lon="14.097493504791782"><ele>333.0</ele><time>2026-03-29T11:09:48.001Z</time></trkpt><trkpt lat="37.468692691594015" lon="14.09762549934663"><ele>330.0</ele><time>2026-03-29T11:09:49.001Z</time></trkpt><trkpt lat="37.46848148722118" lon="14.097748195674914"><ele>327.0</ele><time>2026-03-29T11:09:50.001Z</time></trkpt><trkpt lat="37.46826929256966" lon="14.097866509005263"><ele>327.0</ele><time>2026-03-29T11:09:51.001Z</time></trkpt><trkpt lat="37.46804319373538" lon="14.097962616634746"><ele>327.0</ele><time>2026-03-29T11:09:52.001Z</time></trkpt><trkpt lat="37.46782930606303" lon="14.098067857775549"><ele>326.0</ele><time>2026-03-29T11:09:53.001Z</time></trkpt><trkpt lat="37.46761479374946" lon="14.098170453558897"><ele>325.0</ele><time>2026-03-29T11:09:54.001Z</time></trkpt><trkpt lat="37.46740089918187" lon="14.098269070930934"><ele>321.3333333333333</ele><time>2026-03-29T11:09:55.001Z</time></trkpt><trkpt lat="37.46719338204236" lon="14.098364782585564"><ele>317.6666666666667</ele><time>2026-03-29T11:09:56.001Z</time></trkpt><trkpt lat="37.46698220922641" lon="14.098466129868555"><ele>314.0</ele><time>2026-03-29T11:09:57.001Z</time></trkpt><trkpt lat="37.466766539967864" lon="14.098592771054344"><ele>309.5</ele><time>2026-03-29T11:09:58.001Z</time></trkpt><trkpt lat="37.46653634944144" lon="14.09868510252075"><ele>305.0</ele><time>2026-03-29T11:09:59.001Z</time></trkpt><trkpt lat="37.46632213433504" lon="14.098790308827478"><ele>305.0</ele><time>2026-03-29T11:10:00.001Z</time></trkpt><trkpt lat="37.466134735884076" lon="14.098940800376937"><ele>305.0</ele><time>2026-03-29T11:10:01.001Z</time></trkpt><trkpt lat="37.465939891681494" lon="14.099059829783526"><ele>305.0</ele><time>2026-03-29T11:10:02.001Z</time></trkpt><trkpt lat="37.46574573689678" lon="14.09918641794687"><ele>304.6666666666667</ele><time>2026-03-29T11:10:03.001Z</time></trkpt><trkpt lat="37.465559030955575" lon="14.09931490196668"><ele>304.3333333333333</ele><time>2026-03-29T11:10:04.001Z</time></trkpt><trkpt lat="37.46537583764542" lon="14.099450856321996"><ele>304.0</ele><time>2026-03-29T11:10:05.001Z</time></trkpt><trkpt lat="37.46519517212924" lon="14.099593594260202"><ele>304.0</ele><time>2026-03-29T11:10:06.001Z</time></trkpt><trkpt lat="37.465010436334474" lon="14.099753019228848"><ele>304.0</ele><time>2026-03-29T11:10:07.001Z</time></trkpt><trkpt lat="37.46482284090738" lon="14.099925609510422"><ele>304.5</ele><time>2026-03-29T11:10:08.001Z</time></trkpt><trkpt lat="37.4646346124932" lon="14.100102497948996"><ele>305.0</ele><time>2026-03-29T11:10:09.001Z</time></trkpt><trkpt lat="37.464440182481404" lon="14.10028974480051"><ele>305.0</ele><time>2026-03-29T11:10:10.001Z</time></trkpt><trkpt lat="37.46423663794203" lon="14.100492933966956"><ele>305.0</ele><time>2026-03-29T11:10:11.001Z</time></trkpt><trkpt lat="37.46402315885422" lon="14.10070617327382"><ele>298.5</ele><time>2026-03-29T11:10:12.001Z</time></trkpt><trkpt lat="37.46380307571235" lon="14.100923478697457"><ele>292.0</ele><time>2026-03-29T11:10:13.001Z</time></trkpt><trkpt lat="37.46357945674072" lon="14.101139040222973"><ele>290.5</ele><time>2026-03-29T11:10:14.001Z</time></trkpt><trkpt lat="37.46335476575785" lon="14.101357517848124"><ele>289.0</ele><time>2026-03-29T11:10:15.001Z</time></trkpt><trkpt lat="37.46313255445514" lon="14.101572322209796"><ele>284.0</ele><time>2026-03-29T11:10:16.001Z</time></trkpt><trkpt lat="37.46291123729676" lon="14.101787466368819"><ele>279.0</ele><time>2026-03-29T11:10:17.001Z</time></trkpt><trkpt lat="37.46269032074288" lon="14.102003374296148"><ele>279.0</ele><time>2026-03-29T11:10:18.001Z</time></trkpt><trkpt lat="37.46247106337116" lon="14.102216035050102"><ele>279.0</ele><time>2026-03-29T11:10:19.001Z</time></trkpt><trkpt lat="37.4622530817281" lon="14.102428675155867"><ele>274.5</ele><time>2026-03-29T11:10:20.001Z</time></trkpt><trkpt lat="37.462036708656626" lon="14.102640679302594"><ele>270.0</ele><time>2026-03-29T11:10:21.002Z</time></trkpt><trkpt lat="37.46182162677847" lon="14.10285135793896"><ele>270.0</ele><time>2026-03-29T11:10:22.002Z</time></trkpt><trkpt lat="37.46160693073242" lon="14.103062358865895"><ele>270.0</ele><time>2026-03-29T11:10:23.002Z</time></trkpt><trkpt lat="37.461391153761014" lon="14.103275029934833"><ele>269.5</ele><time>2026-03-29T11:10:24.002Z</time></trkpt><trkpt lat="37.46117431575451" lon="14.103487264025516"><ele>269.0</ele><time>2026-03-29T11:10:25.002Z</time></trkpt><trkpt lat="37.46095624092313" lon="14.103699748094844"><ele>269.0</ele><time>2026-03-29T11:10:26.002Z</time></trkpt><trkpt lat="37.46073967256198" lon="14.103911042471005"><ele>269.0</ele><time>2026-03-29T11:10:27.002Z</time></trkpt><trkpt lat="37.46052407689072" lon="14.104122960529876"><ele>268.0</ele><time>2026-03-29T11:10:28.002Z</time></trkpt><trkpt lat="37.46030811402308" lon="14.104336463309998"><ele>267.0</ele><time>2026-03-29T11:10:29.002Z</time></trkpt><trkpt lat="37.460093844654" lon="14.104549145914602"><ele>267.0</ele><time>2026-03-29T11:10:30.002Z</time></trkpt><trkpt lat="37.45987868696502" lon="14.10476460418283"><ele>267.0</ele><time>2026-03-29T11:10:31.002Z</time></trkpt><trkpt lat="37.459664611865705" lon="14.104979503483138"><ele>264.5</ele><time>2026-03-29T11:10:32.002Z</time></trkpt><trkpt lat="37.45944971780951" lon="14.105191848367935"><ele>262.0</ele><time>2026-03-29T11:10:33.002Z</time></trkpt><trkpt lat="37.45923376806064" lon="14.10540454878265"><ele>262.0</ele><time>2026-03-29T11:10:34.002Z</time></trkpt><trkpt lat="37.459017482348415" lon="14.105617582881763"><ele>262.0</ele><time>2026-03-29T11:10:35.002Z</time></trkpt><trkpt lat="37.45880122405354" lon="14.105829824699995"><ele>260.0</ele><time>2026-03-29T11:10:36.002Z</time></trkpt><trkpt lat="37.458585759397074" lon="14.106041805519517"><ele>258.0</ele><time>2026-03-29T11:10:37.002Z</time></trkpt><trkpt lat="37.45837370318164" lon="14.106252137745411"><ele>258.0</ele><time>2026-03-29T11:10:38.002Z</time></trkpt><trkpt lat="37.45816220651846" lon="14.106462827399094"><ele>258.0</ele><time>2026-03-29T11:10:39.002Z</time></trkpt><trkpt lat="37.45794967419509" lon="14.106672254242133"><ele>257.0</ele><time>2026-03-29T11:10:40.002Z</time></trkpt><trkpt lat="37.45773600579552" lon="14.106880635459818"><ele>256.0</ele><time>2026-03-29T11:10:41.002Z</time></trkpt><trkpt lat="37.45752293181014" lon="14.107086359223322"><ele>256.0</ele><time>2026-03-29T11:10:42.002Z</time></trkpt><trkpt lat="37.45731152247879" lon="14.107292182777257"><ele>256.0</ele><time>2026-03-29T11:10:43.002Z</time></trkpt><trkpt lat="37.457101263487246" lon="14.107501182172207"><ele>254.5</ele><time>2026-03-29T11:10:44.002Z</time></trkpt><trkpt lat="37.45689095040415" lon="14.107709615108035"><ele>253.0</ele><time>2026-03-29T11:10:45.002Z</time></trkpt><trkpt lat="37.45667936707927" lon="14.107918055194165"><ele>253.0</ele><time>2026-03-29T11:10:46.002Z</time></trkpt><trkpt lat="37.45646977430905" lon="14.108125673204418"><ele>253.0</ele><time>2026-03-29T11:10:47.002Z</time></trkpt><trkpt lat="37.45626537784113" lon="14.108325844453642"><ele>251.5</ele><time>2026-03-29T11:10:48.002Z</time></trkpt><trkpt lat="37.45605773866971" lon="14.108527719344975"><ele>250.0</ele><time>2026-03-29T11:10:49.002Z</time></trkpt><trkpt lat="37.455851002814086" lon="14.108730437869484"><ele>250.0</ele><time>2026-03-29T11:10:50.002Z</time></trkpt><trkpt lat="37.45564489385152" lon="14.108931685702702"><ele>250.0</ele><time>2026-03-29T11:10:51.002Z</time></trkpt><trkpt lat="37.45543727958148" lon="14.109134665666739"><ele>249.0</ele><time>2026-03-29T11:10:52.002Z</time></trkpt><trkpt lat="37.45522859476926" lon="14.10933912165931"><ele>248.0</ele><time>2026-03-29T11:10:53.002Z</time></trkpt><trkpt lat="37.45501985953837" lon="14.109545047783795"><ele>248.0</ele><time>2026-03-29T11:10:54.002Z</time></trkpt><trkpt lat="37.454812055011864" lon="14.10975302055852"><ele>248.0</ele><time>2026-03-29T11:10:55.002Z</time></trkpt><trkpt lat="37.454602687539804" lon="14.109960964643978"><ele>245.5</ele><time>2026-03-29T11:10:56.002Z</time></trkpt><trkpt lat="37.45439299667206" lon="14.110169583448641"><ele>243.0</ele><time>2026-03-29T11:10:57.002Z</time></trkpt><trkpt lat="37.45418357524701" lon="14.110376133149225"><ele>243.0</ele><time>2026-03-29T11:10:58.002Z</time></trkpt><trkpt lat="37.45397492868061" lon="14.110581440098471"><ele>243.0</ele><time>2026-03-29T11:10:59.002Z</time></trkpt><trkpt lat="37.45376586428078" lon="14.110788146167446"><ele>243.5</ele><time>2026-03-29T11:11:00.002Z</time></trkpt><trkpt lat="37.45355658065402" lon="14.110997965019688"><ele>244.0</ele><time>2026-03-29T11:11:01.002Z</time></trkpt><trkpt lat="37.45334884617773" lon="14.111200160118807"><ele>244.0</ele><time>2026-03-29T11:11:02.002Z</time></trkpt><trkpt lat="37.45313945732883" lon="14.111404171527104"><ele>244.0</ele><time>2026-03-29T11:11:03.002Z</time></trkpt><trkpt lat="37.45293358627364" lon="14.111606386305684"><ele>242.0</ele><time>2026-03-29T11:11:04.002Z</time></trkpt><trkpt lat="37.45272857593067" lon="14.111806967330592"><ele>240.0</ele><time>2026-03-29T11:11:05.002Z</time></trkpt><trkpt lat="37.452524076722185" lon="14.112007845683843"><ele>240.0</ele><time>2026-03-29T11:11:06.002Z</time></trkpt><trkpt lat="37.45232083062165" lon="14.112208083903091"><ele>240.0</ele><time>2026-03-29T11:11:07.002Z</time></trkpt><trkpt lat="37.452117723235894" lon="14.11240805398143"><ele>239.5</ele><time>2026-03-29T11:11:08.002Z</time></trkpt><trkpt lat="37.451917733719" lon="14.112607997215056"><ele>239.0</ele><time>2026-03-29T11:11:09.002Z</time></trkpt><trkpt lat="37.45171880389981" lon="14.112807519131376"><ele>239.0</ele><time>2026-03-29T11:11:10.002Z</time></trkpt><trkpt lat="37.451520636306675" lon="14.113005868688075"><ele>239.0</ele><time>2026-03-29T11:11:11.002Z</time></trkpt><trkpt lat="37.45132235644165" lon="14.113203063750033"><ele>241.5</ele><time>2026-03-29T11:11:12.002Z</time></trkpt><trkpt lat="37.45112402270299" lon="14.113398532224757"><ele>244.0</ele><time>2026-03-29T11:11:13.002Z</time></trkpt><trkpt lat="37.45092652308045" lon="14.113593613108891"><ele>244.0</ele><time>2026-03-29T11:11:14.003Z</time></trkpt><trkpt lat="37.450728641261826" lon="14.113789111285262"><ele>244.0</ele><time>2026-03-29T11:11:15.003Z</time></trkpt><trkpt lat="37.450532830571916" lon="14.11398367259083"><ele>246.5</ele><time>2026-03-29T11:11:16.003Z</time></trkpt><trkpt lat="37.450337925079346" lon="14.114177380572757"><ele>249.0</ele><time>2026-03-29T11:11:17.003Z</time></trkpt><trkpt lat="37.45014240862779" lon="14.114371468309269"><ele>249.0</ele><time>2026-03-29T11:11:18.003Z</time></trkpt><trkpt lat="37.44994756378647" lon="14.114565960722096"><ele>249.0</ele><time>2026-03-29T11:11:19.003Z</time></trkpt><trkpt lat="37.449751732589085" lon="14.114758859284356"><ele>251.5</ele><time>2026-03-29T11:11:20.003Z</time></trkpt><trkpt lat="37.44955582388016" lon="14.114952224762696"><ele>254.0</ele><time>2026-03-29T11:11:21.003Z</time></trkpt><trkpt lat="37.44935861088847" lon="14.115148039888759"><ele>254.0</ele><time>2026-03-29T11:11:22.003Z</time></trkpt><trkpt lat="37.449158856596455" lon="14.115344855092333"><ele>254.0</ele><time>2026-03-29T11:11:23.003Z</time></trkpt><trkpt lat="37.44895924776892" lon="14.115541423740336"><ele>256.0</ele><time>2026-03-29T11:11:24.003Z</time></trkpt><trkpt lat="37.448759320885806" lon="14.115739055317608"><ele>258.0</ele><time>2026-03-29T11:11:25.003Z</time></trkpt><trkpt lat="37.44856069864774" lon="14.11593671963763"><ele>258.0</ele><time>2026-03-29T11:11:26.003Z</time></trkpt><trkpt lat="37.44836120550333" lon="14.116134281411979"><ele>258.0</ele><time>2026-03-29T11:11:27.001Z</time></trkpt><trkpt lat="37.44816168138769" lon="14.116332724029885"><ele>258.0</ele><time>2026-03-29T11:11:28.001Z</time></trkpt><trkpt lat="37.44796354931057" lon="14.116535628875118"><ele>258.0</ele><time>2026-03-29T11:11:29.001Z</time></trkpt><trkpt lat="37.44776694727205" lon="14.116747594139495"><ele>262.5</ele><time>2026-03-29T11:11:30.001Z</time></trkpt><trkpt lat="37.447573059585814" lon="14.116961960585583"><ele>267.0</ele><time>2026-03-29T11:11:31.001Z</time></trkpt><trkpt lat="37.447384502294845" lon="14.11718017405734"><ele>267.0</ele><time>2026-03-29T11:11:32.001Z</time></trkpt><trkpt lat="37.447200873821515" lon="14.117407021075104"><ele>267.0</ele><time>2026-03-29T11:11:33.001Z</time></trkpt><trkpt lat="37.44702568159427" lon="14.11764118399811"><ele>269.5</ele><time>2026-03-29T11:11:34.001Z</time></trkpt><trkpt lat="37.44685934483718" lon="14.117887911679436"><ele>272.0</ele><time>2026-03-29T11:11:35.001Z</time></trkpt><trkpt lat="37.44670249632798" lon="14.118141861672626"><ele>273.0</ele><time>2026-03-29T11:11:36.001Z</time></trkpt><trkpt lat="37.44655761374813" lon="14.118403918909534"><ele>274.0</ele><time>2026-03-29T11:11:37.001Z</time></trkpt><trkpt lat="37.446425999523214" lon="14.118679161514796"><ele>274.0</ele><time>2026-03-29T11:11:38.001Z</time></trkpt><trkpt lat="37.44630373330796" lon="14.118959253655946"><ele>274.0</ele><time>2026-03-29T11:11:39.001Z</time></trkpt><trkpt lat="37.44619041100186" lon="14.119245934606997"><ele>282.5</ele><time>2026-03-29T11:11:40.001Z</time></trkpt><trkpt lat="37.44608344603033" lon="14.119536605172522"><ele>291.0</ele><time>2026-03-29T11:11:41.001Z</time></trkpt><trkpt lat="37.445963822783426" lon="14.11982537246381"><ele>290.0</ele><time>2026-03-29T11:11:42.001Z</time></trkpt><trkpt lat="37.44588058921046" lon="14.12013769526337"><ele>289.0</ele><time>2026-03-29T11:11:43.001Z</time></trkpt><trkpt lat="37.44578478902168" lon="14.120445086667317"><ele>288.5</ele><time>2026-03-29T11:11:44.001Z</time></trkpt><trkpt lat="37.445690645772814" lon="14.120755088436024"><ele>288.0</ele><time>2026-03-29T11:11:45.001Z</time></trkpt><trkpt lat="37.44559817657005" lon="14.121066914980107"><ele>288.0</ele><time>2026-03-29T11:11:46.001Z</time></trkpt><trkpt lat="37.44550356229942" lon="14.121380409578277"><ele>288.0</ele><time>2026-03-29T11:11:47.001Z</time></trkpt><trkpt lat="37.445403930116015" lon="14.121695902033341"><ele>294.5</ele><time>2026-03-29T11:11:48.001Z</time></trkpt><trkpt lat="37.44530102563754" lon="14.122009448819565"><ele>301.0</ele><time>2026-03-29T11:11:49.001Z</time></trkpt><trkpt lat="37.44519263354686" lon="14.122323811313978"><ele>302.5</ele><time>2026-03-29T11:11:50.001Z</time></trkpt><trkpt lat="37.4450778679441" lon="14.12263605598573"><ele>304.0</ele><time>2026-03-29T11:11:51.001Z</time></trkpt><trkpt lat="37.44495497083036" lon="14.122945633191112"><ele>306.0</ele><time>2026-03-29T11:11:52.001Z</time></trkpt><trkpt lat="37.44482158890239" lon="14.123246689559446"><ele>308.0</ele><time>2026-03-29T11:11:53.001Z</time></trkpt><trkpt lat="37.44467641402263" lon="14.12353961109856"><ele>308.5</ele><time>2026-03-29T11:11:54.001Z</time></trkpt><trkpt lat="37.444521294433166" lon="14.12382009952051"><ele>309.0</ele><time>2026-03-29T11:11:55.001Z</time></trkpt><trkpt lat="37.4443516785193" lon="14.124086389545724"><ele>306.0</ele><time>2026-03-29T11:11:56.001Z</time></trkpt><trkpt lat="37.444170151473216" lon="14.124335117548128"><ele>303.0</ele><time>2026-03-29T11:11:57.001Z</time></trkpt><trkpt lat="37.44397260825505" lon="14.124563510946917"><ele>302.0</ele><time>2026-03-29T11:11:58.001Z</time></trkpt><trkpt lat="37.44376307741545" lon="14.124772123379474"><ele>301.0</ele><time>2026-03-29T11:11:59.001Z</time></trkpt><trkpt lat="37.44354146993098" lon="14.124964768577735"><ele>301.0</ele><time>2026-03-29T11:12:00.001Z</time></trkpt><trkpt lat="37.44331208372163" lon="14.125142778156716"><ele>301.0</ele><time>2026-03-29T11:12:01.001Z</time></trkpt><trkpt lat="37.443076748725375" lon="14.125307857384893"><ele>306.5</ele><time>2026-03-29T11:12:02.001Z</time></trkpt><trkpt lat="37.44283379116738" lon="14.125458061018577"><ele>312.0</ele><time>2026-03-29T11:12:03.001Z</time></trkpt><trkpt lat="37.442584456628644" lon="14.125592105852773"><ele>312.0</ele><time>2026-03-29T11:12:04.001Z</time></trkpt><trkpt lat="37.4423302923841" lon="14.125714356144524"><ele>312.0</ele><time>2026-03-29T11:12:05.001Z</time></trkpt><trkpt lat="37.44207350822685" lon="14.125826319667842"><ele>311.5</ele><time>2026-03-29T11:12:06.001Z</time></trkpt><trkpt lat="37.44181598114944" lon="14.125932100495072"><ele>311.0</ele><time>2026-03-29T11:12:07.001Z</time></trkpt><trkpt lat="37.4415582879844" lon="14.126033556023483"><ele>311.0</ele><time>2026-03-29T11:12:08.001Z</time></trkpt><trkpt lat="37.44130096627149" lon="14.126130337564275"><ele>311.0</ele><time>2026-03-29T11:12:09.001Z</time></trkpt><trkpt lat="37.44104476277125" lon="14.126224320891879"><ele>315.0</ele><time>2026-03-29T11:12:10.001Z</time></trkpt><trkpt lat="37.44079039427032" lon="14.126318871031065"><ele>319.0</ele><time>2026-03-29T11:12:11.001Z</time></trkpt><trkpt lat="37.440538186284044" lon="14.126412357590967"><ele>318.5</ele><time>2026-03-29T11:12:12.001Z</time></trkpt><trkpt lat="37.440288019484385" lon="14.126506873355147"><ele>318.0</ele><time>2026-03-29T11:12:13.001Z</time></trkpt><trkpt lat="37.440040957471766" lon="14.126600802411474"><ele>313.0</ele><time>2026-03-29T11:12:14.001Z</time></trkpt><trkpt lat="37.439793800053074" lon="14.126695684227046"><ele>308.0</ele><time>2026-03-29T11:12:15.001Z</time></trkpt><trkpt lat="37.43954580432783" lon="14.12678976856674"><ele>308.0</ele><time>2026-03-29T11:12:16.001Z</time></trkpt><trkpt lat="37.43929924112772" lon="14.126881981775005"><ele>308.0</ele><time>2026-03-29T11:12:17.001Z</time></trkpt><trkpt lat="37.439051426312226" lon="14.126975944350313"><ele>308.0</ele><time>2026-03-29T11:12:18.001Z</time></trkpt><trkpt lat="37.438808981589496" lon="14.127066213359594"><ele>308.0</ele><time>2026-03-29T11:12:19.001Z</time></trkpt><trkpt lat="37.43856825255524" lon="14.127155120356054"><ele>313.5</ele><time>2026-03-29T11:12:20.001Z</time></trkpt><trkpt lat="37.43832965918997" lon="14.127240354086862"><ele>319.0</ele><time>2026-03-29T11:12:21.001Z</time></trkpt><trkpt lat="37.43809003958149" lon="14.127322686950352"><ele>314.5</ele><time>2026-03-29T11:12:22.001Z</time></trkpt><trkpt lat="37.43785314950415" lon="14.127397401644371"><ele>310.0</ele><time>2026-03-29T11:12:23.001Z</time></trkpt><trkpt lat="37.43761470216104" lon="14.127460386134663"><ele>310.0</ele><time>2026-03-29T11:12:24.001Z</time></trkpt><trkpt lat="37.437373275343944" lon="14.127518945428372"><ele>310.0</ele><time>2026-03-29T11:12:25.001Z</time></trkpt><trkpt lat="37.437133893625116" lon="14.127564308454097"><ele>314.0</ele><time>2026-03-29T11:12:26.001Z</time></trkpt><trkpt lat="37.436892536884706" lon="14.127594275097227"><ele>318.0</ele><time>2026-03-29T11:12:27.001Z</time></trkpt><trkpt lat="37.43665013443016" lon="14.127612107581506"><ele>318.0</ele><time>2026-03-29T11:12:28.001Z</time></trkpt><trkpt lat="37.43640596072113" lon="14.127610385796222"><ele>318.0</ele><time>2026-03-29T11:12:29.001Z</time></trkpt><trkpt lat="37.43615974510359" lon="14.127592083703142"><ele>321.5</ele><time>2026-03-29T11:12:30.002Z</time></trkpt><trkpt lat="37.435917430553694" lon="14.127550381865511"><ele>325.0</ele><time>2026-03-29T11:12:31.002Z</time></trkpt><trkpt lat="37.43567744052434" lon="14.12748313937555"><ele>324.0</ele><time>2026-03-29T11:12:32.002Z</time></trkpt><trkpt lat="37.43543768962386" lon="14.127395463549295"><ele>323.0</ele><time>2026-03-29T11:12:33.002Z</time></trkpt><trkpt lat="37.43520500953603" lon="14.127288940178431"><ele>329.5</ele><time>2026-03-29T11:12:34.002Z</time></trkpt><trkpt lat="37.434975511985954" lon="14.127165891952652"><ele>336.0</ele><time>2026-03-29T11:12:35.002Z</time></trkpt><trkpt lat="37.4347562006423" lon="14.127026872851584"><ele>329.0</ele><time>2026-03-29T11:12:36.002Z</time></trkpt><trkpt lat="37.434542573141364" lon="14.126871565595529"><ele>322.0</ele><time>2026-03-29T11:12:37.002Z</time></trkpt><trkpt lat="37.434334076279626" lon="14.1267074843716"><ele>325.0</ele><time>2026-03-29T11:12:38.002Z</time></trkpt><trkpt lat="37.43412932320737" lon="14.126529608771117"><ele>328.0</ele><time>2026-03-29T11:12:39.002Z</time></trkpt><trkpt lat="37.433928346473486" lon="14.126342177031352"><ele>329.5</ele><time>2026-03-29T11:12:40.002Z</time></trkpt><trkpt lat="37.433729385371024" lon="14.126150718888193"><ele>331.0</ele><time>2026-03-29T11:12:41.002Z</time></trkpt><trkpt lat="37.43353337512506" lon="14.125955904414242"><ele>331.0</ele><time>2026-03-29T11:12:42.002Z</time></trkpt><trkpt lat="37.43334281087702" lon="14.125753656155748"><ele>331.0</ele><time>2026-03-29T11:12:43.002Z</time></trkpt><trkpt lat="37.43315581552345" lon="14.125552431964278"><ele>332.5</ele><time>2026-03-29T11:12:44.002Z</time></trkpt><trkpt lat="37.43297089731129" lon="14.12535266721664"><ele>334.0</ele><time>2026-03-29T11:12:45.002Z</time></trkpt><trkpt lat="37.43278634499567" lon="14.125155572786568"><ele>334.0</ele><time>2026-03-29T11:12:46.002Z</time></trkpt><trkpt lat="37.432602124802145" lon="14.124961489315847"><ele>334.0</ele><time>2026-03-29T11:12:47.002Z</time></trkpt><trkpt lat="37.43241508150405" lon="14.124771424802406"><ele>334.0</ele><time>2026-03-29T11:12:48.002Z</time></trkpt><trkpt lat="37.43222944742905" lon="14.124599872835322"><ele>334.0</ele><time>2026-03-29T11:12:49.002Z</time></trkpt><trkpt lat="37.432032488813476" lon="14.124431032028886"><ele>335.5</ele><time>2026-03-29T11:12:50.002Z</time></trkpt><trkpt lat="37.431835028798" lon="14.124273446977586"><ele>337.0</ele><time>2026-03-29T11:12:51.002Z</time></trkpt><trkpt lat="37.43163385156779" lon="14.124124355306993"><ele>343.0</ele><time>2026-03-29T11:12:52.002Z</time></trkpt><trkpt lat="37.43142619753122" lon="14.123984814293701"><ele>349.0</ele><time>2026-03-29T11:12:53.002Z</time></trkpt><trkpt lat="37.43121631874742" lon="14.123858357193061"><ele>353.0</ele><time>2026-03-29T11:12:54.002Z</time></trkpt><trkpt lat="37.43100392294646" lon="14.123741624249263"><ele>357.0</ele><time>2026-03-29T11:12:55.002Z</time></trkpt><trkpt lat="37.430786464177295" lon="14.123633853049022"><ele>357.0</ele><time>2026-03-29T11:12:56.002Z</time></trkpt><trkpt lat="37.430561318573965" lon="14.123531344579431"><ele>357.0</ele><time>2026-03-29T11:12:57.002Z</time></trkpt><trkpt lat="37.430328206575226" lon="14.123437986309467"><ele>359.5</ele><time>2026-03-29T11:12:58.002Z</time></trkpt><trkpt lat="37.43008964946761" lon="14.123350619653893"><ele>362.0</ele><time>2026-03-29T11:12:59.002Z</time></trkpt><trkpt lat="37.42984808730058" lon="14.12326853462246"><ele>369.5</ele><time>2026-03-29T11:13:00.002Z</time></trkpt><trkpt lat="37.42960056761275" lon="14.123194301449614"><ele>377.0</ele><time>2026-03-29T11:13:01.002Z</time></trkpt><trkpt lat="37.42934804598519" lon="14.12312406946022"><ele>377.0</ele><time>2026-03-29T11:13:02.002Z</time></trkpt><trkpt lat="37.42909317837954" lon="14.123054587149776"><ele>377.0</ele><time>2026-03-29T11:13:03.002Z</time></trkpt><trkpt lat="37.4288372594268" lon="14.122987405937026"><ele>376.5</ele><time>2026-03-29T11:13:04.002Z</time></trkpt><trkpt lat="37.42858087497053" lon="14.122925311421058"><ele>376.0</ele><time>2026-03-29T11:13:05.002Z</time></trkpt><trkpt lat="37.428322381777186" lon="14.122863634843858"><ele>376.0</ele><time>2026-03-29T11:13:06.002Z</time></trkpt><trkpt lat="37.42806628882257" lon="14.12281093402053"><ele>376.0</ele><time>2026-03-29T11:13:07.002Z</time></trkpt><trkpt lat="37.42781238818785" lon="14.122761374282865"><ele>375.5</ele><time>2026-03-29T11:13:08.002Z</time></trkpt><trkpt lat="37.42756068794424" lon="14.122705071225239"><ele>375.0</ele><time>2026-03-29T11:13:09.002Z</time></trkpt><trkpt lat="37.427317928261566" lon="14.12264207208207"><ele>379.0</ele><time>2026-03-29T11:13:10.002Z</time></trkpt><trkpt lat="37.42707684839227" lon="14.122563805410717"><ele>383.0</ele><time>2026-03-29T11:13:11.002Z</time></trkpt><trkpt lat="37.42683493883496" lon="14.122471679798847"><ele>387.5</ele><time>2026-03-29T11:13:12.002Z</time></trkpt><trkpt lat="37.42659361736548" lon="14.122369692277893"><ele>392.0</ele><time>2026-03-29T11:13:13.002Z</time></trkpt><trkpt lat="37.42635496239193" lon="14.122261565062093"><ele>395.0</ele><time>2026-03-29T11:13:14.002Z</time></trkpt><trkpt lat="37.426114259330866" lon="14.122141084401957"><ele>398.0</ele><time>2026-03-29T11:13:15.002Z</time></trkpt><trkpt lat="37.425872118067204" lon="14.12201573213933"><ele>398.0</ele><time>2026-03-29T11:13:16.002Z</time></trkpt><trkpt lat="37.42563188134078" lon="14.121883996796743"><ele>398.0</ele><time>2026-03-29T11:13:17.002Z</time></trkpt><trkpt lat="37.42538762343215" lon="14.121744706549146"><ele>398.0</ele><time>2026-03-29T11:13:18.002Z</time></trkpt><trkpt lat="37.4251491987042" lon="14.121595846916776"><ele>398.0</ele><time>2026-03-29T11:13:19.002Z</time></trkpt><trkpt lat="37.42491261377919" lon="14.121441656385688"><ele>401.0</ele><time>2026-03-29T11:13:20.002Z</time></trkpt><trkpt lat="37.42467826297515" lon="14.121285949339295"><ele>404.0</ele><time>2026-03-29T11:13:21.002Z</time></trkpt><trkpt lat="37.42444842372792" lon="14.121113023253303"><ele>404.0</ele><time>2026-03-29T11:13:22.002Z</time></trkpt><trkpt lat="37.42421728794059" lon="14.12094517628433"><ele>404.0</ele><time>2026-03-29T11:13:23.002Z</time></trkpt><trkpt lat="37.42399505625877" lon="14.120764306632575"><ele>409.5</ele><time>2026-03-29T11:13:24.002Z</time></trkpt><trkpt lat="37.42376787110194" lon="14.120590691461212"><ele>415.0</ele><time>2026-03-29T11:13:25.003Z</time></trkpt><trkpt lat="37.423538006574034" lon="14.120413395146237"><ele>415.0</ele><time>2026-03-29T11:13:26.003Z</time></trkpt><trkpt lat="37.42331153230028" lon="14.12023570418251"><ele>415.0</ele><time>2026-03-29T11:13:27.003Z</time></trkpt><trkpt lat="37.42308707762853" lon="14.1200578676635"><ele>415.5</ele><time>2026-03-29T11:13:28.003Z</time></trkpt><trkpt lat="37.42286387327768" lon="14.119882443844569"><ele>416.0</ele><time>2026-03-29T11:13:29.003Z</time></trkpt><trkpt lat="37.422641696381675" lon="14.119699923235979"><ele>416.0</ele><time>2026-03-29T11:13:30.003Z</time></trkpt><trkpt lat="37.422414970259574" lon="14.119521423060478"><ele>416.0</ele><time>2026-03-29T11:13:31.003Z</time></trkpt><trkpt lat="37.42219011245755" lon="14.119355922778313"><ele>418.0</ele><time>2026-03-29T11:13:32.003Z</time></trkpt><trkpt lat="37.4219569651274" lon="14.119190812557555"><ele>420.0</ele><time>2026-03-29T11:13:33.001Z</time></trkpt><trkpt lat="37.42171929494978" lon="14.1190307345418"><ele>420.0</ele><time>2026-03-29T11:13:34.001Z</time></trkpt><trkpt lat="37.4214771298228" lon="14.118874904409706"><ele>420.0</ele><time>2026-03-29T11:13:35.001Z</time></trkpt><trkpt lat="37.42123578192851" lon="14.118731585438642"><ele>421.5</ele><time>2026-03-29T11:13:36.001Z</time></trkpt><trkpt lat="37.42098934553227" lon="14.118601291379777"><ele>423.0</ele><time>2026-03-29T11:13:37.001Z</time></trkpt><trkpt lat="37.4207363891241" lon="14.118496364895492"><ele>426.5</ele><time>2026-03-29T11:13:38.001Z</time></trkpt><trkpt lat="37.42048022549025" lon="14.118405010711458"><ele>430.0</ele><time>2026-03-29T11:13:39.001Z</time></trkpt><trkpt lat="37.42022090423329" lon="14.118337807602206"><ele>430.0</ele><time>2026-03-29T11:13:40.001Z</time></trkpt><trkpt lat="37.41995828735282" lon="14.118291432116362"><ele>430.0</ele><time>2026-03-29T11:13:41.001Z</time></trkpt><trkpt lat="37.41969649976146" lon="14.11826571656825"><ele>434.0</ele><time>2026-03-29T11:13:42.001Z</time></trkpt><trkpt lat="37.41943351436885" lon="14.118265534846042"><ele>438.0</ele><time>2026-03-29T11:13:43.001Z</time></trkpt><trkpt lat="37.419174399861376" lon="14.118298600659454"><ele>438.0</ele><time>2026-03-29T11:13:44.001Z</time></trkpt><trkpt lat="37.41891819469086" lon="14.11835928212434"><ele>438.0</ele><time>2026-03-29T11:13:45.001Z</time></trkpt><trkpt lat="37.41866694131536" lon="14.118441949697736"><ele>442.0</ele><time>2026-03-29T11:13:46.001Z</time></trkpt><trkpt lat="37.418424237404466" lon="14.118552602817825"><ele>446.0</ele><time>2026-03-29T11:13:47.001Z</time></trkpt><trkpt lat="37.41818761014061" lon="14.118678989885808"><ele>448.0</ele><time>2026-03-29T11:13:48.001Z</time></trkpt><trkpt lat="37.41795888278909" lon="14.118826106241842"><ele>450.0</ele><time>2026-03-29T11:13:49.001Z</time></trkpt><trkpt lat="37.417726517714456" lon="14.118978097706313"><ele>446.5</ele><time>2026-03-29T11:13:50.001Z</time></trkpt><trkpt lat="37.41751574628274" lon="14.119177694081031"><ele>443.0</ele><time>2026-03-29T11:13:51.001Z</time></trkpt><trkpt lat="37.4172967049158" lon="14.119370448724988"><ele>447.0</ele><time>2026-03-29T11:13:52.001Z</time></trkpt><trkpt lat="37.41708231960085" lon="14.11957893651598"><ele>451.0</ele><time>2026-03-29T11:13:53.001Z</time></trkpt><trkpt lat="37.41687504371145" lon="14.119801587252566"><ele>450.0</ele><time>2026-03-29T11:13:54.001Z</time></trkpt><trkpt lat="37.41667456491131" lon="14.120037720926863"><ele>449.0</ele><time>2026-03-29T11:13:55.001Z</time></trkpt><trkpt lat="37.41647559644322" lon="14.120275098418764"><ele>457.0</ele><time>2026-03-29T11:13:56.001Z</time></trkpt><trkpt lat="37.4162759221234" lon="14.120513083487934"><ele>465.0</ele><time>2026-03-29T11:13:57.001Z</time></trkpt><trkpt lat="37.41607804944142" lon="14.120754937736779"><ele>465.0</ele><time>2026-03-29T11:13:58.001Z</time></trkpt><trkpt lat="37.415882719552336" lon="14.120998563806088"><ele>465.0</ele><time>2026-03-29T11:13:59.001Z</time></trkpt><trkpt lat="37.41568898190741" lon="14.121241624520948"><ele>465.0</ele><time>2026-03-29T11:14:00.001Z</time></trkpt><trkpt lat="37.41549832098683" lon="14.121483135020569"><ele>465.0</ele><time>2026-03-29T11:14:01.001Z</time></trkpt><trkpt lat="37.41531182330007" lon="14.121724569620172"><ele>469.0</ele><time>2026-03-29T11:14:02.001Z</time></trkpt><trkpt lat="37.41513420482042" lon="14.121967961940294"><ele>473.0</ele><time>2026-03-29T11:14:03.001Z</time></trkpt><trkpt lat="37.41496511879392" lon="14.122211406623132"><ele>474.0</ele><time>2026-03-29T11:14:04.001Z</time></trkpt><trkpt lat="37.41480052764508" lon="14.122457869762004"><ele>475.0</ele><time>2026-03-29T11:14:05.001Z</time></trkpt><trkpt lat="37.41463947155331" lon="14.122715923829587"><ele>475.0</ele><time>2026-03-29T11:14:06.001Z</time></trkpt><trkpt lat="37.414497245781575" lon="14.122950326118636"><ele>475.0</ele><time>2026-03-29T11:14:07.001Z</time></trkpt><trkpt lat="37.41435674329739" lon="14.123221473516747"><ele>472.5</ele><time>2026-03-29T11:14:08.001Z</time></trkpt><trkpt lat="37.41422885919001" lon="14.12348413205152"><ele>470.0</ele><time>2026-03-29T11:14:09.001Z</time></trkpt><trkpt lat="37.414084242521035" lon="14.123744681571686"><ele>470.0</ele><time>2026-03-29T11:14:10.001Z</time></trkpt><trkpt lat="37.41400499654874" lon="14.124039939461712"><ele>470.0</ele><time>2026-03-29T11:14:11.001Z</time></trkpt><trkpt lat="37.413914360437616" lon="14.124315745323903"><ele>469.0</ele><time>2026-03-29T11:14:12.001Z</time></trkpt><trkpt lat="37.41383533915253" lon="14.124591161215434"><ele>468.0</ele><time>2026-03-29T11:14:13.001Z</time></trkpt><trkpt lat="37.413768992652294" lon="14.124865546897789"><ele>470.33333333333337</ele><time>2026-03-29T11:14:14.001Z</time></trkpt><trkpt lat="37.41371906640059" lon="14.125140493240508"><ele>472.6666666666667</ele><time>2026-03-29T11:14:15.001Z</time></trkpt><trkpt lat="37.41368344207855" lon="14.125416963772217"><ele>475.0</ele><time>2026-03-29T11:14:16.001Z</time></trkpt><trkpt lat="37.41366450868544" lon="14.125696362283604"><ele>475.33333333333337</ele><time>2026-03-29T11:14:17.001Z</time></trkpt><trkpt lat="37.41366199617721" lon="14.125971102695805"><ele>475.66666666666663</ele><time>2026-03-29T11:14:18.001Z</time></trkpt><trkpt lat="37.413672801320416" lon="14.126247803715312"><ele>476.0</ele><time>2026-03-29T11:14:19.001Z</time></trkpt><trkpt lat="37.41369732341289" lon="14.126526171416543"><ele>476.66666666666663</ele><time>2026-03-29T11:14:20.001Z</time></trkpt><trkpt lat="37.413735530610005" lon="14.126801015388462"><ele>477.33333333333337</ele><time>2026-03-29T11:14:21.001Z</time></trkpt><trkpt lat="37.41378476357584" lon="14.127072819885079"><ele>478.0</ele><time>2026-03-29T11:14:22.001Z</time></trkpt><trkpt lat="37.41384385588303" lon="14.127334210022578"><ele>475.0</ele><time>2026-03-29T11:14:23.001Z</time></trkpt><trkpt lat="37.41390863610586" lon="14.12757032308668"><ele>472.0</ele><time>2026-03-29T11:14:24.001Z</time></trkpt><trkpt lat="37.41397684052082" lon="14.127797695296296"><ele>469.0</ele><time>2026-03-29T11:14:25.001Z</time></trkpt><trkpt lat="37.41404649424761" lon="14.128007281434854"><ele>469.0</ele><time>2026-03-29T11:14:26.001Z</time></trkpt><trkpt lat="37.41411594266176" lon="14.12820200953948"><ele>469.0</ele><time>2026-03-29T11:14:27.001Z</time></trkpt><trkpt lat="37.41418255658965" lon="14.12837976476509"><ele>469.0</ele><time>2026-03-29T11:14:28.001Z</time></trkpt><trkpt lat="37.414240191957695" lon="14.128537844923729"><ele>470.0</ele><time>2026-03-29T11:14:29.001Z</time></trkpt><trkpt lat="37.414282822376066" lon="14.12868380700796"><ele>471.0</ele><time>2026-03-29T11:14:30.001Z</time></trkpt><trkpt lat="37.414309388300154" lon="14.128984382819826"><ele>472.0</ele><time>2026-03-29T11:14:32.001Z</time></trkpt><trkpt lat="37.41431559233511" lon="14.129136834476887"><ele>473.25</ele><time>2026-03-29T11:14:33.001Z</time></trkpt><trkpt lat="37.4143515403544" lon="14.12928634704875"><ele>474.5</ele><time>2026-03-29T11:14:34.001Z</time></trkpt><trkpt lat="37.41441891904624" lon="14.129424388707054"><ele>475.75</ele><time>2026-03-29T11:14:35.001Z</time></trkpt><trkpt lat="37.41450791825322" lon="14.129544785014064"><ele>477.0</ele><time>2026-03-29T11:14:36.001Z</time></trkpt><trkpt lat="37.41462222628333" lon="14.129642780743044"><ele>476.0</ele><time>2026-03-29T11:14:37.002Z</time></trkpt><trkpt lat="37.414747455694446" lon="14.12973297974537"><ele>475.0</ele><time>2026-03-29T11:14:38.002Z</time></trkpt><trkpt lat="37.41487020321054" lon="14.129838919077603"><ele>474.0</ele><time>2026-03-29T11:14:39.002Z</time></trkpt><trkpt lat="37.41498035973683" lon="14.12997594242886"><ele>473.0</ele><time>2026-03-29T11:14:40.002Z</time></trkpt><trkpt lat="37.415083948623256" lon="14.130137660880003"><ele>473.0</ele><time>2026-03-29T11:14:41.002Z</time></trkpt><trkpt lat="37.41518819405177" lon="14.130312720116827"><ele>473.0</ele><time>2026-03-29T11:14:42.002Z</time></trkpt><trkpt lat="37.415297936751244" lon="14.130486132696394"><ele>473.0</ele><time>2026-03-29T11:14:43.002Z</time></trkpt><trkpt lat="37.41540658069754" lon="14.130661975193252"><ele>473.66666666666663</ele><time>2026-03-29T11:14:44.002Z</time></trkpt><trkpt lat="37.415508043361605" lon="14.130844934487698"><ele>474.33333333333337</ele><time>2026-03-29T11:14:45.002Z</time></trkpt><trkpt lat="37.41559774174139" lon="14.131030695625784"><ele>475.0</ele><time>2026-03-29T11:14:46.002Z</time></trkpt><trkpt lat="37.41567835486561" lon="14.131223001826697"><ele>475.0</ele><time>2026-03-29T11:14:47.002Z</time></trkpt><trkpt lat="37.41575042887856" lon="14.131419139638178"><ele>475.0</ele><time>2026-03-29T11:14:48.002Z</time></trkpt><trkpt lat="37.41581237025072" lon="14.131612861350707"><ele>475.0</ele><time>2026-03-29T11:14:49.002Z</time></trkpt><trkpt lat="37.41586119088649" lon="14.13179823553125"><ele>475.75</ele><time>2026-03-29T11:14:50.002Z</time></trkpt><trkpt lat="37.41590656812144" lon="14.131973197617851"><ele>476.5</ele><time>2026-03-29T11:14:51.002Z</time></trkpt><trkpt lat="37.41595055833576" lon="14.132138548691726"><ele>477.25</ele><time>2026-03-29T11:14:52.002Z</time></trkpt><trkpt lat="37.4159928105659" lon="14.132295564679538"><ele>478.0</ele><time>2026-03-29T11:14:53.002Z</time></trkpt><trkpt lat="37.41602999086281" lon="14.132443223952501"><ele>478.0</ele><time>2026-03-29T11:14:54.002Z</time></trkpt><trkpt lat="37.41606282591547" lon="14.132574341570265"><ele>477.99999999999994</ele><time>2026-03-29T11:14:55.002Z</time></trkpt><trkpt lat="37.41609864791664" lon="14.132688553429306"><ele>477.99999999999994</ele><time>2026-03-29T11:14:56.002Z</time></trkpt><trkpt lat="37.41614322860736" lon="14.132778262341324"><ele>478.0</ele><time>2026-03-29T11:14:57.002Z</time></trkpt><trkpt lat="37.416199762603604" lon="14.132834927055312"><ele>478.0</ele><time>2026-03-29T11:14:58.002Z</time></trkpt><trkpt lat="37.416298411386876" lon="14.132872021257244"><ele>478.00000000000006</ele><time>2026-03-29T11:15:00.002Z</time></trkpt><trkpt lat="37.416320882207934" lon="14.13295668595647"><ele>478.0</ele><time>2026-03-29T11:15:48.001Z</time></trkpt><trkpt lat="37.416316324175014" lon="14.133037920245473"><ele>478.00000000000006</ele><time>2026-03-29T11:19:40.002Z</time></trkpt><trkpt lat="37.416377847701284" lon="14.133102483531914"><ele>478.00000000000006</ele><time>2026-03-29T11:19:49.002Z</time></trkpt><trkpt lat="37.416355921078086" lon="14.133185008485134"><ele>478.0</ele><time>2026-03-29T11:19:51.001Z</time></trkpt><trkpt lat="37.416328306151506" lon="14.133270950965937"><ele>478.00000000000006</ele><time>2026-03-29T11:21:22.001Z</time></trkpt><trkpt lat="37.41629217809494" lon="14.133373710699315"><ele>478.00000000000006</ele><time>2026-03-29T11:21:24.001Z</time></trkpt><trkpt lat="37.41627493301081" lon="14.133453444768692"><ele>478.5</ele><time>2026-03-29T11:21:25.001Z</time></trkpt><trkpt lat="37.41628391737665" lon="14.133562516421717"><ele>479.0</ele><time>2026-03-29T11:21:26.001Z</time></trkpt><trkpt lat="37.416314235249615" lon="14.133695191060845"><ele>479.5</ele><time>2026-03-29T11:21:27.001Z</time></trkpt><trkpt lat="37.416360018211066" lon="14.133857155244412"><ele>480.0</ele><time>2026-03-29T11:21:28.001Z</time></trkpt><trkpt lat="37.416407335506314" lon="14.13402739333611"><ele>477.33333333333337</ele><time>2026-03-29T11:21:29.001Z</time></trkpt><trkpt lat="37.416456491141886" lon="14.13421465436429"><ele>474.6666666666667</ele><time>2026-03-29T11:21:30.001Z</time></trkpt><trkpt lat="37.41650548642621" lon="14.134400585254886"><ele>472.0</ele><time>2026-03-29T11:21:31.001Z</time></trkpt><trkpt lat="37.416548317687436" lon="14.134572831029544"><ele>472.0</ele><time>2026-03-29T11:21:32.001Z</time></trkpt><trkpt lat="37.41658508500882" lon="14.134741423524463"><ele>472.0</ele><time>2026-03-29T11:21:33.001Z</time></trkpt><trkpt lat="37.41662525750142" lon="14.134895019984148"><ele>472.0</ele><time>2026-03-29T11:21:34.002Z</time></trkpt><trkpt lat="37.41666553820769" lon="14.135050673794982"><ele>472.0</ele><time>2026-03-29T11:21:35.002Z</time></trkpt><trkpt lat="37.416704542106544" lon="14.135204793307915"><ele>472.20000000000005</ele><time>2026-03-29T11:21:36.002Z</time></trkpt><trkpt lat="37.416741957891794" lon="14.135344508386952"><ele>472.40000000000003</ele><time>2026-03-29T11:21:37.002Z</time></trkpt><trkpt lat="37.4167769164895" lon="14.13547190491353"><ele>472.59999999999997</ele><time>2026-03-29T11:21:38.002Z</time></trkpt><trkpt lat="37.41680001899768" lon="14.135576491944363"><ele>472.79999999999995</ele><time>2026-03-29T11:21:39.002Z</time></trkpt><trkpt lat="37.41681366968707" lon="14.135658607590221"><ele>473.0</ele><time>2026-03-29T11:21:40.002Z</time></trkpt><trkpt lat="37.41682345653562" lon="14.135749082747472"><ele>474.0</ele><time>2026-03-29T11:21:42.002Z</time></trkpt></trkseg><trkseg><trkpt lat="37.41673106953126" lon="14.137453861355793"><ele>471.0</ele><time>2026-03-29T12:09:29.271Z</time></trkpt><trkpt lat="37.41673275337706" lon="14.137374278339836"><ele>471.0</ele><time>2026-03-29T12:09:37.999Z</time></trkpt><trkpt lat="37.416747381898546" lon="14.137264259898467"><ele>471.0</ele><time>2026-03-29T12:14:58Z</time></trkpt><trkpt lat="37.416723973837236" lon="14.137364989445627"><ele>471.0</ele><time>2026-03-29T12:15:00Z</time></trkpt><trkpt lat="37.416695186977286" lon="14.1374496774347"><ele>471.0</ele><time>2026-03-29T12:15:01Z</time></trkpt><trkpt lat="37.41666211965232" lon="14.137560354780339"><ele>471.0</ele><time>2026-03-29T12:15:02Z</time></trkpt><trkpt lat="37.41659982291462" lon="14.137781210172179"><ele>471.0</ele><time>2026-03-29T12:15:04Z</time></trkpt><trkpt lat="37.41655343501391" lon="14.137916630246037"><ele>471.0</ele><time>2026-03-29T12:15:05Z</time></trkpt><trkpt lat="37.41650545712442" lon="14.138058194251801"><ele>471.0</ele><time>2026-03-29T12:15:06Z</time></trkpt><trkpt lat="37.4164550954872" lon="14.138212687262397"><ele>471.0</ele><time>2026-03-29T12:15:07Z</time></trkpt><trkpt lat="37.41641889317153" lon="14.13832227346869"><ele>470.75</ele><time>2026-03-29T12:15:08Z</time></trkpt><trkpt lat="37.416364404927045" lon="14.138483510051971"><ele>470.5</ele><time>2026-03-29T12:15:09Z</time></trkpt><trkpt lat="37.41631021434446" lon="14.138640054369981"><ele>470.25</ele><time>2026-03-29T12:15:10Z</time></trkpt><trkpt lat="37.416273647713574" lon="14.138744587535111"><ele>470.0</ele><time>2026-03-29T12:15:11Z</time></trkpt><trkpt lat="37.41622241503514" lon="14.138896395277449"><ele>469.5</ele><time>2026-03-29T12:15:12Z</time></trkpt><trkpt lat="37.416170455761126" lon="14.139041559540049"><ele>469.0</ele><time>2026-03-29T12:15:13Z</time></trkpt><trkpt lat="37.41610176383912" lon="14.139165734055899"><ele>468.5</ele><time>2026-03-29T12:15:14Z</time></trkpt><trkpt lat="37.41606361385889" lon="14.13928879797756"><ele>468.0</ele><time>2026-03-29T12:15:15Z</time></trkpt><trkpt lat="37.41600832586049" lon="14.139401617124848"><ele>468.0</ele><time>2026-03-29T12:15:16Z</time></trkpt><trkpt lat="37.41595704847381" lon="14.139509859504154"><ele>468.0</ele><time>2026-03-29T12:15:17Z</time></trkpt><trkpt lat="37.415890307599604" lon="14.139627015358261"><ele>468.0</ele><time>2026-03-29T12:15:18Z</time></trkpt><trkpt lat="37.41583251666502" lon="14.139759151313624"><ele>468.0</ele><time>2026-03-29T12:15:19Z</time></trkpt><trkpt lat="37.41577272194484" lon="14.139891148611602"><ele>467.0</ele><time>2026-03-29T12:15:20Z</time></trkpt><trkpt lat="37.415709078111" lon="14.140024609380916"><ele>466.0</ele><time>2026-03-29T12:15:21Z</time></trkpt><trkpt lat="37.415646408484406" lon="14.140153604848665"><ele>465.0</ele><time>2026-03-29T12:15:22Z</time></trkpt><trkpt lat="37.41558462089553" lon="14.14028389695208"><ele>464.0</ele><time>2026-03-29T12:15:23Z</time></trkpt><trkpt lat="37.41552334593797" lon="14.140420224625858"><ele>464.25</ele><time>2026-03-29T12:15:24Z</time></trkpt><trkpt lat="37.41546537116545" lon="14.140558700324398"><ele>464.5</ele><time>2026-03-29T12:15:25Z</time></trkpt><trkpt lat="37.415409968750204" lon="14.14069697220357"><ele>464.75</ele><time>2026-03-29T12:15:26Z</time></trkpt><trkpt lat="37.4153542224284" lon="14.140832397198196"><ele>465.0</ele><time>2026-03-29T12:15:27Z</time></trkpt><trkpt lat="37.41530315754933" lon="14.140964655767808"><ele>464.0</ele><time>2026-03-29T12:15:28Z</time></trkpt><trkpt lat="37.41525177684167" lon="14.14109360523227"><ele>463.0</ele><time>2026-03-29T12:15:29Z</time></trkpt><trkpt lat="37.41519524336816" lon="14.141224462241286"><ele>462.0</ele><time>2026-03-29T12:15:30Z</time></trkpt><trkpt lat="37.41514613263246" lon="14.141346053006947"><ele>461.0</ele><time>2026-03-29T12:15:31Z</time></trkpt><trkpt lat="37.41509903160963" lon="14.141464858775182"><ele>460.0</ele><time>2026-03-29T12:15:32Z</time></trkpt><trkpt lat="37.415056698718644" lon="14.141572523772187"><ele>459.50000000000006</ele><time>2026-03-29T12:15:33Z</time></trkpt><trkpt lat="37.41501944454211" lon="14.141671033122432"><ele>459.0</ele><time>2026-03-29T12:15:34Z</time></trkpt><trkpt lat="37.414983039077164" lon="14.141760790135944"><ele>458.5</ele><time>2026-03-29T12:15:35Z</time></trkpt><trkpt lat="37.41495492325197" lon="14.141842185574157"><ele>458.0</ele><time>2026-03-29T12:15:36Z</time></trkpt><trkpt lat="37.41492801297993" lon="14.141922996154943"><ele>457.50000000000006</ele><time>2026-03-29T12:15:37Z</time></trkpt><trkpt lat="37.41490517444902" lon="14.142003012940565"><ele>457.0</ele><time>2026-03-29T12:15:38Z</time></trkpt><trkpt lat="37.41491283533464" lon="14.14214791340285"><ele>457.0</ele><time>2026-03-29T12:15:40Z</time></trkpt><trkpt lat="37.41502157741749" lon="14.142261210761692"><ele>457.0</ele><time>2026-03-29T12:15:42Z</time></trkpt><trkpt lat="37.41510446051345" lon="14.14231698208374"><ele>457.0</ele><time>2026-03-29T12:15:43Z</time></trkpt><trkpt lat="37.4151929799088" lon="14.142382812174672"><ele>457.0</ele><time>2026-03-29T12:15:44Z</time></trkpt><trkpt lat="37.41529278138363" lon="14.142460872537672"><ele>457.0</ele><time>2026-03-29T12:15:45Z</time></trkpt><trkpt lat="37.415402888699745" lon="14.142545844171034"><ele>457.0</ele><time>2026-03-29T12:15:46Z</time></trkpt><trkpt lat="37.415522280197976" lon="14.142636796592605"><ele>457.0</ele><time>2026-03-29T12:15:47Z</time></trkpt><trkpt lat="37.415650313085266" lon="14.1427252407011"><ele>457.0</ele><time>2026-03-29T12:15:48Z</time></trkpt><trkpt lat="37.41578498654608" lon="14.142816237064205"><ele>457.0</ele><time>2026-03-29T12:15:48.999Z</time></trkpt><trkpt lat="37.41592820073633" lon="14.142915397784243"><ele>457.0</ele><time>2026-03-29T12:15:49.999Z</time></trkpt><trkpt lat="37.41606988514936" lon="14.143016809084681"><ele>457.0</ele><time>2026-03-29T12:15:50.999Z</time></trkpt><trkpt lat="37.41621692003512" lon="14.143117160508668"><ele>457.33333333333337</ele><time>2026-03-29T12:15:51.999Z</time></trkpt><trkpt lat="37.41636667378204" lon="14.143216333977412"><ele>457.66666666666663</ele><time>2026-03-29T12:15:52.999Z</time></trkpt><trkpt lat="37.41651856873823" lon="14.143321689250358"><ele>458.0</ele><time>2026-03-29T12:15:53.999Z</time></trkpt><trkpt lat="37.41666985627729" lon="14.143434837218523"><ele>458.0</ele><time>2026-03-29T12:15:54.999Z</time></trkpt><trkpt lat="37.41681309888689" lon="14.143557456366581"><ele>458.0</ele><time>2026-03-29T12:15:55.999Z</time></trkpt><trkpt lat="37.41695116793424" lon="14.143693351532587"><ele>458.0</ele><time>2026-03-29T12:15:56.999Z</time></trkpt><trkpt lat="37.41708173139823" lon="14.143844683354676"><ele>458.0</ele><time>2026-03-29T12:15:57.999Z</time></trkpt><trkpt lat="37.41720410579591" lon="14.144018737546133"><ele>458.0</ele><time>2026-03-29T12:15:58.999Z</time></trkpt><trkpt lat="37.417324746518666" lon="14.144209671008218"><ele>458.0</ele><time>2026-03-29T12:15:59.999Z</time></trkpt><trkpt lat="37.41743453227397" lon="14.144407959369417"><ele>458.0</ele><time>2026-03-29T12:16:00.999Z</time></trkpt><trkpt lat="37.417538527407196" lon="14.14461467318339"><ele>458.0</ele><time>2026-03-29T12:16:01.999Z</time></trkpt><trkpt lat="37.417641640344684" lon="14.14481363781456"><ele>458.0</ele><time>2026-03-29T12:16:02.999Z</time></trkpt><trkpt lat="37.417746883929915" lon="14.145016602512952"><ele>459.0</ele><time>2026-03-29T12:16:03.999Z</time></trkpt><trkpt lat="37.41785426963142" lon="14.145219475715008"><ele>460.0</ele><time>2026-03-29T12:16:04.999Z</time></trkpt><trkpt lat="37.417964623144705" lon="14.145424164791084"><ele>461.0</ele><time>2026-03-29T12:16:05.999Z</time></trkpt><trkpt lat="37.418074546987135" lon="14.145629425823635"><ele>460.0</ele><time>2026-03-29T12:16:06.999Z</time></trkpt><trkpt lat="37.41817972131043" lon="14.145839883216931"><ele>459.0</ele><time>2026-03-29T12:16:07.999Z</time></trkpt><trkpt lat="37.41826138906304" lon="14.14608525040642"><ele>458.0</ele><time>2026-03-29T12:16:08.999Z</time></trkpt><trkpt lat="37.41833575400162" lon="14.146335395720847"><ele>458.66666666666663</ele><time>2026-03-29T12:16:09.999Z</time></trkpt><trkpt lat="37.418419459985266" lon="14.146581627400348"><ele>459.33333333333337</ele><time>2026-03-29T12:16:10.999Z</time></trkpt><trkpt lat="37.41848528411403" lon="14.146826973527164"><ele>460.0</ele><time>2026-03-29T12:16:11.999Z</time></trkpt><trkpt lat="37.418553079333286" lon="14.14707899987688"><ele>460.0</ele><time>2026-03-29T12:16:12.999Z</time></trkpt><trkpt lat="37.41862494834815" lon="14.147319882294102"><ele>460.0</ele><time>2026-03-29T12:16:13.999Z</time></trkpt><trkpt lat="37.41868933749272" lon="14.147554645234655"><ele>460.0</ele><time>2026-03-29T12:16:14.999Z</time></trkpt><trkpt lat="37.41874708622933" lon="14.147784755514325"><ele>461.33333333333337</ele><time>2026-03-29T12:16:15.999Z</time></trkpt><trkpt lat="37.4187764189067" lon="14.148025861673485"><ele>462.66666666666663</ele><time>2026-03-29T12:16:16.999Z</time></trkpt><trkpt lat="37.41877575768806" lon="14.148278643640273"><ele>464.0</ele><time>2026-03-29T12:16:17.999Z</time></trkpt><trkpt lat="37.41875540652909" lon="14.148537256827764"><ele>466.3333333333333</ele><time>2026-03-29T12:16:18.999Z</time></trkpt><trkpt lat="37.418729385707906" lon="14.148789419130638"><ele>468.66666666666663</ele><time>2026-03-29T12:16:19.999Z</time></trkpt><trkpt lat="37.41870619942641" lon="14.149026804036907"><ele>471.0</ele><time>2026-03-29T12:16:20.999Z</time></trkpt><trkpt lat="37.418684905757004" lon="14.149250426852305"><ele>473.33333333333337</ele><time>2026-03-29T12:16:21.999Z</time></trkpt><trkpt lat="37.41867991480669" lon="14.149468913303394"><ele>475.6666666666667</ele><time>2026-03-29T12:16:22.999Z</time></trkpt><trkpt lat="37.41870927453469" lon="14.14969537455457"><ele>478.0</ele><time>2026-03-29T12:16:23.999Z</time></trkpt><trkpt lat="37.41877024192736" lon="14.14991737493091"><ele>473.0</ele><time>2026-03-29T12:16:24.999Z</time></trkpt><trkpt lat="37.41885681024271" lon="14.15012818518864"><ele>468.0</ele><time>2026-03-29T12:16:25.999Z</time></trkpt><trkpt lat="37.418940604643886" lon="14.150326260042808"><ele>463.0</ele><time>2026-03-29T12:16:27Z</time></trkpt><trkpt lat="37.41899030142498" lon="14.150534595061186"><ele>464.33333333333337</ele><time>2026-03-29T12:16:28Z</time></trkpt><trkpt lat="37.418984145931404" lon="14.150761974092523"><ele>465.66666666666663</ele><time>2026-03-29T12:16:29Z</time></trkpt><trkpt lat="37.4189848948253" lon="14.151012929316053"><ele>467.0</ele><time>2026-03-29T12:16:30Z</time></trkpt><trkpt lat="37.41896199185447" lon="14.151272831678966"><ele>467.3333333333333</ele><time>2026-03-29T12:16:31Z</time></trkpt><trkpt lat="37.41894476579583" lon="14.151542013918855"><ele>467.66666666666663</ele><time>2026-03-29T12:16:32Z</time></trkpt><trkpt lat="37.41893751302182" lon="14.151815175710551"><ele>468.0</ele><time>2026-03-29T12:16:33Z</time></trkpt><trkpt lat="37.41895327952154" lon="14.152087803421336"><ele>468.0</ele><time>2026-03-29T12:16:34Z</time></trkpt><trkpt lat="37.41899175480114" lon="14.152356460153575"><ele>468.0</ele><time>2026-03-29T12:16:35Z</time></trkpt><trkpt lat="37.41903486150055" lon="14.152622978392243"><ele>468.0</ele><time>2026-03-29T12:16:36Z</time></trkpt><trkpt lat="37.41907282756194" lon="14.152887726793294"><ele>470.0</ele><time>2026-03-29T12:16:37Z</time></trkpt><trkpt lat="37.41910722793812" lon="14.153152007632405"><ele>472.0</ele><time>2026-03-29T12:16:38Z</time></trkpt><trkpt lat="37.419142097643615" lon="14.153416561919746"><ele>474.0</ele><time>2026-03-29T12:16:39Z</time></trkpt><trkpt lat="37.419174961330725" lon="14.153683355742157"><ele>475.66666666666663</ele><time>2026-03-29T12:16:40Z</time></trkpt><trkpt lat="37.419217861740314" lon="14.153947524053212"><ele>477.3333333333333</ele><time>2026-03-29T12:16:41Z</time></trkpt><trkpt lat="37.41926680252475" lon="14.154216035452265"><ele>479.0</ele><time>2026-03-29T12:16:42Z</time></trkpt><trkpt lat="37.41931655075293" lon="14.154483900043262"><ele>480.66666666666663</ele><time>2026-03-29T12:16:43Z</time></trkpt><trkpt lat="37.41935738666235" lon="14.154750119596413"><ele>482.33333333333337</ele><time>2026-03-29T12:16:44Z</time></trkpt><trkpt lat="37.41939820662787" lon="14.15500998467761"><ele>484.0</ele><time>2026-03-29T12:16:45Z</time></trkpt><trkpt lat="37.41943964258931" lon="14.155264011323148"><ele>484.33333333333337</ele><time>2026-03-29T12:16:46Z</time></trkpt><trkpt lat="37.41949138858405" lon="14.155512566567419"><ele>484.66666666666663</ele><time>2026-03-29T12:16:47Z</time></trkpt><trkpt lat="37.41958672721187" lon="14.155743985586755"><ele>485.0</ele><time>2026-03-29T12:16:48Z</time></trkpt><trkpt lat="37.419704237603185" lon="14.155978112443549"><ele>482.5</ele><time>2026-03-29T12:16:49Z</time></trkpt><trkpt lat="37.419842272949815" lon="14.156205588336487"><ele>480.0</ele><time>2026-03-29T12:16:50Z</time></trkpt><trkpt lat="37.41999449997817" lon="14.156414699174018"><ele>481.33333333333337</ele><time>2026-03-29T12:16:51Z</time></trkpt><trkpt lat="37.420155544900155" lon="14.156606764131851"><ele>482.6666666666667</ele><time>2026-03-29T12:16:52Z</time></trkpt><trkpt lat="37.42030174174639" lon="14.156796358148009"><ele>484.0</ele><time>2026-03-29T12:16:53Z</time></trkpt><trkpt lat="37.42040858837453" lon="14.156995296567985"><ele>484.0</ele><time>2026-03-29T12:16:54Z</time></trkpt><trkpt lat="37.42045082133382" lon="14.157229781180304"><ele>484.0</ele><time>2026-03-29T12:16:55Z</time></trkpt><trkpt lat="37.4205101083272" lon="14.157486226112644"><ele>484.0</ele><time>2026-03-29T12:16:56Z</time></trkpt><trkpt lat="37.42053590017669" lon="14.15776333379793"><ele>484.33333333333337</ele><time>2026-03-29T12:16:57Z</time></trkpt><trkpt lat="37.420570705507345" lon="14.158041197147982"><ele>484.66666666666663</ele><time>2026-03-29T12:16:58Z</time></trkpt><trkpt lat="37.4206129993212" lon="14.158320085895285"><ele>485.0</ele><time>2026-03-29T12:16:59Z</time></trkpt><trkpt lat="37.420657881390426" lon="14.158610689573782"><ele>485.5</ele><time>2026-03-29T12:17:00Z</time></trkpt><trkpt lat="37.42070475106294" lon="14.15890681878534"><ele>486.0</ele><time>2026-03-29T12:17:01Z</time></trkpt><trkpt lat="37.42075443286413" lon="14.159209375081234"><ele>486.0</ele><time>2026-03-29T12:17:02Z</time></trkpt><trkpt lat="37.420804664964905" lon="14.159517657415496"><ele>486.0</ele><time>2026-03-29T12:17:03Z</time></trkpt><trkpt lat="37.42085379209628" lon="14.15982775287065"><ele>485.0</ele><time>2026-03-29T12:17:04Z</time></trkpt><trkpt lat="37.42090023558728" lon="14.160137351843556"><ele>484.0</ele><time>2026-03-29T12:17:05Z</time></trkpt><trkpt lat="37.42094366025654" lon="14.160447412252882"><ele>482.0</ele><time>2026-03-29T12:17:06Z</time></trkpt><trkpt lat="37.42098498579277" lon="14.160756717862185"><ele>480.0</ele><time>2026-03-29T12:17:07Z</time></trkpt><trkpt lat="37.421025964984864" lon="14.161067349689864"><ele>480.0</ele><time>2026-03-29T12:17:08Z</time></trkpt><trkpt lat="37.421062938309284" lon="14.16137958373728"><ele>480.0</ele><time>2026-03-29T12:17:09Z</time></trkpt><trkpt lat="37.421095428100465" lon="14.161689571682768"><ele>479.5</ele><time>2026-03-29T12:17:10Z</time></trkpt><trkpt lat="37.42111911259921" lon="14.161998169445233"><ele>479.0</ele><time>2026-03-29T12:17:11Z</time></trkpt><trkpt lat="37.42112611915024" lon="14.16230739240223"><ele>479.5</ele><time>2026-03-29T12:17:12Z</time></trkpt><trkpt lat="37.421118086901444" lon="14.162614942700452"><ele>480.0</ele><time>2026-03-29T12:17:13Z</time></trkpt><trkpt lat="37.42109637977434" lon="14.162920461983413"><ele>480.5</ele><time>2026-03-29T12:17:14Z</time></trkpt><trkpt lat="37.42106969224382" lon="14.163223396508409"><ele>481.0</ele><time>2026-03-29T12:17:15Z</time></trkpt><trkpt lat="37.421043147545156" lon="14.163523905148653"><ele>481.0</ele><time>2026-03-29T12:17:16Z</time></trkpt><trkpt lat="37.42101320134402" lon="14.163821536899139"><ele>481.0</ele><time>2026-03-29T12:17:17Z</time></trkpt><trkpt lat="37.42097500855081" lon="14.164101079508567"><ele>481.33333333333337</ele><time>2026-03-29T12:17:18Z</time></trkpt><trkpt lat="37.42094140020512" lon="14.164354166598262"><ele>481.66666666666663</ele><time>2026-03-29T12:17:19Z</time></trkpt><trkpt lat="37.420907276492194" lon="14.164595128913833"><ele>482.0</ele><time>2026-03-29T12:17:20Z</time></trkpt><trkpt lat="37.4208722252291" lon="14.164815750456098"><ele>482.3333333333333</ele><time>2026-03-29T12:17:21Z</time></trkpt><trkpt lat="37.420835757029316" lon="14.165020819447625"><ele>482.66666666666663</ele><time>2026-03-29T12:17:22Z</time></trkpt><trkpt lat="37.4208037236523" lon="14.165214319122462"><ele>483.0</ele><time>2026-03-29T12:17:23Z</time></trkpt><trkpt lat="37.420774263329136" lon="14.16539497271177"><ele>483.0</ele><time>2026-03-29T12:17:24Z</time></trkpt><trkpt lat="37.420748374959224" lon="14.165566321238744"><ele>483.0</ele><time>2026-03-29T12:17:25Z</time></trkpt><trkpt lat="37.42072559143535" lon="14.16572544213654"><ele>483.0</ele><time>2026-03-29T12:17:26Z</time></trkpt><trkpt lat="37.420701853711655" lon="14.165877012169313"><ele>483.0</ele><time>2026-03-29T12:17:27Z</time></trkpt><trkpt lat="37.42067967576115" lon="14.166013888306697"><ele>482.59999999999997</ele><time>2026-03-29T12:17:28Z</time></trkpt><trkpt lat="37.42065750037417" lon="14.16613278398888"><ele>482.19999999999993</ele><time>2026-03-29T12:17:29Z</time></trkpt><trkpt lat="37.42063513795658" lon="14.166242042068037"><ele>481.8</ele><time>2026-03-29T12:17:30Z</time></trkpt><trkpt lat="37.42061669371294" lon="14.166337786249995"><ele>481.4</ele><time>2026-03-29T12:17:31Z</time></trkpt><trkpt lat="37.420599885793386" lon="14.166423587939628"><ele>481.0</ele><time>2026-03-29T12:17:32Z</time></trkpt><trkpt lat="37.420572709870214" lon="14.166570926757318"><ele>480.8</ele><time>2026-03-29T12:17:34Z</time></trkpt><trkpt lat="37.42054670277812" lon="14.166696094361571"><ele>480.6</ele><time>2026-03-29T12:17:36Z</time></trkpt><trkpt lat="37.42052649941614" lon="14.166805757070188"><ele>480.4</ele><time>2026-03-29T12:17:38Z</time></trkpt><trkpt lat="37.42050485836299" lon="14.166885767855906"><ele>480.2</ele><time>2026-03-29T12:17:40Z</time></trkpt><trkpt lat="37.42048103792162" lon="14.166998588869896"><ele>480.0</ele><time>2026-03-29T12:17:50Z</time></trkpt><trkpt lat="37.42047357507758" lon="14.167138786621942"><ele>480.75</ele><time>2026-03-29T12:17:52Z</time></trkpt><trkpt lat="37.420460096893265" lon="14.167249533805577"><ele>481.5</ele><time>2026-03-29T12:17:53Z</time></trkpt><trkpt lat="37.42042989384862" lon="14.167384940032"><ele>482.25</ele><time>2026-03-29T12:17:53.998Z</time></trkpt><trkpt lat="37.4203968184998" lon="14.167545078028262"><ele>483.0</ele><time>2026-03-29T12:17:54.998Z</time></trkpt><trkpt lat="37.42036345514234" lon="14.167720920663822"><ele>483.0</ele><time>2026-03-29T12:17:55.998Z</time></trkpt><trkpt lat="37.42032996144235" lon="14.167901732063903"><ele>483.0</ele><time>2026-03-29T12:17:56.999Z</time></trkpt><trkpt lat="37.42029289871996" lon="14.16809448628058"><ele>483.0</ele><time>2026-03-29T12:17:57.999Z</time></trkpt><trkpt lat="37.42025259680289" lon="14.168303638685684"><ele>482.66666666666663</ele><time>2026-03-29T12:17:58.999Z</time></trkpt><trkpt lat="37.42020813190211" lon="14.168529862355038"><ele>482.3333333333333</ele><time>2026-03-29T12:17:59.999Z</time></trkpt><trkpt lat="37.420159763324754" lon="14.16876832400829"><ele>482.0</ele><time>2026-03-29T12:18:00.999Z</time></trkpt><trkpt lat="37.42010962693563" lon="14.169002804328045"><ele>481.3333333333333</ele><time>2026-03-29T12:18:01.999Z</time></trkpt><trkpt lat="37.420058395759604" lon="14.169241912956386"><ele>480.66666666666663</ele><time>2026-03-29T12:18:02.999Z</time></trkpt><trkpt lat="37.42000854374548" lon="14.16948541009365"><ele>480.0</ele><time>2026-03-29T12:18:03.999Z</time></trkpt><trkpt lat="37.41995954350241" lon="14.169735645190544"><ele>480.0</ele><time>2026-03-29T12:18:04.999Z</time></trkpt><trkpt lat="37.41991023756841" lon="14.169990210154218"><ele>480.0</ele><time>2026-03-29T12:18:05.999Z</time></trkpt><trkpt lat="37.419859258118834" lon="14.170247452105691"><ele>480.0</ele><time>2026-03-29T12:18:06.999Z</time></trkpt><trkpt lat="37.419807385910296" lon="14.170505513078016"><ele>479.66666666666663</ele><time>2026-03-29T12:18:07.999Z</time></trkpt><trkpt lat="37.41975407614018" lon="14.170766620801043"><ele>479.3333333333333</ele><time>2026-03-29T12:18:08.999Z</time></trkpt><trkpt lat="37.41970214402804" lon="14.171026098508948"><ele>479.0</ele><time>2026-03-29T12:18:09.999Z</time></trkpt><trkpt lat="37.41965016030817" lon="14.171285304770116"><ele>478.66666666666663</ele><time>2026-03-29T12:18:10.999Z</time></trkpt><trkpt lat="37.419597465742136" lon="14.171545255118009"><ele>478.33333333333337</ele><time>2026-03-29T12:18:11.999Z</time></trkpt><trkpt lat="37.41954346719963" lon="14.171807186258746"><ele>478.0</ele><time>2026-03-29T12:18:12.999Z</time></trkpt><trkpt lat="37.419488115994625" lon="14.172073532971659"><ele>478.0</ele><time>2026-03-29T12:18:13.999Z</time></trkpt><trkpt lat="37.41943254224222" lon="14.172339466428014"><ele>478.0</ele><time>2026-03-29T12:18:14.999Z</time></trkpt><trkpt lat="37.419376497855325" lon="14.172607082933668"><ele>478.0</ele><time>2026-03-29T12:18:15.999Z</time></trkpt><trkpt lat="37.41932169003892" lon="14.172876275040098"><ele>478.6666666666667</ele><time>2026-03-29T12:18:16.999Z</time></trkpt><trkpt lat="37.419268284713574" lon="14.173146713110512"><ele>479.33333333333337</ele><time>2026-03-29T12:18:17.999Z</time></trkpt><trkpt lat="37.41921354132937" lon="14.173420041411429"><ele>480.0</ele><time>2026-03-29T12:18:18.999Z</time></trkpt><trkpt lat="37.41915770253401" lon="14.17369612246488"><ele>480.0</ele><time>2026-03-29T12:18:19.999Z</time></trkpt><trkpt lat="37.41910177576526" lon="14.173970316318877"><ele>480.0</ele><time>2026-03-29T12:18:20.999Z</time></trkpt><trkpt lat="37.419047117681984" lon="14.174247798550526"><ele>479.0</ele><time>2026-03-29T12:18:21.999Z</time></trkpt><trkpt lat="37.41899071260955" lon="14.174524439336356"><ele>478.0</ele><time>2026-03-29T12:18:22.999Z</time></trkpt><trkpt lat="37.418933263539664" lon="14.17480055380432"><ele>478.5</ele><time>2026-03-29T12:18:23.999Z</time></trkpt><trkpt lat="37.41887481271464" lon="14.175078850210774"><ele>479.0</ele><time>2026-03-29T12:18:24.999Z</time></trkpt><trkpt lat="37.418816180426504" lon="14.175358380602633"><ele>479.5</ele><time>2026-03-29T12:18:25.999Z</time></trkpt><trkpt lat="37.4187588019996" lon="14.175636898472503"><ele>480.0</ele><time>2026-03-29T12:18:26.999Z</time></trkpt><trkpt lat="37.418701556877096" lon="14.175919302318988"><ele>480.5</ele><time>2026-03-29T12:18:27.999Z</time></trkpt><trkpt lat="37.418644597934424" lon="14.176203466952778"><ele>481.0</ele><time>2026-03-29T12:18:28.999Z</time></trkpt><trkpt lat="37.41858791741626" lon="14.176487795623963"><ele>480.5</ele><time>2026-03-29T12:18:29.999Z</time></trkpt><trkpt lat="37.41853122975029" lon="14.17677198673614"><ele>480.0</ele><time>2026-03-29T12:18:30.999Z</time></trkpt><trkpt lat="37.418473358972356" lon="14.177057280231592"><ele>480.0</ele><time>2026-03-29T12:18:31.999Z</time></trkpt><trkpt lat="37.41841549340018" lon="14.177344098061969"><ele>480.0</ele><time>2026-03-29T12:18:32.999Z</time></trkpt><trkpt lat="37.41835818832679" lon="14.177631295658129"><ele>480.5</ele><time>2026-03-29T12:18:33.999Z</time></trkpt><trkpt lat="37.418300286890315" lon="14.177919864207515"><ele>481.0</ele><time>2026-03-29T12:18:34.999Z</time></trkpt><trkpt lat="37.41823999773501" lon="14.178209370366146"><ele>481.5</ele><time>2026-03-29T12:18:35.999Z</time></trkpt><trkpt lat="37.418181250096936" lon="14.17849395250211"><ele>482.0</ele><time>2026-03-29T12:18:36.999Z</time></trkpt><trkpt lat="37.418122001150756" lon="14.178782209589922"><ele>483.0</ele><time>2026-03-29T12:18:37.999Z</time></trkpt><trkpt lat="37.418061717167426" lon="14.179072253742204"><ele>484.0</ele><time>2026-03-29T12:18:38.999Z</time></trkpt><trkpt lat="37.41800006257551" lon="14.17936369465306"><ele>484.0</ele><time>2026-03-29T12:18:39.999Z</time></trkpt><trkpt lat="37.417935567300226" lon="14.179654153971658"><ele>484.0</ele><time>2026-03-29T12:18:40.999Z</time></trkpt><trkpt lat="37.417849406122045" lon="14.179937304437294"><ele>484.0</ele><time>2026-03-29T12:18:41.999Z</time></trkpt><trkpt lat="37.41779430040052" lon="14.18022934799089"><ele>484.0</ele><time>2026-03-29T12:18:42.999Z</time></trkpt><trkpt lat="37.41772124525925" lon="14.180510950823177"><ele>484.5</ele><time>2026-03-29T12:18:43.999Z</time></trkpt><trkpt lat="37.41764925745953" lon="14.180792252244755"><ele>485.0</ele><time>2026-03-29T12:18:44.999Z</time></trkpt><trkpt lat="37.4175811975462" lon="14.18107380135541"><ele>485.0</ele><time>2026-03-29T12:18:45.999Z</time></trkpt><trkpt lat="37.417511034480086" lon="14.181354402492364"><ele>485.0</ele><time>2026-03-29T12:18:46.999Z</time></trkpt><trkpt lat="37.41744193005144" lon="14.18163625415114"><ele>485.0</ele><time>2026-03-29T12:18:47.999Z</time></trkpt><trkpt lat="37.417372236303805" lon="14.181915291197187"><ele>485.0</ele><time>2026-03-29T12:18:48.999Z</time></trkpt><trkpt lat="37.41730023206926" lon="14.182195570753713"><ele>485.0</ele><time>2026-03-29T12:18:49.999Z</time></trkpt><trkpt lat="37.417230733801496" lon="14.182475169629873"><ele>485.0</ele><time>2026-03-29T12:18:50.999Z</time></trkpt><trkpt lat="37.417164180462464" lon="14.182756754037019"><ele>485.0</ele><time>2026-03-29T12:18:51.999Z</time></trkpt><trkpt lat="37.41709707259941" lon="14.183039038018673"><ele>485.0</ele><time>2026-03-29T12:18:52.999Z</time></trkpt><trkpt lat="37.41703018919055" lon="14.18332394774386"><ele>485.5</ele><time>2026-03-29T12:18:53.999Z</time></trkpt><trkpt lat="37.41696788987872" lon="14.18360819786381"><ele>486.0</ele><time>2026-03-29T12:18:54.999Z</time></trkpt><trkpt lat="37.41690676147337" lon="14.183893396684374"><ele>486.0</ele><time>2026-03-29T12:18:55.999Z</time></trkpt><trkpt lat="37.4168484224473" lon="14.184179512426915"><ele>486.0</ele><time>2026-03-29T12:18:56.999Z</time></trkpt><trkpt lat="37.41679307177151" lon="14.184464652931151"><ele>486.0</ele><time>2026-03-29T12:18:57.999Z</time></trkpt><trkpt lat="37.416736001876984" lon="14.184747591122155"><ele>486.0</ele><time>2026-03-29T12:18:58.999Z</time></trkpt><trkpt lat="37.41667908899353" lon="14.18503071682314"><ele>486.0</ele><time>2026-03-29T12:18:59.999Z</time></trkpt><trkpt lat="37.41662273469584" lon="14.185312237992298"><ele>486.0</ele><time>2026-03-29T12:19:00.999Z</time></trkpt><trkpt lat="37.41656784961419" lon="14.185592805064653"><ele>487.0</ele><time>2026-03-29T12:19:01.999Z</time></trkpt><trkpt lat="37.416515691866685" lon="14.185874413945182"><ele>488.0</ele><time>2026-03-29T12:19:02.999Z</time></trkpt><trkpt lat="37.41646856293703" lon="14.186155513971734"><ele>488.0</ele><time>2026-03-29T12:19:03.999Z</time></trkpt><trkpt lat="37.41642827848263" lon="14.186438226268143"><ele>488.0</ele><time>2026-03-29T12:19:04.999Z</time></trkpt><trkpt lat="37.416395572089534" lon="14.186723617966159"><ele>489.0</ele><time>2026-03-29T12:19:05.999Z</time></trkpt><trkpt lat="37.41636907499812" lon="14.187011756733964"><ele>490.0</ele><time>2026-03-29T12:19:06.999Z</time></trkpt><trkpt lat="37.416349293389416" lon="14.187301769887835"><ele>490.5</ele><time>2026-03-29T12:19:07.999Z</time></trkpt><trkpt lat="37.41633464159165" lon="14.187590905276126"><ele>491.0</ele><time>2026-03-29T12:19:08.999Z</time></trkpt><trkpt lat="37.416323349371375" lon="14.187875531799353"><ele>491.0</ele><time>2026-03-29T12:19:09.999Z</time></trkpt><trkpt lat="37.416314444749055" lon="14.188162221582102"><ele>491.0</ele><time>2026-03-29T12:19:11Z</time></trkpt><trkpt lat="37.41630745848445" lon="14.1884452151643"><ele>491.0</ele><time>2026-03-29T12:19:12Z</time></trkpt><trkpt lat="37.41630153356141" lon="14.188729345868843"><ele>491.0</ele><time>2026-03-29T12:19:13Z</time></trkpt><trkpt lat="37.416294612470786" lon="14.18901805266668"><ele>491.0</ele><time>2026-03-29T12:19:14Z</time></trkpt><trkpt lat="37.41628778378594" lon="14.18930831851601"><ele>491.0</ele><time>2026-03-29T12:19:15Z</time></trkpt><trkpt lat="37.41627848784453" lon="14.189600008019054"><ele>491.0</ele><time>2026-03-29T12:19:16Z</time></trkpt><trkpt lat="37.416269138332595" lon="14.189889483332392"><ele>491.0</ele><time>2026-03-29T12:19:17Z</time></trkpt><trkpt lat="37.416261090649265" lon="14.190176081678517"><ele>491.0</ele><time>2026-03-29T12:19:18Z</time></trkpt><trkpt lat="37.416255343937706" lon="14.190458968619623"><ele>491.0</ele><time>2026-03-29T12:19:19Z</time></trkpt><trkpt lat="37.41625465735394" lon="14.190738492873667"><ele>491.0</ele><time>2026-03-29T12:19:20Z</time></trkpt><trkpt lat="37.41625938482254" lon="14.191017685658474"><ele>489.66666666666663</ele><time>2026-03-29T12:19:21Z</time></trkpt><trkpt lat="37.41626891345962" lon="14.191288854721279"><ele>488.33333333333337</ele><time>2026-03-29T12:19:22Z</time></trkpt><trkpt lat="37.41628269302885" lon="14.191554083068567"><ele>487.0</ele><time>2026-03-29T12:19:23Z</time></trkpt><trkpt lat="37.416300585057364" lon="14.191801404892377"><ele>488.33333333333337</ele><time>2026-03-29T12:19:24Z</time></trkpt><trkpt lat="37.41632304038145" lon="14.192046868164148"><ele>489.66666666666663</ele><time>2026-03-29T12:19:25Z</time></trkpt><trkpt lat="37.416354680995696" lon="14.192286540058541"><ele>491.0</ele><time>2026-03-29T12:19:26Z</time></trkpt><trkpt lat="37.41639150521519" lon="14.192519985436398"><ele>491.0</ele><time>2026-03-29T12:19:27Z</time></trkpt><trkpt lat="37.41643106020025" lon="14.192746401834821"><ele>491.0</ele><time>2026-03-29T12:19:28Z</time></trkpt><trkpt lat="37.41646853433055" lon="14.192959959380683"><ele>491.0</ele><time>2026-03-29T12:19:29Z</time></trkpt><trkpt lat="37.41649880820154" lon="14.193166251510965"><ele>489.66666666666663</ele><time>2026-03-29T12:19:30Z</time></trkpt><trkpt lat="37.41652352550931" lon="14.193372740379766"><ele>488.33333333333337</ele><time>2026-03-29T12:19:31Z</time></trkpt><trkpt lat="37.41653307791281" lon="14.193576190172418"><ele>487.0</ele><time>2026-03-29T12:19:32Z</time></trkpt><trkpt lat="37.41652097086552" lon="14.193775730096773"><ele>487.0</ele><time>2026-03-29T12:19:33Z</time></trkpt><trkpt lat="37.416488923553096" lon="14.193960929905522"><ele>487.0</ele><time>2026-03-29T12:19:34Z</time></trkpt><trkpt lat="37.41643840880875" lon="14.194135852827415"><ele>487.0</ele><time>2026-03-29T12:19:35Z</time></trkpt><trkpt lat="37.41635996326466" lon="14.194283544316994"><ele>487.0</ele><time>2026-03-29T12:19:36Z</time></trkpt><trkpt lat="37.41623676506965" lon="14.19439350715559"><ele>483.0</ele><time>2026-03-29T12:19:37Z</time></trkpt><trkpt lat="37.41609280408309" lon="14.194472944095612"><ele>479.0</ele><time>2026-03-29T12:19:38Z</time></trkpt><trkpt lat="37.415938577687754" lon="14.194504306779747"><ele>475.0</ele><time>2026-03-29T12:19:39Z</time></trkpt><trkpt lat="37.415785855265874" lon="14.194465270586516"><ele>475.0</ele><time>2026-03-29T12:19:40Z</time></trkpt><trkpt lat="37.415648796320625" lon="14.194369321872609"><ele>475.0</ele><time>2026-03-29T12:19:41Z</time></trkpt><trkpt lat="37.41553029058513" lon="14.194242820757822"><ele>475.0</ele><time>2026-03-29T12:19:42Z</time></trkpt><trkpt lat="37.41539475957547" lon="14.194147290044388"><ele>476.0</ele><time>2026-03-29T12:19:43Z</time></trkpt><trkpt lat="37.41524169561027" lon="14.19412084176454"><ele>477.0</ele><time>2026-03-29T12:19:44Z</time></trkpt><trkpt lat="37.41508709021132" lon="14.194164788421705"><ele>478.0</ele><time>2026-03-29T12:19:45Z</time></trkpt><trkpt lat="37.41493220130833" lon="14.194263653659867"><ele>478.0</ele><time>2026-03-29T12:19:46Z</time></trkpt><trkpt lat="37.41477123506761" lon="14.194382479558275"><ele>478.0</ele><time>2026-03-29T12:19:47Z</time></trkpt><trkpt lat="37.41460038512173" lon="14.194513312773536"><ele>478.0</ele><time>2026-03-29T12:19:48Z</time></trkpt><trkpt lat="37.414423919251924" lon="14.194651644259421"><ele>479.6666666666667</ele><time>2026-03-29T12:19:49Z</time></trkpt><trkpt lat="37.414242403171905" lon="14.194799444315219"><ele>481.33333333333337</ele><time>2026-03-29T12:19:50Z</time></trkpt><trkpt lat="37.41406089433673" lon="14.19495390171739"><ele>483.0</ele><time>2026-03-29T12:19:51Z</time></trkpt><trkpt lat="37.413876085354964" lon="14.195103906041059"><ele>480.33333333333337</ele><time>2026-03-29T12:19:52Z</time></trkpt><trkpt lat="37.413693388376885" lon="14.195250869220558"><ele>477.6666666666667</ele><time>2026-03-29T12:19:53Z</time></trkpt><trkpt lat="37.41351472469423" lon="14.195394466602398"><ele>475.0</ele><time>2026-03-29T12:19:54Z</time></trkpt><trkpt lat="37.41333711357368" lon="14.195538926428869"><ele>477.0</ele><time>2026-03-29T12:19:55Z</time></trkpt><trkpt lat="37.413161881384376" lon="14.19568230071639"><ele>479.0</ele><time>2026-03-29T12:19:56Z</time></trkpt><trkpt lat="37.412987814990785" lon="14.195822514955335"><ele>481.0</ele><time>2026-03-29T12:19:57Z</time></trkpt><trkpt lat="37.412819293443256" lon="14.195948170289839"><ele>481.0</ele><time>2026-03-29T12:19:58Z</time></trkpt><trkpt lat="37.4126504612166" lon="14.196011138419182"><ele>481.0</ele><time>2026-03-29T12:19:59Z</time></trkpt><trkpt lat="37.41248884511075" lon="14.196024381312732"><ele>481.0</ele><time>2026-03-29T12:19:59.999Z</time></trkpt><trkpt lat="37.412324526213794" lon="14.195994842246515"><ele>481.0</ele><time>2026-03-29T12:20:00.999Z</time></trkpt><trkpt lat="37.41217460750603" lon="14.195921807473065"><ele>481.0</ele><time>2026-03-29T12:20:01.999Z</time></trkpt><trkpt lat="37.412002457802316" lon="14.195853490960529"><ele>481.0</ele><time>2026-03-29T12:20:02.999Z</time></trkpt><trkpt lat="37.41183001041582" lon="14.19580018276575"><ele>481.6666666666667</ele><time>2026-03-29T12:20:03.999Z</time></trkpt><trkpt lat="37.41164626025906" lon="14.195791674065847"><ele>482.33333333333337</ele><time>2026-03-29T12:20:04.999Z</time></trkpt><trkpt lat="37.41145261377134" lon="14.195802948452396"><ele>483.0</ele><time>2026-03-29T12:20:05.999Z</time></trkpt><trkpt lat="37.41125730048815" lon="14.195861314447603"><ele>481.33333333333337</ele><time>2026-03-29T12:20:06.999Z</time></trkpt><trkpt lat="37.41106277176046" lon="14.195968165575792"><ele>479.6666666666667</ele><time>2026-03-29T12:20:07.999Z</time></trkpt><trkpt lat="37.410852582031" lon="14.196046099096463"><ele>478.0</ele><time>2026-03-29T12:20:08.999Z</time></trkpt><trkpt lat="37.410648246735875" lon="14.196140461857272"><ele>476.33333333333337</ele><time>2026-03-29T12:20:09.999Z</time></trkpt><trkpt lat="37.41045088022166" lon="14.196223979530918"><ele>474.66666666666663</ele><time>2026-03-29T12:20:10.999Z</time></trkpt><trkpt lat="37.41025753395594" lon="14.196279756496638"><ele>473.0</ele><time>2026-03-29T12:20:11.999Z</time></trkpt><trkpt lat="37.41006818340772" lon="14.19630504346451"><ele>473.0</ele><time>2026-03-29T12:20:12.999Z</time></trkpt><trkpt lat="37.409894354484635" lon="14.196297444454405"><ele>473.0</ele><time>2026-03-29T12:20:13.999Z</time></trkpt><trkpt lat="37.40972804652261" lon="14.196286007454002"><ele>473.0</ele><time>2026-03-29T12:20:14.999Z</time></trkpt><trkpt lat="37.409563613782424" lon="14.196261061593608"><ele>471.66666666666663</ele><time>2026-03-29T12:20:15.999Z</time></trkpt><trkpt lat="37.409387304629426" lon="14.196294746461858"><ele>470.33333333333337</ele><time>2026-03-29T12:20:16.999Z</time></trkpt><trkpt lat="37.4092131570897" lon="14.19638840879273"><ele>469.0</ele><time>2026-03-29T12:20:17.999Z</time></trkpt><trkpt lat="37.40905996956908" lon="14.196531588327414"><ele>469.0</ele><time>2026-03-29T12:20:18.999Z</time></trkpt><trkpt lat="37.40894051576534" lon="14.19671056366771"><ele>469.0</ele><time>2026-03-29T12:20:19.999Z</time></trkpt><trkpt lat="37.40887277937078" lon="14.19691287432166"><ele>469.0</ele><time>2026-03-29T12:20:20.999Z</time></trkpt><trkpt lat="37.408817441982094" lon="14.197147151339696"><ele>472.6666666666667</ele><time>2026-03-29T12:20:21.999Z</time></trkpt><trkpt lat="37.408727110136695" lon="14.197380201118204"><ele>476.33333333333337</ele><time>2026-03-29T12:20:22.999Z</time></trkpt><trkpt lat="37.408643468589254" lon="14.197627617200565"><ele>480.0</ele><time>2026-03-29T12:20:23.999Z</time></trkpt><trkpt lat="37.408525037371334" lon="14.19784812950347"><ele>480.0</ele><time>2026-03-29T12:20:24.999Z</time></trkpt><trkpt lat="37.408395190346" lon="14.198055062597232"><ele>480.0</ele><time>2026-03-29T12:20:25.999Z</time></trkpt><trkpt lat="37.40824309105122" lon="14.19823982505046"><ele>480.0</ele><time>2026-03-29T12:20:26.999Z</time></trkpt><trkpt lat="37.40810997939376" lon="14.198454352812684"><ele>482.0</ele><time>2026-03-29T12:20:27.999Z</time></trkpt><trkpt lat="37.40796023259558" lon="14.198659528608871"><ele>484.0</ele><time>2026-03-29T12:20:28.999Z</time></trkpt><trkpt lat="37.40781326106226" lon="14.198866455460546"><ele>486.0</ele><time>2026-03-29T12:20:29.999Z</time></trkpt><trkpt lat="37.407662975881145" lon="14.19907979676841"><ele>486.5</ele><time>2026-03-29T12:20:30.999Z</time></trkpt><trkpt lat="37.4075089904845" lon="14.19930080463214"><ele>487.0</ele><time>2026-03-29T12:20:31.999Z</time></trkpt><trkpt lat="37.40735069169766" lon="14.199527884570934"><ele>487.0</ele><time>2026-03-29T12:20:32.999Z</time></trkpt><trkpt lat="37.40718875707055" lon="14.199760925106641"><ele>487.0</ele><time>2026-03-29T12:20:33.999Z</time></trkpt><trkpt lat="37.40702615196019" lon="14.199994645729776"><ele>486.0</ele><time>2026-03-29T12:20:34.999Z</time></trkpt><trkpt lat="37.40686394171959" lon="14.200228773014675"><ele>485.0</ele><time>2026-03-29T12:20:35.999Z</time></trkpt><trkpt lat="37.40670281503977" lon="14.200461536922534"><ele>484.5</ele><time>2026-03-29T12:20:36.999Z</time></trkpt><trkpt lat="37.40654192898377" lon="14.200690852607826"><ele>484.0</ele><time>2026-03-29T12:20:37.999Z</time></trkpt><trkpt lat="37.40638370895842" lon="14.200916891290541"><ele>483.0</ele><time>2026-03-29T12:20:38.999Z</time></trkpt><trkpt lat="37.406229418783134" lon="14.201136435369508"><ele>482.0</ele><time>2026-03-29T12:20:39.999Z</time></trkpt><trkpt lat="37.40607940780238" lon="14.201352335674837"><ele>482.0</ele><time>2026-03-29T12:20:40.999Z</time></trkpt><trkpt lat="37.40593807208742" lon="14.20155782212034"><ele>482.0</ele><time>2026-03-29T12:20:41.999Z</time></trkpt><trkpt lat="37.405813348283615" lon="14.201749768215635"><ele>482.0</ele><time>2026-03-29T12:20:42.999Z</time></trkpt><trkpt lat="37.40570394981444" lon="14.201949200628903"><ele>482.0</ele><time>2026-03-29T12:20:43.999Z</time></trkpt><trkpt lat="37.40562311300554" lon="14.202161575785714"><ele>482.0</ele><time>2026-03-29T12:20:44.999Z</time></trkpt><trkpt lat="37.40557808353026" lon="14.202384158692054"><ele>482.0</ele><time>2026-03-29T12:20:45.999Z</time></trkpt><trkpt lat="37.405575379610475" lon="14.202610277526405"><ele>482.0</ele><time>2026-03-29T12:20:47Z</time></trkpt><trkpt lat="37.40560401086671" lon="14.202813342473037"><ele>482.0</ele><time>2026-03-29T12:20:48Z</time></trkpt><trkpt lat="37.40563537952934" lon="14.203000393067708"><ele>482.0</ele><time>2026-03-29T12:20:49Z</time></trkpt><trkpt lat="37.40562510447933" lon="14.203200392870906"><ele>482.0</ele><time>2026-03-29T12:20:50Z</time></trkpt><trkpt lat="37.405562442735224" lon="14.203391771502014"><ele>482.0</ele><time>2026-03-29T12:20:51Z</time></trkpt><trkpt lat="37.405450398598546" lon="14.203560495127528"><ele>482.0</ele><time>2026-03-29T12:20:52Z</time></trkpt><trkpt lat="37.405302687911444" lon="14.203700365576202"><ele>481.0</ele><time>2026-03-29T12:20:53Z</time></trkpt><trkpt lat="37.40512466320165" lon="14.203819414010844"><ele>480.0</ele><time>2026-03-29T12:20:54Z</time></trkpt><trkpt lat="37.404921131808926" lon="14.203918125743229"><ele>479.0</ele><time>2026-03-29T12:20:55Z</time></trkpt><trkpt lat="37.40471631899816" lon="14.204010094047145"><ele>476.0</ele><time>2026-03-29T12:20:56Z</time></trkpt><trkpt lat="37.40450088332452" lon="14.204104534073048"><ele>473.0</ele><time>2026-03-29T12:20:57Z</time></trkpt><trkpt lat="37.40429411913562" lon="14.204231512448855"><ele>473.0</ele><time>2026-03-29T12:20:58Z</time></trkpt><trkpt lat="37.404098708290846" lon="14.204386294865461"><ele>473.0</ele><time>2026-03-29T12:20:59Z</time></trkpt><trkpt lat="37.40390794185788" lon="14.204556455063008"><ele>472.5</ele><time>2026-03-29T12:21:00Z</time></trkpt><trkpt lat="37.403720088142215" lon="14.20474176502866"><ele>472.0</ele><time>2026-03-29T12:21:01Z</time></trkpt><trkpt lat="37.40353564563679" lon="14.204935698009672"><ele>472.0</ele><time>2026-03-29T12:21:02Z</time></trkpt><trkpt lat="37.403354573523394" lon="14.205136334683822"><ele>472.0</ele><time>2026-03-29T12:21:03Z</time></trkpt><trkpt lat="37.40317854005386" lon="14.205344232790715"><ele>472.0</ele><time>2026-03-29T12:21:04Z</time></trkpt><trkpt lat="37.40300296858533" lon="14.20555740021063"><ele>472.0</ele><time>2026-03-29T12:21:05Z</time></trkpt><trkpt lat="37.40283064227586" lon="14.205776113413862"><ele>469.0</ele><time>2026-03-29T12:21:06Z</time></trkpt><trkpt lat="37.402666701760424" lon="14.206002621995998"><ele>466.0</ele><time>2026-03-29T12:21:07Z</time></trkpt><trkpt lat="37.40250811987859" lon="14.206238889826937"><ele>466.0</ele><time>2026-03-29T12:21:08Z</time></trkpt><trkpt lat="37.40235551774713" lon="14.206487279360648"><ele>466.0</ele><time>2026-03-29T12:21:09Z</time></trkpt><trkpt lat="37.40220936452711" lon="14.206744084787232"><ele>463.5</ele><time>2026-03-29T12:21:10Z</time></trkpt><trkpt lat="37.402066102011695" lon="14.207007746323983"><ele>461.0</ele><time>2026-03-29T12:21:11Z</time></trkpt><trkpt lat="37.401922238732055" lon="14.207271761368952"><ele>462.0</ele><time>2026-03-29T12:21:12Z</time></trkpt><trkpt lat="37.40177753934403" lon="14.207536406049917"><ele>463.0</ele><time>2026-03-29T12:21:13Z</time></trkpt><trkpt lat="37.401632606623124" lon="14.207802416149265"><ele>463.0</ele><time>2026-03-29T12:21:14Z</time></trkpt><trkpt lat="37.40148727545885" lon="14.208067491144007"><ele>463.0</ele><time>2026-03-29T12:21:15Z</time></trkpt><trkpt lat="37.401342039906666" lon="14.208331880573397"><ele>460.0</ele><time>2026-03-29T12:21:16Z</time></trkpt><trkpt lat="37.401198838724916" lon="14.208596396632888"><ele>457.0</ele><time>2026-03-29T12:21:17Z</time></trkpt><trkpt lat="37.40105669030454" lon="14.20885781009028"><ele>457.0</ele><time>2026-03-29T12:21:18Z</time></trkpt><trkpt lat="37.40091493945392" lon="14.20911422148595"><ele>457.0</ele><time>2026-03-29T12:21:19Z</time></trkpt><trkpt lat="37.400775689617305" lon="14.209365528774285"><ele>457.0</ele><time>2026-03-29T12:21:20Z</time></trkpt><trkpt lat="37.40063586421767" lon="14.209608712755145"><ele>457.0</ele><time>2026-03-29T12:21:21Z</time></trkpt><trkpt lat="37.4004871122266" lon="14.209841640194883"><ele>455.5</ele><time>2026-03-29T12:21:22Z</time></trkpt><trkpt lat="37.40032451521656" lon="14.210063054885069"><ele>454.0</ele><time>2026-03-29T12:21:23Z</time></trkpt><trkpt lat="37.40015753078077" lon="14.210276739319172"><ele>454.0</ele><time>2026-03-29T12:21:24Z</time></trkpt><trkpt lat="37.39999011774118" lon="14.210489088308577"><ele>454.0</ele><time>2026-03-29T12:21:25Z</time></trkpt><trkpt lat="37.399824794260034" lon="14.21070399124258"><ele>452.5</ele><time>2026-03-29T12:21:26Z</time></trkpt><trkpt lat="37.39965954886785" lon="14.210919632068697"><ele>451.0</ele><time>2026-03-29T12:21:27Z</time></trkpt><trkpt lat="37.3994927011038" lon="14.211131536033497"><ele>451.0</ele><time>2026-03-29T12:21:28Z</time></trkpt><trkpt lat="37.399321725480405" lon="14.211334109253624"><ele>451.0</ele><time>2026-03-29T12:21:29Z</time></trkpt><trkpt lat="37.39914048148732" lon="14.211519041873128"><ele>450.6666666666667</ele><time>2026-03-29T12:21:30Z</time></trkpt><trkpt lat="37.39895822026618" lon="14.211682436819677"><ele>450.33333333333337</ele><time>2026-03-29T12:21:31Z</time></trkpt><trkpt lat="37.39876331356721" lon="14.211823633156563"><ele>450.0</ele><time>2026-03-29T12:21:32Z</time></trkpt><trkpt lat="37.39856132045108" lon="14.211946123472634"><ele>447.66666666666663</ele><time>2026-03-29T12:21:33Z</time></trkpt><trkpt lat="37.398357726324804" lon="14.212056216327486"><ele>445.3333333333333</ele><time>2026-03-29T12:21:34Z</time></trkpt><trkpt lat="37.39815970825445" lon="14.212167806915787"><ele>443.0</ele><time>2026-03-29T12:21:35Z</time></trkpt><trkpt lat="37.397969689455046" lon="14.212271257677799"><ele>442.3333333333333</ele><time>2026-03-29T12:21:36Z</time></trkpt><trkpt lat="37.397783106133424" lon="14.212373259023911"><ele>441.66666666666663</ele><time>2026-03-29T12:21:37Z</time></trkpt><trkpt lat="37.397589863369475" lon="14.212477570720253"><ele>441.0</ele><time>2026-03-29T12:21:38Z</time></trkpt><trkpt lat="37.39739509554377" lon="14.212580437018508"><ele>441.0</ele><time>2026-03-29T12:21:39Z</time></trkpt><trkpt lat="37.397207441300054" lon="14.212676115722505"><ele>441.0</ele><time>2026-03-29T12:21:40Z</time></trkpt><trkpt lat="37.397018077817044" lon="14.212766864142708"><ele>441.0</ele><time>2026-03-29T12:21:41Z</time></trkpt><trkpt lat="37.39682970645251" lon="14.21285423495177"><ele>439.33333333333337</ele><time>2026-03-29T12:21:42Z</time></trkpt><trkpt lat="37.39664272768359" lon="14.212934063676709"><ele>437.6666666666667</ele><time>2026-03-29T12:21:43Z</time></trkpt><trkpt lat="37.396457535074184" lon="14.21301325665398"><ele>436.0</ele><time>2026-03-29T12:21:44Z</time></trkpt><trkpt lat="37.39627229466116" lon="14.213087672513828"><ele>435.6666666666667</ele><time>2026-03-29T12:21:45Z</time></trkpt><trkpt lat="37.396086412069955" lon="14.213159572304965"><ele>435.33333333333337</ele><time>2026-03-29T12:21:46Z</time></trkpt><trkpt lat="37.395899170299884" lon="14.213231006757152"><ele>435.0</ele><time>2026-03-29T12:21:47Z</time></trkpt><trkpt lat="37.39571339955306" lon="14.213293881076272"><ele>435.0</ele><time>2026-03-29T12:21:48Z</time></trkpt><trkpt lat="37.395519676271256" lon="14.213334306857051"><ele>435.0</ele><time>2026-03-29T12:21:49Z</time></trkpt><trkpt lat="37.39531943238518" lon="14.213344949367942"><ele>435.0</ele><time>2026-03-29T12:21:50Z</time></trkpt><trkpt lat="37.395115532543656" lon="14.21333573399994"><ele>434.0</ele><time>2026-03-29T12:21:51Z</time></trkpt><trkpt lat="37.39490784941688" lon="14.213318441774925"><ele>433.0</ele><time>2026-03-29T12:21:52Z</time></trkpt><trkpt lat="37.39470226817788" lon="14.213290574555893"><ele>432.0</ele><time>2026-03-29T12:21:53Z</time></trkpt><trkpt lat="37.39450064260728" lon="14.213252340498418"><ele>431.0</ele><time>2026-03-29T12:21:54Z</time></trkpt><trkpt lat="37.394296187402176" lon="14.213207551167612"><ele>430.0</ele><time>2026-03-29T12:21:55Z</time></trkpt><trkpt lat="37.394091619825645" lon="14.213161559406"><ele>429.0</ele><time>2026-03-29T12:21:56Z</time></trkpt><trkpt lat="37.39388788426356" lon="14.21311760300776"><ele>427.66666666666663</ele><time>2026-03-29T12:21:57Z</time></trkpt><trkpt lat="37.39368475108829" lon="14.213074728933574"><ele>426.3333333333333</ele><time>2026-03-29T12:21:58Z</time></trkpt><trkpt lat="37.393482597482375" lon="14.21303604841151"><ele>425.0</ele><time>2026-03-29T12:21:59Z</time></trkpt><trkpt lat="37.39328262085737" lon="14.213002714049404"><ele>425.0</ele><time>2026-03-29T12:22:00Z</time></trkpt><trkpt lat="37.39308357189302" lon="14.21297525303883"><ele>425.0</ele><time>2026-03-29T12:22:01Z</time></trkpt><trkpt lat="37.392882614928126" lon="14.212956567189856"><ele>425.0</ele><time>2026-03-29T12:22:02Z</time></trkpt><trkpt lat="37.3926790346295" lon="14.212924982060178"><ele>424.3333333333333</ele><time>2026-03-29T12:22:03Z</time></trkpt><trkpt lat="37.39247611181959" lon="14.212945335373902"><ele>423.66666666666663</ele><time>2026-03-29T12:22:04Z</time></trkpt><trkpt lat="37.392272007821234" lon="14.212947186933894"><ele>423.0</ele><time>2026-03-29T12:22:05Z</time></trkpt><trkpt lat="37.39206581864675" lon="14.21295061445339"><ele>422.33333333333337</ele><time>2026-03-29T12:22:05.999Z</time></trkpt><trkpt lat="37.39185924036435" lon="14.212955061024632"><ele>421.6666666666667</ele><time>2026-03-29T12:22:06.999Z</time></trkpt><trkpt lat="37.39165489781044" lon="14.212960491475922"><ele>421.0</ele><time>2026-03-29T12:22:07.999Z</time></trkpt><trkpt lat="37.39145179470759" lon="14.212965291172333"><ele>419.6666666666667</ele><time>2026-03-29T12:22:08.999Z</time></trkpt><trkpt lat="37.391245711881" lon="14.2129699946843"><ele>418.33333333333337</ele><time>2026-03-29T12:22:09.999Z</time></trkpt><trkpt lat="37.39103733173898" lon="14.212975372089044"><ele>417.0</ele><time>2026-03-29T12:22:10.999Z</time></trkpt><trkpt lat="37.39082254421987" lon="14.212977922552195"><ele>417.0</ele><time>2026-03-29T12:22:11.999Z</time></trkpt><trkpt lat="37.3906076927379" lon="14.212981196300724"><ele>417.0</ele><time>2026-03-29T12:22:12.999Z</time></trkpt><trkpt lat="37.390392009918315" lon="14.212979326896624"><ele>417.0</ele><time>2026-03-29T12:22:13.999Z</time></trkpt><trkpt lat="37.39019104179884" lon="14.21298468022796"><ele>416.0</ele><time>2026-03-29T12:22:14.999Z</time></trkpt><trkpt lat="37.38999997663384" lon="14.212990803293607"><ele>415.0</ele><time>2026-03-29T12:22:15.999Z</time></trkpt><trkpt lat="37.389820380383505" lon="14.212997283612088"><ele>414.0</ele><time>2026-03-29T12:22:16.999Z</time></trkpt><trkpt lat="37.389648102951945" lon="14.213004542685264"><ele>414.0</ele><time>2026-03-29T12:22:17.999Z</time></trkpt><trkpt lat="37.38948510818765" lon="14.213016356867874"><ele>414.0</ele><time>2026-03-29T12:22:18.999Z</time></trkpt><trkpt lat="37.38933081217431" lon="14.21303098001702"><ele>414.0</ele><time>2026-03-29T12:22:19.999Z</time></trkpt><trkpt lat="37.389190807723054" lon="14.213048530515808"><ele>414.0</ele><time>2026-03-29T12:22:20.999Z</time></trkpt><trkpt lat="37.38905558049358" lon="14.2130670283257"><ele>414.0</ele><time>2026-03-29T12:22:21.999Z</time></trkpt><trkpt lat="37.38893003293144" lon="14.213083350961295"><ele>414.0</ele><time>2026-03-29T12:22:22.999Z</time></trkpt><trkpt lat="37.3888118856864" lon="14.21310123202006"><ele>414.0</ele><time>2026-03-29T12:22:23.999Z</time></trkpt><trkpt lat="37.38870169102455" lon="14.213114028464844"><ele>414.0</ele><time>2026-03-29T12:22:25Z</time></trkpt><trkpt lat="37.3886047142095" lon="14.213119183748715"><ele>414.0</ele><time>2026-03-29T12:22:26Z</time></trkpt><trkpt lat="37.38852134532785" lon="14.213110087130396"><ele>414.0</ele><time>2026-03-29T12:22:27Z</time></trkpt><trkpt lat="37.388448089728016" lon="14.21309257238676"><ele>414.0</ele><time>2026-03-29T12:22:28Z</time></trkpt><trkpt lat="37.388387911271536" lon="14.213048784950226"><ele>414.0</ele><time>2026-03-29T12:22:29Z</time></trkpt><trkpt lat="37.388256980308974" lon="14.213144070017293"><ele>414.0</ele><time>2026-03-29T12:22:31Z</time></trkpt><trkpt lat="37.388203283606586" lon="14.213216905994338"><ele>414.0</ele><time>2026-03-29T12:22:32Z</time></trkpt><trkpt lat="37.38813901032093" lon="14.21328132730126"><ele>414.0</ele><time>2026-03-29T12:22:33Z</time></trkpt><trkpt lat="37.3880663192094" lon="14.21333068669237"><ele>414.0</ele><time>2026-03-29T12:22:34Z</time></trkpt><trkpt lat="37.38798945332923" lon="14.21337597098132"><ele>414.0</ele><time>2026-03-29T12:22:35Z</time></trkpt><trkpt lat="37.38790198121885" lon="14.213421261542223"><ele>414.0</ele><time>2026-03-29T12:22:36Z</time></trkpt><trkpt lat="37.38780020298304" lon="14.213472087804377"><ele>414.0</ele><time>2026-03-29T12:22:37Z</time></trkpt><trkpt lat="37.387694117893204" lon="14.213525605090993"><ele>414.0</ele><time>2026-03-29T12:22:38Z</time></trkpt><trkpt lat="37.387586664742976" lon="14.21358095829539"><ele>414.0</ele><time>2026-03-29T12:22:39Z</time></trkpt><trkpt lat="37.38747231759796" lon="14.213643006133822"><ele>414.0</ele><time>2026-03-29T12:22:40Z</time></trkpt><trkpt lat="37.38734297767698" lon="14.213716045484682"><ele>414.0</ele><time>2026-03-29T12:22:41Z</time></trkpt><trkpt lat="37.387207458159075" lon="14.213796451012783"><ele>414.0</ele><time>2026-03-29T12:22:42Z</time></trkpt><trkpt lat="37.38707071509973" lon="14.213882536170704"><ele>414.0</ele><time>2026-03-29T12:22:43Z</time></trkpt><trkpt lat="37.38693132629741" lon="14.213977088754655"><ele>414.0</ele><time>2026-03-29T12:22:44Z</time></trkpt><trkpt lat="37.38678986331324" lon="14.214071961941274"><ele>414.0</ele><time>2026-03-29T12:22:45Z</time></trkpt><trkpt lat="37.38664870729837" lon="14.214167699544376"><ele>414.0</ele><time>2026-03-29T12:22:46Z</time></trkpt><trkpt lat="37.38651017244204" lon="14.214259857345224"><ele>414.0</ele><time>2026-03-29T12:22:47Z</time></trkpt><trkpt lat="37.38637391834531" lon="14.214352811617191"><ele>414.0</ele><time>2026-03-29T12:22:48Z</time></trkpt><trkpt lat="37.38623591337765" lon="14.214447928014021"><ele>414.0</ele><time>2026-03-29T12:22:49Z</time></trkpt><trkpt lat="37.38609649012736" lon="14.21454267363028"><ele>414.0</ele><time>2026-03-29T12:22:50Z</time></trkpt><trkpt lat="37.38595601727697" lon="14.21463858504557"><ele>414.0</ele><time>2026-03-29T12:22:51Z</time></trkpt><trkpt lat="37.38580069811379" lon="14.21475035659625"><ele>414.0</ele><time>2026-03-29T12:22:52Z</time></trkpt><trkpt lat="37.385625214430476" lon="14.21484976725704"><ele>415.33333333333337</ele><time>2026-03-29T12:22:53Z</time></trkpt><trkpt lat="37.38545497697509" lon="14.214967269752444"><ele>416.6666666666667</ele><time>2026-03-29T12:22:54Z</time></trkpt><trkpt lat="37.385283776947404" lon="14.215087000997224"><ele>418.0</ele><time>2026-03-29T12:22:55Z</time></trkpt><trkpt lat="37.38512119223475" lon="14.21522197105479"><ele>418.0</ele><time>2026-03-29T12:22:56Z</time></trkpt><trkpt lat="37.38495175921259" lon="14.215338516532354"><ele>418.0</ele><time>2026-03-29T12:22:57Z</time></trkpt><trkpt lat="37.38478106773315" lon="14.215456090080393"><ele>418.0</ele><time>2026-03-29T12:22:58Z</time></trkpt><trkpt lat="37.38461007870745" lon="14.215574093021068"><ele>418.0</ele><time>2026-03-29T12:22:59Z</time></trkpt><trkpt lat="37.384442426332136" lon="14.215692548203794"><ele>418.0</ele><time>2026-03-29T12:23:00Z</time></trkpt><trkpt lat="37.38427418895936" lon="14.215809885193076"><ele>418.0</ele><time>2026-03-29T12:23:01Z</time></trkpt><trkpt lat="37.38410568708653" lon="14.21592523217514"><ele>418.0</ele><time>2026-03-29T12:23:02Z</time></trkpt><trkpt lat="37.383936664750365" lon="14.216039142022488"><ele>418.0</ele><time>2026-03-29T12:23:03Z</time></trkpt><trkpt lat="37.38376857793329" lon="14.216152438186564"><ele>418.0</ele><time>2026-03-29T12:23:04Z</time></trkpt><trkpt lat="37.383603104056085" lon="14.216265846213467"><ele>418.6666666666667</ele><time>2026-03-29T12:23:05Z</time></trkpt><trkpt lat="37.38343659535936" lon="14.216380227644624"><ele>419.33333333333337</ele><time>2026-03-29T12:23:06Z</time></trkpt><trkpt lat="37.38327272198422" lon="14.216492765898467"><ele>420.0</ele><time>2026-03-29T12:23:07Z</time></trkpt><trkpt lat="37.383110422524894" lon="14.216601225251859"><ele>420.0</ele><time>2026-03-29T12:23:08Z</time></trkpt><trkpt lat="37.38294999309962" lon="14.216707363250668"><ele>420.0</ele><time>2026-03-29T12:23:09Z</time></trkpt><trkpt lat="37.38279051249074" lon="14.216812915528475"><ele>420.0</ele><time>2026-03-29T12:23:10Z</time></trkpt><trkpt lat="37.38263208389887" lon="14.216918875090784"><ele>420.0</ele><time>2026-03-29T12:23:11Z</time></trkpt><trkpt lat="37.382476042482004" lon="14.217023319931013"><ele>420.0</ele><time>2026-03-29T12:23:12Z</time></trkpt><trkpt lat="37.382159713871054" lon="14.217240858519554"><ele>421.33333333333337</ele><time>2026-03-29T12:23:14Z</time></trkpt><trkpt lat="37.38200176422457" lon="14.21735141223757"><ele>422.6666666666667</ele><time>2026-03-29T12:23:15Z</time></trkpt><trkpt lat="37.381844070157975" lon="14.217461205205336"><ele>424.0</ele><time>2026-03-29T12:23:16Z</time></trkpt><trkpt lat="37.38169035053896" lon="14.217564746389804"><ele>424.0</ele><time>2026-03-29T12:23:17Z</time></trkpt><trkpt lat="37.38154736509943" lon="14.217657993463003"><ele>424.0</ele><time>2026-03-29T12:23:18Z</time></trkpt><trkpt lat="37.381413350392386" lon="14.217750107974988"><ele>424.0</ele><time>2026-03-29T12:23:19Z</time></trkpt><trkpt lat="37.381282844027716" lon="14.217837867493348"><ele>424.25</ele><time>2026-03-29T12:23:20Z</time></trkpt><trkpt lat="37.381155330264136" lon="14.21792093725425"><ele>424.5</ele><time>2026-03-29T12:23:21Z</time></trkpt><trkpt lat="37.38103685652731" lon="14.218001108809169"><ele>424.75</ele><time>2026-03-29T12:23:22Z</time></trkpt><trkpt lat="37.3809277879575" lon="14.218074062824844"><ele>425.0</ele><time>2026-03-29T12:23:23Z</time></trkpt><trkpt lat="37.38082926953036" lon="14.218141634582043"><ele>424.8333333333333</ele><time>2026-03-29T12:23:24Z</time></trkpt><trkpt lat="37.38074334164691" lon="14.218201191813854"><ele>424.66666666666663</ele><time>2026-03-29T12:23:25Z</time></trkpt><trkpt lat="37.380663695235114" lon="14.218247111354511"><ele>424.5</ele><time>2026-03-29T12:23:26Z</time></trkpt><trkpt lat="37.380591127617045" lon="14.2182755593828"><ele>424.33333333333337</ele><time>2026-03-29T12:23:27Z</time></trkpt><trkpt lat="37.38052429345917" lon="14.218282395700282"><ele>424.1666666666667</ele><time>2026-03-29T12:23:28Z</time></trkpt><trkpt lat="37.380456072752544" lon="14.21828661678548"><ele>424.0</ele><time>2026-03-29T12:23:29Z</time></trkpt><trkpt lat="37.380388555121016" lon="14.218302699795027"><ele>423.0</ele><time>2026-03-29T12:23:30Z</time></trkpt><trkpt lat="37.38027543881171" lon="14.218430054243418"><ele>422.0</ele><time>2026-03-29T12:23:32Z</time></trkpt><trkpt lat="37.380227628760885" lon="14.218526636086082"><ele>421.0</ele><time>2026-03-29T12:23:33Z</time></trkpt><trkpt lat="37.38005390729593" lon="14.218700219652918"><ele>421.0</ele><time>2026-03-29T12:23:35Z</time></trkpt><trkpt lat="37.379935499120066" lon="14.218790578719425"><ele>421.0</ele><time>2026-03-29T12:23:36Z</time></trkpt><trkpt lat="37.37980625484908" lon="14.218895922508047"><ele>421.0</ele><time>2026-03-29T12:23:37Z</time></trkpt><trkpt lat="37.379675065023626" lon="14.219011404917756"><ele>421.6666666666667</ele><time>2026-03-29T12:23:38Z</time></trkpt><trkpt lat="37.37954746481628" lon="14.219128442705248"><ele>422.33333333333337</ele><time>2026-03-29T12:23:39Z</time></trkpt><trkpt lat="37.37942315184941" lon="14.219250308239618"><ele>423.0</ele><time>2026-03-29T12:23:40Z</time></trkpt><trkpt lat="37.379305032704075" lon="14.219372908307918"><ele>423.0</ele><time>2026-03-29T12:23:41Z</time></trkpt><trkpt lat="37.379187333157745" lon="14.219496636028403"><ele>423.0</ele><time>2026-03-29T12:23:42Z</time></trkpt><trkpt lat="37.37906924703618" lon="14.219630703700885"><ele>423.0</ele><time>2026-03-29T12:23:43Z</time></trkpt><trkpt lat="37.37895355071627" lon="14.219771927314765"><ele>423.0</ele><time>2026-03-29T12:23:44Z</time></trkpt><trkpt lat="37.37883907135598" lon="14.21991361200677"><ele>423.0</ele><time>2026-03-29T12:23:45Z</time></trkpt><trkpt lat="37.378722420888046" lon="14.220055777975452"><ele>423.0</ele><time>2026-03-29T12:23:46Z</time></trkpt><trkpt lat="37.3786063300129" lon="14.220196596461976"><ele>423.0</ele><time>2026-03-29T12:23:47Z</time></trkpt><trkpt lat="37.37849512953042" lon="14.220333780667222"><ele>423.0</ele><time>2026-03-29T12:23:48Z</time></trkpt><trkpt lat="37.37838630013757" lon="14.220467079106832"><ele>423.0</ele><time>2026-03-29T12:23:49Z</time></trkpt><trkpt lat="37.37827806630594" lon="14.220591718286082"><ele>423.5</ele><time>2026-03-29T12:23:50Z</time></trkpt><trkpt lat="37.378154806778284" lon="14.220685831185886"><ele>424.0</ele><time>2026-03-29T12:23:51Z</time></trkpt><trkpt lat="37.378038296828905" lon="14.220792134274664"><ele>424.5</ele><time>2026-03-29T12:23:52Z</time></trkpt><trkpt lat="37.37790918271304" lon="14.220863793194214"><ele>425.0</ele><time>2026-03-29T12:23:53Z</time></trkpt><trkpt lat="37.37777316174437" lon="14.220917750055458"><ele>425.0</ele><time>2026-03-29T12:23:54Z</time></trkpt><trkpt lat="37.3776268418996" lon="14.220931922719194"><ele>425.0</ele><time>2026-03-29T12:23:55Z</time></trkpt><trkpt lat="37.37748320908976" lon="14.220976122746931"><ele>425.0</ele><time>2026-03-29T12:23:56Z</time></trkpt><trkpt lat="37.37733226977225" lon="14.220997446786672"><ele>425.0</ele><time>2026-03-29T12:23:57Z</time></trkpt><trkpt lat="37.377172601036825" lon="14.221021499890634"><ele>424.3333333333333</ele><time>2026-03-29T12:23:58Z</time></trkpt><trkpt lat="37.37700684961087" lon="14.221048089219703"><ele>423.66666666666663</ele><time>2026-03-29T12:23:59Z</time></trkpt><trkpt lat="37.37683860505567" lon="14.22107423572903"><ele>423.0</ele><time>2026-03-29T12:24:00Z</time></trkpt><trkpt lat="37.37668043425047" lon="14.221097345553877"><ele>423.0</ele><time>2026-03-29T12:24:01Z</time></trkpt><trkpt lat="37.37653863401454" lon="14.221117202179594"><ele>423.0</ele><time>2026-03-29T12:24:02Z</time></trkpt><trkpt lat="37.37641587417349" lon="14.221136377013773"><ele>423.0</ele><time>2026-03-29T12:24:03Z</time></trkpt><trkpt lat="37.37632063214382" lon="14.221161247495038"><ele>423.0</ele><time>2026-03-29T12:24:04.001Z</time></trkpt><trkpt lat="37.37622136492023" lon="14.221206390915714"><ele>423.2</ele><time>2026-03-29T12:24:05.001Z</time></trkpt><trkpt lat="37.37614341292531" lon="14.221289936384647"><ele>423.4</ele><time>2026-03-29T12:24:06.001Z</time></trkpt><trkpt lat="37.376085669539236" lon="14.22139480293292"><ele>423.59999999999997</ele><time>2026-03-29T12:24:07.001Z</time></trkpt><trkpt lat="37.37604418691154" lon="14.22152305820171"><ele>423.79999999999995</ele><time>2026-03-29T12:24:08.001Z</time></trkpt><trkpt lat="37.37601445375387" lon="14.22166965185365"><ele>424.0</ele><time>2026-03-29T12:24:09.001Z</time></trkpt><trkpt lat="37.375996187886315" lon="14.221822887792408"><ele>425.5</ele><time>2026-03-29T12:24:10.001Z</time></trkpt><trkpt lat="37.3759888931401" lon="14.221995452043704"><ele>427.0</ele><time>2026-03-29T12:24:11Z</time></trkpt><trkpt lat="37.375993584144275" lon="14.222185616737569"><ele>428.5</ele><time>2026-03-29T12:24:12Z</time></trkpt><trkpt lat="37.375998434995545" lon="14.222382205742678"><ele>430.0</ele><time>2026-03-29T12:24:13Z</time></trkpt><trkpt lat="37.376001167153305" lon="14.22258332336332"><ele>432.0</ele><time>2026-03-29T12:24:14Z</time></trkpt><trkpt lat="37.376005900876336" lon="14.222776125754812"><ele>434.0</ele><time>2026-03-29T12:24:15Z</time></trkpt><trkpt lat="37.37600682918274" lon="14.222968507144401"><ele>436.0</ele><time>2026-03-29T12:24:16Z</time></trkpt><trkpt lat="37.37599709161273" lon="14.223163225584404"><ele>437.0</ele><time>2026-03-29T12:24:17Z</time></trkpt><trkpt lat="37.375976455386215" lon="14.223369587341322"><ele>438.0</ele><time>2026-03-29T12:24:18Z</time></trkpt><trkpt lat="37.37594337888919" lon="14.223572381010893"><ele>439.0</ele><time>2026-03-29T12:24:19Z</time></trkpt><trkpt lat="37.3759063642979" lon="14.22379504860603"><ele>440.0</ele><time>2026-03-29T12:24:20Z</time></trkpt><trkpt lat="37.37584032728007" lon="14.2240413627732"><ele>441.0</ele><time>2026-03-29T12:24:21Z</time></trkpt><trkpt lat="37.37578588204917" lon="14.22430531437919"><ele>442.0</ele><time>2026-03-29T12:24:22Z</time></trkpt><trkpt lat="37.37573931161108" lon="14.224585309391646"><ele>443.0</ele><time>2026-03-29T12:24:23Z</time></trkpt><trkpt lat="37.375663872445884" lon="14.224866619418568"><ele>444.0</ele><time>2026-03-29T12:24:24Z</time></trkpt><trkpt lat="37.37558780690878" lon="14.225146797184129"><ele>445.5</ele><time>2026-03-29T12:24:25Z</time></trkpt><trkpt lat="37.375506306626754" lon="14.225413151477303"><ele>447.0</ele><time>2026-03-29T12:24:26Z</time></trkpt><trkpt lat="37.37541740770726" lon="14.225672135022025"><ele>447.66666666666663</ele><time>2026-03-29T12:24:27Z</time></trkpt><trkpt lat="37.375334894854866" lon="14.225928636003905"><ele>448.3333333333333</ele><time>2026-03-29T12:24:28Z</time></trkpt><trkpt lat="37.37526837450939" lon="14.226187911499363"><ele>449.0</ele><time>2026-03-29T12:24:29Z</time></trkpt><trkpt lat="37.37522015004597" lon="14.2264283208717"><ele>450.3333333333333</ele><time>2026-03-29T12:24:30Z</time></trkpt><trkpt lat="37.37518570203976" lon="14.226661373187662"><ele>451.66666666666663</ele><time>2026-03-29T12:24:31Z</time></trkpt><trkpt lat="37.37517503665074" lon="14.226868980042633"><ele>453.0</ele><time>2026-03-29T12:24:32Z</time></trkpt><trkpt lat="37.375192127632374" lon="14.227062232668855"><ele>453.0</ele><time>2026-03-29T12:24:33Z</time></trkpt><trkpt lat="37.37524802671475" lon="14.227254007309424"><ele>453.0</ele><time>2026-03-29T12:24:34Z</time></trkpt><trkpt lat="37.37534042219586" lon="14.227442621899167"><ele>453.0</ele><time>2026-03-29T12:24:35Z</time></trkpt><trkpt lat="37.37546412061776" lon="14.227621607897463"><ele>454.66666666666663</ele><time>2026-03-29T12:24:36Z</time></trkpt><trkpt lat="37.37560896556901" lon="14.227784342988556"><ele>456.3333333333333</ele><time>2026-03-29T12:24:37Z</time></trkpt><trkpt lat="37.37575375506135" lon="14.227938522704997"><ele>458.0</ele><time>2026-03-29T12:24:38Z</time></trkpt><trkpt lat="37.3758929805183" lon="14.22810182718867"><ele>455.66666666666663</ele><time>2026-03-29T12:24:39Z</time></trkpt><trkpt lat="37.376019449459996" lon="14.228255799005925"><ele>453.33333333333337</ele><time>2026-03-29T12:24:40Z</time></trkpt><trkpt lat="37.37611407188321" lon="14.228409644539026"><ele>451.0</ele><time>2026-03-29T12:24:41Z</time></trkpt><trkpt lat="37.376166344406506" lon="14.228588474085651"><ele>451.0</ele><time>2026-03-29T12:24:42Z</time></trkpt><trkpt lat="37.376179877195376" lon="14.228798918967733"><ele>451.0</ele><time>2026-03-29T12:24:43Z</time></trkpt><trkpt lat="37.376153736982246" lon="14.229024607020046"><ele>451.0</ele><time>2026-03-29T12:24:44Z</time></trkpt><trkpt lat="37.37609110141791" lon="14.229271351995028"><ele>448.6666666666667</ele><time>2026-03-29T12:24:45Z</time></trkpt><trkpt lat="37.37604474922937" lon="14.229536049018957"><ele>446.33333333333337</ele><time>2026-03-29T12:24:46Z</time></trkpt><trkpt lat="37.37600734853797" lon="14.229810016128518"><ele>444.0</ele><time>2026-03-29T12:24:47Z</time></trkpt><trkpt lat="37.37596967752864" lon="14.23008446875448"><ele>444.0</ele><time>2026-03-29T12:24:48Z</time></trkpt><trkpt lat="37.37592778210034" lon="14.230342546997226"><ele>444.0</ele><time>2026-03-29T12:24:49Z</time></trkpt><trkpt lat="37.37588697563115" lon="14.230582996079136"><ele>444.0</ele><time>2026-03-29T12:24:50Z</time></trkpt><trkpt lat="37.375846252739144" lon="14.230809102619986"><ele>444.0</ele><time>2026-03-29T12:24:51Z</time></trkpt><trkpt lat="37.375805250456914" lon="14.231019364498014"><ele>444.0</ele><time>2026-03-29T12:24:52Z</time></trkpt><trkpt lat="37.375761672228094" lon="14.23121947125721"><ele>444.0</ele><time>2026-03-29T12:24:53Z</time></trkpt><trkpt lat="37.37571315485084" lon="14.231405369088657"><ele>444.0</ele><time>2026-03-29T12:24:54Z</time></trkpt><trkpt lat="37.37565812096138" lon="14.231574592537386"><ele>444.0</ele><time>2026-03-29T12:24:55Z</time></trkpt><trkpt lat="37.375605441791336" lon="14.231737621238636"><ele>444.0</ele><time>2026-03-29T12:24:56Z</time></trkpt><trkpt lat="37.375579839964615" lon="14.231907644438392"><ele>444.0</ele><time>2026-03-29T12:24:57Z</time></trkpt><trkpt lat="37.37559419403259" lon="14.232097488755768"><ele>444.0</ele><time>2026-03-29T12:24:58Z</time></trkpt><trkpt lat="37.375654266618255" lon="14.232276179613065"><ele>444.0</ele><time>2026-03-29T12:24:59Z</time></trkpt><trkpt lat="37.37570985603706" lon="14.232457454656418"><ele>444.0</ele><time>2026-03-29T12:25:00Z</time></trkpt><trkpt lat="37.37571128244223" lon="14.232650144405374"><ele>443.0</ele><time>2026-03-29T12:25:01Z</time></trkpt><trkpt lat="37.37566269034277" lon="14.232848464308006"><ele>442.0</ele><time>2026-03-29T12:25:02Z</time></trkpt><trkpt lat="37.37560436351637" lon="14.23305777704827"><ele>441.0</ele><time>2026-03-29T12:25:03Z</time></trkpt><trkpt lat="37.37558228095153" lon="14.233276171202354"><ele>439.66666666666663</ele><time>2026-03-29T12:25:04Z</time></trkpt><trkpt lat="37.37559687398974" lon="14.233500147291966"><ele>438.3333333333333</ele><time>2026-03-29T12:25:05Z</time></trkpt><trkpt lat="37.37562811475723" lon="14.2337133295155"><ele>437.0</ele><time>2026-03-29T12:25:06Z</time></trkpt><trkpt lat="37.37565399278184" lon="14.233919606033819"><ele>436.66666666666663</ele><time>2026-03-29T12:25:07Z</time></trkpt><trkpt lat="37.375667879453204" lon="14.234129691118623"><ele>436.33333333333337</ele><time>2026-03-29T12:25:08Z</time></trkpt><trkpt lat="37.37568563588291" lon="14.23433629445308"><ele>436.0</ele><time>2026-03-29T12:25:09Z</time></trkpt><trkpt lat="37.3757282646975" lon="14.23454953621617"><ele>436.0</ele><time>2026-03-29T12:25:10Z</time></trkpt><trkpt lat="37.37579665181893" lon="14.234763370637232"><ele>436.0</ele><time>2026-03-29T12:25:11Z</time></trkpt><trkpt lat="37.3758606442823" lon="14.234964994904104"><ele>436.0</ele><time>2026-03-29T12:25:12Z</time></trkpt><trkpt lat="37.3758883541554" lon="14.235157000402703"><ele>434.5</ele><time>2026-03-29T12:25:13Z</time></trkpt><trkpt lat="37.37587692602691" lon="14.235341967820085"><ele>433.0</ele><time>2026-03-29T12:25:14Z</time></trkpt><trkpt lat="37.37584813299557" lon="14.235512683209484"><ele>431.5</ele><time>2026-03-29T12:25:15Z</time></trkpt><trkpt lat="37.37586565739881" lon="14.235669203787713"><ele>430.0</ele><time>2026-03-29T12:25:16Z</time></trkpt><trkpt lat="37.37594434284629" lon="14.235807452077507"><ele>427.75</ele><time>2026-03-29T12:25:17Z</time></trkpt><trkpt lat="37.3760582308867" lon="14.235918811245954"><ele>425.5</ele><time>2026-03-29T12:25:18Z</time></trkpt><trkpt lat="37.3761344777283" lon="14.23605519832152"><ele>423.25</ele><time>2026-03-29T12:25:19Z</time></trkpt><trkpt lat="37.376161560504656" lon="14.236230006976433"><ele>421.0</ele><time>2026-03-29T12:25:20Z</time></trkpt><trkpt lat="37.37615278699261" lon="14.236436452022232"><ele>419.0</ele><time>2026-03-29T12:25:21Z</time></trkpt><trkpt lat="37.376133054784376" lon="14.236663212948011"><ele>417.0</ele><time>2026-03-29T12:25:22Z</time></trkpt><trkpt lat="37.37612365211738" lon="14.23690827607395"><ele>415.0</ele><time>2026-03-29T12:25:23Z</time></trkpt><trkpt lat="37.37611978962252" lon="14.237161525477022"><ele>415.33333333333337</ele><time>2026-03-29T12:25:24Z</time></trkpt><trkpt lat="37.37611582552772" lon="14.237422670147454"><ele>415.66666666666663</ele><time>2026-03-29T12:25:25.001Z</time></trkpt><trkpt lat="37.376113446580064" lon="14.237680409885375"><ele>416.0</ele><time>2026-03-29T12:25:26.001Z</time></trkpt><trkpt lat="37.376111151257675" lon="14.23792931184153"><ele>416.3333333333333</ele><time>2026-03-29T12:25:27.001Z</time></trkpt><trkpt lat="37.3761053837141" lon="14.23818155768423"><ele>416.66666666666663</ele><time>2026-03-29T12:25:28.001Z</time></trkpt><trkpt lat="37.376099708435426" lon="14.238439363206465"><ele>417.0</ele><time>2026-03-29T12:25:29.001Z</time></trkpt><trkpt lat="37.37609432081353" lon="14.238703729804948"><ele>415.33333333333337</ele><time>2026-03-29T12:25:30.001Z</time></trkpt><trkpt lat="37.37609006452135" lon="14.238971597784511"><ele>413.6666666666667</ele><time>2026-03-29T12:25:31.001Z</time></trkpt><trkpt lat="37.37608647026916" lon="14.239238044976917"><ele>412.0</ele><time>2026-03-29T12:25:32.001Z</time></trkpt><trkpt lat="37.37608248076253" lon="14.239504729370042"><ele>412.0</ele><time>2026-03-29T12:25:33.001Z</time></trkpt><trkpt lat="37.37607895561699" lon="14.239773025880352"><ele>412.0</ele><time>2026-03-29T12:25:34.001Z</time></trkpt><trkpt lat="37.376073887787555" lon="14.240041324052017"><ele>412.0</ele><time>2026-03-29T12:25:35.001Z</time></trkpt><trkpt lat="37.376067761531736" lon="14.240312179209553"><ele>409.6666666666667</ele><time>2026-03-29T12:25:36.001Z</time></trkpt><trkpt lat="37.37605892138726" lon="14.240572618907049"><ele>407.33333333333337</ele><time>2026-03-29T12:25:37.001Z</time></trkpt><trkpt lat="37.376051542743866" lon="14.24082827680561"><ele>405.0</ele><time>2026-03-29T12:25:38.001Z</time></trkpt><trkpt lat="37.37604722052441" lon="14.241077278463763"><ele>403.33333333333337</ele><time>2026-03-29T12:25:39.001Z</time></trkpt><trkpt lat="37.3760423142894" lon="14.241318208498614"><ele>401.6666666666667</ele><time>2026-03-29T12:25:40.001Z</time></trkpt><trkpt lat="37.37603770426928" lon="14.241546789802843"><ele>400.0</ele><time>2026-03-29T12:25:41.001Z</time></trkpt><trkpt lat="37.37603475987785" lon="14.241759576855511"><ele>399.33333333333337</ele><time>2026-03-29T12:25:42.001Z</time></trkpt><trkpt lat="37.3760460587701" lon="14.24196397675929"><ele>398.66666666666663</ele><time>2026-03-29T12:25:43.001Z</time></trkpt><trkpt lat="37.37608645784287" lon="14.242172464212025"><ele>398.0</ele><time>2026-03-29T12:25:44.001Z</time></trkpt><trkpt lat="37.376150180435" lon="14.242377942718841"><ele>396.66666666666663</ele><time>2026-03-29T12:25:45.001Z</time></trkpt><trkpt lat="37.37622633826223" lon="14.242571868700885"><ele>395.33333333333337</ele><time>2026-03-29T12:25:46.001Z</time></trkpt><trkpt lat="37.37630049335658" lon="14.242768888472323"><ele>394.0</ele><time>2026-03-29T12:25:47.001Z</time></trkpt><trkpt lat="37.37636975255609" lon="14.242962379648116"><ele>396.0</ele><time>2026-03-29T12:25:48.001Z</time></trkpt><trkpt lat="37.37643870787841" lon="14.243158546195934"><ele>398.0</ele><time>2026-03-29T12:25:49.001Z</time></trkpt><trkpt lat="37.37651208686379" lon="14.243352045948951"><ele>400.0</ele><time>2026-03-29T12:25:50.001Z</time></trkpt><trkpt lat="37.37658457020818" lon="14.243539432212158"><ele>400.0</ele><time>2026-03-29T12:25:51.001Z</time></trkpt><trkpt lat="37.37664606542399" lon="14.243722389607143"><ele>400.0</ele><time>2026-03-29T12:25:52.001Z</time></trkpt><trkpt lat="37.37668517465068" lon="14.24390306221044"><ele>400.0</ele><time>2026-03-29T12:25:53.001Z</time></trkpt><trkpt lat="37.37669331864235" lon="14.244093010129664"><ele>398.75</ele><time>2026-03-29T12:25:54.001Z</time></trkpt><trkpt lat="37.376673658765355" lon="14.244283084294192"><ele>397.5</ele><time>2026-03-29T12:25:55.001Z</time></trkpt><trkpt lat="37.37663527535362" lon="14.244455519518088"><ele>396.25</ele><time>2026-03-29T12:25:56.001Z</time></trkpt><trkpt lat="37.37657893231262" lon="14.244614057111733"><ele>395.0</ele><time>2026-03-29T12:25:57.001Z</time></trkpt><trkpt lat="37.376487736626615" lon="14.244742114279394"><ele>394.0</ele><time>2026-03-29T12:25:58.001Z</time></trkpt><trkpt lat="37.3763630385412" lon="14.244822824766626"><ele>393.0</ele><time>2026-03-29T12:25:59.001Z</time></trkpt><trkpt lat="37.376220330881814" lon="14.244839855563065"><ele>392.0</ele><time>2026-03-29T12:26:00.001Z</time></trkpt><trkpt lat="37.37608014744518" lon="14.24478838168727"><ele>391.0</ele><time>2026-03-29T12:26:01.001Z</time></trkpt><trkpt lat="37.375930126781086" lon="14.244693358413194"><ele>391.0</ele><time>2026-03-29T12:26:02.001Z</time></trkpt><trkpt lat="37.375757265891366" lon="14.244588237414705"><ele>391.0</ele><time>2026-03-29T12:26:03.001Z</time></trkpt><trkpt lat="37.375571906334365" lon="14.244501239728478"><ele>391.0</ele><time>2026-03-29T12:26:04.001Z</time></trkpt><trkpt lat="37.37536864968133" lon="14.244397326755912"><ele>391.0</ele><time>2026-03-29T12:26:05.001Z</time></trkpt><trkpt lat="37.37515989850765" lon="14.244288346733581"><ele>391.0</ele><time>2026-03-29T12:26:06.001Z</time></trkpt><trkpt lat="37.37495582548552" lon="14.244179221044622"><ele>391.0</ele><time>2026-03-29T12:26:07.001Z</time></trkpt><trkpt lat="37.374754045694104" lon="14.244073693162159"><ele>391.6666666666667</ele><time>2026-03-29T12:26:08.001Z</time></trkpt><trkpt lat="37.374554284464885" lon="14.243969479170197"><ele>392.33333333333337</ele><time>2026-03-29T12:26:09.001Z</time></trkpt><trkpt lat="37.37435710224742" lon="14.243867591716127"><ele>393.0</ele><time>2026-03-29T12:26:10.001Z</time></trkpt><trkpt lat="37.37416402392836" lon="14.243766104333847"><ele>389.3333333333333</ele><time>2026-03-29T12:26:11.001Z</time></trkpt><trkpt lat="37.37398407471905" lon="14.24367381099233"><ele>385.66666666666663</ele><time>2026-03-29T12:26:12.001Z</time></trkpt><trkpt lat="37.37381407793374" lon="14.243585866800926"><ele>382.0</ele><time>2026-03-29T12:26:13.001Z</time></trkpt><trkpt lat="37.37365261648284" lon="14.243506869454501"><ele>381.66666666666663</ele><time>2026-03-29T12:26:14.001Z</time></trkpt><trkpt lat="37.373490401772784" lon="14.243453951589004"><ele>381.3333333333333</ele><time>2026-03-29T12:26:15.001Z</time></trkpt><trkpt lat="37.37331375068123" lon="14.243450239590654"><ele>381.0</ele><time>2026-03-29T12:26:16.001Z</time></trkpt><trkpt lat="37.3731413641667" lon="14.243493065137347"><ele>379.0</ele><time>2026-03-29T12:26:17Z</time></trkpt><trkpt lat="37.37298454043838" lon="14.243555223314278"><ele>377.0</ele><time>2026-03-29T12:26:18Z</time></trkpt><trkpt lat="37.372837602763205" lon="14.243623840082844"><ele>375.0</ele><time>2026-03-29T12:26:19Z</time></trkpt><trkpt lat="37.37270742487285" lon="14.243734666922224"><ele>375.0</ele><time>2026-03-29T12:26:20Z</time></trkpt><trkpt lat="37.37260738455127" lon="14.243890813089287"><ele>375.0</ele><time>2026-03-29T12:26:21Z</time></trkpt><trkpt lat="37.37254876033487" lon="14.244077218047673"><ele>375.0</ele><time>2026-03-29T12:26:22Z</time></trkpt><trkpt lat="37.37252179381787" lon="14.244289225975368"><ele>375.6666666666667</ele><time>2026-03-29T12:26:23Z</time></trkpt><trkpt lat="37.372505215734506" lon="14.244513117838416"><ele>376.33333333333337</ele><time>2026-03-29T12:26:24Z</time></trkpt><trkpt lat="37.372483076663784" lon="14.244713741359213"><ele>377.0</ele><time>2026-03-29T12:26:25Z</time></trkpt><trkpt lat="37.37244397615368" lon="14.244890169347784"><ele>377.0</ele><time>2026-03-29T12:26:26Z</time></trkpt><trkpt lat="37.37238028641048" lon="14.245038464971074"><ele>377.0</ele><time>2026-03-29T12:26:27Z</time></trkpt><trkpt lat="37.37227184654927" lon="14.24512603264332"><ele>377.0</ele><time>2026-03-29T12:26:28Z</time></trkpt><trkpt lat="37.37213705213794" lon="14.245145503155628"><ele>377.0</ele><time>2026-03-29T12:26:29Z</time></trkpt><trkpt lat="37.37198854225109" lon="14.245098200913782"><ele>377.0</ele><time>2026-03-29T12:26:30Z</time></trkpt><trkpt lat="37.37184711224742" lon="14.244991820920767"><ele>377.0</ele><time>2026-03-29T12:26:31Z</time></trkpt><trkpt lat="37.37170646857127" lon="14.244872303736576"><ele>377.0</ele><time>2026-03-29T12:26:32Z</time></trkpt><trkpt lat="37.371557345043506" lon="14.244789558172998"><ele>374.6666666666667</ele><time>2026-03-29T12:26:33Z</time></trkpt><trkpt lat="37.37140055766615" lon="14.244759301043757"><ele>372.3333333333333</ele><time>2026-03-29T12:26:34Z</time></trkpt><trkpt lat="37.37123267050588" lon="14.244786700855707"><ele>370.0</ele><time>2026-03-29T12:26:35Z</time></trkpt><trkpt lat="37.37107150848366" lon="14.244869767634782"><ele>370.0</ele><time>2026-03-29T12:26:36Z</time></trkpt><trkpt lat="37.37094030522522" lon="14.244993643870462"><ele>370.0</ele><time>2026-03-29T12:26:37Z</time></trkpt><trkpt lat="37.37084038489392" lon="14.24515909636241"><ele>370.0</ele><time>2026-03-29T12:26:38Z</time></trkpt><trkpt lat="37.37076768508602" lon="14.245357993350694"><ele>370.0</ele><time>2026-03-29T12:26:39Z</time></trkpt><trkpt lat="37.37068536296255" lon="14.245581545561837"><ele>370.0</ele><time>2026-03-29T12:26:40Z</time></trkpt><trkpt lat="37.3706225255287" lon="14.245818942747352"><ele>370.0</ele><time>2026-03-29T12:26:41Z</time></trkpt><trkpt lat="37.370548761281036" lon="14.246076058914747"><ele>368.0</ele><time>2026-03-29T12:26:42Z</time></trkpt><trkpt lat="37.370456268601814" lon="14.246316309724055"><ele>366.0</ele><time>2026-03-29T12:26:43Z</time></trkpt><trkpt lat="37.3703959270391" lon="14.246554750176509"><ele>364.0</ele><time>2026-03-29T12:26:44Z</time></trkpt><trkpt lat="37.370310059261726" lon="14.24675762952137"><ele>364.0</ele><time>2026-03-29T12:26:45Z</time></trkpt><trkpt lat="37.3701979173329" lon="14.246920923414217"><ele>364.0</ele><time>2026-03-29T12:26:46Z</time></trkpt><trkpt lat="37.37004119622881" lon="14.247042806118726"><ele>364.0</ele><time>2026-03-29T12:26:47Z</time></trkpt><trkpt lat="37.36985083258268" lon="14.247114473316755"><ele>363.3333333333333</ele><time>2026-03-29T12:26:48Z</time></trkpt><trkpt lat="37.369650496434254" lon="14.24715980996077"><ele>362.6666666666667</ele><time>2026-03-29T12:26:49Z</time></trkpt><trkpt lat="37.36946708682227" lon="14.247202411482773"><ele>362.0</ele><time>2026-03-29T12:26:50Z</time></trkpt><trkpt lat="37.369308027197675" lon="14.247266026473293"><ele>363.0</ele><time>2026-03-29T12:26:51Z</time></trkpt><trkpt lat="37.36917646358062" lon="14.247368148482055"><ele>364.0</ele><time>2026-03-29T12:26:52Z</time></trkpt><trkpt lat="37.36907055238301" lon="14.24752553472533"><ele>365.0</ele><time>2026-03-29T12:26:53Z</time></trkpt><trkpt lat="37.36901047217573" lon="14.247720046831953"><ele>365.0</ele><time>2026-03-29T12:26:54Z</time></trkpt><trkpt lat="37.36900255959242" lon="14.247924277588705"><ele>365.0</ele><time>2026-03-29T12:26:55Z</time></trkpt><trkpt lat="37.369041671211036" lon="14.248149552772121"><ele>365.0</ele><time>2026-03-29T12:26:56Z</time></trkpt><trkpt lat="37.36908790276169" lon="14.248388711129348"><ele>365.0</ele><time>2026-03-29T12:26:57Z</time></trkpt><trkpt lat="37.36913440790445" lon="14.248660425775748"><ele>365.0</ele><time>2026-03-29T12:26:58Z</time></trkpt><trkpt lat="37.36917819481617" lon="14.248947985105705"><ele>363.5</ele><time>2026-03-29T12:26:59Z</time></trkpt><trkpt lat="37.36922886779037" lon="14.249249628012203"><ele>362.0</ele><time>2026-03-29T12:27:00Z</time></trkpt><trkpt lat="37.369292364474525" lon="14.249563135348394"><ele>360.0</ele><time>2026-03-29T12:27:01Z</time></trkpt><trkpt lat="37.36937251633814" lon="14.249882580469794"><ele>358.0</ele><time>2026-03-29T12:27:02Z</time></trkpt><trkpt lat="37.36946264124773" lon="14.250210259344502"><ele>358.0</ele><time>2026-03-29T12:27:03Z</time></trkpt><trkpt lat="37.36955719383402" lon="14.250545835961011"><ele>358.0</ele><time>2026-03-29T12:27:04Z</time></trkpt><trkpt lat="37.36965583864776" lon="14.250886844356856"><ele>358.5</ele><time>2026-03-29T12:27:05Z</time></trkpt><trkpt lat="37.369756029538145" lon="14.251233520625135"><ele>359.0</ele><time>2026-03-29T12:27:06Z</time></trkpt><trkpt lat="37.3698550000702" lon="14.251587030327556"><ele>359.0</ele><time>2026-03-29T12:27:07Z</time></trkpt><trkpt lat="37.36995393291842" lon="14.251942562406684"><ele>359.0</ele><time>2026-03-29T12:27:08Z</time></trkpt><trkpt lat="37.37005283158171" lon="14.252298424512707"><ele>358.5</ele><time>2026-03-29T12:27:09Z</time></trkpt><trkpt lat="37.37015236517253" lon="14.252652851458206"><ele>358.0</ele><time>2026-03-29T12:27:10Z</time></trkpt><trkpt lat="37.37025108156582" lon="14.253003932709696"><ele>356.0</ele><time>2026-03-29T12:27:11Z</time></trkpt><trkpt lat="37.370349271208546" lon="14.253347758682008"><ele>354.0</ele><time>2026-03-29T12:27:12Z</time></trkpt><trkpt lat="37.370443293115514" lon="14.253686369192106"><ele>354.5</ele><time>2026-03-29T12:27:13Z</time></trkpt><trkpt lat="37.37053766586891" lon="14.254020095392606"><ele>355.0</ele><time>2026-03-29T12:27:14Z</time></trkpt><trkpt lat="37.37063734741614" lon="14.25435470917165"><ele>355.0</ele><time>2026-03-29T12:27:15Z</time></trkpt><trkpt lat="37.37075291098693" lon="14.254685441163822"><ele>355.0</ele><time>2026-03-29T12:27:16Z</time></trkpt><trkpt lat="37.37088071684568" lon="14.255014919172762"><ele>354.5</ele><time>2026-03-29T12:27:17Z</time></trkpt><trkpt lat="37.37101322287599" lon="14.255344234217512"><ele>354.0</ele><time>2026-03-29T12:27:18Z</time></trkpt><trkpt lat="37.371146228428884" lon="14.255673339473228"><ele>354.0</ele><time>2026-03-29T12:27:19Z</time></trkpt><trkpt lat="37.371278862017334" lon="14.256003927344524"><ele>354.0</ele><time>2026-03-29T12:27:20Z</time></trkpt><trkpt lat="37.37140948480418" lon="14.256335863399915"><ele>356.5</ele><time>2026-03-29T12:27:21Z</time></trkpt><trkpt lat="37.37154140448675" lon="14.256661825881991"><ele>359.0</ele><time>2026-03-29T12:27:22.001Z</time></trkpt><trkpt lat="37.371675302576115" lon="14.256985466152349"><ele>358.5</ele><time>2026-03-29T12:27:23.001Z</time></trkpt><trkpt lat="37.371807060247086" lon="14.257303481044241"><ele>358.0</ele><time>2026-03-29T12:27:24.001Z</time></trkpt><trkpt lat="37.371933814245416" lon="14.257621184433408"><ele>358.0</ele><time>2026-03-29T12:27:25.001Z</time></trkpt><trkpt lat="37.372057602785766" lon="14.257934992615441"><ele>358.0</ele><time>2026-03-29T12:27:26.001Z</time></trkpt><trkpt lat="37.37217890592348" lon="14.25824088041367"><ele>360.0</ele><time>2026-03-29T12:27:27.001Z</time></trkpt><trkpt lat="37.372299321500506" lon="14.258545180327737"><ele>362.0</ele><time>2026-03-29T12:27:28.001Z</time></trkpt><trkpt lat="37.37241844496081" lon="14.258844984752727"><ele>360.5</ele><time>2026-03-29T12:27:29.001Z</time></trkpt><trkpt lat="37.37253775157414" lon="14.259143734010628"><ele>359.0</ele><time>2026-03-29T12:27:30.001Z</time></trkpt><trkpt lat="37.37265543911686" lon="14.25944202545586"><ele>359.0</ele><time>2026-03-29T12:27:31.001Z</time></trkpt><trkpt lat="37.372771946830284" lon="14.259736978795756"><ele>359.0</ele><time>2026-03-29T12:27:32.001Z</time></trkpt><trkpt lat="37.37288686716431" lon="14.26002795380414"><ele>357.5</ele><time>2026-03-29T12:27:33.001Z</time></trkpt><trkpt lat="37.37299832657142" lon="14.260307253324346"><ele>356.0</ele><time>2026-03-29T12:27:34.001Z</time></trkpt><trkpt lat="37.373103511032994" lon="14.260568674752706"><ele>357.33333333333337</ele><time>2026-03-29T12:27:35.001Z</time></trkpt><trkpt lat="37.37320247856514" lon="14.260817306558526"><ele>358.6666666666667</ele><time>2026-03-29T12:27:36.001Z</time></trkpt><trkpt lat="37.37330111319473" lon="14.261066936898295"><ele>360.0</ele><time>2026-03-29T12:27:37.001Z</time></trkpt><trkpt lat="37.373396971243984" lon="14.261312069921638"><ele>359.0</ele><time>2026-03-29T12:27:38.001Z</time></trkpt><trkpt lat="37.37348814139648" lon="14.261547410855224"><ele>358.0</ele><time>2026-03-29T12:27:39.001Z</time></trkpt><trkpt lat="37.37356978742843" lon="14.26176114656633"><ele>357.0</ele><time>2026-03-29T12:27:40.001Z</time></trkpt><trkpt lat="37.37364555710478" lon="14.26195603387293"><ele>357.0</ele><time>2026-03-29T12:27:41.001Z</time></trkpt><trkpt lat="37.3737376590063" lon="14.26214007138451"><ele>357.0</ele><time>2026-03-29T12:27:42.001Z</time></trkpt><trkpt lat="37.373864843536055" lon="14.262301921798516"><ele>357.0</ele><time>2026-03-29T12:27:43.001Z</time></trkpt><trkpt lat="37.3740177525632" lon="14.262440563183308"><ele>358.3333333333333</ele><time>2026-03-29T12:27:44.001Z</time></trkpt><trkpt lat="37.37418152856505" lon="14.262553581038567"><ele>359.66666666666663</ele><time>2026-03-29T12:27:45.001Z</time></trkpt><trkpt lat="37.374332865858186" lon="14.26265860852201"><ele>361.0</ele><time>2026-03-29T12:27:46.001Z</time></trkpt><trkpt lat="37.37446941260328" lon="14.2627767494219"><ele>361.0</ele><time>2026-03-29T12:27:47.001Z</time></trkpt><trkpt lat="37.374580054284394" lon="14.262921298933511"><ele>361.0</ele><time>2026-03-29T12:27:48.001Z</time></trkpt><trkpt lat="37.37464800293365" lon="14.26309408272518"><ele>361.0</ele><time>2026-03-29T12:27:49.001Z</time></trkpt><trkpt lat="37.37466262842657" lon="14.26328489529293"><ele>358.3333333333333</ele><time>2026-03-29T12:27:50.001Z</time></trkpt><trkpt lat="37.37462319585168" lon="14.263478024496417"><ele>355.6666666666667</ele><time>2026-03-29T12:27:51.001Z</time></trkpt><trkpt lat="37.37453686242778" lon="14.263648445109428"><ele>353.0</ele><time>2026-03-29T12:27:52.001Z</time></trkpt><trkpt lat="37.37440491678007" lon="14.263799615830656"><ele>353.0</ele><time>2026-03-29T12:27:53.001Z</time></trkpt><trkpt lat="37.37424435747435" lon="14.263941406029657"><ele>353.0</ele><time>2026-03-29T12:27:54.001Z</time></trkpt><trkpt lat="37.374080342284046" lon="14.264103923029676"><ele>353.0</ele><time>2026-03-29T12:27:55.001Z</time></trkpt><trkpt lat="37.37391969637174" lon="14.264274082659316"><ele>352.0</ele><time>2026-03-29T12:27:56.001Z</time></trkpt><trkpt lat="37.373760761898254" lon="14.26443414482492"><ele>351.0</ele><time>2026-03-29T12:27:57.001Z</time></trkpt><trkpt lat="37.37360631661412" lon="14.26458911183364"><ele>350.0</ele><time>2026-03-29T12:27:58.001Z</time></trkpt><trkpt lat="37.37346263285923" lon="14.264738644499086"><ele>350.6666666666667</ele><time>2026-03-29T12:27:59.001Z</time></trkpt><trkpt lat="37.37332999675633" lon="14.26487452470166"><ele>351.3333333333333</ele><time>2026-03-29T12:28:00.001Z</time></trkpt><trkpt lat="37.37320573085032" lon="14.264997617705555"><ele>352.0</ele><time>2026-03-29T12:28:01.001Z</time></trkpt><trkpt lat="37.37308540072428" lon="14.265094120181288"><ele>353.0</ele><time>2026-03-29T12:28:02.001Z</time></trkpt><trkpt lat="37.372958134910235" lon="14.265124103511601"><ele>354.0</ele><time>2026-03-29T12:28:03.001Z</time></trkpt><trkpt lat="37.37282076830536" lon="14.265076949180287"><ele>355.0</ele><time>2026-03-29T12:28:04.001Z</time></trkpt><trkpt lat="37.3726841194947" lon="14.264972696077795"><ele>356.0</ele><time>2026-03-29T12:28:05.001Z</time></trkpt><trkpt lat="37.372544512918374" lon="14.264867932691253"><ele>356.0</ele><time>2026-03-29T12:28:06.001Z</time></trkpt><trkpt lat="37.37239219438557" lon="14.264830683311791"><ele>356.0</ele><time>2026-03-29T12:28:07.001Z</time></trkpt><trkpt lat="37.37223562630824" lon="14.264866091720464"><ele>356.0</ele><time>2026-03-29T12:28:08.001Z</time></trkpt><trkpt lat="37.372077608851924" lon="14.26496427003784"><ele>358.0</ele><time>2026-03-29T12:28:09.001Z</time></trkpt><trkpt lat="37.37192138626293" lon="14.265090789747493"><ele>360.0</ele><time>2026-03-29T12:28:10.001Z</time></trkpt><trkpt lat="37.37176923997559" lon="14.265211398139792"><ele>362.0</ele><time>2026-03-29T12:28:11.001Z</time></trkpt><trkpt lat="37.37162229496443" lon="14.265315367037923"><ele>362.0</ele><time>2026-03-29T12:28:12.001Z</time></trkpt><trkpt lat="37.37150806025774" lon="14.26543462980812"><ele>362.0</ele><time>2026-03-29T12:28:13.001Z</time></trkpt><trkpt lat="37.371433910813394" lon="14.26560447680359"><ele>362.0</ele><time>2026-03-29T12:28:14.001Z</time></trkpt><trkpt lat="37.37139295123969" lon="14.26581893935581"><ele>363.0</ele><time>2026-03-29T12:28:15.001Z</time></trkpt><trkpt lat="37.37135510007653" lon="14.266055179310232"><ele>364.0</ele><time>2026-03-29T12:28:16.001Z</time></trkpt><trkpt lat="37.37130156893944" lon="14.266292550069881"><ele>365.0</ele><time>2026-03-29T12:28:17.001Z</time></trkpt><trkpt lat="37.371242895080236" lon="14.266530482006857"><ele>366.0</ele><time>2026-03-29T12:28:18.001Z</time></trkpt><trkpt lat="37.371193317761154" lon="14.266772527088047"><ele>367.0</ele><time>2026-03-29T12:28:19.001Z</time></trkpt><trkpt lat="37.37114249135886" lon="14.267018734604676"><ele>368.0</ele><time>2026-03-29T12:28:20.001Z</time></trkpt><trkpt lat="37.371091114800144" lon="14.26726957214541"><ele>368.33333333333337</ele><time>2026-03-29T12:28:21.001Z</time></trkpt><trkpt lat="37.37103738125182" lon="14.26752063014321"><ele>368.6666666666667</ele><time>2026-03-29T12:28:22.001Z</time></trkpt><trkpt lat="37.37098255591442" lon="14.267778820175815"><ele>369.0</ele><time>2026-03-29T12:28:23Z</time></trkpt><trkpt lat="37.37092798159568" lon="14.268039411440975"><ele>369.3333333333333</ele><time>2026-03-29T12:28:24Z</time></trkpt><trkpt lat="37.37087164174627" lon="14.26830010436361"><ele>369.66666666666663</ele><time>2026-03-29T12:28:25Z</time></trkpt><trkpt lat="37.370816699137045" lon="14.26855555123616"><ele>370.0</ele><time>2026-03-29T12:28:26Z</time></trkpt><trkpt lat="37.37076591524097" lon="14.26879799972118"><ele>371.0</ele><time>2026-03-29T12:28:27Z</time></trkpt><trkpt lat="37.370723417102056" lon="14.269045376248584"><ele>372.0</ele><time>2026-03-29T12:28:28Z</time></trkpt><trkpt lat="37.37070779448694" lon="14.269308734773409"><ele>373.0</ele><time>2026-03-29T12:28:29Z</time></trkpt><trkpt lat="37.37072276631163" lon="14.26957748090543"><ele>373.66666666666663</ele><time>2026-03-29T12:28:30Z</time></trkpt><trkpt lat="37.37074880463091" lon="14.269847105121576"><ele>374.3333333333333</ele><time>2026-03-29T12:28:31Z</time></trkpt><trkpt lat="37.37077026630546" lon="14.27012062744818"><ele>375.0</ele><time>2026-03-29T12:28:32Z</time></trkpt><trkpt lat="37.370788271167314" lon="14.270396085002211"><ele>375.3333333333333</ele><time>2026-03-29T12:28:33Z</time></trkpt><trkpt lat="37.37081138037369" lon="14.270671426257076"><ele>375.66666666666663</ele><time>2026-03-29T12:28:34Z</time></trkpt><trkpt lat="37.37085010794287" lon="14.270952084012633"><ele>376.0</ele><time>2026-03-29T12:28:35Z</time></trkpt><trkpt lat="37.3709036153488" lon="14.27121773917753"><ele>376.3333333333333</ele><time>2026-03-29T12:28:36Z</time></trkpt><trkpt lat="37.37096015112908" lon="14.271467559022263"><ele>376.6666666666667</ele><time>2026-03-29T12:28:37Z</time></trkpt><trkpt lat="37.371004635221524" lon="14.271716999319162"><ele>377.0</ele><time>2026-03-29T12:28:38Z</time></trkpt><trkpt lat="37.37102303157127" lon="14.2719699533015"><ele>377.0</ele><time>2026-03-29T12:28:39Z</time></trkpt><trkpt lat="37.37100856676295" lon="14.272226603961899"><ele>377.0</ele><time>2026-03-29T12:28:40Z</time></trkpt><trkpt lat="37.37097322415116" lon="14.272485031572032"><ele>377.0</ele><time>2026-03-29T12:28:41Z</time></trkpt><trkpt lat="37.370934876070166" lon="14.272740172202614"><ele>377.33333333333337</ele><time>2026-03-29T12:28:42Z</time></trkpt><trkpt lat="37.370905249474156" lon="14.272967035439782"><ele>377.6666666666667</ele><time>2026-03-29T12:28:43Z</time></trkpt><trkpt lat="37.370881651387876" lon="14.273179476908197"><ele>378.0</ele><time>2026-03-29T12:28:44Z</time></trkpt><trkpt lat="37.37087097835239" lon="14.273391213131198"><ele>378.3333333333333</ele><time>2026-03-29T12:28:45Z</time></trkpt><trkpt lat="37.370900867721666" lon="14.273597843958354"><ele>378.66666666666663</ele><time>2026-03-29T12:28:46Z</time></trkpt><trkpt lat="37.37096983226887" lon="14.273782942784612"><ele>379.0</ele><time>2026-03-29T12:28:47Z</time></trkpt><trkpt lat="37.37108131570822" lon="14.273943775984396"><ele>379.0</ele><time>2026-03-29T12:28:48Z</time></trkpt><trkpt lat="37.37122994746079" lon="14.274073811405813"><ele>379.0</ele><time>2026-03-29T12:28:49Z</time></trkpt><trkpt lat="37.3714064731495" lon="14.274186526706908"><ele>379.0</ele><time>2026-03-29T12:28:50Z</time></trkpt><trkpt lat="37.37158793449439" lon="14.27431222308158"><ele>381.0</ele><time>2026-03-29T12:28:51Z</time></trkpt><trkpt lat="37.371775511154866" lon="14.2744461530517"><ele>383.0</ele><time>2026-03-29T12:28:52Z</time></trkpt><trkpt lat="37.37196112955538" lon="14.274581404638026"><ele>385.0</ele><time>2026-03-29T12:28:53Z</time></trkpt><trkpt lat="37.37212926149872" lon="14.27470982938037"><ele>385.33333333333337</ele><time>2026-03-29T12:28:54Z</time></trkpt><trkpt lat="37.37228273388883" lon="14.274824879957647"><ele>385.66666666666663</ele><time>2026-03-29T12:28:55Z</time></trkpt><trkpt lat="37.37242728706495" lon="14.274928352182458"><ele>386.0</ele><time>2026-03-29T12:28:56Z</time></trkpt><trkpt lat="37.37255524480249" lon="14.275027807135569"><ele>386.0</ele><time>2026-03-29T12:28:57Z</time></trkpt><trkpt lat="37.37265382450757" lon="14.275147385893192"><ele>386.0</ele><time>2026-03-29T12:28:58Z</time></trkpt><trkpt lat="37.37269231194512" lon="14.275293484352984"><ele>386.0</ele><time>2026-03-29T12:28:59Z</time></trkpt><trkpt lat="37.37266732152769" lon="14.275436620246387"><ele>386.0</ele><time>2026-03-29T12:29:00Z</time></trkpt><trkpt lat="37.372604264054026" lon="14.27555801143507"><ele>386.75</ele><time>2026-03-29T12:29:01Z</time></trkpt><trkpt lat="37.37252703317476" lon="14.275671043603348"><ele>387.5</ele><time>2026-03-29T12:29:02Z</time></trkpt><trkpt lat="37.372465786781916" lon="14.275814217837373"><ele>388.25</ele><time>2026-03-29T12:29:03Z</time></trkpt><trkpt lat="37.37244749960276" lon="14.275975407553888"><ele>389.0</ele><time>2026-03-29T12:29:04Z</time></trkpt><trkpt lat="37.372459679294515" lon="14.276158839129726"><ele>389.0</ele><time>2026-03-29T12:29:05Z</time></trkpt><trkpt lat="37.37248954638502" lon="14.276353111636588"><ele>389.0</ele><time>2026-03-29T12:29:06Z</time></trkpt><trkpt lat="37.3725280111008" lon="14.27655786634129"><ele>389.0</ele><time>2026-03-29T12:29:07Z</time></trkpt><trkpt lat="37.3725733631938" lon="14.276769797353584"><ele>389.0</ele><time>2026-03-29T12:29:08Z</time></trkpt><trkpt lat="37.37262891248124" lon="14.27697833990247"><ele>389.0</ele><time>2026-03-29T12:29:09.001Z</time></trkpt><trkpt lat="37.37269469609084" lon="14.277190983953984"><ele>389.0</ele><time>2026-03-29T12:29:10.001Z</time></trkpt><trkpt lat="37.372769583778584" lon="14.27740296197709"><ele>389.0</ele><time>2026-03-29T12:29:11.001Z</time></trkpt><trkpt lat="37.37285690133528" lon="14.277607882101155"><ele>389.0</ele><time>2026-03-29T12:29:12.001Z</time></trkpt><trkpt lat="37.37295495503297" lon="14.277805802489842"><ele>389.0</ele><time>2026-03-29T12:29:13.001Z</time></trkpt><trkpt lat="37.37305200746347" lon="14.277997577220882"><ele>393.0</ele><time>2026-03-29T12:29:14.001Z</time></trkpt><trkpt lat="37.37313869687434" lon="14.278191797694966"><ele>397.0</ele><time>2026-03-29T12:29:15.001Z</time></trkpt><trkpt lat="37.373209777172114" lon="14.278394932102067"><ele>401.0</ele><time>2026-03-29T12:29:16.001Z</time></trkpt><trkpt lat="37.373253969476764" lon="14.278600893429909"><ele>401.0</ele><time>2026-03-29T12:29:17.001Z</time></trkpt><trkpt lat="37.37327032242098" lon="14.278814807410688"><ele>401.0</ele><time>2026-03-29T12:29:18.001Z</time></trkpt><trkpt lat="37.373264004373034" lon="14.279027570697417"><ele>401.0</ele><time>2026-03-29T12:29:19.001Z</time></trkpt><trkpt lat="37.373244399273936" lon="14.279217752322186"><ele>401.0</ele><time>2026-03-29T12:29:20.001Z</time></trkpt><trkpt lat="37.37320824599665" lon="14.279389670863905"><ele>401.0</ele><time>2026-03-29T12:29:21.001Z</time></trkpt><trkpt lat="37.373142752611784" lon="14.279542464080995"><ele>401.0</ele><time>2026-03-29T12:29:22.001Z</time></trkpt><trkpt lat="37.37307027702587" lon="14.27970238755326"><ele>401.0</ele><time>2026-03-29T12:29:23.001Z</time></trkpt><trkpt lat="37.373006036368885" lon="14.279871936260902"><ele>399.25</ele><time>2026-03-29T12:29:24.001Z</time></trkpt><trkpt lat="37.37294722540638" lon="14.280044604090804"><ele>397.5</ele><time>2026-03-29T12:29:25.001Z</time></trkpt><trkpt lat="37.37289273464932" lon="14.280219486825377"><ele>395.75</ele><time>2026-03-29T12:29:26.001Z</time></trkpt><trkpt lat="37.372852475414646" lon="14.280390373152613"><ele>394.0</ele><time>2026-03-29T12:29:27.001Z</time></trkpt><trkpt lat="37.37284303164086" lon="14.280566187655877"><ele>394.6666666666667</ele><time>2026-03-29T12:29:28.001Z</time></trkpt><trkpt lat="37.37286235489979" lon="14.280746875849536"><ele>395.33333333333337</ele><time>2026-03-29T12:29:29.001Z</time></trkpt><trkpt lat="37.37290820181146" lon="14.28093591201335"><ele>396.0</ele><time>2026-03-29T12:29:30.001Z</time></trkpt><trkpt lat="37.37297378191822" lon="14.281124197207896"><ele>400.0</ele><time>2026-03-29T12:29:31.001Z</time></trkpt><trkpt lat="37.37305003230722" lon="14.281318040480823"><ele>404.0</ele><time>2026-03-29T12:29:32.001Z</time></trkpt><trkpt lat="37.37312363222709" lon="14.281515730510014"><ele>408.0</ele><time>2026-03-29T12:29:33.001Z</time></trkpt><trkpt lat="37.373195629301534" lon="14.281718133002245"><ele>408.0</ele><time>2026-03-29T12:29:34.001Z</time></trkpt><trkpt lat="37.37326984104533" lon="14.281923573064253"><ele>408.0</ele><time>2026-03-29T12:29:35.001Z</time></trkpt><trkpt lat="37.373344125033256" lon="14.28212954712406"><ele>408.0</ele><time>2026-03-29T12:29:36.001Z</time></trkpt><trkpt lat="37.37341578705892" lon="14.282331689793452"><ele>408.0</ele><time>2026-03-29T12:29:37.001Z</time></trkpt><trkpt lat="37.373491288327116" lon="14.28252478835606"><ele>408.0</ele><time>2026-03-29T12:29:38.001Z</time></trkpt><trkpt lat="37.37358012063014" lon="14.282700344888502"><ele>408.0</ele><time>2026-03-29T12:29:39.001Z</time></trkpt><trkpt lat="37.37368202212831" lon="14.282860848568193"><ele>408.0</ele><time>2026-03-29T12:29:40.001Z</time></trkpt><trkpt lat="37.37378711821348" lon="14.283019767906897"><ele>408.0</ele><time>2026-03-29T12:29:41.001Z</time></trkpt><trkpt lat="37.37388941716086" lon="14.283166867933307"><ele>408.0</ele><time>2026-03-29T12:29:42.001Z</time></trkpt><trkpt lat="37.373998920515106" lon="14.283289167588899"><ele>410.25</ele><time>2026-03-29T12:29:43.001Z</time></trkpt><trkpt lat="37.374105455209374" lon="14.283393076756346"><ele>412.5</ele><time>2026-03-29T12:29:44.001Z</time></trkpt><trkpt lat="37.37418015155056" lon="14.28350537412505"><ele>414.75</ele><time>2026-03-29T12:29:45.001Z</time></trkpt><trkpt lat="37.37421965741056" lon="14.283632808543477"><ele>417.0</ele><time>2026-03-29T12:29:46.001Z</time></trkpt><trkpt lat="37.374239336763104" lon="14.283760599452954"><ele>417.0</ele><time>2026-03-29T12:29:47.001Z</time></trkpt><trkpt lat="37.37425831757615" lon="14.283913368417457"><ele>417.0</ele><time>2026-03-29T12:29:48.001Z</time></trkpt><trkpt lat="37.37427888844637" lon="14.284080767505507"><ele>417.0</ele><time>2026-03-29T12:29:49.001Z</time></trkpt><trkpt lat="37.374294786556625" lon="14.284240911978133"><ele>417.0</ele><time>2026-03-29T12:29:50.001Z</time></trkpt><trkpt lat="37.37429622844412" lon="14.284384126680473"><ele>416.5</ele><time>2026-03-29T12:29:51.001Z</time></trkpt><trkpt lat="37.374289630135344" lon="14.284519791045222"><ele>416.0</ele><time>2026-03-29T12:29:52.001Z</time></trkpt><trkpt lat="37.374286096838695" lon="14.28465929088008"><ele>415.5</ele><time>2026-03-29T12:29:53.001Z</time></trkpt><trkpt lat="37.37428625726705" lon="14.284810072170126"><ele>415.0</ele><time>2026-03-29T12:29:54.001Z</time></trkpt><trkpt lat="37.37428611602415" lon="14.28497072448723"><ele>415.0</ele><time>2026-03-29T12:29:55.001Z</time></trkpt><trkpt lat="37.37428566393538" lon="14.285131076998326"><ele>415.0</ele><time>2026-03-29T12:29:56.001Z</time></trkpt><trkpt lat="37.37428380633807" lon="14.285294902979581"><ele>415.0</ele><time>2026-03-29T12:29:57.001Z</time></trkpt><trkpt lat="37.37428581234669" lon="14.285459800678934"><ele>415.0</ele><time>2026-03-29T12:29:58.001Z</time></trkpt><trkpt lat="37.37428354352855" lon="14.285627286480747"><ele>415.25</ele><time>2026-03-29T12:29:59.001Z</time></trkpt><trkpt lat="37.374267375622274" lon="14.285796071938009"><ele>415.5</ele><time>2026-03-29T12:30:00.001Z</time></trkpt><trkpt lat="37.37423407820197" lon="14.28596105624768"><ele>415.75</ele><time>2026-03-29T12:30:01.001Z</time></trkpt><trkpt lat="37.37419592094811" lon="14.286122171438793"><ele>416.0</ele><time>2026-03-29T12:30:02.001Z</time></trkpt><trkpt lat="37.374162183813695" lon="14.286266496158717"><ele>416.0</ele><time>2026-03-29T12:30:03.001Z</time></trkpt><trkpt lat="37.3741305883415" lon="14.286396965004322"><ele>416.0</ele><time>2026-03-29T12:30:04.001Z</time></trkpt><trkpt lat="37.374098082296655" lon="14.286519906737956"><ele>416.0</ele><time>2026-03-29T12:30:05.001Z</time></trkpt><trkpt lat="37.374067075542065" lon="14.286641303072736"><ele>416.0</ele><time>2026-03-29T12:30:06.001Z</time></trkpt><trkpt lat="37.374035530538585" lon="14.2867595673165"><ele>416.0</ele><time>2026-03-29T12:30:07.001Z</time></trkpt><trkpt lat="37.374004662155805" lon="14.286872515800724"><ele>416.3333333333333</ele><time>2026-03-29T12:30:08.001Z</time></trkpt><trkpt lat="37.373978078438455" lon="14.286979319381205"><ele>416.66666666666663</ele><time>2026-03-29T12:30:09.001Z</time></trkpt><trkpt lat="37.373958196506294" lon="14.287076897102724"><ele>417.0</ele><time>2026-03-29T12:30:10.001Z</time></trkpt><trkpt lat="37.37394037366816" lon="14.287167629036517"><ele>417.33333333333337</ele><time>2026-03-29T12:30:11.001Z</time></trkpt><trkpt lat="37.37392549106911" lon="14.287249397478838"><ele>417.6666666666667</ele><time>2026-03-29T12:30:12.001Z</time></trkpt><trkpt lat="37.37389663878237" lon="14.287383289423092"><ele>418.0</ele><time>2026-03-29T12:30:14.001Z</time></trkpt><trkpt lat="37.37386325502291" lon="14.287482556447323"><ele>416.79999999999995</ele><time>2026-03-29T12:30:16.001Z</time></trkpt><trkpt lat="37.373827650005666" lon="14.287603010408201"><ele>415.6</ele><time>2026-03-29T12:30:18.001Z</time></trkpt><trkpt lat="37.37378999410339" lon="14.28773903167233"><ele>414.4</ele><time>2026-03-29T12:30:20.001Z</time></trkpt><trkpt lat="37.373751637042105" lon="14.287855222935558"><ele>413.20000000000005</ele><time>2026-03-29T12:30:22.001Z</time></trkpt><trkpt lat="37.37370974656914" lon="14.287951416980949"><ele>412.0</ele><time>2026-03-29T12:30:24.001Z</time></trkpt><trkpt lat="37.373669593990165" lon="14.288046418207939"><ele>412.6</ele><time>2026-03-29T12:30:26.001Z</time></trkpt><trkpt lat="37.373609182567805" lon="14.288159346897002"><ele>413.20000000000005</ele><time>2026-03-29T12:30:28.001Z</time></trkpt><trkpt lat="37.37354756206852" lon="14.2882694115236"><ele>413.8</ele><time>2026-03-29T12:30:30Z</time></trkpt><trkpt lat="37.37348806217491" lon="14.288376864639652"><ele>414.4</ele><time>2026-03-29T12:30:32Z</time></trkpt><trkpt lat="37.37342286516838" lon="14.288487789046313"><ele>415.0</ele><time>2026-03-29T12:30:34Z</time></trkpt><trkpt lat="37.37335932789894" lon="14.288598681028223"><ele>415.0</ele><time>2026-03-29T12:30:36Z</time></trkpt><trkpt lat="37.373290691794516" lon="14.288712269315395"><ele>415.0</ele><time>2026-03-29T12:30:38Z</time></trkpt><trkpt lat="37.37321252879338" lon="14.28884068326639"><ele>415.0</ele><time>2026-03-29T12:30:40Z</time></trkpt><trkpt lat="37.37316180878242" lon="14.288926997246582"><ele>415.0</ele><time>2026-03-29T12:30:41Z</time></trkpt><trkpt lat="37.37310817111412" lon="14.289029022665389"><ele>415.0</ele><time>2026-03-29T12:30:42Z</time></trkpt><trkpt lat="37.37305928337543" lon="14.289136205116131"><ele>415.0</ele><time>2026-03-29T12:30:43Z</time></trkpt><trkpt lat="37.37300965789565" lon="14.28924173308169"><ele>415.0</ele><time>2026-03-29T12:30:44Z</time></trkpt><trkpt lat="37.37296124498744" lon="14.289350027758482"><ele>415.0</ele><time>2026-03-29T12:30:45Z</time></trkpt><trkpt lat="37.37291552821695" lon="14.289464395658792"><ele>415.0</ele><time>2026-03-29T12:30:46Z</time></trkpt><trkpt lat="37.37286900085326" lon="14.289581992371096"><ele>415.0</ele><time>2026-03-29T12:30:47Z</time></trkpt><trkpt lat="37.372824964991196" lon="14.28970301125393"><ele>415.6</ele><time>2026-03-29T12:30:48Z</time></trkpt><trkpt lat="37.37277784232518" lon="14.289822059974846"><ele>416.2</ele><time>2026-03-29T12:30:49Z</time></trkpt><trkpt lat="37.372732633962414" lon="14.289942438972835"><ele>416.79999999999995</ele><time>2026-03-29T12:30:50Z</time></trkpt><trkpt lat="37.37269652533577" lon="14.290074466962427"><ele>417.4</ele><time>2026-03-29T12:30:51Z</time></trkpt><trkpt lat="37.372665948814785" lon="14.290218623738797"><ele>418.0</ele><time>2026-03-29T12:30:52Z</time></trkpt><trkpt lat="37.37264303576225" lon="14.29037447397917"><ele>418.0</ele><time>2026-03-29T12:30:53Z</time></trkpt><trkpt lat="37.372629302898694" lon="14.290539282482479"><ele>418.0</ele><time>2026-03-29T12:30:54Z</time></trkpt><trkpt lat="37.37261559264173" lon="14.290714094176913"><ele>418.0</ele><time>2026-03-29T12:30:55Z</time></trkpt><trkpt lat="37.372602193424974" lon="14.290893503940966"><ele>418.0</ele><time>2026-03-29T12:30:56Z</time></trkpt><trkpt lat="37.37258665427202" lon="14.291079762318487"><ele>419.0</ele><time>2026-03-29T12:30:57Z</time></trkpt><trkpt lat="37.37256678137068" lon="14.291268834144745"><ele>420.0</ele><time>2026-03-29T12:30:58Z</time></trkpt><trkpt lat="37.37253811429363" lon="14.291459282462538"><ele>421.0</ele><time>2026-03-29T12:30:59Z</time></trkpt><trkpt lat="37.372498011479884" lon="14.291647220475662"><ele>422.0</ele><time>2026-03-29T12:31:00Z</time></trkpt><trkpt lat="37.37244171336562" lon="14.291830976960378"><ele>423.0</ele><time>2026-03-29T12:31:01Z</time></trkpt><trkpt lat="37.37237994877314" lon="14.292013477606174"><ele>424.0</ele><time>2026-03-29T12:31:02Z</time></trkpt><trkpt lat="37.372307363590245" lon="14.292197740164912"><ele>424.0</ele><time>2026-03-29T12:31:03Z</time></trkpt><trkpt lat="37.372233686553606" lon="14.29238152164209"><ele>424.0</ele><time>2026-03-29T12:31:04Z</time></trkpt><trkpt lat="37.37216019621063" lon="14.292566170817212"><ele>424.0</ele><time>2026-03-29T12:31:05Z</time></trkpt><trkpt lat="37.3720912077073" lon="14.292750448990933"><ele>423.0</ele><time>2026-03-29T12:31:06Z</time></trkpt><trkpt lat="37.37202490439568" lon="14.292932580966722"><ele>422.0</ele><time>2026-03-29T12:31:07Z</time></trkpt><trkpt lat="37.37195926365972" lon="14.293114008044109"><ele>421.0</ele><time>2026-03-29T12:31:08Z</time></trkpt><trkpt lat="37.371893661752246" lon="14.293293120669116"><ele>421.0</ele><time>2026-03-29T12:31:09Z</time></trkpt><trkpt lat="37.37182768530455" lon="14.293470024825556"><ele>421.0</ele><time>2026-03-29T12:31:10Z</time></trkpt><trkpt lat="37.37176106531377" lon="14.293643049264716"><ele>421.0</ele><time>2026-03-29T12:31:11Z</time></trkpt><trkpt lat="37.371699135859735" lon="14.293800542155077"><ele>421.0</ele><time>2026-03-29T12:31:12Z</time></trkpt><trkpt lat="37.371640573343385" lon="14.293946378073358"><ele>422.0</ele><time>2026-03-29T12:31:13Z</time></trkpt><trkpt lat="37.37158156880961" lon="14.294094151661135"><ele>423.0</ele><time>2026-03-29T12:31:14Z</time></trkpt><trkpt lat="37.371524655065976" lon="14.294243967238351"><ele>424.0</ele><time>2026-03-29T12:31:15Z</time></trkpt><trkpt lat="37.37146450066454" lon="14.294399280863427"><ele>425.0</ele><time>2026-03-29T12:31:16Z</time></trkpt><trkpt lat="37.37140038815474" lon="14.294559555085444"><ele>424.5</ele><time>2026-03-29T12:31:17Z</time></trkpt><trkpt lat="37.37133454162982" lon="14.294722382105427"><ele>424.0</ele><time>2026-03-29T12:31:18Z</time></trkpt><trkpt lat="37.37126675780787" lon="14.2948896650709"><ele>423.5</ele><time>2026-03-29T12:31:19Z</time></trkpt><trkpt lat="37.3712020493452" lon="14.295058826502471"><ele>423.0</ele><time>2026-03-29T12:31:20Z</time></trkpt><trkpt lat="37.37114045460248" lon="14.295229007300092"><ele>423.0</ele><time>2026-03-29T12:31:21Z</time></trkpt><trkpt lat="37.37108063954004" lon="14.295401096876686"><ele>423.0</ele><time>2026-03-29T12:31:22.001Z</time></trkpt><trkpt lat="37.371031400327766" lon="14.295580009231905"><ele>423.0</ele><time>2026-03-29T12:31:23.001Z</time></trkpt><trkpt lat="37.370990487144944" lon="14.295764090711456"><ele>424.33333333333337</ele><time>2026-03-29T12:31:24.001Z</time></trkpt><trkpt lat="37.370952973808464" lon="14.29594971883416"><ele>425.6666666666667</ele><time>2026-03-29T12:31:25.001Z</time></trkpt><trkpt lat="37.37091667419847" lon="14.296138652084451"><ele>427.0</ele><time>2026-03-29T12:31:26.001Z</time></trkpt><trkpt lat="37.37087724383337" lon="14.29632684921214"><ele>427.33333333333337</ele><time>2026-03-29T12:31:27.001Z</time></trkpt><trkpt lat="37.37083404415574" lon="14.296513773761534"><ele>427.66666666666663</ele><time>2026-03-29T12:31:28.001Z</time></trkpt><trkpt lat="37.37078593742036" lon="14.296696890582464"><ele>428.0</ele><time>2026-03-29T12:31:29.001Z</time></trkpt><trkpt lat="37.37072928110267" lon="14.296873507377539"><ele>428.0</ele><time>2026-03-29T12:31:30.001Z</time></trkpt><trkpt lat="37.37065720676711" lon="14.297039709763908"><ele>428.0</ele><time>2026-03-29T12:31:31.001Z</time></trkpt><trkpt lat="37.37056889439609" lon="14.29719969460595"><ele>428.0</ele><time>2026-03-29T12:31:32.001Z</time></trkpt><trkpt lat="37.37046382408481" lon="14.297355791409673"><ele>428.66666666666663</ele><time>2026-03-29T12:31:33.001Z</time></trkpt><trkpt lat="37.37036164549595" lon="14.297517318699331"><ele>429.33333333333337</ele><time>2026-03-29T12:31:34.001Z</time></trkpt><trkpt lat="37.37025789466523" lon="14.297687045741625"><ele>430.0</ele><time>2026-03-29T12:31:35.001Z</time></trkpt><trkpt lat="37.370154015489376" lon="14.297864059417588"><ele>430.0</ele><time>2026-03-29T12:31:36.001Z</time></trkpt><trkpt lat="37.3700600017011" lon="14.298036808083504"><ele>430.0</ele><time>2026-03-29T12:31:37.001Z</time></trkpt><trkpt lat="37.369970099030134" lon="14.298215842942492"><ele>430.0</ele><time>2026-03-29T12:31:38.001Z</time></trkpt><trkpt lat="37.3698802391769" lon="14.29838920293554"><ele>430.0</ele><time>2026-03-29T12:31:39.001Z</time></trkpt><trkpt lat="37.369788205452906" lon="14.298562782288354"><ele>430.0</ele><time>2026-03-29T12:31:40.001Z</time></trkpt><trkpt lat="37.36969580912842" lon="14.298732375687452"><ele>430.0</ele><time>2026-03-29T12:31:41.001Z</time></trkpt><trkpt lat="37.36960373773141" lon="14.298902783367051"><ele>430.6666666666667</ele><time>2026-03-29T12:31:42.001Z</time></trkpt><trkpt lat="37.36951294887614" lon="14.299076760619783"><ele>431.33333333333337</ele><time>2026-03-29T12:31:43.001Z</time></trkpt><trkpt lat="37.36942222019097" lon="14.299254126245375"><ele>432.0</ele><time>2026-03-29T12:31:44.001Z</time></trkpt><trkpt lat="37.36932991653513" lon="14.299431478686078"><ele>432.0</ele><time>2026-03-29T12:31:45.001Z</time></trkpt><trkpt lat="37.36923650014558" lon="14.299610218796072"><ele>432.0</ele><time>2026-03-29T12:31:46.001Z</time></trkpt><trkpt lat="37.36914299737521" lon="14.299789241715462"><ele>432.0</ele><time>2026-03-29T12:31:47.001Z</time></trkpt><trkpt lat="37.3690491582867" lon="14.299966474838767"><ele>434.0</ele><time>2026-03-29T12:31:48.001Z</time></trkpt><trkpt lat="37.36895646982627" lon="14.300141997150945"><ele>436.0</ele><time>2026-03-29T12:31:49.001Z</time></trkpt><trkpt lat="37.368863951338284" lon="14.300317261129496"><ele>438.0</ele><time>2026-03-29T12:31:50.001Z</time></trkpt><trkpt lat="37.36877079961123" lon="14.30049319336393"><ele>439.33333333333337</ele><time>2026-03-29T12:31:51.001Z</time></trkpt><trkpt lat="37.36867617557839" lon="14.30067202929886"><ele>440.6666666666667</ele><time>2026-03-29T12:31:52.001Z</time></trkpt><trkpt lat="37.368581345434876" lon="14.300851902330622"><ele>442.0</ele><time>2026-03-29T12:31:53.001Z</time></trkpt><trkpt lat="37.368486981074014" lon="14.301031046813668"><ele>442.0</ele><time>2026-03-29T12:31:54.001Z</time></trkpt><trkpt lat="37.368393903426515" lon="14.301210742869047"><ele>442.0</ele><time>2026-03-29T12:31:55.001Z</time></trkpt><trkpt lat="37.36830165393201" lon="14.301390374866523"><ele>442.0</ele><time>2026-03-29T12:31:56.001Z</time></trkpt><trkpt lat="37.36820933942606" lon="14.301568730629675"><ele>442.6666666666667</ele><time>2026-03-29T12:31:57.001Z</time></trkpt><trkpt lat="37.3681172477742" lon="14.30174579169705"><ele>443.33333333333337</ele><time>2026-03-29T12:31:58.001Z</time></trkpt><trkpt lat="37.36802340912717" lon="14.30192387067307"><ele>444.0</ele><time>2026-03-29T12:31:59.001Z</time></trkpt><trkpt lat="37.36793063651267" lon="14.302100988681737"><ele>445.33333333333337</ele><time>2026-03-29T12:32:00.001Z</time></trkpt><trkpt lat="37.36783661504536" lon="14.302278321655281"><ele>446.6666666666667</ele><time>2026-03-29T12:32:01.001Z</time></trkpt><trkpt lat="37.367743869658945" lon="14.302457262235107"><ele>448.0</ele><time>2026-03-29T12:32:02.001Z</time></trkpt><trkpt lat="37.36765199627003" lon="14.302637794977702"><ele>448.0</ele><time>2026-03-29T12:32:03.001Z</time></trkpt><trkpt lat="37.36756004707708" lon="14.302819916233624"><ele>448.0</ele><time>2026-03-29T12:32:04.001Z</time></trkpt><trkpt lat="37.36746374664501" lon="14.30300313382417"><ele>448.0</ele><time>2026-03-29T12:32:05.001Z</time></trkpt><trkpt lat="37.36735807320879" lon="14.30318316604436"><ele>449.0</ele><time>2026-03-29T12:32:06.001Z</time></trkpt><trkpt lat="37.367244187618205" lon="14.30336318364262"><ele>450.0</ele><time>2026-03-29T12:32:07.001Z</time></trkpt><trkpt lat="37.36712890103045" lon="14.303531404235462"><ele>451.0</ele><time>2026-03-29T12:32:08.001Z</time></trkpt><trkpt lat="37.36701738731046" lon="14.30368846770815"><ele>451.0</ele><time>2026-03-29T12:32:09.001Z</time></trkpt><trkpt lat="37.36690845002958" lon="14.303836530480948"><ele>451.0</ele><time>2026-03-29T12:32:10.001Z</time></trkpt><trkpt lat="37.36680443262189" lon="14.303979663759426"><ele>451.0</ele><time>2026-03-29T12:32:11.001Z</time></trkpt><trkpt lat="37.36670473409595" lon="14.30412100851676"><ele>451.75</ele><time>2026-03-29T12:32:12.001Z</time></trkpt><trkpt lat="37.36660524366054" lon="14.304261258654387"><ele>452.5</ele><time>2026-03-29T12:32:13.001Z</time></trkpt><trkpt lat="37.36650778643842" lon="14.304401378096166"><ele>453.25</ele><time>2026-03-29T12:32:14.001Z</time></trkpt><trkpt lat="37.36640995834174" lon="14.30453802249563"><ele>454.0</ele><time>2026-03-29T12:32:15.001Z</time></trkpt><trkpt lat="37.366308588508225" lon="14.304675201092346"><ele>455.33333333333337</ele><time>2026-03-29T12:32:16.001Z</time></trkpt><trkpt lat="37.36620616893495" lon="14.304813848069093"><ele>456.66666666666663</ele><time>2026-03-29T12:32:17.001Z</time></trkpt><trkpt lat="37.36610589268799" lon="14.304955437426424"><ele>458.0</ele><time>2026-03-29T12:32:18.001Z</time></trkpt><trkpt lat="37.366008581729226" lon="14.305101124876153"><ele>458.0</ele><time>2026-03-29T12:32:19.001Z</time></trkpt><trkpt lat="37.36591516653105" lon="14.305253157073986"><ele>458.0</ele><time>2026-03-29T12:32:20.001Z</time></trkpt><trkpt lat="37.36582570023509" lon="14.305412912784341"><ele>458.0</ele><time>2026-03-29T12:32:21.001Z</time></trkpt><trkpt lat="37.365739535536676" lon="14.305577219235111"><ele>458.66666666666663</ele><time>2026-03-29T12:32:22.001Z</time></trkpt><trkpt lat="37.36565814509966" lon="14.305744129773725"><ele>459.33333333333337</ele><time>2026-03-29T12:32:23.001Z</time></trkpt><trkpt lat="37.36558122326547" lon="14.305919243938984"><ele>460.0</ele><time>2026-03-29T12:32:24.001Z</time></trkpt><trkpt lat="37.36551082942471" lon="14.30609887696176"><ele>461.33333333333337</ele><time>2026-03-29T12:32:25.001Z</time></trkpt><trkpt lat="37.36544086674693" lon="14.30627762342107"><ele>462.66666666666663</ele><time>2026-03-29T12:32:26.001Z</time></trkpt><trkpt lat="37.36536890395801" lon="14.30645664105385"><ele>464.0</ele><time>2026-03-29T12:32:27.001Z</time></trkpt><trkpt lat="37.3652996189897" lon="14.306637232660885"><ele>464.3333333333333</ele><time>2026-03-29T12:32:28.001Z</time></trkpt><trkpt lat="37.365235112517695" lon="14.306818058609457"><ele>464.66666666666663</ele><time>2026-03-29T12:32:29.001Z</time></trkpt><trkpt lat="37.36516730088211" lon="14.306997366780662"><ele>465.0</ele><time>2026-03-29T12:32:30.001Z</time></trkpt><trkpt lat="37.36509778271564" lon="14.307176872251047"><ele>466.33333333333337</ele><time>2026-03-29T12:32:31.001Z</time></trkpt><trkpt lat="37.365027784303166" lon="14.307360422196645"><ele>467.6666666666667</ele><time>2026-03-29T12:32:32.001Z</time></trkpt><trkpt lat="37.36495522846945" lon="14.30755177708195"><ele>469.0</ele><time>2026-03-29T12:32:33.001Z</time></trkpt><trkpt lat="37.36487340055296" lon="14.307740741094785"><ele>469.0</ele><time>2026-03-29T12:32:34.001Z</time></trkpt><trkpt lat="37.3647798464269" lon="14.307926045931705"><ele>469.0</ele><time>2026-03-29T12:32:35Z</time></trkpt><trkpt lat="37.36467776988435" lon="14.308107148133422"><ele>469.0</ele><time>2026-03-29T12:32:36Z</time></trkpt><trkpt lat="37.3645663588061" lon="14.3082829007187"><ele>471.33333333333337</ele><time>2026-03-29T12:32:37Z</time></trkpt><trkpt lat="37.36444985610022" lon="14.308460185529032"><ele>473.66666666666663</ele><time>2026-03-29T12:32:38Z</time></trkpt><trkpt lat="37.36432980219563" lon="14.308636748827725"><ele>476.0</ele><time>2026-03-29T12:32:39Z</time></trkpt><trkpt lat="37.364206189445795" lon="14.308813059850888"><ele>475.66666666666663</ele><time>2026-03-29T12:32:40Z</time></trkpt><trkpt lat="37.364077413599375" lon="14.308985772474564"><ele>475.33333333333337</ele><time>2026-03-29T12:32:41Z</time></trkpt><trkpt lat="37.36394066705633" lon="14.309151408597844"><ele>475.0</ele><time>2026-03-29T12:32:42Z</time></trkpt><trkpt lat="37.36379862306062" lon="14.309310427735737"><ele>477.0</ele><time>2026-03-29T12:32:43Z</time></trkpt><trkpt lat="37.36365424328253" lon="14.309469384130386"><ele>479.0</ele><time>2026-03-29T12:32:44Z</time></trkpt><trkpt lat="37.363510130816096" lon="14.309626953438025"><ele>481.0</ele><time>2026-03-29T12:32:45Z</time></trkpt><trkpt lat="37.3633687358164" lon="14.309783266013085"><ele>481.0</ele><time>2026-03-29T12:32:46Z</time></trkpt><trkpt lat="37.36322603113565" lon="14.309941731487658"><ele>481.0</ele><time>2026-03-29T12:32:47Z</time></trkpt><trkpt lat="37.36308538952991" lon="14.310099631912944"><ele>481.0</ele><time>2026-03-29T12:32:48Z</time></trkpt><trkpt lat="37.36294266134547" lon="14.310256181654772"><ele>482.6666666666667</ele><time>2026-03-29T12:32:49Z</time></trkpt><trkpt lat="37.36279752616354" lon="14.310414966253981"><ele>484.33333333333337</ele><time>2026-03-29T12:32:50Z</time></trkpt><trkpt lat="37.36265553147713" lon="14.310575834254758"><ele>486.0</ele><time>2026-03-29T12:32:51Z</time></trkpt><trkpt lat="37.36251439236951" lon="14.310738855695822"><ele>486.0</ele><time>2026-03-29T12:32:52Z</time></trkpt><trkpt lat="37.36237534593529" lon="14.310907189228255"><ele>486.0</ele><time>2026-03-29T12:32:53Z</time></trkpt><trkpt lat="37.362242607201644" lon="14.311079572672188"><ele>486.0</ele><time>2026-03-29T12:32:54Z</time></trkpt><trkpt lat="37.36211514497287" lon="14.31125563623885"><ele>489.0</ele><time>2026-03-29T12:32:55Z</time></trkpt><trkpt lat="37.36199185242167" lon="14.311435096569106"><ele>492.0</ele><time>2026-03-29T12:32:56Z</time></trkpt><trkpt lat="37.36186915075837" lon="14.311614848773907"><ele>495.0</ele><time>2026-03-29T12:32:57Z</time></trkpt><trkpt lat="37.36174656229173" lon="14.311793601960185"><ele>495.0</ele><time>2026-03-29T12:32:58Z</time></trkpt><trkpt lat="37.361623632319585" lon="14.311971634837866"><ele>495.0</ele><time>2026-03-29T12:32:59Z</time></trkpt><trkpt lat="37.361500071831486" lon="14.312149618101772"><ele>495.0</ele><time>2026-03-29T12:33:00Z</time></trkpt><trkpt lat="37.361377315371115" lon="14.312327549456489"><ele>500.33333333333337</ele><time>2026-03-29T12:33:01Z</time></trkpt><trkpt lat="37.36125492662373" lon="14.312504104822986"><ele>505.6666666666667</ele><time>2026-03-29T12:33:02Z</time></trkpt><trkpt lat="37.361133298407175" lon="14.312679728749313"><ele>511.0</ele><time>2026-03-29T12:33:03Z</time></trkpt><trkpt lat="37.36101085522151" lon="14.312854287363944"><ele>511.0</ele><time>2026-03-29T12:33:04Z</time></trkpt><trkpt lat="37.360886230999355" lon="14.313025411173049"><ele>511.0</ele><time>2026-03-29T12:33:05Z</time></trkpt><trkpt lat="37.36075842474809" lon="14.313190076658831"><ele>511.0</ele><time>2026-03-29T12:33:06Z</time></trkpt><trkpt lat="37.36062762836614" lon="14.313349882835507"><ele>511.6666666666667</ele><time>2026-03-29T12:33:07Z</time></trkpt><trkpt lat="37.36049476312155" lon="14.313507829907401"><ele>512.3333333333334</ele><time>2026-03-29T12:33:08Z</time></trkpt><trkpt lat="37.360361827762745" lon="14.31366539694654"><ele>513.0</ele><time>2026-03-29T12:33:09Z</time></trkpt><trkpt lat="37.360230940566105" lon="14.313826093851016"><ele>513.3333333333334</ele><time>2026-03-29T12:33:10Z</time></trkpt><trkpt lat="37.360102272132025" lon="14.31398773543317"><ele>513.6666666666667</ele><time>2026-03-29T12:33:11Z</time></trkpt><trkpt lat="37.35997273522277" lon="14.314152549800884"><ele>514.0</ele><time>2026-03-29T12:33:12Z</time></trkpt><trkpt lat="37.35984765302906" lon="14.314323226280402"><ele>514.0</ele><time>2026-03-29T12:33:13Z</time></trkpt><trkpt lat="37.359727323263954" lon="14.314501049656403"><ele>514.0</ele><time>2026-03-29T12:33:14Z</time></trkpt><trkpt lat="37.359614497219695" lon="14.314684081501419"><ele>514.0</ele><time>2026-03-29T12:33:15Z</time></trkpt><trkpt lat="37.35950795275669" lon="14.314872466070812"><ele>516.0</ele><time>2026-03-29T12:33:16Z</time></trkpt><trkpt lat="37.35940064454158" lon="14.3150601282839"><ele>518.0</ele><time>2026-03-29T12:33:17Z</time></trkpt><trkpt lat="37.35929206407972" lon="14.315246907700178"><ele>520.0</ele><time>2026-03-29T12:33:18Z</time></trkpt><trkpt lat="37.35918461647824" lon="14.315432911741333"><ele>520.6666666666667</ele><time>2026-03-29T12:33:19Z</time></trkpt><trkpt lat="37.35908030666625" lon="14.31561349786727"><ele>521.3333333333334</ele><time>2026-03-29T12:33:20Z</time></trkpt><trkpt lat="37.35897843761718" lon="14.315783623660417"><ele>522.0</ele><time>2026-03-29T12:33:21Z</time></trkpt><trkpt lat="37.358870984782996" lon="14.315945218037628"><ele>525.0</ele><time>2026-03-29T12:33:22Z</time></trkpt><trkpt lat="37.35874662864347" lon="14.31609448997139"><ele>528.0</ele><time>2026-03-29T12:33:23Z</time></trkpt><trkpt lat="37.35861102702654" lon="14.316246089558481"><ele>531.0</ele><time>2026-03-29T12:33:24Z</time></trkpt><trkpt lat="37.35847692199212" lon="14.316401325004447"><ele>529.6666666666666</ele><time>2026-03-29T12:33:25Z</time></trkpt><trkpt lat="37.35835046472945" lon="14.316557359751409"><ele>528.3333333333333</ele><time>2026-03-29T12:33:26Z</time></trkpt><trkpt lat="37.35823790064241" lon="14.3167213112077"><ele>527.0</ele><time>2026-03-29T12:33:27Z</time></trkpt><trkpt lat="37.358139927265654" lon="14.316896623383819"><ele>527.0</ele><time>2026-03-29T12:33:28Z</time></trkpt><trkpt lat="37.358047159423066" lon="14.317077383246367"><ele>527.0</ele><time>2026-03-29T12:33:29Z</time></trkpt><trkpt lat="37.357959407077594" lon="14.317251542788615"><ele>527.0</ele><time>2026-03-29T12:33:30Z</time></trkpt><trkpt lat="37.357880445489144" lon="14.317413341641691"><ele>527.0</ele><time>2026-03-29T12:33:31Z</time></trkpt><trkpt lat="37.35780653164673" lon="14.317573321810414"><ele>527.0</ele><time>2026-03-29T12:33:32Z</time></trkpt><trkpt lat="37.35774744426296" lon="14.317740181550478"><ele>527.0</ele><time>2026-03-29T12:33:33Z</time></trkpt><trkpt lat="37.35770567327038" lon="14.317920485990376"><ele>527.0</ele><time>2026-03-29T12:33:34Z</time></trkpt><trkpt lat="37.35767754576857" lon="14.318116389200636"><ele>527.0</ele><time>2026-03-29T12:33:35Z</time></trkpt><trkpt lat="37.35765242309841" lon="14.31832564661028"><ele>527.0</ele><time>2026-03-29T12:33:36Z</time></trkpt><trkpt lat="37.3576259839878" lon="14.318544806111301"><ele>527.0</ele><time>2026-03-29T12:33:37Z</time></trkpt><trkpt lat="37.3575994201037" lon="14.318768873907938"><ele>527.6666666666666</ele><time>2026-03-29T12:33:38Z</time></trkpt><trkpt lat="37.35757331358537" lon="14.31899797753845"><ele>528.3333333333334</ele><time>2026-03-29T12:33:39Z</time></trkpt><trkpt lat="37.35754645982593" lon="14.319223303849821"><ele>529.0</ele><time>2026-03-29T12:33:40Z</time></trkpt><trkpt lat="37.35752017674711" lon="14.31944360584458"><ele>529.0</ele><time>2026-03-29T12:33:41Z</time></trkpt><trkpt lat="37.35749390039" lon="14.319658317382789"><ele>529.0</ele><time>2026-03-29T12:33:42Z</time></trkpt><trkpt lat="37.35746682605904" lon="14.319862862550735"><ele>529.0</ele><time>2026-03-29T12:33:43Z</time></trkpt><trkpt lat="37.35743043117444" lon="14.32005083383459"><ele>529.6666666666667</ele><time>2026-03-29T12:33:44Z</time></trkpt><trkpt lat="37.35736996103334" lon="14.320222776798953"><ele>530.3333333333334</ele><time>2026-03-29T12:33:45Z</time></trkpt><trkpt lat="37.357285501975944" lon="14.320384193429035"><ele>531.0</ele><time>2026-03-29T12:33:46Z</time></trkpt><trkpt lat="37.35718772524451" lon="14.32053998309752"><ele>529.6666666666666</ele><time>2026-03-29T12:33:47Z</time></trkpt><trkpt lat="37.35708408400056" lon="14.320697382183564"><ele>528.3333333333333</ele><time>2026-03-29T12:33:48Z</time></trkpt><trkpt lat="37.35697857157414" lon="14.32085691822694"><ele>527.0</ele><time>2026-03-29T12:33:49Z</time></trkpt><trkpt lat="37.356873601355055" lon="14.321019136040396"><ele>527.0</ele><time>2026-03-29T12:33:50Z</time></trkpt><trkpt lat="37.356767918564714" lon="14.321183712839256"><ele>527.0</ele><time>2026-03-29T12:33:51Z</time></trkpt><trkpt lat="37.35666174111712" lon="14.321340244376563"><ele>527.0</ele><time>2026-03-29T12:33:52Z</time></trkpt><trkpt lat="37.35655409923176" lon="14.321496993048235"><ele>527.0</ele><time>2026-03-29T12:33:53Z</time></trkpt><trkpt lat="37.35644664091496" lon="14.321647647279658"><ele>527.0</ele><time>2026-03-29T12:33:54Z</time></trkpt><trkpt lat="37.356338662347426" lon="14.321787524412498"><ele>527.0</ele><time>2026-03-29T12:33:55Z</time></trkpt><trkpt lat="37.356229742747686" lon="14.321922806438383"><ele>527.0</ele><time>2026-03-29T12:33:56Z</time></trkpt><trkpt lat="37.35612056646288" lon="14.322055546582648"><ele>527.0</ele><time>2026-03-29T12:33:57Z</time></trkpt><trkpt lat="37.3560146738258" lon="14.322180686871489"><ele>527.0</ele><time>2026-03-29T12:33:58Z</time></trkpt><trkpt lat="37.35591416584141" lon="14.3223079535524"><ele>527.0</ele><time>2026-03-29T12:33:59Z</time></trkpt><trkpt lat="37.35583035334752" lon="14.322453397078213"><ele>527.6666666666666</ele><time>2026-03-29T12:34:00Z</time></trkpt><trkpt lat="37.355761947062376" lon="14.322617321791693"><ele>528.3333333333334</ele><time>2026-03-29T12:34:01Z</time></trkpt><trkpt lat="37.355705996228394" lon="14.32279749605616"><ele>529.0</ele><time>2026-03-29T12:34:02Z</time></trkpt><trkpt lat="37.35565048534887" lon="14.322987566880512"><ele>527.0</ele><time>2026-03-29T12:34:03Z</time></trkpt><trkpt lat="37.355592877729165" lon="14.323183110644822"><ele>525.0</ele><time>2026-03-29T12:34:04Z</time></trkpt><trkpt lat="37.35553204183324" lon="14.32337995570637"><ele>523.0</ele><time>2026-03-29T12:34:05Z</time></trkpt><trkpt lat="37.355471257567174" lon="14.323581718469637"><ele>523.0</ele><time>2026-03-29T12:34:06Z</time></trkpt><trkpt lat="37.35540815549795" lon="14.323786076482422"><ele>523.0</ele><time>2026-03-29T12:34:07Z</time></trkpt><trkpt lat="37.35535073940937" lon="14.323991113339956"><ele>523.0</ele><time>2026-03-29T12:34:08Z</time></trkpt><trkpt lat="37.355306778895674" lon="14.324198460640755"><ele>524.3333333333334</ele><time>2026-03-29T12:34:09Z</time></trkpt><trkpt lat="37.35527195276798" lon="14.324412205273081"><ele>525.6666666666666</ele><time>2026-03-29T12:34:10Z</time></trkpt><trkpt lat="37.355235443379165" lon="14.324627137590308"><ele>527.0</ele><time>2026-03-29T12:34:11Z</time></trkpt><trkpt lat="37.35519561161665" lon="14.324842827361664"><ele>528.0</ele><time>2026-03-29T12:34:12Z</time></trkpt><trkpt lat="37.35515828660516" lon="14.325054612263525"><ele>529.0</ele><time>2026-03-29T12:34:13Z</time></trkpt><trkpt lat="37.355127898019425" lon="14.325264035942517"><ele>530.0</ele><time>2026-03-29T12:34:14Z</time></trkpt><trkpt lat="37.355107605614265" lon="14.325477522534579"><ele>530.0</ele><time>2026-03-29T12:34:15Z</time></trkpt><trkpt lat="37.35510325350518" lon="14.325692247501694"><ele>530.0</ele><time>2026-03-29T12:34:16Z</time></trkpt><trkpt lat="37.355108453359314" lon="14.32590760925158"><ele>530.0</ele><time>2026-03-29T12:34:17Z</time></trkpt><trkpt lat="37.35511893362874" lon="14.326118882136996"><ele>530.0</ele><time>2026-03-29T12:34:18Z</time></trkpt><trkpt lat="37.355122852214464" lon="14.326324751785165"><ele>530.0</ele><time>2026-03-29T12:34:19Z</time></trkpt><trkpt lat="37.355111901400086" lon="14.326532716745998"><ele>530.0</ele><time>2026-03-29T12:34:20Z</time></trkpt><trkpt lat="37.35508526944357" lon="14.326742137347571"><ele>531.3333333333333</ele><time>2026-03-29T12:34:21Z</time></trkpt><trkpt lat="37.35505263462319" lon="14.326962457100942"><ele>532.6666666666666</ele><time>2026-03-29T12:34:22Z</time></trkpt><trkpt lat="37.355024209738765" lon="14.327180488680062"><ele>534.0</ele><time>2026-03-29T12:34:23Z</time></trkpt><trkpt lat="37.35499287348606" lon="14.327398480011913"><ele>534.6666666666666</ele><time>2026-03-29T12:34:24Z</time></trkpt><trkpt lat="37.35495494423699" lon="14.327609042991106"><ele>535.3333333333333</ele><time>2026-03-29T12:34:25Z</time></trkpt><trkpt lat="37.35490251086058" lon="14.327806721174776"><ele>536.0</ele><time>2026-03-29T12:34:26Z</time></trkpt><trkpt lat="37.35483811132423" lon="14.327995111067887"><ele>537.6666666666666</ele><time>2026-03-29T12:34:27Z</time></trkpt><trkpt lat="37.35478034540347" lon="14.328185575116166"><ele>539.3333333333334</ele><time>2026-03-29T12:34:28Z</time></trkpt><trkpt lat="37.354747648186006" lon="14.328384818265583"><ele>541.0</ele><time>2026-03-29T12:34:29Z</time></trkpt><trkpt lat="37.35473198728265" lon="14.328586738592348"><ele>541.0</ele><time>2026-03-29T12:34:30Z</time></trkpt><trkpt lat="37.35472553497095" lon="14.328776033052337"><ele>541.0</ele><time>2026-03-29T12:34:31Z</time></trkpt><trkpt lat="37.35473857738564" lon="14.32895080745314"><ele>541.0</ele><time>2026-03-29T12:34:32Z</time></trkpt><trkpt lat="37.35477620655613" lon="14.329099718652586"><ele>541.0</ele><time>2026-03-29T12:34:33Z</time></trkpt><trkpt lat="37.35484427258566" lon="14.329237736191947"><ele>541.5</ele><time>2026-03-29T12:34:34Z</time></trkpt><trkpt lat="37.35494408989474" lon="14.329342089184403"><ele>542.0</ele><time>2026-03-29T12:34:35Z</time></trkpt><trkpt lat="37.355066357906864" lon="14.329403256562326"><ele>542.5</ele><time>2026-03-29T12:34:36Z</time></trkpt><trkpt lat="37.35519563793827" lon="14.329429614266687"><ele>543.0</ele><time>2026-03-29T12:34:37Z</time></trkpt><trkpt lat="37.35534159624687" lon="14.329437921423443"><ele>543.0</ele><time>2026-03-29T12:34:38Z</time></trkpt><trkpt lat="37.35549674061226" lon="14.329430479121687"><ele>543.0</ele><time>2026-03-29T12:34:39Z</time></trkpt><trkpt lat="37.355656029338576" lon="14.329402629006049"><ele>543.0</ele><time>2026-03-29T12:34:40Z</time></trkpt><trkpt lat="37.355814809887114" lon="14.329358223838984"><ele>545.3333333333334</ele><time>2026-03-29T12:34:40.998Z</time></trkpt><trkpt lat="37.355972586010374" lon="14.329307392818604"><ele>547.6666666666667</ele><time>2026-03-29T12:34:41.998Z</time></trkpt><trkpt lat="37.35613241544323" lon="14.32925337521469"><ele>550.0</ele><time>2026-03-29T12:34:42.998Z</time></trkpt><trkpt lat="37.356294035799415" lon="14.329190394868178"><ele>550.3333333333334</ele><time>2026-03-29T12:34:43.998Z</time></trkpt><trkpt lat="37.35645581364419" lon="14.329110335665858"><ele>550.6666666666666</ele><time>2026-03-29T12:34:44.998Z</time></trkpt><trkpt lat="37.3566163653609" lon="14.329014148033268"><ele>551.0</ele><time>2026-03-29T12:34:45.998Z</time></trkpt><trkpt lat="37.35677809735146" lon="14.328913915122873"><ele>554.3333333333333</ele><time>2026-03-29T12:34:46.998Z</time></trkpt><trkpt lat="37.356938571214776" lon="14.328813566563525"><ele>557.6666666666666</ele><time>2026-03-29T12:34:47.998Z</time></trkpt><trkpt lat="37.35710036444785" lon="14.328718993667113"><ele>561.0</ele><time>2026-03-29T12:34:48.998Z</time></trkpt><trkpt lat="37.35726319314162" lon="14.328637296444407"><ele>561.0</ele><time>2026-03-29T12:34:49.998Z</time></trkpt><trkpt lat="37.35742582000335" lon="14.328576068272723"><ele>561.0</ele><time>2026-03-29T12:34:50.998Z</time></trkpt><trkpt lat="37.357586675542606" lon="14.328535524396832"><ele>561.0</ele><time>2026-03-29T12:34:51.999Z</time></trkpt><trkpt lat="37.35774330593555" lon="14.328501814704403"><ele>561.0</ele><time>2026-03-29T12:34:52.999Z</time></trkpt><trkpt lat="37.357894628850495" lon="14.32846475924731"><ele>561.0</ele><time>2026-03-29T12:34:53.999Z</time></trkpt><trkpt lat="37.35803628933273" lon="14.328418034910381"><ele>561.0</ele><time>2026-03-29T12:34:54.999Z</time></trkpt><trkpt lat="37.35816487891406" lon="14.328344776331987"><ele>561.0</ele><time>2026-03-29T12:34:55.999Z</time></trkpt><trkpt lat="37.35827366831302" lon="14.328237643657578"><ele>560.25</ele><time>2026-03-29T12:34:56.999Z</time></trkpt><trkpt lat="37.35836194480854" lon="14.328095834263578"><ele>559.5</ele><time>2026-03-29T12:34:57.999Z</time></trkpt><trkpt lat="37.358442448979766" lon="14.327934879638375"><ele>558.75</ele><time>2026-03-29T12:34:58.999Z</time></trkpt><trkpt lat="37.35852487721266" lon="14.327781771291546"><ele>558.0</ele><time>2026-03-29T12:34:59.999Z</time></trkpt><trkpt lat="37.35860840904708" lon="14.32764750540396"><ele>560.75</ele><time>2026-03-29T12:35:00.999Z</time></trkpt><trkpt lat="37.358700554974014" lon="14.32754940087567"><ele>563.5</ele><time>2026-03-29T12:35:01.999Z</time></trkpt><trkpt lat="37.358805601913474" lon="14.327491642124505"><ele>566.25</ele><time>2026-03-29T12:35:02.999Z</time></trkpt><trkpt lat="37.35893161268731" lon="14.327478059855444"><ele>569.0</ele><time>2026-03-29T12:35:03.999Z</time></trkpt><trkpt lat="37.35907584398793" lon="14.327492472041769"><ele>569.0</ele><time>2026-03-29T12:35:04.999Z</time></trkpt><trkpt lat="37.359225405808296" lon="14.327512789603778"><ele>569.0</ele><time>2026-03-29T12:35:05.999Z</time></trkpt><trkpt lat="37.35935681001975" lon="14.327545497822914"><ele>569.0</ele><time>2026-03-29T12:35:06.999Z</time></trkpt><trkpt lat="37.359480424038445" lon="14.327618453541794"><ele>569.0</ele><time>2026-03-29T12:35:07.999Z</time></trkpt><trkpt lat="37.359596621086325" lon="14.32772487664103"><ele>569.75</ele><time>2026-03-29T12:35:09Z</time></trkpt><trkpt lat="37.35970642969786" lon="14.327815845787201"><ele>570.5</ele><time>2026-03-29T12:35:10Z</time></trkpt><trkpt lat="37.35982234201678" lon="14.32785057444534"><ele>571.25</ele><time>2026-03-29T12:35:11Z</time></trkpt><trkpt lat="37.3599460226572" lon="14.32783512867775"><ele>572.0</ele><time>2026-03-29T12:35:12Z</time></trkpt><trkpt lat="37.36006475904192" lon="14.327768613886175"><ele>572.0</ele><time>2026-03-29T12:35:13Z</time></trkpt><trkpt lat="37.36018995462193" lon="14.327691915048943"><ele>572.0</ele><time>2026-03-29T12:35:14Z</time></trkpt><trkpt lat="37.360306928594945" lon="14.327596939012102"><ele>572.0</ele><time>2026-03-29T12:35:15Z</time></trkpt><trkpt lat="37.3604375958896" lon="14.32754953334499"><ele>572.0</ele><time>2026-03-29T12:35:16Z</time></trkpt><trkpt lat="37.36057372350437" lon="14.327544114085276"><ele>571.25</ele><time>2026-03-29T12:35:17Z</time></trkpt><trkpt lat="37.36071424899462" lon="14.327576340206473"><ele>570.5</ele><time>2026-03-29T12:35:18Z</time></trkpt><trkpt lat="37.36086830867982" lon="14.32759812689082"><ele>569.75</ele><time>2026-03-29T12:35:19Z</time></trkpt><trkpt lat="37.36100991963365" lon="14.327572955544063"><ele>569.0</ele><time>2026-03-29T12:35:20Z</time></trkpt><trkpt lat="37.36114372670067" lon="14.327491805349306"><ele>569.0</ele><time>2026-03-29T12:35:21Z</time></trkpt><trkpt lat="37.36126160075324" lon="14.327379459115154"><ele>569.0</ele><time>2026-03-29T12:35:22Z</time></trkpt><trkpt lat="37.36136671203609" lon="14.327255646210654"><ele>569.0</ele><time>2026-03-29T12:35:23Z</time></trkpt><trkpt lat="37.36146595967844" lon="14.327130471253088"><ele>569.0</ele><time>2026-03-29T12:35:24Z</time></trkpt><trkpt lat="37.36157087203928" lon="14.327044739306164"><ele>571.75</ele><time>2026-03-29T12:35:25Z</time></trkpt><trkpt lat="37.361686380373534" lon="14.327011556757066"><ele>574.5</ele><time>2026-03-29T12:35:26Z</time></trkpt><trkpt lat="37.36180645242749" lon="14.327033637061103"><ele>577.25</ele><time>2026-03-29T12:35:27Z</time></trkpt><trkpt lat="37.361915060212354" lon="14.32710553672098"><ele>580.0</ele><time>2026-03-29T12:35:28Z</time></trkpt><trkpt lat="37.36200972075767" lon="14.327222902534642"><ele>577.75</ele><time>2026-03-29T12:35:29Z</time></trkpt><trkpt lat="37.362098687549704" lon="14.327372244552635"><ele>575.5</ele><time>2026-03-29T12:35:30Z</time></trkpt><trkpt lat="37.36219870856825" lon="14.327510005839086"><ele>573.25</ele><time>2026-03-29T12:35:31Z</time></trkpt><trkpt lat="37.3623037662529" lon="14.327636478274618"><ele>571.0</ele><time>2026-03-29T12:35:32Z</time></trkpt><trkpt lat="37.362418578311384" lon="14.327737749192522"><ele>571.0</ele><time>2026-03-29T12:35:33Z</time></trkpt><trkpt lat="37.36254991310011" lon="14.32780829401323"><ele>571.0</ele><time>2026-03-29T12:35:34Z</time></trkpt><trkpt lat="37.36269110606698" lon="14.327845137599995"><ele>571.0</ele><time>2026-03-29T12:35:35Z</time></trkpt><trkpt lat="37.36283929581257" lon="14.327861201504712"><ele>571.0</ele><time>2026-03-29T12:35:36Z</time></trkpt><trkpt lat="37.36298880633338" lon="14.327875308764154"><ele>572.0</ele><time>2026-03-29T12:35:37Z</time></trkpt><trkpt lat="37.3631401826799" lon="14.32790388897273"><ele>573.0</ele><time>2026-03-29T12:35:38Z</time></trkpt><trkpt lat="37.36328866239616" lon="14.327950264719059"><ele>574.0</ele><time>2026-03-29T12:35:39Z</time></trkpt><trkpt lat="37.36343008404501" lon="14.327993228751936"><ele>574.0</ele><time>2026-03-29T12:35:40Z</time></trkpt><trkpt lat="37.36357739314385" lon="14.32801182170634"><ele>574.0</ele><time>2026-03-29T12:35:41Z</time></trkpt><trkpt lat="37.363731328100194" lon="14.328026563630843"><ele>574.0</ele><time>2026-03-29T12:35:42Z</time></trkpt><trkpt lat="37.363884507863546" lon="14.327983310523502"><ele>573.6666666666667</ele><time>2026-03-29T12:35:43Z</time></trkpt><trkpt lat="37.36404038003436" lon="14.327966451705802"><ele>573.3333333333334</ele><time>2026-03-29T12:35:44Z</time></trkpt><trkpt lat="37.36419459225797" lon="14.327976207890025"><ele>573.0</ele><time>2026-03-29T12:35:45Z</time></trkpt><trkpt lat="37.36435356119588" lon="14.328011746063005"><ele>573.0</ele><time>2026-03-29T12:35:46Z</time></trkpt><trkpt lat="37.36452078985938" lon="14.328054403241019"><ele>573.0</ele><time>2026-03-29T12:35:47Z</time></trkpt><trkpt lat="37.364692578200334" lon="14.32809281270528"><ele>573.0</ele><time>2026-03-29T12:35:48Z</time></trkpt><trkpt lat="37.3648659705348" lon="14.328129598315135"><ele>572.0</ele><time>2026-03-29T12:35:49Z</time></trkpt><trkpt lat="37.3650313773592" lon="14.328162188467157"><ele>571.0</ele><time>2026-03-29T12:35:50Z</time></trkpt><trkpt lat="37.36518854279063" lon="14.328215434679375"><ele>570.0</ele><time>2026-03-29T12:35:51Z</time></trkpt><trkpt lat="37.36534410678314" lon="14.32822786990989"><ele>570.0</ele><time>2026-03-29T12:35:52Z</time></trkpt><trkpt lat="37.36548395460295" lon="14.328267177527714"><ele>570.0</ele><time>2026-03-29T12:35:53Z</time></trkpt><trkpt lat="37.36560930320661" lon="14.328325522410186"><ele>570.0</ele><time>2026-03-29T12:35:54Z</time></trkpt><trkpt lat="37.365710082704794" lon="14.32841845173908"><ele>570.0</ele><time>2026-03-29T12:35:55Z</time></trkpt><trkpt lat="37.3657742092398" lon="14.32854036857197"><ele>570.5</ele><time>2026-03-29T12:35:56.001Z</time></trkpt><trkpt lat="37.36581487661257" lon="14.328689000702566"><ele>571.0</ele><time>2026-03-29T12:35:57.001Z</time></trkpt><trkpt lat="37.365843789972395" lon="14.328854463775212"><ele>571.5</ele><time>2026-03-29T12:35:58.001Z</time></trkpt><trkpt lat="37.36586988565787" lon="14.329031770880714"><ele>572.0</ele><time>2026-03-29T12:35:59.001Z</time></trkpt><trkpt lat="37.365901088304355" lon="14.329210680455526"><ele>572.0</ele><time>2026-03-29T12:36:00.001Z</time></trkpt><trkpt lat="37.36593837356717" lon="14.329383988176602"><ele>572.0</ele><time>2026-03-29T12:36:01.001Z</time></trkpt><trkpt lat="37.365995560637565" lon="14.329540189554695"><ele>572.0</ele><time>2026-03-29T12:36:02.001Z</time></trkpt><trkpt lat="37.36607544135432" lon="14.329657013658654"><ele>572.0</ele><time>2026-03-29T12:36:03.001Z</time></trkpt><trkpt lat="37.366180700635326" lon="14.32974491363245"><ele>570.75</ele><time>2026-03-29T12:36:04.001Z</time></trkpt><trkpt lat="37.36630394893801" lon="14.32980921815807"><ele>569.5</ele><time>2026-03-29T12:36:05.001Z</time></trkpt><trkpt lat="37.36644246106965" lon="14.329863123549933"><ele>568.25</ele><time>2026-03-29T12:36:06.001Z</time></trkpt><trkpt lat="37.366592883409204" lon="14.329918725990622"><ele>567.0</ele><time>2026-03-29T12:36:07.001Z</time></trkpt><trkpt lat="37.36675498222865" lon="14.329979886069488"><ele>571.0</ele><time>2026-03-29T12:36:08.001Z</time></trkpt><trkpt lat="37.36692497104572" lon="14.330049137325895"><ele>575.0</ele><time>2026-03-29T12:36:09.001Z</time></trkpt><trkpt lat="37.36709382031186" lon="14.330134327761858"><ele>579.0</ele><time>2026-03-29T12:36:10.001Z</time></trkpt><trkpt lat="37.36725579951362" lon="14.330232654872717"><ele>582.3333333333334</ele><time>2026-03-29T12:36:11.001Z</time></trkpt><trkpt lat="37.36741359500078" lon="14.330337221449726"><ele>585.6666666666667</ele><time>2026-03-29T12:36:12.001Z</time></trkpt><trkpt lat="37.36756810377475" lon="14.330439468212404"><ele>589.0</ele><time>2026-03-29T12:36:13.001Z</time></trkpt><trkpt lat="37.36771887549769" lon="14.330539463868414"><ele>586.6666666666667</ele><time>2026-03-29T12:36:14.001Z</time></trkpt><trkpt lat="37.36784939809114" lon="14.330640847845885"><ele>584.3333333333334</ele><time>2026-03-29T12:36:15.001Z</time></trkpt><trkpt lat="37.36796715377689" lon="14.330759670768083"><ele>582.0</ele><time>2026-03-29T12:36:16.001Z</time></trkpt><trkpt lat="37.368068691870434" lon="14.330893156802055"><ele>582.0</ele><time>2026-03-29T12:36:17.001Z</time></trkpt><trkpt lat="37.3681610093524" lon="14.331019946446494"><ele>582.0</ele><time>2026-03-29T12:36:18.001Z</time></trkpt><trkpt lat="37.36825574205799" lon="14.331125333704286"><ele>582.0</ele><time>2026-03-29T12:36:19.001Z</time></trkpt><trkpt lat="37.36836119587866" lon="14.331202913186038"><ele>582.0</ele><time>2026-03-29T12:36:20.001Z</time></trkpt><trkpt lat="37.36847860195683" lon="14.33124336588182"><ele>582.0</ele><time>2026-03-29T12:36:21.001Z</time></trkpt><trkpt lat="37.368615205562435" lon="14.331249141793403"><ele>582.0</ele><time>2026-03-29T12:36:22.001Z</time></trkpt><trkpt lat="37.36876459737618" lon="14.33122119446049"><ele>582.0</ele><time>2026-03-29T12:36:23.001Z</time></trkpt><trkpt lat="37.36892031519755" lon="14.331189147908798"><ele>582.0</ele><time>2026-03-29T12:36:24.001Z</time></trkpt><trkpt lat="37.369077348035745" lon="14.331186169308406"><ele>585.0</ele><time>2026-03-29T12:36:25.001Z</time></trkpt><trkpt lat="37.36924308163427" lon="14.331212795318379"><ele>588.0</ele><time>2026-03-29T12:36:26.001Z</time></trkpt><trkpt lat="37.369403455346024" lon="14.331241087949842"><ele>591.0</ele><time>2026-03-29T12:36:27.001Z</time></trkpt><trkpt lat="37.36955234791779" lon="14.331247866963183"><ele>591.0</ele><time>2026-03-29T12:36:28.001Z</time></trkpt><trkpt lat="37.36968681429378" lon="14.331222467216516"><ele>591.0</ele><time>2026-03-29T12:36:29.001Z</time></trkpt><trkpt lat="37.369804517474705" lon="14.331153548814548"><ele>591.0</ele><time>2026-03-29T12:36:30.001Z</time></trkpt><trkpt lat="37.36991466537624" lon="14.331059333226422"><ele>591.0</ele><time>2026-03-29T12:36:31.001Z</time></trkpt><trkpt lat="37.37002659037198" lon="14.330993216782677"><ele>590.25</ele><time>2026-03-29T12:36:32.001Z</time></trkpt><trkpt lat="37.370148350335114" lon="14.330976636916034"><ele>589.5</ele><time>2026-03-29T12:36:33.001Z</time></trkpt><trkpt lat="37.370284794643936" lon="14.330993823317861"><ele>588.75</ele><time>2026-03-29T12:36:34.001Z</time></trkpt><trkpt lat="37.37042743107596" lon="14.331027825788482"><ele>588.0</ele><time>2026-03-29T12:36:35.001Z</time></trkpt><trkpt lat="37.370575781385156" lon="14.331068484779221"><ele>588.0</ele><time>2026-03-29T12:36:36.001Z</time></trkpt><trkpt lat="37.37072776480109" lon="14.331093102702136"><ele>588.0</ele><time>2026-03-29T12:36:37.001Z</time></trkpt><trkpt lat="37.37088119676085" lon="14.331105102372684"><ele>588.0</ele><time>2026-03-29T12:36:38.001Z</time></trkpt><trkpt lat="37.37103759061455" lon="14.331108970827358"><ele>588.0</ele><time>2026-03-29T12:36:39.001Z</time></trkpt><trkpt lat="37.371199836642376" lon="14.33110579021637"><ele>588.0</ele><time>2026-03-29T12:36:40.001Z</time></trkpt><trkpt lat="37.37136282306161" lon="14.331094868518907"><ele>588.0</ele><time>2026-03-29T12:36:41.001Z</time></trkpt><trkpt lat="37.37152614664546" lon="14.331075657182353"><ele>586.0</ele><time>2026-03-29T12:36:42.001Z</time></trkpt><trkpt lat="37.37168737168167" lon="14.331037491421013"><ele>584.0</ele><time>2026-03-29T12:36:43.001Z</time></trkpt><trkpt lat="37.37185271313806" lon="14.33099430860276"><ele>582.0</ele><time>2026-03-29T12:36:44Z</time></trkpt><trkpt lat="37.37201699488941" lon="14.33094879330375"><ele>582.0</ele><time>2026-03-29T12:36:45Z</time></trkpt><trkpt lat="37.37217984730443" lon="14.330908632024215"><ele>582.0</ele><time>2026-03-29T12:36:46Z</time></trkpt><trkpt lat="37.37233825875417" lon="14.330859803592933"><ele>582.0</ele><time>2026-03-29T12:36:46.998Z</time></trkpt><trkpt lat="37.37249488561777" lon="14.330785841817683"><ele>579.0</ele><time>2026-03-29T12:36:47.998Z</time></trkpt><trkpt lat="37.37264634829341" lon="14.330697460920506"><ele>576.0</ele><time>2026-03-29T12:36:48.998Z</time></trkpt><trkpt lat="37.37279996890261" lon="14.330602451075228"><ele>573.0</ele><time>2026-03-29T12:36:49.998Z</time></trkpt><trkpt lat="37.37294756245481" lon="14.33050930163698"><ele>576.6666666666666</ele><time>2026-03-29T12:36:50.998Z</time></trkpt><trkpt lat="37.37309191684775" lon="14.330418980615415"><ele>580.3333333333333</ele><time>2026-03-29T12:36:51.998Z</time></trkpt><trkpt lat="37.37322457415373" lon="14.33032806807376"><ele>584.0</ele><time>2026-03-29T12:36:52.998Z</time></trkpt><trkpt lat="37.37334299994664" lon="14.330234931807505"><ele>584.0</ele><time>2026-03-29T12:36:53.998Z</time></trkpt><trkpt lat="37.37344767808152" lon="14.330143914018082"><ele>584.0</ele><time>2026-03-29T12:36:54.998Z</time></trkpt><trkpt lat="37.37354571145791" lon="14.33007212641913"><ele>584.0</ele><time>2026-03-29T12:36:55.998Z</time></trkpt><trkpt lat="37.37364862710749" lon="14.330041158981683"><ele>584.0</ele><time>2026-03-29T12:36:56.998Z</time></trkpt><trkpt lat="37.37375028517051" lon="14.33005374450123"><ele>584.0</ele><time>2026-03-29T12:36:57.998Z</time></trkpt><trkpt lat="37.37384329906987" lon="14.330118254546536"><ele>584.0</ele><time>2026-03-29T12:36:58.999Z</time></trkpt><trkpt lat="37.37392753221319" lon="14.33022442993335"><ele>584.0</ele><time>2026-03-29T12:36:59.999Z</time></trkpt><trkpt lat="37.37402898863309" lon="14.330332755751211"><ele>584.0</ele><time>2026-03-29T12:37:00.999Z</time></trkpt><trkpt lat="37.37414442439633" lon="14.330440974272856"><ele>584.0</ele><time>2026-03-29T12:37:01.999Z</time></trkpt><trkpt lat="37.37427983379875" lon="14.330540767348571"><ele>583.3333333333333</ele><time>2026-03-29T12:37:02.999Z</time></trkpt><trkpt lat="37.37441939119574" lon="14.33063403373986"><ele>582.6666666666666</ele><time>2026-03-29T12:37:03.999Z</time></trkpt><trkpt lat="37.37456165602183" lon="14.330733284027785"><ele>582.0</ele><time>2026-03-29T12:37:04.999Z</time></trkpt><trkpt lat="37.37470281240682" lon="14.330843536870292"><ele>582.0</ele><time>2026-03-29T12:37:05.999Z</time></trkpt><trkpt lat="37.374836270857294" lon="14.330955820038263"><ele>582.0</ele><time>2026-03-29T12:37:06.999Z</time></trkpt><trkpt lat="37.374964332129956" lon="14.331065624960171"><ele>582.0</ele><time>2026-03-29T12:37:07.999Z</time></trkpt><trkpt lat="37.375087220544316" lon="14.331164696662325"><ele>582.0</ele><time>2026-03-29T12:37:08.999Z</time></trkpt><trkpt lat="37.37521352221533" lon="14.331241679058422"><ele>582.0</ele><time>2026-03-29T12:37:09.999Z</time></trkpt><trkpt lat="37.375344639568425" lon="14.331283292911854"><ele>582.0</ele><time>2026-03-29T12:37:10.999Z</time></trkpt><trkpt lat="37.3754783628033" lon="14.331285323041609"><ele>582.0</ele><time>2026-03-29T12:37:11.999Z</time></trkpt><trkpt lat="37.37560820766368" lon="14.33124405290437"><ele>582.0</ele><time>2026-03-29T12:37:12.999Z</time></trkpt><trkpt lat="37.37572746143927" lon="14.331158141970995"><ele>582.0</ele><time>2026-03-29T12:37:13.999Z</time></trkpt><trkpt lat="37.37584257133714" lon="14.331044231451177"><ele>582.0</ele><time>2026-03-29T12:37:14.999Z</time></trkpt><trkpt lat="37.37596645381869" lon="14.330936771601088"><ele>582.0</ele><time>2026-03-29T12:37:15.999Z</time></trkpt><trkpt lat="37.37609778358726" lon="14.33084049906741"><ele>582.0</ele><time>2026-03-29T12:37:16.999Z</time></trkpt><trkpt lat="37.376239128406574" lon="14.330758628273973"><ele>582.0</ele><time>2026-03-29T12:37:17.999Z</time></trkpt><trkpt lat="37.37638250030019" lon="14.330682936233835"><ele>582.0</ele><time>2026-03-29T12:37:18.999Z</time></trkpt><trkpt lat="37.37651843156727" lon="14.3306071130343"><ele>583.0</ele><time>2026-03-29T12:37:19.999Z</time></trkpt><trkpt lat="37.376640965744556" lon="14.330534123263805"><ele>584.0</ele><time>2026-03-29T12:37:20.999Z</time></trkpt><trkpt lat="37.37675600202146" lon="14.330471864701957"><ele>585.0</ele><time>2026-03-29T12:37:21.999Z</time></trkpt><trkpt lat="37.37686299891253" lon="14.330432599659442"><ele>586.0</ele><time>2026-03-29T12:37:22.999Z</time></trkpt><trkpt lat="37.37696635392954" lon="14.330432040712244"><ele>586.0</ele><time>2026-03-29T12:37:23.999Z</time></trkpt><trkpt lat="37.3770512006009" lon="14.330483226418972"><ele>586.0</ele><time>2026-03-29T12:37:24.999Z</time></trkpt><trkpt lat="37.37710089505747" lon="14.330572492798504"><ele>586.0</ele><time>2026-03-29T12:37:25.999Z</time></trkpt><trkpt lat="37.377117029598054" lon="14.330685410474587"><ele>586.0</ele><time>2026-03-29T12:37:26.999Z</time></trkpt><trkpt lat="37.377109113855404" lon="14.330823621841342"><ele>586.0</ele><time>2026-03-29T12:37:27.999Z</time></trkpt><trkpt lat="37.377106154405425" lon="14.330971296652335"><ele>583.75</ele><time>2026-03-29T12:37:28.999Z</time></trkpt><trkpt lat="37.37712627719503" lon="14.331118509440685"><ele>581.5</ele><time>2026-03-29T12:37:29.999Z</time></trkpt><trkpt lat="37.37717586627442" lon="14.331259643809272"><ele>579.25</ele><time>2026-03-29T12:37:30.999Z</time></trkpt><trkpt lat="37.37724563039892" lon="14.331384590772522"><ele>577.0</ele><time>2026-03-29T12:37:31.999Z</time></trkpt><trkpt lat="37.37731123582203" lon="14.331492468842635"><ele>577.0</ele><time>2026-03-29T12:37:32.999Z</time></trkpt><trkpt lat="37.37735340787483" lon="14.331601846310862"><ele>577.0</ele><time>2026-03-29T12:37:33.999Z</time></trkpt><trkpt lat="37.3773505136104" lon="14.331711356298804"><ele>577.0</ele><time>2026-03-29T12:37:34.999Z</time></trkpt><trkpt lat="37.37730425418057" lon="14.331808435006154"><ele>577.0</ele><time>2026-03-29T12:37:35.999Z</time></trkpt><trkpt lat="37.377226959627244" lon="14.331893682549895"><ele>577.0</ele><time>2026-03-29T12:37:36.999Z</time></trkpt><trkpt lat="37.37714077753825" lon="14.331972879457755"><ele>576.5</ele><time>2026-03-29T12:37:37.999Z</time></trkpt><trkpt lat="37.37705601329702" lon="14.332072693180228"><ele>576.0</ele><time>2026-03-29T12:37:39Z</time></trkpt><trkpt lat="37.376974011222956" lon="14.332196889952789"><ele>575.5</ele><time>2026-03-29T12:37:40Z</time></trkpt><trkpt lat="37.376896307466495" lon="14.332331335254699"><ele>575.0</ele><time>2026-03-29T12:37:41Z</time></trkpt><trkpt lat="37.37682708371486" lon="14.332475934401199"><ele>575.0</ele><time>2026-03-29T12:37:42Z</time></trkpt><trkpt lat="37.37677476996702" lon="14.332629745687221"><ele>575.0</ele><time>2026-03-29T12:37:43Z</time></trkpt><trkpt lat="37.376734786830006" lon="14.332787385360863"><ele>575.0</ele><time>2026-03-29T12:37:44Z</time></trkpt><trkpt lat="37.376693695895945" lon="14.332955569786044"><ele>575.0</ele><time>2026-03-29T12:37:45Z</time></trkpt><trkpt lat="37.376648549144925" lon="14.333120490401464"><ele>576.75</ele><time>2026-03-29T12:37:46Z</time></trkpt><trkpt lat="37.37660690586179" lon="14.333282605537539"><ele>578.5</ele><time>2026-03-29T12:37:47Z</time></trkpt><trkpt lat="37.376587680874486" lon="14.333443736819564"><ele>580.25</ele><time>2026-03-29T12:37:48Z</time></trkpt><trkpt lat="37.376598670055444" lon="14.333609701177682"><ele>582.0</ele><time>2026-03-29T12:37:49Z</time></trkpt><trkpt lat="37.37664065232429" lon="14.333781438454842"><ele>580.6666666666666</ele><time>2026-03-29T12:37:50Z</time></trkpt><trkpt lat="37.37670840206784" lon="14.333954541284866"><ele>579.3333333333333</ele><time>2026-03-29T12:37:51Z</time></trkpt><trkpt lat="37.37679033519596" lon="14.334138192934775"><ele>578.0</ele><time>2026-03-29T12:37:52Z</time></trkpt><trkpt lat="37.37687515381086" lon="14.334330704374532"><ele>578.0</ele><time>2026-03-29T12:37:53Z</time></trkpt><trkpt lat="37.37697370620174" lon="14.334523230563182"><ele>578.0</ele><time>2026-03-29T12:37:54Z</time></trkpt><trkpt lat="37.37708910459802" lon="14.334705286563947"><ele>578.0</ele><time>2026-03-29T12:37:55Z</time></trkpt><trkpt lat="37.377217481113064" lon="14.334881804781144"><ele>584.0</ele><time>2026-03-29T12:37:56Z</time></trkpt><trkpt lat="37.37735122047248" lon="14.335048955143293"><ele>590.0</ele><time>2026-03-29T12:37:57Z</time></trkpt><trkpt lat="37.377480233908756" lon="14.335208166762541"><ele>596.0</ele><time>2026-03-29T12:37:58Z</time></trkpt><trkpt lat="37.37759707921117" lon="14.335360100627318"><ele>596.0</ele><time>2026-03-29T12:37:59Z</time></trkpt><trkpt lat="37.37769639801808" lon="14.335511624463656"><ele>596.0</ele><time>2026-03-29T12:38:00Z</time></trkpt><trkpt lat="37.37776816382342" lon="14.335674484982398"><ele>596.0</ele><time>2026-03-29T12:38:01Z</time></trkpt><trkpt lat="37.37781773040289" lon="14.33585910551949"><ele>590.6666666666666</ele><time>2026-03-29T12:38:02Z</time></trkpt><trkpt lat="37.37785949190319" lon="14.336061464100908"><ele>585.3333333333334</ele><time>2026-03-29T12:38:03Z</time></trkpt><trkpt lat="37.37790318465099" lon="14.336277974430887"><ele>580.0</ele><time>2026-03-29T12:38:04Z</time></trkpt><trkpt lat="37.37794335502311" lon="14.336506304536739"><ele>578.6666666666667</ele><time>2026-03-29T12:38:05Z</time></trkpt><trkpt lat="37.37796711257429" lon="14.336740147724433"><ele>577.3333333333334</ele><time>2026-03-29T12:38:06Z</time></trkpt><trkpt lat="37.37798430577799" lon="14.33697752043182"><ele>576.0</ele><time>2026-03-29T12:38:07Z</time></trkpt><trkpt lat="37.37799943089925" lon="14.3372045096897"><ele>576.0</ele><time>2026-03-29T12:38:08Z</time></trkpt><trkpt lat="37.378005562338295" lon="14.337424173107022"><ele>576.0</ele><time>2026-03-29T12:38:09Z</time></trkpt><trkpt lat="37.37799240135973" lon="14.33763329214325"><ele>576.0</ele><time>2026-03-29T12:38:10Z</time></trkpt><trkpt lat="37.377958020112615" lon="14.337840642073198"><ele>576.0</ele><time>2026-03-29T12:38:11Z</time></trkpt><trkpt lat="37.37791170507863" lon="14.33804599642908"><ele>576.0</ele><time>2026-03-29T12:38:12Z</time></trkpt><trkpt lat="37.377862138728496" lon="14.33825388092354"><ele>576.0</ele><time>2026-03-29T12:38:13Z</time></trkpt><trkpt lat="37.377810516203574" lon="14.338459088328875"><ele>577.0</ele><time>2026-03-29T12:38:14Z</time></trkpt><trkpt lat="37.37776423584178" lon="14.338668686111227"><ele>578.0</ele><time>2026-03-29T12:38:15Z</time></trkpt><trkpt lat="37.37771952600415" lon="14.338879785679564"><ele>579.0</ele><time>2026-03-29T12:38:16Z</time></trkpt><trkpt lat="37.37767726386319" lon="14.339099132894892"><ele>580.6666666666666</ele><time>2026-03-29T12:38:17Z</time></trkpt><trkpt lat="37.37764831209252" lon="14.339326646844388"><ele>582.3333333333333</ele><time>2026-03-29T12:38:18Z</time></trkpt><trkpt lat="37.377634189582224" lon="14.33956124794659"><ele>584.0</ele><time>2026-03-29T12:38:19Z</time></trkpt><trkpt lat="37.377632369461594" lon="14.339793185900511"><ele>585.0</ele><time>2026-03-29T12:38:20Z</time></trkpt><trkpt lat="37.37763143758576" lon="14.340017823191614"><ele>586.0</ele><time>2026-03-29T12:38:21Z</time></trkpt><trkpt lat="37.37762786060832" lon="14.340238562919419"><ele>587.0</ele><time>2026-03-29T12:38:22Z</time></trkpt><trkpt lat="37.377622469583414" lon="14.340446678804785"><ele>586.5</ele><time>2026-03-29T12:38:23Z</time></trkpt><trkpt lat="37.377621622813166" lon="14.340639071987558"><ele>586.0</ele><time>2026-03-29T12:38:24Z</time></trkpt><trkpt lat="37.3776388589408" lon="14.340816769770143"><ele>585.5</ele><time>2026-03-29T12:38:25Z</time></trkpt><trkpt lat="37.37768974477272" lon="14.340982978896275"><ele>585.0</ele><time>2026-03-29T12:38:26Z</time></trkpt><trkpt lat="37.377773329207685" lon="14.341140502808027"><ele>585.0</ele><time>2026-03-29T12:38:27Z</time></trkpt><trkpt lat="37.377863677694876" lon="14.341287512377749"><ele>585.0</ele><time>2026-03-29T12:38:28Z</time></trkpt><trkpt lat="37.377937104627385" lon="14.341444867518062"><ele>585.0</ele><time>2026-03-29T12:38:29Z</time></trkpt><trkpt lat="37.37798574414124" lon="14.341623552881456"><ele>585.0</ele><time>2026-03-29T12:38:30Z</time></trkpt><trkpt lat="37.37800818897972" lon="14.341821693476092"><ele>585.0</ele><time>2026-03-29T12:38:31Z</time></trkpt><trkpt lat="37.378010451516694" lon="14.342032406388386"><ele>585.0</ele><time>2026-03-29T12:38:32Z</time></trkpt><trkpt lat="37.378017635992364" lon="14.342252234328022"><ele>585.0</ele><time>2026-03-29T12:38:33Z</time></trkpt><trkpt lat="37.3780397925217" lon="14.342478121247607"><ele>588.6666666666666</ele><time>2026-03-29T12:38:34Z</time></trkpt><trkpt lat="37.378079883286944" lon="14.34270452845891"><ele>592.3333333333333</ele><time>2026-03-29T12:38:35Z</time></trkpt><trkpt lat="37.37813195403536" lon="14.342928609217761"><ele>596.0</ele><time>2026-03-29T12:38:36Z</time></trkpt><trkpt lat="37.378186215616466" lon="14.343152715385639"><ele>596.0</ele><time>2026-03-29T12:38:37Z</time></trkpt><trkpt lat="37.37823849342951" lon="14.343367345519553"><ele>596.0</ele><time>2026-03-29T12:38:38Z</time></trkpt><trkpt lat="37.37827904983157" lon="14.34356745548837"><ele>596.0</ele><time>2026-03-29T12:38:39Z</time></trkpt><trkpt lat="37.37828870481459" lon="14.34375988177533"><ele>595.3333333333333</ele><time>2026-03-29T12:38:40Z</time></trkpt><trkpt lat="37.37826842482807" lon="14.343954634637265"><ele>594.6666666666666</ele><time>2026-03-29T12:38:41Z</time></trkpt><trkpt lat="37.37822227028847" lon="14.344148066601198"><ele>594.0</ele><time>2026-03-29T12:38:42Z</time></trkpt><trkpt lat="37.37816808673301" lon="14.344351362182753"><ele>594.0</ele><time>2026-03-29T12:38:43Z</time></trkpt><trkpt lat="37.37811490425574" lon="14.344558144393359"><ele>594.0</ele><time>2026-03-29T12:38:44.001Z</time></trkpt><trkpt lat="37.37806351588037" lon="14.344749817486438"><ele>594.0</ele><time>2026-03-29T12:38:45.001Z</time></trkpt><trkpt lat="37.37802087258669" lon="14.344923630256895"><ele>594.5</ele><time>2026-03-29T12:38:46.001Z</time></trkpt><trkpt lat="37.37799714927448" lon="14.345095058253152"><ele>595.0</ele><time>2026-03-29T12:38:47.001Z</time></trkpt><trkpt lat="37.37800414490256" lon="14.345281469247603"><ele>595.5</ele><time>2026-03-29T12:38:48.001Z</time></trkpt><trkpt lat="37.37804261424816" lon="14.345479965935178"><ele>596.0</ele><time>2026-03-29T12:38:49.001Z</time></trkpt><trkpt lat="37.37810194708738" lon="14.345689959764544"><ele>596.0</ele><time>2026-03-29T12:38:50.001Z</time></trkpt><trkpt lat="37.378166143613534" lon="14.345910024387274"><ele>596.0</ele><time>2026-03-29T12:38:51.001Z</time></trkpt><trkpt lat="37.378236503878654" lon="14.346138466218164"><ele>596.0</ele><time>2026-03-29T12:38:52.001Z</time></trkpt><trkpt lat="37.37828414307059" lon="14.346382199897805"><ele>595.3333333333333</ele><time>2026-03-29T12:38:52.999Z</time></trkpt><trkpt lat="37.37832943546796" lon="14.346630958324827"><ele>594.6666666666666</ele><time>2026-03-29T12:38:53.999Z</time></trkpt><trkpt lat="37.37837351742729" lon="14.346893990698744"><ele>594.0</ele><time>2026-03-29T12:38:54.999Z</time></trkpt><trkpt lat="37.37841668918594" lon="14.347172086513593"><ele>594.0</ele><time>2026-03-29T12:38:55.999Z</time></trkpt><trkpt lat="37.3784602917073" lon="14.347457731920937"><ele>594.0</ele><time>2026-03-29T12:38:56.999Z</time></trkpt><trkpt lat="37.378519608689025" lon="14.347743251819573"><ele>594.0</ele><time>2026-03-29T12:38:57.999Z</time></trkpt><trkpt lat="37.37856420700523" lon="14.348035740727266"><ele>594.0</ele><time>2026-03-29T12:38:58.999Z</time></trkpt><trkpt lat="37.37860900771308" lon="14.348327338245927"><ele>595.0</ele><time>2026-03-29T12:38:59.999Z</time></trkpt><trkpt lat="37.37865278157931" lon="14.34861655654173"><ele>596.0</ele><time>2026-03-29T12:39:00.999Z</time></trkpt><trkpt lat="37.37869518622883" lon="14.348896774260698"><ele>596.0</ele><time>2026-03-29T12:39:01.999Z</time></trkpt><trkpt lat="37.3787357135032" lon="14.349173985073111"><ele>596.0</ele><time>2026-03-29T12:39:02.999Z</time></trkpt><trkpt lat="37.37877506694988" lon="14.349437601282906"><ele>596.0</ele><time>2026-03-29T12:39:03.999Z</time></trkpt><trkpt lat="37.37880889219621" lon="14.34968980237314"><ele>596.6666666666666</ele><time>2026-03-29T12:39:04.999Z</time></trkpt><trkpt lat="37.37883089031733" lon="14.34993682705783"><ele>597.3333333333334</ele><time>2026-03-29T12:39:05.999Z</time></trkpt><trkpt lat="37.378806249966296" lon="14.350177285550012"><ele>598.0</ele><time>2026-03-29T12:39:06.999Z</time></trkpt><trkpt lat="37.37878919712614" lon="14.350425692489132"><ele>598.3333333333334</ele><time>2026-03-29T12:39:07.999Z</time></trkpt><trkpt lat="37.37874729301715" lon="14.35067514410841"><ele>598.6666666666666</ele><time>2026-03-29T12:39:08.999Z</time></trkpt><trkpt lat="37.378728253531676" lon="14.350923832013528"><ele>599.0</ele><time>2026-03-29T12:39:09.999Z</time></trkpt><trkpt lat="37.37875208634825" lon="14.351173069942737"><ele>600.0</ele><time>2026-03-29T12:39:10.999Z</time></trkpt><trkpt lat="37.37878803725194" lon="14.35141400735122"><ele>601.0</ele><time>2026-03-29T12:39:11.999Z</time></trkpt><trkpt lat="37.37884767247919" lon="14.351653790585113"><ele>602.0</ele><time>2026-03-29T12:39:12.999Z</time></trkpt><trkpt lat="37.378924796975795" lon="14.351887872313116"><ele>606.0</ele><time>2026-03-29T12:39:13.999Z</time></trkpt><trkpt lat="37.37902213115266" lon="14.352108768300527"><ele>610.0</ele><time>2026-03-29T12:39:14.999Z</time></trkpt><trkpt lat="37.37913976466742" lon="14.352320364986602"><ele>614.0</ele><time>2026-03-29T12:39:15.999Z</time></trkpt><trkpt lat="37.379271779713534" lon="14.352533741345136"><ele>614.0</ele><time>2026-03-29T12:39:16.999Z</time></trkpt><trkpt lat="37.37940451617811" lon="14.352752503112733"><ele>614.0</ele><time>2026-03-29T12:39:17.999Z</time></trkpt><trkpt lat="37.379533491332154" lon="14.352986992662863"><ele>614.0</ele><time>2026-03-29T12:39:18.999Z</time></trkpt><trkpt lat="37.379660194029555" lon="14.353221919370041"><ele>616.5</ele><time>2026-03-29T12:39:19.999Z</time></trkpt><trkpt lat="37.379790398402534" lon="14.353455806175655"><ele>619.0</ele><time>2026-03-29T12:39:20.999Z</time></trkpt><trkpt lat="37.37992670773483" lon="14.35368434759795"><ele>615.5</ele><time>2026-03-29T12:39:21.999Z</time></trkpt><trkpt lat="37.380069486384784" lon="14.35390492786041"><ele>612.0</ele><time>2026-03-29T12:39:22.999Z</time></trkpt><trkpt lat="37.38021499188116" lon="14.354122457742436"><ele>612.0</ele><time>2026-03-29T12:39:23.999Z</time></trkpt><trkpt lat="37.38035831208005" lon="14.354337621335581"><ele>612.0</ele><time>2026-03-29T12:39:24.999Z</time></trkpt><trkpt lat="37.38049670030651" lon="14.354550052608339"><ele>612.0</ele><time>2026-03-29T12:39:25.999Z</time></trkpt><trkpt lat="37.38062306676694" lon="14.354750306121826"><ele>614.3333333333334</ele><time>2026-03-29T12:39:26.999Z</time></trkpt><trkpt lat="37.38074658125947" lon="14.354941666046702"><ele>616.6666666666667</ele><time>2026-03-29T12:39:27.999Z</time></trkpt><trkpt lat="37.38086654725488" lon="14.355119876867848"><ele>619.0</ele><time>2026-03-29T12:39:29Z</time></trkpt><trkpt lat="37.38100027175582" lon="14.355289506034817"><ele>619.0</ele><time>2026-03-29T12:39:30Z</time></trkpt><trkpt lat="37.38115391789153" lon="14.355441072299127"><ele>619.0</ele><time>2026-03-29T12:39:31Z</time></trkpt><trkpt lat="37.38132599157204" lon="14.355573888530008"><ele>619.0</ele><time>2026-03-29T12:39:32Z</time></trkpt><trkpt lat="37.381513178870804" lon="14.355694601495223"><ele>619.0</ele><time>2026-03-29T12:39:33Z</time></trkpt><trkpt lat="37.3817030093459" lon="14.355803619141913"><ele>619.0</ele><time>2026-03-29T12:39:34Z</time></trkpt><trkpt lat="37.381887445278316" lon="14.35589261853347"><ele>619.0</ele><time>2026-03-29T12:39:35Z</time></trkpt><trkpt lat="37.38206218064769" lon="14.355959537169"><ele>621.3333333333334</ele><time>2026-03-29T12:39:36Z</time></trkpt><trkpt lat="37.38222941303704" lon="14.356013442494856"><ele>623.6666666666666</ele><time>2026-03-29T12:39:37Z</time></trkpt><trkpt lat="37.38238249724136" lon="14.356068809515039"><ele>626.0</ele><time>2026-03-29T12:39:38Z</time></trkpt><trkpt lat="37.382513567165425" lon="14.356141063658635"><ele>626.0</ele><time>2026-03-29T12:39:39Z</time></trkpt><trkpt lat="37.382611550903285" lon="14.356246482375932"><ele>626.0</ele><time>2026-03-29T12:39:40Z</time></trkpt><trkpt lat="37.38268177950186" lon="14.356388139384803"><ele>626.0</ele><time>2026-03-29T12:39:41Z</time></trkpt><trkpt lat="37.38272808704375" lon="14.356564610943714"><ele>626.0</ele><time>2026-03-29T12:39:42Z</time></trkpt><trkpt lat="37.382770462193065" lon="14.356757333393812"><ele>624.0</ele><time>2026-03-29T12:39:43Z</time></trkpt><trkpt lat="37.38283236868206" lon="14.35693751158244"><ele>622.0</ele><time>2026-03-29T12:39:44Z</time></trkpt><trkpt lat="37.382915123441904" lon="14.357096116344792"><ele>620.0</ele><time>2026-03-29T12:39:45Z</time></trkpt><trkpt lat="37.38301852817155" lon="14.35722243368833"><ele>620.0</ele><time>2026-03-29T12:39:46Z</time></trkpt><trkpt lat="37.38313680058108" lon="14.357307943641011"><ele>620.0</ele><time>2026-03-29T12:39:47Z</time></trkpt><trkpt lat="37.38326219199207" lon="14.357372405285005"><ele>620.0</ele><time>2026-03-29T12:39:48Z</time></trkpt><trkpt lat="37.38337555834217" lon="14.357428312301606"><ele>620.0</ele><time>2026-03-29T12:39:49Z</time></trkpt><trkpt lat="37.38347146766933" lon="14.357495089095059"><ele>620.0</ele><time>2026-03-29T12:39:50Z</time></trkpt><trkpt lat="37.38354563498969" lon="14.357582112286487"><ele>620.0</ele><time>2026-03-29T12:39:51Z</time></trkpt><trkpt lat="37.38361549636383" lon="14.357650840718138"><ele>620.0</ele><time>2026-03-29T12:39:52Z</time></trkpt><trkpt lat="37.38362521159415" lon="14.357842103437108"><ele>620.0</ele><time>2026-03-29T12:39:53Z</time></trkpt><trkpt lat="37.38364074043771" lon="14.358000411769615"><ele>618.75</ele><time>2026-03-29T12:39:54Z</time></trkpt><trkpt lat="37.383658738314374" lon="14.358163134357616"><ele>617.5</ele><time>2026-03-29T12:39:55Z</time></trkpt><trkpt lat="37.38367361043086" lon="14.35831475915766"><ele>616.25</ele><time>2026-03-29T12:39:56Z</time></trkpt><trkpt lat="37.38367089363363" lon="14.358457369986231"><ele>615.0</ele><time>2026-03-29T12:39:57Z</time></trkpt><trkpt lat="37.383637282760866" lon="14.358590819536301"><ele>615.0</ele><time>2026-03-29T12:39:58Z</time></trkpt><trkpt lat="37.383573062612584" lon="14.358721669170555"><ele>615.0</ele><time>2026-03-29T12:39:59Z</time></trkpt><trkpt lat="37.383478476081464" lon="14.358840541446233"><ele>615.0</ele><time>2026-03-29T12:40:00Z</time></trkpt><trkpt lat="37.383374296970466" lon="14.358954431004804"><ele>615.0</ele><time>2026-03-29T12:40:01Z</time></trkpt><trkpt lat="37.383265542292385" lon="14.359066322876648"><ele>617.25</ele><time>2026-03-29T12:40:02Z</time></trkpt><trkpt lat="37.38315328925615" lon="14.359171867855261"><ele>619.5</ele><time>2026-03-29T12:40:03Z</time></trkpt><trkpt lat="37.383032964360126" lon="14.359266795650749"><ele>621.75</ele><time>2026-03-29T12:40:04Z</time></trkpt><trkpt lat="37.38290038087928" lon="14.359331015848857"><ele>624.0</ele><time>2026-03-29T12:40:05Z</time></trkpt><trkpt lat="37.382759050686694" lon="14.359377258853426"><ele>624.0</ele><time>2026-03-29T12:40:06Z</time></trkpt><trkpt lat="37.38261584530469" lon="14.359424658326484"><ele>624.0</ele><time>2026-03-29T12:40:07Z</time></trkpt><trkpt lat="37.382477229982904" lon="14.35946929631976"><ele>624.0</ele><time>2026-03-29T12:40:08Z</time></trkpt><trkpt lat="37.38235737305681" lon="14.359515992035753"><ele>624.0</ele><time>2026-03-29T12:40:09Z</time></trkpt><trkpt lat="37.38227104416971" lon="14.359586495246738"><ele>624.0</ele><time>2026-03-29T12:40:10Z</time></trkpt><trkpt lat="37.382204476644816" lon="14.359688638188715"><ele>624.0</ele><time>2026-03-29T12:40:11Z</time></trkpt><trkpt lat="37.382162159035104" lon="14.359829901550343"><ele>624.0</ele><time>2026-03-29T12:40:12Z</time></trkpt><trkpt lat="37.3821347138201" lon="14.35998363991924"><ele>624.0</ele><time>2026-03-29T12:40:13Z</time></trkpt><trkpt lat="37.38211536087523" lon="14.360146911276566"><ele>625.0</ele><time>2026-03-29T12:40:14Z</time></trkpt><trkpt lat="37.38209272844311" lon="14.360318746257802"><ele>626.0</ele><time>2026-03-29T12:40:15Z</time></trkpt><trkpt lat="37.38207128583024" lon="14.360482725224363"><ele>627.0</ele><time>2026-03-29T12:40:16Z</time></trkpt><trkpt lat="37.38204806871321" lon="14.360627207055002"><ele>628.0</ele><time>2026-03-29T12:40:17Z</time></trkpt><trkpt lat="37.38201568185465" lon="14.360750295481743"><ele>628.6</ele><time>2026-03-29T12:40:18Z</time></trkpt><trkpt lat="37.381964615030284" lon="14.360853770058204"><ele>629.1999999999999</ele><time>2026-03-29T12:40:19Z</time></trkpt><trkpt lat="37.38188765783616" lon="14.360931964501027"><ele>629.8</ele><time>2026-03-29T12:40:20Z</time></trkpt><trkpt lat="37.3818001293753" lon="14.361009199705961"><ele>630.4</ele><time>2026-03-29T12:40:21Z</time></trkpt><trkpt lat="37.381705925172305" lon="14.36110345470965"><ele>631.0</ele><time>2026-03-29T12:40:22Z</time></trkpt><trkpt lat="37.3816116448262" lon="14.361224012275114"><ele>635.0</ele><time>2026-03-29T12:40:23Z</time></trkpt><trkpt lat="37.381531107735704" lon="14.361383794257266"><ele>639.0</ele><time>2026-03-29T12:40:24Z</time></trkpt><trkpt lat="37.381460967577986" lon="14.361566540882178"><ele>643.0</ele><time>2026-03-29T12:40:25Z</time></trkpt><trkpt lat="37.38139558658926" lon="14.36175027632316"><ele>641.6666666666667</ele><time>2026-03-29T12:40:26.001Z</time></trkpt><trkpt lat="37.381325030765375" lon="14.361943033406815"><ele>640.3333333333334</ele><time>2026-03-29T12:40:27.001Z</time></trkpt><trkpt lat="37.38125398816675" lon="14.362136503111868"><ele>639.0</ele><time>2026-03-29T12:40:28.001Z</time></trkpt><trkpt lat="37.381190152835124" lon="14.362330525469238"><ele>639.0</ele><time>2026-03-29T12:40:29.001Z</time></trkpt><trkpt lat="37.38113708383221" lon="14.362519293466663"><ele>639.0</ele><time>2026-03-29T12:40:30.001Z</time></trkpt><trkpt lat="37.38110484466642" lon="14.362713179039131"><ele>639.0</ele><time>2026-03-29T12:40:31.001Z</time></trkpt><trkpt lat="37.38108901733932" lon="14.362915225964485"><ele>639.6666666666666</ele><time>2026-03-29T12:40:32.001Z</time></trkpt><trkpt lat="37.38108497012711" lon="14.363114747237441"><ele>640.3333333333333</ele><time>2026-03-29T12:40:33.001Z</time></trkpt><trkpt lat="37.38108509481062" lon="14.36330730172031"><ele>641.0</ele><time>2026-03-29T12:40:34.001Z</time></trkpt><trkpt lat="37.38108373973053" lon="14.363492081224704"><ele>641.0</ele><time>2026-03-29T12:40:35.001Z</time></trkpt><trkpt lat="37.38107900958523" lon="14.363661117496962"><ele>641.0</ele><time>2026-03-29T12:40:36.001Z</time></trkpt><trkpt lat="37.381073340946266" lon="14.363814753928546"><ele>641.0</ele><time>2026-03-29T12:40:37.001Z</time></trkpt><trkpt lat="37.381067727076044" lon="14.363954735207464"><ele>641.0</ele><time>2026-03-29T12:40:38.001Z</time></trkpt><trkpt lat="37.38105540789691" lon="14.364084396050869"><ele>641.5</ele><time>2026-03-29T12:40:39.001Z</time></trkpt><trkpt lat="37.381035357913646" lon="14.364190347864632"><ele>642.0</ele><time>2026-03-29T12:40:40.001Z</time></trkpt><trkpt lat="37.38100944459283" lon="14.36428402156675"><ele>642.5</ele><time>2026-03-29T12:40:41.001Z</time></trkpt><trkpt lat="37.38097895575619" lon="14.364373137376797"><ele>643.0</ele><time>2026-03-29T12:40:42.001Z</time></trkpt><trkpt lat="37.38094173439122" lon="14.36446671894099"><ele>643.5</ele><time>2026-03-29T12:40:43.001Z</time></trkpt><trkpt lat="37.38089669965227" lon="14.364568683866551"><ele>644.0</ele><time>2026-03-29T12:40:44.001Z</time></trkpt><trkpt lat="37.38085129789965" lon="14.364676342671808"><ele>644.3333333333333</ele><time>2026-03-29T12:40:45.001Z</time></trkpt><trkpt lat="37.38081050669139" lon="14.364778700736876"><ele>644.6666666666666</ele><time>2026-03-29T12:40:46.001Z</time></trkpt><trkpt lat="37.380775991642864" lon="14.364873104202283"><ele>645.0</ele><time>2026-03-29T12:40:47.001Z</time></trkpt><trkpt lat="37.380754158081125" lon="14.364962111990279"><ele>645.3333333333334</ele><time>2026-03-29T12:40:48.001Z</time></trkpt><trkpt lat="37.38072121526972" lon="14.365047386141583"><ele>645.6666666666667</ele><time>2026-03-29T12:40:49.001Z</time></trkpt><trkpt lat="37.38069159892558" lon="14.36517998139937"><ele>646.0</ele><time>2026-03-29T12:40:51.001Z</time></trkpt><trkpt lat="37.38068350962199" lon="14.365357909087232"><ele>646.0</ele><time>2026-03-29T12:40:53.001Z</time></trkpt><trkpt lat="37.38066408493673" lon="14.365453464288484"><ele>646.0</ele><time>2026-03-29T12:40:54.001Z</time></trkpt><trkpt lat="37.38066413397546" lon="14.365535309114376"><ele>646.0</ele><time>2026-03-29T12:40:55.001Z</time></trkpt><trkpt lat="37.38075405927142" lon="14.365645026776201"><ele>646.0</ele><time>2026-03-29T12:40:57.001Z</time></trkpt><trkpt lat="37.38084139452114" lon="14.365670228922319"><ele>646.0</ele><time>2026-03-29T12:40:58.001Z</time></trkpt><trkpt lat="37.38092435110129" lon="14.365697315412003"><ele>646.0</ele><time>2026-03-29T12:40:58.999Z</time></trkpt><trkpt lat="37.381003295765154" lon="14.365738870057042"><ele>647.1999999999999</ele><time>2026-03-29T12:40:59.999Z</time></trkpt><trkpt lat="37.38107957766703" lon="14.365798854945377"><ele>648.4</ele><time>2026-03-29T12:41:00.999Z</time></trkpt><trkpt lat="37.3811507588598" lon="14.36587055310514"><ele>649.6</ele><time>2026-03-29T12:41:01.999Z</time></trkpt><trkpt lat="37.38123471630567" lon="14.365957778214922"><ele>650.8</ele><time>2026-03-29T12:41:02.999Z</time></trkpt><trkpt lat="37.38133414964174" lon="14.366019816102698"><ele>652.0</ele><time>2026-03-29T12:41:03.999Z</time></trkpt><trkpt lat="37.38142920529896" lon="14.366098247882404"><ele>652.5</ele><time>2026-03-29T12:41:04.999Z</time></trkpt><trkpt lat="37.381518042361144" lon="14.36618739338167"><ele>653.0</ele><time>2026-03-29T12:41:05.999Z</time></trkpt><trkpt lat="37.38160529693154" lon="14.366290933334382"><ele>653.5</ele><time>2026-03-29T12:41:06.999Z</time></trkpt><trkpt lat="37.38169857503282" lon="14.366396502036583"><ele>654.0</ele><time>2026-03-29T12:41:07.999Z</time></trkpt><trkpt lat="37.38179823884996" lon="14.366497614112054"><ele>658.0</ele><time>2026-03-29T12:41:08.999Z</time></trkpt><trkpt lat="37.381900869701035" lon="14.366587053301272"><ele>662.0</ele><time>2026-03-29T12:41:09.999Z</time></trkpt><trkpt lat="37.382072135232114" lon="14.366785634678685"><ele>666.0</ele><time>2026-03-29T12:41:11.999Z</time></trkpt><trkpt lat="37.382146210499066" lon="14.36689591818992"><ele>665.8</ele><time>2026-03-29T12:41:12.999Z</time></trkpt><trkpt lat="37.382213124505725" lon="14.367014281097948"><ele>665.5999999999999</ele><time>2026-03-29T12:41:13.999Z</time></trkpt><trkpt lat="37.38227601791658" lon="14.367133929382405"><ele>665.4</ele><time>2026-03-29T12:41:14.999Z</time></trkpt><trkpt lat="37.382331520123614" lon="14.367247273988522"><ele>665.2</ele><time>2026-03-29T12:41:15.999Z</time></trkpt><trkpt lat="37.38237206813134" lon="14.367359979121844"><ele>665.0</ele><time>2026-03-29T12:41:16.999Z</time></trkpt><trkpt lat="37.38238867074058" lon="14.36747487778842"><ele>665.0</ele><time>2026-03-29T12:41:17.999Z</time></trkpt><trkpt lat="37.38239224356353" lon="14.367596490684921"><ele>665.0</ele><time>2026-03-29T12:41:18.999Z</time></trkpt><trkpt lat="37.38241928697707" lon="14.367716004972538"><ele>665.0</ele><time>2026-03-29T12:41:19.999Z</time></trkpt><trkpt lat="37.38247431280581" lon="14.367836719778381"><ele>665.0</ele><time>2026-03-29T12:41:20.999Z</time></trkpt><trkpt lat="37.38254617966573" lon="14.367948723132175"><ele>665.0</ele><time>2026-03-29T12:41:21.999Z</time></trkpt><trkpt lat="37.38262407395855" lon="14.368058032576808"><ele>667.0</ele><time>2026-03-29T12:41:22.999Z</time></trkpt><trkpt lat="37.38270045443509" lon="14.368172104706476"><ele>669.0</ele><time>2026-03-29T12:41:24Z</time></trkpt><trkpt lat="37.3827593190328" lon="14.36828830494788"><ele>671.0</ele><time>2026-03-29T12:41:25Z</time></trkpt><trkpt lat="37.38281361839417" lon="14.368413672547817"><ele>673.0</ele><time>2026-03-29T12:41:26Z</time></trkpt><trkpt lat="37.38286678080263" lon="14.368528375811955"><ele>675.0</ele><time>2026-03-29T12:41:27Z</time></trkpt><trkpt lat="37.38291187174304" lon="14.36862892567532"><ele>675.0</ele><time>2026-03-29T12:41:28Z</time></trkpt><trkpt lat="37.38294489241223" lon="14.368721679163977"><ele>675.0</ele><time>2026-03-29T12:41:29Z</time></trkpt><trkpt lat="37.38297297511731" lon="14.368835307268753"><ele>675.0</ele><time>2026-03-29T12:41:30Z</time></trkpt><trkpt lat="37.383003172175634" lon="14.36897108173007"><ele>675.0</ele><time>2026-03-29T12:41:31Z</time></trkpt><trkpt lat="37.383030289162214" lon="14.369115400514"><ele>675.0</ele><time>2026-03-29T12:41:32Z</time></trkpt><trkpt lat="37.383052053495796" lon="14.369261411482272"><ele>676.4</ele><time>2026-03-29T12:41:33Z</time></trkpt><trkpt lat="37.383063739676984" lon="14.369392090379831"><ele>677.8</ele><time>2026-03-29T12:41:34Z</time></trkpt><trkpt lat="37.3830464518439" lon="14.369494808688408"><ele>679.2</ele><time>2026-03-29T12:41:35Z</time></trkpt><trkpt lat="37.38300421710681" lon="14.369590429064978"><ele>680.6</ele><time>2026-03-29T12:41:36Z</time></trkpt><trkpt lat="37.38298722303488" lon="14.36972266960764"><ele>682.0</ele><time>2026-03-29T12:41:37Z</time></trkpt><trkpt lat="37.382949779461455" lon="14.369826391510333"><ele>682.3333333333334</ele><time>2026-03-29T12:41:38Z</time></trkpt><trkpt lat="37.382940515334184" lon="14.369904816141261"><ele>682.6666666666667</ele><time>2026-03-29T12:41:39Z</time></trkpt><trkpt lat="37.38300052817871" lon="14.370018364983103"><ele>683.0</ele><time>2026-03-29T12:41:41Z</time></trkpt><trkpt lat="37.38311431388663" lon="14.370017830941864"><ele>683.3333333333334</ele><time>2026-03-29T12:41:43Z</time></trkpt><trkpt lat="37.38316999758782" lon="14.37006706814424"><ele>683.6666666666666</ele><time>2026-03-29T12:41:45Z</time></trkpt><trkpt lat="37.38308512718426" lon="14.370073430805109"><ele>684.0</ele><time>2026-03-29T12:41:52Z</time></trkpt><trkpt lat="37.3829942640149" lon="14.37006742807471"><ele>684.2</ele><time>2026-03-29T12:41:53Z</time></trkpt><trkpt lat="37.38292201819892" lon="14.370041328178143"><ele>684.4000000000001</ele><time>2026-03-29T12:41:54Z</time></trkpt><trkpt lat="37.38285385299871" lon="14.370031221966826"><ele>684.6</ele><time>2026-03-29T12:41:55Z</time></trkpt><trkpt lat="37.38277626169899" lon="14.370017684577602"><ele>684.8</ele><time>2026-03-29T12:41:56Z</time></trkpt><trkpt lat="37.38268168184531" lon="14.36999915600346"><ele>685.0</ele><time>2026-03-29T12:41:57Z</time></trkpt><trkpt lat="37.38246448705285" lon="14.369960369465485"><ele>685.0</ele><time>2026-03-29T12:41:59Z</time></trkpt><trkpt lat="37.38234430911479" lon="14.369943319067426"><ele>685.0</ele><time>2026-03-29T12:42:00Z</time></trkpt><trkpt lat="37.382222430017364" lon="14.369918817726939"><ele>685.0</ele><time>2026-03-29T12:42:01Z</time></trkpt><trkpt lat="37.382101494644" lon="14.369895740633917"><ele>685.0</ele><time>2026-03-29T12:42:02Z</time></trkpt><trkpt lat="37.381981419376146" lon="14.369877401303366"><ele>687.0</ele><time>2026-03-29T12:42:03Z</time></trkpt><trkpt lat="37.381867666681025" lon="14.369859027101457"><ele>689.0</ele><time>2026-03-29T12:42:04Z</time></trkpt><trkpt lat="37.38175634515011" lon="14.369842161528847"><ele>691.0</ele><time>2026-03-29T12:42:05Z</time></trkpt><trkpt lat="37.38163881677882" lon="14.369824104457168"><ele>693.0</ele><time>2026-03-29T12:42:06Z</time></trkpt><trkpt lat="37.38152579816991" lon="14.36979836830277"><ele>693.0</ele><time>2026-03-29T12:42:07Z</time></trkpt><trkpt lat="37.38141827244761" lon="14.369749595385723"><ele>693.0</ele><time>2026-03-29T12:42:08Z</time></trkpt><trkpt lat="37.38130162755306" lon="14.369726470809841"><ele>693.0</ele><time>2026-03-29T12:42:09Z</time></trkpt><trkpt lat="37.381185302741784" lon="14.36970340970581"><ele>693.0</ele><time>2026-03-29T12:42:10Z</time></trkpt><trkpt lat="37.381067438118805" lon="14.369680058645468"><ele>694.25</ele><time>2026-03-29T12:42:11Z</time></trkpt><trkpt lat="37.380945772105896" lon="14.369656781500764"><ele>695.5</ele><time>2026-03-29T12:42:12Z</time></trkpt><trkpt lat="37.380825004682784" lon="14.369636139790217"><ele>696.75</ele><time>2026-03-29T12:42:13Z</time></trkpt><trkpt lat="37.38069931028748" lon="14.369614119260467"><ele>698.0</ele><time>2026-03-29T12:42:14Z</time></trkpt><trkpt lat="37.380571646727944" lon="14.369588073707588"><ele>698.25</ele><time>2026-03-29T12:42:15Z</time></trkpt><trkpt lat="37.38044627671295" lon="14.369562496069642"><ele>698.5</ele><time>2026-03-29T12:42:16.001Z</time></trkpt><trkpt lat="37.38032837809832" lon="14.369539037443833"><ele>698.75</ele><time>2026-03-29T12:42:17.001Z</time></trkpt><trkpt lat="37.38020900945764" lon="14.369516445427315"><ele>699.0</ele><time>2026-03-29T12:42:18.001Z</time></trkpt><trkpt lat="37.380100034390246" lon="14.369499688001754"><ele>699.0</ele><time>2026-03-29T12:42:19.001Z</time></trkpt><trkpt lat="37.380010058238135" lon="14.369486808450633"><ele>699.0</ele><time>2026-03-29T12:42:20.001Z</time></trkpt><trkpt lat="37.37993349336927" lon="14.369503582327074"><ele>699.0</ele><time>2026-03-29T12:42:21.001Z</time></trkpt><trkpt lat="37.37981048416279" lon="14.369434432231749"><ele>699.0</ele><time>2026-03-29T12:42:23.001Z</time></trkpt><trkpt lat="37.3797365102134" lon="14.369428755209036"><ele>699.0</ele><time>2026-03-29T12:42:24.001Z</time></trkpt><trkpt lat="37.37965758601375" lon="14.369385120849353"><ele>699.2</ele><time>2026-03-29T12:42:25.001Z</time></trkpt><trkpt lat="37.37957917528519" lon="14.369459431920768"><ele>699.4000000000001</ele><time>2026-03-29T12:42:26.001Z</time></trkpt><trkpt lat="37.379488887778294" lon="14.369453190303314"><ele>699.6</ele><time>2026-03-29T12:42:27.001Z</time></trkpt><trkpt lat="37.37939221082732" lon="14.369433205468281"><ele>699.8</ele><time>2026-03-29T12:42:28.001Z</time></trkpt><trkpt lat="37.37929629395959" lon="14.369413953942363"><ele>700.0</ele><time>2026-03-29T12:42:29.001Z</time></trkpt><trkpt lat="37.37920006863721" lon="14.36939863954592"><ele>700.0</ele><time>2026-03-29T12:42:30.001Z</time></trkpt><trkpt lat="37.37911165186769" lon="14.369379179366062"><ele>700.0</ele><time>2026-03-29T12:42:31.001Z</time></trkpt><trkpt lat="37.3790184446788" lon="14.369356687922854"><ele>700.0</ele><time>2026-03-29T12:42:32.001Z</time></trkpt><trkpt lat="37.378918882613924" lon="14.369329934559566"><ele>700.0</ele><time>2026-03-29T12:42:33.001Z</time></trkpt><trkpt lat="37.3788177334929" lon="14.369304161564207"><ele>700.0</ele><time>2026-03-29T12:42:34.001Z</time></trkpt><trkpt lat="37.378717078578035" lon="14.369278777754186"><ele>700.6</ele><time>2026-03-29T12:42:35.001Z</time></trkpt><trkpt lat="37.37861584618251" lon="14.369258572171166"><ele>701.2</ele><time>2026-03-29T12:42:36.001Z</time></trkpt><trkpt lat="37.378514342338605" lon="14.369231049185592"><ele>701.8</ele><time>2026-03-29T12:42:37.001Z</time></trkpt><trkpt lat="37.378412075454904" lon="14.36920192827622"><ele>702.4</ele><time>2026-03-29T12:42:38.001Z</time></trkpt><trkpt lat="37.378309167476075" lon="14.369165535561491"><ele>703.0</ele><time>2026-03-29T12:42:39.001Z</time></trkpt><trkpt lat="37.378206943707944" lon="14.36911962052499"><ele>703.0</ele><time>2026-03-29T12:42:40.001Z</time></trkpt><trkpt lat="37.378105527976324" lon="14.369065526358472"><ele>703.0</ele><time>2026-03-29T12:42:41.001Z</time></trkpt><trkpt lat="37.3780075596052" lon="14.369001124238467"><ele>703.0</ele><time>2026-03-29T12:42:42.001Z</time></trkpt><trkpt lat="37.37790460703781" lon="14.368932517910734"><ele>703.0</ele><time>2026-03-29T12:42:43.001Z</time></trkpt><trkpt lat="37.37780187050322" lon="14.368856254216048"><ele>703.5</ele><time>2026-03-29T12:42:44.001Z</time></trkpt><trkpt lat="37.377704110424794" lon="14.368767714863822"><ele>704.0</ele><time>2026-03-29T12:42:45.001Z</time></trkpt><trkpt lat="37.37761097796917" lon="14.368672542674519"><ele>704.5</ele><time>2026-03-29T12:42:46.001Z</time></trkpt><trkpt lat="37.37752554770038" lon="14.368575823611646"><ele>705.0</ele><time>2026-03-29T12:42:47.001Z</time></trkpt><trkpt lat="37.37745050100421" lon="14.368479603539532"><ele>705.0</ele><time>2026-03-29T12:42:48.001Z</time></trkpt><trkpt lat="37.377375553077286" lon="14.368379836929485"><ele>705.0</ele><time>2026-03-29T12:42:49.001Z</time></trkpt><trkpt lat="37.37729956277044" lon="14.36828064051059"><ele>705.0</ele><time>2026-03-29T12:42:50.001Z</time></trkpt><trkpt lat="37.377229219834874" lon="14.368170928287773"><ele>705.0</ele><time>2026-03-29T12:42:51.001Z</time></trkpt><trkpt lat="37.377167169758316" lon="14.368057440023607"><ele>705.0</ele><time>2026-03-29T12:42:52.001Z</time></trkpt><trkpt lat="37.37710939250008" lon="14.367936423497891"><ele>704.75</ele><time>2026-03-29T12:42:53.001Z</time></trkpt><trkpt lat="37.37705488873983" lon="14.367811030904148"><ele>704.5</ele><time>2026-03-29T12:42:54.001Z</time></trkpt><trkpt lat="37.37700034347402" lon="14.367683165044623"><ele>704.25</ele><time>2026-03-29T12:42:55.001Z</time></trkpt><trkpt lat="37.37694969844996" lon="14.367551818603415"><ele>704.0</ele><time>2026-03-29T12:42:56.001Z</time></trkpt><trkpt lat="37.37690056282489" lon="14.367416024638809"><ele>704.0</ele><time>2026-03-29T12:42:57.001Z</time></trkpt><trkpt lat="37.37685082977093" lon="14.367278610083074"><ele>704.0</ele><time>2026-03-29T12:42:58.001Z</time></trkpt><trkpt lat="37.376800616387015" lon="14.367137188604707"><ele>704.0</ele><time>2026-03-29T12:42:59.001Z</time></trkpt><trkpt lat="37.37675004112012" lon="14.366993087958448"><ele>704.0</ele><time>2026-03-29T12:43:00.001Z</time></trkpt><trkpt lat="37.37669631230162" lon="14.366844880008081"><ele>703.0</ele><time>2026-03-29T12:43:01.001Z</time></trkpt><trkpt lat="37.37664296592038" lon="14.366693980385001"><ele>702.0</ele><time>2026-03-29T12:43:02.001Z</time></trkpt><trkpt lat="37.37658852552612" lon="14.366536337851173"><ele>701.0</ele><time>2026-03-29T12:43:03.001Z</time></trkpt><trkpt lat="37.37653728596254" lon="14.366389226707119"><ele>700.0</ele><time>2026-03-29T12:43:04.001Z</time></trkpt><trkpt lat="37.37648481634728" lon="14.366248894075728"><ele>699.0</ele><time>2026-03-29T12:43:04.999Z</time></trkpt><trkpt lat="37.37643709803666" lon="14.366107205315686"><ele>698.0</ele><time>2026-03-29T12:43:05.999Z</time></trkpt><trkpt lat="37.37638775088531" lon="14.365961860780098"><ele>697.0</ele><time>2026-03-29T12:43:06.999Z</time></trkpt><trkpt lat="37.376337806604255" lon="14.365812872593896"><ele>696.0</ele><time>2026-03-29T12:43:07.999Z</time></trkpt><trkpt lat="37.37628685822167" lon="14.365666561710915"><ele>695.25</ele><time>2026-03-29T12:43:08.999Z</time></trkpt><trkpt lat="37.37623650098288" lon="14.365521180598067"><ele>694.5</ele><time>2026-03-29T12:43:10Z</time></trkpt><trkpt lat="37.3761843813035" lon="14.365377667321562"><ele>693.75</ele><time>2026-03-29T12:43:10.999Z</time></trkpt><trkpt lat="37.37613336377499" lon="14.365233552180452"><ele>693.0</ele><time>2026-03-29T12:43:11.999Z</time></trkpt><trkpt lat="37.37608496757402" lon="14.365087058255568"><ele>693.0</ele><time>2026-03-29T12:43:13Z</time></trkpt><trkpt lat="37.376037190230534" lon="14.364940277613133"><ele>693.0</ele><time>2026-03-29T12:43:14Z</time></trkpt><trkpt lat="37.375987991650554" lon="14.364796168018579"><ele>693.0</ele><time>2026-03-29T12:43:15Z</time></trkpt><trkpt lat="37.37593685737103" lon="14.364653857967728"><ele>693.0</ele><time>2026-03-29T12:43:16Z</time></trkpt><trkpt lat="37.37589302425963" lon="14.364521847086984"><ele>692.2</ele><time>2026-03-29T12:43:17Z</time></trkpt><trkpt lat="37.37585095537756" lon="14.364398074743988"><ele>691.4</ele><time>2026-03-29T12:43:18Z</time></trkpt><trkpt lat="37.375810741066296" lon="14.364281550876798"><ele>690.6</ele><time>2026-03-29T12:43:19Z</time></trkpt><trkpt lat="37.37577013321074" lon="14.364168529679901"><ele>689.8000000000001</ele><time>2026-03-29T12:43:20Z</time></trkpt><trkpt lat="37.37573184097374" lon="14.364059822963553"><ele>689.0</ele><time>2026-03-29T12:43:21Z</time></trkpt><trkpt lat="37.37569308478584" lon="14.363942334254286"><ele>689.25</ele><time>2026-03-29T12:43:22Z</time></trkpt><trkpt lat="37.37565078492653" lon="14.36381958214353"><ele>689.5</ele><time>2026-03-29T12:43:23Z</time></trkpt><trkpt lat="37.37560657917615" lon="14.363690967544464"><ele>689.75</ele><time>2026-03-29T12:43:24Z</time></trkpt><trkpt lat="37.37556015838904" lon="14.363557841646042"><ele>690.0</ele><time>2026-03-29T12:43:25Z</time></trkpt><trkpt lat="37.37551391289873" lon="14.36341901848105"><ele>689.25</ele><time>2026-03-29T12:43:26Z</time></trkpt><trkpt lat="37.37546357099775" lon="14.363278371360787"><ele>688.5</ele><time>2026-03-29T12:43:27Z</time></trkpt><trkpt lat="37.37541414853193" lon="14.36313539121858"><ele>687.75</ele><time>2026-03-29T12:43:28Z</time></trkpt><trkpt lat="37.37536579366418" lon="14.362994944615206"><ele>687.0</ele><time>2026-03-29T12:43:29Z</time></trkpt><trkpt lat="37.37532127929896" lon="14.362861315451688"><ele>684.75</ele><time>2026-03-29T12:43:30Z</time></trkpt><trkpt lat="37.37527595815151" lon="14.362735847952166"><ele>682.5</ele><time>2026-03-29T12:43:31Z</time></trkpt><trkpt lat="37.375232269820636" lon="14.362611566236641"><ele>680.25</ele><time>2026-03-29T12:43:32Z</time></trkpt><trkpt lat="37.37518618898444" lon="14.362482462906591"><ele>678.0</ele><time>2026-03-29T12:43:33Z</time></trkpt><trkpt lat="37.37513463069654" lon="14.36234460061587"><ele>678.0</ele><time>2026-03-29T12:43:34Z</time></trkpt><trkpt lat="37.37508066874892" lon="14.362198338548357"><ele>678.0</ele><time>2026-03-29T12:43:35Z</time></trkpt><trkpt lat="37.37502551934017" lon="14.362050017661778"><ele>678.0</ele><time>2026-03-29T12:43:36Z</time></trkpt><trkpt lat="37.37497319943933" lon="14.361903426172075"><ele>678.0</ele><time>2026-03-29T12:43:37Z</time></trkpt><trkpt lat="37.374923499833" lon="14.361764869564293"><ele>677.5999999999999</ele><time>2026-03-29T12:43:38Z</time></trkpt><trkpt lat="37.37487503913469" lon="14.361633983640434"><ele>677.1999999999999</ele><time>2026-03-29T12:43:39Z</time></trkpt><trkpt lat="37.37482697714123" lon="14.361509430574031"><ele>676.8</ele><time>2026-03-29T12:43:40Z</time></trkpt><trkpt lat="37.37477731733785" lon="14.3613916448953"><ele>676.4</ele><time>2026-03-29T12:43:41Z</time></trkpt><trkpt lat="37.37474499394631" lon="14.361271348528973"><ele>676.0</ele><time>2026-03-29T12:43:42Z</time></trkpt><trkpt lat="37.37470069804061" lon="14.361162992829167"><ele>674.0</ele><time>2026-03-29T12:43:43Z</time></trkpt><trkpt lat="37.37465718876471" lon="14.36106154672793"><ele>672.0</ele><time>2026-03-29T12:43:44Z</time></trkpt><trkpt lat="37.374601947997675" lon="14.360971637190204"><ele>670.0</ele><time>2026-03-29T12:43:45Z</time></trkpt><trkpt lat="37.374564807685125" lon="14.360871153034577"><ele>668.0</ele><time>2026-03-29T12:43:46Z</time></trkpt><trkpt lat="37.37452756782155" lon="14.360756512830553"><ele>666.0</ele><time>2026-03-29T12:43:47Z</time></trkpt><trkpt lat="37.374505310877375" lon="14.360624799039265"><ele>665.5</ele><time>2026-03-29T12:43:48Z</time></trkpt><trkpt lat="37.37449121728919" lon="14.360480454305115"><ele>665.0</ele><time>2026-03-29T12:43:49Z</time></trkpt><trkpt lat="37.37448026431331" lon="14.360327975855206"><ele>664.5</ele><time>2026-03-29T12:43:50Z</time></trkpt><trkpt lat="37.37446602239755" lon="14.36016737511594"><ele>664.0</ele><time>2026-03-29T12:43:51Z</time></trkpt><trkpt lat="37.37445114788434" lon="14.359998975917835"><ele>664.0</ele><time>2026-03-29T12:43:52Z</time></trkpt><trkpt lat="37.37443905444462" lon="14.359822668448325"><ele>664.0</ele><time>2026-03-29T12:43:53Z</time></trkpt><trkpt lat="37.37442563274875" lon="14.359639074957462"><ele>664.0</ele><time>2026-03-29T12:43:54Z</time></trkpt><trkpt lat="37.37439968963543" lon="14.359442493514328"><ele>664.0</ele><time>2026-03-29T12:43:55Z</time></trkpt><trkpt lat="37.374374431047094" lon="14.359244845510178"><ele>662.3333333333334</ele><time>2026-03-29T12:43:56Z</time></trkpt><trkpt lat="37.37435335891357" lon="14.359048451003693"><ele>660.6666666666666</ele><time>2026-03-29T12:43:57Z</time></trkpt><trkpt lat="37.37433582428395" lon="14.358849256463477"><ele>659.0</ele><time>2026-03-29T12:43:58Z</time></trkpt><trkpt lat="37.37431912732257" lon="14.358644484497034"><ele>658.0</ele><time>2026-03-29T12:43:59Z</time></trkpt><trkpt lat="37.37429415628429" lon="14.358443816807315"><ele>657.0</ele><time>2026-03-29T12:44:00Z</time></trkpt><trkpt lat="37.37424846662977" lon="14.358246001082662"><ele>656.0</ele><time>2026-03-29T12:44:01Z</time></trkpt><trkpt lat="37.37417920179009" lon="14.358065195535586"><ele>656.0</ele><time>2026-03-29T12:44:02Z</time></trkpt><trkpt lat="37.37408596989457" lon="14.357886412761545"><ele>656.0</ele><time>2026-03-29T12:44:03Z</time></trkpt><trkpt lat="37.373968715832284" lon="14.357711546276766"><ele>656.0</ele><time>2026-03-29T12:44:04Z</time></trkpt><trkpt lat="37.37383503751388" lon="14.357548676992826"><ele>656.6666666666666</ele><time>2026-03-29T12:44:05.001Z</time></trkpt><trkpt lat="37.37369972179799" lon="14.357377027902638"><ele>657.3333333333334</ele><time>2026-03-29T12:44:06.001Z</time></trkpt><trkpt lat="37.37356383735277" lon="14.357193392312068"><ele>658.0</ele><time>2026-03-29T12:44:07.001Z</time></trkpt><trkpt lat="37.37342963104364" lon="14.357005239527869"><ele>658.0</ele><time>2026-03-29T12:44:08.001Z</time></trkpt><trkpt lat="37.3733024683492" lon="14.356824187166858"><ele>658.0</ele><time>2026-03-29T12:44:09.001Z</time></trkpt><trkpt lat="37.373073341254674" lon="14.356495336965335"><ele>658.3333333333334</ele><time>2026-03-29T12:44:11.001Z</time></trkpt><trkpt lat="37.37296145348868" lon="14.356334469456073"><ele>658.6666666666666</ele><time>2026-03-29T12:44:12.001Z</time></trkpt><trkpt lat="37.372850030389024" lon="14.356177755061132"><ele>659.0</ele><time>2026-03-29T12:44:13.001Z</time></trkpt><trkpt lat="37.372743882860725" lon="14.356033403146249"><ele>659.0</ele><time>2026-03-29T12:44:14.001Z</time></trkpt><trkpt lat="37.37263875307995" lon="14.355907266487332"><ele>659.0</ele><time>2026-03-29T12:44:15.001Z</time></trkpt><trkpt lat="37.37252427781589" lon="14.355818083935603"><ele>659.0</ele><time>2026-03-29T12:44:16.001Z</time></trkpt><trkpt lat="37.37239198551866" lon="14.355771935523856"><ele>659.0</ele><time>2026-03-29T12:44:17.001Z</time></trkpt><trkpt lat="37.372249732884" lon="14.355772402691269"><ele>660.75</ele><time>2026-03-29T12:44:18.001Z</time></trkpt><trkpt lat="37.37211393835419" lon="14.355824554563963"><ele>662.5</ele><time>2026-03-29T12:44:19.001Z</time></trkpt><trkpt lat="37.37200101329653" lon="14.355928720603746"><ele>664.25</ele><time>2026-03-29T12:44:20.001Z</time></trkpt><trkpt lat="37.3719176177684" lon="14.356069184138116"><ele>666.0</ele><time>2026-03-29T12:44:21.001Z</time></trkpt><trkpt lat="37.37188467990493" lon="14.356240083726775"><ele>663.5</ele><time>2026-03-29T12:44:22.001Z</time></trkpt><trkpt lat="37.37183950898374" lon="14.356407432827973"><ele>661.0</ele><time>2026-03-29T12:44:23.001Z</time></trkpt><trkpt lat="37.37180456110626" lon="14.356571777173395"><ele>658.5</ele><time>2026-03-29T12:44:24.001Z</time></trkpt><trkpt lat="37.37173354152838" lon="14.356692371296397"><ele>656.0</ele><time>2026-03-29T12:44:25.001Z</time></trkpt><trkpt lat="37.371637397094744" lon="14.35676491130609"><ele>656.0</ele><time>2026-03-29T12:44:26.001Z</time></trkpt><trkpt lat="37.37153354830166" lon="14.356803327344313"><ele>656.0</ele><time>2026-03-29T12:44:27.001Z</time></trkpt><trkpt lat="37.371424818645934" lon="14.356803235291993"><ele>656.0</ele><time>2026-03-29T12:44:28.001Z</time></trkpt><trkpt lat="37.371296316440244" lon="14.356762492972674"><ele>656.0</ele><time>2026-03-29T12:44:29.001Z</time></trkpt><trkpt lat="37.37115070823828" lon="14.356702989655021"><ele>654.6666666666666</ele><time>2026-03-29T12:44:30.001Z</time></trkpt><trkpt lat="37.370986408443855" lon="14.356642699416323"><ele>653.3333333333334</ele><time>2026-03-29T12:44:31.001Z</time></trkpt><trkpt lat="37.370793422605196" lon="14.356589835807615"><ele>652.0</ele><time>2026-03-29T12:44:32.001Z</time></trkpt><trkpt lat="37.37059924070781" lon="14.356536976911558"><ele>650.6666666666667</ele><time>2026-03-29T12:44:33.001Z</time></trkpt><trkpt lat="37.370401301655235" lon="14.356481141844226"><ele>649.3333333333334</ele><time>2026-03-29T12:44:34.001Z</time></trkpt><trkpt lat="37.370202430028584" lon="14.356414105845985"><ele>648.0</ele><time>2026-03-29T12:44:35.001Z</time></trkpt><trkpt lat="37.3698090801466" lon="14.356217896491994"><ele>651.0</ele><time>2026-03-29T12:44:37.001Z</time></trkpt><trkpt lat="37.3696190233532" lon="14.356088682545222"><ele>654.0</ele><time>2026-03-29T12:44:38.001Z</time></trkpt><trkpt lat="37.36943606772861" lon="14.35592897435441"><ele>657.0</ele><time>2026-03-29T12:44:39.001Z</time></trkpt><trkpt lat="37.3692633603886" lon="14.355741203385767"><ele>657.0</ele><time>2026-03-29T12:44:40.001Z</time></trkpt><trkpt lat="37.36910635647933" lon="14.355539638263425"><ele>657.0</ele><time>2026-03-29T12:44:41.001Z</time></trkpt><trkpt lat="37.368955880320485" lon="14.355327630786789"><ele>658.0</ele><time>2026-03-29T12:44:42.001Z</time></trkpt><trkpt lat="37.36880176057916" lon="14.355116194085383"><ele>659.0</ele><time>2026-03-29T12:44:43.001Z</time></trkpt><trkpt lat="37.36864458996977" lon="14.354911322506867"><ele>659.0</ele><time>2026-03-29T12:44:44.001Z</time></trkpt><trkpt lat="37.36848260465057" lon="14.354711778158773"><ele>659.0</ele><time>2026-03-29T12:44:45.001Z</time></trkpt><trkpt lat="37.36831534366629" lon="14.3545225602259"><ele>660.0</ele><time>2026-03-29T12:44:46.001Z</time></trkpt><trkpt lat="37.36813507706976" lon="14.354348820980965"><ele>661.0</ele><time>2026-03-29T12:44:47.001Z</time></trkpt><trkpt lat="37.36794911014158" lon="14.354189301113585"><ele>662.0</ele><time>2026-03-29T12:44:48.001Z</time></trkpt><trkpt lat="37.36775468602406" lon="14.354042992953168"><ele>663.0</ele><time>2026-03-29T12:44:49.001Z</time></trkpt><trkpt lat="37.36755439270459" lon="14.353908900277276"><ele>667.0</ele><time>2026-03-29T12:44:50.001Z</time></trkpt><trkpt lat="37.36734913988178" lon="14.353785900995103"><ele>671.0</ele><time>2026-03-29T12:44:51.001Z</time></trkpt><trkpt lat="37.367137576269165" lon="14.353680315847534"><ele>671.0</ele><time>2026-03-29T12:44:52.001Z</time></trkpt><trkpt lat="37.36691969090555" lon="14.353590057524881"><ele>671.0</ele><time>2026-03-29T12:44:53.001Z</time></trkpt><trkpt lat="37.3666960918197" lon="14.353514717260808"><ele>671.0</ele><time>2026-03-29T12:44:54.001Z</time></trkpt><trkpt lat="37.366469895226686" lon="14.353457181358065"><ele>671.0</ele><time>2026-03-29T12:44:55.001Z</time></trkpt><trkpt lat="37.36624214333063" lon="14.35342009776491"><ele>669.5</ele><time>2026-03-29T12:44:56.001Z</time></trkpt><trkpt lat="37.36600938180506" lon="14.353410375552961"><ele>668.0</ele><time>2026-03-29T12:44:57.001Z</time></trkpt><trkpt lat="37.36577546893898" lon="14.353418210295056"><ele>668.0</ele><time>2026-03-29T12:44:58.001Z</time></trkpt><trkpt lat="37.36553932144607" lon="14.353438300506005"><ele>668.0</ele><time>2026-03-29T12:44:59.001Z</time></trkpt><trkpt lat="37.36529997626318" lon="14.353472843580239"><ele>669.5</ele><time>2026-03-29T12:45:00.002Z</time></trkpt><trkpt lat="37.36505973790303" lon="14.353517047922214"><ele>671.0</ele><time>2026-03-29T12:45:01.002Z</time></trkpt><trkpt lat="37.36481877832181" lon="14.353564537075945"><ele>672.0</ele><time>2026-03-29T12:45:02.002Z</time></trkpt><trkpt lat="37.364577476012094" lon="14.353617023554891"><ele>673.0</ele><time>2026-03-29T12:45:03.002Z</time></trkpt><trkpt lat="37.36433676734951" lon="14.353673862766476"><ele>673.0</ele><time>2026-03-29T12:45:04.002Z</time></trkpt><trkpt lat="37.36409413102015" lon="14.353731869549705"><ele>673.0</ele><time>2026-03-29T12:45:05.002Z</time></trkpt><trkpt lat="37.363850171990194" lon="14.353793221178835"><ele>674.5</ele><time>2026-03-29T12:45:06.002Z</time></trkpt><trkpt lat="37.363606061209474" lon="14.353860402052037"><ele>676.0</ele><time>2026-03-29T12:45:07.002Z</time></trkpt><trkpt lat="37.36336531637009" lon="14.353942264096531"><ele>672.0</ele><time>2026-03-29T12:45:08.002Z</time></trkpt><trkpt lat="37.36312992245412" lon="14.354041083660057"><ele>668.0</ele><time>2026-03-29T12:45:09.002Z</time></trkpt><trkpt lat="37.362897947743804" lon="14.3541555205839"><ele>668.0</ele><time>2026-03-29T12:45:10.002Z</time></trkpt><trkpt lat="37.36267127909167" lon="14.354290006451643"><ele>668.0</ele><time>2026-03-29T12:45:11Z</time></trkpt><trkpt lat="37.36244751834881" lon="14.354438516418025"><ele>668.0</ele><time>2026-03-29T12:45:12Z</time></trkpt><trkpt lat="37.36222759163513" lon="14.35459886001938"><ele>668.0</ele><time>2026-03-29T12:45:13Z</time></trkpt><trkpt lat="37.36200730407224" lon="14.354758955227165"><ele>669.0</ele><time>2026-03-29T12:45:14Z</time></trkpt><trkpt lat="37.36178433615922" lon="14.354916257572453"><ele>670.0</ele><time>2026-03-29T12:45:15Z</time></trkpt><trkpt lat="37.36156047770083" lon="14.355071155090416"><ele>668.5</ele><time>2026-03-29T12:45:16Z</time></trkpt><trkpt lat="37.361334168600244" lon="14.355223083943084"><ele>667.0</ele><time>2026-03-29T12:45:17Z</time></trkpt><trkpt lat="37.36110284243232" lon="14.355368294772777"><ele>667.0</ele><time>2026-03-29T12:45:18Z</time></trkpt><trkpt lat="37.36086568000684" lon="14.355497744353546"><ele>667.0</ele><time>2026-03-29T12:45:19Z</time></trkpt><trkpt lat="37.36062146486873" lon="14.355606244448268"><ele>658.5</ele><time>2026-03-29T12:45:20Z</time></trkpt><trkpt lat="37.36036997037408" lon="14.35568862112601"><ele>650.0</ele><time>2026-03-29T12:45:21Z</time></trkpt><trkpt lat="37.3601142639435" lon="14.355753598268684"><ele>650.0</ele><time>2026-03-29T12:45:22Z</time></trkpt><trkpt lat="37.35985700073904" lon="14.355815621827398"><ele>650.0</ele><time>2026-03-29T12:45:23Z</time></trkpt><trkpt lat="37.3596000253689" lon="14.355871595463874"><ele>649.0</ele><time>2026-03-29T12:45:24Z</time></trkpt><trkpt lat="37.35934151496888" lon="14.355925407306398"><ele>648.0</ele><time>2026-03-29T12:45:25Z</time></trkpt><trkpt lat="37.3590827353686" lon="14.355973001121734"><ele>646.0</ele><time>2026-03-29T12:45:26Z</time></trkpt><trkpt lat="37.358824543885284" lon="14.355995803207637"><ele>644.0</ele><time>2026-03-29T12:45:27Z</time></trkpt><trkpt lat="37.3585726811914" lon="14.355986404634562"><ele>644.0</ele><time>2026-03-29T12:45:28Z</time></trkpt><trkpt lat="37.35833428249249" lon="14.355943973455952"><ele>644.0</ele><time>2026-03-29T12:45:29Z</time></trkpt><trkpt lat="37.35809316413429" lon="14.355862860357991"><ele>641.0</ele><time>2026-03-29T12:45:30Z</time></trkpt><trkpt lat="37.35785503243958" lon="14.355751508119232"><ele>638.0</ele><time>2026-03-29T12:45:31Z</time></trkpt><trkpt lat="37.35762487731227" lon="14.355613442673027"><ele>634.5</ele><time>2026-03-29T12:45:32Z</time></trkpt><trkpt lat="37.35741024208873" lon="14.355463259820361"><ele>631.0</ele><time>2026-03-29T12:45:33Z</time></trkpt><trkpt lat="37.35719469041999" lon="14.355291991475266"><ele>626.5</ele><time>2026-03-29T12:45:34Z</time></trkpt><trkpt lat="37.356971237832134" lon="14.355140769117565"><ele>622.0</ele><time>2026-03-29T12:45:35Z</time></trkpt><trkpt lat="37.356758052050864" lon="14.35496603804452"><ele>622.0</ele><time>2026-03-29T12:45:36Z</time></trkpt><trkpt lat="37.356540106333064" lon="14.354794668137904"><ele>622.0</ele><time>2026-03-29T12:45:37Z</time></trkpt><trkpt lat="37.3563199316072" lon="14.35462581588957"><ele>616.0</ele><time>2026-03-29T12:45:38Z</time></trkpt><trkpt lat="37.35609836385344" lon="14.354458691043023"><ele>610.0</ele><time>2026-03-29T12:45:39Z</time></trkpt><trkpt lat="37.35587839020911" lon="14.354290871613793"><ele>610.0</ele><time>2026-03-29T12:45:40Z</time></trkpt><trkpt lat="37.355659486352806" lon="14.354120614699962"><ele>610.0</ele><time>2026-03-29T12:45:41Z</time></trkpt><trkpt lat="37.35543961000314" lon="14.3539550257312"><ele>611.5</ele><time>2026-03-29T12:45:42Z</time></trkpt><trkpt lat="37.35521460599101" lon="14.353796421525326"><ele>613.0</ele><time>2026-03-29T12:45:43Z</time></trkpt><trkpt lat="37.35498422003899" lon="14.353654507816644"><ele>613.0</ele><time>2026-03-29T12:45:44Z</time></trkpt><trkpt lat="37.35474243599584" lon="14.353547852291406"><ele>613.0</ele><time>2026-03-29T12:45:45Z</time></trkpt><trkpt lat="37.35449605353027" lon="14.353468237172432"><ele>610.0</ele><time>2026-03-29T12:45:46Z</time></trkpt><trkpt lat="37.35424144762533" lon="14.35341956938722"><ele>607.0</ele><time>2026-03-29T12:45:47Z</time></trkpt><trkpt lat="37.35398067795677" lon="14.353396467049551"><ele>601.0</ele><time>2026-03-29T12:45:48Z</time></trkpt><trkpt lat="37.35371746099347" lon="14.353404414018529"><ele>595.0</ele><time>2026-03-29T12:45:49Z</time></trkpt><trkpt lat="37.353455059386306" lon="14.353440485191289"><ele>595.0</ele><time>2026-03-29T12:45:50Z</time></trkpt><trkpt lat="37.353193300947616" lon="14.353500712875581"><ele>595.0</ele><time>2026-03-29T12:45:51Z</time></trkpt><trkpt lat="37.352929510062914" lon="14.353572942240403"><ele>587.0</ele><time>2026-03-29T12:45:52Z</time></trkpt><trkpt lat="37.35266540462008" lon="14.353648412330221"><ele>579.0</ele><time>2026-03-29T12:45:53Z</time></trkpt><trkpt lat="37.35240057519268" lon="14.353720262581602"><ele>573.5</ele><time>2026-03-29T12:45:54Z</time></trkpt><trkpt lat="37.35213538406135" lon="14.353783143298969"><ele>568.0</ele><time>2026-03-29T12:45:55Z</time></trkpt><trkpt lat="37.351870492983636" lon="14.353822931582418"><ele>568.0</ele><time>2026-03-29T12:45:56Z</time></trkpt><trkpt lat="37.351603287312" lon="14.3538341028364"><ele>568.0</ele><time>2026-03-29T12:45:57Z</time></trkpt><trkpt lat="37.35133813740039" lon="14.35381358788505"><ele>564.0</ele><time>2026-03-29T12:45:58.001Z</time></trkpt><trkpt lat="37.35108039559199" lon="14.35375765037525"><ele>560.0</ele><time>2026-03-29T12:45:59.001Z</time></trkpt><trkpt lat="37.350832185076335" lon="14.35366951564617"><ele>560.0</ele><time>2026-03-29T12:46:00.001Z</time></trkpt><trkpt lat="37.35059277280379" lon="14.35355168023241"><ele>560.0</ele><time>2026-03-29T12:46:01.001Z</time></trkpt><trkpt lat="37.350364939040155" lon="14.353409124183774"><ele>561.0</ele><time>2026-03-29T12:46:02.001Z</time></trkpt><trkpt lat="37.350146481553516" lon="14.35324224033308"><ele>562.0</ele><time>2026-03-29T12:46:03.001Z</time></trkpt><trkpt lat="37.34993340590722" lon="14.353056107641473"><ele>559.0</ele><time>2026-03-29T12:46:04.001Z</time></trkpt><trkpt lat="37.349722009219086" lon="14.35286327009461"><ele>556.0</ele><time>2026-03-29T12:46:05.001Z</time></trkpt><trkpt lat="37.34950812001151" lon="14.352669742546952"><ele>564.5</ele><time>2026-03-29T12:46:06.001Z</time></trkpt><trkpt lat="37.349292979730066" lon="14.35247791947455"><ele>573.0</ele><time>2026-03-29T12:46:07.001Z</time></trkpt><trkpt lat="37.34907694411984" lon="14.352285920593722"><ele>577.0</ele><time>2026-03-29T12:46:08.001Z</time></trkpt><trkpt lat="37.3488605452048" lon="14.35209563992682"><ele>581.0</ele><time>2026-03-29T12:46:09.001Z</time></trkpt><trkpt lat="37.34864393912539" lon="14.35190377694655"><ele>581.0</ele><time>2026-03-29T12:46:10.001Z</time></trkpt><trkpt lat="37.348427525112236" lon="14.351712030990134"><ele>581.0</ele><time>2026-03-29T12:46:11.001Z</time></trkpt><trkpt lat="37.34821251098182" lon="14.351519536349842"><ele>580.0</ele><time>2026-03-29T12:46:12.001Z</time></trkpt><trkpt lat="37.347996261573016" lon="14.35132795100286"><ele>579.0</ele><time>2026-03-29T12:46:13.001Z</time></trkpt><trkpt lat="37.34778156078754" lon="14.351137707076143"><ele>579.0</ele><time>2026-03-29T12:46:14.001Z</time></trkpt><trkpt lat="37.347565959205134" lon="14.35095109654614"><ele>579.0</ele><time>2026-03-29T12:46:15.001Z</time></trkpt><trkpt lat="37.34734646971392" lon="14.350776772832846"><ele>579.0</ele><time>2026-03-29T12:46:16.001Z</time></trkpt><trkpt lat="37.347120903455064" lon="14.350627094489353"><ele>579.0</ele><time>2026-03-29T12:46:17.001Z</time></trkpt><trkpt lat="37.34688831858631" lon="14.350510037249604"><ele>579.0</ele><time>2026-03-29T12:46:18.001Z</time></trkpt><trkpt lat="37.34665140490134" lon="14.350419513713693"><ele>579.0</ele><time>2026-03-29T12:46:19.001Z</time></trkpt><trkpt lat="37.346409983095356" lon="14.350358949243232"><ele>581.0</ele><time>2026-03-29T12:46:20.001Z</time></trkpt><trkpt lat="37.34616686574151" lon="14.350325137643981"><ele>583.0</ele><time>2026-03-29T12:46:21.001Z</time></trkpt><trkpt lat="37.34592479280079" lon="14.350314298702473"><ele>583.0</ele><time>2026-03-29T12:46:22.001Z</time></trkpt><trkpt lat="37.34568211136673" lon="14.350327846402802"><ele>583.0</ele><time>2026-03-29T12:46:23.001Z</time></trkpt><trkpt lat="37.3454413227646" lon="14.350364169325218"><ele>583.0</ele><time>2026-03-29T12:46:24.001Z</time></trkpt><trkpt lat="37.345204170892146" lon="14.350434350230586"><ele>583.0</ele><time>2026-03-29T12:46:25.001Z</time></trkpt><trkpt lat="37.34497343550361" lon="14.350543140663655"><ele>583.0</ele><time>2026-03-29T12:46:26.001Z</time></trkpt><trkpt lat="37.34474800581037" lon="14.350677941238413"><ele>583.0</ele><time>2026-03-29T12:46:27.001Z</time></trkpt><trkpt lat="37.34452910282149" lon="14.350839067187254"><ele>588.0</ele><time>2026-03-29T12:46:28.001Z</time></trkpt><trkpt lat="37.34431990389442" lon="14.351023052264223"><ele>593.0</ele><time>2026-03-29T12:46:29.001Z</time></trkpt><trkpt lat="37.344125573799936" lon="14.351228779100552"><ele>591.0</ele><time>2026-03-29T12:46:30.001Z</time></trkpt><trkpt lat="37.3439478372747" lon="14.351460529721638"><ele>589.0</ele><time>2026-03-29T12:46:31.001Z</time></trkpt><trkpt lat="37.34377482275886" lon="14.3517072354517"><ele>592.5</ele><time>2026-03-29T12:46:32.001Z</time></trkpt><trkpt lat="37.34361046033223" lon="14.351970915523824"><ele>596.0</ele><time>2026-03-29T12:46:33.001Z</time></trkpt><trkpt lat="37.34345217382535" lon="14.352247427585333"><ele>596.0</ele><time>2026-03-29T12:46:34.001Z</time></trkpt><trkpt lat="37.34328747305228" lon="14.35252750278681"><ele>596.0</ele><time>2026-03-29T12:46:35.001Z</time></trkpt><trkpt lat="37.34312011357367" lon="14.352807561701752"><ele>598.0</ele><time>2026-03-29T12:46:36.001Z</time></trkpt><trkpt lat="37.34295331349934" lon="14.353091789557345"><ele>600.0</ele><time>2026-03-29T12:46:37.001Z</time></trkpt><trkpt lat="37.34278551341637" lon="14.353376321507586"><ele>600.0</ele><time>2026-03-29T12:46:38.001Z</time></trkpt><trkpt lat="37.34261878250644" lon="14.353662515509878"><ele>600.0</ele><time>2026-03-29T12:46:39.001Z</time></trkpt><trkpt lat="37.34245091488785" lon="14.353951161851688"><ele>599.0</ele><time>2026-03-29T12:46:40.001Z</time></trkpt><trkpt lat="37.342282349520524" lon="14.354239995827632"><ele>598.0</ele><time>2026-03-29T12:46:41.001Z</time></trkpt><trkpt lat="37.34211882691439" lon="14.354529062432679"><ele>602.0</ele><time>2026-03-29T12:46:42.001Z</time></trkpt><trkpt lat="37.34195888870633" lon="14.354823691404537"><ele>606.0</ele><time>2026-03-29T12:46:43.001Z</time></trkpt><trkpt lat="37.34180710386545" lon="14.355121979241611"><ele>606.0</ele><time>2026-03-29T12:46:44.001Z</time></trkpt><trkpt lat="37.34166573782672" lon="14.355427422725894"><ele>606.0</ele><time>2026-03-29T12:46:45.001Z</time></trkpt><trkpt lat="37.341533861469195" lon="14.35573947076711"><ele>606.0</ele><time>2026-03-29T12:46:46.001Z</time></trkpt><trkpt lat="37.341411173085035" lon="14.356060745470531"><ele>606.0</ele><time>2026-03-29T12:46:47.001Z</time></trkpt><trkpt lat="37.34129470167368" lon="14.356385898827424"><ele>606.0</ele><time>2026-03-29T12:46:48.001Z</time></trkpt><trkpt lat="37.34117463342014" lon="14.35671077746029"><ele>606.0</ele><time>2026-03-29T12:46:49.001Z</time></trkpt><trkpt lat="37.34104854955789" lon="14.357029907799092"><ele>606.0</ele><time>2026-03-29T12:46:50.001Z</time></trkpt><trkpt lat="37.3409125017012" lon="14.357337813473661"><ele>606.0</ele><time>2026-03-29T12:46:51.001Z</time></trkpt><trkpt lat="37.34076240966873" lon="14.357632996164831"><ele>606.0</ele><time>2026-03-29T12:46:52.001Z</time></trkpt><trkpt lat="37.34060053152285" lon="14.357914036935766"><ele>606.0</ele><time>2026-03-29T12:46:53.002Z</time></trkpt><trkpt lat="37.340425925978074" lon="14.358185258834784"><ele>606.5</ele><time>2026-03-29T12:46:54.002Z</time></trkpt><trkpt lat="37.34024683145941" lon="14.358449501490878"><ele>607.0</ele><time>2026-03-29T12:46:55.002Z</time></trkpt><trkpt lat="37.34006855192704" lon="14.358712846237824"><ele>608.0</ele><time>2026-03-29T12:46:56.002Z</time></trkpt><trkpt lat="37.33988848694504" lon="14.358972031563656"><ele>609.0</ele><time>2026-03-29T12:46:57.002Z</time></trkpt><trkpt lat="37.33970573712244" lon="14.359231166388915"><ele>609.0</ele><time>2026-03-29T12:46:58.002Z</time></trkpt><trkpt lat="37.33952307494225" lon="14.359493769834081"><ele>609.0</ele><time>2026-03-29T12:46:59.002Z</time></trkpt><trkpt lat="37.33934606009216" lon="14.359757201936883"><ele>611.5</ele><time>2026-03-29T12:47:00.002Z</time></trkpt><trkpt lat="37.33916383806242" lon="14.36002429883667"><ele>614.0</ele><time>2026-03-29T12:47:01.002Z</time></trkpt><trkpt lat="37.33898307454228" lon="14.360291810273043"><ele>616.0</ele><time>2026-03-29T12:47:02.002Z</time></trkpt><trkpt lat="37.338801659416845" lon="14.3605586717821"><ele>618.0</ele><time>2026-03-29T12:47:03.002Z</time></trkpt><trkpt lat="37.33862365561566" lon="14.360821156965214"><ele>618.0</ele><time>2026-03-29T12:47:04.002Z</time></trkpt><trkpt lat="37.33844692974263" lon="14.361081715503698"><ele>618.0</ele><time>2026-03-29T12:47:05.002Z</time></trkpt><trkpt lat="37.338272673815396" lon="14.361340965283725"><ele>617.0</ele><time>2026-03-29T12:47:06.002Z</time></trkpt><trkpt lat="37.33809578066826" lon="14.361599927790095"><ele>616.0</ele><time>2026-03-29T12:47:07.002Z</time></trkpt><trkpt lat="37.33792225331599" lon="14.361857597228711"><ele>617.0</ele><time>2026-03-29T12:47:08.002Z</time></trkpt><trkpt lat="37.337744045749645" lon="14.362114245115132"><ele>618.0</ele><time>2026-03-29T12:47:09.002Z</time></trkpt><trkpt lat="37.33756707387286" lon="14.362368845372787"><ele>618.0</ele><time>2026-03-29T12:47:10.002Z</time></trkpt><trkpt lat="37.33738796861231" lon="14.362621393106531"><ele>618.0</ele><time>2026-03-29T12:47:11.002Z</time></trkpt><trkpt lat="37.337214357373476" lon="14.362877075672094"><ele>618.5</ele><time>2026-03-29T12:47:12.002Z</time></trkpt><trkpt lat="37.337039687641685" lon="14.363135440594576"><ele>619.0</ele><time>2026-03-29T12:47:13.002Z</time></trkpt><trkpt lat="37.33686673900651" lon="14.363392053392865"><ele>619.0</ele><time>2026-03-29T12:47:14.002Z</time></trkpt><trkpt lat="37.336691611156915" lon="14.363644758273768"><ele>619.0</ele><time>2026-03-29T12:47:15.002Z</time></trkpt><trkpt lat="37.336516300698996" lon="14.363895376153662"><ele>620.5</ele><time>2026-03-29T12:47:16.002Z</time></trkpt><trkpt lat="37.33633888679779" lon="14.36414172344455"><ele>622.0</ele><time>2026-03-29T12:47:17Z</time></trkpt><trkpt lat="37.33615086148503" lon="14.364376327327212"><ele>622.0</ele><time>2026-03-29T12:47:18Z</time></trkpt><trkpt lat="37.3359516344456" lon="14.364594852234072"><ele>622.0</ele><time>2026-03-29T12:47:19Z</time></trkpt><trkpt lat="37.33573945654668" lon="14.364796900710006"><ele>621.0</ele><time>2026-03-29T12:47:20Z</time></trkpt><trkpt lat="37.33544460845049" lon="14.36481978200096"><ele>620.0</ele><time>2026-03-29T12:47:21Z</time></trkpt><trkpt lat="37.33521912308773" lon="14.364957519816265"><ele>620.0</ele><time>2026-03-29T12:47:22Z</time></trkpt><trkpt lat="37.33497399593814" lon="14.365089476136507"><ele>620.0</ele><time>2026-03-29T12:47:23Z</time></trkpt><trkpt lat="37.33472613656711" lon="14.365222903258363"><ele>618.0</ele><time>2026-03-29T12:47:24Z</time></trkpt><trkpt lat="37.33448375511923" lon="14.365366386211958"><ele>616.0</ele><time>2026-03-29T12:47:25Z</time></trkpt><trkpt lat="37.334317740255926" lon="14.365724188460279"><ele>616.0</ele><time>2026-03-29T12:47:26Z</time></trkpt><trkpt lat="37.3340789984478" lon="14.3658756983177"><ele>616.0</ele><time>2026-03-29T12:47:27Z</time></trkpt><trkpt lat="37.33384434143906" lon="14.366025736284174"><ele>613.5</ele><time>2026-03-29T12:47:28Z</time></trkpt><trkpt lat="37.333609160171804" lon="14.366175510487581"><ele>611.0</ele><time>2026-03-29T12:47:29Z</time></trkpt><trkpt lat="37.33337327876331" lon="14.366326368712594"><ele>612.5</ele><time>2026-03-29T12:47:30Z</time></trkpt><trkpt lat="37.3331378804612" lon="14.366473314760885"><ele>614.0</ele><time>2026-03-29T12:47:31Z</time></trkpt><trkpt lat="37.332901047570545" lon="14.366621632661635"><ele>614.0</ele><time>2026-03-29T12:47:32Z</time></trkpt><trkpt lat="37.33266336938155" lon="14.366771875022005"><ele>614.0</ele><time>2026-03-29T12:47:33Z</time></trkpt><trkpt lat="37.33243009884962" lon="14.366920416930853"><ele>613.0</ele><time>2026-03-29T12:47:34Z</time></trkpt><trkpt lat="37.33220208443227" lon="14.367069419042613"><ele>612.0</ele><time>2026-03-29T12:47:35Z</time></trkpt><trkpt lat="37.33197090479748" lon="14.36721871968566"><ele>612.0</ele><time>2026-03-29T12:47:36Z</time></trkpt><trkpt lat="37.3317411134614" lon="14.367371079907349"><ele>612.0</ele><time>2026-03-29T12:47:37Z</time></trkpt><trkpt lat="37.33151610936562" lon="14.367531736180498"><ele>609.0</ele><time>2026-03-29T12:47:38Z</time></trkpt><trkpt lat="37.33129299314929" lon="14.367703128787257"><ele>606.0</ele><time>2026-03-29T12:47:39Z</time></trkpt><trkpt lat="37.331076108643074" lon="14.367880447506703"><ele>608.0</ele><time>2026-03-29T12:47:40Z</time></trkpt><trkpt lat="37.330860469030554" lon="14.368062097778633"><ele>610.0</ele><time>2026-03-29T12:47:41Z</time></trkpt><trkpt lat="37.33064460152326" lon="14.36824330371865"><ele>608.5</ele><time>2026-03-29T12:47:42.001Z</time></trkpt><trkpt lat="37.3304288414137" lon="14.368422967525966"><ele>607.0</ele><time>2026-03-29T12:47:43.001Z</time></trkpt><trkpt lat="37.330213493724926" lon="14.368598342366408"><ele>607.0</ele><time>2026-03-29T12:47:44.001Z</time></trkpt><trkpt lat="37.32999915939995" lon="14.368774104618684"><ele>607.0</ele><time>2026-03-29T12:47:45.001Z</time></trkpt><trkpt lat="37.329783641965676" lon="14.368951617294746"><ele>608.0</ele><time>2026-03-29T12:47:46.001Z</time></trkpt><trkpt lat="37.32956728235533" lon="14.369130383748214"><ele>609.0</ele><time>2026-03-29T12:47:47.001Z</time></trkpt><trkpt lat="37.32935435891352" lon="14.369311447142506"><ele>609.0</ele><time>2026-03-29T12:47:48.001Z</time></trkpt><trkpt lat="37.3291378716225" lon="14.369493119549347"><ele>609.0</ele><time>2026-03-29T12:47:49.001Z</time></trkpt><trkpt lat="37.32891946540975" lon="14.369672289946928"><ele>607.5</ele><time>2026-03-29T12:47:50.001Z</time></trkpt><trkpt lat="37.32869986018278" lon="14.36984828644296"><ele>606.0</ele><time>2026-03-29T12:47:51.001Z</time></trkpt><trkpt lat="37.32847479585372" lon="14.370017923637244"><ele>606.0</ele><time>2026-03-29T12:47:52.001Z</time></trkpt><trkpt lat="37.32824763493213" lon="14.370177765083767"><ele>606.0</ele><time>2026-03-29T12:47:53.001Z</time></trkpt><trkpt lat="37.32800984439882" lon="14.37032561501992"><ele>609.5</ele><time>2026-03-29T12:47:54.001Z</time></trkpt><trkpt lat="37.32776687460044" lon="14.37045252757127"><ele>613.0</ele><time>2026-03-29T12:47:55.001Z</time></trkpt><trkpt lat="37.32752044394264" lon="14.370558403647959"><ele>609.0</ele><time>2026-03-29T12:47:56.001Z</time></trkpt><trkpt lat="37.32727307744881" lon="14.37064745034394"><ele>605.0</ele><time>2026-03-29T12:47:57.001Z</time></trkpt><trkpt lat="37.32702607911608" lon="14.370716730948004"><ele>605.0</ele><time>2026-03-29T12:47:58.001Z</time></trkpt><trkpt lat="37.32677939929421" lon="14.370765448974256"><ele>605.0</ele><time>2026-03-29T12:47:59.001Z</time></trkpt><trkpt lat="37.326532460239825" lon="14.370785067824647"><ele>604.5</ele><time>2026-03-29T12:48:00.001Z</time></trkpt><trkpt lat="37.3262835480241" lon="14.37077499566077"><ele>604.0</ele><time>2026-03-29T12:48:01.001Z</time></trkpt><trkpt lat="37.32603498600239" lon="14.370743106116974"><ele>604.0</ele><time>2026-03-29T12:48:02.001Z</time></trkpt><trkpt lat="37.325784142372825" lon="14.370689657125235"><ele>604.0</ele><time>2026-03-29T12:48:03.001Z</time></trkpt><trkpt lat="37.325533160584406" lon="14.37062641250594"><ele>601.5</ele><time>2026-03-29T12:48:04.001Z</time></trkpt><trkpt lat="37.32528000494343" lon="14.370546423678855"><ele>599.0</ele><time>2026-03-29T12:48:05.001Z</time></trkpt><trkpt lat="37.32502875037216" lon="14.370457675986524"><ele>596.0</ele><time>2026-03-29T12:48:06.001Z</time></trkpt><trkpt lat="37.32477833045826" lon="14.37035358285014"><ele>593.0</ele><time>2026-03-29T12:48:07.001Z</time></trkpt><trkpt lat="37.32452946749556" lon="14.370243610085577"><ele>590.5</ele><time>2026-03-29T12:48:08.001Z</time></trkpt><trkpt lat="37.32427940257526" lon="14.370130727272041"><ele>588.0</ele><time>2026-03-29T12:48:09.001Z</time></trkpt><trkpt lat="37.32403094604382" lon="14.37001735099953"><ele>586.0</ele><time>2026-03-29T12:48:10.001Z</time></trkpt><trkpt lat="37.3237809584284" lon="14.369899697727591"><ele>584.0</ele><time>2026-03-29T12:48:11.001Z</time></trkpt><trkpt lat="37.32352794508904" lon="14.369776488606691"><ele>580.5</ele><time>2026-03-29T12:48:12.001Z</time></trkpt><trkpt lat="37.32327294493124" lon="14.369656352976058"><ele>577.0</ele><time>2026-03-29T12:48:13.001Z</time></trkpt><trkpt lat="37.32301659001933" lon="14.369534015532349"><ele>575.0</ele><time>2026-03-29T12:48:14.001Z</time></trkpt><trkpt lat="37.322759861603316" lon="14.36941302168516"><ele>573.0</ele><time>2026-03-29T12:48:15.001Z</time></trkpt><trkpt lat="37.3225036567737" lon="14.36929040393795"><ele>573.0</ele><time>2026-03-29T12:48:16.001Z</time></trkpt><trkpt lat="37.32224544261607" lon="14.369168060782705"><ele>573.0</ele><time>2026-03-29T12:48:17.001Z</time></trkpt><trkpt lat="37.321986907044185" lon="14.369039649747537"><ele>572.0</ele><time>2026-03-29T12:48:18.001Z</time></trkpt><trkpt lat="37.321730245634804" lon="14.368915193605917"><ele>571.0</ele><time>2026-03-29T12:48:19.001Z</time></trkpt><trkpt lat="37.321473969095976" lon="14.368795052973347"><ele>567.0</ele><time>2026-03-29T12:48:20.001Z</time></trkpt><trkpt lat="37.321214349548725" lon="14.368670149435902"><ele>563.0</ele><time>2026-03-29T12:48:21.001Z</time></trkpt><trkpt lat="37.32095645434403" lon="14.36854728976192"><ele>563.0</ele><time>2026-03-29T12:48:22.001Z</time></trkpt><trkpt lat="37.320696674917194" lon="14.368424552072014"><ele>563.0</ele><time>2026-03-29T12:48:23.001Z</time></trkpt><trkpt lat="37.32043901405072" lon="14.368303653507262"><ele>563.0</ele><time>2026-03-29T12:48:24.001Z</time></trkpt><trkpt lat="37.32018040738767" lon="14.368187709019804"><ele>563.0</ele><time>2026-03-29T12:48:25.001Z</time></trkpt><trkpt lat="37.31992170633077" lon="14.368072171986793"><ele>558.5</ele><time>2026-03-29T12:48:26.001Z</time></trkpt><trkpt lat="37.31966394893751" lon="14.367966240970363"><ele>554.0</ele><time>2026-03-29T12:48:27.001Z</time></trkpt><trkpt lat="37.31941124404429" lon="14.367871834547925"><ele>554.0</ele><time>2026-03-29T12:48:28.001Z</time></trkpt><trkpt lat="37.31915849628689" lon="14.367790657287504"><ele>554.0</ele><time>2026-03-29T12:48:29.001Z</time></trkpt><trkpt lat="37.31890600558407" lon="14.36773309053864"><ele>551.0</ele><time>2026-03-29T12:48:30.001Z</time></trkpt><trkpt lat="37.31865207024892" lon="14.367698047198983"><ele>548.0</ele><time>2026-03-29T12:48:31.001Z</time></trkpt><trkpt lat="37.31839686251757" lon="14.367687563499462"><ele>548.0</ele><time>2026-03-29T12:48:32.001Z</time></trkpt><trkpt lat="37.318138243634834" lon="14.36770805698722"><ele>548.0</ele><time>2026-03-29T12:48:33.001Z</time></trkpt><trkpt lat="37.317875808382944" lon="14.367774198166316"><ele>544.5</ele><time>2026-03-29T12:48:34.001Z</time></trkpt><trkpt lat="37.31761281457833" lon="14.367840522894944"><ele>541.0</ele><time>2026-03-29T12:48:35.001Z</time></trkpt><trkpt lat="37.317350838649354" lon="14.367919454564742"><ele>541.5</ele><time>2026-03-29T12:48:36.001Z</time></trkpt><trkpt lat="37.31708969485779" lon="14.368007908542436"><ele>542.0</ele><time>2026-03-29T12:48:37.001Z</time></trkpt><trkpt lat="37.316830281219985" lon="14.368104448690929"><ele>542.0</ele><time>2026-03-29T12:48:38.001Z</time></trkpt><trkpt lat="37.316571517772296" lon="14.368202772241519"><ele>542.0</ele><time>2026-03-29T12:48:39.001Z</time></trkpt><trkpt lat="37.31631190295687" lon="14.368304496533648"><ele>540.0</ele><time>2026-03-29T12:48:40.001Z</time></trkpt><trkpt lat="37.316051247755425" lon="14.368404087917861"><ele>538.0</ele><time>2026-03-29T12:48:41.001Z</time></trkpt><trkpt lat="37.31578946058056" lon="14.36850110499535"><ele>535.5</ele><time>2026-03-29T12:48:42.001Z</time></trkpt><trkpt lat="37.315527688262804" lon="14.368598553398424"><ele>533.0</ele><time>2026-03-29T12:48:43.001Z</time></trkpt><trkpt lat="37.3152682925321" lon="14.368696456776782"><ele>533.0</ele><time>2026-03-29T12:48:44.001Z</time></trkpt><trkpt lat="37.31500553711059" lon="14.368796322503483"><ele>533.0</ele><time>2026-03-29T12:48:45.001Z</time></trkpt><trkpt lat="37.31474416129651" lon="14.3688974003768"><ele>532.0</ele><time>2026-03-29T12:48:46.002Z</time></trkpt><trkpt lat="37.31447955036597" lon="14.369001594719563"><ele>531.0</ele><time>2026-03-29T12:48:47.002Z</time></trkpt><trkpt lat="37.314213281983676" lon="14.369107581238687"><ele>531.0</ele><time>2026-03-29T12:48:48.002Z</time></trkpt><trkpt lat="37.313944316586145" lon="14.369211206123804"><ele>531.0</ele><time>2026-03-29T12:48:49.002Z</time></trkpt><trkpt lat="37.313677421976585" lon="14.369312504692148"><ele>529.0</ele><time>2026-03-29T12:48:50.002Z</time></trkpt><trkpt lat="37.313409699059875" lon="14.369413087314545"><ele>527.0</ele><time>2026-03-29T12:48:51.002Z</time></trkpt><trkpt lat="37.31314480919838" lon="14.369514904663717"><ele>526.0</ele><time>2026-03-29T12:48:52.002Z</time></trkpt><trkpt lat="37.312881275721395" lon="14.369622071173747"><ele>525.0</ele><time>2026-03-29T12:48:53.002Z</time></trkpt><trkpt lat="37.31261663431305" lon="14.3697260378855"><ele>525.0</ele><time>2026-03-29T12:48:54.002Z</time></trkpt><trkpt lat="37.31235512681134" lon="14.369827500259984"><ele>525.0</ele><time>2026-03-29T12:48:55.002Z</time></trkpt><trkpt lat="37.312095737523435" lon="14.369928041243131"><ele>522.5</ele><time>2026-03-29T12:48:56.002Z</time></trkpt><trkpt lat="37.311838738079224" lon="14.370037643870218"><ele>520.0</ele><time>2026-03-29T12:48:57.002Z</time></trkpt><trkpt lat="37.31159488359945" lon="14.370166688986568"><ele>516.0</ele><time>2026-03-29T12:48:58.002Z</time></trkpt><trkpt lat="37.311352890187074" lon="14.370308578462922"><ele>512.0</ele><time>2026-03-29T12:48:59.002Z</time></trkpt><trkpt lat="37.311116660262016" lon="14.370457346984715"><ele>512.5</ele><time>2026-03-29T12:49:00.002Z</time></trkpt><trkpt lat="37.3108948724609" lon="14.370640368288285"><ele>513.0</ele><time>2026-03-29T12:49:01.002Z</time></trkpt><trkpt lat="37.31067830189918" lon="14.370831097421803"><ele>512.5</ele><time>2026-03-29T12:49:02.002Z</time></trkpt><trkpt lat="37.31045957472365" lon="14.37102215773118"><ele>512.0</ele><time>2026-03-29T12:49:03.002Z</time></trkpt><trkpt lat="37.31023976242193" lon="14.371214375753112"><ele>512.0</ele><time>2026-03-29T12:49:04.002Z</time></trkpt><trkpt lat="37.31002178549744" lon="14.371409106821323"><ele>512.0</ele><time>2026-03-29T12:49:05.002Z</time></trkpt><trkpt lat="37.30980460122508" lon="14.371599673377316"><ele>511.0</ele><time>2026-03-29T12:49:06.002Z</time></trkpt><trkpt lat="37.30958566626189" lon="14.37178448538075"><ele>510.0</ele><time>2026-03-29T12:49:07.002Z</time></trkpt><trkpt lat="37.30936484667503" lon="14.371974137071554"><ele>510.0</ele><time>2026-03-29T12:49:08.002Z</time></trkpt><trkpt lat="37.30914334800713" lon="14.372162770751038"><ele>510.0</ele><time>2026-03-29T12:49:09.002Z</time></trkpt><trkpt lat="37.30892281670559" lon="14.372352218395568"><ele>509.5</ele><time>2026-03-29T12:49:10.002Z</time></trkpt><trkpt lat="37.308704898547276" lon="14.372549470937267"><ele>509.0</ele><time>2026-03-29T12:49:11.002Z</time></trkpt><trkpt lat="37.308480751785964" lon="14.372731000406226"><ele>509.0</ele><time>2026-03-29T12:49:12.002Z</time></trkpt><trkpt lat="37.30828311120403" lon="14.372959318256497"><ele>509.0</ele><time>2026-03-29T12:49:13.002Z</time></trkpt><trkpt lat="37.30807959154518" lon="14.373176125449852"><ele>508.0</ele><time>2026-03-29T12:49:14.002Z</time></trkpt><trkpt lat="37.307884192271835" lon="14.373408403787558"><ele>507.0</ele><time>2026-03-29T12:49:15.002Z</time></trkpt><trkpt lat="37.3076898203666" lon="14.373637629128726"><ele>507.0</ele><time>2026-03-29T12:49:16.002Z</time></trkpt><trkpt lat="37.3074912975825" lon="14.373861799637647"><ele>507.0</ele><time>2026-03-29T12:49:17.002Z</time></trkpt><trkpt lat="37.30729041179228" lon="14.374080409879085"><ele>506.0</ele><time>2026-03-29T12:49:18.002Z</time></trkpt><trkpt lat="37.30708787491366" lon="14.374298062833846"><ele>505.0</ele><time>2026-03-29T12:49:19.002Z</time></trkpt><trkpt lat="37.30688403840554" lon="14.374520823625144"><ele>505.5</ele><time>2026-03-29T12:49:20.002Z</time></trkpt><trkpt lat="37.30667679021544" lon="14.374746644785766"><ele>506.0</ele><time>2026-03-29T12:49:21.002Z</time></trkpt><trkpt lat="37.30646781139539" lon="14.37497376754797"><ele>507.0</ele><time>2026-03-29T12:49:22.002Z</time></trkpt><trkpt lat="37.306257298808404" lon="14.37519822658079"><ele>508.0</ele><time>2026-03-29T12:49:23.001Z</time></trkpt><trkpt lat="37.306046452091344" lon="14.37542258418173"><ele>505.5</ele><time>2026-03-29T12:49:24.001Z</time></trkpt><trkpt lat="37.305838871560574" lon="14.375647982719473"><ele>503.0</ele><time>2026-03-29T12:49:25.001Z</time></trkpt><trkpt lat="37.30563239657119" lon="14.375871447905311"><ele>504.5</ele><time>2026-03-29T12:49:26.001Z</time></trkpt><trkpt lat="37.30542611514134" lon="14.376095249793456"><ele>506.0</ele><time>2026-03-29T12:49:27.001Z</time></trkpt><trkpt lat="37.305220557871344" lon="14.376317831206023"><ele>504.5</ele><time>2026-03-29T12:49:28.001Z</time></trkpt><trkpt lat="37.30501396789495" lon="14.376539768157402"><ele>503.0</ele><time>2026-03-29T12:49:29.001Z</time></trkpt><trkpt lat="37.304805452059284" lon="14.376763946585674"><ele>503.5</ele><time>2026-03-29T12:49:30.001Z</time></trkpt><trkpt lat="37.304598419032786" lon="14.376988522806126"><ele>504.0</ele><time>2026-03-29T12:49:31.001Z</time></trkpt><trkpt lat="37.30439255589035" lon="14.377213567719071"><ele>504.0</ele><time>2026-03-29T12:49:32.001Z</time></trkpt><trkpt lat="37.304185455421276" lon="14.377437802601396"><ele>504.0</ele><time>2026-03-29T12:49:33.001Z</time></trkpt><trkpt lat="37.30397781949128" lon="14.37766154609151"><ele>504.5</ele><time>2026-03-29T12:49:34.001Z</time></trkpt><trkpt lat="37.303772202510636" lon="14.377885385537343"><ele>505.0</ele><time>2026-03-29T12:49:35.001Z</time></trkpt><trkpt lat="37.303566255897" lon="14.378107578646743"><ele>505.0</ele><time>2026-03-29T12:49:36.001Z</time></trkpt><trkpt lat="37.303363278587604" lon="14.378329159285103"><ele>505.0</ele><time>2026-03-29T12:49:37.001Z</time></trkpt><trkpt lat="37.30315835100139" lon="14.3785520293502"><ele>504.5</ele><time>2026-03-29T12:49:38.001Z</time></trkpt><trkpt lat="37.30295443549191" lon="14.378771905442475"><ele>504.0</ele><time>2026-03-29T12:49:39.001Z</time></trkpt><trkpt lat="37.30275331040213" lon="14.378991770729677"><ele>504.0</ele><time>2026-03-29T12:49:40.001Z</time></trkpt><trkpt lat="37.30255229627819" lon="14.379215112453627"><ele>504.0</ele><time>2026-03-29T12:49:41.001Z</time></trkpt><trkpt lat="37.30236178721386" lon="14.3794538609471"><ele>505.0</ele><time>2026-03-29T12:49:42.001Z</time></trkpt><trkpt lat="37.30218207970458" lon="14.379706238305827"><ele>506.0</ele><time>2026-03-29T12:49:43.001Z</time></trkpt><trkpt lat="37.30201358413858" lon="14.379971458133209"><ele>506.0</ele><time>2026-03-29T12:49:44.001Z</time></trkpt><trkpt lat="37.30185438746427" lon="14.380245419677815"><ele>506.0</ele><time>2026-03-29T12:49:45.001Z</time></trkpt><trkpt lat="37.30170064969204" lon="14.380526203680796"><ele>506.5</ele><time>2026-03-29T12:49:46.001Z</time></trkpt><trkpt lat="37.301550464361085" lon="14.380809353148063"><ele>507.0</ele><time>2026-03-29T12:49:47.001Z</time></trkpt><trkpt lat="37.30139911065929" lon="14.381089927216864"><ele>506.5</ele><time>2026-03-29T12:49:48.001Z</time></trkpt><trkpt lat="37.301245652725626" lon="14.38137115592077"><ele>506.0</ele><time>2026-03-29T12:49:49.001Z</time></trkpt><trkpt lat="37.301092376778044" lon="14.381651777164867"><ele>506.0</ele><time>2026-03-29T12:49:50.001Z</time></trkpt><trkpt lat="37.30094154174" lon="14.381930796393526"><ele>506.0</ele><time>2026-03-29T12:49:51.001Z</time></trkpt><trkpt lat="37.30078516586831" lon="14.382209889737675"><ele>504.0</ele><time>2026-03-29T12:49:52.001Z</time></trkpt><trkpt lat="37.300629738218475" lon="14.382488948902182"><ele>502.0</ele><time>2026-03-29T12:49:53.001Z</time></trkpt><trkpt lat="37.300470954449715" lon="14.382769859144513"><ele>504.5</ele><time>2026-03-29T12:49:54.001Z</time></trkpt><trkpt lat="37.300309841182084" lon="14.383048883500424"><ele>507.0</ele><time>2026-03-29T12:49:55.001Z</time></trkpt><trkpt lat="37.30014437132555" lon="14.383323319709051"><ele>507.0</ele><time>2026-03-29T12:49:56.001Z</time></trkpt><trkpt lat="37.2999735463087" lon="14.383592093669241"><ele>507.0</ele><time>2026-03-29T12:49:57.001Z</time></trkpt><trkpt lat="37.299800269692206" lon="14.383857007451386"><ele>507.0</ele><time>2026-03-29T12:49:58.001Z</time></trkpt><trkpt lat="37.29962648570851" lon="14.384121771739196"><ele>507.0</ele><time>2026-03-29T12:49:59.001Z</time></trkpt><trkpt lat="37.29945274829703" lon="14.384387177719987"><ele>507.0</ele><time>2026-03-29T12:50:00.001Z</time></trkpt><trkpt lat="37.29927935632872" lon="14.384653741052954"><ele>507.0</ele><time>2026-03-29T12:50:01.001Z</time></trkpt><trkpt lat="37.29910440996095" lon="14.384918985022072"><ele>505.0</ele><time>2026-03-29T12:50:02.001Z</time></trkpt><trkpt lat="37.29892873255205" lon="14.385184790716758"><ele>503.0</ele><time>2026-03-29T12:50:03.001Z</time></trkpt><trkpt lat="37.29875381316747" lon="14.385453112337279"><ele>503.5</ele><time>2026-03-29T12:50:04.001Z</time></trkpt><trkpt lat="37.29857675964992" lon="14.385723138288661"><ele>504.0</ele><time>2026-03-29T12:50:05.001Z</time></trkpt><trkpt lat="37.29839854183957" lon="14.385990359167055"><ele>504.0</ele><time>2026-03-29T12:50:06.001Z</time></trkpt><trkpt lat="37.2982207869936" lon="14.386256097831772"><ele>504.0</ele><time>2026-03-29T12:50:07.001Z</time></trkpt><trkpt lat="37.29804083421973" lon="14.386518137460513"><ele>505.0</ele><time>2026-03-29T12:50:08.001Z</time></trkpt><trkpt lat="37.29785599719791" lon="14.386772679107727"><ele>506.0</ele><time>2026-03-29T12:50:09.001Z</time></trkpt><trkpt lat="37.29766124983013" lon="14.387015617447465"><ele>503.5</ele><time>2026-03-29T12:50:10.001Z</time></trkpt><trkpt lat="37.29745513424585" lon="14.38723530505275"><ele>501.0</ele><time>2026-03-29T12:50:11.001Z</time></trkpt><trkpt lat="37.29723798019411" lon="14.387430463385401"><ele>500.0</ele><time>2026-03-29T12:50:12.001Z</time></trkpt><trkpt lat="37.29700839892198" lon="14.38760305589099"><ele>499.0</ele><time>2026-03-29T12:50:13.001Z</time></trkpt><trkpt lat="37.29677455361597" lon="14.38775786182824"><ele>499.0</ele><time>2026-03-29T12:50:14.001Z</time></trkpt><trkpt lat="37.29653547089838" lon="14.38790736500087"><ele>499.0</ele><time>2026-03-29T12:50:15.001Z</time></trkpt><trkpt lat="37.296300834157776" lon="14.388057229664938"><ele>495.0</ele><time>2026-03-29T12:50:16.001Z</time></trkpt><trkpt lat="37.29606516945183" lon="14.388211070505212"><ele>491.0</ele><time>2026-03-29T12:50:17.001Z</time></trkpt><trkpt lat="37.295831540366144" lon="14.388366695228036"><ele>491.0</ele><time>2026-03-29T12:50:18.001Z</time></trkpt><trkpt lat="37.295598149085215" lon="14.388524152332755"><ele>491.0</ele><time>2026-03-29T12:50:19.001Z</time></trkpt><trkpt lat="37.29536502628401" lon="14.388685881758073"><ele>486.0</ele><time>2026-03-29T12:50:20.001Z</time></trkpt><trkpt lat="37.29513190335028" lon="14.388851994732097"><ele>481.0</ele><time>2026-03-29T12:50:21.001Z</time></trkpt><trkpt lat="37.294899738757344" lon="14.389024069140966"><ele>483.0</ele><time>2026-03-29T12:50:22.001Z</time></trkpt><trkpt lat="37.29466665185942" lon="14.389202024672992"><ele>485.0</ele><time>2026-03-29T12:50:23.001Z</time></trkpt><trkpt lat="37.29444002824951" lon="14.389388118977129"><ele>485.0</ele><time>2026-03-29T12:50:24.001Z</time></trkpt><trkpt lat="37.29423129116054" lon="14.3895860526522"><ele>485.0</ele><time>2026-03-29T12:50:25.001Z</time></trkpt><trkpt lat="37.29403647792894" lon="14.389795706024161"><ele>476.5</ele><time>2026-03-29T12:50:26.001Z</time></trkpt><trkpt lat="37.29385765477354" lon="14.390024044296267"><ele>468.0</ele><time>2026-03-29T12:50:27.001Z</time></trkpt><trkpt lat="37.29369928114329" lon="14.390275516440093"><ele>465.5</ele><time>2026-03-29T12:50:28.001Z</time></trkpt><trkpt lat="37.293562670040984" lon="14.390551792139405"><ele>463.0</ele><time>2026-03-29T12:50:29.001Z</time></trkpt><trkpt lat="37.293437977069885" lon="14.390846084315577"><ele>463.0</ele><time>2026-03-29T12:50:30.001Z</time></trkpt><trkpt lat="37.29332055824015" lon="14.391150185865996"><ele>463.0</ele><time>2026-03-29T12:50:31.001Z</time></trkpt><trkpt lat="37.29320204392498" lon="14.391454194723348"><ele>456.0</ele><time>2026-03-29T12:50:32.001Z</time></trkpt><trkpt lat="37.29308050151061" lon="14.391753974255169"><ele>449.0</ele><time>2026-03-29T12:50:33.001Z</time></trkpt><trkpt lat="37.29295580963804" lon="14.392052324838359"><ele>450.0</ele><time>2026-03-29T12:50:34.001Z</time></trkpt><trkpt lat="37.29282670244889" lon="14.392351041466457"><ele>451.0</ele><time>2026-03-29T12:50:35.001Z</time></trkpt><trkpt lat="37.29269106461681" lon="14.392644096106498"><ele>451.0</ele><time>2026-03-29T12:50:36.001Z</time></trkpt><trkpt lat="37.29254389554809" lon="14.39293262603345"><ele>451.0</ele><time>2026-03-29T12:50:37.001Z</time></trkpt><trkpt lat="37.29236061953346" lon="14.393188222420527"><ele>453.0</ele><time>2026-03-29T12:50:38.001Z</time></trkpt><trkpt lat="37.29216772016063" lon="14.393429817078564"><ele>455.0</ele><time>2026-03-29T12:50:39.001Z</time></trkpt><trkpt lat="37.29196741715267" lon="14.393637712222832"><ele>455.0</ele><time>2026-03-29T12:50:40.001Z</time></trkpt><trkpt lat="37.29175180133134" lon="14.393816109022097"><ele>455.0</ele><time>2026-03-29T12:50:41.001Z</time></trkpt><trkpt lat="37.29151721737785" lon="14.393977468300461"><ele>454.0</ele><time>2026-03-29T12:50:42.001Z</time></trkpt><trkpt lat="37.29126567888115" lon="14.394100043581867"><ele>453.0</ele><time>2026-03-29T12:50:43.001Z</time></trkpt><trkpt lat="37.29100459995784" lon="14.394179873269069"><ele>453.0</ele><time>2026-03-29T12:50:44.001Z</time></trkpt><trkpt lat="37.29073663672554" lon="14.394240587527"><ele>453.0</ele><time>2026-03-29T12:50:45.001Z</time></trkpt><trkpt lat="37.29046884853905" lon="14.394289509826441"><ele>449.5</ele><time>2026-03-29T12:50:46.002Z</time></trkpt><trkpt lat="37.290198742952626" lon="14.394285052222505"><ele>446.0</ele><time>2026-03-29T12:50:47.002Z</time></trkpt><trkpt lat="37.28993161478087" lon="14.394254496133497"><ele>434.0</ele><time>2026-03-29T12:50:48.002Z</time></trkpt><trkpt lat="37.28940709826882" lon="14.394101329484888"><ele>434.0</ele><time>2026-03-29T12:50:50.002Z</time></trkpt><trkpt lat="37.28914423664036" lon="14.394010815594374"><ele>434.0</ele><time>2026-03-29T12:50:51.002Z</time></trkpt><trkpt lat="37.28888157891405" lon="14.393939510442808"><ele>431.5</ele><time>2026-03-29T12:50:52.002Z</time></trkpt><trkpt lat="37.288623144781255" lon="14.393848589106875"><ele>429.0</ele><time>2026-03-29T12:50:53.002Z</time></trkpt><trkpt lat="37.288365559689424" lon="14.393757104402109"><ele>431.5</ele><time>2026-03-29T12:50:54.002Z</time></trkpt><trkpt lat="37.2881106458504" lon="14.393668732202231"><ele>434.0</ele><time>2026-03-29T12:50:55.002Z</time></trkpt><trkpt lat="37.28786098489339" lon="14.393578720395498"><ele>434.0</ele><time>2026-03-29T12:50:56.002Z</time></trkpt><trkpt lat="37.28761857801958" lon="14.393483997588683"><ele>434.0</ele><time>2026-03-29T12:50:57.002Z</time></trkpt><trkpt lat="37.2873801975019" lon="14.393374763002095"><ele>430.0</ele><time>2026-03-29T12:50:58.002Z</time></trkpt><trkpt lat="37.28714974959267" lon="14.393242556042349"><ele>426.0</ele><time>2026-03-29T12:50:59.002Z</time></trkpt><trkpt lat="37.2869232799252" lon="14.393091638159726"><ele>428.0</ele><time>2026-03-29T12:51:00.002Z</time></trkpt><trkpt lat="37.28670389575974" lon="14.392917753557807"><ele>430.0</ele><time>2026-03-29T12:51:01.002Z</time></trkpt><trkpt lat="37.286275094795144" lon="14.392551972513616"><ele>425.0</ele><time>2026-03-29T12:51:03.002Z</time></trkpt><trkpt lat="37.286059497943" lon="14.392364682174883"><ele>420.0</ele><time>2026-03-29T12:51:04.002Z</time></trkpt><trkpt lat="37.2858400502757" lon="14.392178136063595"><ele>419.5</ele><time>2026-03-29T12:51:05.002Z</time></trkpt><trkpt lat="37.28562026959065" lon="14.391995850742363"><ele>419.0</ele><time>2026-03-29T12:51:06.002Z</time></trkpt><trkpt lat="37.2853980868152" lon="14.391811268025632"><ele>418.0</ele><time>2026-03-29T12:51:07.002Z</time></trkpt><trkpt lat="37.285176732391804" lon="14.391627597600479"><ele>417.0</ele><time>2026-03-29T12:51:08.002Z</time></trkpt><trkpt lat="37.28495280178796" lon="14.391440426086426"><ele>418.5</ele><time>2026-03-29T12:51:09.002Z</time></trkpt><trkpt lat="37.284727567607945" lon="14.391252166688272"><ele>420.0</ele><time>2026-03-29T12:51:10.002Z</time></trkpt><trkpt lat="37.28450292093862" lon="14.391063162878229"><ele>420.0</ele><time>2026-03-29T12:51:11.002Z</time></trkpt><trkpt lat="37.28428392009118" lon="14.390877170128439"><ele>420.0</ele><time>2026-03-29T12:51:12.002Z</time></trkpt><trkpt lat="37.28406578984854" lon="14.390695744422711"><ele>422.0</ele><time>2026-03-29T12:51:13.002Z</time></trkpt><trkpt lat="37.28384992274951" lon="14.390519080712354"><ele>424.0</ele><time>2026-03-29T12:51:14.002Z</time></trkpt><trkpt lat="37.28363724191081" lon="14.390340558691214"><ele>425.0</ele><time>2026-03-29T12:51:15.002Z</time></trkpt><trkpt lat="37.283426527893084" lon="14.390158247221278"><ele>426.0</ele><time>2026-03-29T12:51:16.002Z</time></trkpt><trkpt lat="37.283214159014385" lon="14.389973430122678"><ele>430.5</ele><time>2026-03-29T12:51:17.002Z</time></trkpt><trkpt lat="37.28299762002755" lon="14.38978488016366"><ele>435.0</ele><time>2026-03-29T12:51:18.002Z</time></trkpt><trkpt lat="37.282783306256164" lon="14.38960335144683"><ele>437.0</ele><time>2026-03-29T12:51:19.002Z</time></trkpt><trkpt lat="37.282568080961155" lon="14.389421508969477"><ele>439.0</ele><time>2026-03-29T12:51:20.002Z</time></trkpt><trkpt lat="37.28234991083623" lon="14.389238722608917"><ele>437.0</ele><time>2026-03-29T12:51:21.002Z</time></trkpt><trkpt lat="37.28213340788591" lon="14.38905768710277"><ele>435.0</ele><time>2026-03-29T12:51:22.002Z</time></trkpt><trkpt lat="37.28191698167794" lon="14.388877817420633"><ele>441.5</ele><time>2026-03-29T12:51:23.002Z</time></trkpt><trkpt lat="37.28170486780792" lon="14.388698068768186"><ele>448.0</ele><time>2026-03-29T12:51:24.002Z</time></trkpt><trkpt lat="37.281494975176685" lon="14.388520476026999"><ele>447.0</ele><time>2026-03-29T12:51:25.002Z</time></trkpt><trkpt lat="37.28128776756152" lon="14.388346057263652"><ele>446.0</ele><time>2026-03-29T12:51:26.002Z</time></trkpt><trkpt lat="37.28107951995914" lon="14.388170258787898"><ele>453.0</ele><time>2026-03-29T12:51:27.002Z</time></trkpt><trkpt lat="37.28086829971591" lon="14.38799896284726"><ele>460.0</ele><time>2026-03-29T12:51:28.002Z</time></trkpt><trkpt lat="37.28065177272979" lon="14.387834296050416"><ele>455.0</ele><time>2026-03-29T12:51:29.001Z</time></trkpt><trkpt lat="37.28042891488842" lon="14.387679953702902"><ele>450.0</ele><time>2026-03-29T12:51:30.001Z</time></trkpt><trkpt lat="37.28019853499849" lon="14.387531320213723"><ele>450.0</ele><time>2026-03-29T12:51:31.001Z</time></trkpt><trkpt lat="37.27995030083104" lon="14.387393753192931"><ele>450.0</ele><time>2026-03-29T12:51:32.001Z</time></trkpt><trkpt lat="37.27970066766342" lon="14.387256823527904"><ele>453.5</ele><time>2026-03-29T12:51:33.001Z</time></trkpt><trkpt lat="37.27944503260281" lon="14.38712908689019"><ele>457.0</ele><time>2026-03-29T12:51:34.001Z</time></trkpt><trkpt lat="37.279192519598865" lon="14.387004857993569"><ele>457.0</ele><time>2026-03-29T12:51:35.001Z</time></trkpt><trkpt lat="37.27893557613848" lon="14.386882948561695"><ele>457.0</ele><time>2026-03-29T12:51:36.001Z</time></trkpt><trkpt lat="37.27867873868453" lon="14.386763375224099"><ele>456.0</ele><time>2026-03-29T12:51:37.001Z</time></trkpt><trkpt lat="37.278421884164985" lon="14.386637898066947"><ele>455.0</ele><time>2026-03-29T12:51:38.001Z</time></trkpt><trkpt lat="37.278168320991966" lon="14.386510166724653"><ele>459.5</ele><time>2026-03-29T12:51:39.001Z</time></trkpt><trkpt lat="37.277915166762796" lon="14.386378551861158"><ele>464.0</ele><time>2026-03-29T12:51:40.001Z</time></trkpt><trkpt lat="37.27765751649127" lon="14.386242150972281"><ele>471.0</ele><time>2026-03-29T12:51:41.001Z</time></trkpt><trkpt lat="37.27740183422284" lon="14.386118822477254"><ele>478.0</ele><time>2026-03-29T12:51:42.001Z</time></trkpt><trkpt lat="37.2771432206609" lon="14.38599471620911"><ele>479.0</ele><time>2026-03-29T12:51:43.001Z</time></trkpt><trkpt lat="37.27688337046313" lon="14.385866654241145"><ele>480.0</ele><time>2026-03-29T12:51:44.001Z</time></trkpt><trkpt lat="37.27661991139417" lon="14.385738351484727"><ele>480.5</ele><time>2026-03-29T12:51:45.001Z</time></trkpt><trkpt lat="37.27635397529681" lon="14.38560858003762"><ele>481.0</ele><time>2026-03-29T12:51:46.001Z</time></trkpt><trkpt lat="37.27608560372165" lon="14.38548011658819"><ele>480.0</ele><time>2026-03-29T12:51:47.001Z</time></trkpt><trkpt lat="37.275813181463775" lon="14.385349883114795"><ele>479.0</ele><time>2026-03-29T12:51:48.001Z</time></trkpt><trkpt lat="37.27554531611862" lon="14.38522116582289"><ele>477.5</ele><time>2026-03-29T12:51:49.001Z</time></trkpt><trkpt lat="37.275286400391856" lon="14.385092571555791"><ele>476.0</ele><time>2026-03-29T12:51:50.001Z</time></trkpt><trkpt lat="37.275033703305475" lon="14.384970647324938"><ele>476.0</ele><time>2026-03-29T12:51:51.001Z</time></trkpt><trkpt lat="37.27478905433913" lon="14.384855314441452"><ele>476.0</ele><time>2026-03-29T12:51:52.001Z</time></trkpt><trkpt lat="37.274543765638036" lon="14.384738622008154"><ele>474.0</ele><time>2026-03-29T12:51:53.001Z</time></trkpt><trkpt lat="37.27430020478784" lon="14.384622788074386"><ele>472.0</ele><time>2026-03-29T12:51:54.001Z</time></trkpt><trkpt lat="37.274055682490264" lon="14.384503057579797"><ele>472.5</ele><time>2026-03-29T12:51:55.001Z</time></trkpt><trkpt lat="37.27380406978488" lon="14.384375915563833"><ele>473.0</ele><time>2026-03-29T12:51:56.001Z</time></trkpt><trkpt lat="37.27354756708747" lon="14.384247674399973"><ele>473.0</ele><time>2026-03-29T12:51:57.001Z</time></trkpt><trkpt lat="37.273288259765486" lon="14.384110553623163"><ele>473.0</ele><time>2026-03-29T12:51:58.001Z</time></trkpt><trkpt lat="37.27303363184165" lon="14.383964844115344"><ele>471.0</ele><time>2026-03-29T12:51:59.001Z</time></trkpt><trkpt lat="37.272786579313916" lon="14.383807603323895"><ele>469.0</ele><time>2026-03-29T12:52:00.001Z</time></trkpt><trkpt lat="37.2725460142081" lon="14.383639526318497"><ele>469.0</ele><time>2026-03-29T12:52:01.001Z</time></trkpt><trkpt lat="37.27231205127723" lon="14.383450538115008"><ele>469.0</ele><time>2026-03-29T12:52:02.001Z</time></trkpt><trkpt lat="37.2720825381552" lon="14.383251138679624"><ele>468.0</ele><time>2026-03-29T12:52:03.001Z</time></trkpt><trkpt lat="37.27185585591554" lon="14.383042076803019"><ele>467.0</ele><time>2026-03-29T12:52:04.001Z</time></trkpt><trkpt lat="37.27162914617861" lon="14.382824322742646"><ele>469.5</ele><time>2026-03-29T12:52:05.001Z</time></trkpt><trkpt lat="37.27140473072508" lon="14.382603361051968"><ele>472.0</ele><time>2026-03-29T12:52:06.001Z</time></trkpt><trkpt lat="37.27117938847474" lon="14.382384391628573"><ele>467.0</ele><time>2026-03-29T12:52:07.001Z</time></trkpt><trkpt lat="37.270956616421365" lon="14.382170472077917"><ele>462.0</ele><time>2026-03-29T12:52:08.001Z</time></trkpt><trkpt lat="37.2707375990302" lon="14.381959626328065"><ele>464.5</ele><time>2026-03-29T12:52:09.001Z</time></trkpt><trkpt lat="37.27051772921368" lon="14.381748134833982"><ele>467.0</ele><time>2026-03-29T12:52:10.001Z</time></trkpt><trkpt lat="37.27029748445437" lon="14.381537279557387"><ele>461.0</ele><time>2026-03-29T12:52:11.001Z</time></trkpt><trkpt lat="37.27007615491741" lon="14.38132503022239"><ele>455.0</ele><time>2026-03-29T12:52:12.001Z</time></trkpt><trkpt lat="37.2698550182379" lon="14.381112503275526"><ele>458.5</ele><time>2026-03-29T12:52:13.001Z</time></trkpt><trkpt lat="37.2696378623183" lon="14.380900614257843"><ele>462.0</ele><time>2026-03-29T12:52:14.001Z</time></trkpt><trkpt lat="37.26942259132981" lon="14.380691856137412"><ele>457.0</ele><time>2026-03-29T12:52:15.001Z</time></trkpt><trkpt lat="37.269208607915324" lon="14.380485941563684"><ele>452.0</ele><time>2026-03-29T12:52:16.001Z</time></trkpt><trkpt lat="37.26899311849937" lon="14.380282343145971"><ele>456.0</ele><time>2026-03-29T12:52:17.001Z</time></trkpt><trkpt lat="37.268774494885925" lon="14.380082261157835"><ele>460.0</ele><time>2026-03-29T12:52:18.001Z</time></trkpt><trkpt lat="37.268549492350594" lon="14.379889273184078"><ele>460.0</ele><time>2026-03-29T12:52:19.001Z</time></trkpt><trkpt lat="37.26831337008711" lon="14.37970870926946"><ele>460.0</ele><time>2026-03-29T12:52:20.001Z</time></trkpt><trkpt lat="37.268066301340255" lon="14.379551626632882"><ele>455.5</ele><time>2026-03-29T12:52:21.001Z</time></trkpt><trkpt lat="37.267802270941694" lon="14.379424708296218"><ele>451.0</ele><time>2026-03-29T12:52:22.001Z</time></trkpt><trkpt lat="37.267540691083084" lon="14.379323737360517"><ele>450.0</ele><time>2026-03-29T12:52:23.001Z</time></trkpt><trkpt lat="37.26727172830296" lon="14.379254891738325"><ele>449.0</ele><time>2026-03-29T12:52:24.001Z</time></trkpt><trkpt lat="37.266999935348004" lon="14.379204396002226"><ele>449.0</ele><time>2026-03-29T12:52:25.001Z</time></trkpt><trkpt lat="37.26673148858247" lon="14.379165329138543"><ele>449.0</ele><time>2026-03-29T12:52:26.001Z</time></trkpt><trkpt lat="37.266455572477334" lon="14.379133710775049"><ele>448.0</ele><time>2026-03-29T12:52:27.001Z</time></trkpt><trkpt lat="37.26618000022743" lon="14.3791247899116"><ele>447.0</ele><time>2026-03-29T12:52:28.001Z</time></trkpt><trkpt lat="37.26590284674709" lon="14.37914883220374"><ele>447.0</ele><time>2026-03-29T12:52:29.001Z</time></trkpt><trkpt lat="37.26562525478652" lon="14.37919153303539"><ele>447.0</ele><time>2026-03-29T12:52:30.001Z</time></trkpt><trkpt lat="37.26534563626205" lon="14.379237648031062"><ele>446.5</ele><time>2026-03-29T12:52:31.001Z</time></trkpt><trkpt lat="37.26506517917174" lon="14.379282177438295"><ele>446.0</ele><time>2026-03-29T12:52:32.001Z</time></trkpt><trkpt lat="37.26478522762677" lon="14.379325663016122"><ele>444.0</ele><time>2026-03-29T12:52:33.001Z</time></trkpt><trkpt lat="37.2645078379588" lon="14.379377557221181"><ele>442.0</ele><time>2026-03-29T12:52:34.001Z</time></trkpt><trkpt lat="37.26423140597215" lon="14.379451400322447"><ele>442.0</ele><time>2026-03-29T12:52:35.001Z</time></trkpt><trkpt lat="37.26395550326926" lon="14.379548364146794"><ele>442.0</ele><time>2026-03-29T12:52:36.001Z</time></trkpt><trkpt lat="37.26368299550896" lon="14.379668299111176"><ele>443.0</ele><time>2026-03-29T12:52:37.001Z</time></trkpt><trkpt lat="37.26341528044596" lon="14.379801021205584"><ele>444.0</ele><time>2026-03-29T12:52:38.001Z</time></trkpt><trkpt lat="37.263148620059326" lon="14.379936148130112"><ele>439.0</ele><time>2026-03-29T12:52:39.001Z</time></trkpt><trkpt lat="37.26289052386259" lon="14.380075402713173"><ele>434.0</ele><time>2026-03-29T12:52:40.001Z</time></trkpt><trkpt lat="37.262631642739215" lon="14.380209838642774"><ele>434.0</ele><time>2026-03-29T12:52:41.001Z</time></trkpt><trkpt lat="37.26237941648999" lon="14.38032277941959"><ele>434.0</ele><time>2026-03-29T12:52:42.001Z</time></trkpt><trkpt lat="37.26212547896838" lon="14.3804056258914"><ele>431.0</ele><time>2026-03-29T12:52:43.001Z</time></trkpt><trkpt lat="37.2618619058727" lon="14.380428247701843"><ele>428.0</ele><time>2026-03-29T12:52:44.001Z</time></trkpt><trkpt lat="37.2615995301639" lon="14.38045228418831"><ele>425.5</ele><time>2026-03-29T12:52:45.001Z</time></trkpt><trkpt lat="37.26133064247201" lon="14.380414308195133"><ele>423.0</ele><time>2026-03-29T12:52:46.001Z</time></trkpt><trkpt lat="37.26106136454652" lon="14.380334985374008"><ele>423.0</ele><time>2026-03-29T12:52:47.001Z</time></trkpt><trkpt lat="37.26079396993786" lon="14.380224170474786"><ele>423.0</ele><time>2026-03-29T12:52:48.001Z</time></trkpt><trkpt lat="37.26052137443798" lon="14.380091792997609"><ele>423.5</ele><time>2026-03-29T12:52:49.002Z</time></trkpt><trkpt lat="37.26023897444896" lon="14.379954611320928"><ele>424.0</ele><time>2026-03-29T12:52:50.002Z</time></trkpt><trkpt lat="37.259948412525574" lon="14.379818885955766"><ele>421.5</ele><time>2026-03-29T12:52:51.002Z</time></trkpt><trkpt lat="37.25965714555881" lon="14.379679923244701"><ele>419.0</ele><time>2026-03-29T12:52:52.002Z</time></trkpt><trkpt lat="37.25936800968635" lon="14.37954049085347"><ele>419.0</ele><time>2026-03-29T12:52:53.002Z</time></trkpt><trkpt lat="37.25908122136983" lon="14.37940124698309"><ele>419.0</ele><time>2026-03-29T12:52:54.002Z</time></trkpt><trkpt lat="37.25880080591631" lon="14.379261303255209"><ele>418.0</ele><time>2026-03-29T12:52:55.002Z</time></trkpt><trkpt lat="37.25852068159605" lon="14.379124736975097"><ele>417.0</ele><time>2026-03-29T12:52:56.002Z</time></trkpt><trkpt lat="37.25824679174247" lon="14.37900044436063"><ele>418.5</ele><time>2026-03-29T12:52:57.002Z</time></trkpt><trkpt lat="37.25797335565036" lon="14.378887895985958"><ele>420.0</ele><time>2026-03-29T12:52:58.002Z</time></trkpt><trkpt lat="37.2576968733419" lon="14.378793321971889"><ele>414.0</ele><time>2026-03-29T12:52:59.002Z</time></trkpt><trkpt lat="37.25740628920444" lon="14.378722136254495"><ele>408.0</ele><time>2026-03-29T12:53:00.002Z</time></trkpt><trkpt lat="37.2571076710738" lon="14.378673378902317"><ele>406.0</ele><time>2026-03-29T12:53:01.002Z</time></trkpt><trkpt lat="37.25681199168037" lon="14.37864576252957"><ele>404.0</ele><time>2026-03-29T12:53:02.002Z</time></trkpt><trkpt lat="37.256518905728534" lon="14.378643941607415"><ele>401.0</ele><time>2026-03-29T12:53:03.002Z</time></trkpt><trkpt lat="37.25622775023226" lon="14.378671135250775"><ele>398.0</ele><time>2026-03-29T12:53:04.002Z</time></trkpt><trkpt lat="37.25592769431885" lon="14.378725915988447"><ele>399.5</ele><time>2026-03-29T12:53:05.002Z</time></trkpt><trkpt lat="37.25561941878894" lon="14.378804136791137"><ele>401.0</ele><time>2026-03-29T12:53:06.002Z</time></trkpt><trkpt lat="37.25530824657093" lon="14.378905764764458"><ele>401.0</ele><time>2026-03-29T12:53:07.002Z</time></trkpt><trkpt lat="37.25499179694478" lon="14.379022160944107"><ele>401.0</ele><time>2026-03-29T12:53:08.002Z</time></trkpt><trkpt lat="37.25467805749733" lon="14.379134281467662"><ele>397.5</ele><time>2026-03-29T12:53:09.002Z</time></trkpt><trkpt lat="37.25436737654801" lon="14.379245426615787"><ele>394.0</ele><time>2026-03-29T12:53:10.002Z</time></trkpt><trkpt lat="37.2540617351323" lon="14.37935673335653"><ele>390.5</ele><time>2026-03-29T12:53:11.002Z</time></trkpt><trkpt lat="37.253764072362536" lon="14.379460698581491"><ele>387.0</ele><time>2026-03-29T12:53:12.002Z</time></trkpt><trkpt lat="37.25346556875726" lon="14.379566333143886"><ele>387.0</ele><time>2026-03-29T12:53:13.002Z</time></trkpt><trkpt lat="37.253168409749385" lon="14.379680652387552"><ele>387.0</ele><time>2026-03-29T12:53:14.002Z</time></trkpt><trkpt lat="37.25288031107886" lon="14.379807339579251"><ele>385.0</ele><time>2026-03-29T12:53:15.002Z</time></trkpt><trkpt lat="37.25259692054372" lon="14.379954296269506"><ele>383.0</ele><time>2026-03-29T12:53:16.002Z</time></trkpt><trkpt lat="37.25231385388952" lon="14.380131104235119"><ele>381.5</ele><time>2026-03-29T12:53:17.002Z</time></trkpt><trkpt lat="37.25203019759437" lon="14.380329845710662"><ele>380.0</ele><time>2026-03-29T12:53:18.002Z</time></trkpt><trkpt lat="37.251748388235896" lon="14.380542507972036"><ele>380.0</ele><time>2026-03-29T12:53:19.002Z</time></trkpt><trkpt lat="37.25146974585107" lon="14.380753399637058"><ele>380.0</ele><time>2026-03-29T12:53:20.002Z</time></trkpt><trkpt lat="37.25118997772265" lon="14.380954981476735"><ele>376.5</ele><time>2026-03-29T12:53:21.002Z</time></trkpt><trkpt lat="37.250921758312934" lon="14.381138055579216"><ele>373.0</ele><time>2026-03-29T12:53:22.002Z</time></trkpt><trkpt lat="37.25064384936695" lon="14.381272458669386"><ele>369.5</ele><time>2026-03-29T12:53:23.002Z</time></trkpt><trkpt lat="37.250373135160494" lon="14.381401571600685"><ele>366.0</ele><time>2026-03-29T12:53:24.002Z</time></trkpt><trkpt lat="37.25009148513618" lon="14.38151234666643"><ele>366.0</ele><time>2026-03-29T12:53:25.002Z</time></trkpt><trkpt lat="37.24979461443072" lon="14.381629868038907"><ele>366.0</ele><time>2026-03-29T12:53:26.002Z</time></trkpt><trkpt lat="37.2494787967809" lon="14.381718234856244"><ele>363.0</ele><time>2026-03-29T12:53:27.002Z</time></trkpt><trkpt lat="37.249155203856965" lon="14.381810535038143"><ele>360.0</ele><time>2026-03-29T12:53:28.002Z</time></trkpt><trkpt lat="37.248834106022464" lon="14.381902844723855"><ele>357.5</ele><time>2026-03-29T12:53:29.002Z</time></trkpt><trkpt lat="37.248513801188444" lon="14.381993509823461"><ele>355.0</ele><time>2026-03-29T12:53:30.002Z</time></trkpt><trkpt lat="37.24819575266368" lon="14.382076579466833"><ele>353.5</ele><time>2026-03-29T12:53:31.002Z</time></trkpt><trkpt lat="37.24787554401523" lon="14.382144326671929"><ele>352.0</ele><time>2026-03-29T12:53:32.002Z</time></trkpt><trkpt lat="37.24755471844038" lon="14.382191912207139"><ele>354.5</ele><time>2026-03-29T12:53:33.002Z</time></trkpt><trkpt lat="37.2472286816943" lon="14.382218672003999"><ele>357.0</ele><time>2026-03-29T12:53:34.002Z</time></trkpt><trkpt lat="37.24690271448963" lon="14.38222192786067"><ele>357.0</ele><time>2026-03-29T12:53:35.001Z</time></trkpt><trkpt lat="37.24657800239962" lon="14.382200299840338"><ele>357.0</ele><time>2026-03-29T12:53:36.001Z</time></trkpt><trkpt lat="37.246254130666074" lon="14.38216771338184"><ele>353.5</ele><time>2026-03-29T12:53:37.001Z</time></trkpt><trkpt lat="37.24592802041788" lon="14.382137722874727"><ele>350.0</ele><time>2026-03-29T12:53:38.001Z</time></trkpt><trkpt lat="37.24560094768345" lon="14.382109236824355"><ele>349.0</ele><time>2026-03-29T12:53:39.001Z</time></trkpt><trkpt lat="37.245272277170756" lon="14.382082860345903"><ele>348.0</ele><time>2026-03-29T12:53:40.001Z</time></trkpt><trkpt lat="37.24494391857672" lon="14.38205763982547"><ele>345.0</ele><time>2026-03-29T12:53:41.001Z</time></trkpt><trkpt lat="37.24462294039077" lon="14.382030139782094"><ele>342.0</ele><time>2026-03-29T12:53:42.001Z</time></trkpt><trkpt lat="37.24430681436806" lon="14.382005577385641"><ele>342.0</ele><time>2026-03-29T12:53:43.001Z</time></trkpt><trkpt lat="37.243983044893525" lon="14.381977933968997"><ele>342.0</ele><time>2026-03-29T12:53:44.001Z</time></trkpt><trkpt lat="37.24365811670484" lon="14.381958236686597"><ele>344.0</ele><time>2026-03-29T12:53:45.001Z</time></trkpt><trkpt lat="37.24333505292904" lon="14.38194611688966"><ele>346.0</ele><time>2026-03-29T12:53:46.001Z</time></trkpt><trkpt lat="37.24301468449449" lon="14.381946540590315"><ele>347.0</ele><time>2026-03-29T12:53:47.001Z</time></trkpt><trkpt lat="37.24269045238335" lon="14.381971214856035"><ele>348.0</ele><time>2026-03-29T12:53:48.001Z</time></trkpt><trkpt lat="37.242363182219364" lon="14.382021437393885"><ele>341.5</ele><time>2026-03-29T12:53:49.001Z</time></trkpt><trkpt lat="37.242039893435646" lon="14.382088162846815"><ele>335.0</ele><time>2026-03-29T12:53:50.001Z</time></trkpt><trkpt lat="37.24171626057921" lon="14.382155162079075"><ele>337.0</ele><time>2026-03-29T12:53:51.001Z</time></trkpt><trkpt lat="37.24139729568505" lon="14.382222019265374"><ele>339.0</ele><time>2026-03-29T12:53:52.001Z</time></trkpt><trkpt lat="37.241082775435885" lon="14.38228801115278"><ele>339.0</ele><time>2026-03-29T12:53:53.001Z</time></trkpt><trkpt lat="37.240767795533685" lon="14.382356024271159"><ele>339.0</ele><time>2026-03-29T12:53:54.001Z</time></trkpt><trkpt lat="37.2404494691261" lon="14.382423285910384"><ele>334.0</ele><time>2026-03-29T12:53:55.001Z</time></trkpt><trkpt lat="37.2401300197075" lon="14.382490403177453"><ele>329.0</ele><time>2026-03-29T12:53:56.001Z</time></trkpt><trkpt lat="37.239805578983955" lon="14.382553342326439"><ele>328.0</ele><time>2026-03-29T12:53:57.001Z</time></trkpt><trkpt lat="37.23947960624734" lon="14.382619884620267"><ele>327.0</ele><time>2026-03-29T12:53:58.001Z</time></trkpt><trkpt lat="37.239152488990754" lon="14.382689647691242"><ele>328.5</ele><time>2026-03-29T12:53:59.001Z</time></trkpt><trkpt lat="37.23882664903797" lon="14.382759183254372"><ele>330.0</ele><time>2026-03-29T12:54:00.001Z</time></trkpt><trkpt lat="37.23850437063384" lon="14.382829012577197"><ele>330.0</ele><time>2026-03-29T12:54:01.001Z</time></trkpt><trkpt lat="37.238184966577954" lon="14.382894760794015"><ele>330.0</ele><time>2026-03-29T12:54:02.001Z</time></trkpt><trkpt lat="37.23786391107454" lon="14.382952021621962"><ele>330.5</ele><time>2026-03-29T12:54:03.001Z</time></trkpt><trkpt lat="37.237555348545676" lon="14.382995660816443"><ele>331.0</ele><time>2026-03-29T12:54:04.001Z</time></trkpt><trkpt lat="37.23725476674884" lon="14.383017034950235"><ele>328.5</ele><time>2026-03-29T12:54:05.001Z</time></trkpt><trkpt lat="37.23696675069477" lon="14.383017442487938"><ele>326.0</ele><time>2026-03-29T12:54:06.001Z</time></trkpt><trkpt lat="37.2366817781352" lon="14.382983713375884"><ele>320.0</ele><time>2026-03-29T12:54:07.001Z</time></trkpt><trkpt lat="37.23639570335902" lon="14.382917226939517"><ele>314.0</ele><time>2026-03-29T12:54:08.001Z</time></trkpt><trkpt lat="37.236105516626345" lon="14.382829373203661"><ele>314.0</ele><time>2026-03-29T12:54:09.001Z</time></trkpt><trkpt lat="37.23580347539995" lon="14.382739628106396"><ele>314.0</ele><time>2026-03-29T12:54:10.001Z</time></trkpt><trkpt lat="37.235491925378476" lon="14.382658928260827"><ele>312.0</ele><time>2026-03-29T12:54:11.001Z</time></trkpt><trkpt lat="37.23517746302312" lon="14.382584167116534"><ele>310.0</ele><time>2026-03-29T12:54:12.001Z</time></trkpt><trkpt lat="37.23486142553603" lon="14.382510189442284"><ele>307.0</ele><time>2026-03-29T12:54:13.001Z</time></trkpt><trkpt lat="37.234548029103344" lon="14.382433653446865"><ele>304.0</ele><time>2026-03-29T12:54:14.001Z</time></trkpt><trkpt lat="37.234233812572704" lon="14.382356748712485"><ele>302.0</ele><time>2026-03-29T12:54:15.001Z</time></trkpt><trkpt lat="37.23392292843401" lon="14.38228020671702"><ele>300.0</ele><time>2026-03-29T12:54:16.001Z</time></trkpt><trkpt lat="37.23361867739156" lon="14.382203696992397"><ele>299.5</ele><time>2026-03-29T12:54:17.001Z</time></trkpt><trkpt lat="37.23332052203666" lon="14.382127495315194"><ele>299.0</ele><time>2026-03-29T12:54:18.001Z</time></trkpt><trkpt lat="37.2330283213162" lon="14.38205613627408"><ele>299.0</ele><time>2026-03-29T12:54:19.001Z</time></trkpt><trkpt lat="37.232745869815375" lon="14.381984663466124"><ele>299.0</ele><time>2026-03-29T12:54:20.001Z</time></trkpt><trkpt lat="37.23247634781774" lon="14.381914364109395"><ele>298.0</ele><time>2026-03-29T12:54:21.001Z</time></trkpt><trkpt lat="37.232198687775295" lon="14.381837392113283"><ele>297.0</ele><time>2026-03-29T12:54:22.001Z</time></trkpt><trkpt lat="37.23191533135958" lon="14.381738140383536"><ele>297.0</ele><time>2026-03-29T12:54:23.001Z</time></trkpt><trkpt lat="37.23163346118342" lon="14.381613352319357"><ele>297.0</ele><time>2026-03-29T12:54:24.001Z</time></trkpt><trkpt lat="37.23135711564272" lon="14.381467800656996"><ele>294.5</ele><time>2026-03-29T12:54:25.001Z</time></trkpt><trkpt lat="37.23108679671996" lon="14.381299491187333"><ele>292.0</ele><time>2026-03-29T12:54:26.001Z</time></trkpt><trkpt lat="37.23082135086348" lon="14.381111957667256"><ele>290.0</ele><time>2026-03-29T12:54:27.001Z</time></trkpt><trkpt lat="37.23055789734594" lon="14.380909810555709"><ele>288.0</ele><time>2026-03-29T12:54:28.001Z</time></trkpt><trkpt lat="37.23029451169864" lon="14.380708514733708"><ele>288.0</ele><time>2026-03-29T12:54:29.001Z</time></trkpt><trkpt lat="37.23003578349079" lon="14.380520544833912"><ele>288.0</ele><time>2026-03-29T12:54:30.001Z</time></trkpt><trkpt lat="37.22978195395686" lon="14.380346911065546"><ele>286.5</ele><time>2026-03-29T12:54:31.001Z</time></trkpt><trkpt lat="37.22953710368014" lon="14.380167345414455"><ele>285.0</ele><time>2026-03-29T12:54:32.001Z</time></trkpt><trkpt lat="37.229284938219074" lon="14.380008456518128"><ele>285.0</ele><time>2026-03-29T12:54:33.001Z</time></trkpt><trkpt lat="37.22902340266863" lon="14.379868534503256"><ele>285.0</ele><time>2026-03-29T12:54:34.001Z</time></trkpt><trkpt lat="37.22876048181495" lon="14.379759734408733"><ele>281.5</ele><time>2026-03-29T12:54:35.001Z</time></trkpt><trkpt lat="37.22848293056941" lon="14.379680662600768"><ele>278.0</ele><time>2026-03-29T12:54:36.001Z</time></trkpt><trkpt lat="37.228195048177604" lon="14.37962550401498"><ele>277.0</ele><time>2026-03-29T12:54:37.001Z</time></trkpt><trkpt lat="37.22789486535325" lon="14.379597221863932"><ele>276.0</ele><time>2026-03-29T12:54:38.001Z</time></trkpt><trkpt lat="37.22759236342088" lon="14.379583051100072"><ele>273.0</ele><time>2026-03-29T12:54:39.001Z</time></trkpt><trkpt lat="37.22728709706728" lon="14.379583280460082"><ele>270.0</ele><time>2026-03-29T12:54:40.001Z</time></trkpt><trkpt lat="37.22697928563838" lon="14.379581644430392"><ele>270.0</ele><time>2026-03-29T12:54:41.001Z</time></trkpt><trkpt lat="37.226669951945276" lon="14.379578082570253"><ele>270.0</ele><time>2026-03-29T12:54:42.001Z</time></trkpt><trkpt lat="37.22636017354695" lon="14.379576815037781"><ele>269.5</ele><time>2026-03-29T12:54:43.001Z</time></trkpt><trkpt lat="37.22606070398295" lon="14.379566131912904"><ele>269.0</ele><time>2026-03-29T12:54:44.001Z</time></trkpt><trkpt lat="37.22575900298191" lon="14.379556038969545"><ele>266.0</ele><time>2026-03-29T12:54:45.001Z</time></trkpt><trkpt lat="37.22546193634633" lon="14.379517197323182"><ele>263.0</ele><time>2026-03-29T12:54:46.001Z</time></trkpt><trkpt lat="37.225168421964646" lon="14.37947633768887"><ele>263.0</ele><time>2026-03-29T12:54:47.001Z</time></trkpt><trkpt lat="37.22487956314607" lon="14.379408794390358"><ele>263.0</ele><time>2026-03-29T12:54:48.001Z</time></trkpt><trkpt lat="37.224596639559536" lon="14.379332461071638"><ele>261.5</ele><time>2026-03-29T12:54:49.002Z</time></trkpt><trkpt lat="37.22431776608964" lon="14.37926848494078"><ele>260.0</ele><time>2026-03-29T12:54:50.002Z</time></trkpt><trkpt lat="37.22404539962451" lon="14.379171410228816"><ele>259.0</ele><time>2026-03-29T12:54:51.002Z</time></trkpt><trkpt lat="37.22377504675413" lon="14.379082027629941"><ele>258.0</ele><time>2026-03-29T12:54:52.002Z</time></trkpt><trkpt lat="37.223504852657825" lon="14.378995822612742"><ele>258.0</ele><time>2026-03-29T12:54:53.002Z</time></trkpt><trkpt lat="37.22323510460851" lon="14.378912535507817"><ele>258.0</ele><time>2026-03-29T12:54:54.002Z</time></trkpt><trkpt lat="37.22297003288576" lon="14.378834914398883"><ele>258.5</ele><time>2026-03-29T12:54:55.002Z</time></trkpt><trkpt lat="37.22270424012315" lon="14.378752355330043"><ele>259.0</ele><time>2026-03-29T12:54:56.002Z</time></trkpt><trkpt lat="37.22243239895718" lon="14.378674871868824"><ele>258.0</ele><time>2026-03-29T12:54:57.002Z</time></trkpt><trkpt lat="37.22216303811124" lon="14.378612300684084"><ele>257.0</ele><time>2026-03-29T12:54:58.002Z</time></trkpt><trkpt lat="37.22187781093845" lon="14.378585214217475"><ele>257.0</ele><time>2026-03-29T12:54:59.002Z</time></trkpt><trkpt lat="37.22157850757916" lon="14.378591054070927"><ele>257.0</ele><time>2026-03-29T12:55:00.002Z</time></trkpt><trkpt lat="37.22127361589376" lon="14.378626171528209"><ele>255.0</ele><time>2026-03-29T12:55:01.002Z</time></trkpt><trkpt lat="37.22096328395977" lon="14.378684842465358"><ele>253.0</ele><time>2026-03-29T12:55:02.002Z</time></trkpt><trkpt lat="37.22065319264798" lon="14.378772274763632"><ele>252.0</ele><time>2026-03-29T12:55:03.002Z</time></trkpt><trkpt lat="37.220337375243794" lon="14.378870706121335"><ele>251.0</ele><time>2026-03-29T12:55:04.002Z</time></trkpt><trkpt lat="37.22002126219222" lon="14.37896455342578"><ele>250.5</ele><time>2026-03-29T12:55:05.002Z</time></trkpt><trkpt lat="37.21971098827279" lon="14.3790588917805"><ele>250.0</ele><time>2026-03-29T12:55:06.002Z</time></trkpt><trkpt lat="37.219408748239836" lon="14.379144548797308"><ele>250.0</ele><time>2026-03-29T12:55:07.002Z</time></trkpt><trkpt lat="37.21911526280349" lon="14.379224458096516"><ele>250.0</ele><time>2026-03-29T12:55:08.002Z</time></trkpt><trkpt lat="37.218837628969304" lon="14.379299255422266"><ele>250.5</ele><time>2026-03-29T12:55:09.002Z</time></trkpt><trkpt lat="37.21856159403227" lon="14.37937456258776"><ele>251.0</ele><time>2026-03-29T12:55:10.002Z</time></trkpt><trkpt lat="37.218278789011784" lon="14.379441175356616"><ele>249.0</ele><time>2026-03-29T12:55:11.002Z</time></trkpt><trkpt lat="37.21799563154133" lon="14.379488257920652"><ele>247.0</ele><time>2026-03-29T12:55:12.002Z</time></trkpt><trkpt lat="37.2177101549967" lon="14.379501350129214"><ele>247.0</ele><time>2026-03-29T12:55:13.002Z</time></trkpt><trkpt lat="37.217423191664636" lon="14.379479737867243"><ele>247.0</ele><time>2026-03-29T12:55:14.002Z</time></trkpt><trkpt lat="37.21713652865985" lon="14.379424987503155"><ele>244.0</ele><time>2026-03-29T12:55:15.002Z</time></trkpt><trkpt lat="37.216858677792246" lon="14.379317595948224"><ele>241.0</ele><time>2026-03-29T12:55:16.002Z</time></trkpt><trkpt lat="37.21657603010204" lon="14.379205949148403"><ele>241.5</ele><time>2026-03-29T12:55:17.002Z</time></trkpt><trkpt lat="37.21630045103586" lon="14.379053954742636"><ele>242.0</ele><time>2026-03-29T12:55:18.002Z</time></trkpt><trkpt lat="37.21602713898518" lon="14.37888350556084"><ele>241.0</ele><time>2026-03-29T12:55:19.002Z</time></trkpt><trkpt lat="37.21575067291098" lon="14.378708580758117"><ele>240.0</ele><time>2026-03-29T12:55:20.002Z</time></trkpt><trkpt lat="37.215469891799145" lon="14.378534064333786"><ele>237.5</ele><time>2026-03-29T12:55:21.002Z</time></trkpt><trkpt lat="37.21518787487941" lon="14.378367383093504"><ele>235.0</ele><time>2026-03-29T12:55:22.002Z</time></trkpt><trkpt lat="37.214899269984315" lon="14.378222447723246"><ele>235.0</ele><time>2026-03-29T12:55:23.002Z</time></trkpt><trkpt lat="37.21460025026639" lon="14.378099298353813"><ele>235.0</ele><time>2026-03-29T12:55:24.002Z</time></trkpt><trkpt lat="37.21429415489606" lon="14.3779909245311"><ele>232.5</ele><time>2026-03-29T12:55:25.002Z</time></trkpt><trkpt lat="37.21398205362176" lon="14.377891024328676"><ele>230.0</ele><time>2026-03-29T12:55:26.002Z</time></trkpt><trkpt lat="37.21367275835838" lon="14.377792523109129"><ele>230.0</ele><time>2026-03-29T12:55:27.002Z</time></trkpt><trkpt lat="37.213367807131554" lon="14.37769395532985"><ele>230.0</ele><time>2026-03-29T12:55:28.002Z</time></trkpt><trkpt lat="37.213069516365564" lon="14.37759559075733"><ele>228.5</ele><time>2026-03-29T12:55:29.002Z</time></trkpt><trkpt lat="37.212780198932386" lon="14.377493350303897"><ele>227.0</ele><time>2026-03-29T12:55:30.002Z</time></trkpt><trkpt lat="37.212492894094396" lon="14.377396688752347"><ele>224.5</ele><time>2026-03-29T12:55:31.002Z</time></trkpt><trkpt lat="37.212204120136825" lon="14.377298547054234"><ele>222.0</ele><time>2026-03-29T12:55:32.002Z</time></trkpt><trkpt lat="37.211915702327644" lon="14.37720034333473"><ele>221.0</ele><time>2026-03-29T12:55:33.002Z</time></trkpt><trkpt lat="37.21163143768569" lon="14.377098051417995"><ele>220.0</ele><time>2026-03-29T12:55:34.002Z</time></trkpt><trkpt lat="37.211346191259906" lon="14.376996190135397"><ele>218.5</ele><time>2026-03-29T12:55:35.002Z</time></trkpt><trkpt lat="37.211064282419166" lon="14.376898985235673"><ele>217.0</ele><time>2026-03-29T12:55:36.002Z</time></trkpt><trkpt lat="37.21078259330407" lon="14.376814126777454"><ele>216.0</ele><time>2026-03-29T12:55:37.002Z</time></trkpt><trkpt lat="37.210502108052836" lon="14.376725121217998"><ele>215.0</ele><time>2026-03-29T12:55:38.002Z</time></trkpt><trkpt lat="37.21022398988305" lon="14.376632227704834"><ele>215.0</ele><time>2026-03-29T12:55:39.002Z</time></trkpt><trkpt lat="37.209948362166514" lon="14.376529946857518"><ele>215.0</ele><time>2026-03-29T12:55:40.002Z</time></trkpt><trkpt lat="37.20968643693006" lon="14.376403845733414"><ele>211.0</ele><time>2026-03-29T12:55:41.002Z</time></trkpt><trkpt lat="37.20944053808644" lon="14.376247607432024"><ele>207.0</ele><time>2026-03-29T12:55:42.002Z</time></trkpt><trkpt lat="37.20920514008792" lon="14.376051475750277"><ele>209.0</ele><time>2026-03-29T12:55:43.002Z</time></trkpt><trkpt lat="37.20898604194836" lon="14.37582779150085"><ele>211.0</ele><time>2026-03-29T12:55:44.002Z</time></trkpt><trkpt lat="37.20878895015266" lon="14.375582136566566"><ele>207.5</ele><time>2026-03-29T12:55:45.002Z</time></trkpt><trkpt lat="37.20860847532216" lon="14.375312437928882"><ele>204.0</ele><time>2026-03-29T12:55:46.002Z</time></trkpt><trkpt lat="37.20843950712043" lon="14.375036540614513"><ele>204.0</ele><time>2026-03-29T12:55:47.002Z</time></trkpt><trkpt lat="37.208261065228385" lon="14.374776190589643"><ele>204.0</ele><time>2026-03-29T12:55:48.002Z</time></trkpt><trkpt lat="37.208066085395345" lon="14.374542008210078"><ele>200.5</ele><time>2026-03-29T12:55:49.001Z</time></trkpt><trkpt lat="37.20785514812049" lon="14.374330386956345"><ele>197.0</ele><time>2026-03-29T12:55:50.001Z</time></trkpt><trkpt lat="37.20762618007589" lon="14.374159056951372"><ele>197.0</ele><time>2026-03-29T12:55:51.001Z</time></trkpt><trkpt lat="37.20737883168457" lon="14.374026111083671"><ele>197.0</ele><time>2026-03-29T12:55:52.001Z</time></trkpt><trkpt lat="37.20711567840052" lon="14.37392367583898"><ele>197.5</ele><time>2026-03-29T12:55:53.001Z</time></trkpt><trkpt lat="37.20683353001575" lon="14.373869061855439"><ele>198.0</ele><time>2026-03-29T12:55:54.001Z</time></trkpt><trkpt lat="37.20654898043708" lon="14.373847339422577"><ele>194.5</ele><time>2026-03-29T12:55:55.001Z</time></trkpt><trkpt lat="37.20626012138394" lon="14.373857867446812"><ele>191.0</ele><time>2026-03-29T12:55:56.001Z</time></trkpt><trkpt lat="37.20596831173194" lon="14.373868479970234"><ele>191.0</ele><time>2026-03-29T12:55:57.001Z</time></trkpt><trkpt lat="37.205672088957805" lon="14.37386517448286"><ele>191.0</ele><time>2026-03-29T12:55:58.001Z</time></trkpt><trkpt lat="37.205373995653815" lon="14.37386472098783"><ele>186.5</ele><time>2026-03-29T12:55:59.001Z</time></trkpt><trkpt lat="37.205077863296154" lon="14.373863409060842"><ele>182.0</ele><time>2026-03-29T12:56:00.001Z</time></trkpt><trkpt lat="37.20478347928117" lon="14.373864268757128"><ele>180.0</ele><time>2026-03-29T12:56:01.001Z</time></trkpt><trkpt lat="37.20449402278392" lon="14.373863446547022"><ele>178.0</ele><time>2026-03-29T12:56:02.001Z</time></trkpt><trkpt lat="37.20420914546121" lon="14.373860149367488"><ele>178.5</ele><time>2026-03-29T12:56:03.001Z</time></trkpt><trkpt lat="37.20393175033215" lon="14.37385567919218"><ele>179.0</ele><time>2026-03-29T12:56:04.001Z</time></trkpt><trkpt lat="37.20366703836688" lon="14.373837104341133"><ele>177.5</ele><time>2026-03-29T12:56:05.001Z</time></trkpt><trkpt lat="37.20341669237774" lon="14.373791636110774"><ele>176.0</ele><time>2026-03-29T12:56:06.001Z</time></trkpt><trkpt lat="37.20316702254908" lon="14.37370920604677"><ele>177.0</ele><time>2026-03-29T12:56:07.001Z</time></trkpt><trkpt lat="37.202926683835045" lon="14.373591991824972"><ele>178.0</ele><time>2026-03-29T12:56:08.001Z</time></trkpt><trkpt lat="37.20270642711413" lon="14.373442547139204"><ele>178.0</ele><time>2026-03-29T12:56:09.001Z</time></trkpt><trkpt lat="37.20251032379502" lon="14.373272706671823"><ele>178.0</ele><time>2026-03-29T12:56:10.001Z</time></trkpt><trkpt lat="37.202331856653856" lon="14.373082866260328"><ele>179.66666666666669</ele><time>2026-03-29T12:56:11.001Z</time></trkpt><trkpt lat="37.20217543272586" lon="14.372875088568932"><ele>181.33333333333334</ele><time>2026-03-29T12:56:12.001Z</time></trkpt><trkpt lat="37.20204353379008" lon="14.37265772555871"><ele>183.0</ele><time>2026-03-29T12:56:13.001Z</time></trkpt><trkpt lat="37.20193773093986" lon="14.372436441318012"><ele>183.0</ele><time>2026-03-29T12:56:14.001Z</time></trkpt><trkpt lat="37.201843845985735" lon="14.372216502912613"><ele>183.0</ele><time>2026-03-29T12:56:15.001Z</time></trkpt><trkpt lat="37.20175156711355" lon="14.37198099075314"><ele>183.0</ele><time>2026-03-29T12:56:16.001Z</time></trkpt><trkpt lat="37.20165841102447" lon="14.371721952993818"><ele>182.0</ele><time>2026-03-29T12:56:17.001Z</time></trkpt><trkpt lat="37.20157622646707" lon="14.371470456710593"><ele>181.0</ele><time>2026-03-29T12:56:18.001Z</time></trkpt><trkpt lat="37.201508227977605" lon="14.371238801565815"><ele>180.0</ele><time>2026-03-29T12:56:19.001Z</time></trkpt><trkpt lat="37.20143526180238" lon="14.371005911991192"><ele>182.0</ele><time>2026-03-29T12:56:20.001Z</time></trkpt><trkpt lat="37.20135845775425" lon="14.370790233109348"><ele>184.0</ele><time>2026-03-29T12:56:21.001Z</time></trkpt><trkpt lat="37.20127148368299" lon="14.370585927255057"><ele>186.0</ele><time>2026-03-29T12:56:22.001Z</time></trkpt><trkpt lat="37.20118111355605" lon="14.37040813096372"><ele>186.0</ele><time>2026-03-29T12:56:23.001Z</time></trkpt><trkpt lat="37.20109300658064" lon="14.370252240841317"><ele>186.0</ele><time>2026-03-29T12:56:24.001Z</time></trkpt><trkpt lat="37.20100346804415" lon="14.370105562371066"><ele>186.0</ele><time>2026-03-29T12:56:25.001Z</time></trkpt><trkpt lat="37.20082430844937" lon="14.369833444705337"><ele>186.0</ele><time>2026-03-29T12:56:27.001Z</time></trkpt><trkpt lat="37.200733505758485" lon="14.36970594118407"><ele>186.0</ele><time>2026-03-29T12:56:28.001Z</time></trkpt><trkpt lat="37.20064180314039" lon="14.369584020823988"><ele>186.0</ele><time>2026-03-29T12:56:29.001Z</time></trkpt><trkpt lat="37.20054169264888" lon="14.369461512617052"><ele>186.0</ele><time>2026-03-29T12:56:30.001Z</time></trkpt><trkpt lat="37.20043460680147" lon="14.36933645250147"><ele>186.33333333333334</ele><time>2026-03-29T12:56:31.001Z</time></trkpt><trkpt lat="37.20031935112403" lon="14.369204232535717"><ele>186.66666666666669</ele><time>2026-03-29T12:56:32.001Z</time></trkpt><trkpt lat="37.200196457182905" lon="14.369057961482332"><ele>187.0</ele><time>2026-03-29T12:56:33.001Z</time></trkpt><trkpt lat="37.20007519550533" lon="14.368907934149316"><ele>186.0</ele><time>2026-03-29T12:56:34.001Z</time></trkpt><trkpt lat="37.19996055084788" lon="14.36875819354064"><ele>185.0</ele><time>2026-03-29T12:56:35.001Z</time></trkpt><trkpt lat="37.1998542303721" lon="14.368612268368654"><ele>184.0</ele><time>2026-03-29T12:56:36.001Z</time></trkpt><trkpt lat="37.19975099181597" lon="14.368469789860761"><ele>184.0</ele><time>2026-03-29T12:56:37.001Z</time></trkpt><trkpt lat="37.19965009690957" lon="14.368344311338669"><ele>184.0</ele><time>2026-03-29T12:56:38.001Z</time></trkpt><trkpt lat="37.199552508896026" lon="14.368222498604275"><ele>184.0</ele><time>2026-03-29T12:56:39.001Z</time></trkpt><trkpt lat="37.1994511861145" lon="14.368099325323069"><ele>184.0</ele><time>2026-03-29T12:56:40.001Z</time></trkpt><trkpt lat="37.19934720274911" lon="14.367967267459184"><ele>182.66666666666669</ele><time>2026-03-29T12:56:41.001Z</time></trkpt><trkpt lat="37.19923784469409" lon="14.367836597661656"><ele>181.33333333333334</ele><time>2026-03-29T12:56:42.001Z</time></trkpt><trkpt lat="37.199122946120184" lon="14.3677072322592"><ele>180.0</ele><time>2026-03-29T12:56:43.001Z</time></trkpt><trkpt lat="37.19900632728396" lon="14.367578113485244"><ele>179.33333333333334</ele><time>2026-03-29T12:56:44.001Z</time></trkpt><trkpt lat="37.19888483196455" lon="14.367446996095255"><ele>178.66666666666669</ele><time>2026-03-29T12:56:45.001Z</time></trkpt><trkpt lat="37.19876058653094" lon="14.367312963894383"><ele>178.0</ele><time>2026-03-29T12:56:46.001Z</time></trkpt><trkpt lat="37.19863781305399" lon="14.367173911938124"><ele>178.0</ele><time>2026-03-29T12:56:47.001Z</time></trkpt><trkpt lat="37.19851506483586" lon="14.367030109254422"><ele>178.0</ele><time>2026-03-29T12:56:48.001Z</time></trkpt><trkpt lat="37.198390951182596" lon="14.366884240964819"><ele>178.0</ele><time>2026-03-29T12:56:49.001Z</time></trkpt><trkpt lat="37.19826547247272" lon="14.366736398371943"><ele>179.0</ele><time>2026-03-29T12:56:50.001Z</time></trkpt><trkpt lat="37.19813721719376" lon="14.366590456625072"><ele>180.0</ele><time>2026-03-29T12:56:51.001Z</time></trkpt><trkpt lat="37.19800972303119" lon="14.366438230407363"><ele>181.0</ele><time>2026-03-29T12:56:52.002Z</time></trkpt><trkpt lat="37.19788080587691" lon="14.36628603854034"><ele>179.0</ele><time>2026-03-29T12:56:53.002Z</time></trkpt><trkpt lat="37.19775073656809" lon="14.366130549382245"><ele>177.0</ele><time>2026-03-29T12:56:54.002Z</time></trkpt><trkpt lat="37.19762131067306" lon="14.365972346381888"><ele>175.0</ele><time>2026-03-29T12:56:55.002Z</time></trkpt><trkpt lat="37.19748838640097" lon="14.365816671793626"><ele>175.0</ele><time>2026-03-29T12:56:56.002Z</time></trkpt><trkpt lat="37.19735310032778" lon="14.365656080987357"><ele>175.0</ele><time>2026-03-29T12:56:57.002Z</time></trkpt><trkpt lat="37.19722182938408" lon="14.365491143217866"><ele>175.0</ele><time>2026-03-29T12:56:58.002Z</time></trkpt><trkpt lat="37.197086242531654" lon="14.365331498621558"><ele>173.66666666666669</ele><time>2026-03-29T12:56:59.002Z</time></trkpt><trkpt lat="37.19694916562088" lon="14.365164974262568"><ele>172.33333333333334</ele><time>2026-03-29T12:57:00.002Z</time></trkpt><trkpt lat="37.1968099913567" lon="14.36500101424352"><ele>171.0</ele><time>2026-03-29T12:57:01.002Z</time></trkpt><trkpt lat="37.19667089413947" lon="14.364835307055628"><ele>170.66666666666666</ele><time>2026-03-29T12:57:02.002Z</time></trkpt><trkpt lat="37.19653364538129" lon="14.364673247928396"><ele>170.33333333333331</ele><time>2026-03-29T12:57:03.002Z</time></trkpt><trkpt lat="37.1963984762483" lon="14.364509786503467"><ele>170.0</ele><time>2026-03-29T12:57:04.002Z</time></trkpt><trkpt lat="37.19626566041574" lon="14.364347030912311"><ele>170.0</ele><time>2026-03-29T12:57:05.002Z</time></trkpt><trkpt lat="37.19613167789769" lon="14.36418191898055"><ele>170.0</ele><time>2026-03-29T12:57:06.002Z</time></trkpt><trkpt lat="37.19599822841772" lon="14.364012958548152"><ele>170.0</ele><time>2026-03-29T12:57:07.002Z</time></trkpt><trkpt lat="37.19586271010629" lon="14.363828133523883"><ele>169.33333333333331</ele><time>2026-03-29T12:57:08.002Z</time></trkpt><trkpt lat="37.19572737813651" lon="14.363630122303908"><ele>168.66666666666666</ele><time>2026-03-29T12:57:09.002Z</time></trkpt><trkpt lat="37.1955977985635" lon="14.36341555230178"><ele>168.0</ele><time>2026-03-29T12:57:10.002Z</time></trkpt><trkpt lat="37.195483950597044" lon="14.363189748420353"><ele>167.33333333333334</ele><time>2026-03-29T12:57:11.002Z</time></trkpt><trkpt lat="37.19537625937733" lon="14.362953541993328"><ele>166.66666666666669</ele><time>2026-03-29T12:57:12.002Z</time></trkpt><trkpt lat="37.195276086520145" lon="14.362703403297163"><ele>166.0</ele><time>2026-03-29T12:57:13.002Z</time></trkpt><trkpt lat="37.195182200608336" lon="14.362444449764984"><ele>166.5</ele><time>2026-03-29T12:57:14.002Z</time></trkpt><trkpt lat="37.195084059916084" lon="14.362187986930834"><ele>167.0</ele><time>2026-03-29T12:57:15.002Z</time></trkpt><trkpt lat="37.19498484582268" lon="14.361923919111819"><ele>167.0</ele><time>2026-03-29T12:57:16.002Z</time></trkpt><trkpt lat="37.19488005460978" lon="14.36165568434177"><ele>167.0</ele><time>2026-03-29T12:57:17.002Z</time></trkpt><trkpt lat="37.194772582249755" lon="14.361381860388391"><ele>167.0</ele><time>2026-03-29T12:57:18.002Z</time></trkpt><trkpt lat="37.194663972609185" lon="14.361107837471327"><ele>167.0</ele><time>2026-03-29T12:57:19.002Z</time></trkpt><trkpt lat="37.1945576146238" lon="14.360830784886318"><ele>167.0</ele><time>2026-03-29T12:57:20.002Z</time></trkpt><trkpt lat="37.194448827720244" lon="14.360553192751368"><ele>167.0</ele><time>2026-03-29T12:57:21.002Z</time></trkpt><trkpt lat="37.194332591806045" lon="14.360279954629544"><ele>165.0</ele><time>2026-03-29T12:57:22.002Z</time></trkpt><trkpt lat="37.1941996806284" lon="14.360008244421312"><ele>163.0</ele><time>2026-03-29T12:57:23.002Z</time></trkpt><trkpt lat="37.19404354672499" lon="14.359755145952867"><ele>162.0</ele><time>2026-03-29T12:57:24.002Z</time></trkpt><trkpt lat="37.19387671540827" lon="14.359516052158462"><ele>161.0</ele><time>2026-03-29T12:57:25.002Z</time></trkpt><trkpt lat="37.19368703777861" lon="14.359297491688313"><ele>161.0</ele><time>2026-03-29T12:57:26.002Z</time></trkpt><trkpt lat="37.193479885236925" lon="14.359101817319816"><ele>161.0</ele><time>2026-03-29T12:57:27.002Z</time></trkpt><trkpt lat="37.19326001187271" lon="14.358921895575339"><ele>158.5</ele><time>2026-03-29T12:57:28.002Z</time></trkpt><trkpt lat="37.1930303327822" lon="14.35876360263772"><ele>156.0</ele><time>2026-03-29T12:57:29.002Z</time></trkpt><trkpt lat="37.192793002505844" lon="14.358613119193917"><ele>156.0</ele><time>2026-03-29T12:57:30.002Z</time></trkpt><trkpt lat="37.19254964362584" lon="14.358462544249049"><ele>156.0</ele><time>2026-03-29T12:57:31.002Z</time></trkpt><trkpt lat="37.192304060470924" lon="14.35830434796853"><ele>156.5</ele><time>2026-03-29T12:57:32.002Z</time></trkpt><trkpt lat="37.19205512684979" lon="14.358145042004502"><ele>157.0</ele><time>2026-03-29T12:57:33.002Z</time></trkpt><trkpt lat="37.19180518591927" lon="14.357984142280472"><ele>157.0</ele><time>2026-03-29T12:57:34.002Z</time></trkpt><trkpt lat="37.19154780173352" lon="14.357814960849451"><ele>157.0</ele><time>2026-03-29T12:57:35.002Z</time></trkpt><trkpt lat="37.19128234641845" lon="14.357643287234115"><ele>156.0</ele><time>2026-03-29T12:57:36.002Z</time></trkpt><trkpt lat="37.1910111675439" lon="14.35747167631845"><ele>155.0</ele><time>2026-03-29T12:57:37.002Z</time></trkpt><trkpt lat="37.1907383990604" lon="14.357299001932887"><ele>154.0</ele><time>2026-03-29T12:57:38.002Z</time></trkpt><trkpt lat="37.19046487543335" lon="14.35712570884497"><ele>153.0</ele><time>2026-03-29T12:57:39.002Z</time></trkpt><trkpt lat="37.19019213034335" lon="14.356951912472995"><ele>153.0</ele><time>2026-03-29T12:57:40.002Z</time></trkpt><trkpt lat="37.18991898993753" lon="14.356778305333064"><ele>153.0</ele><time>2026-03-29T12:57:41.002Z</time></trkpt><trkpt lat="37.189646500075774" lon="14.356603311936215"><ele>152.0</ele><time>2026-03-29T12:57:42.002Z</time></trkpt><trkpt lat="37.18937749016422" lon="14.356434230124666"><ele>151.0</ele><time>2026-03-29T12:57:43.002Z</time></trkpt><trkpt lat="37.18910808856701" lon="14.356265719161096"><ele>149.5</ele><time>2026-03-29T12:57:44.002Z</time></trkpt><trkpt lat="37.18884158601499" lon="14.356095383585643"><ele>148.0</ele><time>2026-03-29T12:57:45.002Z</time></trkpt><trkpt lat="37.18857664590375" lon="14.355923236882324"><ele>148.0</ele><time>2026-03-29T12:57:46.002Z</time></trkpt><trkpt lat="37.18831178208942" lon="14.35575220614443"><ele>148.0</ele><time>2026-03-29T12:57:47.001Z</time></trkpt><trkpt lat="37.18804768084372" lon="14.355581335745468"><ele>146.5</ele><time>2026-03-29T12:57:48.001Z</time></trkpt><trkpt lat="37.187780749141574" lon="14.355410784540865"><ele>145.0</ele><time>2026-03-29T12:57:49.001Z</time></trkpt><trkpt lat="37.18751198063406" lon="14.355240824547755"><ele>143.5</ele><time>2026-03-29T12:57:50.001Z</time></trkpt><trkpt lat="37.18724205192055" lon="14.35507400618741"><ele>142.0</ele><time>2026-03-29T12:57:51.001Z</time></trkpt><trkpt lat="37.18697313285652" lon="14.354905906503586"><ele>142.0</ele><time>2026-03-29T12:57:52.001Z</time></trkpt><trkpt lat="37.18670661753302" lon="14.354737135916658"><ele>142.0</ele><time>2026-03-29T12:57:53.002Z</time></trkpt><trkpt lat="37.18644765407999" lon="14.3545734368542"><ele>143.0</ele><time>2026-03-29T12:57:54.001Z</time></trkpt><trkpt lat="37.18619532107824" lon="14.354409162722094"><ele>144.0</ele><time>2026-03-29T12:57:55.001Z</time></trkpt><trkpt lat="37.18596110605975" lon="14.354244744656985"><ele>144.0</ele><time>2026-03-29T12:57:56.001Z</time></trkpt><trkpt lat="37.18573319528144" lon="14.354061204362932"><ele>144.0</ele><time>2026-03-29T12:57:57.001Z</time></trkpt><trkpt lat="37.185519301044046" lon="14.353851605675766"><ele>143.5</ele><time>2026-03-29T12:57:58.001Z</time></trkpt><trkpt lat="37.185320629359005" lon="14.353609515718015"><ele>143.0</ele><time>2026-03-29T12:57:59.001Z</time></trkpt><trkpt lat="37.185140231545816" lon="14.353343177414986"><ele>143.0</ele><time>2026-03-29T12:58:00.001Z</time></trkpt><trkpt lat="37.18498310434863" lon="14.353059039327162"><ele>143.0</ele><time>2026-03-29T12:58:01.001Z</time></trkpt><trkpt lat="37.18483160046327" lon="14.352771066420786"><ele>142.0</ele><time>2026-03-29T12:58:02.001Z</time></trkpt><trkpt lat="37.18467483900334" lon="14.352494351139827"><ele>141.0</ele><time>2026-03-29T12:58:03.001Z</time></trkpt><trkpt lat="37.18450348411688" lon="14.352236291294691"><ele>139.0</ele><time>2026-03-29T12:58:04.001Z</time></trkpt><trkpt lat="37.18431066513749" lon="14.352010525694721"><ele>137.0</ele><time>2026-03-29T12:58:05.001Z</time></trkpt><trkpt lat="37.18409462934323" lon="14.35180198501147"><ele>135.0</ele><time>2026-03-29T12:58:06.001Z</time></trkpt><trkpt lat="37.18387249766539" lon="14.351591100806932"><ele>133.0</ele><time>2026-03-29T12:58:07.001Z</time></trkpt><trkpt lat="37.183650605521855" lon="14.351373451835721"><ele>133.0</ele><time>2026-03-29T12:58:08.001Z</time></trkpt><trkpt lat="37.18342964530717" lon="14.35115124033831"><ele>133.0</ele><time>2026-03-29T12:58:09.001Z</time></trkpt><trkpt lat="37.1832114618452" lon="14.35092090124574"><ele>133.5</ele><time>2026-03-29T12:58:10.001Z</time></trkpt><trkpt lat="37.18300408204112" lon="14.350672067875985"><ele>134.0</ele><time>2026-03-29T12:58:11.001Z</time></trkpt><trkpt lat="37.18281155770541" lon="14.350394861344038"><ele>134.0</ele><time>2026-03-29T12:58:12.001Z</time></trkpt><trkpt lat="37.182631213487724" lon="14.350111986583443"><ele>134.0</ele><time>2026-03-29T12:58:13.001Z</time></trkpt><trkpt lat="37.18245624922013" lon="14.34982247893495"><ele>134.0</ele><time>2026-03-29T12:58:14.001Z</time></trkpt><trkpt lat="37.18227708179942" lon="14.349535640980074"><ele>134.0</ele><time>2026-03-29T12:58:15.001Z</time></trkpt><trkpt lat="37.182094342977464" lon="14.349251594927328"><ele>134.0</ele><time>2026-03-29T12:58:16.001Z</time></trkpt><trkpt lat="37.18191338764456" lon="14.3489714791555"><ele>134.0</ele><time>2026-03-29T12:58:17.001Z</time></trkpt><trkpt lat="37.18173605240733" lon="14.348692963530649"><ele>129.5</ele><time>2026-03-29T12:58:18.001Z</time></trkpt><trkpt lat="37.18156485050297" lon="14.348423185472717"><ele>125.0</ele><time>2026-03-29T12:58:19.001Z</time></trkpt><trkpt lat="37.181397342581214" lon="14.348163035223585"><ele>120.5</ele><time>2026-03-29T12:58:20.001Z</time></trkpt><trkpt lat="37.1812263754527" lon="14.347910551939412"><ele>116.0</ele><time>2026-03-29T12:58:21.001Z</time></trkpt><trkpt lat="37.18104457616306" lon="14.347672641091886"><ele>116.0</ele><time>2026-03-29T12:58:22.001Z</time></trkpt><trkpt lat="37.18085751690844" lon="14.347446868708403"><ele>116.0</ele><time>2026-03-29T12:58:23.001Z</time></trkpt><trkpt lat="37.180651115115445" lon="14.347247303136138"><ele>112.0</ele><time>2026-03-29T12:58:24.001Z</time></trkpt><trkpt lat="37.18043370789632" lon="14.347068834635817"><ele>108.0</ele><time>2026-03-29T12:58:25.001Z</time></trkpt><trkpt lat="37.18020133239896" lon="14.346920193367827"><ele>108.0</ele><time>2026-03-29T12:58:26.001Z</time></trkpt><trkpt lat="37.1799547528883" lon="14.346801399024796"><ele>108.0</ele><time>2026-03-29T12:58:27.001Z</time></trkpt><trkpt lat="37.179696422967375" lon="14.346703988621693"><ele>108.5</ele><time>2026-03-29T12:58:28.001Z</time></trkpt><trkpt lat="37.17942826381346" lon="14.346613624967961"><ele>109.0</ele><time>2026-03-29T12:58:29.001Z</time></trkpt><trkpt lat="37.17915939073679" lon="14.346521251084365"><ele>106.5</ele><time>2026-03-29T12:58:30.001Z</time></trkpt><trkpt lat="37.17889204662329" lon="14.34642230254299"><ele>104.0</ele><time>2026-03-29T12:58:31.001Z</time></trkpt><trkpt lat="37.178625785591464" lon="14.346318878046663"><ele>101.0</ele><time>2026-03-29T12:58:32.001Z</time></trkpt><trkpt lat="37.17835864626809" lon="14.346219588578503"><ele>98.0</ele><time>2026-03-29T12:58:33.001Z</time></trkpt><trkpt lat="37.178096189321046" lon="14.346118347312919"><ele>97.0</ele><time>2026-03-29T12:58:34.001Z</time></trkpt><trkpt lat="37.17783933548992" lon="14.346004476622742"><ele>96.0</ele><time>2026-03-29T12:58:35.001Z</time></trkpt><trkpt lat="37.17759207091496" lon="14.345867110835357"><ele>96.0</ele><time>2026-03-29T12:58:36.001Z</time></trkpt><trkpt lat="37.17735297225242" lon="14.345702312436062"><ele>96.0</ele><time>2026-03-29T12:58:37.001Z</time></trkpt><trkpt lat="37.177119923173954" lon="14.345518739811556"><ele>94.0</ele><time>2026-03-29T12:58:38.001Z</time></trkpt><trkpt lat="37.176898737829866" lon="14.345325127131645"><ele>92.0</ele><time>2026-03-29T12:58:39.001Z</time></trkpt><trkpt lat="37.17667667390357" lon="14.345123068030176"><ele>93.0</ele><time>2026-03-29T12:58:40.001Z</time></trkpt><trkpt lat="37.176443910831004" lon="14.344925207866819"><ele>94.0</ele><time>2026-03-29T12:58:41.001Z</time></trkpt><trkpt lat="37.17621173323737" lon="14.344728475154916"><ele>96.5</ele><time>2026-03-29T12:58:42.001Z</time></trkpt><trkpt lat="37.17598342652107" lon="14.344533919950054"><ele>99.0</ele><time>2026-03-29T12:58:43.001Z</time></trkpt><trkpt lat="37.175761267055414" lon="14.344348709524963"><ele>96.0</ele><time>2026-03-29T12:58:44.001Z</time></trkpt><trkpt lat="37.17554442057415" lon="14.344167221238925"><ele>93.0</ele><time>2026-03-29T12:58:45.001Z</time></trkpt><trkpt lat="37.17533170950348" lon="14.343989183957184"><ele>95.5</ele><time>2026-03-29T12:58:46.001Z</time></trkpt><trkpt lat="37.175124226316406" lon="14.343813684112678"><ele>98.0</ele><time>2026-03-29T12:58:47.001Z</time></trkpt><trkpt lat="37.17493306608229" lon="14.343654120981554"><ele>96.66666666666666</ele><time>2026-03-29T12:58:48.001Z</time></trkpt><trkpt lat="37.174754717329066" lon="14.343514007580538"><ele>95.33333333333333</ele><time>2026-03-29T12:58:49.001Z</time></trkpt><trkpt lat="37.17458574423675" lon="14.34340837931299"><ele>94.0</ele><time>2026-03-29T12:58:50.001Z</time></trkpt><trkpt lat="37.17441646813789" lon="14.343318461568439"><ele>94.0</ele><time>2026-03-29T12:58:51.001Z</time></trkpt><trkpt lat="37.17425257534876" lon="14.34324365947093"><ele>94.0</ele><time>2026-03-29T12:58:52.001Z</time></trkpt><trkpt lat="37.174075703069974" lon="14.343168778280843"><ele>94.0</ele><time>2026-03-29T12:58:53.001Z</time></trkpt><trkpt lat="37.173891565982366" lon="14.343103160986304"><ele>93.33333333333333</ele><time>2026-03-29T12:58:54.001Z</time></trkpt><trkpt lat="37.1736999179229" lon="14.343048355413265"><ele>92.66666666666667</ele><time>2026-03-29T12:58:55.001Z</time></trkpt><trkpt lat="37.17350921803387" lon="14.342998395914934"><ele>92.0</ele><time>2026-03-29T12:58:56.001Z</time></trkpt><trkpt lat="37.1733346081283" lon="14.342950722986581"><ele>94.0</ele><time>2026-03-29T12:58:57.001Z</time></trkpt><trkpt lat="37.17317468827615" lon="14.342903779731627"><ele>96.0</ele><time>2026-03-29T12:58:58.001Z</time></trkpt><trkpt lat="37.17302681839361" lon="14.342860394591497"><ele>98.0</ele><time>2026-03-29T12:58:59.001Z</time></trkpt><trkpt lat="37.17288604605992" lon="14.342823162077424"><ele>98.0</ele><time>2026-03-29T12:59:00.001Z</time></trkpt><trkpt lat="37.172754886688615" lon="14.342791726940394"><ele>98.0</ele><time>2026-03-29T12:59:01.001Z</time></trkpt><trkpt lat="37.172638564936854" lon="14.342768210002205"><ele>98.0</ele><time>2026-03-29T12:59:02.001Z</time></trkpt><trkpt lat="37.17254151220722" lon="14.342742849803258"><ele>98.0</ele><time>2026-03-29T12:59:03.001Z</time></trkpt><trkpt lat="37.17245009483657" lon="14.342690632230473"><ele>98.0</ele><time>2026-03-29T12:59:04.001Z</time></trkpt><trkpt lat="37.17236884137485" lon="14.342606957849236"><ele>98.0</ele><time>2026-03-29T12:59:05.001Z</time></trkpt><trkpt lat="37.17228932889966" lon="14.342521371421993"><ele>98.0</ele><time>2026-03-29T12:59:06.001Z</time></trkpt><trkpt lat="37.1722013205004" lon="14.342478648132438"><ele>98.0</ele><time>2026-03-29T12:59:07.001Z</time></trkpt><trkpt lat="37.172037967224554" lon="14.342547153722569"><ele>98.0</ele><time>2026-03-29T12:59:09.001Z</time></trkpt><trkpt lat="37.17198826549135" lon="14.342646392362274"><ele>98.0</ele><time>2026-03-29T12:59:10.001Z</time></trkpt><trkpt lat="37.171968160685665" lon="14.342760695293727"><ele>98.0</ele><time>2026-03-29T12:59:11.001Z</time></trkpt><trkpt lat="37.17197997671308" lon="14.342887483422107"><ele>98.0</ele><time>2026-03-29T12:59:12.002Z</time></trkpt><trkpt lat="37.17201828537586" lon="14.343011042732014"><ele>98.0</ele><time>2026-03-29T12:59:13.002Z</time></trkpt><trkpt lat="37.172058019462675" lon="14.343140667351026"><ele>97.25</ele><time>2026-03-29T12:59:14.002Z</time></trkpt><trkpt lat="37.17206559532564" lon="14.343289709233604"><ele>96.5</ele><time>2026-03-29T12:59:15.002Z</time></trkpt><trkpt lat="37.17204234454512" lon="14.343459907947018"><ele>95.75</ele><time>2026-03-29T12:59:16.002Z</time></trkpt><trkpt lat="37.17200537397141" lon="14.343653708553543"><ele>95.0</ele><time>2026-03-29T12:59:17.002Z</time></trkpt><trkpt lat="37.1719671802923" lon="14.343867005897035"><ele>93.66666666666667</ele><time>2026-03-29T12:59:18.002Z</time></trkpt><trkpt lat="37.17193266451162" lon="14.34409092744306"><ele>92.33333333333333</ele><time>2026-03-29T12:59:19.002Z</time></trkpt><trkpt lat="37.17190298414577" lon="14.344327416263063"><ele>91.0</ele><time>2026-03-29T12:59:20.002Z</time></trkpt><trkpt lat="37.171877359487134" lon="14.344572174794092"><ele>90.33333333333333</ele><time>2026-03-29T12:59:21.002Z</time></trkpt><trkpt lat="37.17185532065217" lon="14.344817895448317"><ele>89.66666666666667</ele><time>2026-03-29T12:59:22.002Z</time></trkpt><trkpt lat="37.17181482438156" lon="14.34506636917629"><ele>89.0</ele><time>2026-03-29T12:59:23.002Z</time></trkpt><trkpt lat="37.17180333163484" lon="14.345322602754042"><ele>88.33333333333334</ele><time>2026-03-29T12:59:24.002Z</time></trkpt><trkpt lat="37.1717737248671" lon="14.345577190474383"><ele>87.66666666666667</ele><time>2026-03-29T12:59:25.002Z</time></trkpt><trkpt lat="37.17174881727194" lon="14.345827668950465"><ele>87.0</ele><time>2026-03-29T12:59:26.002Z</time></trkpt><trkpt lat="37.17172453861753" lon="14.346076136446023"><ele>87.0</ele><time>2026-03-29T12:59:27.002Z</time></trkpt><trkpt lat="37.171700942580244" lon="14.346319404665497"><ele>87.0</ele><time>2026-03-29T12:59:28.002Z</time></trkpt><trkpt lat="37.17167647881976" lon="14.346558361861154"><ele>87.0</ele><time>2026-03-29T12:59:29.002Z</time></trkpt><trkpt lat="37.17165163691601" lon="14.346794489421372"><ele>86.33333333333333</ele><time>2026-03-29T12:59:30.002Z</time></trkpt><trkpt lat="37.171628553824625" lon="14.347019161153806"><ele>85.66666666666666</ele><time>2026-03-29T12:59:31.002Z</time></trkpt><trkpt lat="37.17160077479378" lon="14.347241243422005"><ele>85.0</ele><time>2026-03-29T12:59:32.002Z</time></trkpt><trkpt lat="37.17156027847175" lon="14.347454039268799"><ele>84.66666666666666</ele><time>2026-03-29T12:59:33.002Z</time></trkpt><trkpt lat="37.171499529600034" lon="14.34766166944333"><ele>84.33333333333333</ele><time>2026-03-29T12:59:34.002Z</time></trkpt><trkpt lat="37.17142266727977" lon="14.347864224326942"><ele>84.0</ele><time>2026-03-29T12:59:35.002Z</time></trkpt><trkpt lat="37.17133760217552" lon="14.34806293904213"><ele>84.0</ele><time>2026-03-29T12:59:36.002Z</time></trkpt><trkpt lat="37.171251117275894" lon="14.348262106317355"><ele>84.0</ele><time>2026-03-29T12:59:37.002Z</time></trkpt><trkpt lat="37.171164564805096" lon="14.348449115362431"><ele>84.0</ele><time>2026-03-29T12:59:38.002Z</time></trkpt><trkpt lat="37.17108633377779" lon="14.348622584856438"><ele>84.0</ele><time>2026-03-29T12:59:39.002Z</time></trkpt><trkpt lat="37.17101667960549" lon="14.348798636196006"><ele>84.0</ele><time>2026-03-29T12:59:40.002Z</time></trkpt><trkpt lat="37.17094744214078" lon="14.348976747676838"><ele>84.0</ele><time>2026-03-29T12:59:41.002Z</time></trkpt><trkpt lat="37.17087795111503" lon="14.34914396717377"><ele>85.0</ele><time>2026-03-29T12:59:42.002Z</time></trkpt><trkpt lat="37.17082266131553" lon="14.349306851144847"><ele>86.0</ele><time>2026-03-29T12:59:43.002Z</time></trkpt><trkpt lat="37.17078601828956" lon="14.349480775760995"><ele>87.0</ele><time>2026-03-29T12:59:44.002Z</time></trkpt><trkpt lat="37.17077319806096" lon="14.349660755108221"><ele>88.0</ele><time>2026-03-29T12:59:45.002Z</time></trkpt><trkpt lat="37.170775444482594" lon="14.349842861560674"><ele>89.25</ele><time>2026-03-29T12:59:46.002Z</time></trkpt><trkpt lat="37.1707855599464" lon="14.350022294836089"><ele>90.5</ele><time>2026-03-29T12:59:47.002Z</time></trkpt><trkpt lat="37.170788288507055" lon="14.350182319057733"><ele>91.75</ele><time>2026-03-29T12:59:48.002Z</time></trkpt><trkpt lat="37.17078591276999" lon="14.350324370226396"><ele>93.0</ele><time>2026-03-29T12:59:49.002Z</time></trkpt><trkpt lat="37.17078979421638" lon="14.350463786020141"><ele>92.2</ele><time>2026-03-29T12:59:50.002Z</time></trkpt><trkpt lat="37.17077366586873" lon="14.350591321160927"><ele>91.4</ele><time>2026-03-29T12:59:51.002Z</time></trkpt><trkpt lat="37.17077028290188" lon="14.350706163770084"><ele>90.60000000000001</ele><time>2026-03-29T12:59:52.002Z</time></trkpt><trkpt lat="37.17076736361665" lon="14.350801587906908"><ele>89.80000000000001</ele><time>2026-03-29T12:59:53.001Z</time></trkpt><trkpt lat="37.17070139700832" lon="14.35093199297224"><ele>89.0</ele><time>2026-03-29T12:59:55.001Z</time></trkpt><trkpt lat="37.17061723064713" lon="14.350961333410684"><ele>87.5</ele><time>2026-03-29T12:59:56.001Z</time></trkpt><trkpt lat="37.170519488908774" lon="14.35098882319453"><ele>86.0</ele><time>2026-03-29T12:59:57.001Z</time></trkpt><trkpt lat="37.17041150775224" lon="14.35102373275655"><ele>84.5</ele><time>2026-03-29T12:59:58.001Z</time></trkpt><trkpt lat="37.17029443968569" lon="14.351066993513095"><ele>83.0</ele><time>2026-03-29T12:59:59.001Z</time></trkpt><trkpt lat="37.17017496476318" lon="14.351111003896623"><ele>83.0</ele><time>2026-03-29T13:00:00.001Z</time></trkpt><trkpt lat="37.17005563121861" lon="14.351154155797301"><ele>83.0</ele><time>2026-03-29T13:00:01.001Z</time></trkpt><trkpt lat="37.16993809283836" lon="14.351194150314699"><ele>83.0</ele><time>2026-03-29T13:00:02.001Z</time></trkpt><trkpt lat="37.16982988397235" lon="14.351233890325442"><ele>83.0</ele><time>2026-03-29T13:00:03.001Z</time></trkpt><trkpt lat="37.169717653051904" lon="14.351276619472248"><ele>82.0</ele><time>2026-03-29T13:00:04.001Z</time></trkpt><trkpt lat="37.16960237665433" lon="14.35131893007155"><ele>81.0</ele><time>2026-03-29T13:00:05.001Z</time></trkpt><trkpt lat="37.16949151803369" lon="14.351380276409943"><ele>80.0</ele><time>2026-03-29T13:00:06.001Z</time></trkpt><trkpt lat="37.16938972570749" lon="14.351464920531312"><ele>79.0</ele><time>2026-03-29T13:00:07.001Z</time></trkpt><trkpt lat="37.169297986353726" lon="14.351565747973012"><ele>79.0</ele><time>2026-03-29T13:00:08.001Z</time></trkpt><trkpt lat="37.169215112139064" lon="14.35168005210344"><ele>79.0</ele><time>2026-03-29T13:00:09.001Z</time></trkpt><trkpt lat="37.16913365107311" lon="14.351805527194538"><ele>79.0</ele><time>2026-03-29T13:00:10.001Z</time></trkpt><trkpt lat="37.16905081724855" lon="14.351935229174225"><ele>79.0</ele><time>2026-03-29T13:00:11.001Z</time></trkpt><trkpt lat="37.168966260183495" lon="14.35206654332067"><ele>78.75</ele><time>2026-03-29T13:00:12.001Z</time></trkpt><trkpt lat="37.16888073662782" lon="14.352196892556911"><ele>78.5</ele><time>2026-03-29T13:00:13.001Z</time></trkpt><trkpt lat="37.16879430697529" lon="14.352327662202404"><ele>78.25</ele><time>2026-03-29T13:00:14.001Z</time></trkpt><trkpt lat="37.16870634188543" lon="14.352460132040774"><ele>78.0</ele><time>2026-03-29T13:00:15.001Z</time></trkpt><trkpt lat="37.16861710119155" lon="14.352597844193069"><ele>77.5</ele><time>2026-03-29T13:00:16.001Z</time></trkpt><trkpt lat="37.168525588728635" lon="14.352739211276749"><ele>77.0</ele><time>2026-03-29T13:00:17.001Z</time></trkpt><trkpt lat="37.168432007492584" lon="14.352883463112372"><ele>76.5</ele><time>2026-03-29T13:00:18.001Z</time></trkpt><trkpt lat="37.1683372100716" lon="14.353029170996956"><ele>76.0</ele><time>2026-03-29T13:00:19.001Z</time></trkpt><trkpt lat="37.16824034309186" lon="14.353173734153811"><ele>76.33333333333333</ele><time>2026-03-29T13:00:20.001Z</time></trkpt><trkpt lat="37.168142410328606" lon="14.353319288824853"><ele>76.66666666666667</ele><time>2026-03-29T13:00:21.001Z</time></trkpt><trkpt lat="37.1680444793192" lon="14.353465012407836"><ele>77.0</ele><time>2026-03-29T13:00:22.001Z</time></trkpt><trkpt lat="37.167947525926294" lon="14.353609497109947"><ele>77.0</ele><time>2026-03-29T13:00:23.001Z</time></trkpt><trkpt lat="37.16785187505131" lon="14.35375483449443"><ele>77.0</ele><time>2026-03-29T13:00:24.001Z</time></trkpt><trkpt lat="37.16775390531474" lon="14.353906201000077"><ele>77.0</ele><time>2026-03-29T13:00:25.001Z</time></trkpt><trkpt lat="37.167654259767374" lon="14.354060546446949"><ele>76.66666666666667</ele><time>2026-03-29T13:00:26.001Z</time></trkpt><trkpt lat="37.16755076175849" lon="14.354216028668683"><ele>76.33333333333333</ele><time>2026-03-29T13:00:27.001Z</time></trkpt><trkpt lat="37.16744450264823" lon="14.354375652893324"><ele>76.0</ele><time>2026-03-29T13:00:28.001Z</time></trkpt><trkpt lat="37.16733888312699" lon="14.354534760108432"><ele>76.0</ele><time>2026-03-29T13:00:29.001Z</time></trkpt><trkpt lat="37.16723912618654" lon="14.354688156032664"><ele>76.0</ele><time>2026-03-29T13:00:30.001Z</time></trkpt><trkpt lat="37.16714108405555" lon="14.35484233442606"><ele>76.0</ele><time>2026-03-29T13:00:31.001Z</time></trkpt><trkpt lat="37.16703999641169" lon="14.354996629065685"><ele>76.0</ele><time>2026-03-29T13:00:32.001Z</time></trkpt><trkpt lat="37.16693663976471" lon="14.355148107950539"><ele>76.0</ele><time>2026-03-29T13:00:33.001Z</time></trkpt><trkpt lat="37.1668361400803" lon="14.355297116072318"><ele>76.0</ele><time>2026-03-29T13:00:34.001Z</time></trkpt><trkpt lat="37.16673884600581" lon="14.355449437455512"><ele>75.33333333333333</ele><time>2026-03-29T13:00:35.001Z</time></trkpt><trkpt lat="37.16663927272657" lon="14.355603011510777"><ele>74.66666666666667</ele><time>2026-03-29T13:00:36.001Z</time></trkpt><trkpt lat="37.16653384022891" lon="14.355752894401318"><ele>74.0</ele><time>2026-03-29T13:00:37.001Z</time></trkpt><trkpt lat="37.16642820886546" lon="14.355902113800505"><ele>74.0</ele><time>2026-03-29T13:00:38.001Z</time></trkpt><trkpt lat="37.166330451406814" lon="14.356056445835776"><ele>74.0</ele><time>2026-03-29T13:00:39.001Z</time></trkpt><trkpt lat="37.166233195549054" lon="14.356210811974828"><ele>74.0</ele><time>2026-03-29T13:00:40.001Z</time></trkpt><trkpt lat="37.16613098268099" lon="14.356358143225922"><ele>73.66666666666667</ele><time>2026-03-29T13:00:41.001Z</time></trkpt><trkpt lat="37.16602935175112" lon="14.356505099939769"><ele>73.33333333333333</ele><time>2026-03-29T13:00:42.001Z</time></trkpt><trkpt lat="37.165931726203745" lon="14.356655797205969"><ele>73.0</ele><time>2026-03-29T13:00:43.001Z</time></trkpt><trkpt lat="37.16583493328543" lon="14.356805000827492"><ele>73.0</ele><time>2026-03-29T13:00:44.001Z</time></trkpt><trkpt lat="37.165738752950155" lon="14.356951652880772"><ele>73.0</ele><time>2026-03-29T13:00:45.001Z</time></trkpt><trkpt lat="37.16564282559476" lon="14.357097294333343"><ele>73.0</ele><time>2026-03-29T13:00:46.001Z</time></trkpt><trkpt lat="37.16554987871784" lon="14.357240682286573"><ele>73.0</ele><time>2026-03-29T13:00:47.001Z</time></trkpt><trkpt lat="37.16545729048059" lon="14.357384030917615"><ele>73.0</ele><time>2026-03-29T13:00:48.001Z</time></trkpt><trkpt lat="37.16536138322873" lon="14.357527403370122"><ele>73.0</ele><time>2026-03-29T13:00:49.001Z</time></trkpt><trkpt lat="37.165264481634765" lon="14.357673591980925"><ele>73.0</ele><time>2026-03-29T13:00:50.001Z</time></trkpt><trkpt lat="37.16516340554424" lon="14.357819426668655"><ele>73.0</ele><time>2026-03-29T13:00:51.001Z</time></trkpt><trkpt lat="37.16505999044188" lon="14.357965670212819"><ele>73.0</ele><time>2026-03-29T13:00:52.001Z</time></trkpt><trkpt lat="37.1649627231932" lon="14.358122186823442"><ele>73.0</ele><time>2026-03-29T13:00:53.001Z</time></trkpt><trkpt lat="37.16486473431057" lon="14.35827810429786"><ele>73.0</ele><time>2026-03-29T13:00:54.001Z</time></trkpt><trkpt lat="37.16476219731264" lon="14.358430304668781"><ele>73.0</ele><time>2026-03-29T13:00:55.001Z</time></trkpt><trkpt lat="37.16465964300072" lon="14.358583805889907"><ele>73.0</ele><time>2026-03-29T13:00:56.001Z</time></trkpt><trkpt lat="37.16455971431821" lon="14.358740370284742"><ele>72.66666666666666</ele><time>2026-03-29T13:00:57.001Z</time></trkpt><trkpt lat="37.164457427165125" lon="14.35889462441202"><ele>72.33333333333333</ele><time>2026-03-29T13:00:58.001Z</time></trkpt><trkpt lat="37.1643537203178" lon="14.359048842796527"><ele>72.0</ele><time>2026-03-29T13:00:59.001Z</time></trkpt><trkpt lat="37.164250416368795" lon="14.359204226772594"><ele>72.0</ele><time>2026-03-29T13:01:00.001Z</time></trkpt><trkpt lat="37.164146466678645" lon="14.359359755175559"><ele>72.0</ele><time>2026-03-29T13:01:01.001Z</time></trkpt><trkpt lat="37.16404124866306" lon="14.359517271033459"><ele>72.0</ele><time>2026-03-29T13:01:02.001Z</time></trkpt><trkpt lat="37.1639357730106" lon="14.359676591614557"><ele>72.33333333333333</ele><time>2026-03-29T13:01:03.001Z</time></trkpt><trkpt lat="37.163829957468856" lon="14.359837551036147"><ele>72.66666666666666</ele><time>2026-03-29T13:01:04.001Z</time></trkpt><trkpt lat="37.163723416828674" lon="14.35999852949539"><ele>73.0</ele><time>2026-03-29T13:01:05.001Z</time></trkpt><trkpt lat="37.16361530891525" lon="14.36015804609439"><ele>73.0</ele><time>2026-03-29T13:01:06.001Z</time></trkpt><trkpt lat="37.16350964837919" lon="14.360319472575043"><ele>73.0</ele><time>2026-03-29T13:01:07.001Z</time></trkpt><trkpt lat="37.16340433712144" lon="14.36048099888109"><ele>73.0</ele><time>2026-03-29T13:01:08.001Z</time></trkpt><trkpt lat="37.1632978327742" lon="14.360644218169488"><ele>72.33333333333333</ele><time>2026-03-29T13:01:09.001Z</time></trkpt><trkpt lat="37.16318986264142" lon="14.360804719913345"><ele>71.66666666666667</ele><time>2026-03-29T13:01:10.001Z</time></trkpt><trkpt lat="37.16308038427279" lon="14.360965407264453"><ele>71.0</ele><time>2026-03-29T13:01:11.001Z</time></trkpt><trkpt lat="37.16297187110709" lon="14.36112837062246"><ele>71.0</ele><time>2026-03-29T13:01:12.001Z</time></trkpt><trkpt lat="37.16286361121489" lon="14.361294164257583"><ele>71.0</ele><time>2026-03-29T13:01:13.001Z</time></trkpt><trkpt lat="37.16275442511907" lon="14.361460499204886"><ele>71.0</ele><time>2026-03-29T13:01:14.001Z</time></trkpt><trkpt lat="37.16264722303254" lon="14.361624854299354"><ele>71.33333333333334</ele><time>2026-03-29T13:01:15.001Z</time></trkpt><trkpt lat="37.162540208657184" lon="14.361787055648495"><ele>71.66666666666667</ele><time>2026-03-29T13:01:16.001Z</time></trkpt><trkpt lat="37.16243054092408" lon="14.361951223165956"><ele>72.0</ele><time>2026-03-29T13:01:17.001Z</time></trkpt><trkpt lat="37.1623195956663" lon="14.362117605109608"><ele>72.33333333333333</ele><time>2026-03-29T13:01:18.001Z</time></trkpt><trkpt lat="37.16220688831142" lon="14.362286123750755"><ele>72.66666666666666</ele><time>2026-03-29T13:01:19.001Z</time></trkpt><trkpt lat="37.162092914571396" lon="14.362456949504224"><ele>73.0</ele><time>2026-03-29T13:01:20.001Z</time></trkpt><trkpt lat="37.16197876870291" lon="14.3626295731035"><ele>73.0</ele><time>2026-03-29T13:01:21.001Z</time></trkpt><trkpt lat="37.161864051045846" lon="14.362803327018646"><ele>73.0</ele><time>2026-03-29T13:01:22.001Z</time></trkpt><trkpt lat="37.16174944917094" lon="14.362975842714338"><ele>73.0</ele><time>2026-03-29T13:01:23.001Z</time></trkpt><trkpt lat="37.16163414786039" lon="14.363146809799758"><ele>73.0</ele><time>2026-03-29T13:01:24.001Z</time></trkpt><trkpt lat="37.16152046949946" lon="14.363316894382098"><ele>73.0</ele><time>2026-03-29T13:01:25.001Z</time></trkpt><trkpt lat="37.16140813086033" lon="14.363487983433364"><ele>73.0</ele><time>2026-03-29T13:01:26.001Z</time></trkpt><trkpt lat="37.161295339280926" lon="14.363658458689118"><ele>73.0</ele><time>2026-03-29T13:01:27.001Z</time></trkpt><trkpt lat="37.16118181729535" lon="14.363829691112489"><ele>73.0</ele><time>2026-03-29T13:01:28.001Z</time></trkpt><trkpt lat="37.161068193351845" lon="14.364000993384584"><ele>73.0</ele><time>2026-03-29T13:01:29.001Z</time></trkpt><trkpt lat="37.160953310054744" lon="14.364172463477775"><ele>73.0</ele><time>2026-03-29T13:01:30.001Z</time></trkpt><trkpt lat="37.160837811360494" lon="14.36434558651714"><ele>73.0</ele><time>2026-03-29T13:01:31.001Z</time></trkpt><trkpt lat="37.16072246796463" lon="14.364521174097312"><ele>73.0</ele><time>2026-03-29T13:01:32.001Z</time></trkpt><trkpt lat="37.16060776996241" lon="14.36469601681078"><ele>72.33333333333333</ele><time>2026-03-29T13:01:33.001Z</time></trkpt><trkpt lat="37.160490724124344" lon="14.364872567209169"><ele>71.66666666666667</ele><time>2026-03-29T13:01:34.001Z</time></trkpt><trkpt lat="37.16037369573629" lon="14.365049408454892"><ele>71.0</ele><time>2026-03-29T13:01:35.001Z</time></trkpt><trkpt lat="37.16025579699555" lon="14.365227133336179"><ele>71.0</ele><time>2026-03-29T13:01:36.001Z</time></trkpt><trkpt lat="37.16013711603371" lon="14.365404349652426"><ele>71.0</ele><time>2026-03-29T13:01:37.001Z</time></trkpt><trkpt lat="37.16001917020923" lon="14.365583841975031"><ele>71.0</ele><time>2026-03-29T13:01:38.001Z</time></trkpt><trkpt lat="37.159900793980675" lon="14.365762983320092"><ele>72.66666666666667</ele><time>2026-03-29T13:01:39.001Z</time></trkpt><trkpt lat="37.159782181850005" lon="14.365940556823972"><ele>74.33333333333333</ele><time>2026-03-29T13:01:40.001Z</time></trkpt><trkpt lat="37.15966604926779" lon="14.366118095166193"><ele>76.0</ele><time>2026-03-29T13:01:41.001Z</time></trkpt><trkpt lat="37.159549612500015" lon="14.366294788058926"><ele>76.66666666666666</ele><time>2026-03-29T13:01:42.001Z</time></trkpt><trkpt lat="37.15943219779221" lon="14.366472007104615"><ele>77.33333333333333</ele><time>2026-03-29T13:01:43.001Z</time></trkpt><trkpt lat="37.1593125766438" lon="14.36665035004984"><ele>78.0</ele><time>2026-03-29T13:01:44.002Z</time></trkpt><trkpt lat="37.1591936633972" lon="14.36683264794926"><ele>78.0</ele><time>2026-03-29T13:01:45.002Z</time></trkpt><trkpt lat="37.15907625744267" lon="14.367016274990263"><ele>78.0</ele><time>2026-03-29T13:01:46.002Z</time></trkpt><trkpt lat="37.158958711850715" lon="14.367200838641677"><ele>78.0</ele><time>2026-03-29T13:01:47.002Z</time></trkpt><trkpt lat="37.158839368333965" lon="14.367384189235958"><ele>77.66666666666667</ele><time>2026-03-29T13:01:48.002Z</time></trkpt><trkpt lat="37.15871836692668" lon="14.36756685630163"><ele>77.33333333333334</ele><time>2026-03-29T13:01:49.002Z</time></trkpt><trkpt lat="37.158596916572236" lon="14.367748457185268"><ele>77.0</ele><time>2026-03-29T13:01:50.002Z</time></trkpt><trkpt lat="37.15847687794127" lon="14.367929053834287"><ele>78.0</ele><time>2026-03-29T13:01:51.002Z</time></trkpt><trkpt lat="37.15836030534368" lon="14.368104645602706"><ele>79.0</ele><time>2026-03-29T13:01:52.002Z</time></trkpt><trkpt lat="37.158248260411874" lon="14.368275783398087"><ele>80.0</ele><time>2026-03-29T13:01:53.002Z</time></trkpt><trkpt lat="37.15814316799616" lon="14.368436656530488"><ele>80.0</ele><time>2026-03-29T13:01:54.002Z</time></trkpt><trkpt lat="37.158046286121255" lon="14.36858595469888"><ele>80.0</ele><time>2026-03-29T13:01:55.002Z</time></trkpt><trkpt lat="37.1579519386687" lon="14.368731223910768"><ele>80.0</ele><time>2026-03-29T13:01:56.002Z</time></trkpt><trkpt lat="37.15785953123052" lon="14.368871416311448"><ele>80.0</ele><time>2026-03-29T13:01:57.002Z</time></trkpt><trkpt lat="37.157775069563684" lon="14.369000987885903"><ele>80.8</ele><time>2026-03-29T13:01:58.002Z</time></trkpt><trkpt lat="37.157695184821755" lon="14.369121713283537"><ele>81.6</ele><time>2026-03-29T13:01:59.001Z</time></trkpt><trkpt lat="37.15762497167298" lon="14.369226343762694"><ele>82.4</ele><time>2026-03-29T13:02:00.001Z</time></trkpt><trkpt lat="37.15756739620639" lon="14.369311411596595"><ele>83.2</ele><time>2026-03-29T13:02:01.001Z</time></trkpt><trkpt lat="37.15751843586373" lon="14.369377243996501"><ele>84.0</ele><time>2026-03-29T13:02:02.001Z</time></trkpt><trkpt lat="37.157416420782404" lon="14.369434713289552"><ele>84.5</ele><time>2026-03-29T13:02:04.001Z</time></trkpt><trkpt lat="37.15732382497801" lon="14.36940987816495"><ele>85.0</ele><time>2026-03-29T13:02:06.001Z</time></trkpt><trkpt lat="37.157238286433426" lon="14.369431475154103"><ele>85.5</ele><time>2026-03-29T13:02:08.001Z</time></trkpt><trkpt lat="37.15715758901679" lon="14.36944327503836"><ele>86.0</ele><time>2026-03-29T13:02:10.001Z</time></trkpt><trkpt lat="37.15707181927564" lon="14.369450791826692"><ele>86.5</ele><time>2026-03-29T13:02:12.001Z</time></trkpt><trkpt lat="37.15700689339853" lon="14.369456030479954"><ele>87.0</ele><time>2026-03-29T13:02:13.001Z</time></trkpt><trkpt lat="37.15691402381038" lon="14.369456573591158"><ele>87.0</ele><time>2026-03-29T13:02:14.001Z</time></trkpt><trkpt lat="37.156813996310724" lon="14.369436402951575"><ele>87.0</ele><time>2026-03-29T13:02:15.001Z</time></trkpt><trkpt lat="37.15670031698388" lon="14.369395946931398"><ele>87.0</ele><time>2026-03-29T13:02:16.001Z</time></trkpt><trkpt lat="37.15658298793157" lon="14.369335576879926"><ele>87.0</ele><time>2026-03-29T13:02:17.001Z</time></trkpt><trkpt lat="37.156460892853275" lon="14.369263215813273"><ele>87.66666666666667</ele><time>2026-03-29T13:02:18.001Z</time></trkpt><trkpt lat="37.156320595581896" lon="14.369187929970739"><ele>88.33333333333334</ele><time>2026-03-29T13:02:19.001Z</time></trkpt><trkpt lat="37.15618267582382" lon="14.36908416539616"><ele>89.0</ele><time>2026-03-29T13:02:20.001Z</time></trkpt><trkpt lat="37.156031388052895" lon="14.368991820789642"><ele>88.0</ele><time>2026-03-29T13:02:21.001Z</time></trkpt><trkpt lat="37.15572591659051" lon="14.368813600160635"><ele>87.0</ele><time>2026-03-29T13:02:23.001Z</time></trkpt><trkpt lat="37.15556461379822" lon="14.368761945421719"><ele>85.66666666666667</ele><time>2026-03-29T13:02:24.001Z</time></trkpt><trkpt lat="37.155413921365096" lon="14.368751622288912"><ele>84.33333333333334</ele><time>2026-03-29T13:02:25.001Z</time></trkpt><trkpt lat="37.15526618037865" lon="14.368734819734556"><ele>83.0</ele><time>2026-03-29T13:02:26.001Z</time></trkpt><trkpt lat="37.15500031909566" lon="14.368720033002749"><ele>83.0</ele><time>2026-03-29T13:02:28.001Z</time></trkpt><trkpt lat="37.154887361112635" lon="14.368710198713405"><ele>83.0</ele><time>2026-03-29T13:02:29.001Z</time></trkpt><trkpt lat="37.15476702672796" lon="14.368699853859539"><ele>83.0</ele><time>2026-03-29T13:02:30.001Z</time></trkpt><trkpt lat="37.15464533677893" lon="14.36870278305215"><ele>83.0</ele><time>2026-03-29T13:02:31.001Z</time></trkpt><trkpt lat="37.15453017849637" lon="14.36872472768182"><ele>83.0</ele><time>2026-03-29T13:02:32.001Z</time></trkpt><trkpt lat="37.15440563580529" lon="14.368757948576594"><ele>83.0</ele><time>2026-03-29T13:02:33.001Z</time></trkpt><trkpt lat="37.15426759309435" lon="14.368793209425538"><ele>83.0</ele><time>2026-03-29T13:02:34.001Z</time></trkpt><trkpt lat="37.154124319245426" lon="14.368828307080916"><ele>83.0</ele><time>2026-03-29T13:02:35.001Z</time></trkpt><trkpt lat="37.15397874962343" lon="14.368856486004356"><ele>83.0</ele><time>2026-03-29T13:02:36.001Z</time></trkpt><trkpt lat="37.15383688935563" lon="14.368852122123617"><ele>83.0</ele><time>2026-03-29T13:02:37.001Z</time></trkpt><trkpt lat="37.15369914506195" lon="14.368851362173062"><ele>83.0</ele><time>2026-03-29T13:02:38.001Z</time></trkpt><trkpt lat="37.153410501104595" lon="14.368822833697344"><ele>83.0</ele><time>2026-03-29T13:02:40.001Z</time></trkpt><trkpt lat="37.153258346657694" lon="14.368833572786938"><ele>83.0</ele><time>2026-03-29T13:02:41.001Z</time></trkpt><trkpt lat="37.15310096691786" lon="14.368820003652978"><ele>83.0</ele><time>2026-03-29T13:02:42.001Z</time></trkpt><trkpt lat="37.15294679834238" lon="14.368732465726252"><ele>83.66666666666667</ele><time>2026-03-29T13:02:43.001Z</time></trkpt><trkpt lat="37.15278658803503" lon="14.368705427667738"><ele>84.33333333333333</ele><time>2026-03-29T13:02:44.001Z</time></trkpt><trkpt lat="37.15264127763165" lon="14.368682396106982"><ele>85.0</ele><time>2026-03-29T13:02:45.001Z</time></trkpt><trkpt lat="37.15249070578665" lon="14.36865298413615"><ele>85.6</ele><time>2026-03-29T13:02:46.001Z</time></trkpt><trkpt lat="37.15234958982249" lon="14.368627844383841"><ele>86.2</ele><time>2026-03-29T13:02:47.001Z</time></trkpt><trkpt lat="37.15223329122257" lon="14.368598553089928"><ele>86.80000000000001</ele><time>2026-03-29T13:02:48.001Z</time></trkpt><trkpt lat="37.152138271197515" lon="14.368577383439082"><ele>87.4</ele><time>2026-03-29T13:02:49.001Z</time></trkpt><trkpt lat="37.15206766401745" lon="14.368571589559643"><ele>88.0</ele><time>2026-03-29T13:02:50.001Z</time></trkpt><trkpt lat="37.15202468325924" lon="14.368506028236098"><ele>88.0</ele><time>2026-03-29T13:02:51.001Z</time></trkpt><trkpt lat="37.152070284283305" lon="14.368402707232258"><ele>88.0</ele><time>2026-03-29T13:02:52.001Z</time></trkpt><trkpt lat="37.15209610169678" lon="14.368302373141514"><ele>88.0</ele><time>2026-03-29T13:02:53.001Z</time></trkpt><trkpt lat="37.15212422919469" lon="14.36814826075316"><ele>88.0</ele><time>2026-03-29T13:02:54.001Z</time></trkpt><trkpt lat="37.15215859963755" lon="14.367962361510715"><ele>86.66666666666666</ele><time>2026-03-29T13:02:55.001Z</time></trkpt><trkpt lat="37.15219770210178" lon="14.367754122268027"><ele>85.33333333333333</ele><time>2026-03-29T13:02:56.001Z</time></trkpt><trkpt lat="37.15223963511361" lon="14.367543579315035"><ele>84.0</ele><time>2026-03-29T13:02:57.001Z</time></trkpt><trkpt lat="37.15228493651487" lon="14.367321456046998"><ele>83.0</ele><time>2026-03-29T13:02:58.001Z</time></trkpt><trkpt lat="37.15233475653018" lon="14.367089636723453"><ele>82.0</ele><time>2026-03-29T13:02:59.001Z</time></trkpt><trkpt lat="37.152388031571654" lon="14.366854301043201"><ele>81.0</ele><time>2026-03-29T13:03:00.001Z</time></trkpt><trkpt lat="37.1524444240193" lon="14.366615341765694"><ele>80.33333333333333</ele><time>2026-03-29T13:03:01.001Z</time></trkpt><trkpt lat="37.15250390909469" lon="14.366373425531576"><ele>79.66666666666666</ele><time>2026-03-29T13:03:02.001Z</time></trkpt><trkpt lat="37.1525636832826" lon="14.366133665731132"><ele>79.0</ele><time>2026-03-29T13:03:03.001Z</time></trkpt><trkpt lat="37.152627410918726" lon="14.365893740449279"><ele>78.33333333333333</ele><time>2026-03-29T13:03:04.001Z</time></trkpt><trkpt lat="37.152678590453256" lon="14.365659266576007"><ele>77.66666666666667</ele><time>2026-03-29T13:03:05.001Z</time></trkpt><trkpt lat="37.15276553064232" lon="14.365447381255818"><ele>77.0</ele><time>2026-03-29T13:03:06.001Z</time></trkpt><trkpt lat="37.152819994639074" lon="14.365221428894458"><ele>76.0</ele><time>2026-03-29T13:03:07.001Z</time></trkpt><trkpt lat="37.15287959112583" lon="14.364997603194976"><ele>75.0</ele><time>2026-03-29T13:03:08.001Z</time></trkpt><trkpt lat="37.15292903155254" lon="14.364767061932064"><ele>74.0</ele><time>2026-03-29T13:03:09.001Z</time></trkpt><trkpt lat="37.15296997986659" lon="14.364530377843064"><ele>73.66666666666667</ele><time>2026-03-29T13:03:10.001Z</time></trkpt><trkpt lat="37.15301116108819" lon="14.36429082941473"><ele>73.33333333333333</ele><time>2026-03-29T13:03:11.001Z</time></trkpt><trkpt lat="37.153055683378234" lon="14.364049630871598"><ele>73.0</ele><time>2026-03-29T13:03:12.001Z</time></trkpt><trkpt lat="37.15310123966541" lon="14.363811030374338"><ele>72.0</ele><time>2026-03-29T13:03:13.001Z</time></trkpt><trkpt lat="37.15314535156974" lon="14.36357192499176"><ele>71.0</ele><time>2026-03-29T13:03:14.001Z</time></trkpt><trkpt lat="37.15318296108159" lon="14.363334554173589"><ele>70.0</ele><time>2026-03-29T13:03:15.001Z</time></trkpt><trkpt lat="37.153212522038714" lon="14.363100555623934"><ele>69.33333333333333</ele><time>2026-03-29T13:03:16.001Z</time></trkpt><trkpt lat="37.153231319598966" lon="14.362882238015903"><ele>68.66666666666667</ele><time>2026-03-29T13:03:17.001Z</time></trkpt><trkpt lat="37.15323935880223" lon="14.362666580264777"><ele>68.0</ele><time>2026-03-29T13:03:18.001Z</time></trkpt><trkpt lat="37.15323891316324" lon="14.362450785836531"><ele>68.0</ele><time>2026-03-29T13:03:19.001Z</time></trkpt><trkpt lat="37.153235074286926" lon="14.362238820346521"><ele>68.0</ele><time>2026-03-29T13:03:20.001Z</time></trkpt><trkpt lat="37.15323022957725" lon="14.362030830180606"><ele>68.0</ele><time>2026-03-29T13:03:21.001Z</time></trkpt><trkpt lat="37.15322826427255" lon="14.36183225149612"><ele>68.0</ele><time>2026-03-29T13:03:22.001Z</time></trkpt><trkpt lat="37.15323489172153" lon="14.361635540086507"><ele>68.0</ele><time>2026-03-29T13:03:23.001Z</time></trkpt><trkpt lat="37.15324201555662" lon="14.3614355597832"><ele>68.0</ele><time>2026-03-29T13:03:24.001Z</time></trkpt><trkpt lat="37.15324574582976" lon="14.361239676532092"><ele>67.25</ele><time>2026-03-29T13:03:25.001Z</time></trkpt><trkpt lat="37.153240815344596" lon="14.361053419902046"><ele>66.5</ele><time>2026-03-29T13:03:26.001Z</time></trkpt><trkpt lat="37.15321865748427" lon="14.360880053554602"><ele>65.75</ele><time>2026-03-29T13:03:27.001Z</time></trkpt><trkpt lat="37.15316761208778" lon="14.360705684305076"><ele>65.0</ele><time>2026-03-29T13:03:28.001Z</time></trkpt><trkpt lat="37.15309146287675" lon="14.360555752807139"><ele>64.75</ele><time>2026-03-29T13:03:29.001Z</time></trkpt><trkpt lat="37.15299824460958" lon="14.360425820932251"><ele>64.5</ele><time>2026-03-29T13:03:30.001Z</time></trkpt><trkpt lat="37.152885372607244" lon="14.360321514247556"><ele>64.25</ele><time>2026-03-29T13:03:31.001Z</time></trkpt><trkpt lat="37.152758820593704" lon="14.360243594933584"><ele>64.0</ele><time>2026-03-29T13:03:32.001Z</time></trkpt><trkpt lat="37.15261889481546" lon="14.360188058253671"><ele>64.0</ele><time>2026-03-29T13:03:33.001Z</time></trkpt><trkpt lat="37.152471097472116" lon="14.36015031266639"><ele>64.0</ele><time>2026-03-29T13:03:34.001Z</time></trkpt><trkpt lat="37.15232074234889" lon="14.360120240834124"><ele>64.0</ele><time>2026-03-29T13:03:35.001Z</time></trkpt><trkpt lat="37.15217023923553" lon="14.360098657266743"><ele>64.33333333333333</ele><time>2026-03-29T13:03:36.001Z</time></trkpt><trkpt lat="37.152018609712215" lon="14.360102973322252"><ele>64.66666666666667</ele><time>2026-03-29T13:03:37.001Z</time></trkpt><trkpt lat="37.151862989940575" lon="14.360129254020274"><ele>65.0</ele><time>2026-03-29T13:03:38.001Z</time></trkpt><trkpt lat="37.151707567400216" lon="14.360166614436082"><ele>65.0</ele><time>2026-03-29T13:03:39.001Z</time></trkpt><trkpt lat="37.15155111943173" lon="14.360205696258467"><ele>65.0</ele><time>2026-03-29T13:03:40.001Z</time></trkpt><trkpt lat="37.15139148288711" lon="14.360233211707481"><ele>65.0</ele><time>2026-03-29T13:03:41Z</time></trkpt><trkpt lat="37.151230063683045" lon="14.360252474032256"><ele>65.0</ele><time>2026-03-29T13:03:42Z</time></trkpt><trkpt lat="37.15107543388255" lon="14.360266357681263"><ele>65.0</ele><time>2026-03-29T13:03:43Z</time></trkpt><trkpt lat="37.15093565702142" lon="14.360273776477792"><ele>65.0</ele><time>2026-03-29T13:03:44Z</time></trkpt><trkpt lat="37.150807564208215" lon="14.360252414945215"><ele>65.0</ele><time>2026-03-29T13:03:45Z</time></trkpt><trkpt lat="37.15068932910069" lon="14.360250074807134"><ele>65.0</ele><time>2026-03-29T13:03:46Z</time></trkpt><trkpt lat="37.15056219438747" lon="14.360252718652768"><ele>65.0</ele><time>2026-03-29T13:03:47Z</time></trkpt><trkpt lat="37.15042581892308" lon="14.360280285839115"><ele>65.0</ele><time>2026-03-29T13:03:48Z</time></trkpt><trkpt lat="37.150280243842175" lon="14.360269607158836"><ele>65.0</ele><time>2026-03-29T13:03:49Z</time></trkpt><trkpt lat="37.150130897700116" lon="14.36025936772037"><ele>65.0</ele><time>2026-03-29T13:03:50Z</time></trkpt><trkpt lat="37.149839054963024" lon="14.360196960046833"><ele>65.0</ele><time>2026-03-29T13:03:52Z</time></trkpt><trkpt lat="37.149716033158164" lon="14.360164129295944"><ele>65.0</ele><time>2026-03-29T13:03:53Z</time></trkpt><trkpt lat="37.149604750301656" lon="14.360130574798008"><ele>65.0</ele><time>2026-03-29T13:03:54Z</time></trkpt><trkpt lat="37.14949693090236" lon="14.360111154524102"><ele>65.0</ele><time>2026-03-29T13:03:55Z</time></trkpt><trkpt lat="37.149386162984165" lon="14.360091514966182"><ele>65.0</ele><time>2026-03-29T13:03:56Z</time></trkpt><trkpt lat="37.149270062099646" lon="14.360082247872118"><ele>65.0</ele><time>2026-03-29T13:03:57Z</time></trkpt><trkpt lat="37.14915229988582" lon="14.360074290341597"><ele>64.5</ele><time>2026-03-29T13:03:58Z</time></trkpt><trkpt lat="37.149036089349" lon="14.360067346703486"><ele>64.0</ele><time>2026-03-29T13:03:59Z</time></trkpt><trkpt lat="37.14892359184225" lon="14.360064208767454"><ele>63.5</ele><time>2026-03-29T13:04:00Z</time></trkpt><trkpt lat="37.14881116723699" lon="14.360063088101207"><ele>63.0</ele><time>2026-03-29T13:04:01Z</time></trkpt><trkpt lat="37.14870040152394" lon="14.360066689989978"><ele>63.0</ele><time>2026-03-29T13:04:02Z</time></trkpt><trkpt lat="37.14859645867785" lon="14.360067510289092"><ele>63.0</ele><time>2026-03-29T13:04:03Z</time></trkpt><trkpt lat="37.14848813855928" lon="14.360096711842148"><ele>63.0</ele><time>2026-03-29T13:04:04Z</time></trkpt><trkpt lat="37.14837090108585" lon="14.360132649243374"><ele>63.0</ele><time>2026-03-29T13:04:04.999Z</time></trkpt><trkpt lat="37.14824858640188" lon="14.360180082867123"><ele>63.25</ele><time>2026-03-29T13:04:05.999Z</time></trkpt><trkpt lat="37.14812691405045" lon="14.360232215109557"><ele>63.5</ele><time>2026-03-29T13:04:06.999Z</time></trkpt><trkpt lat="37.147999614256406" lon="14.360286228128658"><ele>63.75</ele><time>2026-03-29T13:04:07.999Z</time></trkpt><trkpt lat="37.14787273050422" lon="14.360338090853096"><ele>64.0</ele><time>2026-03-29T13:04:08.999Z</time></trkpt><trkpt lat="37.14774044034722" lon="14.360382831359615"><ele>64.0</ele><time>2026-03-29T13:04:09.999Z</time></trkpt><trkpt lat="37.147609078737304" lon="14.360415444262296"><ele>64.0</ele><time>2026-03-29T13:04:10.999Z</time></trkpt><trkpt lat="37.14748635794373" lon="14.360435992400161"><ele>64.0</ele><time>2026-03-29T13:04:11.999Z</time></trkpt><trkpt lat="37.1473626644018" lon="14.36043910516991"><ele>64.0</ele><time>2026-03-29T13:04:12.999Z</time></trkpt><trkpt lat="37.14724482643554" lon="14.360433366393966"><ele>64.0</ele><time>2026-03-29T13:04:13.999Z</time></trkpt><trkpt lat="37.14713306794417" lon="14.360420143400123"><ele>64.0</ele><time>2026-03-29T13:04:14.999Z</time></trkpt><trkpt lat="37.14703773916532" lon="14.36037670339407"><ele>64.0</ele><time>2026-03-29T13:04:15.999Z</time></trkpt><trkpt lat="37.14692959521275" lon="14.360338696734722"><ele>64.0</ele><time>2026-03-29T13:04:16.999Z</time></trkpt><trkpt lat="37.14681897161985" lon="14.360303147629692"><ele>64.0</ele><time>2026-03-29T13:04:17.999Z</time></trkpt><trkpt lat="37.14669258579949" lon="14.360268740198256"><ele>64.0</ele><time>2026-03-29T13:04:18.999Z</time></trkpt><trkpt lat="37.146561250586124" lon="14.36022577043048"><ele>64.0</ele><time>2026-03-29T13:04:19.999Z</time></trkpt><trkpt lat="37.14642619010474" lon="14.360178633809323"><ele>64.0</ele><time>2026-03-29T13:04:20.999Z</time></trkpt><trkpt lat="37.14628877204132" lon="14.36012745230831"><ele>64.0</ele><time>2026-03-29T13:04:21.999Z</time></trkpt><trkpt lat="37.14614615680445" lon="14.360071714257296"><ele>63.5</ele><time>2026-03-29T13:04:22.999Z</time></trkpt><trkpt lat="37.14600500030318" lon="14.360011536393358"><ele>63.0</ele><time>2026-03-29T13:04:23.999Z</time></trkpt><trkpt lat="37.14586429461712" lon="14.359945939606371"><ele>62.5</ele><time>2026-03-29T13:04:24.999Z</time></trkpt><trkpt lat="37.145725928099026" lon="14.35987739604574"><ele>62.0</ele><time>2026-03-29T13:04:25.999Z</time></trkpt><trkpt lat="37.145590140995" lon="14.3598099795342"><ele>62.0</ele><time>2026-03-29T13:04:26.999Z</time></trkpt><trkpt lat="37.14545239812615" lon="14.359753722707492"><ele>62.0</ele><time>2026-03-29T13:04:27.999Z</time></trkpt><trkpt lat="37.14531279390842" lon="14.35971834539528"><ele>62.0</ele><time>2026-03-29T13:04:28.999Z</time></trkpt><trkpt lat="37.14517043367488" lon="14.359694775503527"><ele>62.0</ele><time>2026-03-29T13:04:29.999Z</time></trkpt><trkpt lat="37.14502814471222" lon="14.359682135786723"><ele>61.5</ele><time>2026-03-29T13:04:30.999Z</time></trkpt><trkpt lat="37.144889497993816" lon="14.35967593729723"><ele>61.0</ele><time>2026-03-29T13:04:31.999Z</time></trkpt><trkpt lat="37.14475935535544" lon="14.35964945276339"><ele>60.5</ele><time>2026-03-29T13:04:32.999Z</time></trkpt><trkpt lat="37.144633320797794" lon="14.359664875471204"><ele>60.0</ele><time>2026-03-29T13:04:33.999Z</time></trkpt><trkpt lat="37.144513095749836" lon="14.359666545545634"><ele>60.0</ele><time>2026-03-29T13:04:34.999Z</time></trkpt><trkpt lat="37.144386631789956" lon="14.359680949974889"><ele>60.0</ele><time>2026-03-29T13:04:35.999Z</time></trkpt><trkpt lat="37.14425655672071" lon="14.35970637950234"><ele>60.0</ele><time>2026-03-29T13:04:36.999Z</time></trkpt><trkpt lat="37.14412829885681" lon="14.359741324063622"><ele>60.0</ele><time>2026-03-29T13:04:37.999Z</time></trkpt><trkpt lat="37.14399758318003" lon="14.359778491546686"><ele>59.5</ele><time>2026-03-29T13:04:38.999Z</time></trkpt><trkpt lat="37.14386437146366" lon="14.359812957673492"><ele>59.0</ele><time>2026-03-29T13:04:39.999Z</time></trkpt><trkpt lat="37.14372825801899" lon="14.359842351002506"><ele>58.5</ele><time>2026-03-29T13:04:40.999Z</time></trkpt><trkpt lat="37.143588729595336" lon="14.359874226813584"><ele>58.0</ele><time>2026-03-29T13:04:41.999Z</time></trkpt><trkpt lat="37.1434514581129" lon="14.359911168599163"><ele>58.0</ele><time>2026-03-29T13:04:42.999Z</time></trkpt><trkpt lat="37.14331286236032" lon="14.35994973524585"><ele>58.0</ele><time>2026-03-29T13:04:43.999Z</time></trkpt><trkpt lat="37.1431735391469" lon="14.359986065515717"><ele>58.0</ele><time>2026-03-29T13:04:44.999Z</time></trkpt><trkpt lat="37.14303121816967" lon="14.360012946114878"><ele>58.0</ele><time>2026-03-29T13:04:45.999Z</time></trkpt><trkpt lat="37.1428866622773" lon="14.36002774731348"><ele>58.0</ele><time>2026-03-29T13:04:46.999Z</time></trkpt><trkpt lat="37.142738984085796" lon="14.360031430296909"><ele>58.0</ele><time>2026-03-29T13:04:47.999Z</time></trkpt><trkpt lat="37.14258805707701" lon="14.360032105218993"><ele>58.0</ele><time>2026-03-29T13:04:48.999Z</time></trkpt><trkpt lat="37.142435328652795" lon="14.360027935147103"><ele>57.75</ele><time>2026-03-29T13:04:49.999Z</time></trkpt><trkpt lat="37.14228387079593" lon="14.360028345034358"><ele>57.5</ele><time>2026-03-29T13:04:50.999Z</time></trkpt><trkpt lat="37.142133734401604" lon="14.36003257786081"><ele>57.25</ele><time>2026-03-29T13:04:51.999Z</time></trkpt><trkpt lat="37.141988778490635" lon="14.360043781524773"><ele>57.0</ele><time>2026-03-29T13:04:52.999Z</time></trkpt><trkpt lat="37.14184869089665" lon="14.360059357620969"><ele>57.0</ele><time>2026-03-29T13:04:53.999Z</time></trkpt><trkpt lat="37.141714833034044" lon="14.360080237693836"><ele>57.0</ele><time>2026-03-29T13:04:54.999Z</time></trkpt><trkpt lat="37.14158400615424" lon="14.360101475241002"><ele>57.0</ele><time>2026-03-29T13:04:55.999Z</time></trkpt><trkpt lat="37.14145992108806" lon="14.360123372766317"><ele>57.0</ele><time>2026-03-29T13:04:56.999Z</time></trkpt><trkpt lat="37.1413461530054" lon="14.360142788002307"><ele>57.333333333333336</ele><time>2026-03-29T13:04:57.999Z</time></trkpt><trkpt lat="37.14123652044578" lon="14.360163348652998"><ele>57.66666666666667</ele><time>2026-03-29T13:04:58.999Z</time></trkpt><trkpt lat="37.14114035688332" lon="14.360179901734766"><ele>58.0</ele><time>2026-03-29T13:04:59.999Z</time></trkpt><trkpt lat="37.14105462759353" lon="14.360194268837022"><ele>58.333333333333336</ele><time>2026-03-29T13:05:00.999Z</time></trkpt><trkpt lat="37.14097871168281" lon="14.360205946806095"><ele>58.66666666666667</ele><time>2026-03-29T13:05:01.999Z</time></trkpt><trkpt lat="37.14091254153405" lon="14.360215446359433"><ele>59.0</ele><time>2026-03-29T13:05:02.999Z</time></trkpt><trkpt lat="37.14079446968686" lon="14.360203938804624"><ele>59.25</ele><time>2026-03-29T13:05:04.999Z</time></trkpt><trkpt lat="37.140672310643616" lon="14.360146876723151"><ele>59.5</ele><time>2026-03-29T13:05:06.999Z</time></trkpt><trkpt lat="37.14062352274559" lon="14.360032049561239"><ele>59.75</ele><time>2026-03-29T13:05:07.999Z</time></trkpt><trkpt lat="37.14055140155554" lon="14.359907172183847"><ele>60.0</ele><time>2026-03-29T13:05:08.999Z</time></trkpt><trkpt lat="37.140459583936746" lon="14.359787769216464"><ele>59.33333333333333</ele><time>2026-03-29T13:05:09.999Z</time></trkpt><trkpt lat="37.1403502822322" lon="14.359668809979931"><ele>58.666666666666664</ele><time>2026-03-29T13:05:10.999Z</time></trkpt><trkpt lat="37.1402262880952" lon="14.359562344440366"><ele>58.0</ele><time>2026-03-29T13:05:11.999Z</time></trkpt><trkpt lat="37.14012511864276" lon="14.359414825009468"><ele>58.0</ele><time>2026-03-29T13:05:12.999Z</time></trkpt><trkpt lat="37.14002267779343" lon="14.359259319037792"><ele>58.0</ele><time>2026-03-29T13:05:13.999Z</time></trkpt><trkpt lat="37.13991051415059" lon="14.359100537869155"><ele>58.0</ele><time>2026-03-29T13:05:14.999Z</time></trkpt><trkpt lat="37.13978529850342" lon="14.358968256590567"><ele>57.33333333333333</ele><time>2026-03-29T13:05:15.999Z</time></trkpt><trkpt lat="37.1396981317078" lon="14.358823001502454"><ele>56.66666666666667</ele><time>2026-03-29T13:05:16.999Z</time></trkpt><trkpt lat="37.139589848401975" lon="14.358677733135908"><ele>56.0</ele><time>2026-03-29T13:05:17.999Z</time></trkpt><trkpt lat="37.13948031149034" lon="14.358532403268523"><ele>56.0</ele><time>2026-03-29T13:05:18.999Z</time></trkpt><trkpt lat="37.13938629708588" lon="14.358387030360454"><ele>56.0</ele><time>2026-03-29T13:05:19.999Z</time></trkpt><trkpt lat="37.13929632326057" lon="14.35824698468453"><ele>56.0</ele><time>2026-03-29T13:05:20.999Z</time></trkpt><trkpt lat="37.13923065409432" lon="14.358080091801334"><ele>56.0</ele><time>2026-03-29T13:05:21.999Z</time></trkpt><trkpt lat="37.1391852098485" lon="14.357919287594504"><ele>55.75</ele><time>2026-03-29T13:05:22.999Z</time></trkpt><trkpt lat="37.13918128498547" lon="14.35775502606578"><ele>55.5</ele><time>2026-03-29T13:05:23.999Z</time></trkpt><trkpt lat="37.13915533984233" lon="14.35757232698303"><ele>55.25</ele><time>2026-03-29T13:05:24.999Z</time></trkpt><trkpt lat="37.13914762199839" lon="14.357372793376847"><ele>55.0</ele><time>2026-03-29T13:05:25.999Z</time></trkpt><trkpt lat="37.13913966388008" lon="14.357168169800968"><ele>55.0</ele><time>2026-03-29T13:05:26.999Z</time></trkpt><trkpt lat="37.13912368593288" lon="14.35695912722154"><ele>55.0</ele><time>2026-03-29T13:05:27.999Z</time></trkpt><trkpt lat="37.13909695646707" lon="14.35675290429181"><ele>55.0</ele><time>2026-03-29T13:05:28.999Z</time></trkpt><trkpt lat="37.13905918725909" lon="14.356551814373779"><ele>55.0</ele><time>2026-03-29T13:05:29.999Z</time></trkpt><trkpt lat="37.13900746723356" lon="14.356351780831956"><ele>55.0</ele><time>2026-03-29T13:05:30.999Z</time></trkpt><trkpt lat="37.13894327832783" lon="14.356151924201496"><ele>55.0</ele><time>2026-03-29T13:05:31.999Z</time></trkpt><trkpt lat="37.13887896283124" lon="14.355950533944709"><ele>55.0</ele><time>2026-03-29T13:05:32.999Z</time></trkpt><trkpt lat="37.13882371540656" lon="14.355750900983118"><ele>55.0</ele><time>2026-03-29T13:05:34Z</time></trkpt><trkpt lat="37.13877504175243" lon="14.355543358254952"><ele>55.0</ele><time>2026-03-29T13:05:35Z</time></trkpt><trkpt lat="37.13873346738661" lon="14.355329692135394"><ele>54.666666666666664</ele><time>2026-03-29T13:05:36Z</time></trkpt><trkpt lat="37.13872529771643" lon="14.355104023726666"><ele>54.33333333333333</ele><time>2026-03-29T13:05:37Z</time></trkpt><trkpt lat="37.138708262186384" lon="14.354874440147983"><ele>54.0</ele><time>2026-03-29T13:05:38Z</time></trkpt><trkpt lat="37.138689996094975" lon="14.354646903536752"><ele>53.66666666666667</ele><time>2026-03-29T13:05:39Z</time></trkpt><trkpt lat="37.138666161956856" lon="14.354437320077198"><ele>53.333333333333336</ele><time>2026-03-29T13:05:40Z</time></trkpt><trkpt lat="37.13861674053921" lon="14.354256194660348"><ele>53.0</ele><time>2026-03-29T13:05:41Z</time></trkpt><trkpt lat="37.13856405872764" lon="14.354077372248442"><ele>53.0</ele><time>2026-03-29T13:05:42Z</time></trkpt><trkpt lat="37.138493386776126" lon="14.353887147069896"><ele>53.0</ele><time>2026-03-29T13:05:43Z</time></trkpt><trkpt lat="37.13841046517211" lon="14.353682197756969"><ele>53.0</ele><time>2026-03-29T13:05:44Z</time></trkpt><trkpt lat="37.13833131222768" lon="14.353480126310611"><ele>53.0</ele><time>2026-03-29T13:05:45Z</time></trkpt><trkpt lat="37.13825982727405" lon="14.353290078854673"><ele>53.0</ele><time>2026-03-29T13:05:46Z</time></trkpt><trkpt lat="37.13820202523415" lon="14.353105056789826"><ele>53.0</ele><time>2026-03-29T13:05:47Z</time></trkpt><trkpt lat="37.13814819619476" lon="14.35292264240906"><ele>53.0</ele><time>2026-03-29T13:05:48Z</time></trkpt><trkpt lat="37.1380948580847" lon="14.352751447417763"><ele>53.0</ele><time>2026-03-29T13:05:49Z</time></trkpt><trkpt lat="37.13804767476463" lon="14.352601356633865"><ele>53.0</ele><time>2026-03-29T13:05:50Z</time></trkpt><trkpt lat="37.138002519618" lon="14.352463530442513"><ele>53.0</ele><time>2026-03-29T13:05:51Z</time></trkpt><trkpt lat="37.13795996786172" lon="14.352344379855927"><ele>53.0</ele><time>2026-03-29T13:05:52Z</time></trkpt><trkpt lat="37.1379103893208" lon="14.35224316589921"><ele>53.0</ele><time>2026-03-29T13:05:53Z</time></trkpt><trkpt lat="37.13783757239151" lon="14.352162986157374"><ele>53.0</ele><time>2026-03-29T13:05:54Z</time></trkpt><trkpt lat="37.13774207297528" lon="14.352110592231007"><ele>53.0</ele><time>2026-03-29T13:05:55Z</time></trkpt><trkpt lat="37.13762622098887" lon="14.352069530882506"><ele>53.0</ele><time>2026-03-29T13:05:56Z</time></trkpt><trkpt lat="37.13748586721691" lon="14.352022242530447"><ele>52.0</ele><time>2026-03-29T13:05:57Z</time></trkpt><trkpt lat="37.13733451801386" lon="14.351953947715117"><ele>51.0</ele><time>2026-03-29T13:05:58Z</time></trkpt><trkpt lat="37.13718911283009" lon="14.351848014811026"><ele>50.0</ele><time>2026-03-29T13:05:59Z</time></trkpt><trkpt lat="37.13703426784509" lon="14.351732326235272"><ele>50.0</ele><time>2026-03-29T13:06:00Z</time></trkpt><trkpt lat="37.136873945076886" lon="14.351625337303531"><ele>50.0</ele><time>2026-03-29T13:06:01Z</time></trkpt><trkpt lat="37.13671831722037" lon="14.3514980302008"><ele>50.0</ele><time>2026-03-29T13:06:02Z</time></trkpt><trkpt lat="37.13640020806868" lon="14.351248635023142"><ele>50.0</ele><time>2026-03-29T13:06:04Z</time></trkpt><trkpt lat="37.136245681269344" lon="14.351126371700513"><ele>50.0</ele><time>2026-03-29T13:06:05Z</time></trkpt><trkpt lat="37.13609693088497" lon="14.35101377456507"><ele>50.0</ele><time>2026-03-29T13:06:06Z</time></trkpt><trkpt lat="37.13595515150603" lon="14.35089348624141"><ele>50.0</ele><time>2026-03-29T13:06:07Z</time></trkpt><trkpt lat="37.135814120367996" lon="14.350757612827417"><ele>50.0</ele><time>2026-03-29T13:06:08Z</time></trkpt><trkpt lat="37.135673653916186" lon="14.35061537730348"><ele>50.0</ele><time>2026-03-29T13:06:09Z</time></trkpt><trkpt lat="37.13553207420614" lon="14.350476439239554"><ele>50.333333333333336</ele><time>2026-03-29T13:06:10Z</time></trkpt><trkpt lat="37.13539386939975" lon="14.350350862499678"><ele>50.66666666666667</ele><time>2026-03-29T13:06:10.999Z</time></trkpt><trkpt lat="37.135251260447454" lon="14.350232956771475"><ele>51.0</ele><time>2026-03-29T13:06:11.999Z</time></trkpt><trkpt lat="37.13510249250525" lon="14.350115113749018"><ele>51.0</ele><time>2026-03-29T13:06:12.999Z</time></trkpt><trkpt lat="37.13495335664247" lon="14.349999197725406"><ele>51.0</ele><time>2026-03-29T13:06:13.999Z</time></trkpt><trkpt lat="37.13480263640364" lon="14.349888741618262"><ele>51.0</ele><time>2026-03-29T13:06:14.999Z</time></trkpt><trkpt lat="37.134652724070264" lon="14.349782644685433"><ele>50.0</ele><time>2026-03-29T13:06:15.999Z</time></trkpt><trkpt lat="37.13450238217701" lon="14.34967770286702"><ele>49.0</ele><time>2026-03-29T13:06:16.999Z</time></trkpt><trkpt lat="37.1343561664516" lon="14.349575951724875"><ele>48.0</ele><time>2026-03-29T13:06:17.999Z</time></trkpt><trkpt lat="37.13421203528954" lon="14.349475465975324"><ele>48.0</ele><time>2026-03-29T13:06:18.999Z</time></trkpt><trkpt lat="37.13406426455724" lon="14.349375914605615"><ele>48.0</ele><time>2026-03-29T13:06:19.999Z</time></trkpt><trkpt lat="37.13391801128615" lon="14.34928112613776"><ele>48.0</ele><time>2026-03-29T13:06:20.999Z</time></trkpt><trkpt lat="37.13378403202769" lon="14.349196564988542"><ele>48.0</ele><time>2026-03-29T13:06:21.999Z</time></trkpt><trkpt lat="37.13366066632768" lon="14.349113289544931"><ele>48.0</ele><time>2026-03-29T13:06:22.999Z</time></trkpt><trkpt lat="37.133541698723086" lon="14.34903180356743"><ele>48.0</ele><time>2026-03-29T13:06:23.999Z</time></trkpt><trkpt lat="37.133422972544956" lon="14.348961346257054"><ele>48.0</ele><time>2026-03-29T13:06:24.999Z</time></trkpt><trkpt lat="37.13329670368499" lon="14.34890646708747"><ele>47.75</ele><time>2026-03-29T13:06:25.999Z</time></trkpt><trkpt lat="37.13316430064125" lon="14.348869956114276"><ele>47.5</ele><time>2026-03-29T13:06:26.999Z</time></trkpt><trkpt lat="37.13302612946145" lon="14.348848019040435"><ele>47.25</ele><time>2026-03-29T13:06:27.999Z</time></trkpt><trkpt lat="37.132885464070156" lon="14.348834284145829"><ele>47.0</ele><time>2026-03-29T13:06:28.999Z</time></trkpt><trkpt lat="37.13274181261724" lon="14.348820575562701"><ele>47.0</ele><time>2026-03-29T13:06:29.999Z</time></trkpt><trkpt lat="37.13259590038812" lon="14.348811304739359"><ele>47.0</ele><time>2026-03-29T13:06:30.999Z</time></trkpt><trkpt lat="37.132456156118316" lon="14.348806590556793"><ele>47.0</ele><time>2026-03-29T13:06:31.999Z</time></trkpt><trkpt lat="37.13231895331792" lon="14.348803905540953"><ele>47.0</ele><time>2026-03-29T13:06:33Z</time></trkpt><trkpt lat="37.13218015611191" lon="14.348814152282833"><ele>47.0</ele><time>2026-03-29T13:06:34Z</time></trkpt><trkpt lat="37.132040206096626" lon="14.348829947865896"><ele>47.0</ele><time>2026-03-29T13:06:35Z</time></trkpt><trkpt lat="37.13189792646091" lon="14.34884432321999"><ele>47.0</ele><time>2026-03-29T13:06:36Z</time></trkpt><trkpt lat="37.13175357845803" lon="14.34886166413819"><ele>47.0</ele><time>2026-03-29T13:06:37Z</time></trkpt><trkpt lat="37.13160681948257" lon="14.348889634384484"><ele>46.666666666666664</ele><time>2026-03-29T13:06:38Z</time></trkpt><trkpt lat="37.131460429935714" lon="14.348935436692443"><ele>46.333333333333336</ele><time>2026-03-29T13:06:39Z</time></trkpt><trkpt lat="37.13131458038468" lon="14.348982883363892"><ele>46.0</ele><time>2026-03-29T13:06:40Z</time></trkpt><trkpt lat="37.13116875264186" lon="14.349031153846918"><ele>46.0</ele><time>2026-03-29T13:06:41Z</time></trkpt><trkpt lat="37.13102542300815" lon="14.349091359062998"><ele>46.0</ele><time>2026-03-29T13:06:42Z</time></trkpt><trkpt lat="37.13088543885512" lon="14.349149656235904"><ele>46.0</ele><time>2026-03-29T13:06:43Z</time></trkpt><trkpt lat="37.13075882809564" lon="14.349193800267633"><ele>46.0</ele><time>2026-03-29T13:06:44Z</time></trkpt><trkpt lat="37.13063541933538" lon="14.349216397633164"><ele>46.5</ele><time>2026-03-29T13:06:45Z</time></trkpt><trkpt lat="37.130509722377695" lon="14.349191432992303"><ele>47.0</ele><time>2026-03-29T13:06:46Z</time></trkpt><trkpt lat="37.1303758229064" lon="14.349176071379372"><ele>47.5</ele><time>2026-03-29T13:06:47Z</time></trkpt><trkpt lat="37.13023462347206" lon="14.349165173724804"><ele>48.0</ele><time>2026-03-29T13:06:48Z</time></trkpt><trkpt lat="37.13008869998304" lon="14.349164295131919"><ele>48.0</ele><time>2026-03-29T13:06:49Z</time></trkpt><trkpt lat="37.12994153558079" lon="14.349152178445049"><ele>48.0</ele><time>2026-03-29T13:06:50Z</time></trkpt><trkpt lat="37.12979363616816" lon="14.349135660521808"><ele>48.0</ele><time>2026-03-29T13:06:51Z</time></trkpt><trkpt lat="37.12964575649309" lon="14.349119305828125"><ele>48.0</ele><time>2026-03-29T13:06:52Z</time></trkpt><trkpt lat="37.12949603520522" lon="14.349103582068972"><ele>47.75</ele><time>2026-03-29T13:06:53Z</time></trkpt><trkpt lat="37.129347668061875" lon="14.349081898881284"><ele>47.5</ele><time>2026-03-29T13:06:54Z</time></trkpt><trkpt lat="37.12919994190622" lon="14.34906004336802"><ele>47.25</ele><time>2026-03-29T13:06:55Z</time></trkpt><trkpt lat="37.129055772234096" lon="14.349035066886145"><ele>47.0</ele><time>2026-03-29T13:06:56Z</time></trkpt><trkpt lat="37.128913563539825" lon="14.34900386780715"><ele>46.5</ele><time>2026-03-29T13:06:57Z</time></trkpt><trkpt lat="37.12877295368976" lon="14.348979149988807"><ele>46.0</ele><time>2026-03-29T13:06:58Z</time></trkpt><trkpt lat="37.128630815213576" lon="14.34897097392201"><ele>45.5</ele><time>2026-03-29T13:06:59Z</time></trkpt><trkpt lat="37.1284895857138" lon="14.348956686918502"><ele>45.0</ele><time>2026-03-29T13:07:00Z</time></trkpt><trkpt lat="37.12834534178636" lon="14.348934337995829"><ele>45.0</ele><time>2026-03-29T13:07:01Z</time></trkpt><trkpt lat="37.12821127630305" lon="14.348890350652828"><ele>45.0</ele><time>2026-03-29T13:07:02Z</time></trkpt><trkpt lat="37.12807492907932" lon="14.348815738758956"><ele>45.0</ele><time>2026-03-29T13:07:03Z</time></trkpt><trkpt lat="37.12793068232218" lon="14.348716893017471"><ele>45.0</ele><time>2026-03-29T13:07:04Z</time></trkpt><trkpt lat="37.1277825769733" lon="14.348604672184"><ele>45.0</ele><time>2026-03-29T13:07:05Z</time></trkpt><trkpt lat="37.12763820028461" lon="14.34849179237973"><ele>45.0</ele><time>2026-03-29T13:07:06Z</time></trkpt><trkpt lat="37.1275079989011" lon="14.348402462022365"><ele>45.0</ele><time>2026-03-29T13:07:07Z</time></trkpt><trkpt lat="37.12738731360278" lon="14.348327461023702"><ele>45.0</ele><time>2026-03-29T13:07:08Z</time></trkpt><trkpt lat="37.12728186694113" lon="14.34826454074287"><ele>45.0</ele><time>2026-03-29T13:07:09Z</time></trkpt><trkpt lat="37.127196077466024" lon="14.348216459530603"><ele>45.0</ele><time>2026-03-29T13:07:10Z</time></trkpt><trkpt lat="37.12713087553293" lon="14.348182703355898"><ele>45.0</ele><time>2026-03-29T13:07:11Z</time></trkpt><trkpt lat="37.12706907194957" lon="14.348131880410628"><ele>45.0</ele><time>2026-03-29T13:20:18Z</time></trkpt><trkpt lat="37.127026897925354" lon="14.34819713924698"><ele>45.0</ele><time>2026-03-29T13:21:20Z</time></trkpt><trkpt lat="37.12699111068068" lon="14.348284719985262"><ele>45.0</ele><time>2026-03-29T13:21:21Z</time></trkpt><trkpt lat="37.12695068558032" lon="14.348382468268202"><ele>45.0</ele><time>2026-03-29T13:21:22Z</time></trkpt><trkpt lat="37.126915060097254" lon="14.34847821378306"><ele>45.0</ele><time>2026-03-29T13:21:23Z</time></trkpt><trkpt lat="37.12687599509553" lon="14.348580439681689"><ele>45.0</ele><time>2026-03-29T13:21:24Z</time></trkpt><trkpt lat="37.12682367666011" lon="14.348669130304303"><ele>45.0</ele><time>2026-03-29T13:21:25Z</time></trkpt><trkpt lat="37.12678480459326" lon="14.34876455164185"><ele>45.0</ele><time>2026-03-29T13:21:26Z</time></trkpt><trkpt lat="37.12674777284837" lon="14.348855455402836"><ele>45.0</ele><time>2026-03-29T13:21:27Z</time></trkpt><trkpt lat="37.12671325310728" lon="14.348940192694428"><ele>45.0</ele><time>2026-03-29T13:21:28Z</time></trkpt><trkpt lat="37.126678468983194" lon="14.349025579131382"><ele>45.0</ele><time>2026-03-29T13:21:29Z</time></trkpt><trkpt lat="37.12664383165732" lon="14.349110604996726"><ele>45.0</ele><time>2026-03-29T13:21:30Z</time></trkpt><trkpt lat="37.12660765754597" lon="14.349199941611054"><ele>45.0</ele><time>2026-03-29T13:21:31Z</time></trkpt><trkpt lat="37.12656851155562" lon="14.349296624118136"><ele>45.0</ele><time>2026-03-29T13:21:32Z</time></trkpt><trkpt lat="37.12652848728388" lon="14.34939547584091"><ele>45.0</ele><time>2026-03-29T13:21:33Z</time></trkpt><trkpt lat="37.12648859729537" lon="14.349493995865842"><ele>45.0</ele><time>2026-03-29T13:21:34Z</time></trkpt><trkpt lat="37.12644831432931" lon="14.349593486274125"><ele>45.0</ele><time>2026-03-29T13:21:35Z</time></trkpt><trkpt lat="37.12640675117018" lon="14.349696138679011"><ele>45.0</ele><time>2026-03-29T13:21:36Z</time></trkpt><trkpt lat="37.126363941834185" lon="14.34980186876037"><ele>45.0</ele><time>2026-03-29T13:21:37Z</time></trkpt><trkpt lat="37.12631978880495" lon="14.349910917499432"><ele>45.0</ele><time>2026-03-29T13:21:38Z</time></trkpt><trkpt lat="37.12627222355055" lon="14.35002839404093"><ele>45.0</ele><time>2026-03-29T13:21:39Z</time></trkpt><trkpt lat="37.126223296914226" lon="14.350149148923512"><ele>45.0</ele><time>2026-03-29T13:21:40Z</time></trkpt><trkpt lat="37.12617273222698" lon="14.350273365290525"><ele>45.0</ele><time>2026-03-29T13:21:41Z</time></trkpt><trkpt lat="37.12611997315746" lon="14.350402972561085"><ele>45.0</ele><time>2026-03-29T13:21:42Z</time></trkpt><trkpt lat="37.12606560062987" lon="14.350536543299"><ele>45.0</ele><time>2026-03-29T13:21:43Z</time></trkpt><trkpt lat="37.12602468258364" lon="14.350681062434422"><ele>45.0</ele><time>2026-03-29T13:21:44Z</time></trkpt><trkpt lat="37.12596761287814" lon="14.350816898742462"><ele>45.0</ele><time>2026-03-29T13:21:45Z</time></trkpt><trkpt lat="37.12591074424267" lon="14.350953890670876"><ele>45.0</ele><time>2026-03-29T13:21:46Z</time></trkpt><trkpt lat="37.12585514891665" lon="14.351092347171894"><ele>45.0</ele><time>2026-03-29T13:21:47Z</time></trkpt><trkpt lat="37.125797226674976" lon="14.351232693883754"><ele>45.0</ele><time>2026-03-29T13:21:48Z</time></trkpt><trkpt lat="37.12573918844285" lon="14.351373892814873"><ele>45.0</ele><time>2026-03-29T13:21:49Z</time></trkpt><trkpt lat="37.12568050046107" lon="14.351517676680487"><ele>45.0</ele><time>2026-03-29T13:21:50Z</time></trkpt><trkpt lat="37.12561911917099" lon="14.351664333510334"><ele>45.0</ele><time>2026-03-29T13:21:51Z</time></trkpt><trkpt lat="37.12555662327223" lon="14.351819214773922"><ele>45.0</ele><time>2026-03-29T13:21:52Z</time></trkpt><trkpt lat="37.12549242087271" lon="14.351978097952149"><ele>45.0</ele><time>2026-03-29T13:21:53Z</time></trkpt><trkpt lat="37.12542652104937" lon="14.352138294273965"><ele>45.25</ele><time>2026-03-29T13:21:54Z</time></trkpt><trkpt lat="37.12536108197306" lon="14.352299023405248"><ele>45.5</ele><time>2026-03-29T13:21:55Z</time></trkpt><trkpt lat="37.12529554326118" lon="14.352461585309952"><ele>45.75</ele><time>2026-03-29T13:21:56Z</time></trkpt><trkpt lat="37.12522981086021" lon="14.352622088905921"><ele>46.0</ele><time>2026-03-29T13:21:57Z</time></trkpt><trkpt lat="37.1251621436393" lon="14.352786422133399"><ele>46.0</ele><time>2026-03-29T13:21:58Z</time></trkpt><trkpt lat="37.125093312613764" lon="14.35295228595926"><ele>46.0</ele><time>2026-03-29T13:21:59Z</time></trkpt><trkpt lat="37.125025686945754" lon="14.35312020553439"><ele>46.0</ele><time>2026-03-29T13:22:00Z</time></trkpt><trkpt lat="37.124959250022066" lon="14.353290750724168"><ele>46.333333333333336</ele><time>2026-03-29T13:22:01Z</time></trkpt><trkpt lat="37.124891073863125" lon="14.353462231140302"><ele>46.666666666666664</ele><time>2026-03-29T13:22:02Z</time></trkpt><trkpt lat="37.12482148309914" lon="14.353633664222787"><ele>47.0</ele><time>2026-03-29T13:22:03Z</time></trkpt><trkpt lat="37.12474975621003" lon="14.353809159201607"><ele>47.0</ele><time>2026-03-29T13:22:04Z</time></trkpt><trkpt lat="37.124677675530236" lon="14.353986774608323"><ele>47.0</ele><time>2026-03-29T13:22:05Z</time></trkpt><trkpt lat="37.1246072481624" lon="14.354165455299976"><ele>47.0</ele><time>2026-03-29T13:22:06Z</time></trkpt><trkpt lat="37.1245372246026" lon="14.354341368355515"><ele>47.0</ele><time>2026-03-29T13:22:07Z</time></trkpt><trkpt lat="37.12446561778707" lon="14.354518812277338"><ele>47.0</ele><time>2026-03-29T13:22:08Z</time></trkpt><trkpt lat="37.12439372523306" lon="14.35469548402727"><ele>47.0</ele><time>2026-03-29T13:22:09Z</time></trkpt><trkpt lat="37.124322577450904" lon="14.354870986862887"><ele>47.0</ele><time>2026-03-29T13:22:10Z</time></trkpt><trkpt lat="37.12425068670552" lon="14.355045933927508"><ele>47.0</ele><time>2026-03-29T13:22:11Z</time></trkpt><trkpt lat="37.12418013179818" lon="14.355218306455448"><ele>47.0</ele><time>2026-03-29T13:22:12Z</time></trkpt><trkpt lat="37.12411264879891" lon="14.355382968247493"><ele>47.0</ele><time>2026-03-29T13:22:13Z</time></trkpt><trkpt lat="37.12404764298485" lon="14.355544164096967"><ele>47.0</ele><time>2026-03-29T13:22:14Z</time></trkpt><trkpt lat="37.12398386946133" lon="14.35570303463056"><ele>47.0</ele><time>2026-03-29T13:22:15Z</time></trkpt><trkpt lat="37.12392100272877" lon="14.355858354058116"><ele>47.0</ele><time>2026-03-29T13:22:16Z</time></trkpt><trkpt lat="37.12385867801857" lon="14.356012451595813"><ele>47.0</ele><time>2026-03-29T13:22:17Z</time></trkpt><trkpt lat="37.12379737425439" lon="14.356163875500986"><ele>47.0</ele><time>2026-03-29T13:22:18Z</time></trkpt><trkpt lat="37.12373584512508" lon="14.35631377996584"><ele>47.0</ele><time>2026-03-29T13:22:19Z</time></trkpt><trkpt lat="37.12367394920936" lon="14.356463073374378"><ele>47.0</ele><time>2026-03-29T13:22:20Z</time></trkpt><trkpt lat="37.12361383074972" lon="14.356611731839676"><ele>47.5</ele><time>2026-03-29T13:22:21Z</time></trkpt><trkpt lat="37.1235513381003" lon="14.356761932241055"><ele>48.0</ele><time>2026-03-29T13:22:22Z</time></trkpt><trkpt lat="37.12348896645041" lon="14.356913684881118"><ele>48.5</ele><time>2026-03-29T13:22:23Z</time></trkpt><trkpt lat="37.1234264866182" lon="14.3570664116762"><ele>49.0</ele><time>2026-03-29T13:22:24Z</time></trkpt><trkpt lat="37.123363652747116" lon="14.357219149654552"><ele>49.0</ele><time>2026-03-29T13:22:25Z</time></trkpt><trkpt lat="37.12330014583047" lon="14.357372174633017"><ele>49.0</ele><time>2026-03-29T13:22:26Z</time></trkpt><trkpt lat="37.123237119945465" lon="14.357526911508712"><ele>49.0</ele><time>2026-03-29T13:22:27Z</time></trkpt><trkpt lat="37.12317452729973" lon="14.357681536739"><ele>49.0</ele><time>2026-03-29T13:22:28Z</time></trkpt><trkpt lat="37.123111695987006" lon="14.357834084483596"><ele>49.0</ele><time>2026-03-29T13:22:29Z</time></trkpt><trkpt lat="37.123049680429126" lon="14.357986256699466"><ele>49.0</ele><time>2026-03-29T13:22:30Z</time></trkpt><trkpt lat="37.12298756301495" lon="14.358138657200461"><ele>49.0</ele><time>2026-03-29T13:22:31Z</time></trkpt><trkpt lat="37.122924286095945" lon="14.358292140413392"><ele>49.0</ele><time>2026-03-29T13:22:32Z</time></trkpt><trkpt lat="37.1228615620873" lon="14.358447806834993"><ele>49.0</ele><time>2026-03-29T13:22:33Z</time></trkpt><trkpt lat="37.12279903453126" lon="14.358604708137687"><ele>49.0</ele><time>2026-03-29T13:22:34Z</time></trkpt><trkpt lat="37.12273638723389" lon="14.358760557265214"><ele>49.0</ele><time>2026-03-29T13:22:35Z</time></trkpt><trkpt lat="37.12267314318645" lon="14.358913868029617"><ele>49.0</ele><time>2026-03-29T13:22:36Z</time></trkpt><trkpt lat="37.122610643674555" lon="14.359065806981846"><ele>49.5</ele><time>2026-03-29T13:22:37Z</time></trkpt><trkpt lat="37.122549611050665" lon="14.359217514985362"><ele>50.0</ele><time>2026-03-29T13:22:38Z</time></trkpt><trkpt lat="37.12249007637969" lon="14.35937084363769"><ele>50.5</ele><time>2026-03-29T13:22:39Z</time></trkpt><trkpt lat="37.12242988410062" lon="14.359521684767316"><ele>51.0</ele><time>2026-03-29T13:22:40Z</time></trkpt><trkpt lat="37.12236746127341" lon="14.359673761689415"><ele>51.75</ele><time>2026-03-29T13:22:41Z</time></trkpt><trkpt lat="37.122305241782804" lon="14.359824947325148"><ele>52.5</ele><time>2026-03-29T13:22:42Z</time></trkpt><trkpt lat="37.12224343186106" lon="14.359977229069848"><ele>53.25</ele><time>2026-03-29T13:22:43Z</time></trkpt><trkpt lat="37.12218258738788" lon="14.360129184314191"><ele>54.0</ele><time>2026-03-29T13:22:44Z</time></trkpt><trkpt lat="37.12212368537398" lon="14.36028122456705"><ele>54.0</ele><time>2026-03-29T13:22:45Z</time></trkpt><trkpt lat="37.122064571347764" lon="14.3604336012233"><ele>54.0</ele><time>2026-03-29T13:22:46Z</time></trkpt><trkpt lat="37.12200190194249" lon="14.360586382557281"><ele>54.0</ele><time>2026-03-29T13:22:47Z</time></trkpt><trkpt lat="37.12193799069232" lon="14.360738161786976"><ele>54.0</ele><time>2026-03-29T13:22:48Z</time></trkpt><trkpt lat="37.121874035231166" lon="14.36089097158235"><ele>54.25</ele><time>2026-03-29T13:22:49Z</time></trkpt><trkpt lat="37.12181102240669" lon="14.361045529834163"><ele>54.5</ele><time>2026-03-29T13:22:50Z</time></trkpt><trkpt lat="37.12174881288312" lon="14.36120031242039"><ele>54.75</ele><time>2026-03-29T13:22:51Z</time></trkpt><trkpt lat="37.12168672935315" lon="14.361358176269716"><ele>55.0</ele><time>2026-03-29T13:22:52Z</time></trkpt><trkpt lat="37.121624552484036" lon="14.361517796917346"><ele>55.5</ele><time>2026-03-29T13:22:53Z</time></trkpt><trkpt lat="37.121560697519136" lon="14.361676674032136"><ele>56.0</ele><time>2026-03-29T13:22:54Z</time></trkpt><trkpt lat="37.12149666381891" lon="14.361834516378307"><ele>56.5</ele><time>2026-03-29T13:22:55Z</time></trkpt><trkpt lat="37.12143273054895" lon="14.361993162979891"><ele>57.0</ele><time>2026-03-29T13:22:56Z</time></trkpt><trkpt lat="37.121366853400865" lon="14.362153345490793"><ele>57.25</ele><time>2026-03-29T13:22:57Z</time></trkpt><trkpt lat="37.12130229697448" lon="14.362311605323615"><ele>57.5</ele><time>2026-03-29T13:22:58Z</time></trkpt><trkpt lat="37.1212386684758" lon="14.3624688681937"><ele>57.75</ele><time>2026-03-29T13:22:59Z</time></trkpt><trkpt lat="37.121175681947676" lon="14.36262644126541"><ele>58.0</ele><time>2026-03-29T13:23:00Z</time></trkpt><trkpt lat="37.1211126711973" lon="14.362782564725093"><ele>58.0</ele><time>2026-03-29T13:23:01Z</time></trkpt><trkpt lat="37.12105055478918" lon="14.362937969942532"><ele>58.0</ele><time>2026-03-29T13:23:02Z</time></trkpt><trkpt lat="37.12098946325226" lon="14.363093122390923"><ele>58.0</ele><time>2026-03-29T13:23:03Z</time></trkpt><trkpt lat="37.120928222247166" lon="14.3632478863483"><ele>58.0</ele><time>2026-03-29T13:23:04Z</time></trkpt><trkpt lat="37.120866957696755" lon="14.363400670370236"><ele>58.0</ele><time>2026-03-29T13:23:05Z</time></trkpt><trkpt lat="37.1208057025819" lon="14.363554238826557"><ele>58.0</ele><time>2026-03-29T13:23:06Z</time></trkpt><trkpt lat="37.12074597255582" lon="14.363706683840654"><ele>58.0</ele><time>2026-03-29T13:23:07Z</time></trkpt><trkpt lat="37.12068645083222" lon="14.363856193239792"><ele>58.0</ele><time>2026-03-29T13:23:08Z</time></trkpt><trkpt lat="37.12062571314476" lon="14.364001884185637"><ele>57.75</ele><time>2026-03-29T13:23:09Z</time></trkpt><trkpt lat="37.12056560929295" lon="14.364146367184086"><ele>57.5</ele><time>2026-03-29T13:23:10Z</time></trkpt><trkpt lat="37.120507418448945" lon="14.36428919391256"><ele>57.25</ele><time>2026-03-29T13:23:11Z</time></trkpt><trkpt lat="37.1204520330745" lon="14.364431533397463"><ele>57.0</ele><time>2026-03-29T13:23:12Z</time></trkpt><trkpt lat="37.12039622886001" lon="14.364574270351875"><ele>57.75</ele><time>2026-03-29T13:23:13Z</time></trkpt><trkpt lat="37.12034176086679" lon="14.364714655072712"><ele>58.5</ele><time>2026-03-29T13:23:14Z</time></trkpt><trkpt lat="37.12028752333152" lon="14.364851320540321"><ele>59.25</ele><time>2026-03-29T13:23:15Z</time></trkpt><trkpt lat="37.12023245548167" lon="14.364989478243722"><ele>60.0</ele><time>2026-03-29T13:23:16Z</time></trkpt><trkpt lat="37.120177150625864" lon="14.36512580920355"><ele>60.0</ele><time>2026-03-29T13:23:17Z</time></trkpt><trkpt lat="37.12012186090302" lon="14.36526225780913"><ele>60.0</ele><time>2026-03-29T13:23:18Z</time></trkpt><trkpt lat="37.12005191350223" lon="14.36538849424473"><ele>60.0</ele><time>2026-03-29T13:23:19Z</time></trkpt><trkpt lat="37.11999638288127" lon="14.365523394279021"><ele>60.0</ele><time>2026-03-29T13:23:20Z</time></trkpt><trkpt lat="37.11994162800138" lon="14.365657912902337"><ele>61.0</ele><time>2026-03-29T13:23:21Z</time></trkpt><trkpt lat="37.11988871288369" lon="14.36579066883447"><ele>62.0</ele><time>2026-03-29T13:23:22Z</time></trkpt><trkpt lat="37.11983676252474" lon="14.365921052818804"><ele>63.0</ele><time>2026-03-29T13:23:23Z</time></trkpt><trkpt lat="37.11978519641128" lon="14.36605092450748"><ele>64.0</ele><time>2026-03-29T13:23:24Z</time></trkpt><trkpt lat="37.11974844050064" lon="14.366186380247594"><ele>64.0</ele><time>2026-03-29T13:23:25Z</time></trkpt><trkpt lat="37.11969789727403" lon="14.366310263863252"><ele>64.0</ele><time>2026-03-29T13:23:26Z</time></trkpt><trkpt lat="37.11964969827371" lon="14.366431573494326"><ele>64.0</ele><time>2026-03-29T13:23:27Z</time></trkpt><trkpt lat="37.119603701648956" lon="14.366549688139965"><ele>64.0</ele><time>2026-03-29T13:23:28Z</time></trkpt><trkpt lat="37.11954420422969" lon="14.366654704400975"><ele>64.0</ele><time>2026-03-29T13:23:29Z</time></trkpt><trkpt lat="37.11950038457846" lon="14.36676424006802"><ele>64.5</ele><time>2026-03-29T13:23:30Z</time></trkpt><trkpt lat="37.11947261024644" lon="14.366871120824136"><ele>65.0</ele><time>2026-03-29T13:23:31Z</time></trkpt><trkpt lat="37.119437929861526" lon="14.36695299867896"><ele>65.5</ele><time>2026-03-29T13:23:32Z</time></trkpt><trkpt lat="37.119409098910175" lon="14.36702335125338"><ele>66.0</ele><time>2026-03-29T13:23:33Z</time></trkpt><trkpt lat="37.11934628373289" lon="14.367130625435697"><ele>66.5</ele><time>2026-03-29T13:23:35Z</time></trkpt><trkpt lat="37.11927471937193" lon="14.367142366423689"><ele>67.0</ele><time>2026-03-29T13:23:49Z</time></trkpt><trkpt lat="37.11919736929724" lon="14.367040051573301"><ele>67.0</ele><time>2026-03-29T13:23:51Z</time></trkpt><trkpt lat="37.11915677485422" lon="14.366951399432509"><ele>67.0</ele><time>2026-03-29T13:23:52Z</time></trkpt><trkpt lat="37.11911080508512" lon="14.366852321664156"><ele>67.0</ele><time>2026-03-29T13:23:53Z</time></trkpt><trkpt lat="37.119062263188646" lon="14.366746100446932"><ele>67.0</ele><time>2026-03-29T13:23:54Z</time></trkpt><trkpt lat="37.119012638568535" lon="14.366628007407506"><ele>67.0</ele><time>2026-03-29T13:23:55Z</time></trkpt><trkpt lat="37.118958119447136" lon="14.366506714679543"><ele>67.0</ele><time>2026-03-29T13:23:56Z</time></trkpt><trkpt lat="37.11890124745694" lon="14.366389317858197"><ele>67.0</ele><time>2026-03-29T13:23:57Z</time></trkpt><trkpt lat="37.118842911245395" lon="14.366279268749196"><ele>67.0</ele><time>2026-03-29T13:23:58Z</time></trkpt><trkpt lat="37.118789090618634" lon="14.36618322149167"><ele>67.0</ele><time>2026-03-29T13:23:59Z</time></trkpt><trkpt lat="37.11872439734587" lon="14.366095626153795"><ele>67.0</ele><time>2026-03-29T13:24:00Z</time></trkpt><trkpt lat="37.11864701595845" lon="14.366016469806333"><ele>67.0</ele><time>2026-03-29T13:24:01Z</time></trkpt><trkpt lat="37.11856113134946" lon="14.365949299069204"><ele>67.0</ele><time>2026-03-29T13:24:02Z</time></trkpt><trkpt lat="37.118469004486776" lon="14.365894631015381"><ele>67.0</ele><time>2026-03-29T13:24:03Z</time></trkpt><trkpt lat="37.11836597885848" lon="14.365851464971641"><ele>67.0</ele><time>2026-03-29T13:24:04Z</time></trkpt><trkpt lat="37.11825770799793" lon="14.365819015839778"><ele>67.0</ele><time>2026-03-29T13:24:05Z</time></trkpt><trkpt lat="37.118149959670276" lon="14.365788293538813"><ele>67.75</ele><time>2026-03-29T13:24:06Z</time></trkpt><trkpt lat="37.118036284470676" lon="14.365754914648269"><ele>68.5</ele><time>2026-03-29T13:24:07Z</time></trkpt><trkpt lat="37.11792134983414" lon="14.365717741731004"><ele>69.25</ele><time>2026-03-29T13:24:08Z</time></trkpt><trkpt lat="37.117803897384746" lon="14.365680010761297"><ele>70.0</ele><time>2026-03-29T13:24:09Z</time></trkpt><trkpt lat="37.117687320534635" lon="14.365638979512283"><ele>70.0</ele><time>2026-03-29T13:24:10Z</time></trkpt><trkpt lat="37.11757171794615" lon="14.36560031382892"><ele>70.0</ele><time>2026-03-29T13:24:11Z</time></trkpt><trkpt lat="37.11745337569009" lon="14.365564724583116"><ele>70.0</ele><time>2026-03-29T13:24:12Z</time></trkpt><trkpt lat="37.117342302607405" lon="14.36552374675984"><ele>70.0</ele><time>2026-03-29T13:24:13Z</time></trkpt><trkpt lat="37.11723448415078" lon="14.365472989780343"><ele>68.8</ele><time>2026-03-29T13:24:14Z</time></trkpt><trkpt lat="37.11713251238341" lon="14.365415300718478"><ele>67.6</ele><time>2026-03-29T13:24:15Z</time></trkpt><trkpt lat="37.1170355006734" lon="14.365350258374427"><ele>66.4</ele><time>2026-03-29T13:24:16Z</time></trkpt><trkpt lat="37.116946540860674" lon="14.365282928793144"><ele>65.2</ele><time>2026-03-29T13:24:17Z</time></trkpt><trkpt lat="37.1168580144046" lon="14.36521292325015"><ele>64.0</ele><time>2026-03-29T13:24:18Z</time></trkpt><trkpt lat="37.11677631972741" lon="14.365131502850774"><ele>64.0</ele><time>2026-03-29T13:24:19Z</time></trkpt><trkpt lat="37.11668467006575" lon="14.365077320408886"><ele>64.0</ele><time>2026-03-29T13:24:20Z</time></trkpt><trkpt lat="37.11661188577585" lon="14.36499324852703"><ele>64.0</ele><time>2026-03-29T13:24:21Z</time></trkpt><trkpt lat="37.11653610034288" lon="14.364895382104459"><ele>64.0</ele><time>2026-03-29T13:24:22Z</time></trkpt><trkpt lat="37.116460859664215" lon="14.36479696405603"><ele>64.0</ele><time>2026-03-29T13:24:23Z</time></trkpt><trkpt lat="37.11639095729218" lon="14.36469439700324"><ele>63.400000000000006</ele><time>2026-03-29T13:24:24Z</time></trkpt><trkpt lat="37.11632636687032" lon="14.364592803353165"><ele>62.800000000000004</ele><time>2026-03-29T13:24:25Z</time></trkpt><trkpt lat="37.11626884472444" lon="14.364496875120704"><ele>62.199999999999996</ele><time>2026-03-29T13:24:26Z</time></trkpt><trkpt lat="37.11620988897302" lon="14.364406920627768"><ele>61.599999999999994</ele><time>2026-03-29T13:24:27Z</time></trkpt><trkpt lat="37.116142037794944" lon="14.364322267954895"><ele>61.0</ele><time>2026-03-29T13:24:28Z</time></trkpt><trkpt lat="37.11606853605621" lon="14.364235238780461"><ele>61.0</ele><time>2026-03-29T13:24:29Z</time></trkpt><trkpt lat="37.11598978429014" lon="14.36416679602774"><ele>60.99999999999999</ele><time>2026-03-29T13:24:30Z</time></trkpt><trkpt lat="37.1159009039363" lon="14.36410965091295"><ele>60.99999999999999</ele><time>2026-03-29T13:24:31Z</time></trkpt><trkpt lat="37.115810938201236" lon="14.364060333291922"><ele>61.0</ele><time>2026-03-29T13:24:32Z</time></trkpt><trkpt lat="37.11572760793099" lon="14.364022298603276"><ele>61.0</ele><time>2026-03-29T13:24:33Z</time></trkpt><trkpt lat="37.115652861838164" lon="14.363993337252852"><ele>61.166666666666664</ele><time>2026-03-29T13:24:34Z</time></trkpt><trkpt lat="37.11558991931709" lon="14.363968078173597"><ele>61.33333333333333</ele><time>2026-03-29T13:24:35Z</time></trkpt><trkpt lat="37.11548694984868" lon="14.3639393117613"><ele>61.5</ele><time>2026-03-29T13:24:37Z</time></trkpt><trkpt lat="37.11537459746417" lon="14.363898190247836"><ele>61.66666666666667</ele><time>2026-03-29T13:24:39Z</time></trkpt><trkpt lat="37.11530532877418" lon="14.363872686015878"><ele>61.833333333333336</ele><time>2026-03-29T13:24:40Z</time></trkpt><trkpt lat="37.11522447065316" lon="14.363840440329511"><ele>62.0</ele><time>2026-03-29T13:24:41Z</time></trkpt><trkpt lat="37.11514617721959" lon="14.36380655187965"><ele>62.0</ele><time>2026-03-29T13:24:42Z</time></trkpt><trkpt lat="37.11507691304025" lon="14.363774947758666"><ele>62.0</ele><time>2026-03-29T13:24:43Z</time></trkpt><trkpt lat="37.1149987851399" lon="14.363745097187016"><ele>62.0</ele><time>2026-03-29T13:24:44Z</time></trkpt><trkpt lat="37.11484626278601" lon="14.363702023819036"><ele>62.0</ele><time>2026-03-29T13:24:46Z</time></trkpt><trkpt lat="37.11478144599622" lon="14.363688108156957"><ele>62.0</ele><time>2026-03-29T13:24:47Z</time></trkpt><trkpt lat="37.11469034636368" lon="14.363649455826016"><ele>62.0</ele><time>2026-03-29T13:24:49Z</time></trkpt><trkpt lat="37.11459290239307" lon="14.363808901039702"><ele>62.0</ele><time>2026-03-29T13:25:04Z</time></trkpt><trkpt lat="37.11455053775666" lon="14.363901250581849"><ele>62.0</ele><time>2026-03-29T13:25:05.999Z</time></trkpt><trkpt lat="37.114514779270706" lon="14.364023902428002"><ele>62.0</ele><time>2026-03-29T13:25:07.999Z</time></trkpt><trkpt lat="37.11448595603638" lon="14.364135673466828"><ele>62.0</ele><time>2026-03-29T13:25:09.999Z</time></trkpt><trkpt lat="37.11448381673681" lon="14.364220444140138"><ele>62.8</ele><time>2026-03-29T13:25:11.999Z</time></trkpt><trkpt lat="37.11446376733008" lon="14.36430314922428"><ele>63.6</ele><time>2026-03-29T13:25:13.999Z</time></trkpt><trkpt lat="37.11444172152079" lon="14.364405388032704"><ele>64.39999999999999</ele><time>2026-03-29T13:25:15.999Z</time></trkpt><trkpt lat="37.114421469781874" lon="14.364484476369011"><ele>65.2</ele><time>2026-03-29T13:25:18.999Z</time></trkpt><trkpt lat="37.114371768565064" lon="14.36460245150102"><ele>66.0</ele><time>2026-03-29T13:25:43Z</time></trkpt><trkpt lat="37.114326513038556" lon="14.364751482060141"><ele>67.0</ele><time>2026-03-29T13:25:45Z</time></trkpt><trkpt lat="37.11428199992847" lon="14.364898067671456"><ele>68.0</ele><time>2026-03-29T13:25:47Z</time></trkpt><trkpt lat="37.11424003036277" lon="14.365036277277344"><ele>69.0</ele><time>2026-03-29T13:25:49Z</time></trkpt><trkpt lat="37.114201944188636" lon="14.365161698486892"><ele>70.0</ele><time>2026-03-29T13:25:51Z</time></trkpt><trkpt lat="37.11416403492893" lon="14.365286537040332"><ele>70.0</ele><time>2026-03-29T13:25:53Z</time></trkpt><trkpt lat="37.11413931917193" lon="14.36541904756397"><ele>70.0</ele><time>2026-03-29T13:25:55Z</time></trkpt><trkpt lat="37.11410312793281" lon="14.365550890586086"><ele>70.0</ele><time>2026-03-29T13:25:57Z</time></trkpt><trkpt lat="37.114052573895364" lon="14.365674794534618"><ele>70.0</ele><time>2026-03-29T13:25:59Z</time></trkpt><trkpt lat="37.114016050780926" lon="14.365803030915583"><ele>70.0</ele><time>2026-03-29T13:26:01Z</time></trkpt><trkpt lat="37.11399141939497" lon="14.365936663688988"><ele>71.4</ele><time>2026-03-29T13:26:03Z</time></trkpt><trkpt lat="37.11394842785387" lon="14.36606964878476"><ele>72.8</ele><time>2026-03-29T13:26:05Z</time></trkpt><trkpt lat="37.113908627091455" lon="14.366193263201286"><ele>74.2</ele><time>2026-03-29T13:26:07Z</time></trkpt><trkpt lat="37.11388200306571" lon="14.36628574407888"><ele>75.6</ele><time>2026-03-29T13:26:09Z</time></trkpt><trkpt lat="37.11384726077747" lon="14.36638423888044"><ele>77.0</ele><time>2026-03-29T13:26:11Z</time></trkpt><trkpt lat="37.11385352494513" lon="14.36650969363254"><ele>78.16666666666667</ele><time>2026-03-29T13:26:13Z</time></trkpt><trkpt lat="37.11386107002419" lon="14.366620507996362"><ele>79.33333333333334</ele><time>2026-03-29T13:26:15Z</time></trkpt><trkpt lat="37.11394813107648" lon="14.366658825130802"><ele>80.5</ele><time>2026-03-29T13:26:16Z</time></trkpt><trkpt lat="37.114001583076394" lon="14.366730059019645"><ele>81.66666666666667</ele><time>2026-03-29T13:26:18Z</time></trkpt><trkpt lat="37.11404988057245" lon="14.366793415293472"><ele>82.83333333333333</ele><time>2026-03-29T13:26:21Z</time></trkpt><trkpt lat="37.11410997452418" lon="14.366858306966678"><ele>84.0</ele><time>2026-03-29T13:26:25Z</time></trkpt><trkpt lat="37.11405025946667" lon="14.366795419278795"><ele>84.0</ele><time>2026-03-29T13:28:28Z</time></trkpt><trkpt lat="37.11399917817066" lon="14.366740451744326"><ele>84.0</ele><time>2026-03-29T13:28:30Z</time></trkpt><trkpt lat="37.113932187115736" lon="14.366662400530075"><ele>84.0</ele><time>2026-03-29T13:28:33Z</time></trkpt><trkpt lat="37.11390436796029" lon="14.36657864420582"><ele>84.0</ele><time>2026-03-29T13:28:36Z</time></trkpt><trkpt lat="37.113893089217854" lon="14.36668271799273"><ele>84.0</ele><time>2026-03-29T13:28:39Z</time></trkpt><trkpt lat="37.11391151841514" lon="14.36693817632751"><ele>84.0</ele><time>2026-03-29T13:28:40Z</time></trkpt><trkpt lat="37.11385203835935" lon="14.367019802019996"><ele>84.0</ele><time>2026-03-29T13:28:41Z</time></trkpt><trkpt lat="37.11380030178159" lon="14.36708717158396"><ele>84.0</ele><time>2026-03-29T13:28:42Z</time></trkpt><trkpt lat="37.11374856668055" lon="14.36714818063167"><ele>84.0</ele><time>2026-03-29T13:28:43Z</time></trkpt><trkpt lat="37.11369815958467" lon="14.36721024411015"><ele>84.0</ele><time>2026-03-29T13:28:44Z</time></trkpt><trkpt lat="37.113645397624644" lon="14.367275206906042"><ele>84.0</ele><time>2026-03-29T13:28:45Z</time></trkpt><trkpt lat="37.11359357303239" lon="14.367339015627707"><ele>85.0</ele><time>2026-03-29T13:28:46Z</time></trkpt><trkpt lat="37.11354258029677" lon="14.367401799859088"><ele>86.0</ele><time>2026-03-29T13:28:47Z</time></trkpt><trkpt lat="37.11348997681203" lon="14.367466565173824"><ele>87.0</ele><time>2026-03-29T13:28:48Z</time></trkpt><trkpt lat="37.113437192454114" lon="14.367531553446005"><ele>88.0</ele><time>2026-03-29T13:28:49Z</time></trkpt><trkpt lat="37.11338949601317" lon="14.367590277238959"><ele>89.0</ele><time>2026-03-29T13:28:50Z</time></trkpt><trkpt lat="37.113322880058554" lon="14.367672294865743"><ele>90.0</ele><time>2026-03-29T13:28:52Z</time></trkpt><trkpt lat="37.113156462558166" lon="14.367499757289208"><ele>91.5</ele><time>2026-03-29T13:28:53Z</time></trkpt><trkpt lat="37.11309953803758" lon="14.36745666039294"><ele>93.0</ele><time>2026-03-29T13:28:54Z</time></trkpt><trkpt lat="37.11304268015682" lon="14.36740334775698"><ele>94.5</ele><time>2026-03-29T13:28:55Z</time></trkpt><trkpt lat="37.112933694393746" lon="14.367346140704433"><ele>96.0</ele><time>2026-03-29T13:28:57Z</time></trkpt><trkpt lat="37.11281627889474" lon="14.367314588149233"><ele>97.5</ele><time>2026-03-29T13:28:59Z</time></trkpt><trkpt lat="37.112745794869156" lon="14.367334974101086"><ele>99.0</ele><time>2026-03-29T13:29:01Z</time></trkpt><trkpt lat="37.112734699406246" lon="14.367479371609052"><ele>99.0</ele><time>2026-03-29T13:29:04Z</time></trkpt><trkpt lat="37.112725224550296" lon="14.367558675606787"><ele>99.0</ele><time>2026-03-29T13:29:05Z</time></trkpt><trkpt lat="37.1127106304554" lon="14.36764440383741"><ele>99.0</ele><time>2026-03-29T13:29:06Z</time></trkpt><trkpt lat="37.11269343437626" lon="14.367739917013589"><ele>99.0</ele><time>2026-03-29T13:29:07Z</time></trkpt><trkpt lat="37.11267159764454" lon="14.367840039062706"><ele>99.0</ele><time>2026-03-29T13:29:08Z</time></trkpt><trkpt lat="37.11265222190896" lon="14.36793765115991"><ele>99.0</ele><time>2026-03-29T13:29:09Z</time></trkpt><trkpt lat="37.112629511880186" lon="14.368046673710852"><ele>101.5</ele><time>2026-03-29T13:29:10Z</time></trkpt><trkpt lat="37.11260899122019" lon="14.368155498946514"><ele>104.0</ele><time>2026-03-29T13:29:11Z</time></trkpt><trkpt lat="37.1125849342039" lon="14.368265577453245"><ele>106.5</ele><time>2026-03-29T13:29:12Z</time></trkpt><trkpt lat="37.112556917069945" lon="14.368378252469277"><ele>109.0</ele><time>2026-03-29T13:29:13Z</time></trkpt><trkpt lat="37.11253815846227" lon="14.368471491138344"><ele>111.5</ele><time>2026-03-29T13:29:14Z</time></trkpt><trkpt lat="37.1125292140171" lon="14.368575749050748"><ele>114.0</ele><time>2026-03-29T13:29:15Z</time></trkpt><trkpt lat="37.11252525359994" lon="14.368664615159316"><ele>114.0</ele><time>2026-03-29T13:29:16Z</time></trkpt><trkpt lat="37.112494466049775" lon="14.368792480771177"><ele>114.0</ele><time>2026-03-29T13:29:17.999Z</time></trkpt><trkpt lat="37.11243090700044" lon="14.368859336310313"><ele>114.0</ele><time>2026-03-29T13:29:19.999Z</time></trkpt><trkpt lat="37.112328108923975" lon="14.368818777052239"><ele>114.0</ele><time>2026-03-29T13:29:21.999Z</time></trkpt><trkpt lat="37.11227331157482" lon="14.368774782718239"><ele>114.0</ele><time>2026-03-29T13:29:22.999Z</time></trkpt><trkpt lat="37.112155210226994" lon="14.368741775735753"><ele>115.0</ele><time>2026-03-29T13:29:24.999Z</time></trkpt><trkpt lat="37.11209083296015" lon="14.368769520466874"><ele>116.0</ele><time>2026-03-29T13:29:25.999Z</time></trkpt><trkpt lat="37.11202295712753" lon="14.368814625354108"><ele>117.0</ele><time>2026-03-29T13:29:26.999Z</time></trkpt><trkpt lat="37.11195719487505" lon="14.368868076464567"><ele>118.0</ele><time>2026-03-29T13:29:27.999Z</time></trkpt><trkpt lat="37.111860009996455" lon="14.368954607299237"><ele>119.0</ele><time>2026-03-29T13:29:29.999Z</time></trkpt><trkpt lat="37.111735747866966" lon="14.369000818686095"><ele>120.99999999999999</ele><time>2026-03-29T13:29:32Z</time></trkpt><trkpt lat="37.11166151740634" lon="14.369021935337551"><ele>123.0</ele><time>2026-03-29T13:29:33Z</time></trkpt><trkpt lat="37.111601519866866" lon="14.369050896645335"><ele>125.0</ele><time>2026-03-29T13:29:34Z</time></trkpt><trkpt lat="37.111533549756494" lon="14.369119294211634"><ele>127.0</ele><time>2026-03-29T13:29:36Z</time></trkpt><trkpt lat="37.11156590816783" lon="14.369226057451506"><ele>129.0</ele><time>2026-03-29T13:29:38Z</time></trkpt><trkpt lat="37.111660392144564" lon="14.36932962756871"><ele>131.0</ele><time>2026-03-29T13:29:40Z</time></trkpt><trkpt lat="37.11174579110789" lon="14.369439694009742"><ele>132.5</ele><time>2026-03-29T13:29:42Z</time></trkpt><trkpt lat="37.11179189198988" lon="14.369497684880361"><ele>134.0</ele><time>2026-03-29T13:29:43Z</time></trkpt><trkpt lat="37.111870939176434" lon="14.369599504540265"><ele>135.5</ele><time>2026-03-29T13:29:45Z</time></trkpt><trkpt lat="37.11188444155696" lon="14.369688375489702"><ele>137.0</ele><time>2026-03-29T13:29:47Z</time></trkpt><trkpt lat="37.11185772994792" lon="14.369779797132805"><ele>138.5</ele><time>2026-03-29T13:30:10Z</time></trkpt><trkpt lat="37.11182148138138" lon="14.369858147228644"><ele>140.0</ele><time>2026-03-29T13:30:24.999Z</time></trkpt><trkpt lat="37.11181682343469" lon="14.36994663062333"><ele>141.83333333333331</ele><time>2026-03-29T13:31:56.999Z</time></trkpt><trkpt lat="37.11181200251197" lon="14.37008098993341"><ele>143.66666666666666</ele><time>2026-03-29T13:32:00.999Z</time></trkpt><trkpt lat="37.1118009570436" lon="14.370160879367942"><ele>145.5</ele><time>2026-03-29T13:32:01.999Z</time></trkpt><trkpt lat="37.11178756685803" lon="14.370255080185546"><ele>147.33333333333334</ele><time>2026-03-29T13:32:02.999Z</time></trkpt><trkpt lat="37.1117729783373" lon="14.370351510645946"><ele>149.16666666666669</ele><time>2026-03-29T13:32:03.999Z</time></trkpt><trkpt lat="37.11175728496465" lon="14.370445301242881"><ele>151.0</ele><time>2026-03-29T13:32:04.999Z</time></trkpt><trkpt lat="37.1117542378777" lon="14.37054305770946"><ele>152.66666666666669</ele><time>2026-03-29T13:32:05.999Z</time></trkpt><trkpt lat="37.111763386789335" lon="14.370642822509316"><ele>154.33333333333334</ele><time>2026-03-29T13:32:06.999Z</time></trkpt><trkpt lat="37.11178255547673" lon="14.370739063593106"><ele>156.0</ele><time>2026-03-29T13:32:07.999Z</time></trkpt><trkpt lat="37.11180606230025" lon="14.370838899994133"><ele>157.66666666666666</ele><time>2026-03-29T13:32:08.999Z</time></trkpt><trkpt lat="37.11182267094402" lon="14.370936875622503"><ele>159.33333333333331</ele><time>2026-03-29T13:32:09.999Z</time></trkpt><trkpt lat="37.111833623950375" lon="14.371029864458107"><ele>161.0</ele><time>2026-03-29T13:32:10.999Z</time></trkpt><trkpt lat="37.1118463887764" lon="14.371125052945278"><ele>161.0</ele><time>2026-03-29T13:32:11.999Z</time></trkpt><trkpt lat="37.11186305771389" lon="14.371212280353545"><ele>161.0</ele><time>2026-03-29T13:32:12.999Z</time></trkpt><trkpt lat="37.111903952651126" lon="14.371286761596947"><ele>161.0</ele><time>2026-03-29T13:32:13.999Z</time></trkpt><trkpt lat="37.11196344937087" lon="14.371352240697693"><ele>161.0</ele><time>2026-03-29T13:32:14.999Z</time></trkpt><trkpt lat="37.11201043467882" lon="14.371407619732196"><ele>161.0</ele><time>2026-03-29T13:32:15.999Z</time></trkpt><trkpt lat="37.11207727328932" lon="14.371487572921927"><ele>161.0</ele><time>2026-03-29T13:32:17.999Z</time></trkpt><trkpt lat="37.112178661540504" lon="14.371478276821003"><ele>161.0</ele><time>2026-03-29T13:32:19.999Z</time></trkpt><trkpt lat="37.112238650148406" lon="14.371442786643131"><ele>161.0</ele><time>2026-03-29T13:32:20.999Z</time></trkpt><trkpt lat="37.11230585889747" lon="14.37139615015814"><ele>161.0</ele><time>2026-03-29T13:32:21.999Z</time></trkpt><trkpt lat="37.11237137783683" lon="14.371341191405406"><ele>161.0</ele><time>2026-03-29T13:32:22.999Z</time></trkpt><trkpt lat="37.11243046622366" lon="14.371285101674548"><ele>161.0</ele><time>2026-03-29T13:32:23.999Z</time></trkpt><trkpt lat="37.112485677363075" lon="14.371238944569345"><ele>161.0</ele><time>2026-03-29T13:32:24.999Z</time></trkpt><trkpt lat="37.11259023095609" lon="14.371228005736683"><ele>161.60000000000002</ele><time>2026-03-29T13:32:26.999Z</time></trkpt><trkpt lat="37.11270633276108" lon="14.371290051722907"><ele>162.2</ele><time>2026-03-29T13:32:28.999Z</time></trkpt><trkpt lat="37.11281364811577" lon="14.371378829539236"><ele>162.8</ele><time>2026-03-29T13:32:30.999Z</time></trkpt><trkpt lat="37.1128870071329" lon="14.371429910546631"><ele>163.39999999999998</ele><time>2026-03-29T13:32:31.999Z</time></trkpt><trkpt lat="37.11294442303854" lon="14.371475835738662"><ele>164.0</ele><time>2026-03-29T13:32:32.999Z</time></trkpt><trkpt lat="37.11299653811178" lon="14.371533813556542"><ele>168.0</ele><time>2026-03-29T13:32:33.999Z</time></trkpt><trkpt lat="37.11307919025261" lon="14.371620730859947"><ele>172.0</ele><time>2026-03-29T13:32:35.999Z</time></trkpt><trkpt lat="37.113122318844844" lon="14.371702497610388"><ele>176.0</ele><time>2026-03-29T13:32:37.999Z</time></trkpt><trkpt lat="37.11310310547058" lon="14.371837894669866"><ele>180.0</ele><time>2026-03-29T13:32:39.999Z</time></trkpt><trkpt lat="37.11302724866627" lon="14.371970196951002"><ele>184.0</ele><time>2026-03-29T13:32:42Z</time></trkpt><trkpt lat="37.11298252628942" lon="14.372045061493202"><ele>184.0</ele><time>2026-03-29T13:32:43Z</time></trkpt><trkpt lat="37.1129391195834" lon="14.372120369988833"><ele>184.0</ele><time>2026-03-29T13:32:44Z</time></trkpt><trkpt lat="37.11288897174092" lon="14.372199585987092"><ele>184.0</ele><time>2026-03-29T13:32:45Z</time></trkpt><trkpt lat="37.11284279747392" lon="14.372279474475642"><ele>184.0</ele><time>2026-03-29T13:32:46Z</time></trkpt><trkpt lat="37.1128066759897" lon="14.372376944097379"><ele>184.0</ele><time>2026-03-29T13:32:47Z</time></trkpt><trkpt lat="37.11278514151999" lon="14.372467171638611"><ele>184.0</ele><time>2026-03-29T13:32:48Z</time></trkpt><trkpt lat="37.11276995210693" lon="14.372557568075448"><ele>187.83333333333334</ele><time>2026-03-29T13:32:49Z</time></trkpt><trkpt lat="37.112754085562024" lon="14.372658591241715"><ele>191.66666666666669</ele><time>2026-03-29T13:32:50Z</time></trkpt><trkpt lat="37.11273951244078" lon="14.372756997905059"><ele>195.5</ele><time>2026-03-29T13:32:51Z</time></trkpt><trkpt lat="37.112723868230105" lon="14.372850631982322"><ele>199.33333333333334</ele><time>2026-03-29T13:32:52Z</time></trkpt><trkpt lat="37.11269608283548" lon="14.37295207349547"><ele>203.16666666666666</ele><time>2026-03-29T13:32:53Z</time></trkpt><trkpt lat="37.112659987072774" lon="14.373037559251475"><ele>207.0</ele><time>2026-03-29T13:32:54Z</time></trkpt><trkpt lat="37.11261092932924" lon="14.373129226933845"><ele>208.83333333333334</ele><time>2026-03-29T13:32:55Z</time></trkpt><trkpt lat="37.11256879843425" lon="14.373211608689138"><ele>210.66666666666669</ele><time>2026-03-29T13:32:56Z</time></trkpt><trkpt lat="37.1125322474344" lon="14.373290211780134"><ele>212.5</ele><time>2026-03-29T13:32:57Z</time></trkpt><trkpt lat="37.1125022046483" lon="14.373362314438792"><ele>214.33333333333334</ele><time>2026-03-29T13:32:58Z</time></trkpt><trkpt lat="37.11245913482854" lon="14.373448755642347"><ele>216.16666666666669</ele><time>2026-03-29T13:32:59Z</time></trkpt><trkpt lat="37.11241047072468" lon="14.3735344926071"><ele>218.0</ele><time>2026-03-29T13:33:00Z</time></trkpt><trkpt lat="37.11237062134297" lon="14.373606265568506"><ele>218.00000000000003</ele><time>2026-03-29T13:33:01Z</time></trkpt><trkpt lat="37.11233228253957" lon="14.373684153717104"><ele>218.0</ele><time>2026-03-29T13:33:03Z</time></trkpt><trkpt lat="37.1123102935923" lon="14.373769901388663"><ele>218.0</ele><time>2026-03-29T13:33:06Z</time></trkpt><trkpt lat="37.11228607819722" lon="14.373852523229656"><ele>218.0</ele><time>2026-03-29T13:33:09Z</time></trkpt><trkpt lat="37.112258045721276" lon="14.373950941805337"><ele>218.00000000000003</ele><time>2026-03-29T13:33:12Z</time></trkpt><trkpt lat="37.112220000057434" lon="14.374059169434442"><ele>218.0</ele><time>2026-03-29T13:33:15Z</time></trkpt><trkpt lat="37.112182951974106" lon="14.37417580373031"><ele>217.8</ele><time>2026-03-29T13:33:18Z</time></trkpt><trkpt lat="37.11214891848041" lon="14.374277902729844"><ele>217.60000000000002</ele><time>2026-03-29T13:33:20Z</time></trkpt><trkpt lat="37.11211621681135" lon="14.374379066793992"><ele>217.39999999999998</ele><time>2026-03-29T13:33:22Z</time></trkpt><trkpt lat="37.11207772134489" lon="14.374488732002524"><ele>217.2</ele><time>2026-03-29T13:33:24Z</time></trkpt><trkpt lat="37.11203830222521" lon="14.37459974871281"><ele>217.0</ele><time>2026-03-29T13:33:26Z</time></trkpt><trkpt lat="37.1119911342308" lon="14.374727573189793"><ele>217.0</ele><time>2026-03-29T13:33:28Z</time></trkpt><trkpt lat="37.11194013937238" lon="14.374873440375444"><ele>217.0</ele><time>2026-03-29T13:33:29.999Z</time></trkpt><trkpt lat="37.11191404087006" lon="14.374946191219001"><ele>217.0</ele><time>2026-03-29T13:33:30.999Z</time></trkpt><trkpt lat="37.11187750688174" lon="14.37501146266091"><ele>217.0</ele><time>2026-03-29T13:33:31.999Z</time></trkpt><trkpt lat="37.11182715536413" lon="14.375131335141187"><ele>217.0</ele><time>2026-03-29T13:33:33.999Z</time></trkpt><trkpt lat="37.11180258340693" lon="14.375265476035828"><ele>217.0</ele><time>2026-03-29T13:33:35.999Z</time></trkpt><trkpt lat="37.11177159163322" lon="14.375388987728735"><ele>217.0</ele><time>2026-03-29T13:33:37.999Z</time></trkpt><trkpt lat="37.11174001028628" lon="14.37551428629714"><ele>217.0</ele><time>2026-03-29T13:33:39.999Z</time></trkpt><trkpt lat="37.111733871326194" lon="14.375616055103405"><ele>217.0</ele><time>2026-03-29T13:33:41.999Z</time></trkpt><trkpt lat="37.111711084409635" lon="14.375733744745828"><ele>217.0</ele><time>2026-03-29T13:33:43.999Z</time></trkpt><trkpt lat="37.111678380483596" lon="14.375887967111785"><ele>215.16666666666666</ele><time>2026-03-29T13:33:45.999Z</time></trkpt><trkpt lat="37.11163455344188" lon="14.375953838175413"><ele>213.33333333333331</ele><time>2026-03-29T13:33:46.999Z</time></trkpt><trkpt lat="37.11161280517487" lon="14.376057283402144"><ele>211.5</ele><time>2026-03-29T13:33:47.999Z</time></trkpt><trkpt lat="37.11158771425073" lon="14.37617663259903"><ele>209.66666666666669</ele><time>2026-03-29T13:33:48.999Z</time></trkpt><trkpt lat="37.11157542021204" lon="14.376296481629744"><ele>207.83333333333334</ele><time>2026-03-29T13:33:49.999Z</time></trkpt><trkpt lat="37.11153857148127" lon="14.376402362902013"><ele>206.0</ele><time>2026-03-29T13:33:50.999Z</time></trkpt><trkpt lat="37.111525274691935" lon="14.37651266493754"><ele>205.20000000000002</ele><time>2026-03-29T13:33:51.999Z</time></trkpt><trkpt lat="37.11149673262345" lon="14.376625756616539"><ele>204.4</ele><time>2026-03-29T13:33:52.999Z</time></trkpt><trkpt lat="37.11147124257617" lon="14.37674159480057"><ele>203.6</ele><time>2026-03-29T13:33:53.999Z</time></trkpt><trkpt lat="37.11144508025913" lon="14.376855378067129"><ele>202.8</ele><time>2026-03-29T13:33:54.999Z</time></trkpt><trkpt lat="37.111414384469114" lon="14.376974348344673"><ele>202.0</ele><time>2026-03-29T13:33:55.999Z</time></trkpt><trkpt lat="37.111373853912006" lon="14.377076221503554"><ele>201.99999999999997</ele><time>2026-03-29T13:33:56.999Z</time></trkpt><trkpt lat="37.111360723680015" lon="14.377181419946679"><ele>202.0</ele><time>2026-03-29T13:33:57.999Z</time></trkpt><trkpt lat="37.111331781603994" lon="14.377279277367562"><ele>202.0</ele><time>2026-03-29T13:33:58.999Z</time></trkpt><trkpt lat="37.11130746695464" lon="14.377363041385946"><ele>202.0</ele><time>2026-03-29T13:33:59.999Z</time></trkpt><trkpt lat="37.11129083859582" lon="14.377457090430232"><ele>201.99999999999997</ele><time>2026-03-29T13:34:01.999Z</time></trkpt><trkpt lat="37.11128575028765" lon="14.377549387738533"><ele>202.0</ele><time>2026-03-29T13:34:51Z</time></trkpt><trkpt lat="37.11113291713191" lon="14.377453553178201"><ele>202.0</ele><time>2026-03-29T13:36:55Z</time></trkpt><trkpt lat="37.11104475438678" lon="14.377432785654864"><ele>202.0</ele><time>2026-03-29T13:36:57Z</time></trkpt><trkpt lat="37.110920196429255" lon="14.377382270192504"><ele>202.0</ele><time>2026-03-29T13:36:59Z</time></trkpt><trkpt lat="37.11084154224017" lon="14.377351393950766"><ele>202.0</ele><time>2026-03-29T13:37:00Z</time></trkpt><trkpt lat="37.11076311527538" lon="14.37732396222284"><ele>202.0</ele><time>2026-03-29T13:37:01.001Z</time></trkpt><trkpt lat="37.11068607919796" lon="14.377295409842807"><ele>201.99999999999997</ele><time>2026-03-29T13:37:02.001Z</time></trkpt><trkpt lat="37.110608543950335" lon="14.377267932144557"><ele>202.0</ele><time>2026-03-29T13:37:03.001Z</time></trkpt><trkpt lat="37.110538106118796" lon="14.37722688812503"><ele>202.0</ele><time>2026-03-29T13:37:04.001Z</time></trkpt><trkpt lat="37.11047792969411" lon="14.37720173306304"><ele>202.0</ele><time>2026-03-29T13:37:05.001Z</time></trkpt><trkpt lat="37.11040081967528" lon="14.377174029272444"><ele>201.99999999999997</ele><time>2026-03-29T13:37:06.001Z</time></trkpt><trkpt lat="37.11033524744463" lon="14.377150257092351"><ele>202.0</ele><time>2026-03-29T13:37:07.001Z</time></trkpt><trkpt lat="37.11025669842116" lon="14.377123073995778"><ele>201.66666666666666</ele><time>2026-03-29T13:37:08.001Z</time></trkpt><trkpt lat="37.110186932375115" lon="14.377101379452409"><ele>201.33333333333331</ele><time>2026-03-29T13:37:09.001Z</time></trkpt><trkpt lat="37.11011129716242" lon="14.377070461264902"><ele>201.0</ele><time>2026-03-29T13:37:10.001Z</time></trkpt><trkpt lat="37.110046775925966" lon="14.377043897245269"><ele>200.66666666666669</ele><time>2026-03-29T13:37:11.001Z</time></trkpt><trkpt lat="37.109983886819855" lon="14.37701912357256"><ele>200.33333333333334</ele><time>2026-03-29T13:37:12.001Z</time></trkpt><trkpt lat="37.109924376754265" lon="14.376989677618566"><ele>200.0</ele><time>2026-03-29T13:37:13.001Z</time></trkpt><trkpt lat="37.10979462153375" lon="14.376949807994542"><ele>199.71428571428572</ele><time>2026-03-29T13:37:15.001Z</time></trkpt><trkpt lat="37.10973684046001" lon="14.376911357163259"><ele>199.42857142857144</ele><time>2026-03-29T13:37:16.001Z</time></trkpt><trkpt lat="37.10967388585781" lon="14.376887019898296"><ele>199.14285714285717</ele><time>2026-03-29T13:37:17.001Z</time></trkpt><trkpt lat="37.10958345407581" lon="14.376853253477348"><ele>198.85714285714286</ele><time>2026-03-29T13:37:19.001Z</time></trkpt><trkpt lat="37.10951884520933" lon="14.37683015192552"><ele>198.57142857142856</ele><time>2026-03-29T13:37:20.001Z</time></trkpt><trkpt lat="37.10943742151771" lon="14.376814720407982"><ele>198.2857142857143</ele><time>2026-03-29T13:37:21.001Z</time></trkpt><trkpt lat="37.10937182862311" lon="14.376786966371819"><ele>198.0</ele><time>2026-03-29T13:37:22.001Z</time></trkpt><trkpt lat="37.10927619446114" lon="14.376749786171231"><ele>198.0</ele><time>2026-03-29T13:37:24.001Z</time></trkpt><trkpt lat="37.109158884173794" lon="14.37671527267296"><ele>198.0</ele><time>2026-03-29T13:37:26.001Z</time></trkpt><trkpt lat="37.10905982830565" lon="14.376651722453039"><ele>198.0</ele><time>2026-03-29T13:37:28.001Z</time></trkpt><trkpt lat="37.10896836158347" lon="14.376618043392913"><ele>198.0</ele><time>2026-03-29T13:37:30.001Z</time></trkpt><trkpt lat="37.10889856211728" lon="14.376698186958656"><ele>198.0</ele><time>2026-03-29T13:37:32.001Z</time></trkpt><trkpt lat="37.108892376720405" lon="14.376814613843548"><ele>197.8</ele><time>2026-03-29T13:37:34.001Z</time></trkpt><trkpt lat="37.108841942694106" lon="14.37695219996339"><ele>197.60000000000002</ele><time>2026-03-29T13:37:36.001Z</time></trkpt><trkpt lat="37.10880871686881" lon="14.377090966695025"><ele>197.39999999999998</ele><time>2026-03-29T13:37:38.001Z</time></trkpt><trkpt lat="37.10877281563328" lon="14.377184379417661"><ele>197.2</ele><time>2026-03-29T13:37:40.999Z</time></trkpt><trkpt lat="37.10866829037896" lon="14.377141298296927"><ele>197.0</ele><time>2026-03-29T13:37:42.999Z</time></trkpt><trkpt lat="37.108607554070005" lon="14.377114018772314"><ele>197.00000000000003</ele><time>2026-03-29T13:37:43.999Z</time></trkpt><trkpt lat="37.108505415019934" lon="14.377079150790449"><ele>197.0</ele><time>2026-03-29T13:37:45.999Z</time></trkpt><trkpt lat="37.108404050012226" lon="14.377035135731859"><ele>197.0</ele><time>2026-03-29T13:37:47.999Z</time></trkpt><trkpt lat="37.10833147250441" lon="14.377007419950848"><ele>197.0</ele><time>2026-03-29T13:37:48.999Z</time></trkpt><trkpt lat="37.1082589119962" lon="14.376982006233636"><ele>197.00000000000003</ele><time>2026-03-29T13:37:49.999Z</time></trkpt><trkpt lat="37.10819206812914" lon="14.376960281349362"><ele>197.0</ele><time>2026-03-29T13:37:50.999Z</time></trkpt><trkpt lat="37.10811917138458" lon="14.376936452267651"><ele>197.00000000000003</ele><time>2026-03-29T13:37:51.999Z</time></trkpt><trkpt lat="37.10804973138975" lon="14.376910956348874"><ele>197.0</ele><time>2026-03-29T13:37:52.999Z</time></trkpt><trkpt lat="37.10796399981214" lon="14.37687921927413"><ele>197.0</ele><time>2026-03-29T13:37:54.999Z</time></trkpt><trkpt lat="37.107892026094746" lon="14.376850277079145"><ele>197.0</ele><time>2026-03-29T13:37:56.999Z</time></trkpt><trkpt lat="37.10778519550714" lon="14.37680356803002"><ele>197.00000000000003</ele><time>2026-03-29T13:37:58.999Z</time></trkpt><trkpt lat="37.107704038501794" lon="14.376774074502032"><ele>197.0</ele><time>2026-03-29T13:38:00.999Z</time></trkpt><trkpt lat="37.1076430826405" lon="14.376804232497859"><ele>197.0</ele><time>2026-03-29T13:38:04Z</time></trkpt><trkpt lat="37.10756842778379" lon="14.376691364574349"><ele>197.0</ele><time>2026-03-29T13:38:15Z</time></trkpt><trkpt lat="37.10752981081577" lon="14.376602906923349"><ele>197.0</ele><time>2026-03-29T13:38:16Z</time></trkpt><trkpt lat="37.10748228107968" lon="14.376511303721733"><ele>197.0</ele><time>2026-03-29T13:38:17Z</time></trkpt><trkpt lat="37.10740940372172" lon="14.376433233153634"><ele>197.0</ele><time>2026-03-29T13:38:18Z</time></trkpt><trkpt lat="37.10733870789099" lon="14.37634308196905"><ele>196.0</ele><time>2026-03-29T13:38:19Z</time></trkpt><trkpt lat="37.10724954095063" lon="14.376261802774895"><ele>195.0</ele><time>2026-03-29T13:38:20Z</time></trkpt><trkpt lat="37.10715149866675" lon="14.376176548101999"><ele>194.0</ele><time>2026-03-29T13:38:21Z</time></trkpt><trkpt lat="37.10705179219713" lon="14.376086070202083"><ele>193.0</ele><time>2026-03-29T13:38:22Z</time></trkpt><trkpt lat="37.10695388590462" lon="14.375994104893598"><ele>193.0</ele><time>2026-03-29T13:38:23Z</time></trkpt><trkpt lat="37.10685537265742" lon="14.375904141958225"><ele>193.0</ele><time>2026-03-29T13:38:24Z</time></trkpt><trkpt lat="37.10675941980451" lon="14.375812338575555"><ele>193.0</ele><time>2026-03-29T13:38:25Z</time></trkpt><trkpt lat="37.10666788809738" lon="14.375726950044232"><ele>193.0</ele><time>2026-03-29T13:38:26Z</time></trkpt><trkpt lat="37.106574362078725" lon="14.375638555591044"><ele>193.5</ele><time>2026-03-29T13:38:27Z</time></trkpt><trkpt lat="37.10647990051017" lon="14.37555131539376"><ele>194.0</ele><time>2026-03-29T13:38:28Z</time></trkpt><trkpt lat="37.106385596095286" lon="14.375463565142175"><ele>194.5</ele><time>2026-03-29T13:38:29Z</time></trkpt><trkpt lat="37.10629503728806" lon="14.375369164149955"><ele>195.0</ele><time>2026-03-29T13:38:30Z</time></trkpt><trkpt lat="37.10620166934118" lon="14.375279177525934"><ele>193.5</ele><time>2026-03-29T13:38:31Z</time></trkpt><trkpt lat="37.10610750315546" lon="14.375191772381335"><ele>192.0</ele><time>2026-03-29T13:38:32Z</time></trkpt><trkpt lat="37.106015064777935" lon="14.37510828376989"><ele>190.5</ele><time>2026-03-29T13:38:33Z</time></trkpt><trkpt lat="37.105918247033856" lon="14.375030959335865"><ele>189.0</ele><time>2026-03-29T13:38:34Z</time></trkpt><trkpt lat="37.1058196991147" lon="14.374957306018594"><ele>189.2</ele><time>2026-03-29T13:38:35Z</time></trkpt><trkpt lat="37.105723037149446" lon="14.374884914724008"><ele>189.39999999999998</ele><time>2026-03-29T13:38:36Z</time></trkpt><trkpt lat="37.1056273420669" lon="14.374812639303565"><ele>189.6</ele><time>2026-03-29T13:38:37Z</time></trkpt><trkpt lat="37.10553409382151" lon="14.374738210675668"><ele>189.8</ele><time>2026-03-29T13:38:38Z</time></trkpt><trkpt lat="37.10544168910079" lon="14.374663587348948"><ele>190.0</ele><time>2026-03-29T13:38:39Z</time></trkpt><trkpt lat="37.10535220473617" lon="14.374593175977838"><ele>189.33333333333334</ele><time>2026-03-29T13:38:40Z</time></trkpt><trkpt lat="37.105269023789695" lon="14.374528717650477"><ele>188.66666666666669</ele><time>2026-03-29T13:38:41Z</time></trkpt><trkpt lat="37.10519526540803" lon="14.374473204226659"><ele>188.0</ele><time>2026-03-29T13:38:42Z</time></trkpt><trkpt lat="37.10513122180845" lon="14.374429070373509"><ele>187.33333333333334</ele><time>2026-03-29T13:38:43Z</time></trkpt><trkpt lat="37.10506593292523" lon="14.374386322113832"><ele>186.66666666666666</ele><time>2026-03-29T13:38:44Z</time></trkpt><trkpt lat="37.10499540313763" lon="14.374347046089584"><ele>186.0</ele><time>2026-03-29T13:38:45Z</time></trkpt><trkpt lat="37.104922166605725" lon="14.374309043111575"><ele>186.33333333333334</ele><time>2026-03-29T13:38:46Z</time></trkpt><trkpt lat="37.10484432276206" lon="14.37427175057262"><ele>186.66666666666666</ele><time>2026-03-29T13:38:47Z</time></trkpt><trkpt lat="37.10476343693089" lon="14.374234921588386"><ele>187.0</ele><time>2026-03-29T13:38:48Z</time></trkpt><trkpt lat="37.104680707222194" lon="14.374199403532643"><ele>187.33333333333331</ele><time>2026-03-29T13:38:49Z</time></trkpt><trkpt lat="37.10459793050777" lon="14.374162141370125"><ele>187.66666666666666</ele><time>2026-03-29T13:38:50Z</time></trkpt><trkpt lat="37.10451262334761" lon="14.374122138866761"><ele>188.0</ele><time>2026-03-29T13:38:51Z</time></trkpt><trkpt lat="37.10442706070623" lon="14.37407950589492"><ele>188.0</ele><time>2026-03-29T13:38:52Z</time></trkpt><trkpt lat="37.104340565960634" lon="14.374033463572326"><ele>188.0</ele><time>2026-03-29T13:38:53Z</time></trkpt><trkpt lat="37.10425492535291" lon="14.373981662475423"><ele>188.0</ele><time>2026-03-29T13:38:54Z</time></trkpt><trkpt lat="37.10416880815126" lon="14.3739294677995"><ele>188.0</ele><time>2026-03-29T13:38:55Z</time></trkpt><trkpt lat="37.104081707700956" lon="14.37387891725386"><ele>188.0</ele><time>2026-03-29T13:38:56Z</time></trkpt><trkpt lat="37.10399279531219" lon="14.373821344343574"><ele>187.60000000000002</ele><time>2026-03-29T13:38:57Z</time></trkpt><trkpt lat="37.10390073068191" lon="14.373764025864341"><ele>187.20000000000002</ele><time>2026-03-29T13:38:58Z</time></trkpt><trkpt lat="37.103805327469175" lon="14.373703186381585"><ele>186.8</ele><time>2026-03-29T13:38:59Z</time></trkpt><trkpt lat="37.103709535975014" lon="14.373642287290455"><ele>186.4</ele><time>2026-03-29T13:39:00Z</time></trkpt><trkpt lat="37.103612348492675" lon="14.37358047333156"><ele>186.0</ele><time>2026-03-29T13:39:01Z</time></trkpt><trkpt lat="37.10351252043306" lon="14.373524715093339"><ele>186.0</ele><time>2026-03-29T13:39:02.001Z</time></trkpt><trkpt lat="37.10340807035408" lon="14.373475582027353"><ele>186.0</ele><time>2026-03-29T13:39:03.001Z</time></trkpt><trkpt lat="37.10330234851177" lon="14.373435482345625"><ele>186.0</ele><time>2026-03-29T13:39:04.001Z</time></trkpt><trkpt lat="37.10319793415194" lon="14.37340424557053"><ele>186.0</ele><time>2026-03-29T13:39:05.001Z</time></trkpt><trkpt lat="37.103097456895284" lon="14.373384810832274"><ele>186.0</ele><time>2026-03-29T13:39:06.001Z</time></trkpt><trkpt lat="37.10299666538471" lon="14.373380759494038"><ele>186.8</ele><time>2026-03-29T13:39:07.001Z</time></trkpt><trkpt lat="37.1028921697479" lon="14.37339556443836"><ele>187.60000000000002</ele><time>2026-03-29T13:39:08.001Z</time></trkpt><trkpt lat="37.102790536256165" lon="14.373411639468811"><ele>188.4</ele><time>2026-03-29T13:39:09.001Z</time></trkpt><trkpt lat="37.102698940446246" lon="14.3734142120431"><ele>189.2</ele><time>2026-03-29T13:39:10.001Z</time></trkpt><trkpt lat="37.102617312147196" lon="14.373398243348197"><ele>190.0</ele><time>2026-03-29T13:39:11.001Z</time></trkpt><trkpt lat="37.10253872131193" lon="14.373364560028271"><ele>190.0</ele><time>2026-03-29T13:39:12.001Z</time></trkpt><trkpt lat="37.10245480362601" lon="14.373327889212426"><ele>190.0</ele><time>2026-03-29T13:39:13.001Z</time></trkpt><trkpt lat="37.102365471429465" lon="14.373284263491845"><ele>190.0</ele><time>2026-03-29T13:39:14.001Z</time></trkpt><trkpt lat="37.1022784887666" lon="14.373237869981304"><ele>190.0</ele><time>2026-03-29T13:39:15.001Z</time></trkpt><trkpt lat="37.102193622830704" lon="14.373194075493181"><ele>190.0</ele><time>2026-03-29T13:39:16.001Z</time></trkpt><trkpt lat="37.10209984232577" lon="14.373166471257402"><ele>189.2</ele><time>2026-03-29T13:39:17.001Z</time></trkpt><trkpt lat="37.10199840134293" lon="14.37315860467406"><ele>188.4</ele><time>2026-03-29T13:39:18.001Z</time></trkpt><trkpt lat="37.10189323786475" lon="14.373169664680134"><ele>187.60000000000002</ele><time>2026-03-29T13:39:19.001Z</time></trkpt><trkpt lat="37.101783145388666" lon="14.373190955162222"><ele>186.8</ele><time>2026-03-29T13:39:20.001Z</time></trkpt><trkpt lat="37.1016736065254" lon="14.373218477060673"><ele>186.0</ele><time>2026-03-29T13:39:21.001Z</time></trkpt><trkpt lat="37.10156376270796" lon="14.3732483160144"><ele>184.25</ele><time>2026-03-29T13:39:22.001Z</time></trkpt><trkpt lat="37.101452151657156" lon="14.373272937921001"><ele>182.5</ele><time>2026-03-29T13:39:23.001Z</time></trkpt><trkpt lat="37.101337255494336" lon="14.37329855097643"><ele>180.75</ele><time>2026-03-29T13:39:24.001Z</time></trkpt><trkpt lat="37.10122056496151" lon="14.373323672522414"><ele>179.0</ele><time>2026-03-29T13:39:25.001Z</time></trkpt><trkpt lat="37.10110225617276" lon="14.37334769558002"><ele>179.0</ele><time>2026-03-29T13:39:26.001Z</time></trkpt><trkpt lat="37.100984323401875" lon="14.373371216350709"><ele>179.0</ele><time>2026-03-29T13:39:27.001Z</time></trkpt><trkpt lat="37.100868945347" lon="14.373395904174826"><ele>179.0</ele><time>2026-03-29T13:39:28.001Z</time></trkpt><trkpt lat="37.100757501127205" lon="14.37342265917485"><ele>179.0</ele><time>2026-03-29T13:39:29.001Z</time></trkpt><trkpt lat="37.100648475612644" lon="14.37344566275017"><ele>177.79999999999998</ele><time>2026-03-29T13:39:30.001Z</time></trkpt><trkpt lat="37.10054230512432" lon="14.373464723082089"><ele>176.6</ele><time>2026-03-29T13:39:31.001Z</time></trkpt><trkpt lat="37.100437013639585" lon="14.373470082237931"><ele>175.4</ele><time>2026-03-29T13:39:32.001Z</time></trkpt><trkpt lat="37.10033068169225" lon="14.373453227779615"><ele>174.2</ele><time>2026-03-29T13:39:33.001Z</time></trkpt><trkpt lat="37.10022164687397" lon="14.373416388252135"><ele>173.0</ele><time>2026-03-29T13:39:34.001Z</time></trkpt><trkpt lat="37.10011473173962" lon="14.373379206098173"><ele>173.0</ele><time>2026-03-29T13:39:35.001Z</time></trkpt><trkpt lat="37.10001219964948" lon="14.373345434573618"><ele>173.0</ele><time>2026-03-29T13:39:36.001Z</time></trkpt><trkpt lat="37.09991292165733" lon="14.373312127843771"><ele>173.0</ele><time>2026-03-29T13:39:37.001Z</time></trkpt><trkpt lat="37.099819570423" lon="14.373270803561212"><ele>173.0</ele><time>2026-03-29T13:39:38.001Z</time></trkpt><trkpt lat="37.09973333309022" lon="14.373220771153207"><ele>173.0</ele><time>2026-03-29T13:39:39.001Z</time></trkpt><trkpt lat="37.09965219191096" lon="14.373168804534163"><ele>173.0</ele><time>2026-03-29T13:39:40.001Z</time></trkpt><trkpt lat="37.09957586869035" lon="14.373115676343676"><ele>173.0</ele><time>2026-03-29T13:39:41.001Z</time></trkpt><trkpt lat="37.09950609657341" lon="14.3730628763796"><ele>173.0</ele><time>2026-03-29T13:39:42.001Z</time></trkpt><trkpt lat="37.09943950685095" lon="14.373017249356513"><ele>173.0</ele><time>2026-03-29T13:39:43.001Z</time></trkpt><trkpt lat="37.099374185445534" lon="14.372979155055976"><ele>173.0</ele><time>2026-03-29T13:39:44.001Z</time></trkpt><trkpt lat="37.099306482351345" lon="14.372950237297474"><ele>173.0</ele><time>2026-03-29T13:39:45.001Z</time></trkpt><trkpt lat="37.09923475275747" lon="14.372922598608639"><ele>173.0</ele><time>2026-03-29T13:39:46.001Z</time></trkpt><trkpt lat="37.09915193445255" lon="14.372903620628648"><ele>173.0</ele><time>2026-03-29T13:39:46.999Z</time></trkpt><trkpt lat="37.099064939090965" lon="14.372894225520286"><ele>173.0</ele><time>2026-03-29T13:39:47.999Z</time></trkpt><trkpt lat="37.098978065160324" lon="14.372889711804621"><ele>173.0</ele><time>2026-03-29T13:39:48.999Z</time></trkpt><trkpt lat="37.098887406460356" lon="14.372885034674152"><ele>173.0</ele><time>2026-03-29T13:39:49.999Z</time></trkpt><trkpt lat="37.09879061034837" lon="14.372875232346232"><ele>173.0</ele><time>2026-03-29T13:39:50.999Z</time></trkpt><trkpt lat="37.09869356097325" lon="14.372868829647778"><ele>172.8</ele><time>2026-03-29T13:39:51.999Z</time></trkpt><trkpt lat="37.098582924917686" lon="14.372856466171738"><ele>172.60000000000002</ele><time>2026-03-29T13:39:52.999Z</time></trkpt><trkpt lat="37.098476189535745" lon="14.372850364259115"><ele>172.39999999999998</ele><time>2026-03-29T13:39:53.999Z</time></trkpt><trkpt lat="37.09836828716157" lon="14.372855598442394"><ele>172.2</ele><time>2026-03-29T13:39:54.999Z</time></trkpt><trkpt lat="37.09825799834692" lon="14.372875002429655"><ele>172.0</ele><time>2026-03-29T13:39:55.999Z</time></trkpt><trkpt lat="37.098144963349604" lon="14.372900949367635"><ele>172.0</ele><time>2026-03-29T13:39:56.999Z</time></trkpt><trkpt lat="37.09803124307513" lon="14.372926824795789"><ele>172.0</ele><time>2026-03-29T13:39:57.999Z</time></trkpt><trkpt lat="37.09791564310618" lon="14.372954741612494"><ele>172.0</ele><time>2026-03-29T13:39:58.999Z</time></trkpt><trkpt lat="37.0977978966114" lon="14.37298390592087"><ele>172.0</ele><time>2026-03-29T13:39:59.999Z</time></trkpt><trkpt lat="37.09768856548671" lon="14.373010441369113"><ele>170.8</ele><time>2026-03-29T13:40:00.999Z</time></trkpt><trkpt lat="37.09758166635977" lon="14.373029694528196"><ele>169.6</ele><time>2026-03-29T13:40:01.999Z</time></trkpt><trkpt lat="37.097474212711184" lon="14.373046831073731"><ele>168.4</ele><time>2026-03-29T13:40:02.999Z</time></trkpt><trkpt lat="37.0973682510656" lon="14.373055655542592"><ele>167.20000000000002</ele><time>2026-03-29T13:40:03.999Z</time></trkpt><trkpt lat="37.09726218413592" lon="14.373058435452224"><ele>166.0</ele><time>2026-03-29T13:40:04.999Z</time></trkpt><trkpt lat="37.0971556301537" lon="14.37305429460774"><ele>166.0</ele><time>2026-03-29T13:40:05.999Z</time></trkpt><trkpt lat="37.09704941543921" lon="14.37303577519825"><ele>166.0</ele><time>2026-03-29T13:40:06.999Z</time></trkpt><trkpt lat="37.096939150393524" lon="14.37300787274196"><ele>166.0</ele><time>2026-03-29T13:40:07.999Z</time></trkpt><trkpt lat="37.09682634008505" lon="14.372974656587758"><ele>166.0</ele><time>2026-03-29T13:40:08.999Z</time></trkpt><trkpt lat="37.09671255453445" lon="14.372937967393092"><ele>166.0</ele><time>2026-03-29T13:40:10Z</time></trkpt><trkpt lat="37.09659834075728" lon="14.372901472592568"><ele>166.0</ele><time>2026-03-29T13:40:11Z</time></trkpt><trkpt lat="37.09648558173998" lon="14.372864469630677"><ele>166.0</ele><time>2026-03-29T13:40:12Z</time></trkpt><trkpt lat="37.09637543560786" lon="14.372828423265828"><ele>166.0</ele><time>2026-03-29T13:40:13Z</time></trkpt><trkpt lat="37.09626666789348" lon="14.372791973589571"><ele>164.75</ele><time>2026-03-29T13:40:14Z</time></trkpt><trkpt lat="37.0961576369972" lon="14.37275457818243"><ele>163.5</ele><time>2026-03-29T13:40:15Z</time></trkpt><trkpt lat="37.09604655629396" lon="14.372709615506775"><ele>162.25</ele><time>2026-03-29T13:40:16Z</time></trkpt><trkpt lat="37.095936334366584" lon="14.372661521849064"><ele>161.0</ele><time>2026-03-29T13:40:17Z</time></trkpt><trkpt lat="37.095830225690314" lon="14.372610087652218"><ele>160.20000000000002</ele><time>2026-03-29T13:40:18Z</time></trkpt><trkpt lat="37.09572948037292" lon="14.372553487266375"><ele>159.4</ele><time>2026-03-29T13:40:19Z</time></trkpt><trkpt lat="37.095636572338975" lon="14.372492411822428"><ele>158.6</ele><time>2026-03-29T13:40:20Z</time></trkpt><trkpt lat="37.09555909779932" lon="14.372417972383767"><ele>157.8</ele><time>2026-03-29T13:40:21Z</time></trkpt><trkpt lat="37.09547240463745" lon="14.372382615061897"><ele>157.0</ele><time>2026-03-29T13:40:22Z</time></trkpt><trkpt lat="37.09540456360976" lon="14.372310881903974"><ele>157.0</ele><time>2026-03-29T13:40:23Z</time></trkpt><trkpt lat="37.09532951808057" lon="14.372257781568363"><ele>157.0</ele><time>2026-03-29T13:40:24Z</time></trkpt><trkpt lat="37.095255437010735" lon="14.372205362647946"><ele>157.0</ele><time>2026-03-29T13:40:25Z</time></trkpt><trkpt lat="37.09516667767467" lon="14.372170461984627"><ele>157.0</ele><time>2026-03-29T13:40:26Z</time></trkpt><trkpt lat="37.09507777968486" lon="14.372119515873923"><ele>157.0</ele><time>2026-03-29T13:40:27Z</time></trkpt><trkpt lat="37.094984715063795" lon="14.372073440575978"><ele>156.6</ele><time>2026-03-29T13:40:28Z</time></trkpt><trkpt lat="37.094889617457135" lon="14.372028861507763"><ele>156.2</ele><time>2026-03-29T13:40:29Z</time></trkpt><trkpt lat="37.09479512885986" lon="14.37197924177835"><ele>155.8</ele><time>2026-03-29T13:40:30Z</time></trkpt><trkpt lat="37.09469963114308" lon="14.371934564272228"><ele>155.4</ele><time>2026-03-29T13:40:31Z</time></trkpt><trkpt lat="37.09460456750725" lon="14.371880162108734"><ele>155.0</ele><time>2026-03-29T13:40:32Z</time></trkpt><trkpt lat="37.09450987122441" lon="14.371832164620375"><ele>155.0</ele><time>2026-03-29T13:40:33Z</time></trkpt><trkpt lat="37.09441926127652" lon="14.371778405155013"><ele>155.0</ele><time>2026-03-29T13:40:34Z</time></trkpt><trkpt lat="37.094335995940874" lon="14.371705203997097"><ele>155.0</ele><time>2026-03-29T13:40:35Z</time></trkpt><trkpt lat="37.094248802923936" lon="14.371643724096721"><ele>155.0</ele><time>2026-03-29T13:40:36Z</time></trkpt><trkpt lat="37.09416291069748" lon="14.371573172349352"><ele>155.0</ele><time>2026-03-29T13:40:37Z</time></trkpt><trkpt lat="37.09408205379233" lon="14.371491998214546"><ele>154.2</ele><time>2026-03-29T13:40:38Z</time></trkpt><trkpt lat="37.0940012406085" lon="14.371400390606981"><ele>153.4</ele><time>2026-03-29T13:40:39Z</time></trkpt><trkpt lat="37.09392505042171" lon="14.371308982789696"><ele>152.6</ele><time>2026-03-29T13:40:40Z</time></trkpt><trkpt lat="37.093854074756386" lon="14.371225553120949"><ele>151.8</ele><time>2026-03-29T13:40:41Z</time></trkpt><trkpt lat="37.093785910288844" lon="14.37114942810704"><ele>151.0</ele><time>2026-03-29T13:40:42Z</time></trkpt><trkpt lat="37.093710967559396" lon="14.371096948829148"><ele>150.8</ele><time>2026-03-29T13:40:43Z</time></trkpt><trkpt lat="37.093638913194596" lon="14.371032562760806"><ele>150.6</ele><time>2026-03-29T13:40:44Z</time></trkpt><trkpt lat="37.09356165508202" lon="14.370976839556654"><ele>150.4</ele><time>2026-03-29T13:40:45Z</time></trkpt><trkpt lat="37.09348560082393" lon="14.37092662580709"><ele>150.2</ele><time>2026-03-29T13:40:46Z</time></trkpt><trkpt lat="37.09341667255714" lon="14.370881058936419"><ele>150.0</ele><time>2026-03-29T13:40:47Z</time></trkpt><trkpt lat="37.0933282216389" lon="14.37079084918866"><ele>149.4</ele><time>2026-03-29T13:40:49Z</time></trkpt><trkpt lat="37.09324209558601" lon="14.3707251484647"><ele>148.8</ele><time>2026-03-29T13:40:51Z</time></trkpt><trkpt lat="37.09313121396337" lon="14.370648199140778"><ele>148.2</ele><time>2026-03-29T13:40:53Z</time></trkpt><trkpt lat="37.09306089586487" lon="14.370597629385585"><ele>147.6</ele><time>2026-03-29T13:40:54Z</time></trkpt><trkpt lat="37.092982568498606" lon="14.370542305871417"><ele>147.0</ele><time>2026-03-29T13:40:55Z</time></trkpt><trkpt lat="37.092900496750886" lon="14.370484611375396"><ele>146.66666666666666</ele><time>2026-03-29T13:40:56Z</time></trkpt><trkpt lat="37.09281654316818" lon="14.370428587320978"><ele>146.33333333333334</ele><time>2026-03-29T13:40:57Z</time></trkpt><trkpt lat="37.092728175358864" lon="14.37039190940218"><ele>146.0</ele><time>2026-03-29T13:40:58Z</time></trkpt><trkpt lat="37.09264875641534" lon="14.370338103922828"><ele>145.66666666666669</ele><time>2026-03-29T13:40:59Z</time></trkpt><trkpt lat="37.09257594733171" lon="14.370295897296245"><ele>145.33333333333334</ele><time>2026-03-29T13:41:00Z</time></trkpt><trkpt lat="37.09249912996741" lon="14.37026169276417"><ele>145.0</ele><time>2026-03-29T13:41:01Z</time></trkpt><trkpt lat="37.092423048720576" lon="14.370232504150682"><ele>144.83333333333334</ele><time>2026-03-29T13:41:02Z</time></trkpt><trkpt lat="37.092344920440134" lon="14.370200804028554"><ele>144.66666666666669</ele><time>2026-03-29T13:41:03.001Z</time></trkpt><trkpt lat="37.09226502086709" lon="14.370165962521435"><ele>144.5</ele><time>2026-03-29T13:41:04.001Z</time></trkpt><trkpt lat="37.09218686785416" lon="14.37013250455106"><ele>144.33333333333334</ele><time>2026-03-29T13:41:05.001Z</time></trkpt><trkpt lat="37.09211096275059" lon="14.370096937655386"><ele>144.16666666666666</ele><time>2026-03-29T13:41:06.001Z</time></trkpt><trkpt lat="37.09203467677115" lon="14.370062614594977"><ele>144.0</ele><time>2026-03-29T13:41:07.001Z</time></trkpt><trkpt lat="37.091963107755085" lon="14.370028170215472"><ele>144.0</ele><time>2026-03-29T13:41:08.001Z</time></trkpt><trkpt lat="37.09185120433431" lon="14.36993991396162"><ele>144.0</ele><time>2026-03-29T13:41:10.001Z</time></trkpt><trkpt lat="37.09177877105686" lon="14.369827153174228"><ele>144.0</ele><time>2026-03-29T13:41:12.001Z</time></trkpt><trkpt lat="37.0917360817987" lon="14.369716099451091"><ele>144.0</ele><time>2026-03-29T13:41:14.001Z</time></trkpt><trkpt lat="37.09168873099839" lon="14.369633102210905"><ele>144.0</ele><time>2026-03-29T13:41:16.001Z</time></trkpt><trkpt lat="37.09177228810897" lon="14.369519736037839"><ele>144.0</ele><time>2026-03-29T13:41:17.001Z</time></trkpt><trkpt lat="37.091784889692754" lon="14.369436218650003"><ele>144.0</ele><time>2026-03-29T13:41:18.001Z</time></trkpt><trkpt lat="37.09178900548278" lon="14.369345686813178"><ele>144.0</ele><time>2026-03-29T13:41:19.001Z</time></trkpt><trkpt lat="37.091805131829084" lon="14.369243185359514"><ele>144.0</ele><time>2026-03-29T13:41:20.001Z</time></trkpt><trkpt lat="37.091838340313295" lon="14.369155798724991"><ele>144.0</ele><time>2026-03-29T13:41:21.001Z</time></trkpt><trkpt lat="37.0918500442531" lon="14.36906349046701"><ele>144.0</ele><time>2026-03-29T13:41:22.001Z</time></trkpt><trkpt lat="37.091854735088944" lon="14.36896851467263"><ele>144.0</ele><time>2026-03-29T13:41:23.001Z</time></trkpt><trkpt lat="37.09182340224066" lon="14.368877173498158"><ele>144.0</ele><time>2026-03-29T13:41:24.001Z</time></trkpt><trkpt lat="37.09179985298248" lon="14.368790271886773"><ele>144.0</ele><time>2026-03-29T13:41:25.001Z</time></trkpt><trkpt lat="37.091765288467954" lon="14.368711593616409"><ele>144.0</ele><time>2026-03-29T13:41:26.001Z</time></trkpt><trkpt lat="37.09172437437586" lon="14.368630940706948"><ele>144.0</ele><time>2026-03-29T13:41:27.001Z</time></trkpt><trkpt lat="37.09170419132677" lon="14.368539350073073"><ele>144.0</ele><time>2026-03-29T13:41:28.001Z</time></trkpt><trkpt lat="37.091642962860604" lon="14.368418579410248"><ele>144.2</ele><time>2026-03-29T13:41:30.001Z</time></trkpt><trkpt lat="37.091611670506595" lon="14.368316785467607"><ele>144.4</ele><time>2026-03-29T13:41:32.001Z</time></trkpt><trkpt lat="37.091710140383384" lon="14.368205923243838"><ele>144.6</ele><time>2026-03-29T13:41:34.001Z</time></trkpt><trkpt lat="37.091775902517064" lon="14.368125789030131"><ele>144.8</ele><time>2026-03-29T13:41:35.001Z</time></trkpt><trkpt lat="37.09185286426786" lon="14.368020113610921"><ele>145.0</ele><time>2026-03-29T13:41:36.001Z</time></trkpt><trkpt lat="37.091933453441584" lon="14.367898958667373"><ele>146.25</ele><time>2026-03-29T13:41:37.001Z</time></trkpt><trkpt lat="37.09201048546351" lon="14.367757565525295"><ele>147.5</ele><time>2026-03-29T13:41:38.001Z</time></trkpt><trkpt lat="37.09206691525174" lon="14.367601687768543"><ele>148.75</ele><time>2026-03-29T13:41:39.001Z</time></trkpt><trkpt lat="37.09213966384627" lon="14.367455260699645"><ele>150.0</ele><time>2026-03-29T13:41:40.001Z</time></trkpt><trkpt lat="37.092211790532616" lon="14.367306587520664"><ele>151.0</ele><time>2026-03-29T13:41:41.001Z</time></trkpt><trkpt lat="37.09228238550957" lon="14.367167073041196"><ele>152.0</ele><time>2026-03-29T13:41:42.001Z</time></trkpt><trkpt lat="37.09235324563257" lon="14.367031346591695"><ele>153.0</ele><time>2026-03-29T13:41:43.001Z</time></trkpt><trkpt lat="37.09244356405226" lon="14.366913999214137"><ele>154.0</ele><time>2026-03-29T13:41:44.001Z</time></trkpt><trkpt lat="37.092524544630585" lon="14.366785794150973"><ele>154.0</ele><time>2026-03-29T13:41:45.001Z</time></trkpt><trkpt lat="37.09260784145004" lon="14.366658153265266"><ele>154.0</ele><time>2026-03-29T13:41:46.001Z</time></trkpt><trkpt lat="37.09269025886541" lon="14.366526829581964"><ele>154.0</ele><time>2026-03-29T13:41:47.001Z</time></trkpt><trkpt lat="37.09276961579458" lon="14.366392857552672"><ele>154.0</ele><time>2026-03-29T13:41:48.001Z</time></trkpt><trkpt lat="37.092847188377746" lon="14.366251853619156"><ele>155.75</ele><time>2026-03-29T13:41:49.001Z</time></trkpt><trkpt lat="37.092909277669605" lon="14.366095659837447"><ele>157.5</ele><time>2026-03-29T13:41:50.001Z</time></trkpt><trkpt lat="37.09298491580247" lon="14.365950009948156"><ele>159.25</ele><time>2026-03-29T13:41:51.001Z</time></trkpt><trkpt lat="37.093055960419775" lon="14.365802085068891"><ele>161.0</ele><time>2026-03-29T13:41:52.001Z</time></trkpt><trkpt lat="37.093121911701274" lon="14.365656117940636"><ele>161.25</ele><time>2026-03-29T13:41:53Z</time></trkpt><trkpt lat="37.09318570116454" lon="14.365513325332621"><ele>161.5</ele><time>2026-03-29T13:41:54Z</time></trkpt><trkpt lat="37.09325040444983" lon="14.365371834556797"><ele>161.75</ele><time>2026-03-29T13:41:55Z</time></trkpt><trkpt lat="37.09331792910495" lon="14.36522802324676"><ele>162.0</ele><time>2026-03-29T13:41:56Z</time></trkpt><trkpt lat="37.093386963259874" lon="14.365082130633208"><ele>162.0</ele><time>2026-03-29T13:41:57Z</time></trkpt><trkpt lat="37.0934548866279" lon="14.364937787446339"><ele>162.0</ele><time>2026-03-29T13:41:58Z</time></trkpt><trkpt lat="37.0935211312908" lon="14.364794161534698"><ele>162.0</ele><time>2026-03-29T13:41:59Z</time></trkpt><trkpt lat="37.093585453002625" lon="14.364650863568695"><ele>162.0</ele><time>2026-03-29T13:42:00Z</time></trkpt><trkpt lat="37.09365304135066" lon="14.364506843397404"><ele>163.25</ele><time>2026-03-29T13:42:01Z</time></trkpt><trkpt lat="37.09372126053583" lon="14.364361028966844"><ele>164.5</ele><time>2026-03-29T13:42:02Z</time></trkpt><trkpt lat="37.09378409558595" lon="14.364220303439707"><ele>165.75</ele><time>2026-03-29T13:42:03Z</time></trkpt><trkpt lat="37.09384397913884" lon="14.364086922951804"><ele>167.0</ele><time>2026-03-29T13:42:04Z</time></trkpt><trkpt lat="37.093901579737214" lon="14.363960219284532"><ele>169.0</ele><time>2026-03-29T13:42:05Z</time></trkpt><trkpt lat="37.093955632493994" lon="14.363833738060425"><ele>171.0</ele><time>2026-03-29T13:42:06Z</time></trkpt><trkpt lat="37.09401739859996" lon="14.363719011658082"><ele>173.0</ele><time>2026-03-29T13:42:07Z</time></trkpt><trkpt lat="37.09403247517421" lon="14.363575521366123"><ele>175.0</ele><time>2026-03-29T13:42:08Z</time></trkpt><trkpt lat="37.09400307292115" lon="14.363438760040376"><ele>175.0</ele><time>2026-03-29T13:42:09Z</time></trkpt><trkpt lat="37.09398392405502" lon="14.363304145812789"><ele>175.0</ele><time>2026-03-29T13:42:10Z</time></trkpt><trkpt lat="37.09394370235413" lon="14.363173506136496"><ele>175.0</ele><time>2026-03-29T13:42:11Z</time></trkpt><trkpt lat="37.093905110602044" lon="14.363041554240757"><ele>175.0</ele><time>2026-03-29T13:42:12Z</time></trkpt><trkpt lat="37.093883633304245" lon="14.362890834948375"><ele>176.75</ele><time>2026-03-29T13:42:13Z</time></trkpt><trkpt lat="37.09383619750618" lon="14.362745813967267"><ele>178.5</ele><time>2026-03-29T13:42:14Z</time></trkpt><trkpt lat="37.09379125534688" lon="14.362592450788235"><ele>180.25</ele><time>2026-03-29T13:42:15Z</time></trkpt><trkpt lat="37.09374560843153" lon="14.362437660153034"><ele>182.0</ele><time>2026-03-29T13:42:16Z</time></trkpt><trkpt lat="37.093706011364674" lon="14.362281240290846"><ele>183.75</ele><time>2026-03-29T13:42:17Z</time></trkpt><trkpt lat="37.09366562243423" lon="14.362122412598811"><ele>185.5</ele><time>2026-03-29T13:42:18Z</time></trkpt><trkpt lat="37.09362676952577" lon="14.361964421818545"><ele>187.25</ele><time>2026-03-29T13:42:19Z</time></trkpt><trkpt lat="37.093585648499946" lon="14.361810166649072"><ele>189.0</ele><time>2026-03-29T13:42:20Z</time></trkpt><trkpt lat="37.09354308225474" lon="14.361666528468906"><ele>189.0</ele><time>2026-03-29T13:42:21Z</time></trkpt><trkpt lat="37.09350411406652" lon="14.361537002324928"><ele>189.0</ele><time>2026-03-29T13:42:22Z</time></trkpt><trkpt lat="37.09346006397997" lon="14.361415115742567"><ele>189.0</ele><time>2026-03-29T13:42:23Z</time></trkpt><trkpt lat="37.09341591473356" lon="14.361287658821952"><ele>189.0</ele><time>2026-03-29T13:42:24Z</time></trkpt><trkpt lat="37.09331894900926" lon="14.361186171875602"><ele>190.5</ele><time>2026-03-29T13:42:25Z</time></trkpt><trkpt lat="37.09323819467929" lon="14.361060859312044"><ele>192.0</ele><time>2026-03-29T13:42:26Z</time></trkpt><trkpt lat="37.09316485181025" lon="14.36091996586529"><ele>193.5</ele><time>2026-03-29T13:42:27Z</time></trkpt><trkpt lat="37.09310011970146" lon="14.360769503740423"><ele>195.0</ele><time>2026-03-29T13:42:28Z</time></trkpt><trkpt lat="37.09303573465322" lon="14.360617445251455"><ele>195.0</ele><time>2026-03-29T13:42:29Z</time></trkpt><trkpt lat="37.09297638227058" lon="14.36046611338585"><ele>195.0</ele><time>2026-03-29T13:42:30Z</time></trkpt><trkpt lat="37.09292010924718" lon="14.360317581784589"><ele>195.0</ele><time>2026-03-29T13:42:31Z</time></trkpt><trkpt lat="37.09286599487006" lon="14.36017392412731"><ele>195.0</ele><time>2026-03-29T13:42:32Z</time></trkpt><trkpt lat="37.09281687407729" lon="14.360037797637261"><ele>195.0</ele><time>2026-03-29T13:42:33Z</time></trkpt><trkpt lat="37.09279254630573" lon="14.359898387896507"><ele>195.0</ele><time>2026-03-29T13:42:34Z</time></trkpt><trkpt lat="37.092757349785785" lon="14.359759632345545"><ele>195.0</ele><time>2026-03-29T13:42:35Z</time></trkpt><trkpt lat="37.09272537941756" lon="14.359633595537476"><ele>195.0</ele><time>2026-03-29T13:42:36Z</time></trkpt><trkpt lat="37.092670283264" lon="14.359528973199195"><ele>195.0</ele><time>2026-03-29T13:42:37Z</time></trkpt><trkpt lat="37.09261902051093" lon="14.359437745591727"><ele>195.0</ele><time>2026-03-29T13:42:38Z</time></trkpt><trkpt lat="37.09255063806432" lon="14.359377975656932"><ele>195.0</ele><time>2026-03-29T13:42:39Z</time></trkpt><trkpt lat="37.09246756250458" lon="14.359355699459444"><ele>195.0</ele><time>2026-03-29T13:42:40Z</time></trkpt><trkpt lat="37.09236733720748" lon="14.359371016360106"><ele>195.0</ele><time>2026-03-29T13:42:41Z</time></trkpt><trkpt lat="37.09224798844087" lon="14.359405036773822"><ele>195.0</ele><time>2026-03-29T13:42:42Z</time></trkpt><trkpt lat="37.092117414521695" lon="14.359414851981855"><ele>193.75</ele><time>2026-03-29T13:42:43Z</time></trkpt><trkpt lat="37.09198269301893" lon="14.359443634117467"><ele>192.5</ele><time>2026-03-29T13:42:44Z</time></trkpt><trkpt lat="37.0918420371387" lon="14.359470298730729"><ele>191.25</ele><time>2026-03-29T13:42:45.001Z</time></trkpt><trkpt lat="37.09169452245647" lon="14.35949782286643"><ele>190.0</ele><time>2026-03-29T13:42:46.001Z</time></trkpt><trkpt lat="37.09154625356697" lon="14.359545577476837"><ele>189.33333333333334</ele><time>2026-03-29T13:42:47.001Z</time></trkpt><trkpt lat="37.091392472709764" lon="14.359574374006684"><ele>188.66666666666666</ele><time>2026-03-29T13:42:48.001Z</time></trkpt><trkpt lat="37.09123619404928" lon="14.359583340434598"><ele>188.0</ele><time>2026-03-29T13:42:49.001Z</time></trkpt><trkpt lat="37.091084459395304" lon="14.359612022998954"><ele>188.0</ele><time>2026-03-29T13:42:50.001Z</time></trkpt><trkpt lat="37.09093293560562" lon="14.35964163636673"><ele>188.0</ele><time>2026-03-29T13:42:51.001Z</time></trkpt><trkpt lat="37.090783266824225" lon="14.35967088717876"><ele>188.0</ele><time>2026-03-29T13:42:52.001Z</time></trkpt><trkpt lat="37.09064379455795" lon="14.359698899164295"><ele>188.0</ele><time>2026-03-29T13:42:53.001Z</time></trkpt><trkpt lat="37.09050763337418" lon="14.359726375057686"><ele>186.75</ele><time>2026-03-29T13:42:54.001Z</time></trkpt><trkpt lat="37.090374616754914" lon="14.359773358072514"><ele>185.5</ele><time>2026-03-29T13:42:55.001Z</time></trkpt><trkpt lat="37.09024095462907" lon="14.359796222886"><ele>184.25</ele><time>2026-03-29T13:42:56.001Z</time></trkpt><trkpt lat="37.09011287139522" lon="14.359820219578731"><ele>183.0</ele><time>2026-03-29T13:42:57.001Z</time></trkpt><trkpt lat="37.089993243046344" lon="14.359847707876568"><ele>182.5</ele><time>2026-03-29T13:42:58.001Z</time></trkpt><trkpt lat="37.08987384377472" lon="14.359853991157683"><ele>182.0</ele><time>2026-03-29T13:42:59.001Z</time></trkpt><trkpt lat="37.089758005553264" lon="14.359876968051234"><ele>181.5</ele><time>2026-03-29T13:43:00.001Z</time></trkpt><trkpt lat="37.08964322252226" lon="14.359899736967385"><ele>181.0</ele><time>2026-03-29T13:43:01.001Z</time></trkpt><trkpt lat="37.08953130681246" lon="14.35992193582942"><ele>181.0</ele><time>2026-03-29T13:43:02.001Z</time></trkpt><trkpt lat="37.08942666901128" lon="14.359961055068132"><ele>181.0</ele><time>2026-03-29T13:43:03.001Z</time></trkpt><trkpt lat="37.08931953975874" lon="14.35997905593967"><ele>181.0</ele><time>2026-03-29T13:43:04.001Z</time></trkpt><trkpt lat="37.089212814956376" lon="14.36000071851039"><ele>181.0</ele><time>2026-03-29T13:43:05.001Z</time></trkpt><trkpt lat="37.08911183515727" lon="14.36002207680041"><ele>181.0</ele><time>2026-03-29T13:43:06.001Z</time></trkpt><trkpt lat="37.08901578449435" lon="14.360018824681479"><ele>180.0</ele><time>2026-03-29T13:43:07.001Z</time></trkpt><trkpt lat="37.088920587489625" lon="14.360035384261193"><ele>179.0</ele><time>2026-03-29T13:43:08.001Z</time></trkpt><trkpt lat="37.088821982881214" lon="14.360055902572055"><ele>178.0</ele><time>2026-03-29T13:43:09.001Z</time></trkpt><trkpt lat="37.088732994878285" lon="14.360084131603442"><ele>177.0</ele><time>2026-03-29T13:43:10.001Z</time></trkpt><trkpt lat="37.088640315791125" lon="14.360073084188157"><ele>176.0</ele><time>2026-03-29T13:43:11.001Z</time></trkpt><trkpt lat="37.088552574105144" lon="14.360044664285752"><ele>176.0</ele><time>2026-03-29T13:43:12.001Z</time></trkpt><trkpt lat="37.0884716682378" lon="14.359991807885496"><ele>176.0</ele><time>2026-03-29T13:43:13.001Z</time></trkpt><trkpt lat="37.088392614702435" lon="14.359913280000484"><ele>176.0</ele><time>2026-03-29T13:43:14.001Z</time></trkpt><trkpt lat="37.08832110807792" lon="14.35983102118611"><ele>176.0</ele><time>2026-03-29T13:43:15.001Z</time></trkpt><trkpt lat="37.088257265260445" lon="14.35975409224241"><ele>176.0</ele><time>2026-03-29T13:43:16.001Z</time></trkpt><trkpt lat="37.088196420457905" lon="14.35968336611023"><ele>175.83333333333331</ele><time>2026-03-29T13:43:17.001Z</time></trkpt><trkpt lat="37.08815148300492" lon="14.35960355326222"><ele>175.66666666666666</ele><time>2026-03-29T13:43:18.001Z</time></trkpt><trkpt lat="37.08810133421762" lon="14.359538978609685"><ele>175.5</ele><time>2026-03-29T13:43:19.001Z</time></trkpt><trkpt lat="37.08805342977224" lon="14.35947896430286"><ele>175.33333333333334</ele><time>2026-03-29T13:43:20.001Z</time></trkpt><trkpt lat="37.088008022807415" lon="14.359422078848905"><ele>175.16666666666669</ele><time>2026-03-29T13:43:21.001Z</time></trkpt><trkpt lat="37.08792108894395" lon="14.359316800355131"><ele>175.0</ele><time>2026-03-29T13:43:23.001Z</time></trkpt><trkpt lat="37.087838979451575" lon="14.359217329644622"><ele>175.0</ele><time>2026-03-29T13:43:25.001Z</time></trkpt><trkpt lat="37.08775502928321" lon="14.359115629072685"><ele>175.0</ele><time>2026-03-29T13:43:27.001Z</time></trkpt><trkpt lat="37.0876773667557" lon="14.35902281593832"><ele>175.0</ele><time>2026-03-29T13:43:29.001Z</time></trkpt><trkpt lat="37.087610205921834" lon="14.358942549846338"><ele>175.0</ele><time>2026-03-29T13:43:31.001Z</time></trkpt><trkpt lat="37.0875544872823" lon="14.358875958688566"><ele>175.0</ele><time>2026-03-29T13:43:33.001Z</time></trkpt><trkpt lat="37.087507037984075" lon="14.358819320727536"><ele>175.33333333333334</ele><time>2026-03-29T13:43:35.001Z</time></trkpt><trkpt lat="37.0874595855755" lon="14.358762793184065"><ele>175.66666666666669</ele><time>2026-03-29T13:43:37.001Z</time></trkpt><trkpt lat="37.08739206762484" lon="14.35868236262012"><ele>176.0</ele><time>2026-03-29T13:43:40.001Z</time></trkpt><trkpt lat="37.08732924553495" lon="14.358607525982546"><ele>176.33333333333334</ele><time>2026-03-29T13:43:42.001Z</time></trkpt><trkpt lat="37.08725500351131" lon="14.35851908538467"><ele>176.66666666666666</ele><time>2026-03-29T13:43:44.001Z</time></trkpt><trkpt lat="37.087209226254934" lon="14.358464553353032"><ele>177.0</ele><time>2026-03-29T13:43:45.002Z</time></trkpt><trkpt lat="37.08716223934255" lon="14.358408580323411"><ele>177.0</ele><time>2026-03-29T13:43:46.002Z</time></trkpt><trkpt lat="37.08710831435365" lon="14.358358967021388"><ele>177.0</ele><time>2026-03-29T13:43:47.002Z</time></trkpt><trkpt lat="37.08705522485479" lon="14.358283141550897"><ele>177.0</ele><time>2026-03-29T13:43:48.002Z</time></trkpt><trkpt lat="37.08699137224502" lon="14.358210258443227"><ele>177.0</ele><time>2026-03-29T13:43:49.002Z</time></trkpt><trkpt lat="37.08692179140971" lon="14.35813103787725"><ele>177.0</ele><time>2026-03-29T13:43:50.002Z</time></trkpt><trkpt lat="37.08684524450488" lon="14.358041806888988"><ele>177.0</ele><time>2026-03-29T13:43:51.002Z</time></trkpt><trkpt lat="37.0867610971182" lon="14.35794585569275"><ele>174.8</ele><time>2026-03-29T13:43:52.002Z</time></trkpt><trkpt lat="37.08667919544223" lon="14.357848076905958"><ele>172.6</ele><time>2026-03-29T13:43:53.002Z</time></trkpt><trkpt lat="37.08660120688871" lon="14.357752689765045"><ele>170.4</ele><time>2026-03-29T13:43:54.002Z</time></trkpt><trkpt lat="37.086520991190724" lon="14.357658242075521"><ele>168.20000000000002</ele><time>2026-03-29T13:43:55.002Z</time></trkpt><trkpt lat="37.08643836870377" lon="14.357560492280092"><ele>166.0</ele><time>2026-03-29T13:43:56.002Z</time></trkpt><trkpt lat="37.08635859922488" lon="14.357465745390694"><ele>166.0</ele><time>2026-03-29T13:43:57.002Z</time></trkpt><trkpt lat="37.08628102146176" lon="14.357375277005868"><ele>166.0</ele><time>2026-03-29T13:43:58.002Z</time></trkpt><trkpt lat="37.08620853122879" lon="14.357288258835803"><ele>166.0</ele><time>2026-03-29T13:43:59Z</time></trkpt><trkpt lat="37.086138665591385" lon="14.357205273421576"><ele>166.0</ele><time>2026-03-29T13:44:00Z</time></trkpt><trkpt lat="37.08606213826397" lon="14.357113533869853"><ele>166.0</ele><time>2026-03-29T13:44:01Z</time></trkpt><trkpt lat="37.08598350754069" lon="14.357015125278172"><ele>166.0</ele><time>2026-03-29T13:44:02Z</time></trkpt><trkpt lat="37.085905786681835" lon="14.356919499166652"><ele>166.0</ele><time>2026-03-29T13:44:03Z</time></trkpt><trkpt lat="37.08583234208036" lon="14.356834852332671"><ele>166.0</ele><time>2026-03-29T13:44:04Z</time></trkpt><trkpt lat="37.08575779902534" lon="14.356750268687872"><ele>166.0</ele><time>2026-03-29T13:44:05Z</time></trkpt><trkpt lat="37.08568073705508" lon="14.356664577255131"><ele>166.0</ele><time>2026-03-29T13:44:06Z</time></trkpt><trkpt lat="37.08560706654958" lon="14.356579373233945"><ele>165.8</ele><time>2026-03-29T13:44:07Z</time></trkpt><trkpt lat="37.085544969679425" lon="14.356477987586105"><ele>165.60000000000002</ele><time>2026-03-29T13:44:08Z</time></trkpt><trkpt lat="37.085455531133064" lon="14.35639795269804"><ele>165.4</ele><time>2026-03-29T13:44:09Z</time></trkpt><trkpt lat="37.08537018160794" lon="14.356295935159435"><ele>165.2</ele><time>2026-03-29T13:44:10Z</time></trkpt><trkpt lat="37.08530146701628" lon="14.356183796775477"><ele>165.0</ele><time>2026-03-29T13:44:11Z</time></trkpt><trkpt lat="37.08523293683567" lon="14.356089487349854"><ele>166.6</ele><time>2026-03-29T13:44:12Z</time></trkpt><trkpt lat="37.08515820317965" lon="14.356019750421803"><ele>168.2</ele><time>2026-03-29T13:44:13Z</time></trkpt><trkpt lat="37.085118648138334" lon="14.355917532690835"><ele>169.8</ele><time>2026-03-29T13:44:14Z</time></trkpt><trkpt lat="37.085135576991796" lon="14.355800407200599"><ele>171.4</ele><time>2026-03-29T13:44:15Z</time></trkpt><trkpt lat="37.08517041323696" lon="14.355689378549588"><ele>173.0</ele><time>2026-03-29T13:44:16Z</time></trkpt><trkpt lat="37.08519758810181" lon="14.355550264147325"><ele>174.5</ele><time>2026-03-29T13:44:17Z</time></trkpt><trkpt lat="37.085228080894545" lon="14.355387825886558"><ele>176.0</ele><time>2026-03-29T13:44:18Z</time></trkpt><trkpt lat="37.0852587697773" lon="14.355231158987223"><ele>177.5</ele><time>2026-03-29T13:44:19Z</time></trkpt><trkpt lat="37.08528955943359" lon="14.35507627771816"><ele>179.0</ele><time>2026-03-29T13:44:20Z</time></trkpt><trkpt lat="37.08531846321009" lon="14.354930033360581"><ele>179.0</ele><time>2026-03-29T13:44:21Z</time></trkpt><trkpt lat="37.085345523255675" lon="14.35478727366195"><ele>179.0</ele><time>2026-03-29T13:44:22Z</time></trkpt><trkpt lat="37.085371784918834" lon="14.354648725935444"><ele>179.0</ele><time>2026-03-29T13:44:23Z</time></trkpt><trkpt lat="37.085397354418234" lon="14.354513829872632"><ele>179.0</ele><time>2026-03-29T13:44:24.001Z</time></trkpt><trkpt lat="37.08542030569012" lon="14.354387713536761"><ele>179.0</ele><time>2026-03-29T13:44:25.001Z</time></trkpt><trkpt lat="37.08544028152431" lon="14.354267924895716"><ele>180.0</ele><time>2026-03-29T13:44:26.001Z</time></trkpt><trkpt lat="37.08545569538016" lon="14.354148934636607"><ele>181.0</ele><time>2026-03-29T13:44:27.001Z</time></trkpt><trkpt lat="37.085455669306604" lon="14.354032822412854"><ele>182.0</ele><time>2026-03-29T13:44:28.001Z</time></trkpt><trkpt lat="37.08541869469375" lon="14.353927316406763"><ele>183.0</ele><time>2026-03-29T13:44:29.001Z</time></trkpt><trkpt lat="37.085344892795106" lon="14.35386656068765"><ele>184.0</ele><time>2026-03-29T13:44:30.001Z</time></trkpt><trkpt lat="37.085282847184224" lon="14.35379459443465"><ele>184.79999999999998</ele><time>2026-03-29T13:44:31.001Z</time></trkpt><trkpt lat="37.08520156469401" lon="14.353721816800233"><ele>185.6</ele><time>2026-03-29T13:44:32.001Z</time></trkpt><trkpt lat="37.08511139964396" lon="14.353647045786095"><ele>186.4</ele><time>2026-03-29T13:44:33.001Z</time></trkpt><trkpt lat="37.08501311958458" lon="14.353567965319495"><ele>187.2</ele><time>2026-03-29T13:44:34.001Z</time></trkpt><trkpt lat="37.08491755211782" lon="14.353492196229533"><ele>188.0</ele><time>2026-03-29T13:44:35.001Z</time></trkpt><trkpt lat="37.08482310630261" lon="14.35342047369337"><ele>188.0</ele><time>2026-03-29T13:44:36.001Z</time></trkpt><trkpt lat="37.08473010264084" lon="14.353349846327141"><ele>188.0</ele><time>2026-03-29T13:44:37.001Z</time></trkpt><trkpt lat="37.08462625683057" lon="14.353294980755283"><ele>188.0</ele><time>2026-03-29T13:44:38.001Z</time></trkpt><trkpt lat="37.08452716605697" lon="14.353207209105463"><ele>188.0</ele><time>2026-03-29T13:44:39.001Z</time></trkpt><trkpt lat="37.08442851494339" lon="14.353136937485418"><ele>188.0</ele><time>2026-03-29T13:44:40.001Z</time></trkpt><trkpt lat="37.0843446074447" lon="14.353072145501052"><ele>188.0</ele><time>2026-03-29T13:44:41.001Z</time></trkpt><trkpt lat="37.08427456239579" lon="14.35301709724475"><ele>188.0</ele><time>2026-03-29T13:44:42.001Z</time></trkpt><trkpt lat="37.084217073678886" lon="14.352965250975183"><ele>188.0</ele><time>2026-03-29T13:44:43.001Z</time></trkpt><trkpt lat="37.08413118624577" lon="14.352890554180972"><ele>188.0</ele><time>2026-03-29T13:44:45.001Z</time></trkpt><trkpt lat="37.08408448082682" lon="14.352812249445604"><ele>188.0</ele><time>2026-03-29T13:44:49.001Z</time></trkpt><trkpt lat="37.08415200981858" lon="14.352663706694079"><ele>187.8</ele><time>2026-03-29T13:44:51.001Z</time></trkpt><trkpt lat="37.08419888789275" lon="14.352580138220729"><ele>187.60000000000002</ele><time>2026-03-29T13:44:52.001Z</time></trkpt><trkpt lat="37.08423757496672" lon="14.352480617283813"><ele>187.39999999999998</ele><time>2026-03-29T13:44:53.001Z</time></trkpt><trkpt lat="37.08428047563917" lon="14.352366435387033"><ele>187.2</ele><time>2026-03-29T13:44:54.001Z</time></trkpt><trkpt lat="37.08433054620147" lon="14.352239950739635"><ele>187.0</ele><time>2026-03-29T13:44:55.001Z</time></trkpt><trkpt lat="37.08438167731786" lon="14.352114522921363"><ele>186.5</ele><time>2026-03-29T13:44:56.001Z</time></trkpt><trkpt lat="37.08443557463593" lon="14.351984245309216"><ele>186.0</ele><time>2026-03-29T13:44:57.001Z</time></trkpt><trkpt lat="37.08449058083188" lon="14.351854231018786"><ele>185.5</ele><time>2026-03-29T13:44:58.001Z</time></trkpt><trkpt lat="37.08454209571802" lon="14.351725737495162"><ele>185.0</ele><time>2026-03-29T13:44:59.001Z</time></trkpt><trkpt lat="37.08459183611085" lon="14.351599911845906"><ele>185.0</ele><time>2026-03-29T13:45:00.001Z</time></trkpt><trkpt lat="37.08463871356542" lon="14.351477816484481"><ele>185.0</ele><time>2026-03-29T13:45:01.001Z</time></trkpt><trkpt lat="37.084681917279234" lon="14.351357214106397"><ele>185.0</ele><time>2026-03-29T13:45:02.001Z</time></trkpt><trkpt lat="37.084733383629256" lon="14.351241933971517"><ele>185.0</ele><time>2026-03-29T13:45:03.001Z</time></trkpt><trkpt lat="37.084785860811515" lon="14.351114777842255"><ele>185.0</ele><time>2026-03-29T13:45:04.001Z</time></trkpt><trkpt lat="37.084839815767" lon="14.350983492729856"><ele>185.5</ele><time>2026-03-29T13:45:05.001Z</time></trkpt><trkpt lat="37.08489540973153" lon="14.350848657524232"><ele>186.0</ele><time>2026-03-29T13:45:06.001Z</time></trkpt><trkpt lat="37.084954171436216" lon="14.350716638380439"><ele>186.5</ele><time>2026-03-29T13:45:07.001Z</time></trkpt><trkpt lat="37.085016781801244" lon="14.350597536142322"><ele>187.0</ele><time>2026-03-29T13:45:08.001Z</time></trkpt><trkpt lat="37.08507660519422" lon="14.35048995115131"><ele>187.0</ele><time>2026-03-29T13:45:09.001Z</time></trkpt><trkpt lat="37.08515285157065" lon="14.350410273874866"><ele>187.0</ele><time>2026-03-29T13:45:10.001Z</time></trkpt><trkpt lat="37.085215341475894" lon="14.350307590934408"><ele>187.0</ele><time>2026-03-29T13:45:11.001Z</time></trkpt><trkpt lat="37.08528022514506" lon="14.350200974585883"><ele>187.0</ele><time>2026-03-29T13:45:12.001Z</time></trkpt><trkpt lat="37.0853355553824" lon="14.350092980362435"><ele>187.0</ele><time>2026-03-29T13:45:13.001Z</time></trkpt><trkpt lat="37.08539581694943" lon="14.349994529630287"><ele>187.0</ele><time>2026-03-29T13:45:14.001Z</time></trkpt><trkpt lat="37.08545776486143" lon="14.34990277559619"><ele>187.0</ele><time>2026-03-29T13:45:15.001Z</time></trkpt><trkpt lat="37.08551609972858" lon="14.349824058772377"><ele>187.0</ele><time>2026-03-29T13:45:16.001Z</time></trkpt><trkpt lat="37.085581142632876" lon="14.349760296525726"><ele>187.0</ele><time>2026-03-29T13:45:17.001Z</time></trkpt><trkpt lat="37.08567427202184" lon="14.349747044782637"><ele>187.0</ele><time>2026-03-29T13:45:18.001Z</time></trkpt><trkpt lat="37.085774605513414" lon="14.349728290330257"><ele>185.6</ele><time>2026-03-29T13:45:19.001Z</time></trkpt><trkpt lat="37.085879150352355" lon="14.349702519528847"><ele>184.2</ele><time>2026-03-29T13:45:20.001Z</time></trkpt><trkpt lat="37.085973935019545" lon="14.349683631736776"><ele>182.8</ele><time>2026-03-29T13:45:21.001Z</time></trkpt><trkpt lat="37.08607533778815" lon="14.349665273020323"><ele>181.4</ele><time>2026-03-29T13:45:22.001Z</time></trkpt><trkpt lat="37.08618053846306" lon="14.349649339375635"><ele>180.0</ele><time>2026-03-29T13:45:23.001Z</time></trkpt><trkpt lat="37.08628804834861" lon="14.349639009583786"><ele>180.0</ele><time>2026-03-29T13:45:24.001Z</time></trkpt><trkpt lat="37.086392987681144" lon="14.349641078761197"><ele>180.0</ele><time>2026-03-29T13:45:25.001Z</time></trkpt><trkpt lat="37.08649298923827" lon="14.349647622561852"><ele>180.0</ele><time>2026-03-29T13:45:26.001Z</time></trkpt><trkpt lat="37.086587100994336" lon="14.349655742322039"><ele>180.0</ele><time>2026-03-29T13:45:27.001Z</time></trkpt><trkpt lat="37.086679432457565" lon="14.349646319628397"><ele>180.0</ele><time>2026-03-29T13:45:28.001Z</time></trkpt><trkpt lat="37.08676259953058" lon="14.349661188244424"><ele>179.66666666666666</ele><time>2026-03-29T13:45:29.001Z</time></trkpt><trkpt lat="37.086841464597974" lon="14.349680316440223"><ele>179.33333333333334</ele><time>2026-03-29T13:45:30.001Z</time></trkpt><trkpt lat="37.08692012653943" lon="14.349695555676286"><ele>179.0</ele><time>2026-03-29T13:45:31.002Z</time></trkpt><trkpt lat="37.08700403818209" lon="14.349710798121988"><ele>178.66666666666669</ele><time>2026-03-29T13:45:32.002Z</time></trkpt><trkpt lat="37.087092030357645" lon="14.3497320296441"><ele>178.33333333333334</ele><time>2026-03-29T13:45:33.002Z</time></trkpt><trkpt lat="37.08717454435305" lon="14.34975286031825"><ele>178.0</ele><time>2026-03-29T13:45:34.002Z</time></trkpt><trkpt lat="37.087253402302586" lon="14.349775145001477"><ele>178.0</ele><time>2026-03-29T13:45:35.002Z</time></trkpt><trkpt lat="37.08732268570776" lon="14.349801234999077"><ele>178.0</ele><time>2026-03-29T13:45:36.002Z</time></trkpt><trkpt lat="37.08738425776456" lon="14.3498292733811"><ele>178.0</ele><time>2026-03-29T13:45:37.002Z</time></trkpt><trkpt lat="37.08749750196902" lon="14.349896475882488"><ele>178.0</ele><time>2026-03-29T13:45:39.002Z</time></trkpt><trkpt lat="37.08756703215125" lon="14.349930863983472"><ele>178.0</ele><time>2026-03-29T13:45:40.002Z</time></trkpt><trkpt lat="37.08763610511665" lon="14.349968449617789"><ele>178.0</ele><time>2026-03-29T13:45:41.002Z</time></trkpt><trkpt lat="37.087690738633576" lon="14.350025032496253"><ele>176.4</ele><time>2026-03-29T13:45:42.002Z</time></trkpt><trkpt lat="37.087739541638285" lon="14.35008259982262"><ele>174.8</ele><time>2026-03-29T13:45:43.002Z</time></trkpt><trkpt lat="37.08778825306202" lon="14.350144165882591"><ele>173.2</ele><time>2026-03-29T13:45:44.002Z</time></trkpt><trkpt lat="37.087864187839564" lon="14.35026689554771"><ele>171.6</ele><time>2026-03-29T13:45:46.002Z</time></trkpt><trkpt lat="37.08791387343243" lon="14.350409447584948"><ele>170.0</ele><time>2026-03-29T13:45:48.002Z</time></trkpt><trkpt lat="37.08794128470723" lon="14.350554903740713"><ele>170.0</ele><time>2026-03-29T13:45:50.002Z</time></trkpt><trkpt lat="37.087986709995846" lon="14.350662359226785"><ele>170.0</ele><time>2026-03-29T13:45:52.002Z</time></trkpt><trkpt lat="37.08810705683672" lon="14.350731206377063"><ele>170.0</ele><time>2026-03-29T13:45:54.002Z</time></trkpt><trkpt lat="37.08818152997044" lon="14.350657200796126"><ele>170.0</ele><time>2026-03-29T13:45:55.002Z</time></trkpt><trkpt lat="37.08820822914583" lon="14.350540597155028"><ele>170.0</ele><time>2026-03-29T13:45:56.002Z</time></trkpt><trkpt lat="37.08817965027372" lon="14.35043521113599"><ele>168.33333333333331</ele><time>2026-03-29T13:45:57.002Z</time></trkpt><trkpt lat="37.08814371368811" lon="14.350343502563844"><ele>166.66666666666666</ele><time>2026-03-29T13:45:58.002Z</time></trkpt><trkpt lat="37.08809471744673" lon="14.350255457756653"><ele>165.0</ele><time>2026-03-29T13:45:59.002Z</time></trkpt><trkpt lat="37.08806265492621" lon="14.350158790657714"><ele>163.33333333333334</ele><time>2026-03-29T13:46:00.002Z</time></trkpt><trkpt lat="37.08801535895378" lon="14.350077270836522"><ele>161.66666666666669</ele><time>2026-03-29T13:46:01.002Z</time></trkpt><trkpt lat="37.08796765905458" lon="14.349997580584407"><ele>160.0</ele><time>2026-03-29T13:46:02.002Z</time></trkpt><trkpt lat="37.08791575764659" lon="14.349917081863016"><ele>160.0</ele><time>2026-03-29T13:46:03.002Z</time></trkpt><trkpt lat="37.08786521700664" lon="14.349840578868488"><ele>160.0</ele><time>2026-03-29T13:46:04.002Z</time></trkpt><trkpt lat="37.087814313071306" lon="14.349766125912605"><ele>160.0</ele><time>2026-03-29T13:46:05.001Z</time></trkpt><trkpt lat="37.08775938161088" lon="14.349691230700614"><ele>160.0</ele><time>2026-03-29T13:46:06.001Z</time></trkpt><trkpt lat="37.087702086226734" lon="14.349627408440567"><ele>160.0</ele><time>2026-03-29T13:46:07.001Z</time></trkpt><trkpt lat="37.087636259619664" lon="14.34956560772006"><ele>160.0</ele><time>2026-03-29T13:46:08.001Z</time></trkpt><trkpt lat="37.08756116802376" lon="14.34950692155924"><ele>160.0</ele><time>2026-03-29T13:46:09.001Z</time></trkpt><trkpt lat="37.08748368794941" lon="14.349452380822385"><ele>160.0</ele><time>2026-03-29T13:46:10.001Z</time></trkpt><trkpt lat="37.087403523507135" lon="14.349397057251917"><ele>160.0</ele><time>2026-03-29T13:46:11.001Z</time></trkpt><trkpt lat="37.08732723658675" lon="14.349342591025973"><ele>160.0</ele><time>2026-03-29T13:46:12.001Z</time></trkpt><trkpt lat="37.08726218206575" lon="14.34928762443666"><ele>160.0</ele><time>2026-03-29T13:46:13.001Z</time></trkpt><trkpt lat="37.08721003839894" lon="14.349229006008649"><ele>160.0</ele><time>2026-03-29T13:46:14.001Z</time></trkpt><trkpt lat="37.087142944965656" lon="14.349101114709983"><ele>160.0</ele><time>2026-03-29T13:46:16.001Z</time></trkpt><trkpt lat="37.087145970541435" lon="14.349018600413528"><ele>160.0</ele><time>2026-03-29T13:46:17.001Z</time></trkpt><trkpt lat="37.08720464453478" lon="14.348951422528907"><ele>160.0</ele><time>2026-03-29T13:46:18.001Z</time></trkpt><trkpt lat="37.08725526290215" lon="14.348896808167117"><ele>160.0</ele><time>2026-03-29T13:46:19.001Z</time></trkpt><trkpt lat="37.08729819740305" lon="14.348829988716178"><ele>160.0</ele><time>2026-03-29T13:46:20.001Z</time></trkpt><trkpt lat="37.087370094161066" lon="14.348783965391362"><ele>160.0</ele><time>2026-03-29T13:46:21.001Z</time></trkpt><trkpt lat="37.08743612441897" lon="14.348731140240947"><ele>160.0</ele><time>2026-03-29T13:46:22.001Z</time></trkpt><trkpt lat="37.08750406515699" lon="14.348688506169532"><ele>158.16666666666669</ele><time>2026-03-29T13:46:23.001Z</time></trkpt><trkpt lat="37.08755533746278" lon="14.348628068778813"><ele>156.33333333333334</ele><time>2026-03-29T13:46:24.001Z</time></trkpt><trkpt lat="37.08760506215785" lon="14.34854880609271"><ele>154.5</ele><time>2026-03-29T13:46:25.001Z</time></trkpt><trkpt lat="37.087626726204945" lon="14.348439609055545"><ele>152.66666666666666</ele><time>2026-03-29T13:46:26.001Z</time></trkpt><trkpt lat="37.087664489550306" lon="14.348343553891805"><ele>150.83333333333331</ele><time>2026-03-29T13:46:27.001Z</time></trkpt><trkpt lat="37.08769925254426" lon="14.348256297119773"><ele>149.0</ele><time>2026-03-29T13:46:28.001Z</time></trkpt><trkpt lat="37.08773451409075" lon="14.348173374324592"><ele>149.0</ele><time>2026-03-29T13:46:29.001Z</time></trkpt><trkpt lat="37.0877666952734" lon="14.348094912259642"><ele>149.0</ele><time>2026-03-29T13:46:30.001Z</time></trkpt><trkpt lat="37.08779453380006" lon="14.34802013236527"><ele>149.0</ele><time>2026-03-29T13:46:31.001Z</time></trkpt><trkpt lat="37.087860606965535" lon="14.347907648397731"><ele>149.0</ele><time>2026-03-29T13:46:33.001Z</time></trkpt><trkpt lat="37.08791656920785" lon="14.347822185310713"><ele>149.0</ele><time>2026-03-29T13:46:35.001Z</time></trkpt><trkpt lat="37.08799824795286" lon="14.347773351640976"><ele>149.0</ele><time>2026-03-29T13:46:37.001Z</time></trkpt><trkpt lat="37.08805640931389" lon="14.347818859489335"><ele>149.0</ele><time>2026-03-29T13:46:38.001Z</time></trkpt><trkpt lat="37.08809262035623" lon="14.347889089266962"><ele>149.0</ele><time>2026-03-29T13:46:39.001Z</time></trkpt><trkpt lat="37.088097119452115" lon="14.347973130443098"><ele>149.0</ele><time>2026-03-29T13:46:40.001Z</time></trkpt><trkpt lat="37.08806996576687" lon="14.34805823552819"><ele>149.0</ele><time>2026-03-29T13:46:41.001Z</time></trkpt><trkpt lat="37.08802698205808" lon="14.348142740861416"><ele>149.0</ele><time>2026-03-29T13:46:42.001Z</time></trkpt><trkpt lat="37.08797576125467" lon="14.348235076918382"><ele>149.0</ele><time>2026-03-29T13:46:43.001Z</time></trkpt><trkpt lat="37.08792892256027" lon="14.348335989281937"><ele>149.0</ele><time>2026-03-29T13:46:44.001Z</time></trkpt><trkpt lat="37.08788355212465" lon="14.348438639737358"><ele>149.0</ele><time>2026-03-29T13:46:45.001Z</time></trkpt><trkpt lat="37.08784394604276" lon="14.348540790702726"><ele>149.0</ele><time>2026-03-29T13:46:46.001Z</time></trkpt><trkpt lat="37.08780866026898" lon="14.348633725207076"><ele>149.0</ele><time>2026-03-29T13:46:47.001Z</time></trkpt><trkpt lat="37.08777912926463" lon="14.348727212492504"><ele>149.0</ele><time>2026-03-29T13:46:48.001Z</time></trkpt><trkpt lat="37.087764345507864" lon="14.348826045379155"><ele>149.0</ele><time>2026-03-29T13:46:49.001Z</time></trkpt><trkpt lat="37.08774674029121" lon="14.348923112601117"><ele>148.4</ele><time>2026-03-29T13:46:50.001Z</time></trkpt><trkpt lat="37.087752552943414" lon="14.349025605878872"><ele>147.8</ele><time>2026-03-29T13:46:51.001Z</time></trkpt><trkpt lat="37.08777816324231" lon="14.349116951149533"><ele>147.2</ele><time>2026-03-29T13:46:52.001Z</time></trkpt><trkpt lat="37.08783342493732" lon="14.349207008328875"><ele>146.6</ele><time>2026-03-29T13:46:53.001Z</time></trkpt><trkpt lat="37.087915578508" lon="14.349276941817761"><ele>146.0</ele><time>2026-03-29T13:46:54.001Z</time></trkpt><trkpt lat="37.08800817194865" lon="14.3493345125711"><ele>146.0</ele><time>2026-03-29T13:46:55.001Z</time></trkpt><trkpt lat="37.088107953942014" lon="14.349387270195447"><ele>146.0</ele><time>2026-03-29T13:46:56.001Z</time></trkpt><trkpt lat="37.08821067634062" lon="14.349435963675244"><ele>146.0</ele><time>2026-03-29T13:46:57.001Z</time></trkpt><trkpt lat="37.08830924387213" lon="14.349456206022959"><ele>146.0</ele><time>2026-03-29T13:46:58.001Z</time></trkpt><trkpt lat="37.08839508798216" lon="14.349496554251997"><ele>146.0</ele><time>2026-03-29T13:46:59.001Z</time></trkpt><trkpt lat="37.08847576179755" lon="14.349521838158159"><ele>144.33333333333331</ele><time>2026-03-29T13:47:00.001Z</time></trkpt><trkpt lat="37.08855287693501" lon="14.349530452535541"><ele>142.66666666666666</ele><time>2026-03-29T13:47:01.001Z</time></trkpt><trkpt lat="37.0886302194459" lon="14.349548801295645"><ele>141.0</ele><time>2026-03-29T13:47:02.001Z</time></trkpt><trkpt lat="37.08870506105974" lon="14.349511504322544"><ele>139.33333333333334</ele><time>2026-03-29T13:47:03.001Z</time></trkpt><trkpt lat="37.088763467465846" lon="14.349443428963871"><ele>137.66666666666669</ele><time>2026-03-29T13:47:04.001Z</time></trkpt><trkpt lat="37.088790271148035" lon="14.349319160305962"><ele>136.0</ele><time>2026-03-29T13:47:05.001Z</time></trkpt><trkpt lat="37.08876935682145" lon="14.349201985189124"><ele>136.0</ele><time>2026-03-29T13:47:06.001Z</time></trkpt><trkpt lat="37.088689143694026" lon="14.349107764759427"><ele>136.0</ele><time>2026-03-29T13:47:07.001Z</time></trkpt><trkpt lat="37.08861922477493" lon="14.348996662068032"><ele>136.0</ele><time>2026-03-29T13:47:08.001Z</time></trkpt><trkpt lat="37.08854057220184" lon="14.348876901194057"><ele>136.0</ele><time>2026-03-29T13:47:09.001Z</time></trkpt><trkpt lat="37.088468900634226" lon="14.348765339935573"><ele>134.6</ele><time>2026-03-29T13:47:10.001Z</time></trkpt><trkpt lat="37.08840063864049" lon="14.348661348838075"><ele>133.2</ele><time>2026-03-29T13:47:11.001Z</time></trkpt><trkpt lat="37.08834134068797" lon="14.348553720930125"><ele>131.8</ele><time>2026-03-29T13:47:12.001Z</time></trkpt><trkpt lat="37.08831813289149" lon="14.348432276942646"><ele>130.4</ele><time>2026-03-29T13:47:13.001Z</time></trkpt><trkpt lat="37.08831338820302" lon="14.34831211616082"><ele>129.0</ele><time>2026-03-29T13:47:14.001Z</time></trkpt><trkpt lat="37.088343376950206" lon="14.348193314017697"><ele>129.0</ele><time>2026-03-29T13:47:15.001Z</time></trkpt><trkpt lat="37.08836703333373" lon="14.348046724620332"><ele>129.0</ele><time>2026-03-29T13:47:16.001Z</time></trkpt><trkpt lat="37.088395122701186" lon="14.347886956395879"><ele>129.0</ele><time>2026-03-29T13:47:17.001Z</time></trkpt><trkpt lat="37.08842567588852" lon="14.34772874403738"><ele>129.0</ele><time>2026-03-29T13:47:18.001Z</time></trkpt><trkpt lat="37.08845752068007" lon="14.347570499337158"><ele>128.6</ele><time>2026-03-29T13:47:19.001Z</time></trkpt><trkpt lat="37.08848152405184" lon="14.347456496711416"><ele>128.2</ele><time>2026-03-29T13:47:20.001Z</time></trkpt><trkpt lat="37.088509170337275" lon="14.347325192313301"><ele>127.79999999999998</ele><time>2026-03-29T13:47:21.001Z</time></trkpt><trkpt lat="37.088537887845874" lon="14.347188800126741"><ele>127.39999999999999</ele><time>2026-03-29T13:47:22.001Z</time></trkpt><trkpt lat="37.08856999959478" lon="14.347049088221018"><ele>127.0</ele><time>2026-03-29T13:47:23.001Z</time></trkpt><trkpt lat="37.088599458638974" lon="14.34692160834968"><ele>126.39999999999999</ele><time>2026-03-29T13:47:24.001Z</time></trkpt><trkpt lat="37.088629490382175" lon="14.346791650285148"><ele>125.79999999999998</ele><time>2026-03-29T13:47:25.001Z</time></trkpt><trkpt lat="37.088661319312294" lon="14.346649955598473"><ele>125.2</ele><time>2026-03-29T13:47:26.001Z</time></trkpt><trkpt lat="37.08868883839361" lon="14.34652107506858"><ele>124.6</ele><time>2026-03-29T13:47:27.001Z</time></trkpt><trkpt lat="37.08871402048316" lon="14.346398600729582"><ele>124.0</ele><time>2026-03-29T13:47:28.001Z</time></trkpt><trkpt lat="37.08873999875258" lon="14.34627050025575"><ele>123.0</ele><time>2026-03-29T13:47:29.001Z</time></trkpt><trkpt lat="37.08876838921031" lon="14.346125895976591"><ele>122.0</ele><time>2026-03-29T13:47:30.001Z</time></trkpt><trkpt lat="37.088797373551465" lon="14.345978266662865"><ele>121.0</ele><time>2026-03-29T13:47:31.002Z</time></trkpt><trkpt lat="37.088824646980584" lon="14.34584054116554"><ele>120.0</ele><time>2026-03-29T13:47:32.002Z</time></trkpt><trkpt lat="37.088850867464835" lon="14.3457081462636"><ele>120.0</ele><time>2026-03-29T13:47:33.002Z</time></trkpt><trkpt lat="37.088877908834306" lon="14.345571606415778"><ele>120.0</ele><time>2026-03-29T13:47:34.002Z</time></trkpt><trkpt lat="37.088905462066954" lon="14.34543248199285"><ele>120.0</ele><time>2026-03-29T13:47:35.002Z</time></trkpt><trkpt lat="37.088919582088984" lon="14.345278081263041"><ele>120.0</ele><time>2026-03-29T13:47:36.002Z</time></trkpt><trkpt lat="37.088958161927465" lon="14.345126073136191"><ele>120.5</ele><time>2026-03-29T13:47:37.002Z</time></trkpt><trkpt lat="37.08898881718089" lon="14.344977512143547"><ele>121.0</ele><time>2026-03-29T13:47:38.002Z</time></trkpt><trkpt lat="37.089010526214295" lon="14.34482783011456"><ele>121.5</ele><time>2026-03-29T13:47:39.002Z</time></trkpt><trkpt lat="37.08904659686079" lon="14.344656272369415"><ele>122.0</ele><time>2026-03-29T13:47:40.002Z</time></trkpt><trkpt lat="37.089087027293964" lon="14.344477240357396"><ele>115.5</ele><time>2026-03-29T13:47:41.002Z</time></trkpt><trkpt lat="37.08912894117244" lon="14.344292872371065"><ele>109.0</ele><time>2026-03-29T13:47:42.002Z</time></trkpt><trkpt lat="37.089183320312806" lon="14.344119119366008"><ele>102.5</ele><time>2026-03-29T13:47:43.002Z</time></trkpt><trkpt lat="37.08923800426308" lon="14.343952520944331"><ele>96.0</ele><time>2026-03-29T13:47:44.002Z</time></trkpt><trkpt lat="37.08929161781694" lon="14.343776787406274"><ele>94.75</ele><time>2026-03-29T13:47:45.002Z</time></trkpt><trkpt lat="37.08934549959684" lon="14.343624996489831"><ele>93.5</ele><time>2026-03-29T13:47:46.002Z</time></trkpt><trkpt lat="37.08940348687966" lon="14.343466718091577"><ele>92.25</ele><time>2026-03-29T13:47:47.002Z</time></trkpt><trkpt lat="37.089456505050265" lon="14.343322781575969"><ele>91.0</ele><time>2026-03-29T13:47:48.002Z</time></trkpt><trkpt lat="37.0895078453151" lon="14.343186686192922"><ele>91.0</ele><time>2026-03-29T13:47:49.002Z</time></trkpt><trkpt lat="37.089556474625155" lon="14.343052633514223"><ele>91.0</ele><time>2026-03-29T13:47:50.002Z</time></trkpt><trkpt lat="37.0896127830462" lon="14.34289154127221"><ele>91.0</ele><time>2026-03-29T13:47:51.002Z</time></trkpt><trkpt lat="37.08966658526662" lon="14.342736281305298"><ele>91.0</ele><time>2026-03-29T13:47:52.002Z</time></trkpt><trkpt lat="37.089742721902546" lon="14.342585036944243"><ele>90.66666666666666</ele><time>2026-03-29T13:47:53.002Z</time></trkpt><trkpt lat="37.089820043286274" lon="14.342432872797774"><ele>90.33333333333333</ele><time>2026-03-29T13:47:54.002Z</time></trkpt><trkpt lat="37.08990961461151" lon="14.342277087082069"><ele>90.0</ele><time>2026-03-29T13:47:55.002Z</time></trkpt><trkpt lat="37.090011758544286" lon="14.342120609993813"><ele>86.0</ele><time>2026-03-29T13:47:56.002Z</time></trkpt><trkpt lat="37.09012765639313" lon="14.341949727154349"><ele>82.0</ele><time>2026-03-29T13:47:57.002Z</time></trkpt><trkpt lat="37.090247017485126" lon="14.341778686304947"><ele>78.0</ele><time>2026-03-29T13:47:58.002Z</time></trkpt><trkpt lat="37.09037298732233" lon="14.341612521557819"><ele>78.0</ele><time>2026-03-29T13:47:59.002Z</time></trkpt><trkpt lat="37.090507801413224" lon="14.341448520639778"><ele>78.0</ele><time>2026-03-29T13:48:00.002Z</time></trkpt><trkpt lat="37.09064821214143" lon="14.341286920752442"><ele>78.0</ele><time>2026-03-29T13:48:01.002Z</time></trkpt><trkpt lat="37.09078933467537" lon="14.34113310134084"><ele>75.33333333333333</ele><time>2026-03-29T13:48:02.002Z</time></trkpt><trkpt lat="37.090924533649165" lon="14.340987075226252"><ele>72.66666666666666</ele><time>2026-03-29T13:48:03.002Z</time></trkpt><trkpt lat="37.091059796706524" lon="14.340843647669628"><ele>70.0</ele><time>2026-03-29T13:48:04.002Z</time></trkpt><trkpt lat="37.091192908413184" lon="14.340702501303092"><ele>70.0</ele><time>2026-03-29T13:48:05.002Z</time></trkpt><trkpt lat="37.0913276468734" lon="14.340559629985073"><ele>70.0</ele><time>2026-03-29T13:48:06.002Z</time></trkpt><trkpt lat="37.09146231134847" lon="14.340418857467805"><ele>70.0</ele><time>2026-03-29T13:48:07.002Z</time></trkpt><trkpt lat="37.09159382614053" lon="14.340281630318064"><ele>67.66666666666666</ele><time>2026-03-29T13:48:08.002Z</time></trkpt><trkpt lat="37.091727742360895" lon="14.340141897428072"><ele>65.33333333333333</ele><time>2026-03-29T13:48:09.002Z</time></trkpt><trkpt lat="37.09186114491526" lon="14.340002700509157"><ele>63.0</ele><time>2026-03-29T13:48:10.002Z</time></trkpt><trkpt lat="37.09199883938412" lon="14.339858426295184"><ele>63.0</ele><time>2026-03-29T13:48:11.001Z</time></trkpt><trkpt lat="37.09212906842076" lon="14.339720490536527"><ele>63.0</ele><time>2026-03-29T13:48:12.001Z</time></trkpt><trkpt lat="37.09226480627802" lon="14.339573414024025"><ele>63.0</ele><time>2026-03-29T13:48:13.001Z</time></trkpt><trkpt lat="37.09239336539826" lon="14.339434115921584"><ele>61.0</ele><time>2026-03-29T13:48:14.001Z</time></trkpt><trkpt lat="37.09252226840239" lon="14.3392944451978"><ele>59.0</ele><time>2026-03-29T13:48:15.001Z</time></trkpt><trkpt lat="37.09264360366197" lon="14.339162974396682"><ele>57.0</ele><time>2026-03-29T13:48:16.001Z</time></trkpt><trkpt lat="37.092768451717134" lon="14.339028624411124"><ele>56.66666666666667</ele><time>2026-03-29T13:48:17.001Z</time></trkpt><trkpt lat="37.09288526682276" lon="14.338877024137632"><ele>56.333333333333336</ele><time>2026-03-29T13:48:18.001Z</time></trkpt><trkpt lat="37.09300561609402" lon="14.338750554595704"><ele>56.0</ele><time>2026-03-29T13:48:19.001Z</time></trkpt><trkpt lat="37.09313589617298" lon="14.338616381033873"><ele>54.66666666666667</ele><time>2026-03-29T13:48:20.001Z</time></trkpt><trkpt lat="37.09325843086092" lon="14.33848633717602"><ele>53.33333333333333</ele><time>2026-03-29T13:48:21.001Z</time></trkpt><trkpt lat="37.09338579275865" lon="14.338381053746044"><ele>52.0</ele><time>2026-03-29T13:48:22.001Z</time></trkpt><trkpt lat="37.09349583929561" lon="14.338268277395535"><ele>52.0</ele><time>2026-03-29T13:48:23.001Z</time></trkpt><trkpt lat="37.09360340533451" lon="14.338155250628432"><ele>52.0</ele><time>2026-03-29T13:48:24.001Z</time></trkpt><trkpt lat="37.09370677429641" lon="14.338044569063761"><ele>52.0</ele><time>2026-03-29T13:48:25.001Z</time></trkpt><trkpt lat="37.09379875647703" lon="14.337919546077384"><ele>52.0</ele><time>2026-03-29T13:48:26.001Z</time></trkpt><trkpt lat="37.09389926864133" lon="14.33781335423976"><ele>51.75</ele><time>2026-03-29T13:48:27.001Z</time></trkpt><trkpt lat="37.09400300781169" lon="14.337702512069821"><ele>51.5</ele><time>2026-03-29T13:48:28.001Z</time></trkpt><trkpt lat="37.09410013519192" lon="14.337574324419855"><ele>51.25</ele><time>2026-03-29T13:48:29.001Z</time></trkpt><trkpt lat="37.094204747197146" lon="14.33745840614489"><ele>51.0</ele><time>2026-03-29T13:48:30.001Z</time></trkpt><trkpt lat="37.09429643250395" lon="14.337331079039645"><ele>51.75</ele><time>2026-03-29T13:48:31.001Z</time></trkpt><trkpt lat="37.09438955588288" lon="14.337203039065988"><ele>52.5</ele><time>2026-03-29T13:48:32.001Z</time></trkpt><trkpt lat="37.09448116476551" lon="14.337066210808668"><ele>53.25</ele><time>2026-03-29T13:48:33.001Z</time></trkpt><trkpt lat="37.09459696156758" lon="14.33695230401136"><ele>54.0</ele><time>2026-03-29T13:48:34.001Z</time></trkpt><trkpt lat="37.09472189660335" lon="14.33684395102698"><ele>54.0</ele><time>2026-03-29T13:48:35.001Z</time></trkpt><trkpt lat="37.09484852789925" lon="14.336735303369688"><ele>54.0</ele><time>2026-03-29T13:48:36.001Z</time></trkpt><trkpt lat="37.0949835485385" lon="14.336624859393675"><ele>54.0</ele><time>2026-03-29T13:48:37.001Z</time></trkpt><trkpt lat="37.09512310080021" lon="14.336516215992189"><ele>54.0</ele><time>2026-03-29T13:48:38.001Z</time></trkpt><trkpt lat="37.09526781568067" lon="14.33640950210201"><ele>54.0</ele><time>2026-03-29T13:48:39.001Z</time></trkpt><trkpt lat="37.09540496026561" lon="14.33632129300407"><ele>54.0</ele><time>2026-03-29T13:48:40.001Z</time></trkpt><trkpt lat="37.09555248785156" lon="14.336246355578538"><ele>54.0</ele><time>2026-03-29T13:48:41.001Z</time></trkpt><trkpt lat="37.09570959825521" lon="14.336176175958999"><ele>54.0</ele><time>2026-03-29T13:48:42.001Z</time></trkpt><trkpt lat="37.09587048120678" lon="14.33610262853972"><ele>54.0</ele><time>2026-03-29T13:48:43.001Z</time></trkpt><trkpt lat="37.09603146868463" lon="14.336030775638772"><ele>53.0</ele><time>2026-03-29T13:48:44.001Z</time></trkpt><trkpt lat="37.09619248809396" lon="14.335954123684388"><ele>52.0</ele><time>2026-03-29T13:48:45.001Z</time></trkpt><trkpt lat="37.09635453515278" lon="14.335886264592002"><ele>51.0</ele><time>2026-03-29T13:48:46.001Z</time></trkpt><trkpt lat="37.09650630233206" lon="14.335784345556586"><ele>49.333333333333336</ele><time>2026-03-29T13:48:47.001Z</time></trkpt><trkpt lat="37.09664399151737" lon="14.335645150774022"><ele>47.66666666666667</ele><time>2026-03-29T13:48:48.001Z</time></trkpt><trkpt lat="37.096779070452776" lon="14.335514260007209"><ele>46.0</ele><time>2026-03-29T13:48:49.001Z</time></trkpt><trkpt lat="37.09691421281555" lon="14.335383753273966"><ele>45.333333333333336</ele><time>2026-03-29T13:48:50.001Z</time></trkpt><trkpt lat="37.097041689808385" lon="14.335255748095097"><ele>44.666666666666664</ele><time>2026-03-29T13:48:51.001Z</time></trkpt><trkpt lat="37.09716316124229" lon="14.335132108190596"><ele>44.0</ele><time>2026-03-29T13:48:52.001Z</time></trkpt><trkpt lat="37.09728415953733" lon="14.335010282251666"><ele>44.0</ele><time>2026-03-29T13:48:53.001Z</time></trkpt><trkpt lat="37.097407924113476" lon="14.33488787373886"><ele>44.0</ele><time>2026-03-29T13:48:54.001Z</time></trkpt><trkpt lat="37.09754723624476" lon="14.334780742221458"><ele>44.0</ele><time>2026-03-29T13:48:55.001Z</time></trkpt><trkpt lat="37.09768363510937" lon="14.334652887054022"><ele>42.666666666666664</ele><time>2026-03-29T13:48:56.001Z</time></trkpt><trkpt lat="37.09781529253351" lon="14.334504240520772"><ele>41.333333333333336</ele><time>2026-03-29T13:48:57.001Z</time></trkpt><trkpt lat="37.09795996918595" lon="14.334371980294002"><ele>40.0</ele><time>2026-03-29T13:48:58.001Z</time></trkpt><trkpt lat="37.09811321645395" lon="14.334252519683796"><ele>39.333333333333336</ele><time>2026-03-29T13:48:59.001Z</time></trkpt><trkpt lat="37.098254667618015" lon="14.334122859749483"><ele>38.666666666666664</ele><time>2026-03-29T13:49:00.001Z</time></trkpt><trkpt lat="37.0983946008741" lon="14.333994800214864"><ele>38.0</ele><time>2026-03-29T13:49:01.001Z</time></trkpt><trkpt lat="37.09853579391662" lon="14.333858559581227"><ele>36.666666666666664</ele><time>2026-03-29T13:49:02.001Z</time></trkpt><trkpt lat="37.09867067261466" lon="14.333701697449797"><ele>35.333333333333336</ele><time>2026-03-29T13:49:03.001Z</time></trkpt><trkpt lat="37.098792319059314" lon="14.333522644068625"><ele>34.0</ele><time>2026-03-29T13:49:04.001Z</time></trkpt><trkpt lat="37.098927861386386" lon="14.33336970427941"><ele>34.0</ele><time>2026-03-29T13:49:05.001Z</time></trkpt><trkpt lat="37.09905692503983" lon="14.333220240501124"><ele>34.0</ele><time>2026-03-29T13:49:06.001Z</time></trkpt><trkpt lat="37.099196264607954" lon="14.333090885805218"><ele>34.0</ele><time>2026-03-29T13:49:07.001Z</time></trkpt><trkpt lat="37.09932485054159" lon="14.332947007955514"><ele>34.0</ele><time>2026-03-29T13:49:08.001Z</time></trkpt><trkpt lat="37.0994497321018" lon="14.332807275000649"><ele>34.0</ele><time>2026-03-29T13:49:09.001Z</time></trkpt><trkpt lat="37.09958246354094" lon="14.33265875863662"><ele>34.0</ele><time>2026-03-29T13:49:10.001Z</time></trkpt><trkpt lat="37.09971174459421" lon="14.3325141029996"><ele>34.0</ele><time>2026-03-29T13:49:11.001Z</time></trkpt><trkpt lat="37.09983938908748" lon="14.332371278534307"><ele>34.0</ele><time>2026-03-29T13:49:12.001Z</time></trkpt><trkpt lat="37.09996669902309" lon="14.332228828420119"><ele>34.0</ele><time>2026-03-29T13:49:13.001Z</time></trkpt><trkpt lat="37.10009325960392" lon="14.332087216780277"><ele>33.66666666666667</ele><time>2026-03-29T13:49:14.001Z</time></trkpt><trkpt lat="37.1002183831467" lon="14.331947213069183"><ele>33.333333333333336</ele><time>2026-03-29T13:49:15.001Z</time></trkpt><trkpt lat="37.10034462027794" lon="14.33180596334429"><ele>33.0</ele><time>2026-03-29T13:49:16.001Z</time></trkpt><trkpt lat="37.100472231817356" lon="14.33166213689064"><ele>33.0</ele><time>2026-03-29T13:49:17.001Z</time></trkpt><trkpt lat="37.100594660181656" lon="14.331517165036605"><ele>33.0</ele><time>2026-03-29T13:49:18.001Z</time></trkpt><trkpt lat="37.1007159197508" lon="14.331373160080597"><ele>33.0</ele><time>2026-03-29T13:49:19.001Z</time></trkpt><trkpt lat="37.1008357616551" lon="14.331230201327164"><ele>33.0</ele><time>2026-03-29T13:49:20.001Z</time></trkpt><trkpt lat="37.10094849409468" lon="14.331067604083156"><ele>33.0</ele><time>2026-03-29T13:49:21.001Z</time></trkpt><trkpt lat="37.10107432632697" lon="14.330928321197513"><ele>33.0</ele><time>2026-03-29T13:49:22.001Z</time></trkpt><trkpt lat="37.10119909265795" lon="14.33078375356535"><ele>33.0</ele><time>2026-03-29T13:49:23.001Z</time></trkpt><trkpt lat="37.10131886340125" lon="14.330644413598613"><ele>33.0</ele><time>2026-03-29T13:49:24.001Z</time></trkpt><trkpt lat="37.10143860534032" lon="14.330509462686397"><ele>33.0</ele><time>2026-03-29T13:49:25.001Z</time></trkpt><trkpt lat="37.101558299103445" lon="14.330373267555796"><ele>33.0</ele><time>2026-03-29T13:49:26.001Z</time></trkpt><trkpt lat="37.10167910802063" lon="14.330238357314856"><ele>33.0</ele><time>2026-03-29T13:49:27.001Z</time></trkpt><trkpt lat="37.101798547555546" lon="14.330102486828173"><ele>33.0</ele><time>2026-03-29T13:49:28.001Z</time></trkpt><trkpt lat="37.101911149947306" lon="14.329972019714054"><ele>33.0</ele><time>2026-03-29T13:49:29.001Z</time></trkpt><trkpt lat="37.1020213854538" lon="14.329846919131526"><ele>33.0</ele><time>2026-03-29T13:49:30.001Z</time></trkpt><trkpt lat="37.10212759471887" lon="14.329725881290262"><ele>33.0</ele><time>2026-03-29T13:49:31.001Z</time></trkpt><trkpt lat="37.10223716143793" lon="14.32959860878079"><ele>33.0</ele><time>2026-03-29T13:49:32.001Z</time></trkpt><trkpt lat="37.1023478240068" lon="14.329472981429971"><ele>32.666666666666664</ele><time>2026-03-29T13:49:33.001Z</time></trkpt><trkpt lat="37.10246311172252" lon="14.329342762804897"><ele>32.33333333333333</ele><time>2026-03-29T13:49:34.001Z</time></trkpt><trkpt lat="37.102582483743866" lon="14.32920579719006"><ele>32.0</ele><time>2026-03-29T13:49:35.001Z</time></trkpt><trkpt lat="37.10272057975777" lon="14.329081579065436"><ele>32.0</ele><time>2026-03-29T13:49:36.001Z</time></trkpt><trkpt lat="37.10285316480806" lon="14.328938056757593"><ele>32.0</ele><time>2026-03-29T13:49:37.001Z</time></trkpt><trkpt lat="37.102991928541144" lon="14.328787686604905"><ele>32.0</ele><time>2026-03-29T13:49:38.001Z</time></trkpt><trkpt lat="37.1031240617181" lon="14.328643468614684"><ele>32.33333333333333</ele><time>2026-03-29T13:49:39.001Z</time></trkpt><trkpt lat="37.103249259319895" lon="14.328495220277297"><ele>32.666666666666664</ele><time>2026-03-29T13:49:40.001Z</time></trkpt><trkpt lat="37.10335309723557" lon="14.32834081238083"><ele>33.0</ele><time>2026-03-29T13:49:41.001Z</time></trkpt><trkpt lat="37.10347613475137" lon="14.328202280511519"><ele>33.0</ele><time>2026-03-29T13:49:42.002Z</time></trkpt><trkpt lat="37.10361081680843" lon="14.328084639713193"><ele>33.0</ele><time>2026-03-29T13:49:43.002Z</time></trkpt><trkpt lat="37.103749414416015" lon="14.32797657502984"><ele>33.0</ele><time>2026-03-29T13:49:44.002Z</time></trkpt><trkpt lat="37.10390496603981" lon="14.327890840856783"><ele>33.0</ele><time>2026-03-29T13:49:45.002Z</time></trkpt><trkpt lat="37.104068606905486" lon="14.327825508600084"><ele>33.0</ele><time>2026-03-29T13:49:46.002Z</time></trkpt><trkpt lat="37.104233314266615" lon="14.327769239759025"><ele>33.0</ele><time>2026-03-29T13:49:47.002Z</time></trkpt><trkpt lat="37.10439817061661" lon="14.327712793351113"><ele>32.666666666666664</ele><time>2026-03-29T13:49:48.002Z</time></trkpt><trkpt lat="37.10455335702734" lon="14.327644532619537"><ele>32.33333333333333</ele><time>2026-03-29T13:49:49.002Z</time></trkpt><trkpt lat="37.104706849126394" lon="14.327599114473076"><ele>32.0</ele><time>2026-03-29T13:49:50.002Z</time></trkpt><trkpt lat="37.10485837304525" lon="14.327555763910315"><ele>32.0</ele><time>2026-03-29T13:49:51.002Z</time></trkpt><trkpt lat="37.10501246773199" lon="14.327523765128161"><ele>32.0</ele><time>2026-03-29T13:49:52.002Z</time></trkpt><trkpt lat="37.10516044228898" lon="14.3274790284556"><ele>32.0</ele><time>2026-03-29T13:49:53.002Z</time></trkpt><trkpt lat="37.10530282441634" lon="14.327408069826658"><ele>32.0</ele><time>2026-03-29T13:49:54.002Z</time></trkpt><trkpt lat="37.105443227569594" lon="14.327351321142615"><ele>32.0</ele><time>2026-03-29T13:49:55.002Z</time></trkpt><trkpt lat="37.105580333881555" lon="14.32729201656904"><ele>32.0</ele><time>2026-03-29T13:49:56.002Z</time></trkpt><trkpt lat="37.10570225567529" lon="14.327174651953221"><ele>32.0</ele><time>2026-03-29T13:49:57.002Z</time></trkpt><trkpt lat="37.10580507474282" lon="14.327015318210819"><ele>31.666666666666664</ele><time>2026-03-29T13:49:58.002Z</time></trkpt><trkpt lat="37.105921695428634" lon="14.326859808487718"><ele>31.333333333333336</ele><time>2026-03-29T13:49:59.002Z</time></trkpt><trkpt lat="37.106050234742355" lon="14.326717233651198"><ele>31.0</ele><time>2026-03-29T13:50:00.002Z</time></trkpt><trkpt lat="37.10616344800041" lon="14.326566562228336"><ele>31.0</ele><time>2026-03-29T13:50:01.002Z</time></trkpt><trkpt lat="37.10627714653465" lon="14.326413186250235"><ele>31.0</ele><time>2026-03-29T13:50:02.002Z</time></trkpt><trkpt lat="37.10639273101647" lon="14.326257266153686"><ele>31.0</ele><time>2026-03-29T13:50:03.002Z</time></trkpt><trkpt lat="37.10650821500354" lon="14.326101729410516"><ele>31.666666666666668</ele><time>2026-03-29T13:50:04.002Z</time></trkpt><trkpt lat="37.106626279579565" lon="14.325941809518213"><ele>32.333333333333336</ele><time>2026-03-29T13:50:05.002Z</time></trkpt><trkpt lat="37.10674215425771" lon="14.325774842040518"><ele>33.0</ele><time>2026-03-29T13:50:06.002Z</time></trkpt><trkpt lat="37.10685573926403" lon="14.325599160805478"><ele>32.333333333333336</ele><time>2026-03-29T13:50:07.002Z</time></trkpt><trkpt lat="37.10696516171967" lon="14.325420875680903"><ele>31.666666666666668</ele><time>2026-03-29T13:50:08.002Z</time></trkpt><trkpt lat="37.107072739053855" lon="14.325246115962948"><ele>31.0</ele><time>2026-03-29T13:50:09.002Z</time></trkpt><trkpt lat="37.107183066162904" lon="14.325073962002152"><ele>31.0</ele><time>2026-03-29T13:50:10.002Z</time></trkpt><trkpt lat="37.10730175468635" lon="14.324894187860966"><ele>31.0</ele><time>2026-03-29T13:50:11.002Z</time></trkpt><trkpt lat="37.10742622824544" lon="14.324707606011467"><ele>31.0</ele><time>2026-03-29T13:50:12.002Z</time></trkpt><trkpt lat="37.1075490439643" lon="14.32452350922224"><ele>31.333333333333336</ele><time>2026-03-29T13:50:13.002Z</time></trkpt><trkpt lat="37.10766906628666" lon="14.324340272874764"><ele>31.666666666666664</ele><time>2026-03-29T13:50:14.002Z</time></trkpt><trkpt lat="37.10776667722725" lon="14.324147316061586"><ele>32.0</ele><time>2026-03-29T13:50:15.002Z</time></trkpt><trkpt lat="37.107877526746236" lon="14.323974637914334"><ele>32.0</ele><time>2026-03-29T13:50:16.001Z</time></trkpt><trkpt lat="37.1079865530568" lon="14.32380450917611"><ele>32.0</ele><time>2026-03-29T13:50:17.001Z</time></trkpt><trkpt lat="37.10809871072603" lon="14.323640397035515"><ele>32.0</ele><time>2026-03-29T13:50:18.001Z</time></trkpt><trkpt lat="37.10821844312065" lon="14.32348517788948"><ele>32.0</ele><time>2026-03-29T13:50:19.001Z</time></trkpt><trkpt lat="37.108351332103574" lon="14.323345115225402"><ele>32.0</ele><time>2026-03-29T13:50:20.001Z</time></trkpt><trkpt lat="37.10849728679622" lon="14.323222626331722"><ele>32.0</ele><time>2026-03-29T13:50:21.001Z</time></trkpt><trkpt lat="37.10865354613613" lon="14.323111109966566"><ele>31.666666666666664</ele><time>2026-03-29T13:50:22.001Z</time></trkpt><trkpt lat="37.108811961431904" lon="14.323005548040733"><ele>31.333333333333336</ele><time>2026-03-29T13:50:23.001Z</time></trkpt><trkpt lat="37.10896328535913" lon="14.322903261273282"><ele>31.0</ele><time>2026-03-29T13:50:24.001Z</time></trkpt><trkpt lat="37.10911203804688" lon="14.32280319473748"><ele>31.666666666666668</ele><time>2026-03-29T13:50:25.001Z</time></trkpt><trkpt lat="37.10926279425459" lon="14.322699856116195"><ele>32.333333333333336</ele><time>2026-03-29T13:50:26.001Z</time></trkpt><trkpt lat="37.109413151113536" lon="14.322595917400758"><ele>33.0</ele><time>2026-03-29T13:50:27.001Z</time></trkpt><trkpt lat="37.10956073945785" lon="14.322492725402713"><ele>33.0</ele><time>2026-03-29T13:50:28.001Z</time></trkpt><trkpt lat="37.10970609622684" lon="14.32240854832312"><ele>33.0</ele><time>2026-03-29T13:50:29.001Z</time></trkpt><trkpt lat="37.10983478607411" lon="14.32228211954549"><ele>33.0</ele><time>2026-03-29T13:50:30.001Z</time></trkpt><trkpt lat="37.10995630851926" lon="14.322144544752145"><ele>32.666666666666664</ele><time>2026-03-29T13:50:31.001Z</time></trkpt><trkpt lat="37.11007687205519" lon="14.321997063717221"><ele>32.33333333333333</ele><time>2026-03-29T13:50:32.001Z</time></trkpt><trkpt lat="37.11020373245586" lon="14.32183470841677"><ele>32.0</ele><time>2026-03-29T13:50:33.001Z</time></trkpt><trkpt lat="37.110318971404034" lon="14.32164983864151"><ele>32.0</ele><time>2026-03-29T13:50:34.001Z</time></trkpt><trkpt lat="37.11044121218969" lon="14.321470446961195"><ele>32.0</ele><time>2026-03-29T13:50:35.001Z</time></trkpt><trkpt lat="37.11057426143699" lon="14.321298896008225"><ele>32.0</ele><time>2026-03-29T13:50:36.001Z</time></trkpt><trkpt lat="37.11069013869285" lon="14.321107036224234"><ele>32.33333333333333</ele><time>2026-03-29T13:50:37.001Z</time></trkpt><trkpt lat="37.110799221654275" lon="14.320909239382981"><ele>32.666666666666664</ele><time>2026-03-29T13:50:38.001Z</time></trkpt><trkpt lat="37.110892526987" lon="14.320691992414275"><ele>33.0</ele><time>2026-03-29T13:50:39.001Z</time></trkpt><trkpt lat="37.111004041595486" lon="14.320476281161115"><ele>33.333333333333336</ele><time>2026-03-29T13:50:40.001Z</time></trkpt><trkpt lat="37.111105165158015" lon="14.320256003573"><ele>33.66666666666667</ele><time>2026-03-29T13:50:41.001Z</time></trkpt><trkpt lat="37.11119522550715" lon="14.320037277585904"><ele>34.0</ele><time>2026-03-29T13:50:42.001Z</time></trkpt><trkpt lat="37.11128208067673" lon="14.319823779963128"><ele>34.0</ele><time>2026-03-29T13:50:43.001Z</time></trkpt><trkpt lat="37.11136837889871" lon="14.319612357497125"><ele>34.0</ele><time>2026-03-29T13:50:44.001Z</time></trkpt><trkpt lat="37.11145383103746" lon="14.31940097008537"><ele>34.0</ele><time>2026-03-29T13:50:45.001Z</time></trkpt><trkpt lat="37.1115360813738" lon="14.319189270532418"><ele>34.0</ele><time>2026-03-29T13:50:46.001Z</time></trkpt><trkpt lat="37.111619018855905" lon="14.31897686607612"><ele>34.0</ele><time>2026-03-29T13:50:47.001Z</time></trkpt><trkpt lat="37.11169797324356" lon="14.318762087628345"><ele>34.0</ele><time>2026-03-29T13:50:48.001Z</time></trkpt><trkpt lat="37.111770832895274" lon="14.318543111476245"><ele>33.66666666666667</ele><time>2026-03-29T13:50:49.001Z</time></trkpt><trkpt lat="37.11184075215844" lon="14.318322425247406"><ele>33.333333333333336</ele><time>2026-03-29T13:50:50.001Z</time></trkpt><trkpt lat="37.111925974912175" lon="14.318107253581413"><ele>33.0</ele><time>2026-03-29T13:50:51.001Z</time></trkpt><trkpt lat="37.11198251764597" lon="14.317882476048565"><ele>33.0</ele><time>2026-03-29T13:50:52.001Z</time></trkpt><trkpt lat="37.11205091647709" lon="14.317673786144796"><ele>33.0</ele><time>2026-03-29T13:50:53.001Z</time></trkpt><trkpt lat="37.11211656631216" lon="14.317467865804328"><ele>33.0</ele><time>2026-03-29T13:50:54.001Z</time></trkpt><trkpt lat="37.11218176196215" lon="14.317260102434684"><ele>32.666666666666664</ele><time>2026-03-29T13:50:55.001Z</time></trkpt><trkpt lat="37.112247972636034" lon="14.317051905367483"><ele>32.33333333333333</ele><time>2026-03-29T13:50:56.001Z</time></trkpt><trkpt lat="37.11231349311002" lon="14.316846958239672"><ele>32.0</ele><time>2026-03-29T13:50:57.001Z</time></trkpt><trkpt lat="37.11238011327113" lon="14.316643773792698"><ele>32.666666666666664</ele><time>2026-03-29T13:50:58.001Z</time></trkpt><trkpt lat="37.112444101028075" lon="14.316436011082905"><ele>33.333333333333336</ele><time>2026-03-29T13:50:59.001Z</time></trkpt><trkpt lat="37.1125041049715" lon="14.316223808462924"><ele>34.0</ele><time>2026-03-29T13:51:00.001Z</time></trkpt><trkpt lat="37.11255772655088" lon="14.316004226327019"><ele>34.0</ele><time>2026-03-29T13:51:01.001Z</time></trkpt><trkpt lat="37.11259966162951" lon="14.31577903146356"><ele>34.0</ele><time>2026-03-29T13:51:02.001Z</time></trkpt><trkpt lat="37.11263314625145" lon="14.315548812723499"><ele>34.0</ele><time>2026-03-29T13:51:03.001Z</time></trkpt><trkpt lat="37.11265925017262" lon="14.315319642079734"><ele>34.66666666666667</ele><time>2026-03-29T13:51:04.001Z</time></trkpt><trkpt lat="37.112684104579884" lon="14.315092707246412"><ele>35.333333333333336</ele><time>2026-03-29T13:51:05.001Z</time></trkpt><trkpt lat="37.11272550013856" lon="14.314867524704733"><ele>36.0</ele><time>2026-03-29T13:51:06.001Z</time></trkpt><trkpt lat="37.11275573176892" lon="14.314641338407013"><ele>37.0</ele><time>2026-03-29T13:51:07.001Z</time></trkpt><trkpt lat="37.112786458434094" lon="14.314411448200019"><ele>38.0</ele><time>2026-03-29T13:51:08.001Z</time></trkpt><trkpt lat="37.11281897230906" lon="14.31417757964995"><ele>39.0</ele><time>2026-03-29T13:51:09.001Z</time></trkpt><trkpt lat="37.112840345290635" lon="14.313928697226588"><ele>39.333333333333336</ele><time>2026-03-29T13:51:10.001Z</time></trkpt><trkpt lat="37.11289117752626" lon="14.31367765143539"><ele>39.66666666666667</ele><time>2026-03-29T13:51:11.001Z</time></trkpt><trkpt lat="37.11294465215591" lon="14.313424490069682"><ele>40.0</ele><time>2026-03-29T13:51:12.001Z</time></trkpt><trkpt lat="37.11299721276818" lon="14.313181517033746"><ele>41.0</ele><time>2026-03-29T13:51:13.001Z</time></trkpt><trkpt lat="37.11304812188628" lon="14.312945963522676"><ele>42.0</ele><time>2026-03-29T13:51:14.001Z</time></trkpt><trkpt lat="37.11309500228146" lon="14.31272436284286"><ele>43.0</ele><time>2026-03-29T13:51:15.001Z</time></trkpt><trkpt lat="37.1131390727193" lon="14.312517209166245"><ele>43.0</ele><time>2026-03-29T13:51:16.001Z</time></trkpt><trkpt lat="37.11320682654769" lon="14.312337287869552"><ele>43.0</ele><time>2026-03-29T13:51:17.001Z</time></trkpt><trkpt lat="37.1132635538173" lon="14.312161507423243"><ele>43.0</ele><time>2026-03-29T13:51:18.001Z</time></trkpt><trkpt lat="37.11332290410871" lon="14.311990632320123"><ele>43.0</ele><time>2026-03-29T13:51:19.001Z</time></trkpt><trkpt lat="37.11338047052381" lon="14.311804743160284"><ele>43.0</ele><time>2026-03-29T13:51:20.001Z</time></trkpt><trkpt lat="37.113460521214364" lon="14.311635263753503"><ele>43.0</ele><time>2026-03-29T13:51:21.001Z</time></trkpt><trkpt lat="37.11354481987076" lon="14.311468818487564"><ele>41.66666666666667</ele><time>2026-03-29T13:51:22.001Z</time></trkpt><trkpt lat="37.11363928118668" lon="14.311304530968817"><ele>40.333333333333336</ele><time>2026-03-29T13:51:23.001Z</time></trkpt><trkpt lat="37.11373627052481" lon="14.311156710200018"><ele>39.0</ele><time>2026-03-29T13:51:24.001Z</time></trkpt><trkpt lat="37.11383590492288" lon="14.311021697415821"><ele>39.0</ele><time>2026-03-29T13:51:25.001Z</time></trkpt><trkpt lat="37.11393575129047" lon="14.31089003522945"><ele>39.0</ele><time>2026-03-29T13:51:26.001Z</time></trkpt><trkpt lat="37.11403123296707" lon="14.310767563750096"><ele>39.0</ele><time>2026-03-29T13:51:27.001Z</time></trkpt><trkpt lat="37.11412858897129" lon="14.310661216472159"><ele>39.0</ele><time>2026-03-29T13:51:28.001Z</time></trkpt><trkpt lat="37.114229910579105" lon="14.31057719095243"><ele>38.25</ele><time>2026-03-29T13:51:29.001Z</time></trkpt><trkpt lat="37.11433492727565" lon="14.310516338392816"><ele>37.5</ele><time>2026-03-29T13:51:30.001Z</time></trkpt><trkpt lat="37.11445772640875" lon="14.31051566563841"><ele>36.75</ele><time>2026-03-29T13:51:31.001Z</time></trkpt><trkpt lat="37.114583575131434" lon="14.310491280410847"><ele>36.0</ele><time>2026-03-29T13:51:32.001Z</time></trkpt><trkpt lat="37.1147098596201" lon="14.310448180272418"><ele>36.0</ele><time>2026-03-29T13:51:33.001Z</time></trkpt><trkpt lat="37.114835107430665" lon="14.310430516588536"><ele>36.0</ele><time>2026-03-29T13:51:34.001Z</time></trkpt><trkpt lat="37.114954257740386" lon="14.310413287811453"><ele>36.0</ele><time>2026-03-29T13:51:35.001Z</time></trkpt><trkpt lat="37.11507371185866" lon="14.31039338533241"><ele>36.0</ele><time>2026-03-29T13:51:36.001Z</time></trkpt><trkpt lat="37.115195243495116" lon="14.31037476576423"><ele>36.25</ele><time>2026-03-29T13:51:37.001Z</time></trkpt><trkpt lat="37.11531456539383" lon="14.3103575865243"><ele>36.5</ele><time>2026-03-29T13:51:38.001Z</time></trkpt><trkpt lat="37.115432878713285" lon="14.310336534292793"><ele>36.75</ele><time>2026-03-29T13:51:39.001Z</time></trkpt><trkpt lat="37.11555396822947" lon="14.310336839438154"><ele>37.0</ele><time>2026-03-29T13:51:40.001Z</time></trkpt><trkpt lat="37.115675935066236" lon="14.310319855557141"><ele>36.66666666666667</ele><time>2026-03-29T13:51:41.002Z</time></trkpt><trkpt lat="37.115817023311855" lon="14.310300209024735"><ele>36.333333333333336</ele><time>2026-03-29T13:51:42.002Z</time></trkpt><trkpt lat="37.11597452622834" lon="14.310278276746084"><ele>36.0</ele><time>2026-03-29T13:51:43.002Z</time></trkpt><trkpt lat="37.116138754637916" lon="14.310255271201294"><ele>36.0</ele><time>2026-03-29T13:51:44.002Z</time></trkpt><trkpt lat="37.11630544746505" lon="14.310231298924109"><ele>36.0</ele><time>2026-03-29T13:51:45.002Z</time></trkpt><trkpt lat="37.116467733703594" lon="14.310207960359953"><ele>36.0</ele><time>2026-03-29T13:51:46.002Z</time></trkpt><trkpt lat="37.11661947155543" lon="14.310185053932242"><ele>36.0</ele><time>2026-03-29T13:51:47.002Z</time></trkpt><trkpt lat="37.11676374538376" lon="14.31016259122966"><ele>36.0</ele><time>2026-03-29T13:51:48.002Z</time></trkpt><trkpt lat="37.11690671469856" lon="14.31014033162728"><ele>36.0</ele><time>2026-03-29T13:51:49.002Z</time></trkpt><trkpt lat="37.11704839581481" lon="14.310118272595835"><ele>36.0</ele><time>2026-03-29T13:51:50.002Z</time></trkpt><trkpt lat="37.11719281484954" lon="14.310095787289079"><ele>36.0</ele><time>2026-03-29T13:51:51.002Z</time></trkpt><trkpt lat="37.11733853073043" lon="14.310073100063194"><ele>36.0</ele><time>2026-03-29T13:51:52.002Z</time></trkpt><trkpt lat="37.117480876514534" lon="14.310050937537712"><ele>36.0</ele><time>2026-03-29T13:51:53.002Z</time></trkpt><trkpt lat="37.11762518884667" lon="14.310028468841278"><ele>36.0</ele><time>2026-03-29T13:51:54.002Z</time></trkpt><trkpt lat="37.11777460312611" lon="14.310005205778062"><ele>37.0</ele><time>2026-03-29T13:51:55.002Z</time></trkpt><trkpt lat="37.117929537119416" lon="14.309981083346699"><ele>38.0</ele><time>2026-03-29T13:51:56.002Z</time></trkpt><trkpt lat="37.118088642369685" lon="14.309956311749756"><ele>39.0</ele><time>2026-03-29T13:51:57.002Z</time></trkpt><trkpt lat="37.11824971444136" lon="14.309931299361729"><ele>39.0</ele><time>2026-03-29T13:51:58.002Z</time></trkpt><trkpt lat="37.11841097656166" lon="14.30990687194699"><ele>39.0</ele><time>2026-03-29T13:51:59.002Z</time></trkpt><trkpt lat="37.11857281420893" lon="14.309882357335027"><ele>39.0</ele><time>2026-03-29T13:52:00.002Z</time></trkpt><trkpt lat="37.11873358465853" lon="14.30985800441207"><ele>39.0</ele><time>2026-03-29T13:52:01.002Z</time></trkpt><trkpt lat="37.118895585094144" lon="14.30983553799645"><ele>39.0</ele><time>2026-03-29T13:52:02.002Z</time></trkpt><trkpt lat="37.119045426978495" lon="14.309814073408699"><ele>39.0</ele><time>2026-03-29T13:52:03.002Z</time></trkpt><trkpt lat="37.11918722492448" lon="14.309784438191686"><ele>39.0</ele><time>2026-03-29T13:52:04.002Z</time></trkpt><trkpt lat="37.1193196505067" lon="14.309739203469892"><ele>39.0</ele><time>2026-03-29T13:52:05.002Z</time></trkpt><trkpt lat="37.11943281843355" lon="14.309645620283508"><ele>39.0</ele><time>2026-03-29T13:52:06.002Z</time></trkpt><trkpt lat="37.1195081489034" lon="14.309518010759172"><ele>39.0</ele><time>2026-03-29T13:52:07.002Z</time></trkpt><trkpt lat="37.11960282443028" lon="14.309391417777167"><ele>39.0</ele><time>2026-03-29T13:52:08.002Z</time></trkpt><trkpt lat="37.11968365659221" lon="14.309230651660167"><ele>39.0</ele><time>2026-03-29T13:52:09.002Z</time></trkpt><trkpt lat="37.11975339493038" lon="14.309054722909089"><ele>39.0</ele><time>2026-03-29T13:52:10.002Z</time></trkpt><trkpt lat="37.119844268730276" lon="14.30888632703744"><ele>39.0</ele><time>2026-03-29T13:52:11.002Z</time></trkpt><trkpt lat="37.11995142418762" lon="14.308729470590343"><ele>39.0</ele><time>2026-03-29T13:52:12.002Z</time></trkpt><trkpt lat="37.120048147400404" lon="14.3085572318507"><ele>39.0</ele><time>2026-03-29T13:52:13.002Z</time></trkpt><trkpt lat="37.1201300565218" lon="14.30836571257812"><ele>39.0</ele><time>2026-03-29T13:52:14.002Z</time></trkpt><trkpt lat="37.120229614827096" lon="14.308192209799113"><ele>39.0</ele><time>2026-03-29T13:52:15.002Z</time></trkpt><trkpt lat="37.12033043119606" lon="14.308022097387402"><ele>39.0</ele><time>2026-03-29T13:52:16.002Z</time></trkpt><trkpt lat="37.120434049344716" lon="14.30786437869549"><ele>39.0</ele><time>2026-03-29T13:52:17.002Z</time></trkpt><trkpt lat="37.12054615471235" lon="14.307723860315013"><ele>39.0</ele><time>2026-03-29T13:52:18.002Z</time></trkpt><trkpt lat="37.12066816312741" lon="14.307599739373195"><ele>39.0</ele><time>2026-03-29T13:52:19.002Z</time></trkpt><trkpt lat="37.12079658659676" lon="14.30749250714177"><ele>39.0</ele><time>2026-03-29T13:52:20.002Z</time></trkpt><trkpt lat="37.12093910921638" lon="14.30741503399211"><ele>39.0</ele><time>2026-03-29T13:52:21.002Z</time></trkpt><trkpt lat="37.1210744204317" lon="14.307328615965137"><ele>39.0</ele><time>2026-03-29T13:52:22.001Z</time></trkpt><trkpt lat="37.12119622874172" lon="14.307249332485004"><ele>39.0</ele><time>2026-03-29T13:52:23.001Z</time></trkpt><trkpt lat="37.12130242146968" lon="14.307184839809384"><ele>39.25</ele><time>2026-03-29T13:52:24.001Z</time></trkpt><trkpt lat="37.12149243045777" lon="14.307090228826961"><ele>39.5</ele><time>2026-03-29T13:52:26.001Z</time></trkpt><trkpt lat="37.12157842756813" lon="14.307051544397487"><ele>39.75</ele><time>2026-03-29T13:52:27.001Z</time></trkpt><trkpt lat="37.12165995412937" lon="14.307016496826638"><ele>40.0</ele><time>2026-03-29T13:52:28.001Z</time></trkpt><trkpt lat="37.12173509573239" lon="14.30698521758564"><ele>40.0</ele><time>2026-03-29T13:52:29.001Z</time></trkpt><trkpt lat="37.12180611655385" lon="14.306957843481568"><ele>40.0</ele><time>2026-03-29T13:52:30.001Z</time></trkpt><trkpt lat="37.1218826936455" lon="14.306929092277862"><ele>40.0</ele><time>2026-03-29T13:52:31.001Z</time></trkpt><trkpt lat="37.121956856755084" lon="14.306905311159676"><ele>40.0</ele><time>2026-03-29T13:52:32.001Z</time></trkpt><trkpt lat="37.1220444773123" lon="14.306883528509463"><ele>40.0</ele><time>2026-03-29T13:52:33.001Z</time></trkpt><trkpt lat="37.12213650893126" lon="14.30686219315003"><ele>40.0</ele><time>2026-03-29T13:52:34.001Z</time></trkpt><trkpt lat="37.122234848703954" lon="14.306838388487542"><ele>40.0</ele><time>2026-03-29T13:52:35.001Z</time></trkpt><trkpt lat="37.12233852424184" lon="14.306810069907916"><ele>40.0</ele><time>2026-03-29T13:52:36.001Z</time></trkpt><trkpt lat="37.12244854790611" lon="14.306779162844332"><ele>40.0</ele><time>2026-03-29T13:52:37.001Z</time></trkpt><trkpt lat="37.12266175538963" lon="14.306655797464392"><ele>40.25</ele><time>2026-03-29T13:52:39.001Z</time></trkpt><trkpt lat="37.12276733941891" lon="14.306572352594381"><ele>40.5</ele><time>2026-03-29T13:52:40.001Z</time></trkpt><trkpt lat="37.12287135708799" lon="14.306480251451545"><ele>40.75</ele><time>2026-03-29T13:52:41.001Z</time></trkpt><trkpt lat="37.12297303229135" lon="14.306377535094414"><ele>41.0</ele><time>2026-03-29T13:52:42.001Z</time></trkpt><trkpt lat="37.12307271814711" lon="14.306268728086076"><ele>41.0</ele><time>2026-03-29T13:52:43.001Z</time></trkpt><trkpt lat="37.12315908226156" lon="14.306141165373074"><ele>41.0</ele><time>2026-03-29T13:52:44.001Z</time></trkpt><trkpt lat="37.12325554054516" lon="14.306022433186252"><ele>41.0</ele><time>2026-03-29T13:52:45.001Z</time></trkpt><trkpt lat="37.12335040740643" lon="14.305899180660502"><ele>41.0</ele><time>2026-03-29T13:52:46.001Z</time></trkpt><trkpt lat="37.12344708005255" lon="14.305774744054094"><ele>41.0</ele><time>2026-03-29T13:52:47.001Z</time></trkpt><trkpt lat="37.12355365956355" lon="14.305659883385605"><ele>41.0</ele><time>2026-03-29T13:52:48.001Z</time></trkpt><trkpt lat="37.12365104654628" lon="14.305532129720852"><ele>41.0</ele><time>2026-03-29T13:52:49.001Z</time></trkpt><trkpt lat="37.12374778181823" lon="14.305402778673242"><ele>41.0</ele><time>2026-03-29T13:52:50.001Z</time></trkpt><trkpt lat="37.12384135093311" lon="14.30527474545513"><ele>41.25</ele><time>2026-03-29T13:52:51.001Z</time></trkpt><trkpt lat="37.12393186283919" lon="14.305149555848464"><ele>41.5</ele><time>2026-03-29T13:52:52.001Z</time></trkpt><trkpt lat="37.1240091628312" lon="14.305013284936956"><ele>41.75</ele><time>2026-03-29T13:52:53.001Z</time></trkpt><trkpt lat="37.12410702962871" lon="14.304911986660496"><ele>42.0</ele><time>2026-03-29T13:52:54.001Z</time></trkpt><trkpt lat="37.12419062942455" lon="14.304802111880742"><ele>42.25</ele><time>2026-03-29T13:52:55.001Z</time></trkpt><trkpt lat="37.12434115078429" lon="14.304606855198713"><ele>42.5</ele><time>2026-03-29T13:52:57.001Z</time></trkpt><trkpt lat="37.12440660579421" lon="14.304521946985053"><ele>42.75</ele><time>2026-03-29T13:52:58.001Z</time></trkpt><trkpt lat="37.12446677895759" lon="14.304443090591725"><ele>43.0</ele><time>2026-03-29T13:52:59.001Z</time></trkpt><trkpt lat="37.124530237897936" lon="14.304358827766734"><ele>43.0</ele><time>2026-03-29T13:53:00.001Z</time></trkpt><trkpt lat="37.12458655535523" lon="14.304280980921037"><ele>43.0</ele><time>2026-03-29T13:53:01.001Z</time></trkpt><trkpt lat="37.12463659952878" lon="14.30421172972584"><ele>43.0</ele><time>2026-03-29T13:53:02.001Z</time></trkpt><trkpt lat="37.12468342977562" lon="14.30414619508671"><ele>43.0</ele><time>2026-03-29T13:53:03.001Z</time></trkpt><trkpt lat="37.12472573909954" lon="14.304087000466511"><ele>43.0</ele><time>2026-03-29T13:53:04.001Z</time></trkpt><trkpt lat="37.12478285102302" lon="14.30400709593028"><ele>43.0</ele><time>2026-03-29T13:53:06.001Z</time></trkpt><trkpt lat="37.12483231185666" lon="14.303912084253794"><ele>43.0</ele><time>2026-03-29T13:53:09.001Z</time></trkpt><trkpt lat="37.124884934915634" lon="14.303844751609786"><ele>43.0</ele><time>2026-03-29T13:53:12.001Z</time></trkpt><trkpt lat="37.124967866225255" lon="14.30376421759394"><ele>43.0</ele><time>2026-03-29T13:53:14.001Z</time></trkpt><trkpt lat="37.12501905485731" lon="14.303703915146778"><ele>43.0</ele><time>2026-03-29T13:53:15.001Z</time></trkpt><trkpt lat="37.12509919661429" lon="14.30363596096366"><ele>43.0</ele><time>2026-03-29T13:53:17.001Z</time></trkpt><trkpt lat="37.12503020821119" lon="14.30338325087023"><ele>43.0</ele><time>2026-03-29T13:53:23.001Z</time></trkpt><trkpt lat="37.1249532061476" lon="14.303286422133342"><ele>43.0</ele><time>2026-03-29T13:53:25.001Z</time></trkpt><trkpt lat="37.124867050038574" lon="14.303172147358046"><ele>43.0</ele><time>2026-03-29T13:53:27.001Z</time></trkpt><trkpt lat="37.1248220982733" lon="14.303107183812282"><ele>43.0</ele><time>2026-03-29T13:53:28.001Z</time></trkpt><trkpt lat="37.12476849476858" lon="14.303044454671882"><ele>43.0</ele><time>2026-03-29T13:53:29.001Z</time></trkpt><trkpt lat="37.124709235157795" lon="14.302973071288987"><ele>43.16666666666667</ele><time>2026-03-29T13:53:30.001Z</time></trkpt><trkpt lat="37.12465335872427" lon="14.302899485148354"><ele>43.333333333333336</ele><time>2026-03-29T13:53:31.001Z</time></trkpt><trkpt lat="37.12460090063112" lon="14.302831085524819"><ele>43.5</ele><time>2026-03-29T13:53:32.001Z</time></trkpt><trkpt lat="37.12454874167164" lon="14.30276223959949"><ele>43.666666666666664</ele><time>2026-03-29T13:53:33.001Z</time></trkpt><trkpt lat="37.124491712061484" lon="14.302685627366667"><ele>43.83333333333333</ele><time>2026-03-29T13:53:34.001Z</time></trkpt><trkpt lat="37.12443212593378" lon="14.30261145897383"><ele>44.0</ele><time>2026-03-29T13:53:35.001Z</time></trkpt><trkpt lat="37.12437567877553" lon="14.302535697421495"><ele>44.0</ele><time>2026-03-29T13:53:36.001Z</time></trkpt><trkpt lat="37.124308606392475" lon="14.302447778125734"><ele>44.0</ele><time>2026-03-29T13:53:37.001Z</time></trkpt><trkpt lat="37.1242459196314" lon="14.302367111569149"><ele>44.0</ele><time>2026-03-29T13:53:38.001Z</time></trkpt><trkpt lat="37.124189097924514" lon="14.302294873652018"><ele>44.0</ele><time>2026-03-29T13:53:39.001Z</time></trkpt><trkpt lat="37.12412241005233" lon="14.302216606125123"><ele>44.0</ele><time>2026-03-29T13:53:40.001Z</time></trkpt><trkpt lat="37.124055384978206" lon="14.30213390020514"><ele>43.5</ele><time>2026-03-29T13:53:41.001Z</time></trkpt><trkpt lat="37.123989829136754" lon="14.302050801312387"><ele>43.0</ele><time>2026-03-29T13:53:42.001Z</time></trkpt><trkpt lat="37.12392852605585" lon="14.301977069637198"><ele>42.5</ele><time>2026-03-29T13:53:43.001Z</time></trkpt><trkpt lat="37.12386694289035" lon="14.30189811481966"><ele>42.0</ele><time>2026-03-29T13:53:44.001Z</time></trkpt><trkpt lat="37.123804578846276" lon="14.301821931571542"><ele>41.5</ele><time>2026-03-29T13:53:45.001Z</time></trkpt><trkpt lat="37.12374242480245" lon="14.301743514722926"><ele>41.0</ele><time>2026-03-29T13:53:46.001Z</time></trkpt><trkpt lat="37.12368259755188" lon="14.301671201479397"><ele>41.0</ele><time>2026-03-29T13:53:47.001Z</time></trkpt><trkpt lat="37.123620845265016" lon="14.301595408059192"><ele>41.0</ele><time>2026-03-29T13:53:48.001Z</time></trkpt><trkpt lat="37.12355659237497" lon="14.30151754636183"><ele>41.0</ele><time>2026-03-29T13:53:49.001Z</time></trkpt><trkpt lat="37.123493579358275" lon="14.301437748711882"><ele>41.0</ele><time>2026-03-29T13:53:50.001Z</time></trkpt><trkpt lat="37.12342566653843" lon="14.30135556829393"><ele>41.0</ele><time>2026-03-29T13:53:51.001Z</time></trkpt><trkpt lat="37.12335655887746" lon="14.301272197067792"><ele>41.33333333333333</ele><time>2026-03-29T13:53:52.001Z</time></trkpt><trkpt lat="37.12329496543383" lon="14.30119301242151"><ele>41.666666666666664</ele><time>2026-03-29T13:53:53.001Z</time></trkpt><trkpt lat="37.12323804721332" lon="14.301105965272486"><ele>42.0</ele><time>2026-03-29T13:53:54.001Z</time></trkpt><trkpt lat="37.12318690952577" lon="14.301015863984066"><ele>42.333333333333336</ele><time>2026-03-29T13:53:55.001Z</time></trkpt><trkpt lat="37.12313003537379" lon="14.300928875498874"><ele>42.66666666666667</ele><time>2026-03-29T13:53:56.001Z</time></trkpt><trkpt lat="37.1230753133724" lon="14.300840001720832"><ele>43.0</ele><time>2026-03-29T13:53:57.001Z</time></trkpt><trkpt lat="37.123020994213945" lon="14.30074280467572"><ele>42.4</ele><time>2026-03-29T13:53:58.002Z</time></trkpt><trkpt lat="37.12296570447148" lon="14.300649748021673"><ele>41.8</ele><time>2026-03-29T13:53:59.002Z</time></trkpt><trkpt lat="37.122911162175306" lon="14.300556528555779"><ele>41.2</ele><time>2026-03-29T13:54:00.002Z</time></trkpt><trkpt lat="37.12286293025871" lon="14.300456258947701"><ele>40.6</ele><time>2026-03-29T13:54:01.002Z</time></trkpt><trkpt lat="37.122815750472476" lon="14.30035732591961"><ele>40.0</ele><time>2026-03-29T13:54:02.002Z</time></trkpt><trkpt lat="37.12276911352686" lon="14.300249174507675"><ele>40.0</ele><time>2026-03-29T13:54:03.002Z</time></trkpt><trkpt lat="37.12272625687678" lon="14.30015739492075"><ele>40.0</ele><time>2026-03-29T13:54:04.002Z</time></trkpt><trkpt lat="37.12269773149791" lon="14.300071235492387"><ele>40.0</ele><time>2026-03-29T13:54:05.002Z</time></trkpt><trkpt lat="37.12266744878334" lon="14.299996636700667"><ele>40.0</ele><time>2026-03-29T13:54:06.002Z</time></trkpt><trkpt lat="37.122638133759885" lon="14.299926671895902"><ele>40.0</ele><time>2026-03-29T13:54:07.002Z</time></trkpt><trkpt lat="37.122591749670846" lon="14.29981175068844"><ele>40.0</ele><time>2026-03-29T13:54:09.002Z</time></trkpt><trkpt lat="37.12254403762346" lon="14.29971653928931"><ele>40.0</ele><time>2026-03-29T13:54:11.002Z</time></trkpt><trkpt lat="37.12251554392653" lon="14.299620305660158"><ele>40.0</ele><time>2026-03-29T13:54:13.002Z</time></trkpt><trkpt lat="37.12249482335562" lon="14.29948212250159"><ele>40.0</ele><time>2026-03-29T13:54:15.002Z</time></trkpt><trkpt lat="37.122439763551945" lon="14.299396534413313"><ele>40.0</ele><time>2026-03-29T13:54:17.002Z</time></trkpt><trkpt lat="37.122395771172116" lon="14.299332232643625"><ele>40.0</ele><time>2026-03-29T13:54:20.002Z</time></trkpt><trkpt lat="37.122341511987756" lon="14.299265140139703"><ele>40.0</ele><time>2026-03-29T13:54:22.002Z</time></trkpt><trkpt lat="37.122261067906194" lon="14.299181770694169"><ele>40.0</ele><time>2026-03-29T13:54:24.002Z</time></trkpt><trkpt lat="37.122181805616975" lon="14.29912020484759"><ele>40.0</ele><time>2026-03-29T13:54:26.002Z</time></trkpt><trkpt lat="37.12211765061189" lon="14.299068566488938"><ele>40.0</ele><time>2026-03-29T13:54:28.001Z</time></trkpt><trkpt lat="37.122048438212545" lon="14.29899485571741"><ele>40.0</ele><time>2026-03-29T13:54:30.001Z</time></trkpt><trkpt lat="37.121977901772354" lon="14.29894459193445"><ele>40.0</ele><time>2026-03-29T13:54:32.001Z</time></trkpt><trkpt lat="37.12186594935205" lon="14.298852174367163"><ele>40.0</ele><time>2026-03-29T13:54:34.001Z</time></trkpt><trkpt lat="37.12180959329468" lon="14.298797140372768"><ele>40.0</ele><time>2026-03-29T13:54:35.001Z</time></trkpt><trkpt lat="37.121753558636186" lon="14.298741794476468"><ele>40.0</ele><time>2026-03-29T13:54:36.001Z</time></trkpt><trkpt lat="37.12169931177497" lon="14.298695188217629"><ele>40.0</ele><time>2026-03-29T13:54:37.001Z</time></trkpt><trkpt lat="37.12160849024642" lon="14.298605296670384"><ele>40.0</ele><time>2026-03-29T13:54:39.001Z</time></trkpt><trkpt lat="37.12155270946135" lon="14.298564770217148"><ele>40.0</ele><time>2026-03-29T13:54:41.001Z</time></trkpt><trkpt lat="37.121500533638645" lon="14.298511267659768"><ele>40.0</ele><time>2026-03-29T13:54:53.001Z</time></trkpt><trkpt lat="37.12142324537387" lon="14.298448855729918"><ele>40.0</ele><time>2026-03-29T13:56:39.001Z</time></trkpt><trkpt lat="37.1213517863971" lon="14.298395844491218"><ele>40.0</ele><time>2026-03-29T13:56:41.001Z</time></trkpt><trkpt lat="37.1213517863971" lon="14.298395844491218"><ele>40.0</ele><time>2026-03-29T13:56:41.001Z</time></trkpt><trkpt lat="37.1213517863971" lon="14.298395844491218"><ele>40.0</ele><time>2026-03-29T13:56:41.001Z</time></trkpt><trkpt lat="37.1213517863971" lon="14.298395844491218"><ele>40.0</ele><time>2026-03-29T13:56:41.001Z</time></trkpt><trkpt lat="37.1213517863971" lon="14.298395844491218"><ele>40.0</ele><time>2026-03-29T13:56:41.001Z</time></trkpt><trkpt lat="37.1213517863971" lon="14.298395844491218"><ele>40.0</ele><time>2026-03-29T13:56:41.001Z</time></trkpt></trkseg><trkseg><trkpt lat="37.12127273869711" lon="14.298314318271684"><ele>40.0</ele><time>2026-03-29T14:09:59Z</time></trkpt><trkpt lat="37.12121659081053" lon="14.298273186120783"><ele>40.0</ele><time>2026-03-29T14:10:01Z</time></trkpt><trkpt lat="37.12115538102458" lon="14.29819743525429"><ele>40.0</ele><time>2026-03-29T14:10:04Z</time></trkpt><trkpt lat="37.12115831926801" lon="14.298106807728502"><ele>40.0</ele><time>2026-03-29T14:10:06Z</time></trkpt><trkpt lat="37.1211937338653" lon="14.298017264140045"><ele>40.0</ele><time>2026-03-29T14:10:08Z</time></trkpt><trkpt lat="37.12121415293418" lon="14.297890280661187"><ele>40.0</ele><time>2026-03-29T14:10:10Z</time></trkpt><trkpt lat="37.12121570181905" lon="14.297796077031549"><ele>39.0</ele><time>2026-03-29T14:10:11Z</time></trkpt><trkpt lat="37.12121231710535" lon="14.297651858931074"><ele>38.0</ele><time>2026-03-29T14:10:13Z</time></trkpt><trkpt lat="37.12126264216036" lon="14.29755277561388"><ele>37.0</ele><time>2026-03-29T14:10:15Z</time></trkpt><trkpt lat="37.121291612385924" lon="14.297456656238097"><ele>36.0</ele><time>2026-03-29T14:10:17Z</time></trkpt><trkpt lat="37.12134971699906" lon="14.29736282239946"><ele>35.0</ele><time>2026-03-29T14:10:19Z</time></trkpt><trkpt lat="37.12144811716339" lon="14.297280001807403"><ele>35.0</ele><time>2026-03-29T14:10:21Z</time></trkpt><trkpt lat="37.12151322479221" lon="14.297254435804394"><ele>35.0</ele><time>2026-03-29T14:10:22Z</time></trkpt><trkpt lat="37.12159096620298" lon="14.297224751326604"><ele>35.0</ele><time>2026-03-29T14:10:23Z</time></trkpt><trkpt lat="37.12168314279295" lon="14.297182319227247"><ele>35.0</ele><time>2026-03-29T14:10:24Z</time></trkpt><trkpt lat="37.12177382997267" lon="14.297133640235534"><ele>35.0</ele><time>2026-03-29T14:10:25Z</time></trkpt><trkpt lat="37.121849265131466" lon="14.29707979305737"><ele>35.0</ele><time>2026-03-29T14:10:26Z</time></trkpt><trkpt lat="37.12190962436573" lon="14.297018559987578"><ele>35.666666666666664</ele><time>2026-03-29T14:10:27Z</time></trkpt><trkpt lat="37.12196937804218" lon="14.296984046505159"><ele>36.33333333333333</ele><time>2026-03-29T14:10:28Z</time></trkpt><trkpt lat="37.12204861651063" lon="14.296933772850858"><ele>37.0</ele><time>2026-03-29T14:10:30Z</time></trkpt><trkpt lat="37.12210146642007" lon="14.296875678333105"><ele>37.666666666666664</ele><time>2026-03-29T14:10:31Z</time></trkpt><trkpt lat="37.12218639728994" lon="14.296827287016113"><ele>38.333333333333336</ele><time>2026-03-29T14:10:32Z</time></trkpt><trkpt lat="37.12228372573366" lon="14.296759644192761"><ele>39.0</ele><time>2026-03-29T14:10:33Z</time></trkpt><trkpt lat="37.122382179135705" lon="14.296693974058801"><ele>39.8</ele><time>2026-03-29T14:10:34Z</time></trkpt><trkpt lat="37.122482961683005" lon="14.29662839255632"><ele>40.599999999999994</ele><time>2026-03-29T14:10:35Z</time></trkpt><trkpt lat="37.12257754396089" lon="14.296570602114082"><ele>41.4</ele><time>2026-03-29T14:10:36Z</time></trkpt><trkpt lat="37.1226592161943" lon="14.296520592241162"><ele>42.199999999999996</ele><time>2026-03-29T14:10:37Z</time></trkpt><trkpt lat="37.12271859244443" lon="14.29647889471143"><ele>43.0</ele><time>2026-03-29T14:10:38Z</time></trkpt><trkpt lat="37.122814102620005" lon="14.296409923442768"><ele>43.4</ele><time>2026-03-29T14:10:40Z</time></trkpt><trkpt lat="37.12287886866495" lon="14.2963693460656"><ele>43.8</ele><time>2026-03-29T14:10:43Z</time></trkpt><trkpt lat="37.122849438943696" lon="14.29617925729964"><ele>44.2</ele><time>2026-03-29T14:10:56.001Z</time></trkpt><trkpt lat="37.12278650802414" lon="14.296092011447296"><ele>44.6</ele><time>2026-03-29T14:10:57.001Z</time></trkpt><trkpt lat="37.1226985061331" lon="14.295990000216598"><ele>45.0</ele><time>2026-03-29T14:10:58.001Z</time></trkpt><trkpt lat="37.122604692606735" lon="14.295876321001977"><ele>45.0</ele><time>2026-03-29T14:10:59.001Z</time></trkpt><trkpt lat="37.1225017891683" lon="14.295746172755345"><ele>45.0</ele><time>2026-03-29T14:11:00.001Z</time></trkpt><trkpt lat="37.12239006716477" lon="14.295604673518486"><ele>45.0</ele><time>2026-03-29T14:11:01.001Z</time></trkpt><trkpt lat="37.12226997987688" lon="14.295447946901842"><ele>44.333333333333336</ele><time>2026-03-29T14:11:02.001Z</time></trkpt><trkpt lat="37.12214860060003" lon="14.295286419454042"><ele>43.66666666666667</ele><time>2026-03-29T14:11:03.001Z</time></trkpt><trkpt lat="37.122020086099646" lon="14.295112662409055"><ele>43.0</ele><time>2026-03-29T14:11:04.001Z</time></trkpt><trkpt lat="37.12188878899137" lon="14.294932598253327"><ele>42.66666666666667</ele><time>2026-03-29T14:11:05.001Z</time></trkpt><trkpt lat="37.12175399372067" lon="14.294747714192031"><ele>42.333333333333336</ele><time>2026-03-29T14:11:06.001Z</time></trkpt><trkpt lat="37.12161318862208" lon="14.294560942159809"><ele>42.0</ele><time>2026-03-29T14:11:07.001Z</time></trkpt><trkpt lat="37.12147027738157" lon="14.29437135730563"><ele>42.0</ele><time>2026-03-29T14:11:08.001Z</time></trkpt><trkpt lat="37.12132760473275" lon="14.294178322596593"><ele>42.0</ele><time>2026-03-29T14:11:09.001Z</time></trkpt><trkpt lat="37.121185473575416" lon="14.293985614472232"><ele>42.0</ele><time>2026-03-29T14:11:10.001Z</time></trkpt><trkpt lat="37.12104263489038" lon="14.293793626586657"><ele>41.666666666666664</ele><time>2026-03-29T14:11:11.001Z</time></trkpt><trkpt lat="37.12090156757292" lon="14.293604041622046"><ele>41.33333333333333</ele><time>2026-03-29T14:11:12.001Z</time></trkpt><trkpt lat="37.12076348191051" lon="14.293417013129057"><ele>41.0</ele><time>2026-03-29T14:11:13.001Z</time></trkpt><trkpt lat="37.12062563957958" lon="14.293231311704979"><ele>41.33333333333333</ele><time>2026-03-29T14:11:14.001Z</time></trkpt><trkpt lat="37.12048872051406" lon="14.29304732714888"><ele>41.666666666666664</ele><time>2026-03-29T14:11:15.001Z</time></trkpt><trkpt lat="37.120353925845755" lon="14.292862824223866"><ele>42.0</ele><time>2026-03-29T14:11:15.999Z</time></trkpt><trkpt lat="37.120223032443796" lon="14.292678901822613"><ele>42.0</ele><time>2026-03-29T14:11:16.999Z</time></trkpt><trkpt lat="37.120097376094314" lon="14.292495912237294"><ele>42.0</ele><time>2026-03-29T14:11:17.999Z</time></trkpt><trkpt lat="37.119978937651965" lon="14.292312043909648"><ele>42.0</ele><time>2026-03-29T14:11:18.999Z</time></trkpt><trkpt lat="37.119873441391505" lon="14.29212612028789"><ele>41.0</ele><time>2026-03-29T14:11:19.999Z</time></trkpt><trkpt lat="37.11978172457646" lon="14.29193196564395"><ele>40.0</ele><time>2026-03-29T14:11:20.999Z</time></trkpt><trkpt lat="37.11969722812515" lon="14.291722737943356"><ele>39.0</ele><time>2026-03-29T14:11:21.999Z</time></trkpt><trkpt lat="37.11961666623837" lon="14.291501580808804"><ele>39.0</ele><time>2026-03-29T14:11:22.999Z</time></trkpt><trkpt lat="37.11954353977756" lon="14.291273700630127"><ele>39.0</ele><time>2026-03-29T14:11:23.999Z</time></trkpt><trkpt lat="37.11947882803587" lon="14.291064225022533"><ele>39.0</ele><time>2026-03-29T14:11:24.999Z</time></trkpt><trkpt lat="37.11942375668181" lon="14.290872501568602"><ele>39.0</ele><time>2026-03-29T14:11:25.999Z</time></trkpt><trkpt lat="37.11937090334282" lon="14.290693298470073"><ele>39.0</ele><time>2026-03-29T14:11:26.999Z</time></trkpt><trkpt lat="37.11931859524093" lon="14.290517667547162"><ele>39.0</ele><time>2026-03-29T14:11:27.999Z</time></trkpt><trkpt lat="37.11926289857632" lon="14.290328395545794"><ele>38.75</ele><time>2026-03-29T14:11:28.999Z</time></trkpt><trkpt lat="37.11920845183888" lon="14.290150247446528"><ele>38.5</ele><time>2026-03-29T14:11:29.999Z</time></trkpt><trkpt lat="37.11915755699691" lon="14.289987531436147"><ele>38.25</ele><time>2026-03-29T14:11:30.999Z</time></trkpt><trkpt lat="37.11911014982703" lon="14.289838911694769"><ele>38.0</ele><time>2026-03-29T14:11:31.999Z</time></trkpt><trkpt lat="37.11906856325968" lon="14.289703318640754"><ele>37.666666666666664</ele><time>2026-03-29T14:11:32.999Z</time></trkpt><trkpt lat="37.11903559138216" lon="14.289583696187359"><ele>37.33333333333333</ele><time>2026-03-29T14:11:33.999Z</time></trkpt><trkpt lat="37.119012578886554" lon="14.289477197651228"><ele>37.0</ele><time>2026-03-29T14:11:34.999Z</time></trkpt><trkpt lat="37.11901208677192" lon="14.289377210095425"><ele>36.666666666666664</ele><time>2026-03-29T14:11:35.999Z</time></trkpt><trkpt lat="37.11903578166747" lon="14.289284719834596"><ele>36.333333333333336</ele><time>2026-03-29T14:11:36.999Z</time></trkpt><trkpt lat="37.11908215269348" lon="14.289197997587618"><ele>36.0</ele><time>2026-03-29T14:11:37.999Z</time></trkpt><trkpt lat="37.11915927122689" lon="14.28913447421445"><ele>36.0</ele><time>2026-03-29T14:11:38.999Z</time></trkpt><trkpt lat="37.1192530764447" lon="14.289102369556982"><ele>36.0</ele><time>2026-03-29T14:11:39.999Z</time></trkpt><trkpt lat="37.11936779370668" lon="14.289131737356133"><ele>36.0</ele><time>2026-03-29T14:11:40.999Z</time></trkpt><trkpt lat="37.11949940785492" lon="14.289122156871013"><ele>36.0</ele><time>2026-03-29T14:11:41.999Z</time></trkpt><trkpt lat="37.11964506445944" lon="14.289142282800627"><ele>36.0</ele><time>2026-03-29T14:11:42.999Z</time></trkpt><trkpt lat="37.119811199893725" lon="14.28915800950023"><ele>36.0</ele><time>2026-03-29T14:11:43.999Z</time></trkpt><trkpt lat="37.11997973094139" lon="14.289171522419636"><ele>36.0</ele><time>2026-03-29T14:11:44.999Z</time></trkpt><trkpt lat="37.12015337436903" lon="14.289187626524198"><ele>37.0</ele><time>2026-03-29T14:11:45.999Z</time></trkpt><trkpt lat="37.120317639757594" lon="14.289198548908242"><ele>38.0</ele><time>2026-03-29T14:11:46.999Z</time></trkpt><trkpt lat="37.120464591455004" lon="14.289208998162595"><ele>39.0</ele><time>2026-03-29T14:11:47.999Z</time></trkpt><trkpt lat="37.12060302534589" lon="14.289206751953762"><ele>39.0</ele><time>2026-03-29T14:11:48.999Z</time></trkpt><trkpt lat="37.12073038285545" lon="14.289179130334414"><ele>39.0</ele><time>2026-03-29T14:11:49.999Z</time></trkpt><trkpt lat="37.12084802046736" lon="14.289118473407505"><ele>39.0</ele><time>2026-03-29T14:11:50.999Z</time></trkpt><trkpt lat="37.12094545527177" lon="14.2890156433663"><ele>39.0</ele><time>2026-03-29T14:11:51.999Z</time></trkpt><trkpt lat="37.12101460888712" lon="14.288877347546054"><ele>40.0</ele><time>2026-03-29T14:11:52.999Z</time></trkpt><trkpt lat="37.12104529981069" lon="14.288723446237473"><ele>41.0</ele><time>2026-03-29T14:11:54Z</time></trkpt><trkpt lat="37.12104600660809" lon="14.288557462191264"><ele>42.0</ele><time>2026-03-29T14:11:55Z</time></trkpt><trkpt lat="37.121029047466415" lon="14.288377027482866"><ele>43.0</ele><time>2026-03-29T14:11:56Z</time></trkpt><trkpt lat="37.121006356806504" lon="14.2881827312073"><ele>43.333333333333336</ele><time>2026-03-29T14:11:57Z</time></trkpt><trkpt lat="37.12098188142428" lon="14.287971447335456"><ele>43.666666666666664</ele><time>2026-03-29T14:11:58Z</time></trkpt><trkpt lat="37.120954321150215" lon="14.287743840691109"><ele>44.0</ele><time>2026-03-29T14:11:59Z</time></trkpt><trkpt lat="37.120928087974015" lon="14.28750459581023"><ele>44.0</ele><time>2026-03-29T14:12:00Z</time></trkpt><trkpt lat="37.12090197805358" lon="14.287261831371167"><ele>44.0</ele><time>2026-03-29T14:12:01Z</time></trkpt><trkpt lat="37.1208770796982" lon="14.287018537671909"><ele>44.0</ele><time>2026-03-29T14:12:02Z</time></trkpt><trkpt lat="37.12085124181728" lon="14.286773511339284"><ele>44.0</ele><time>2026-03-29T14:12:03Z</time></trkpt><trkpt lat="37.12082058689022" lon="14.28653020766647"><ele>44.0</ele><time>2026-03-29T14:12:04Z</time></trkpt><trkpt lat="37.120780567914444" lon="14.286290462791133"><ele>44.0</ele><time>2026-03-29T14:12:05Z</time></trkpt><trkpt lat="37.12073076547742" lon="14.286053750369259"><ele>42.33333333333333</ele><time>2026-03-29T14:12:06Z</time></trkpt><trkpt lat="37.12067911138295" lon="14.285822243817156"><ele>40.666666666666664</ele><time>2026-03-29T14:12:07Z</time></trkpt><trkpt lat="37.12063000844422" lon="14.285603690143542"><ele>39.0</ele><time>2026-03-29T14:12:08Z</time></trkpt><trkpt lat="37.12059405906228" lon="14.285393892221702"><ele>39.0</ele><time>2026-03-29T14:12:09Z</time></trkpt><trkpt lat="37.12058597316784" lon="14.285190892823387"><ele>39.0</ele><time>2026-03-29T14:12:10Z</time></trkpt><trkpt lat="37.12060294983244" lon="14.28497984597086"><ele>39.0</ele><time>2026-03-29T14:12:11Z</time></trkpt><trkpt lat="37.120638215427824" lon="14.284765438900296"><ele>39.0</ele><time>2026-03-29T14:12:12Z</time></trkpt><trkpt lat="37.12068869788019" lon="14.284559184331197"><ele>39.0</ele><time>2026-03-29T14:12:13Z</time></trkpt><trkpt lat="37.12075956064454" lon="14.28435328935298"><ele>39.0</ele><time>2026-03-29T14:12:14Z</time></trkpt><trkpt lat="37.12084845425001" lon="14.284147311593749"><ele>40.333333333333336</ele><time>2026-03-29T14:12:15Z</time></trkpt><trkpt lat="37.1209436217339" lon="14.28394261147891"><ele>41.66666666666667</ele><time>2026-03-29T14:12:16Z</time></trkpt><trkpt lat="37.12103494035395" lon="14.283737300809372"><ele>43.0</ele><time>2026-03-29T14:12:17Z</time></trkpt><trkpt lat="37.12111760832715" lon="14.283533215374966"><ele>43.0</ele><time>2026-03-29T14:12:18Z</time></trkpt><trkpt lat="37.12118902983224" lon="14.283330169264627"><ele>43.0</ele><time>2026-03-29T14:12:19Z</time></trkpt><trkpt lat="37.121256063682225" lon="14.283124651139543"><ele>43.0</ele><time>2026-03-29T14:12:20Z</time></trkpt><trkpt lat="37.121317441288106" lon="14.282921145623892"><ele>42.333333333333336</ele><time>2026-03-29T14:12:21Z</time></trkpt><trkpt lat="37.12137639450579" lon="14.282714961982224"><ele>41.666666666666664</ele><time>2026-03-29T14:12:22Z</time></trkpt><trkpt lat="37.121433772961616" lon="14.282508362223211"><ele>41.0</ele><time>2026-03-29T14:12:23Z</time></trkpt><trkpt lat="37.12149178934395" lon="14.282298779586096"><ele>41.0</ele><time>2026-03-29T14:12:24Z</time></trkpt><trkpt lat="37.12155051636047" lon="14.282083780908128"><ele>41.0</ele><time>2026-03-29T14:12:25Z</time></trkpt><trkpt lat="37.121610541020814" lon="14.281857640703256"><ele>41.0</ele><time>2026-03-29T14:12:26Z</time></trkpt><trkpt lat="37.12166708538408" lon="14.281630429130429"><ele>42.33333333333333</ele><time>2026-03-29T14:12:27Z</time></trkpt><trkpt lat="37.121718915447026" lon="14.281399198737319"><ele>43.666666666666664</ele><time>2026-03-29T14:12:28Z</time></trkpt><trkpt lat="37.121769088070856" lon="14.28116707805794"><ele>45.0</ele><time>2026-03-29T14:12:29Z</time></trkpt><trkpt lat="37.12182185019615" lon="14.28093512694582"><ele>45.0</ele><time>2026-03-29T14:12:30Z</time></trkpt><trkpt lat="37.1218758785107" lon="14.280703500976843"><ele>45.0</ele><time>2026-03-29T14:12:31Z</time></trkpt><trkpt lat="37.12192627966544" lon="14.280471541718983"><ele>45.0</ele><time>2026-03-29T14:12:32Z</time></trkpt><trkpt lat="37.121977510989915" lon="14.280232970598094"><ele>45.0</ele><time>2026-03-29T14:12:33Z</time></trkpt><trkpt lat="37.122028606189765" lon="14.279987514615762"><ele>45.0</ele><time>2026-03-29T14:12:34Z</time></trkpt><trkpt lat="37.12207837105191" lon="14.279743911235029"><ele>45.0</ele><time>2026-03-29T14:12:35Z</time></trkpt><trkpt lat="37.12211713109895" lon="14.279501289455993"><ele>45.0</ele><time>2026-03-29T14:12:36Z</time></trkpt><trkpt lat="37.12215038340719" lon="14.279258131658683"><ele>45.0</ele><time>2026-03-29T14:12:37Z</time></trkpt><trkpt lat="37.12218314286939" lon="14.279016565113448"><ele>45.0</ele><time>2026-03-29T14:12:38Z</time></trkpt><trkpt lat="37.1222183824932" lon="14.278776019525166"><ele>45.0</ele><time>2026-03-29T14:12:39Z</time></trkpt><trkpt lat="37.12225393706567" lon="14.278533845697606"><ele>45.0</ele><time>2026-03-29T14:12:40Z</time></trkpt><trkpt lat="37.122289734377865" lon="14.278289407965266"><ele>45.0</ele><time>2026-03-29T14:12:41Z</time></trkpt><trkpt lat="37.122325370813755" lon="14.278050169578908"><ele>45.0</ele><time>2026-03-29T14:12:42Z</time></trkpt><trkpt lat="37.12236008979263" lon="14.277809565835705"><ele>45.0</ele><time>2026-03-29T14:12:43Z</time></trkpt><trkpt lat="37.12239491348708" lon="14.27756368739434"><ele>45.0</ele><time>2026-03-29T14:12:44Z</time></trkpt><trkpt lat="37.12243280749056" lon="14.277317837201116"><ele>46.66666666666667</ele><time>2026-03-29T14:12:45Z</time></trkpt><trkpt lat="37.12247601863167" lon="14.277071261030299"><ele>48.333333333333336</ele><time>2026-03-29T14:12:46Z</time></trkpt><trkpt lat="37.12252650621596" lon="14.276826575036317"><ele>50.0</ele><time>2026-03-29T14:12:47Z</time></trkpt><trkpt lat="37.12258316657078" lon="14.276581103986613"><ele>50.0</ele><time>2026-03-29T14:12:48Z</time></trkpt><trkpt lat="37.1226409889932" lon="14.27633455102759"><ele>50.0</ele><time>2026-03-29T14:12:49Z</time></trkpt><trkpt lat="37.122699004631556" lon="14.276088087383432"><ele>50.0</ele><time>2026-03-29T14:12:50Z</time></trkpt><trkpt lat="37.12275669965164" lon="14.275841983592256"><ele>50.66666666666667</ele><time>2026-03-29T14:12:51Z</time></trkpt><trkpt lat="37.12280853547077" lon="14.275594227594006"><ele>51.33333333333333</ele><time>2026-03-29T14:12:52Z</time></trkpt><trkpt lat="37.12285009997821" lon="14.275343671540673"><ele>52.0</ele><time>2026-03-29T14:12:53Z</time></trkpt><trkpt lat="37.1228792629885" lon="14.275090888358893"><ele>52.0</ele><time>2026-03-29T14:12:54Z</time></trkpt><trkpt lat="37.12290285775751" lon="14.274834319249797"><ele>52.0</ele><time>2026-03-29T14:12:55Z</time></trkpt><trkpt lat="37.12292222714334" lon="14.274578310965849"><ele>52.0</ele><time>2026-03-29T14:12:56Z</time></trkpt><trkpt lat="37.122941562423655" lon="14.274320297734818"><ele>52.666666666666664</ele><time>2026-03-29T14:12:57Z</time></trkpt><trkpt lat="37.12296164302966" lon="14.274062902780873"><ele>53.33333333333333</ele><time>2026-03-29T14:12:58Z</time></trkpt><trkpt lat="37.12298267166614" lon="14.273807870112773"><ele>54.0</ele><time>2026-03-29T14:12:59Z</time></trkpt><trkpt lat="37.12300407092267" lon="14.27355096714581"><ele>55.66666666666667</ele><time>2026-03-29T14:13:00Z</time></trkpt><trkpt lat="37.123025895369274" lon="14.273298128935057"><ele>57.333333333333336</ele><time>2026-03-29T14:13:01Z</time></trkpt><trkpt lat="37.123047902230404" lon="14.273044922057842"><ele>59.0</ele><time>2026-03-29T14:13:02Z</time></trkpt><trkpt lat="37.12306931236441" lon="14.272795305211881"><ele>59.0</ele><time>2026-03-29T14:13:03Z</time></trkpt><trkpt lat="37.12309079067382" lon="14.272549147198964"><ele>59.0</ele><time>2026-03-29T14:13:04Z</time></trkpt><trkpt lat="37.12311073319304" lon="14.272309139890677"><ele>59.0</ele><time>2026-03-29T14:13:05Z</time></trkpt><trkpt lat="37.123121887281584" lon="14.272078682533925"><ele>60.0</ele><time>2026-03-29T14:13:06Z</time></trkpt><trkpt lat="37.12312281800332" lon="14.271854565039446"><ele>61.0</ele><time>2026-03-29T14:13:07Z</time></trkpt><trkpt lat="37.123104309936004" lon="14.271639659115431"><ele>62.0</ele><time>2026-03-29T14:13:08Z</time></trkpt><trkpt lat="37.12306692436048" lon="14.27142978190088"><ele>63.0</ele><time>2026-03-29T14:13:09Z</time></trkpt><trkpt lat="37.12300992573131" lon="14.271226792544025"><ele>64.0</ele><time>2026-03-29T14:13:10Z</time></trkpt><trkpt lat="37.12293684103641" lon="14.271027551776504"><ele>65.0</ele><time>2026-03-29T14:13:11Z</time></trkpt><trkpt lat="37.122891046256065" lon="14.27082012230421"><ele>65.0</ele><time>2026-03-29T14:13:12Z</time></trkpt><trkpt lat="37.1228346377146" lon="14.270626354705634"><ele>65.0</ele><time>2026-03-29T14:13:13Z</time></trkpt><trkpt lat="37.122645807431574" lon="14.270495997433924"><ele>65.0</ele><time>2026-03-29T14:13:14Z</time></trkpt><trkpt lat="37.12253166373497" lon="14.270338169176556"><ele>64.33333333333334</ele><time>2026-03-29T14:13:15Z</time></trkpt><trkpt lat="37.12241982350877" lon="14.270183287610656"><ele>63.66666666666667</ele><time>2026-03-29T14:13:16Z</time></trkpt><trkpt lat="37.12231413959501" lon="14.27002026994078"><ele>63.0</ele><time>2026-03-29T14:13:17Z</time></trkpt><trkpt lat="37.12221881852789" lon="14.269841004363428"><ele>65.0</ele><time>2026-03-29T14:13:18Z</time></trkpt><trkpt lat="37.12213809072153" lon="14.269644706559276"><ele>67.0</ele><time>2026-03-29T14:13:19Z</time></trkpt><trkpt lat="37.122070331858424" lon="14.269438553798704"><ele>69.0</ele><time>2026-03-29T14:13:20Z</time></trkpt><trkpt lat="37.12202102835761" lon="14.269221524267444"><ele>69.0</ele><time>2026-03-29T14:13:21Z</time></trkpt><trkpt lat="37.121991239412544" lon="14.26899869960283"><ele>69.0</ele><time>2026-03-29T14:13:21.998Z</time></trkpt><trkpt lat="37.12197555867011" lon="14.268766823274985"><ele>69.0</ele><time>2026-03-29T14:13:22.998Z</time></trkpt><trkpt lat="37.12196303564865" lon="14.268531391295577"><ele>70.33333333333333</ele><time>2026-03-29T14:13:23.998Z</time></trkpt><trkpt lat="37.121947836988475" lon="14.268291366175786"><ele>71.66666666666666</ele><time>2026-03-29T14:13:24.998Z</time></trkpt><trkpt lat="37.12193248775925" lon="14.268048386786901"><ele>73.0</ele><time>2026-03-29T14:13:25.998Z</time></trkpt><trkpt lat="37.12192349005746" lon="14.267799344728177"><ele>73.0</ele><time>2026-03-29T14:13:26.998Z</time></trkpt><trkpt lat="37.12192062747978" lon="14.267551349802169"><ele>73.0</ele><time>2026-03-29T14:13:27.998Z</time></trkpt><trkpt lat="37.121923380944146" lon="14.267298482478305"><ele>73.0</ele><time>2026-03-29T14:13:28.998Z</time></trkpt><trkpt lat="37.12192923536326" lon="14.267042260433033"><ele>73.66666666666666</ele><time>2026-03-29T14:13:29.998Z</time></trkpt><trkpt lat="37.121933814351394" lon="14.26678630548868"><ele>74.33333333333333</ele><time>2026-03-29T14:13:30.998Z</time></trkpt><trkpt lat="37.12193712861695" lon="14.266531049440706"><ele>75.0</ele><time>2026-03-29T14:13:31.998Z</time></trkpt><trkpt lat="37.121940613395" lon="14.26627299660367"><ele>75.33333333333333</ele><time>2026-03-29T14:13:32.998Z</time></trkpt><trkpt lat="37.1219440593833" lon="14.266015475253365"><ele>75.66666666666666</ele><time>2026-03-29T14:13:33.998Z</time></trkpt><trkpt lat="37.12194782669329" lon="14.265759317276336"><ele>76.0</ele><time>2026-03-29T14:13:34.998Z</time></trkpt><trkpt lat="37.12195141001488" lon="14.265500898145593"><ele>76.0</ele><time>2026-03-29T14:13:35.998Z</time></trkpt><trkpt lat="37.121955485990696" lon="14.265244819480335"><ele>76.0</ele><time>2026-03-29T14:13:36.998Z</time></trkpt><trkpt lat="37.12196023852131" lon="14.264988835258327"><ele>76.0</ele><time>2026-03-29T14:13:37.998Z</time></trkpt><trkpt lat="37.12196713303196" lon="14.264731399066855"><ele>76.66666666666666</ele><time>2026-03-29T14:13:38.998Z</time></trkpt><trkpt lat="37.12197203472878" lon="14.264474230467833"><ele>77.33333333333333</ele><time>2026-03-29T14:13:39.998Z</time></trkpt><trkpt lat="37.121977206711385" lon="14.26421626556041"><ele>78.0</ele><time>2026-03-29T14:13:40.998Z</time></trkpt><trkpt lat="37.12198332575285" lon="14.26395969147379"><ele>79.0</ele><time>2026-03-29T14:13:41.998Z</time></trkpt><trkpt lat="37.12199055129609" lon="14.263708499936516"><ele>80.0</ele><time>2026-03-29T14:13:42.998Z</time></trkpt><trkpt lat="37.12200331786427" lon="14.263463380152125"><ele>81.0</ele><time>2026-03-29T14:13:43.998Z</time></trkpt><trkpt lat="37.12203581701484" lon="14.263240789640596"><ele>81.0</ele><time>2026-03-29T14:13:44.998Z</time></trkpt><trkpt lat="37.12208957798483" lon="14.2630330494173"><ele>81.0</ele><time>2026-03-29T14:13:45.999Z</time></trkpt><trkpt lat="37.12224237662535" lon="14.26262242800346"><ele>81.0</ele><time>2026-03-29T14:13:47.999Z</time></trkpt><trkpt lat="37.12233219395322" lon="14.262405977377867"><ele>81.0</ele><time>2026-03-29T14:13:48.999Z</time></trkpt><trkpt lat="37.122423732425105" lon="14.262190229876552"><ele>81.0</ele><time>2026-03-29T14:13:49.999Z</time></trkpt><trkpt lat="37.12250972942966" lon="14.26197128640276"><ele>82.33333333333333</ele><time>2026-03-29T14:13:50.999Z</time></trkpt><trkpt lat="37.1225832911181" lon="14.26174982634661"><ele>83.66666666666666</ele><time>2026-03-29T14:13:51.999Z</time></trkpt><trkpt lat="37.12264032062677" lon="14.26153406100084"><ele>85.0</ele><time>2026-03-29T14:13:52.999Z</time></trkpt><trkpt lat="37.12268033208879" lon="14.26131012477843"><ele>85.0</ele><time>2026-03-29T14:13:53.999Z</time></trkpt><trkpt lat="37.122713025353285" lon="14.261080442690112"><ele>85.0</ele><time>2026-03-29T14:13:54.999Z</time></trkpt><trkpt lat="37.12274536997314" lon="14.260853482536298"><ele>85.0</ele><time>2026-03-29T14:13:55.999Z</time></trkpt><trkpt lat="37.12277885588711" lon="14.260622391813456"><ele>85.33333333333333</ele><time>2026-03-29T14:13:56.999Z</time></trkpt><trkpt lat="37.12280964491446" lon="14.260405291729592"><ele>85.66666666666667</ele><time>2026-03-29T14:13:57.999Z</time></trkpt><trkpt lat="37.12283487977177" lon="14.260213399608997"><ele>86.0</ele><time>2026-03-29T14:13:58.999Z</time></trkpt><trkpt lat="37.12285833874424" lon="14.260042805780778"><ele>86.0</ele><time>2026-03-29T14:13:59.999Z</time></trkpt><trkpt lat="37.12288272681627" lon="14.259887203323894"><ele>86.0</ele><time>2026-03-29T14:14:00.999Z</time></trkpt><trkpt lat="37.122908826048125" lon="14.259748433402745"><ele>86.0</ele><time>2026-03-29T14:14:01.999Z</time></trkpt><trkpt lat="37.12294414196515" lon="14.259620741514299"><ele>86.0</ele><time>2026-03-29T14:14:02.999Z</time></trkpt><trkpt lat="37.122980531102115" lon="14.259516352729475"><ele>86.0</ele><time>2026-03-29T14:14:03.999Z</time></trkpt><trkpt lat="37.12300018233837" lon="14.259397093428264"><ele>85.25</ele><time>2026-03-29T14:14:04.999Z</time></trkpt><trkpt lat="37.12298955644743" lon="14.259257905848001"><ele>84.5</ele><time>2026-03-29T14:14:05.999Z</time></trkpt><trkpt lat="37.1229618484622" lon="14.259104187280498"><ele>83.75</ele><time>2026-03-29T14:14:06.999Z</time></trkpt><trkpt lat="37.12295181368032" lon="14.258929792711994"><ele>83.0</ele><time>2026-03-29T14:14:07.999Z</time></trkpt><trkpt lat="37.12296230111934" lon="14.258743639145775"><ele>82.0</ele><time>2026-03-29T14:14:08.999Z</time></trkpt><trkpt lat="37.12297608110922" lon="14.258537718133967"><ele>81.0</ele><time>2026-03-29T14:14:09.999Z</time></trkpt><trkpt lat="37.122991223940446" lon="14.258324144380081"><ele>80.0</ele><time>2026-03-29T14:14:10.999Z</time></trkpt><trkpt lat="37.12300518518919" lon="14.258100967514464"><ele>79.66666666666667</ele><time>2026-03-29T14:14:11.999Z</time></trkpt><trkpt lat="37.12301631160606" lon="14.257876142501015"><ele>79.33333333333333</ele><time>2026-03-29T14:14:12.999Z</time></trkpt><trkpt lat="37.12302930289234" lon="14.25765111113935"><ele>79.0</ele><time>2026-03-29T14:14:13.999Z</time></trkpt><trkpt lat="37.12304425381579" lon="14.257420938970016"><ele>78.33333333333333</ele><time>2026-03-29T14:14:14.999Z</time></trkpt><trkpt lat="37.12306106913196" lon="14.257185526779628"><ele>77.66666666666667</ele><time>2026-03-29T14:14:15.999Z</time></trkpt><trkpt lat="37.123079241777106" lon="14.25694749814865"><ele>77.0</ele><time>2026-03-29T14:14:16.999Z</time></trkpt><trkpt lat="37.12309670147306" lon="14.256710493082718"><ele>77.0</ele><time>2026-03-29T14:14:17.999Z</time></trkpt><trkpt lat="37.12311345696907" lon="14.256469515650668"><ele>77.0</ele><time>2026-03-29T14:14:18.999Z</time></trkpt><trkpt lat="37.12312952421405" lon="14.256228126231736"><ele>77.0</ele><time>2026-03-29T14:14:19.999Z</time></trkpt><trkpt lat="37.123146216404976" lon="14.255986095490698"><ele>77.0</ele><time>2026-03-29T14:14:20.999Z</time></trkpt><trkpt lat="37.12316292473015" lon="14.255746880117629"><ele>77.0</ele><time>2026-03-29T14:14:21.999Z</time></trkpt><trkpt lat="37.12317791735954" lon="14.255506010560723"><ele>77.0</ele><time>2026-03-29T14:14:22.999Z</time></trkpt><trkpt lat="37.12319343876226" lon="14.255263821361325"><ele>76.66666666666667</ele><time>2026-03-29T14:14:23.999Z</time></trkpt><trkpt lat="37.123209658561514" lon="14.255024111577038"><ele>76.33333333333333</ele><time>2026-03-29T14:14:24.999Z</time></trkpt><trkpt lat="37.12322960471504" lon="14.254783683040886"><ele>76.0</ele><time>2026-03-29T14:14:25.999Z</time></trkpt><trkpt lat="37.123250047004724" lon="14.254543693711037"><ele>76.33333333333333</ele><time>2026-03-29T14:14:26.999Z</time></trkpt><trkpt lat="37.12326962058044" lon="14.254303505724884"><ele>76.66666666666667</ele><time>2026-03-29T14:14:27.999Z</time></trkpt><trkpt lat="37.123285138056005" lon="14.254062123973155"><ele>77.0</ele><time>2026-03-29T14:14:28.999Z</time></trkpt><trkpt lat="37.12329727763252" lon="14.253824438333075"><ele>77.0</ele><time>2026-03-29T14:14:29.999Z</time></trkpt><trkpt lat="37.123305735880535" lon="14.253586216788687"><ele>77.0</ele><time>2026-03-29T14:14:30.999Z</time></trkpt><trkpt lat="37.12330797000659" lon="14.253349959318184"><ele>77.0</ele><time>2026-03-29T14:14:31.999Z</time></trkpt><trkpt lat="37.123304922153885" lon="14.253109064091893"><ele>76.66666666666667</ele><time>2026-03-29T14:14:32.999Z</time></trkpt><trkpt lat="37.12330216978018" lon="14.252867990622905"><ele>76.33333333333333</ele><time>2026-03-29T14:14:34Z</time></trkpt><trkpt lat="37.123298341599835" lon="14.252628486976338"><ele>76.0</ele><time>2026-03-29T14:14:35Z</time></trkpt><trkpt lat="37.12329370844217" lon="14.25239359805687"><ele>75.0</ele><time>2026-03-29T14:14:36Z</time></trkpt><trkpt lat="37.12328902045266" lon="14.25216249409723"><ele>74.0</ele><time>2026-03-29T14:14:37Z</time></trkpt><trkpt lat="37.123286002547395" lon="14.251940940222218"><ele>73.0</ele><time>2026-03-29T14:14:38Z</time></trkpt><trkpt lat="37.123285005942975" lon="14.251721814880833"><ele>73.0</ele><time>2026-03-29T14:14:39Z</time></trkpt><trkpt lat="37.12327941157635" lon="14.251508716310331"><ele>73.0</ele><time>2026-03-29T14:14:40Z</time></trkpt><trkpt lat="37.12326745631559" lon="14.251293149339796"><ele>73.0</ele><time>2026-03-29T14:14:41Z</time></trkpt><trkpt lat="37.12324771134059" lon="14.251071261360755"><ele>71.66666666666666</ele><time>2026-03-29T14:14:42Z</time></trkpt><trkpt lat="37.123220476041716" lon="14.250844238324635"><ele>70.33333333333333</ele><time>2026-03-29T14:14:43Z</time></trkpt><trkpt lat="37.123185974387546" lon="14.250606839185204"><ele>69.0</ele><time>2026-03-29T14:14:44Z</time></trkpt><trkpt lat="37.12314496835996" lon="14.250362045806446"><ele>69.0</ele><time>2026-03-29T14:14:45Z</time></trkpt><trkpt lat="37.123102419243025" lon="14.250113138561561"><ele>69.0</ele><time>2026-03-29T14:14:46Z</time></trkpt><trkpt lat="37.123060928733416" lon="14.249863943590526"><ele>69.0</ele><time>2026-03-29T14:14:47Z</time></trkpt><trkpt lat="37.12302198227092" lon="14.249611921069462"><ele>69.33333333333333</ele><time>2026-03-29T14:14:48Z</time></trkpt><trkpt lat="37.12299031497093" lon="14.249361594872312"><ele>69.66666666666666</ele><time>2026-03-29T14:14:49Z</time></trkpt><trkpt lat="37.12296731477232" lon="14.249107644624628"><ele>70.0</ele><time>2026-03-29T14:14:50Z</time></trkpt><trkpt lat="37.12295422078933" lon="14.248857096300881"><ele>69.0</ele><time>2026-03-29T14:14:51Z</time></trkpt><trkpt lat="37.122944876375634" lon="14.248611149399732"><ele>68.0</ele><time>2026-03-29T14:14:52Z</time></trkpt><trkpt lat="37.1229356617478" lon="14.248366670308322"><ele>67.0</ele><time>2026-03-29T14:14:53Z</time></trkpt><trkpt lat="37.12291981092174" lon="14.248130994303741"><ele>67.66666666666666</ele><time>2026-03-29T14:14:54Z</time></trkpt><trkpt lat="37.12289154283685" lon="14.247899411391995"><ele>68.33333333333333</ele><time>2026-03-29T14:14:55Z</time></trkpt><trkpt lat="37.122841675976005" lon="14.247671444167453"><ele>69.0</ele><time>2026-03-29T14:14:56Z</time></trkpt><trkpt lat="37.122767427946556" lon="14.247447150276859"><ele>70.0</ele><time>2026-03-29T14:14:57Z</time></trkpt><trkpt lat="37.12267488204633" lon="14.247217496138918"><ele>71.0</ele><time>2026-03-29T14:14:58Z</time></trkpt><trkpt lat="37.122574770253046" lon="14.246984093473051"><ele>72.0</ele><time>2026-03-29T14:14:59Z</time></trkpt><trkpt lat="37.12247669981681" lon="14.246749777516357"><ele>72.0</ele><time>2026-03-29T14:15:00Z</time></trkpt><trkpt lat="37.122377113934604" lon="14.246518854592226"><ele>72.0</ele><time>2026-03-29T14:15:01Z</time></trkpt><trkpt lat="37.1222847384217" lon="14.246312693694476"><ele>72.0</ele><time>2026-03-29T14:15:02Z</time></trkpt><trkpt lat="37.12219626566727" lon="14.246106289029449"><ele>71.66666666666667</ele><time>2026-03-29T14:15:03Z</time></trkpt><trkpt lat="37.122113352671256" lon="14.24589622755622"><ele>71.33333333333334</ele><time>2026-03-29T14:15:04Z</time></trkpt><trkpt lat="37.122038977759466" lon="14.245671897610364"><ele>71.0</ele><time>2026-03-29T14:15:05Z</time></trkpt><trkpt lat="37.1219673648282" lon="14.24543956122607"><ele>70.33333333333334</ele><time>2026-03-29T14:15:06Z</time></trkpt><trkpt lat="37.1218997385087" lon="14.245207972616448"><ele>69.66666666666667</ele><time>2026-03-29T14:15:07Z</time></trkpt><trkpt lat="37.121835841505" lon="14.244975469134637"><ele>69.0</ele><time>2026-03-29T14:15:08Z</time></trkpt><trkpt lat="37.12177223482136" lon="14.24474163259072"><ele>68.66666666666667</ele><time>2026-03-29T14:15:09Z</time></trkpt><trkpt lat="37.121713217678405" lon="14.244507404384985"><ele>68.33333333333334</ele><time>2026-03-29T14:15:10Z</time></trkpt><trkpt lat="37.121671510193494" lon="14.244271391203949"><ele>68.0</ele><time>2026-03-29T14:15:11Z</time></trkpt><trkpt lat="37.121652795589135" lon="14.244032953159081"><ele>68.0</ele><time>2026-03-29T14:15:12Z</time></trkpt><trkpt lat="37.121654695698716" lon="14.243794542421774"><ele>68.0</ele><time>2026-03-29T14:15:13Z</time></trkpt><trkpt lat="37.12166659369583" lon="14.243561742146332"><ele>68.0</ele><time>2026-03-29T14:15:14Z</time></trkpt><trkpt lat="37.12167631785596" lon="14.243327749658222"><ele>67.66666666666667</ele><time>2026-03-29T14:15:15Z</time></trkpt><trkpt lat="37.121682242115234" lon="14.24308928700024"><ele>67.33333333333333</ele><time>2026-03-29T14:15:16Z</time></trkpt><trkpt lat="37.121686295994465" lon="14.242851272280728"><ele>67.0</ele><time>2026-03-29T14:15:17Z</time></trkpt><trkpt lat="37.12168836097377" lon="14.24261262055907"><ele>67.0</ele><time>2026-03-29T14:15:18Z</time></trkpt><trkpt lat="37.12169177246605" lon="14.242373628688606"><ele>67.0</ele><time>2026-03-29T14:15:19Z</time></trkpt><trkpt lat="37.121694196226805" lon="14.242133793279582"><ele>67.0</ele><time>2026-03-29T14:15:20Z</time></trkpt><trkpt lat="37.12169785229751" lon="14.24189195884123"><ele>66.33333333333333</ele><time>2026-03-29T14:15:21Z</time></trkpt><trkpt lat="37.121702187193776" lon="14.241649163406416"><ele>65.66666666666667</ele><time>2026-03-29T14:15:22Z</time></trkpt><trkpt lat="37.12170768390829" lon="14.241402298271158"><ele>65.0</ele><time>2026-03-29T14:15:23Z</time></trkpt><trkpt lat="37.12172270351538" lon="14.241158211541773"><ele>64.33333333333334</ele><time>2026-03-29T14:15:24Z</time></trkpt><trkpt lat="37.121749340440005" lon="14.240917277357655"><ele>63.66666666666667</ele><time>2026-03-29T14:15:25Z</time></trkpt><trkpt lat="37.12179476075655" lon="14.240680069287944"><ele>63.0</ele><time>2026-03-29T14:15:26Z</time></trkpt><trkpt lat="37.12185410890108" lon="14.240447867880661"><ele>62.66666666666667</ele><time>2026-03-29T14:15:27Z</time></trkpt><trkpt lat="37.1219143340034" lon="14.240203595521358"><ele>62.333333333333336</ele><time>2026-03-29T14:15:27.997Z</time></trkpt><trkpt lat="37.12197096478508" lon="14.239950446529269"><ele>62.0</ele><time>2026-03-29T14:15:28.997Z</time></trkpt><trkpt lat="37.12203137822499" lon="14.239695582122621"><ele>61.66666666666667</ele><time>2026-03-29T14:15:29.997Z</time></trkpt><trkpt lat="37.122093874116466" lon="14.239438245614046"><ele>61.33333333333333</ele><time>2026-03-29T14:15:30.997Z</time></trkpt><trkpt lat="37.1221555233548" lon="14.239177904063165"><ele>61.0</ele><time>2026-03-29T14:15:31.997Z</time></trkpt><trkpt lat="37.12221840500865" lon="14.238912390214445"><ele>61.0</ele><time>2026-03-29T14:15:32.997Z</time></trkpt><trkpt lat="37.12228305807324" lon="14.238643445379969"><ele>61.0</ele><time>2026-03-29T14:15:33.997Z</time></trkpt><trkpt lat="37.122345794453885" lon="14.238375999497393"><ele>61.0</ele><time>2026-03-29T14:15:34.997Z</time></trkpt><trkpt lat="37.122409270627365" lon="14.238108548762513"><ele>62.33333333333333</ele><time>2026-03-29T14:15:35.998Z</time></trkpt><trkpt lat="37.122473203199775" lon="14.237840266669515"><ele>63.66666666666667</ele><time>2026-03-29T14:15:36.998Z</time></trkpt><trkpt lat="37.12253501676164" lon="14.237573946943359"><ele>65.0</ele><time>2026-03-29T14:15:37.998Z</time></trkpt><trkpt lat="37.122594936809065" lon="14.237306893800522"><ele>65.0</ele><time>2026-03-29T14:15:38.998Z</time></trkpt><trkpt lat="37.12265119354568" lon="14.237041048313344"><ele>65.0</ele><time>2026-03-29T14:15:39.998Z</time></trkpt><trkpt lat="37.12269706580906" lon="14.236775181250078"><ele>65.0</ele><time>2026-03-29T14:15:40.998Z</time></trkpt><trkpt lat="37.122729771029384" lon="14.236509226053657"><ele>65.0</ele><time>2026-03-29T14:15:41.998Z</time></trkpt><trkpt lat="37.12275538368411" lon="14.236241070083992"><ele>65.0</ele><time>2026-03-29T14:15:42.998Z</time></trkpt><trkpt lat="37.122780836213934" lon="14.235971480647216"><ele>65.0</ele><time>2026-03-29T14:15:43.998Z</time></trkpt><trkpt lat="37.12280648545055" lon="14.235701318353543"><ele>65.0</ele><time>2026-03-29T14:15:44.998Z</time></trkpt><trkpt lat="37.12283100096391" lon="14.235434235286835"><ele>65.0</ele><time>2026-03-29T14:15:45.998Z</time></trkpt><trkpt lat="37.122856534802565" lon="14.235170242907174"><ele>65.0</ele><time>2026-03-29T14:15:46.998Z</time></trkpt><trkpt lat="37.1228879908364" lon="14.234910404550323"><ele>64.33333333333334</ele><time>2026-03-29T14:15:47.998Z</time></trkpt><trkpt lat="37.122927026643424" lon="14.234662656701367"><ele>63.66666666666667</ele><time>2026-03-29T14:15:48.998Z</time></trkpt><trkpt lat="37.12298565827595" lon="14.234435145674986"><ele>63.0</ele><time>2026-03-29T14:15:49.998Z</time></trkpt><trkpt lat="37.123073641418515" lon="14.23421320071029"><ele>63.0</ele><time>2026-03-29T14:15:50.998Z</time></trkpt><trkpt lat="37.123182514765176" lon="14.233995704013202"><ele>63.0</ele><time>2026-03-29T14:15:51.998Z</time></trkpt><trkpt lat="37.12330029776585" lon="14.233787977711065"><ele>63.0</ele><time>2026-03-29T14:15:52.999Z</time></trkpt><trkpt lat="37.12342098433963" lon="14.233579219017857"><ele>63.33333333333333</ele><time>2026-03-29T14:15:53.999Z</time></trkpt><trkpt lat="37.12352988187358" lon="14.233372641655475"><ele>63.666666666666664</ele><time>2026-03-29T14:15:54.999Z</time></trkpt><trkpt lat="37.12362867957384" lon="14.233160521315357"><ele>64.0</ele><time>2026-03-29T14:15:55.999Z</time></trkpt><trkpt lat="37.12371363585359" lon="14.232932976715055"><ele>63.0</ele><time>2026-03-29T14:15:56.999Z</time></trkpt><trkpt lat="37.123785436292295" lon="14.232693934096702"><ele>62.0</ele><time>2026-03-29T14:15:57.999Z</time></trkpt><trkpt lat="37.12384788888899" lon="14.232452135030549"><ele>61.0</ele><time>2026-03-29T14:15:58.999Z</time></trkpt><trkpt lat="37.1239009653533" lon="14.23220510594025"><ele>60.666666666666664</ele><time>2026-03-29T14:15:59.999Z</time></trkpt><trkpt lat="37.123958942735676" lon="14.231960947367751"><ele>60.33333333333333</ele><time>2026-03-29T14:16:00.999Z</time></trkpt><trkpt lat="37.12402279945386" lon="14.231713321458946"><ele>60.0</ele><time>2026-03-29T14:16:01.999Z</time></trkpt><trkpt lat="37.12408589686418" lon="14.231471110917344"><ele>61.0</ele><time>2026-03-29T14:16:02.999Z</time></trkpt><trkpt lat="37.12415142416387" lon="14.231226033379835"><ele>62.0</ele><time>2026-03-29T14:16:03.999Z</time></trkpt><trkpt lat="37.12421531166853" lon="14.23097162274898"><ele>63.0</ele><time>2026-03-29T14:16:04.999Z</time></trkpt><trkpt lat="37.12427886562061" lon="14.230721250531666"><ele>62.66666666666667</ele><time>2026-03-29T14:16:05.999Z</time></trkpt><trkpt lat="37.12434212614367" lon="14.230470693009723"><ele>62.333333333333336</ele><time>2026-03-29T14:16:06.999Z</time></trkpt><trkpt lat="37.12440677734815" lon="14.230218812241882"><ele>62.0</ele><time>2026-03-29T14:16:07.999Z</time></trkpt><trkpt lat="37.12447035772151" lon="14.229971871219096"><ele>62.333333333333336</ele><time>2026-03-29T14:16:08.999Z</time></trkpt><trkpt lat="37.124533042172395" lon="14.229722613149157"><ele>62.66666666666667</ele><time>2026-03-29T14:16:09.999Z</time></trkpt><trkpt lat="37.12459371787787" lon="14.229471476635815"><ele>63.0</ele><time>2026-03-29T14:16:10.999Z</time></trkpt><trkpt lat="37.124648254520594" lon="14.229219832738618"><ele>63.0</ele><time>2026-03-29T14:16:11.999Z</time></trkpt><trkpt lat="37.12469581913116" lon="14.228965075404789"><ele>63.0</ele><time>2026-03-29T14:16:12.999Z</time></trkpt><trkpt lat="37.124740828022404" lon="14.228708008537415"><ele>63.0</ele><time>2026-03-29T14:16:13.999Z</time></trkpt><trkpt lat="37.124791858173886" lon="14.228452838036706"><ele>63.0</ele><time>2026-03-29T14:16:14.999Z</time></trkpt><trkpt lat="37.1248444240628" lon="14.228198999579513"><ele>63.0</ele><time>2026-03-29T14:16:15.999Z</time></trkpt><trkpt lat="37.12489500320572" lon="14.227944492250655"><ele>63.0</ele><time>2026-03-29T14:16:16.999Z</time></trkpt><trkpt lat="37.124943515280705" lon="14.227690637714886"><ele>61.66666666666667</ele><time>2026-03-29T14:16:17.999Z</time></trkpt><trkpt lat="37.12499044562013" lon="14.227437139621612"><ele>60.333333333333336</ele><time>2026-03-29T14:16:18.999Z</time></trkpt><trkpt lat="37.125039810636615" lon="14.227185737283765"><ele>59.0</ele><time>2026-03-29T14:16:19.999Z</time></trkpt><trkpt lat="37.125091816997816" lon="14.226935932422549"><ele>58.66666666666667</ele><time>2026-03-29T14:16:20.999Z</time></trkpt><trkpt lat="37.125142968842184" lon="14.226687511616383"><ele>58.33333333333333</ele><time>2026-03-29T14:16:21.999Z</time></trkpt><trkpt lat="37.12519488804074" lon="14.226444384924154"><ele>58.0</ele><time>2026-03-29T14:16:22.999Z</time></trkpt><trkpt lat="37.12524924298499" lon="14.22620057870004"><ele>58.0</ele><time>2026-03-29T14:16:23.999Z</time></trkpt><trkpt lat="37.125306829598365" lon="14.225953853520124"><ele>58.0</ele><time>2026-03-29T14:16:24.999Z</time></trkpt><trkpt lat="37.125366996334954" lon="14.22571474296838"><ele>58.0</ele><time>2026-03-29T14:16:25.999Z</time></trkpt><trkpt lat="37.12542902539332" lon="14.2254809032367"><ele>58.33333333333333</ele><time>2026-03-29T14:16:27Z</time></trkpt><trkpt lat="37.12549384746081" lon="14.22524240008886"><ele>58.66666666666667</ele><time>2026-03-29T14:16:28Z</time></trkpt><trkpt lat="37.12555848424024" lon="14.225009347748"><ele>59.0</ele><time>2026-03-29T14:16:29Z</time></trkpt><trkpt lat="37.125621034918304" lon="14.224782630290342"><ele>59.66666666666667</ele><time>2026-03-29T14:16:30Z</time></trkpt><trkpt lat="37.12567899223349" lon="14.224575606326658"><ele>60.33333333333333</ele><time>2026-03-29T14:16:31Z</time></trkpt><trkpt lat="37.125734437814174" lon="14.224379228013571"><ele>61.0</ele><time>2026-03-29T14:16:32Z</time></trkpt><trkpt lat="37.12578487262499" lon="14.224198274758526"><ele>58.5</ele><time>2026-03-29T14:16:33Z</time></trkpt><trkpt lat="37.12583100919514" lon="14.22403128341943"><ele>56.0</ele><time>2026-03-29T14:16:34Z</time></trkpt><trkpt lat="37.125873582345776" lon="14.223878938432753"><ele>53.5</ele><time>2026-03-29T14:16:35Z</time></trkpt><trkpt lat="37.125911410720626" lon="14.223742307183205"><ele>51.0</ele><time>2026-03-29T14:16:36Z</time></trkpt><trkpt lat="37.125943970649935" lon="14.22362001397487"><ele>50.599999999999994</ele><time>2026-03-29T14:16:37Z</time></trkpt><trkpt lat="37.125976832058505" lon="14.223512341318013"><ele>50.2</ele><time>2026-03-29T14:16:38Z</time></trkpt><trkpt lat="37.12601241053384" lon="14.22343258176548"><ele>49.8</ele><time>2026-03-29T14:16:39Z</time></trkpt><trkpt lat="37.12611223644263" lon="14.223356621632863"><ele>49.400000000000006</ele><time>2026-03-29T14:16:41Z</time></trkpt><trkpt lat="37.12623885037354" lon="14.223429513328801"><ele>49.0</ele><time>2026-03-29T14:16:43Z</time></trkpt><trkpt lat="37.126303779543875" lon="14.223493881900168"><ele>49.0</ele><time>2026-03-29T14:16:44Z</time></trkpt><trkpt lat="37.12637665812381" lon="14.223577043568442"><ele>49.0</ele><time>2026-03-29T14:16:45Z</time></trkpt><trkpt lat="37.12646219889157" lon="14.223670577316017"><ele>49.0</ele><time>2026-03-29T14:16:46Z</time></trkpt><trkpt lat="37.12655592637308" lon="14.223771013189175"><ele>49.0</ele><time>2026-03-29T14:16:47Z</time></trkpt><trkpt lat="37.12665810003474" lon="14.223876424166217"><ele>49.25</ele><time>2026-03-29T14:16:48Z</time></trkpt><trkpt lat="37.12676326892591" lon="14.223980682989168"><ele>49.5</ele><time>2026-03-29T14:16:49Z</time></trkpt><trkpt lat="37.12686882057978" lon="14.224090545189858"><ele>49.75</ele><time>2026-03-29T14:16:50Z</time></trkpt><trkpt lat="37.12697507472585" lon="14.224196823020437"><ele>50.0</ele><time>2026-03-29T14:16:51Z</time></trkpt><trkpt lat="37.12708579043515" lon="14.224296685248614"><ele>50.0</ele><time>2026-03-29T14:16:52Z</time></trkpt><trkpt lat="37.127206155692484" lon="14.224381825208464"><ele>50.0</ele><time>2026-03-29T14:16:53Z</time></trkpt><trkpt lat="37.127336605833435" lon="14.224449138133563"><ele>50.0</ele><time>2026-03-29T14:16:54Z</time></trkpt><trkpt lat="37.12747900898738" lon="14.224502602837314"><ele>50.0</ele><time>2026-03-29T14:16:55Z</time></trkpt><trkpt lat="37.12762894114943" lon="14.224545134364924"><ele>50.333333333333336</ele><time>2026-03-29T14:16:56Z</time></trkpt><trkpt lat="37.127784760736915" lon="14.224576915026578"><ele>50.66666666666667</ele><time>2026-03-29T14:16:57Z</time></trkpt><trkpt lat="37.1279411609702" lon="14.224606525551787"><ele>51.0</ele><time>2026-03-29T14:16:58Z</time></trkpt><trkpt lat="37.128095333774716" lon="14.224637586452381"><ele>50.66666666666667</ele><time>2026-03-29T14:16:59Z</time></trkpt><trkpt lat="37.12824911786145" lon="14.224669809938643"><ele>50.333333333333336</ele><time>2026-03-29T14:17:00Z</time></trkpt><trkpt lat="37.12840440736359" lon="14.224703443279406"><ele>50.0</ele><time>2026-03-29T14:17:01Z</time></trkpt><trkpt lat="37.12855219819323" lon="14.224738525249819"><ele>50.0</ele><time>2026-03-29T14:17:02Z</time></trkpt><trkpt lat="37.128694438695526" lon="14.224784096455732"><ele>50.0</ele><time>2026-03-29T14:17:03Z</time></trkpt><trkpt lat="37.128828858859585" lon="14.224853628979362"><ele>50.0</ele><time>2026-03-29T14:17:04Z</time></trkpt><trkpt lat="37.128950717203075" lon="14.224955639580873"><ele>50.0</ele><time>2026-03-29T14:17:05Z</time></trkpt><trkpt lat="37.129051959086276" lon="14.225084545747572"><ele>51.25</ele><time>2026-03-29T14:17:06Z</time></trkpt><trkpt lat="37.1291425585267" lon="14.225219914169086"><ele>52.5</ele><time>2026-03-29T14:17:07Z</time></trkpt><trkpt lat="37.129240312922676" lon="14.225331746812959"><ele>53.75</ele><time>2026-03-29T14:17:08Z</time></trkpt><trkpt lat="37.12935565941038" lon="14.225403705584432"><ele>55.0</ele><time>2026-03-29T14:17:09Z</time></trkpt><trkpt lat="37.1294882763195" lon="14.225445732126142"><ele>55.0</ele><time>2026-03-29T14:17:10Z</time></trkpt><trkpt lat="37.12963193276121" lon="14.22546099978157"><ele>55.0</ele><time>2026-03-29T14:17:11Z</time></trkpt><trkpt lat="37.12979232621739" lon="14.22545356403479"><ele>55.0</ele><time>2026-03-29T14:17:12Z</time></trkpt><trkpt lat="37.12996140618154" lon="14.225447093316712"><ele>54.666666666666664</ele><time>2026-03-29T14:17:13Z</time></trkpt><trkpt lat="37.130135363584756" lon="14.225442108126513"><ele>54.33333333333333</ele><time>2026-03-29T14:17:14Z</time></trkpt><trkpt lat="37.13030804909584" lon="14.225437406893402"><ele>54.0</ele><time>2026-03-29T14:17:15Z</time></trkpt><trkpt lat="37.13047661906154" lon="14.22543489173146"><ele>54.0</ele><time>2026-03-29T14:17:16Z</time></trkpt><trkpt lat="37.130641795559306" lon="14.225434860413495"><ele>54.0</ele><time>2026-03-29T14:17:17Z</time></trkpt><trkpt lat="37.13080527203948" lon="14.225436234717558"><ele>54.0</ele><time>2026-03-29T14:17:18Z</time></trkpt><trkpt lat="37.130958716039835" lon="14.225431089614684"><ele>54.0</ele><time>2026-03-29T14:17:19Z</time></trkpt><trkpt lat="37.131096237088606" lon="14.225413292720999"><ele>54.0</ele><time>2026-03-29T14:17:20Z</time></trkpt><trkpt lat="37.13122423909449" lon="14.225373255823099"><ele>54.0</ele><time>2026-03-29T14:17:21Z</time></trkpt><trkpt lat="37.13134462755705" lon="14.22530477294902"><ele>54.0</ele><time>2026-03-29T14:17:22Z</time></trkpt><trkpt lat="37.131440755487894" lon="14.225197344276344"><ele>54.0</ele><time>2026-03-29T14:17:23Z</time></trkpt><trkpt lat="37.1315229136045" lon="14.225056896744267"><ele>54.0</ele><time>2026-03-29T14:17:24Z</time></trkpt><trkpt lat="37.13158806635848" lon="14.22488518260154"><ele>54.0</ele><time>2026-03-29T14:17:25.001Z</time></trkpt><trkpt lat="37.13165952826343" lon="14.224699217318248"><ele>55.33333333333333</ele><time>2026-03-29T14:17:26.001Z</time></trkpt><trkpt lat="37.13173860022329" lon="14.224509017449162"><ele>56.666666666666664</ele><time>2026-03-29T14:17:27.001Z</time></trkpt><trkpt lat="37.131820540669956" lon="14.224315442839403"><ele>58.0</ele><time>2026-03-29T14:17:28.001Z</time></trkpt><trkpt lat="37.13190329165475" lon="14.224120891035763"><ele>57.0</ele><time>2026-03-29T14:17:29.001Z</time></trkpt><trkpt lat="37.13198739063878" lon="14.223932235337754"><ele>56.0</ele><time>2026-03-29T14:17:30.001Z</time></trkpt><trkpt lat="37.132072290251536" lon="14.22375974577336"><ele>55.0</ele><time>2026-03-29T14:17:31.001Z</time></trkpt><trkpt lat="37.132170816352264" lon="14.22360334247096"><ele>55.0</ele><time>2026-03-29T14:17:32.001Z</time></trkpt><trkpt lat="37.132282242569765" lon="14.223459063008443"><ele>55.0</ele><time>2026-03-29T14:17:33.001Z</time></trkpt><trkpt lat="37.132409354876096" lon="14.223328075885338"><ele>55.0</ele><time>2026-03-29T14:17:33.998Z</time></trkpt><trkpt lat="37.13255145187143" lon="14.223208777110823"><ele>55.33333333333333</ele><time>2026-03-29T14:17:34.998Z</time></trkpt><trkpt lat="37.132707516222574" lon="14.223093462518545"><ele>55.66666666666667</ele><time>2026-03-29T14:17:35.998Z</time></trkpt><trkpt lat="37.13286848460939" lon="14.22297340841019"><ele>56.0</ele><time>2026-03-29T14:17:36.998Z</time></trkpt><trkpt lat="37.13302706522247" lon="14.22284775579936"><ele>56.0</ele><time>2026-03-29T14:17:37.998Z</time></trkpt><trkpt lat="37.13318428216708" lon="14.22272096256361"><ele>56.0</ele><time>2026-03-29T14:17:38.998Z</time></trkpt><trkpt lat="37.13333808012089" lon="14.222596158418426"><ele>56.0</ele><time>2026-03-29T14:17:39.998Z</time></trkpt><trkpt lat="37.13349077216748" lon="14.222473869174774"><ele>57.333333333333336</ele><time>2026-03-29T14:17:40.998Z</time></trkpt><trkpt lat="37.13363676700123" lon="14.222357898742185"><ele>58.66666666666667</ele><time>2026-03-29T14:17:41.998Z</time></trkpt><trkpt lat="37.133775514203855" lon="14.222250341762512"><ele>60.0</ele><time>2026-03-29T14:17:42.998Z</time></trkpt><trkpt lat="37.13390882250055" lon="14.222149895739031"><ele>60.25</ele><time>2026-03-29T14:17:43.998Z</time></trkpt><trkpt lat="37.13404042276861" lon="14.222058127111781"><ele>60.5</ele><time>2026-03-29T14:17:44.998Z</time></trkpt><trkpt lat="37.1341773747311" lon="14.22198019454028"><ele>60.75</ele><time>2026-03-29T14:17:45.998Z</time></trkpt><trkpt lat="37.13431082996385" lon="14.221914022285873"><ele>61.0</ele><time>2026-03-29T14:17:46.998Z</time></trkpt><trkpt lat="37.134432049192064" lon="14.221833395139328"><ele>61.666666666666664</ele><time>2026-03-29T14:17:47.998Z</time></trkpt><trkpt lat="37.13454186289566" lon="14.22171902616894"><ele>62.33333333333333</ele><time>2026-03-29T14:17:48.998Z</time></trkpt><trkpt lat="37.13463823927774" lon="14.221565781478096"><ele>63.0</ele><time>2026-03-29T14:17:49.998Z</time></trkpt><trkpt lat="37.13472488673463" lon="14.221388306256143"><ele>63.0</ele><time>2026-03-29T14:17:50.998Z</time></trkpt><trkpt lat="37.13480368781846" lon="14.221195969735243"><ele>63.0</ele><time>2026-03-29T14:17:51.998Z</time></trkpt><trkpt lat="37.13488015258929" lon="14.220990940836156"><ele>63.0</ele><time>2026-03-29T14:17:52.998Z</time></trkpt><trkpt lat="37.13495730093025" lon="14.22079170506842"><ele>64.66666666666667</ele><time>2026-03-29T14:17:53.998Z</time></trkpt><trkpt lat="37.135027238014814" lon="14.220597895793407"><ele>66.33333333333334</ele><time>2026-03-29T14:17:54.998Z</time></trkpt><trkpt lat="37.13509667249057" lon="14.22041555460422"><ele>68.0</ele><time>2026-03-29T14:17:55.999Z</time></trkpt><trkpt lat="37.13517003082167" lon="14.220251562031198"><ele>68.0</ele><time>2026-03-29T14:17:56.999Z</time></trkpt><trkpt lat="37.135253789347466" lon="14.220114749720134"><ele>68.0</ele><time>2026-03-29T14:17:57.999Z</time></trkpt><trkpt lat="37.13535047964476" lon="14.220016844044688"><ele>68.0</ele><time>2026-03-29T14:17:58.999Z</time></trkpt><trkpt lat="37.135463014807264" lon="14.219952140542189"><ele>68.0</ele><time>2026-03-29T14:17:59.999Z</time></trkpt><trkpt lat="37.13559170997224" lon="14.21992162057492"><ele>69.75</ele><time>2026-03-29T14:18:00.999Z</time></trkpt><trkpt lat="37.13573378351253" lon="14.219914084771238"><ele>71.5</ele><time>2026-03-29T14:18:01.999Z</time></trkpt><trkpt lat="37.135881593977196" lon="14.2199168574844"><ele>73.25</ele><time>2026-03-29T14:18:02.999Z</time></trkpt><trkpt lat="37.13602759773051" lon="14.219924243314246"><ele>75.0</ele><time>2026-03-29T14:18:03.999Z</time></trkpt><trkpt lat="37.13615751128349" lon="14.21991125666294"><ele>75.0</ele><time>2026-03-29T14:18:04.999Z</time></trkpt><trkpt lat="37.136289727205636" lon="14.219862610132369"><ele>75.0</ele><time>2026-03-29T14:18:05.999Z</time></trkpt><trkpt lat="37.13642108036685" lon="14.219790272727247"><ele>75.0</ele><time>2026-03-29T14:18:06.999Z</time></trkpt><trkpt lat="37.13655108389403" lon="14.219707966148741"><ele>75.0</ele><time>2026-03-29T14:18:07.999Z</time></trkpt><trkpt lat="37.136674503560364" lon="14.219659076974672"><ele>73.75</ele><time>2026-03-29T14:18:08.999Z</time></trkpt><trkpt lat="37.13679897924205" lon="14.2196469553637"><ele>72.5</ele><time>2026-03-29T14:18:09.999Z</time></trkpt><trkpt lat="37.1369269863021" lon="14.219678613301422"><ele>71.25</ele><time>2026-03-29T14:18:10.999Z</time></trkpt><trkpt lat="37.13705676382371" lon="14.21973901098592"><ele>70.0</ele><time>2026-03-29T14:18:11.999Z</time></trkpt><trkpt lat="37.13717428798965" lon="14.219808099001996"><ele>71.25</ele><time>2026-03-29T14:18:12.999Z</time></trkpt><trkpt lat="37.13726959371078" lon="14.21990111071735"><ele>72.5</ele><time>2026-03-29T14:18:13.999Z</time></trkpt><trkpt lat="37.13734802673519" lon="14.220017764340797"><ele>73.75</ele><time>2026-03-29T14:18:14.999Z</time></trkpt><trkpt lat="37.1374042779388" lon="14.220165843503379"><ele>75.0</ele><time>2026-03-29T14:18:15.999Z</time></trkpt><trkpt lat="37.137437525171016" lon="14.220348818900797"><ele>75.0</ele><time>2026-03-29T14:18:16.999Z</time></trkpt><trkpt lat="37.13746738939973" lon="14.220550427880905"><ele>75.0</ele><time>2026-03-29T14:18:17.999Z</time></trkpt><trkpt lat="37.13749927054966" lon="14.220760307599342"><ele>75.0</ele><time>2026-03-29T14:18:18.999Z</time></trkpt><trkpt lat="37.137530496175785" lon="14.220958893240576"><ele>76.5</ele><time>2026-03-29T14:18:20Z</time></trkpt><trkpt lat="37.13756659494196" lon="14.221136609961231"><ele>78.0</ele><time>2026-03-29T14:18:21Z</time></trkpt><trkpt lat="37.137625112086376" lon="14.221299896160216"><ele>79.5</ele><time>2026-03-29T14:18:22Z</time></trkpt><trkpt lat="37.13771342442355" lon="14.221447385400008"><ele>81.0</ele><time>2026-03-29T14:18:23Z</time></trkpt><trkpt lat="37.13782785739558" lon="14.221576960687237"><ele>81.33333333333333</ele><time>2026-03-29T14:18:24Z</time></trkpt><trkpt lat="37.13796436702071" lon="14.221694579845806"><ele>81.66666666666666</ele><time>2026-03-29T14:18:25Z</time></trkpt><trkpt lat="37.138112151291175" lon="14.22180312676928"><ele>82.0</ele><time>2026-03-29T14:18:26Z</time></trkpt><trkpt lat="37.13825398122222" lon="14.22191239751466"><ele>82.0</ele><time>2026-03-29T14:18:27Z</time></trkpt><trkpt lat="37.138386255635005" lon="14.222013892869368"><ele>82.0</ele><time>2026-03-29T14:18:28Z</time></trkpt><trkpt lat="37.13852111560113" lon="14.222090852131906"><ele>82.0</ele><time>2026-03-29T14:18:29Z</time></trkpt><trkpt lat="37.13866668789647" lon="14.222130479121429"><ele>82.0</ele><time>2026-03-29T14:18:30Z</time></trkpt><trkpt lat="37.13882263385776" lon="14.222125303711335"><ele>82.0</ele><time>2026-03-29T14:18:31Z</time></trkpt><trkpt lat="37.13897624072459" lon="14.222084575552623"><ele>82.0</ele><time>2026-03-29T14:18:32Z</time></trkpt><trkpt lat="37.13912529696764" lon="14.222000794379586"><ele>83.33333333333333</ele><time>2026-03-29T14:18:33Z</time></trkpt><trkpt lat="37.13927677249176" lon="14.221889437290425"><ele>84.66666666666667</ele><time>2026-03-29T14:18:34Z</time></trkpt><trkpt lat="37.13943282435614" lon="14.221773781603622"><ele>86.0</ele><time>2026-03-29T14:18:35Z</time></trkpt><trkpt lat="37.13959564520224" lon="14.221659528413063"><ele>86.0</ele><time>2026-03-29T14:18:36Z</time></trkpt><trkpt lat="37.13976073401913" lon="14.221545541707416"><ele>86.0</ele><time>2026-03-29T14:18:37Z</time></trkpt><trkpt lat="37.139922306638326" lon="14.221437615762614"><ele>86.0</ele><time>2026-03-29T14:18:38Z</time></trkpt><trkpt lat="37.1400740634667" lon="14.221349197102134"><ele>86.66666666666667</ele><time>2026-03-29T14:18:39Z</time></trkpt><trkpt lat="37.14022419070308" lon="14.22129179138589"><ele>87.33333333333333</ele><time>2026-03-29T14:18:40Z</time></trkpt><trkpt lat="37.1403860710189" lon="14.221265369748512"><ele>88.0</ele><time>2026-03-29T14:18:41Z</time></trkpt><trkpt lat="37.14055419176545" lon="14.221262305720154"><ele>90.0</ele><time>2026-03-29T14:18:42Z</time></trkpt><trkpt lat="37.140722448425976" lon="14.221270033029263"><ele>92.0</ele><time>2026-03-29T14:18:43Z</time></trkpt><trkpt lat="37.14087657638677" lon="14.221273582489927"><ele>94.0</ele><time>2026-03-29T14:18:44Z</time></trkpt><trkpt lat="37.14102183170623" lon="14.221249371058299"><ele>94.0</ele><time>2026-03-29T14:18:45Z</time></trkpt><trkpt lat="37.141160553177954" lon="14.221187867712063"><ele>94.0</ele><time>2026-03-29T14:18:46Z</time></trkpt><trkpt lat="37.14127800710565" lon="14.221081287483852"><ele>94.0</ele><time>2026-03-29T14:18:47Z</time></trkpt><trkpt lat="37.141375416217414" lon="14.220933775500402"><ele>94.0</ele><time>2026-03-29T14:18:48Z</time></trkpt><trkpt lat="37.14146546220744" lon="14.2207651040122"><ele>97.25</ele><time>2026-03-29T14:18:49Z</time></trkpt><trkpt lat="37.14155091107773" lon="14.220612329202723"><ele>100.5</ele><time>2026-03-29T14:18:50Z</time></trkpt><trkpt lat="37.141608548823626" lon="14.220450369498057"><ele>103.75</ele><time>2026-03-29T14:18:51Z</time></trkpt><trkpt lat="37.14163037030459" lon="14.220257968620436"><ele>107.0</ele><time>2026-03-29T14:18:52Z</time></trkpt><trkpt lat="37.14161645767162" lon="14.220054910184109"><ele>107.0</ele><time>2026-03-29T14:18:53Z</time></trkpt><trkpt lat="37.14159986883075" lon="14.219848900115043"><ele>107.0</ele><time>2026-03-29T14:18:54Z</time></trkpt><trkpt lat="37.14160840407513" lon="14.21964410519544"><ele>107.0</ele><time>2026-03-29T14:18:55Z</time></trkpt><trkpt lat="37.14165133177979" lon="14.219438436016363"><ele>107.66666666666666</ele><time>2026-03-29T14:18:56Z</time></trkpt><trkpt lat="37.14171914877597" lon="14.219249976751673"><ele>108.33333333333334</ele><time>2026-03-29T14:18:57Z</time></trkpt><trkpt lat="37.141822583170075" lon="14.219087745053967"><ele>109.0</ele><time>2026-03-29T14:18:58Z</time></trkpt><trkpt lat="37.141912244530744" lon="14.218906550788304"><ele>107.0</ele><time>2026-03-29T14:18:59Z</time></trkpt><trkpt lat="37.142023706686516" lon="14.218736629954101"><ele>105.0</ele><time>2026-03-29T14:19:00Z</time></trkpt><trkpt lat="37.14213824032" lon="14.218568397441304"><ele>103.0</ele><time>2026-03-29T14:19:01Z</time></trkpt><trkpt lat="37.14225372857952" lon="14.218408417476514"><ele>103.0</ele><time>2026-03-29T14:19:02.001Z</time></trkpt><trkpt lat="37.142380835358516" lon="14.218270842183387"><ele>103.0</ele><time>2026-03-29T14:19:03.001Z</time></trkpt><trkpt lat="37.142524726322584" lon="14.21816338504144"><ele>103.0</ele><time>2026-03-29T14:19:04.001Z</time></trkpt><trkpt lat="37.142688457129886" lon="14.218110942419987"><ele>107.33333333333334</ele><time>2026-03-29T14:19:05.001Z</time></trkpt><trkpt lat="37.14284059788113" lon="14.218043947294294"><ele>111.66666666666666</ele><time>2026-03-29T14:19:06.001Z</time></trkpt><trkpt lat="37.14295140481188" lon="14.21787816883911"><ele>116.0</ele><time>2026-03-29T14:19:07.001Z</time></trkpt><trkpt lat="37.143066395629155" lon="14.217737864125185"><ele>116.0</ele><time>2026-03-29T14:19:08.001Z</time></trkpt><trkpt lat="37.14319460784467" lon="14.217642396112112"><ele>116.0</ele><time>2026-03-29T14:19:09.001Z</time></trkpt><trkpt lat="37.14333288853814" lon="14.21761127798016"><ele>116.0</ele><time>2026-03-29T14:19:10.001Z</time></trkpt><trkpt lat="37.14347055772263" lon="14.21763676329788"><ele>116.0</ele><time>2026-03-29T14:19:11.001Z</time></trkpt><trkpt lat="37.143594377495134" lon="14.217728516471745"><ele>119.33333333333333</ele><time>2026-03-29T14:19:12.001Z</time></trkpt><trkpt lat="37.14373674987538" lon="14.217820621354587"><ele>122.66666666666666</ele><time>2026-03-29T14:19:13.001Z</time></trkpt><trkpt lat="37.14387450058626" lon="14.217950792306222"><ele>126.0</ele><time>2026-03-29T14:19:14.001Z</time></trkpt><trkpt lat="37.144028940241014" lon="14.218072711039142"><ele>130.66666666666666</ele><time>2026-03-29T14:19:15.001Z</time></trkpt><trkpt lat="37.14420210817393" lon="14.218173162754828"><ele>135.33333333333331</ele><time>2026-03-29T14:19:16.001Z</time></trkpt><trkpt lat="37.14438822761473" lon="14.218249838583626"><ele>140.0</ele><time>2026-03-29T14:19:17.001Z</time></trkpt><trkpt lat="37.144576160555054" lon="14.218323175203473"><ele>140.0</ele><time>2026-03-29T14:19:18.001Z</time></trkpt><trkpt lat="37.144751372339925" lon="14.218399613377741"><ele>140.0</ele><time>2026-03-29T14:19:19.001Z</time></trkpt><trkpt lat="37.1449210722903" lon="14.218472845515125"><ele>140.0</ele><time>2026-03-29T14:19:20.001Z</time></trkpt><trkpt lat="37.14508466950353" lon="14.218524901612891"><ele>139.33333333333331</ele><time>2026-03-29T14:19:21.001Z</time></trkpt><trkpt lat="37.14524934067305" lon="14.218536825497976"><ele>138.66666666666666</ele><time>2026-03-29T14:19:22.001Z</time></trkpt><trkpt lat="37.14542041450086" lon="14.218521547008308"><ele>138.0</ele><time>2026-03-29T14:19:23.001Z</time></trkpt><trkpt lat="37.14559149975338" lon="14.218467759203257"><ele>141.0</ele><time>2026-03-29T14:19:24.001Z</time></trkpt><trkpt lat="37.14575575213912" lon="14.218377865036665"><ele>144.0</ele><time>2026-03-29T14:19:25.001Z</time></trkpt><trkpt lat="37.14590334022821" lon="14.218256131763235"><ele>147.0</ele><time>2026-03-29T14:19:26.001Z</time></trkpt><trkpt lat="37.14603064253047" lon="14.218094392858218"><ele>148.66666666666666</ele><time>2026-03-29T14:19:27.001Z</time></trkpt><trkpt lat="37.14613143894623" lon="14.21791313877698"><ele>150.33333333333331</ele><time>2026-03-29T14:19:28.001Z</time></trkpt><trkpt lat="37.1462083495007" lon="14.217710406682542"><ele>152.0</ele><time>2026-03-29T14:19:29.001Z</time></trkpt><trkpt lat="37.14625871824349" lon="14.217481072108132"><ele>153.33333333333331</ele><time>2026-03-29T14:19:30.001Z</time></trkpt><trkpt lat="37.14628978868947" lon="14.217242312989958"><ele>154.66666666666666</ele><time>2026-03-29T14:19:31.001Z</time></trkpt><trkpt lat="37.146316818805495" lon="14.217003458318665"><ele>156.0</ele><time>2026-03-29T14:19:32.001Z</time></trkpt><trkpt lat="37.14635698673818" lon="14.216770524641298"><ele>156.0</ele><time>2026-03-29T14:19:33.001Z</time></trkpt><trkpt lat="37.14642456696239" lon="14.21656501149227"><ele>156.0</ele><time>2026-03-29T14:19:34.001Z</time></trkpt><trkpt lat="37.14651944247434" lon="14.21635445541479"><ele>156.0</ele><time>2026-03-29T14:19:35.001Z</time></trkpt><trkpt lat="37.14663450213847" lon="14.216148776846692"><ele>161.0</ele><time>2026-03-29T14:19:36.001Z</time></trkpt><trkpt lat="37.14676844979073" lon="14.215947517765212"><ele>166.0</ele><time>2026-03-29T14:19:37.001Z</time></trkpt><trkpt lat="37.14690649220137" lon="14.215745207974672"><ele>171.0</ele><time>2026-03-29T14:19:38.001Z</time></trkpt><trkpt lat="37.1470414675426" lon="14.215545754908293"><ele>172.66666666666666</ele><time>2026-03-29T14:19:39.001Z</time></trkpt><trkpt lat="37.14717747987736" lon="14.215346605418446"><ele>174.33333333333331</ele><time>2026-03-29T14:19:39.998Z</time></trkpt><trkpt lat="37.14731280174306" lon="14.215148517353855"><ele>176.0</ele><time>2026-03-29T14:19:40.998Z</time></trkpt><trkpt lat="37.147441492186914" lon="14.214955509168963"><ele>174.33333333333331</ele><time>2026-03-29T14:19:41.998Z</time></trkpt><trkpt lat="37.14756883756281" lon="14.214765289573958"><ele>172.66666666666666</ele><time>2026-03-29T14:19:42.998Z</time></trkpt><trkpt lat="37.147698046853876" lon="14.214585844377897"><ele>171.0</ele><time>2026-03-29T14:19:43.998Z</time></trkpt><trkpt lat="37.14783668585617" lon="14.214429076950989"><ele>171.0</ele><time>2026-03-29T14:19:44.998Z</time></trkpt><trkpt lat="37.14799719183211" lon="14.214293842233994"><ele>171.0</ele><time>2026-03-29T14:19:45.998Z</time></trkpt><trkpt lat="37.14817153149299" lon="14.214181913828538"><ele>171.0</ele><time>2026-03-29T14:19:46.998Z</time></trkpt><trkpt lat="37.148356672088624" lon="14.214103463538493"><ele>173.66666666666666</ele><time>2026-03-29T14:19:47.998Z</time></trkpt><trkpt lat="37.14855354721482" lon="14.21405540600162"><ele>176.33333333333331</ele><time>2026-03-29T14:19:48.998Z</time></trkpt><trkpt lat="37.14876009004339" lon="14.214030542375383"><ele>179.0</ele><time>2026-03-29T14:19:49.998Z</time></trkpt><trkpt lat="37.1489766973465" lon="14.214017870946572"><ele>180.33333333333331</ele><time>2026-03-29T14:19:50.998Z</time></trkpt><trkpt lat="37.14919509297077" lon="14.214001630018725"><ele>181.66666666666666</ele><time>2026-03-29T14:19:51.998Z</time></trkpt><trkpt lat="37.14940730685946" lon="14.213984567809032"><ele>183.0</ele><time>2026-03-29T14:19:52.998Z</time></trkpt><trkpt lat="37.14961204238085" lon="14.21396376940177"><ele>184.33333333333334</ele><time>2026-03-29T14:19:53.998Z</time></trkpt><trkpt lat="37.14980384849424" lon="14.213940371308972"><ele>185.66666666666669</ele><time>2026-03-29T14:19:54.998Z</time></trkpt><trkpt lat="37.14999122343772" lon="14.213903498598215"><ele>187.0</ele><time>2026-03-29T14:19:55.998Z</time></trkpt><trkpt lat="37.15017508889119" lon="14.21383167320463"><ele>188.0</ele><time>2026-03-29T14:19:56.999Z</time></trkpt><trkpt lat="37.15034934618432" lon="14.213729404153696"><ele>189.0</ele><time>2026-03-29T14:19:57.999Z</time></trkpt><trkpt lat="37.150520933255564" lon="14.213619882838405"><ele>190.0</ele><time>2026-03-29T14:19:58.999Z</time></trkpt><trkpt lat="37.15069657073114" lon="14.213519244529754"><ele>189.33333333333334</ele><time>2026-03-29T14:19:59.999Z</time></trkpt><trkpt lat="37.1508699592078" lon="14.213417238609894"><ele>188.66666666666666</ele><time>2026-03-29T14:20:00.999Z</time></trkpt><trkpt lat="37.15103827379898" lon="14.21331608891961"><ele>188.0</ele><time>2026-03-29T14:20:01.999Z</time></trkpt><trkpt lat="37.151203303960585" lon="14.21322083493764"><ele>191.33333333333331</ele><time>2026-03-29T14:20:02.999Z</time></trkpt><trkpt lat="37.151367679362835" lon="14.21312756316181"><ele>194.66666666666666</ele><time>2026-03-29T14:20:03.999Z</time></trkpt><trkpt lat="37.15152927074073" lon="14.213036878405253"><ele>198.0</ele><time>2026-03-29T14:20:04.999Z</time></trkpt><trkpt lat="37.15168354837465" lon="14.212945935863177"><ele>198.0</ele><time>2026-03-29T14:20:05.999Z</time></trkpt><trkpt lat="37.15182759622653" lon="14.21284881021743"><ele>198.0</ele><time>2026-03-29T14:20:06.999Z</time></trkpt><trkpt lat="37.15196343670175" lon="14.212743467175109"><ele>198.0</ele><time>2026-03-29T14:20:07.999Z</time></trkpt><trkpt lat="37.1520870585048" lon="14.212617153781869"><ele>198.0</ele><time>2026-03-29T14:20:08.999Z</time></trkpt><trkpt lat="37.15220301988818" lon="14.212465694475036"><ele>198.0</ele><time>2026-03-29T14:20:09.999Z</time></trkpt><trkpt lat="37.15230978302022" lon="14.212301823477144"><ele>198.0</ele><time>2026-03-29T14:20:10.999Z</time></trkpt><trkpt lat="37.152413290096405" lon="14.212135871424751"><ele>197.33333333333331</ele><time>2026-03-29T14:20:11.999Z</time></trkpt><trkpt lat="37.15250250562454" lon="14.211979122858112"><ele>196.66666666666666</ele><time>2026-03-29T14:20:12.999Z</time></trkpt><trkpt lat="37.15256768681276" lon="14.211802134868137"><ele>196.0</ele><time>2026-03-29T14:20:13.999Z</time></trkpt><trkpt lat="37.152610837948934" lon="14.211602991021422"><ele>196.33333333333331</ele><time>2026-03-29T14:20:14.999Z</time></trkpt><trkpt lat="37.15262965320596" lon="14.211393339448705"><ele>196.66666666666669</ele><time>2026-03-29T14:20:16Z</time></trkpt><trkpt lat="37.15263772650592" lon="14.211181387479071"><ele>197.0</ele><time>2026-03-29T14:20:17Z</time></trkpt><trkpt lat="37.15262562437814" lon="14.210969757084357"><ele>197.0</ele><time>2026-03-29T14:20:18Z</time></trkpt><trkpt lat="37.15258956062003" lon="14.210766196463043"><ele>197.0</ele><time>2026-03-29T14:20:19Z</time></trkpt><trkpt lat="37.15252926673084" lon="14.210570458229082"><ele>197.0</ele><time>2026-03-29T14:20:20Z</time></trkpt><trkpt lat="37.15244530475888" lon="14.210384267176181"><ele>201.0</ele><time>2026-03-29T14:20:21Z</time></trkpt><trkpt lat="37.15234044020427" lon="14.210213560465132"><ele>205.0</ele><time>2026-03-29T14:20:22Z</time></trkpt><trkpt lat="37.15221825617458" lon="14.21005239919076"><ele>209.0</ele><time>2026-03-29T14:20:23Z</time></trkpt><trkpt lat="37.15207327299399" lon="14.209900356725225"><ele>204.33333333333334</ele><time>2026-03-29T14:20:24Z</time></trkpt><trkpt lat="37.151920750807214" lon="14.209749570578593"><ele>199.66666666666669</ele><time>2026-03-29T14:20:25Z</time></trkpt><trkpt lat="37.151768770948955" lon="14.209597934327467"><ele>195.0</ele><time>2026-03-29T14:20:26Z</time></trkpt><trkpt lat="37.151626414013904" lon="14.209438786893012"><ele>199.66666666666669</ele><time>2026-03-29T14:20:27Z</time></trkpt><trkpt lat="37.151503634990654" lon="14.20927797162068"><ele>204.33333333333334</ele><time>2026-03-29T14:20:28Z</time></trkpt><trkpt lat="37.15139825571259" lon="14.20912254232055"><ele>209.0</ele><time>2026-03-29T14:20:29Z</time></trkpt><trkpt lat="37.15130811656518" lon="14.208975996788894"><ele>209.25</ele><time>2026-03-29T14:20:30Z</time></trkpt><trkpt lat="37.1512356659234" lon="14.208826118976274"><ele>209.5</ele><time>2026-03-29T14:20:31Z</time></trkpt><trkpt lat="37.151202796036564" lon="14.208665111196638"><ele>209.75</ele><time>2026-03-29T14:20:32Z</time></trkpt><trkpt lat="37.1512273530689" lon="14.208490939921433"><ele>210.0</ele><time>2026-03-29T14:20:33Z</time></trkpt><trkpt lat="37.15124048728329" lon="14.208292368456895"><ele>212.66666666666669</ele><time>2026-03-29T14:20:34Z</time></trkpt><trkpt lat="37.15128300300221" lon="14.208074056544632"><ele>215.33333333333334</ele><time>2026-03-29T14:20:35Z</time></trkpt><trkpt lat="37.151320531578875" lon="14.207849882450931"><ele>218.0</ele><time>2026-03-29T14:20:36Z</time></trkpt><trkpt lat="37.151357717283496" lon="14.207625980229603"><ele>218.0</ele><time>2026-03-29T14:20:37Z</time></trkpt><trkpt lat="37.151393196416464" lon="14.207412067748924"><ele>218.0</ele><time>2026-03-29T14:20:38Z</time></trkpt><trkpt lat="37.15142821234668" lon="14.207205297831514"><ele>218.0</ele><time>2026-03-29T14:20:39Z</time></trkpt><trkpt lat="37.15145912295728" lon="14.207010467149514"><ele>216.75</ele><time>2026-03-29T14:20:40Z</time></trkpt><trkpt lat="37.15148767347808" lon="14.20682501906126"><ele>215.5</ele><time>2026-03-29T14:20:41Z</time></trkpt><trkpt lat="37.15151247399744" lon="14.206655220717934"><ele>214.25</ele><time>2026-03-29T14:20:42Z</time></trkpt><trkpt lat="37.15153759324702" lon="14.20650408025431"><ele>213.0</ele><time>2026-03-29T14:20:43Z</time></trkpt><trkpt lat="37.151578307144945" lon="14.20636744970247"><ele>210.25</ele><time>2026-03-29T14:20:44Z</time></trkpt><trkpt lat="37.15164734962477" lon="14.206258866080644"><ele>207.5</ele><time>2026-03-29T14:20:45Z</time></trkpt><trkpt lat="37.15174561146628" lon="14.20620190795233"><ele>204.75</ele><time>2026-03-29T14:20:46Z</time></trkpt><trkpt lat="37.15185663667283" lon="14.206188499025007"><ele>202.0</ele><time>2026-03-29T14:20:47Z</time></trkpt><trkpt lat="37.15197947757623" lon="14.206202862933988"><ele>202.0</ele><time>2026-03-29T14:20:48.001Z</time></trkpt><trkpt lat="37.1520955124034" lon="14.206209857740854"><ele>202.0</ele><time>2026-03-29T14:20:49.001Z</time></trkpt><trkpt lat="37.15219371717882" lon="14.206183960953416"><ele>202.0</ele><time>2026-03-29T14:20:50.001Z</time></trkpt><trkpt lat="37.15227624718895" lon="14.206113384978467"><ele>202.0</ele><time>2026-03-29T14:20:51.001Z</time></trkpt><trkpt lat="37.152326669223754" lon="14.205992859180572"><ele>202.0</ele><time>2026-03-29T14:20:52.001Z</time></trkpt><trkpt lat="37.15234044832124" lon="14.205839051626484"><ele>202.0</ele><time>2026-03-29T14:20:53.001Z</time></trkpt><trkpt lat="37.152324090003475" lon="14.205668068891692"><ele>202.0</ele><time>2026-03-29T14:20:54.001Z</time></trkpt><trkpt lat="37.152323512978285" lon="14.20550223709214"><ele>202.0</ele><time>2026-03-29T14:20:55.001Z</time></trkpt><trkpt lat="37.15233785196782" lon="14.205313397291926"><ele>202.0</ele><time>2026-03-29T14:20:56.001Z</time></trkpt><trkpt lat="37.15239886101207" lon="14.205111116449814"><ele>199.0</ele><time>2026-03-29T14:20:57.001Z</time></trkpt><trkpt lat="37.15243823253246" lon="14.204909330794658"><ele>196.0</ele><time>2026-03-29T14:20:58.001Z</time></trkpt><trkpt lat="37.15247417847155" lon="14.20472675697548"><ele>193.0</ele><time>2026-03-29T14:20:59.001Z</time></trkpt><trkpt lat="37.15251038337706" lon="14.20456430604468"><ele>192.75</ele><time>2026-03-29T14:21:00.001Z</time></trkpt><trkpt lat="37.15254472912115" lon="14.204417556888481"><ele>192.5</ele><time>2026-03-29T14:21:01.001Z</time></trkpt><trkpt lat="37.15263741486612" lon="14.204329793840902"><ele>192.25</ele><time>2026-03-29T14:21:02.001Z</time></trkpt><trkpt lat="37.152748800199596" lon="14.204296442370488"><ele>192.0</ele><time>2026-03-29T14:21:03.001Z</time></trkpt><trkpt lat="37.15285857640557" lon="14.20436485343079"><ele>192.0</ele><time>2026-03-29T14:21:04.001Z</time></trkpt><trkpt lat="37.15300150960717" lon="14.204421032616258"><ele>192.0</ele><time>2026-03-29T14:21:05.001Z</time></trkpt><trkpt lat="37.15316316672214" lon="14.204500206828289"><ele>192.0</ele><time>2026-03-29T14:21:06.001Z</time></trkpt><trkpt lat="37.15334217133017" lon="14.20457285144714"><ele>193.33333333333331</ele><time>2026-03-29T14:21:07.001Z</time></trkpt><trkpt lat="37.15353330417752" lon="14.204653411882898"><ele>194.66666666666666</ele><time>2026-03-29T14:21:08.001Z</time></trkpt><trkpt lat="37.15373542105431" lon="14.2047372456843"><ele>196.0</ele><time>2026-03-29T14:21:09.001Z</time></trkpt><trkpt lat="37.15394022577178" lon="14.204825269535043"><ele>195.33333333333331</ele><time>2026-03-29T14:21:10.001Z</time></trkpt><trkpt lat="37.15414997576467" lon="14.204914361581503"><ele>194.66666666666669</ele><time>2026-03-29T14:21:11.001Z</time></trkpt><trkpt lat="37.15436338389121" lon="14.2050015214633"><ele>194.0</ele><time>2026-03-29T14:21:12.001Z</time></trkpt><trkpt lat="37.154575173644695" lon="14.205088908048426"><ele>194.0</ele><time>2026-03-29T14:21:13.001Z</time></trkpt><trkpt lat="37.15478301076341" lon="14.20517330743684"><ele>194.0</ele><time>2026-03-29T14:21:14.001Z</time></trkpt><trkpt lat="37.15498717488239" lon="14.205259359931686"><ele>194.0</ele><time>2026-03-29T14:21:15.001Z</time></trkpt><trkpt lat="37.15519212210322" lon="14.205345650951234"><ele>195.0</ele><time>2026-03-29T14:21:16.001Z</time></trkpt><trkpt lat="37.1553944632782" lon="14.205430084021394"><ele>196.0</ele><time>2026-03-29T14:21:17.001Z</time></trkpt><trkpt lat="37.15559234579724" lon="14.205515856559941"><ele>197.0</ele><time>2026-03-29T14:21:18.001Z</time></trkpt><trkpt lat="37.155788167282616" lon="14.205601977163667"><ele>198.33333333333334</ele><time>2026-03-29T14:21:19.001Z</time></trkpt><trkpt lat="37.15598277387447" lon="14.205683548601566"><ele>199.66666666666669</ele><time>2026-03-29T14:21:20.001Z</time></trkpt><trkpt lat="37.156175546370164" lon="14.205763931170079"><ele>201.0</ele><time>2026-03-29T14:21:21.001Z</time></trkpt><trkpt lat="37.15636601796719" lon="14.20584580766051"><ele>202.33333333333331</ele><time>2026-03-29T14:21:22.001Z</time></trkpt><trkpt lat="37.15655830501998" lon="14.205927175045131"><ele>203.66666666666666</ele><time>2026-03-29T14:21:23.001Z</time></trkpt><trkpt lat="37.15675390612923" lon="14.206008367470421"><ele>205.0</ele><time>2026-03-29T14:21:24.001Z</time></trkpt><trkpt lat="37.156953169487714" lon="14.206089808452875"><ele>205.0</ele><time>2026-03-29T14:21:25.001Z</time></trkpt><trkpt lat="37.15715193520033" lon="14.206172240523543"><ele>205.0</ele><time>2026-03-29T14:21:26.001Z</time></trkpt><trkpt lat="37.157346588199644" lon="14.206258179869533"><ele>205.0</ele><time>2026-03-29T14:21:27.002Z</time></trkpt><trkpt lat="37.1575358760235" lon="14.206355260501237"><ele>205.33333333333331</ele><time>2026-03-29T14:21:28.002Z</time></trkpt><trkpt lat="37.157723756616036" lon="14.206474493985127"><ele>205.66666666666669</ele><time>2026-03-29T14:21:29.002Z</time></trkpt><trkpt lat="37.157910279922355" lon="14.206614543577324"><ele>206.0</ele><time>2026-03-29T14:21:30.002Z</time></trkpt><trkpt lat="37.15810054966907" lon="14.206762761405226"><ele>208.66666666666669</ele><time>2026-03-29T14:21:31.002Z</time></trkpt><trkpt lat="37.15828670115333" lon="14.206908511085103"><ele>211.33333333333331</ele><time>2026-03-29T14:21:32.002Z</time></trkpt><trkpt lat="37.15845676772374" lon="14.207038435604083"><ele>214.0</ele><time>2026-03-29T14:21:33.002Z</time></trkpt><trkpt lat="37.15861458129847" lon="14.207163989957749"><ele>214.0</ele><time>2026-03-29T14:21:34.002Z</time></trkpt><trkpt lat="37.15875591629733" lon="14.207272255407283"><ele>214.0</ele><time>2026-03-29T14:21:35.002Z</time></trkpt><trkpt lat="37.15889182288724" lon="14.207360819527208"><ele>214.0</ele><time>2026-03-29T14:21:36.002Z</time></trkpt><trkpt lat="37.15904662439142" lon="14.207422875524724"><ele>214.33333333333331</ele><time>2026-03-29T14:21:37.002Z</time></trkpt><trkpt lat="37.15921176328209" lon="14.207429133160112"><ele>214.66666666666669</ele><time>2026-03-29T14:21:38.002Z</time></trkpt><trkpt lat="37.159373665946084" lon="14.207381619195727"><ele>215.0</ele><time>2026-03-29T14:21:39.002Z</time></trkpt><trkpt lat="37.159524694138675" lon="14.207298052957935"><ele>216.0</ele><time>2026-03-29T14:21:40.002Z</time></trkpt><trkpt lat="37.15966568112857" lon="14.207210136477832"><ele>217.0</ele><time>2026-03-29T14:21:41.002Z</time></trkpt><trkpt lat="37.15979093080644" lon="14.207130776847993"><ele>218.0</ele><time>2026-03-29T14:21:42.002Z</time></trkpt><trkpt lat="37.159908472366965" lon="14.20705965792974"><ele>219.0</ele><time>2026-03-29T14:21:43.002Z</time></trkpt><trkpt lat="37.16001654813264" lon="14.206994488191317"><ele>219.5</ele><time>2026-03-29T14:21:44.002Z</time></trkpt><trkpt lat="37.16011430649989" lon="14.206936342085037"><ele>220.0</ele><time>2026-03-29T14:21:44.999Z</time></trkpt><trkpt lat="37.16019934434648" lon="14.206887433740038"><ele>220.5</ele><time>2026-03-29T14:21:45.999Z</time></trkpt><trkpt lat="37.16027031043488" lon="14.20684600717863"><ele>221.0</ele><time>2026-03-29T14:21:46.999Z</time></trkpt><trkpt lat="37.16033296146088" lon="14.206810655601828"><ele>221.5</ele><time>2026-03-29T14:21:47.999Z</time></trkpt><trkpt lat="37.16042107082192" lon="14.206754726557342"><ele>222.0</ele><time>2026-03-29T14:21:49.999Z</time></trkpt><trkpt lat="37.16047965439181" lon="14.20672031352902"><ele>222.0</ele><time>2026-03-29T14:22:22Z</time></trkpt><trkpt lat="37.160587684939266" lon="14.206641302679817"><ele>222.0</ele><time>2026-03-29T14:22:24Z</time></trkpt><trkpt lat="37.160661989427744" lon="14.206596422142848"><ele>222.0</ele><time>2026-03-29T14:22:25Z</time></trkpt><trkpt lat="37.16074655335086" lon="14.206548715649337"><ele>222.0</ele><time>2026-03-29T14:22:26Z</time></trkpt><trkpt lat="37.160831655618345" lon="14.20649796934422"><ele>222.0</ele><time>2026-03-29T14:22:27Z</time></trkpt><trkpt lat="37.160911431386204" lon="14.206447760555452"><ele>224.16666666666666</ele><time>2026-03-29T14:22:28Z</time></trkpt><trkpt lat="37.16098692737217" lon="14.20640034203352"><ele>226.33333333333331</ele><time>2026-03-29T14:22:29Z</time></trkpt><trkpt lat="37.161055374240455" lon="14.206343980364451"><ele>228.5</ele><time>2026-03-29T14:22:30Z</time></trkpt><trkpt lat="37.16113810119282" lon="14.206316468441129"><ele>230.66666666666666</ele><time>2026-03-29T14:22:31Z</time></trkpt><trkpt lat="37.161216708345044" lon="14.206268525027037"><ele>232.83333333333331</ele><time>2026-03-29T14:22:32.001Z</time></trkpt><trkpt lat="37.16130166463347" lon="14.206216709190587"><ele>235.0</ele><time>2026-03-29T14:22:33.001Z</time></trkpt><trkpt lat="37.161392332643594" lon="14.206161409705162"><ele>235.0</ele><time>2026-03-29T14:22:34.001Z</time></trkpt><trkpt lat="37.161494304447935" lon="14.206099215918673"><ele>235.0</ele><time>2026-03-29T14:22:35.001Z</time></trkpt><trkpt lat="37.16160382438965" lon="14.206032418432885"><ele>235.0</ele><time>2026-03-29T14:22:36.001Z</time></trkpt><trkpt lat="37.1617171928005" lon="14.205963050043257"><ele>235.0</ele><time>2026-03-29T14:22:37.001Z</time></trkpt><trkpt lat="37.16182811420624" lon="14.205893788079464"><ele>233.4</ele><time>2026-03-29T14:22:38.001Z</time></trkpt><trkpt lat="37.16191369073533" lon="14.2058403520246"><ele>231.8</ele><time>2026-03-29T14:22:39.001Z</time></trkpt><trkpt lat="37.16199958555345" lon="14.205784728905044"><ele>230.2</ele><time>2026-03-29T14:22:40.001Z</time></trkpt><trkpt lat="37.162094054203514" lon="14.205694512877228"><ele>228.6</ele><time>2026-03-29T14:22:41.001Z</time></trkpt><trkpt lat="37.162173449647014" lon="14.205552031761822"><ele>227.0</ele><time>2026-03-29T14:22:42.001Z</time></trkpt><trkpt lat="37.16220252456031" lon="14.205377283986971"><ele>227.0</ele><time>2026-03-29T14:22:43.001Z</time></trkpt><trkpt lat="37.162180692754376" lon="14.205200758727948"><ele>227.0</ele><time>2026-03-29T14:22:44.001Z</time></trkpt><trkpt lat="37.16218002837612" lon="14.205062255002199"><ele>227.0</ele><time>2026-03-29T14:22:45.001Z</time></trkpt><trkpt lat="37.16218033536593" lon="14.20491367475032"><ele>227.0</ele><time>2026-03-29T14:22:46.001Z</time></trkpt><trkpt lat="37.16222815258153" lon="14.204774362581396"><ele>225.25</ele><time>2026-03-29T14:22:47.001Z</time></trkpt><trkpt lat="37.16228744661387" lon="14.204640896899658"><ele>223.5</ele><time>2026-03-29T14:22:48.001Z</time></trkpt><trkpt lat="37.1623702580581" lon="14.204527931286837"><ele>221.75</ele><time>2026-03-29T14:22:49.001Z</time></trkpt><trkpt lat="37.162491093658325" lon="14.204467459893742"><ele>220.0</ele><time>2026-03-29T14:22:50.001Z</time></trkpt><trkpt lat="37.16262830204951" lon="14.20437723725898"><ele>220.0</ele><time>2026-03-29T14:22:51.001Z</time></trkpt><trkpt lat="37.162791321721464" lon="14.20431098491507"><ele>220.0</ele><time>2026-03-29T14:22:52.001Z</time></trkpt><trkpt lat="37.162945000989374" lon="14.204242839030561"><ele>220.0</ele><time>2026-03-29T14:22:53.001Z</time></trkpt><trkpt lat="37.16308351051881" lon="14.204168942059873"><ele>220.75</ele><time>2026-03-29T14:22:54.001Z</time></trkpt><trkpt lat="37.16319836404927" lon="14.204059063705365"><ele>221.5</ele><time>2026-03-29T14:22:55.001Z</time></trkpt><trkpt lat="37.163299358582144" lon="14.203929279676615"><ele>222.25</ele><time>2026-03-29T14:22:56.001Z</time></trkpt><trkpt lat="37.16339003434299" lon="14.203796283062127"><ele>223.0</ele><time>2026-03-29T14:22:57.001Z</time></trkpt><trkpt lat="37.16349982524075" lon="14.20368022785482"><ele>223.0</ele><time>2026-03-29T14:22:58.001Z</time></trkpt><trkpt lat="37.16362678039643" lon="14.203580902574073"><ele>223.0</ele><time>2026-03-29T14:22:59.001Z</time></trkpt><trkpt lat="37.1637687256525" lon="14.203500916907247"><ele>223.0</ele><time>2026-03-29T14:23:00.001Z</time></trkpt><trkpt lat="37.163908144345804" lon="14.203410624935604"><ele>222.66666666666666</ele><time>2026-03-29T14:23:01.001Z</time></trkpt><trkpt lat="37.16403240125667" lon="14.203286673090554"><ele>222.33333333333331</ele><time>2026-03-29T14:23:02.001Z</time></trkpt><trkpt lat="37.16413760917963" lon="14.20314529972679"><ele>222.0</ele><time>2026-03-29T14:23:03.001Z</time></trkpt><trkpt lat="37.164233553965005" lon="14.203001293076104"><ele>222.0</ele><time>2026-03-29T14:23:04.001Z</time></trkpt><trkpt lat="37.164332386210134" lon="14.202886614074668"><ele>222.0</ele><time>2026-03-29T14:23:05.002Z</time></trkpt><trkpt lat="37.16444547550392" lon="14.202820166840597"><ele>222.0</ele><time>2026-03-29T14:23:06.002Z</time></trkpt><trkpt lat="37.16456717536465" lon="14.202801641055022"><ele>222.0</ele><time>2026-03-29T14:23:07.002Z</time></trkpt><trkpt lat="37.164717746144355" lon="14.202838710615545"><ele>220.25</ele><time>2026-03-29T14:23:08.002Z</time></trkpt><trkpt lat="37.16487555325218" lon="14.202889432796058"><ele>218.5</ele><time>2026-03-29T14:23:09.002Z</time></trkpt><trkpt lat="37.1650181961592" lon="14.20293695251736"><ele>216.75</ele><time>2026-03-29T14:23:10.002Z</time></trkpt><trkpt lat="37.165151198637815" lon="14.202977505570338"><ele>215.0</ele><time>2026-03-29T14:23:11.002Z</time></trkpt><trkpt lat="37.165280811407456" lon="14.203011280169479"><ele>215.0</ele><time>2026-03-29T14:23:12.002Z</time></trkpt><trkpt lat="37.16541920439779" lon="14.203031550064258"><ele>215.0</ele><time>2026-03-29T14:23:13.002Z</time></trkpt><trkpt lat="37.165565853421825" lon="14.203025182484014"><ele>215.0</ele><time>2026-03-29T14:23:14.002Z</time></trkpt><trkpt lat="37.165719436823466" lon="14.202989709373785"><ele>215.0</ele><time>2026-03-29T14:23:15.002Z</time></trkpt><trkpt lat="37.16588090975264" lon="14.202939640590559"><ele>213.33333333333334</ele><time>2026-03-29T14:23:16.002Z</time></trkpt><trkpt lat="37.16605411962019" lon="14.202883989379835"><ele>211.66666666666669</ele><time>2026-03-29T14:23:17.002Z</time></trkpt><trkpt lat="37.16622793394762" lon="14.202831598986615"><ele>210.0</ele><time>2026-03-29T14:23:18.002Z</time></trkpt><trkpt lat="37.166405575402585" lon="14.202778134017228"><ele>207.66666666666669</ele><time>2026-03-29T14:23:19.002Z</time></trkpt><trkpt lat="37.166581509141004" lon="14.202716136964598"><ele>205.33333333333334</ele><time>2026-03-29T14:23:20.002Z</time></trkpt><trkpt lat="37.16676276773035" lon="14.202660234801835"><ele>203.0</ele><time>2026-03-29T14:23:21.002Z</time></trkpt><trkpt lat="37.16694807282804" lon="14.202602264671263"><ele>203.0</ele><time>2026-03-29T14:23:22.002Z</time></trkpt><trkpt lat="37.16713235445054" lon="14.202544691082252"><ele>203.0</ele><time>2026-03-29T14:23:23.002Z</time></trkpt><trkpt lat="37.16731656629585" lon="14.202487572194697"><ele>203.0</ele><time>2026-03-29T14:23:24.002Z</time></trkpt><trkpt lat="37.167500600343885" lon="14.20243029469457"><ele>200.66666666666669</ele><time>2026-03-29T14:23:25.002Z</time></trkpt><trkpt lat="37.16768454475276" lon="14.202373722087305"><ele>198.33333333333331</ele><time>2026-03-29T14:23:26.002Z</time></trkpt><trkpt lat="37.16786930539498" lon="14.202313094175793"><ele>196.0</ele><time>2026-03-29T14:23:27.002Z</time></trkpt><trkpt lat="37.168049450577946" lon="14.202258880780764"><ele>187.66666666666666</ele><time>2026-03-29T14:23:28.002Z</time></trkpt><trkpt lat="37.16822454919923" lon="14.202205300042536"><ele>179.33333333333331</ele><time>2026-03-29T14:23:29.002Z</time></trkpt><trkpt lat="37.16840254374243" lon="14.202154158670643"><ele>171.0</ele><time>2026-03-29T14:23:30.002Z</time></trkpt><trkpt lat="37.16858044073187" lon="14.2021026858191"><ele>171.0</ele><time>2026-03-29T14:23:31.002Z</time></trkpt><trkpt lat="37.168764636445694" lon="14.202050210363725"><ele>171.0</ele><time>2026-03-29T14:23:32.002Z</time></trkpt><trkpt lat="37.16894566975728" lon="14.201995213372408"><ele>171.0</ele><time>2026-03-29T14:23:33.002Z</time></trkpt><trkpt lat="37.169125145430826" lon="14.201938855886088"><ele>166.66666666666666</ele><time>2026-03-29T14:23:34.002Z</time></trkpt><trkpt lat="37.16930863727508" lon="14.201880865063911"><ele>162.33333333333331</ele><time>2026-03-29T14:23:35.002Z</time></trkpt><trkpt lat="37.169494803728654" lon="14.201822879448928"><ele>158.0</ele><time>2026-03-29T14:23:36.002Z</time></trkpt><trkpt lat="37.16968382199288" lon="14.201767356037369"><ele>155.0</ele><time>2026-03-29T14:23:37.002Z</time></trkpt><trkpt lat="37.16987186976643" lon="14.201713080297113"><ele>152.0</ele><time>2026-03-29T14:23:38.002Z</time></trkpt><trkpt lat="37.17006189063792" lon="14.20165896582727"><ele>149.0</ele><time>2026-03-29T14:23:39.002Z</time></trkpt><trkpt lat="37.17025235308676" lon="14.201604783041564"><ele>149.0</ele><time>2026-03-29T14:23:40.003Z</time></trkpt><trkpt lat="37.170443229887766" lon="14.201550018357697"><ele>149.0</ele><time>2026-03-29T14:23:41.003Z</time></trkpt><trkpt lat="37.17063699760442" lon="14.20149418139096"><ele>149.0</ele><time>2026-03-29T14:23:42.003Z</time></trkpt><trkpt lat="37.1708309982588" lon="14.201444527976506"><ele>148.33333333333331</ele><time>2026-03-29T14:23:43.003Z</time></trkpt><trkpt lat="37.17102017401544" lon="14.201400865673508"><ele>147.66666666666666</ele><time>2026-03-29T14:23:44.003Z</time></trkpt><trkpt lat="37.17120740126111" lon="14.201361305900095"><ele>147.0</ele><time>2026-03-29T14:23:45.003Z</time></trkpt><trkpt lat="37.17139687669749" lon="14.201331156643354"><ele>146.33333333333334</ele><time>2026-03-29T14:23:46.003Z</time></trkpt><trkpt lat="37.17158995674334" lon="14.20130322037432"><ele>145.66666666666669</ele><time>2026-03-29T14:23:47.003Z</time></trkpt><trkpt lat="37.1717793206182" lon="14.201281048702972"><ele>145.0</ele><time>2026-03-29T14:23:48.003Z</time></trkpt><trkpt lat="37.17197095889822" lon="14.201258741678613"><ele>145.0</ele><time>2026-03-29T14:23:49.003Z</time></trkpt><trkpt lat="37.17216163790281" lon="14.20123628889269"><ele>145.0</ele><time>2026-03-29T14:23:50.003Z</time></trkpt><trkpt lat="37.17234982528018" lon="14.201209887185096"><ele>145.0</ele><time>2026-03-29T14:23:51Z</time></trkpt><trkpt lat="37.17252944531672" lon="14.201174344092463"><ele>146.66666666666669</ele><time>2026-03-29T14:23:52Z</time></trkpt><trkpt lat="37.17269192821628" lon="14.20112882537141"><ele>148.33333333333334</ele><time>2026-03-29T14:23:53Z</time></trkpt><trkpt lat="37.1728449582085" lon="14.201062349982928"><ele>150.0</ele><time>2026-03-29T14:23:54Z</time></trkpt><trkpt lat="37.17298649435165" lon="14.200966887257009"><ele>150.0</ele><time>2026-03-29T14:23:55Z</time></trkpt><trkpt lat="37.17311867324793" lon="14.200846823784373"><ele>150.0</ele><time>2026-03-29T14:23:56Z</time></trkpt><trkpt lat="37.173233496542274" lon="14.20070285844603"><ele>150.0</ele><time>2026-03-29T14:23:57Z</time></trkpt><trkpt lat="37.17332318701092" lon="14.20053356813978"><ele>154.0</ele><time>2026-03-29T14:23:58Z</time></trkpt><trkpt lat="37.17339836108436" lon="14.200348448963812"><ele>158.0</ele><time>2026-03-29T14:23:59Z</time></trkpt><trkpt lat="37.17345527105815" lon="14.200154191080882"><ele>162.0</ele><time>2026-03-29T14:24:00Z</time></trkpt><trkpt lat="37.17348416734123" lon="14.199954860353715"><ele>165.66666666666666</ele><time>2026-03-29T14:24:01Z</time></trkpt><trkpt lat="37.173499325885494" lon="14.199749328219209"><ele>169.33333333333331</ele><time>2026-03-29T14:24:02Z</time></trkpt><trkpt lat="37.17348356912131" lon="14.19954113954374"><ele>173.0</ele><time>2026-03-29T14:24:03Z</time></trkpt><trkpt lat="37.17344152963257" lon="14.199333748531087"><ele>173.0</ele><time>2026-03-29T14:24:04Z</time></trkpt><trkpt lat="37.173374339365466" lon="14.199137674665671"><ele>173.0</ele><time>2026-03-29T14:24:05Z</time></trkpt><trkpt lat="37.17328060927014" lon="14.198957743117669"><ele>173.0</ele><time>2026-03-29T14:24:06Z</time></trkpt><trkpt lat="37.17316763446803" lon="14.198790317834204"><ele>174.0</ele><time>2026-03-29T14:24:07Z</time></trkpt><trkpt lat="37.17303582624352" lon="14.19864721318805"><ele>175.0</ele><time>2026-03-29T14:24:08Z</time></trkpt><trkpt lat="37.172888635228524" lon="14.198535993355328"><ele>176.0</ele><time>2026-03-29T14:24:09Z</time></trkpt><trkpt lat="37.17272956987741" lon="14.19844449019058"><ele>176.0</ele><time>2026-03-29T14:24:10Z</time></trkpt><trkpt lat="37.17255794768917" lon="14.198406664911802"><ele>176.0</ele><time>2026-03-29T14:24:11Z</time></trkpt><trkpt lat="37.172385860021556" lon="14.198365403192643"><ele>176.0</ele><time>2026-03-29T14:24:12Z</time></trkpt><trkpt lat="37.17221425308768" lon="14.198332315714918"><ele>174.25</ele><time>2026-03-29T14:24:12.999Z</time></trkpt><trkpt lat="37.172060625107626" lon="14.198300158255229"><ele>172.5</ele><time>2026-03-29T14:24:13.999Z</time></trkpt><trkpt lat="37.171924458564234" lon="14.198258178320879"><ele>170.75</ele><time>2026-03-29T14:24:15Z</time></trkpt><trkpt lat="37.1718000530022" lon="14.198206918073778"><ele>169.0</ele><time>2026-03-29T14:24:16Z</time></trkpt><trkpt lat="37.17167010891628" lon="14.198139248459164"><ele>167.75</ele><time>2026-03-29T14:24:17Z</time></trkpt><trkpt lat="37.17155651597272" lon="14.198067791097838"><ele>166.5</ele><time>2026-03-29T14:24:18Z</time></trkpt><trkpt lat="37.17145668155049" lon="14.197992656190806"><ele>165.25</ele><time>2026-03-29T14:24:19Z</time></trkpt><trkpt lat="37.17138490210712" lon="14.197888056071639"><ele>164.0</ele><time>2026-03-29T14:24:20Z</time></trkpt><trkpt lat="37.171343160901976" lon="14.197758166794518"><ele>164.0</ele><time>2026-03-29T14:24:21Z</time></trkpt><trkpt lat="37.17133350418561" lon="14.197609305019057"><ele>164.0</ele><time>2026-03-29T14:24:22Z</time></trkpt><trkpt lat="37.1713543537363" lon="14.197441167739274"><ele>164.0</ele><time>2026-03-29T14:24:23Z</time></trkpt><trkpt lat="37.171390539349844" lon="14.197251424337944"><ele>164.0</ele><time>2026-03-29T14:24:24Z</time></trkpt><trkpt lat="37.17142505322021" lon="14.197048345736256"><ele>165.25</ele><time>2026-03-29T14:24:25Z</time></trkpt><trkpt lat="37.17145916956058" lon="14.196847990501762"><ele>166.5</ele><time>2026-03-29T14:24:26Z</time></trkpt><trkpt lat="37.1714964954375" lon="14.196668804736268"><ele>167.75</ele><time>2026-03-29T14:24:27Z</time></trkpt><trkpt lat="37.17155462943818" lon="14.196519692424868"><ele>169.0</ele><time>2026-03-29T14:24:28Z</time></trkpt><trkpt lat="37.17163767862886" lon="14.19641624442609"><ele>172.25</ele><time>2026-03-29T14:24:29Z</time></trkpt><trkpt lat="37.17176100330918" lon="14.196338600363978"><ele>175.5</ele><time>2026-03-29T14:24:30Z</time></trkpt><trkpt lat="37.17190188421986" lon="14.196282598487697"><ele>178.75</ele><time>2026-03-29T14:24:31Z</time></trkpt><trkpt lat="37.172056692224146" lon="14.196234177836278"><ele>182.0</ele><time>2026-03-29T14:24:32Z</time></trkpt><trkpt lat="37.17221630692617" lon="14.196181082985575"><ele>183.0</ele><time>2026-03-29T14:24:33Z</time></trkpt><trkpt lat="37.17238838847706" lon="14.196123288996432"><ele>184.0</ele><time>2026-03-29T14:24:34Z</time></trkpt><trkpt lat="37.17256718816081" lon="14.196065132396859"><ele>185.0</ele><time>2026-03-29T14:24:35Z</time></trkpt><trkpt lat="37.1727508768669" lon="14.196005268713334"><ele>185.0</ele><time>2026-03-29T14:24:36Z</time></trkpt><trkpt lat="37.17293508165904" lon="14.195943802712966"><ele>185.0</ele><time>2026-03-29T14:24:37Z</time></trkpt><trkpt lat="37.173107388924386" lon="14.195884097697748"><ele>185.0</ele><time>2026-03-29T14:24:38Z</time></trkpt><trkpt lat="37.17326875283718" lon="14.195828137512308"><ele>187.66666666666666</ele><time>2026-03-29T14:24:39Z</time></trkpt><trkpt lat="37.17342699150882" lon="14.195779279242087"><ele>190.33333333333331</ele><time>2026-03-29T14:24:40Z</time></trkpt><trkpt lat="37.17358227035071" lon="14.195752278196377"><ele>193.0</ele><time>2026-03-29T14:24:41Z</time></trkpt><trkpt lat="37.173735555626344" lon="14.195749671835816"><ele>193.0</ele><time>2026-03-29T14:24:42Z</time></trkpt><trkpt lat="37.17388205244677" lon="14.195757177709305"><ele>193.0</ele><time>2026-03-29T14:24:43Z</time></trkpt><trkpt lat="37.17401870489354" lon="14.195742014417371"><ele>193.0</ele><time>2026-03-29T14:24:44Z</time></trkpt><trkpt lat="37.17413983284042" lon="14.195693327624516"><ele>193.0</ele><time>2026-03-29T14:24:45Z</time></trkpt><trkpt lat="37.17425228253087" lon="14.195600962950786"><ele>194.25</ele><time>2026-03-29T14:24:46Z</time></trkpt><trkpt lat="37.17435406109341" lon="14.195479291262707"><ele>195.5</ele><time>2026-03-29T14:24:47.001Z</time></trkpt><trkpt lat="37.174454833510325" lon="14.195357491343461"><ele>196.75</ele><time>2026-03-29T14:24:48.001Z</time></trkpt><trkpt lat="37.174560084702556" lon="14.195248888762128"><ele>198.0</ele><time>2026-03-29T14:24:49.001Z</time></trkpt><trkpt lat="37.1746709991753" lon="14.19517676365729"><ele>198.0</ele><time>2026-03-29T14:24:50.001Z</time></trkpt><trkpt lat="37.174799010608425" lon="14.195141285819126"><ele>198.0</ele><time>2026-03-29T14:24:51.001Z</time></trkpt><trkpt lat="37.17493866571796" lon="14.195137169727507"><ele>198.0</ele><time>2026-03-29T14:24:52.001Z</time></trkpt><trkpt lat="37.175088672783716" lon="14.195152782646776"><ele>198.0</ele><time>2026-03-29T14:24:53.001Z</time></trkpt><trkpt lat="37.175250794536296" lon="14.195171720821909"><ele>201.33333333333331</ele><time>2026-03-29T14:24:54.001Z</time></trkpt><trkpt lat="37.175420434208334" lon="14.195181347088685"><ele>204.66666666666666</ele><time>2026-03-29T14:24:55.001Z</time></trkpt><trkpt lat="37.17559292189698" lon="14.195188912009474"><ele>208.0</ele><time>2026-03-29T14:24:56.001Z</time></trkpt><trkpt lat="37.175761031848275" lon="14.1951962561916"><ele>210.33333333333331</ele><time>2026-03-29T14:24:57.001Z</time></trkpt><trkpt lat="37.175924555585084" lon="14.1951975035887"><ele>212.66666666666669</ele><time>2026-03-29T14:24:58.001Z</time></trkpt><trkpt lat="37.17608816557902" lon="14.195189867840746"><ele>215.0</ele><time>2026-03-29T14:24:59.001Z</time></trkpt><trkpt lat="37.176251495470275" lon="14.195168350797859"><ele>215.0</ele><time>2026-03-29T14:25:00.001Z</time></trkpt><trkpt lat="37.17640454443275" lon="14.195146645860824"><ele>215.0</ele><time>2026-03-29T14:25:01.001Z</time></trkpt><trkpt lat="37.17655246835402" lon="14.195126028288845"><ele>215.0</ele><time>2026-03-29T14:25:02.001Z</time></trkpt><trkpt lat="37.17669786749209" lon="14.195103539657865"><ele>215.0</ele><time>2026-03-29T14:25:03.001Z</time></trkpt><trkpt lat="37.17683381878118" lon="14.195074633683989"><ele>213.25</ele><time>2026-03-29T14:25:04.001Z</time></trkpt><trkpt lat="37.1769659281128" lon="14.195047598147768"><ele>211.5</ele><time>2026-03-29T14:25:05.001Z</time></trkpt><trkpt lat="37.17708567423868" lon="14.19495632530473"><ele>209.75</ele><time>2026-03-29T14:25:06.001Z</time></trkpt><trkpt lat="37.17718054222782" lon="14.194821790011018"><ele>208.0</ele><time>2026-03-29T14:25:07.001Z</time></trkpt><trkpt lat="37.177242469710585" lon="14.194660724652689"><ele>206.25</ele><time>2026-03-29T14:25:08.001Z</time></trkpt><trkpt lat="37.17730676116377" lon="14.194503212662584"><ele>204.5</ele><time>2026-03-29T14:25:09.001Z</time></trkpt><trkpt lat="37.17737953639324" lon="14.194372094726988"><ele>202.75</ele><time>2026-03-29T14:25:10.001Z</time></trkpt><trkpt lat="37.177483893257445" lon="14.194279877403252"><ele>201.0</ele><time>2026-03-29T14:25:11.001Z</time></trkpt><trkpt lat="37.1776148645334" lon="14.194214176304119"><ele>201.0</ele><time>2026-03-29T14:25:12.001Z</time></trkpt><trkpt lat="37.17776306097801" lon="14.194143834863379"><ele>201.0</ele><time>2026-03-29T14:25:13.001Z</time></trkpt><trkpt lat="37.17791747736616" lon="14.1940627284266"><ele>201.0</ele><time>2026-03-29T14:25:14.001Z</time></trkpt><trkpt lat="37.178077301332024" lon="14.193981440696422"><ele>202.33333333333331</ele><time>2026-03-29T14:25:15.001Z</time></trkpt><trkpt lat="37.178237833000225" lon="14.193900806440968"><ele>203.66666666666666</ele><time>2026-03-29T14:25:16.001Z</time></trkpt><trkpt lat="37.178391551330996" lon="14.193827283297443"><ele>205.0</ele><time>2026-03-29T14:25:17.001Z</time></trkpt><trkpt lat="37.178542548951874" lon="14.193774199839602"><ele>205.0</ele><time>2026-03-29T14:25:18.001Z</time></trkpt><trkpt lat="37.178690539065556" lon="14.193742596520458"><ele>205.0</ele><time>2026-03-29T14:25:19.001Z</time></trkpt><trkpt lat="37.17882965260421" lon="14.193725101127722"><ele>205.0</ele><time>2026-03-29T14:25:20.001Z</time></trkpt><trkpt lat="37.17894955382151" lon="14.193710100357885"><ele>205.0</ele><time>2026-03-29T14:25:21.002Z</time></trkpt><trkpt lat="37.17905079403278" lon="14.193678043149152"><ele>207.6</ele><time>2026-03-29T14:25:22.002Z</time></trkpt><trkpt lat="37.179138350716" lon="14.193610418849781"><ele>210.2</ele><time>2026-03-29T14:25:23.002Z</time></trkpt><trkpt lat="37.17920608772257" lon="14.193502392780813"><ele>212.8</ele><time>2026-03-29T14:25:24.002Z</time></trkpt><trkpt lat="37.17922873415511" lon="14.193362115423081"><ele>215.4</ele><time>2026-03-29T14:25:25.002Z</time></trkpt><trkpt lat="37.17920549843845" lon="14.193219584363325"><ele>218.0</ele><time>2026-03-29T14:25:26.002Z</time></trkpt><trkpt lat="37.179145898126045" lon="14.193086433293544"><ele>216.33333333333334</ele><time>2026-03-29T14:25:27.002Z</time></trkpt><trkpt lat="37.17906398335445" lon="14.192953288490953"><ele>214.66666666666669</ele><time>2026-03-29T14:25:28.002Z</time></trkpt><trkpt lat="37.17894676117231" lon="14.19282173429598"><ele>213.0</ele><time>2026-03-29T14:25:29.002Z</time></trkpt><trkpt lat="37.17881300032499" lon="14.192687802487937"><ele>213.0</ele><time>2026-03-29T14:25:30.002Z</time></trkpt><trkpt lat="37.178676695085116" lon="14.19254738184494"><ele>213.0</ele><time>2026-03-29T14:25:31.002Z</time></trkpt><trkpt lat="37.17854736626385" lon="14.192412416835177"><ele>213.0</ele><time>2026-03-29T14:25:32.002Z</time></trkpt><trkpt lat="37.17843886944971" lon="14.192283042731134"><ele>217.0</ele><time>2026-03-29T14:25:33.002Z</time></trkpt><trkpt lat="37.178348730329205" lon="14.192148055789971"><ele>221.0</ele><time>2026-03-29T14:25:34.002Z</time></trkpt><trkpt lat="37.17828309429634" lon="14.191993416420738"><ele>225.0</ele><time>2026-03-29T14:25:35.002Z</time></trkpt><trkpt lat="37.17824248060147" lon="14.191817499505564"><ele>229.0</ele><time>2026-03-29T14:25:36.002Z</time></trkpt><trkpt lat="37.17821986008499" lon="14.19162232687892"><ele>234.0</ele><time>2026-03-29T14:25:37.002Z</time></trkpt><trkpt lat="37.178202702116" lon="14.191416045145381"><ele>239.0</ele><time>2026-03-29T14:25:38.002Z</time></trkpt><trkpt lat="37.17818164236085" lon="14.191222473228557"><ele>244.0</ele><time>2026-03-29T14:25:39.002Z</time></trkpt><trkpt lat="37.178152001163646" lon="14.191061261283394"><ele>239.39999999999998</ele><time>2026-03-29T14:25:40.002Z</time></trkpt><trkpt lat="37.17810654785821" lon="14.190929905865628"><ele>234.79999999999998</ele><time>2026-03-29T14:25:41.002Z</time></trkpt><trkpt lat="37.178050003777436" lon="14.190819294502605"><ele>230.20000000000002</ele><time>2026-03-29T14:25:42.002Z</time></trkpt><trkpt lat="37.17799729369028" lon="14.190718849680632"><ele>225.60000000000002</ele><time>2026-03-29T14:25:43.002Z</time></trkpt><trkpt lat="37.177991895507226" lon="14.190632723982693"><ele>221.0</ele><time>2026-03-29T14:25:44.002Z</time></trkpt><trkpt lat="37.178079097784696" lon="14.190580109563461"><ele>221.0</ele><time>2026-03-29T14:25:46.002Z</time></trkpt><trkpt lat="37.178117955980696" lon="14.19066728801787"><ele>221.0</ele><time>2026-03-29T14:25:47.002Z</time></trkpt><trkpt lat="37.17816835179935" lon="14.19084551529924"><ele>221.0</ele><time>2026-03-29T14:25:49.002Z</time></trkpt><trkpt lat="37.17823050409576" lon="14.190969483897213"><ele>221.0</ele><time>2026-03-29T14:25:50.002Z</time></trkpt><trkpt lat="37.178282797657225" lon="14.191109920644145"><ele>223.66666666666669</ele><time>2026-03-29T14:25:51.002Z</time></trkpt><trkpt lat="37.178353001418635" lon="14.191263656863756"><ele>226.33333333333331</ele><time>2026-03-29T14:25:52.002Z</time></trkpt><trkpt lat="37.17843642217219" lon="14.191427446946024"><ele>229.0</ele><time>2026-03-29T14:25:53.002Z</time></trkpt><trkpt lat="37.17853540336986" lon="14.191585001750502"><ele>229.0</ele><time>2026-03-29T14:25:54.002Z</time></trkpt><trkpt lat="37.17864519225837" lon="14.191726960299723"><ele>229.0</ele><time>2026-03-29T14:25:55.002Z</time></trkpt><trkpt lat="37.178753622472065" lon="14.191863015751144"><ele>229.0</ele><time>2026-03-29T14:25:56.003Z</time></trkpt><trkpt lat="37.17885833510213" lon="14.191983536429785"><ele>229.0</ele><time>2026-03-29T14:25:57Z</time></trkpt><trkpt lat="37.17895884418273" lon="14.19210024085388"><ele>229.0</ele><time>2026-03-29T14:25:58Z</time></trkpt><trkpt lat="37.179066071849455" lon="14.192201958058106"><ele>229.0</ele><time>2026-03-29T14:25:59Z</time></trkpt><trkpt lat="37.17919164778959" lon="14.192277718715387"><ele>229.0</ele><time>2026-03-29T14:26:00Z</time></trkpt><trkpt lat="37.17933338569851" lon="14.192329933361787"><ele>231.0</ele><time>2026-03-29T14:26:01Z</time></trkpt><trkpt lat="37.1794825351981" lon="14.192370342386594"><ele>233.0</ele><time>2026-03-29T14:26:02Z</time></trkpt><trkpt lat="37.17963011054635" lon="14.192417556770534"><ele>235.0</ele><time>2026-03-29T14:26:03Z</time></trkpt><trkpt lat="37.179772030574775" lon="14.19247207805818"><ele>239.0</ele><time>2026-03-29T14:26:04Z</time></trkpt><trkpt lat="37.179912042571516" lon="14.192528833385783"><ele>243.0</ele><time>2026-03-29T14:26:05Z</time></trkpt><trkpt lat="37.18005690347828" lon="14.192570616962628"><ele>247.0</ele><time>2026-03-29T14:26:06Z</time></trkpt><trkpt lat="37.18020958531482" lon="14.192577595482799"><ele>251.0</ele><time>2026-03-29T14:26:07Z</time></trkpt><trkpt lat="37.18036155090481" lon="14.192566889365603"><ele>251.0</ele><time>2026-03-29T14:26:08Z</time></trkpt><trkpt lat="37.18050978835899" lon="14.192545188872213"><ele>251.0</ele><time>2026-03-29T14:26:09Z</time></trkpt><trkpt lat="37.18065482705681" lon="14.192525548951135"><ele>251.0</ele><time>2026-03-29T14:26:10Z</time></trkpt><trkpt lat="37.18078653614329" lon="14.19250883947441"><ele>251.0</ele><time>2026-03-29T14:26:11Z</time></trkpt><trkpt lat="37.18090743681394" lon="14.19247592172029"><ele>251.75</ele><time>2026-03-29T14:26:12Z</time></trkpt><trkpt lat="37.18101293244708" lon="14.192402581141287"><ele>252.5</ele><time>2026-03-29T14:26:13Z</time></trkpt><trkpt lat="37.181101275901135" lon="14.19228883084671"><ele>253.25</ele><time>2026-03-29T14:26:14Z</time></trkpt><trkpt lat="37.181174326956445" lon="14.192150123306687"><ele>254.0</ele><time>2026-03-29T14:26:15Z</time></trkpt><trkpt lat="37.181235663620114" lon="14.191995321702862"><ele>257.25</ele><time>2026-03-29T14:26:16Z</time></trkpt><trkpt lat="37.181291814623954" lon="14.191846900060801"><ele>260.5</ele><time>2026-03-29T14:26:17Z</time></trkpt><trkpt lat="37.181354145252556" lon="14.1917149361131"><ele>263.75</ele><time>2026-03-29T14:26:18Z</time></trkpt><trkpt lat="37.18142927205164" lon="14.191615889215239"><ele>267.0</ele><time>2026-03-29T14:26:19Z</time></trkpt><trkpt lat="37.181519506310366" lon="14.191569695053596"><ele>267.0</ele><time>2026-03-29T14:26:20Z</time></trkpt><trkpt lat="37.181622249636945" lon="14.19158213624602"><ele>267.0</ele><time>2026-03-29T14:26:21Z</time></trkpt><trkpt lat="37.18173404973515" lon="14.19163870245846"><ele>267.0</ele><time>2026-03-29T14:26:22Z</time></trkpt><trkpt lat="37.1818482539656" lon="14.191653882851442"><ele>267.0</ele><time>2026-03-29T14:26:23Z</time></trkpt><trkpt lat="37.18195365197787" lon="14.191617252957156"><ele>267.0</ele><time>2026-03-29T14:26:24Z</time></trkpt><trkpt lat="37.18204292698927" lon="14.191526729029537"><ele>271.0</ele><time>2026-03-29T14:26:25Z</time></trkpt><trkpt lat="37.18210966942391" lon="14.191397004263091"><ele>275.0</ele><time>2026-03-29T14:26:26Z</time></trkpt><trkpt lat="37.18217170742673" lon="14.191250387946669"><ele>279.0</ele><time>2026-03-29T14:26:27Z</time></trkpt><trkpt lat="37.18224697540116" lon="14.191123055892533"><ele>283.0</ele><time>2026-03-29T14:26:28Z</time></trkpt><trkpt lat="37.18246452300683" lon="14.19097620668629"><ele>283.0</ele><time>2026-03-29T14:26:30Z</time></trkpt><trkpt lat="37.18260044896387" lon="14.190948226691035"><ele>283.0</ele><time>2026-03-29T14:26:31Z</time></trkpt><trkpt lat="37.182744164529545" lon="14.190928038508638"><ele>283.0</ele><time>2026-03-29T14:26:32Z</time></trkpt><trkpt lat="37.18288417423874" lon="14.190902108783114"><ele>283.0</ele><time>2026-03-29T14:26:33.001Z</time></trkpt><trkpt lat="37.183006565824016" lon="14.190862060904829"><ele>283.0</ele><time>2026-03-29T14:26:34.001Z</time></trkpt><trkpt lat="37.18311911987907" lon="14.190788996911067"><ele>283.0</ele><time>2026-03-29T14:26:35.001Z</time></trkpt><trkpt lat="37.18321993829952" lon="14.19067372545867"><ele>283.0</ele><time>2026-03-29T14:26:36.001Z</time></trkpt><trkpt lat="37.18332065607737" lon="14.19054956931213"><ele>283.0</ele><time>2026-03-29T14:26:37.001Z</time></trkpt><trkpt lat="37.183418755313475" lon="14.190452886698823"><ele>287.5</ele><time>2026-03-29T14:26:38.001Z</time></trkpt><trkpt lat="37.18353253394186" lon="14.190385775914091"><ele>292.0</ele><time>2026-03-29T14:26:39.001Z</time></trkpt><trkpt lat="37.18365489264713" lon="14.190358577734989"><ele>296.5</ele><time>2026-03-29T14:26:40.001Z</time></trkpt><trkpt lat="37.18378752850408" lon="14.190355132853185"><ele>301.0</ele><time>2026-03-29T14:26:41.001Z</time></trkpt><trkpt lat="37.1839306571087" lon="14.190360225005062"><ele>300.75</ele><time>2026-03-29T14:26:42.001Z</time></trkpt><trkpt lat="37.184073618146996" lon="14.190357740112983"><ele>300.5</ele><time>2026-03-29T14:26:43.001Z</time></trkpt><trkpt lat="37.1842074673469" lon="14.190349122751618"><ele>300.25</ele><time>2026-03-29T14:26:44.001Z</time></trkpt><trkpt lat="37.18434127597889" lon="14.190341261263514"><ele>300.0</ele><time>2026-03-29T14:26:45.001Z</time></trkpt><trkpt lat="37.184477236883595" lon="14.190327200472218"><ele>300.0</ele><time>2026-03-29T14:26:46.001Z</time></trkpt><trkpt lat="37.18461472315964" lon="14.190294508349123"><ele>300.0</ele><time>2026-03-29T14:26:47.001Z</time></trkpt><trkpt lat="37.18474923805621" lon="14.190243118934806"><ele>300.0</ele><time>2026-03-29T14:26:48.001Z</time></trkpt><trkpt lat="37.18487562844069" lon="14.190195799203218"><ele>300.0</ele><time>2026-03-29T14:26:49.001Z</time></trkpt><trkpt lat="37.18499759139551" lon="14.190194997362013"><ele>300.25</ele><time>2026-03-29T14:26:50.001Z</time></trkpt><trkpt lat="37.185124179468026" lon="14.190228787106777"><ele>300.5</ele><time>2026-03-29T14:26:51.001Z</time></trkpt><trkpt lat="37.18523723238607" lon="14.190290663414325"><ele>300.75</ele><time>2026-03-29T14:26:52.001Z</time></trkpt><trkpt lat="37.185336501297144" lon="14.190332434644935"><ele>301.0</ele><time>2026-03-29T14:26:53.001Z</time></trkpt><trkpt lat="37.18543111887268" lon="14.190318773699671"><ele>301.0</ele><time>2026-03-29T14:26:54.001Z</time></trkpt><trkpt lat="37.18556671843309" lon="14.190205496281758"><ele>301.0</ele><time>2026-03-29T14:26:56.001Z</time></trkpt><trkpt lat="37.18562914796838" lon="14.190139205549483"><ele>301.0</ele><time>2026-03-29T14:26:57.001Z</time></trkpt><trkpt lat="37.185704005153426" lon="14.190084187001103"><ele>301.0</ele><time>2026-03-29T14:26:58.001Z</time></trkpt><trkpt lat="37.18580164597618" lon="14.190022863390325"><ele>301.0</ele><time>2026-03-29T14:26:59.001Z</time></trkpt><trkpt lat="37.18590479083798" lon="14.189953330157682"><ele>301.25</ele><time>2026-03-29T14:27:00.001Z</time></trkpt><trkpt lat="37.18601509496071" lon="14.189874641591564"><ele>301.5</ele><time>2026-03-29T14:27:01.001Z</time></trkpt><trkpt lat="37.18612966289913" lon="14.189795115765289"><ele>301.75</ele><time>2026-03-29T14:27:02.001Z</time></trkpt><trkpt lat="37.186244547947084" lon="14.189716708059587"><ele>302.0</ele><time>2026-03-29T14:27:03.001Z</time></trkpt><trkpt lat="37.18636030254612" lon="14.189641960939804"><ele>305.6666666666667</ele><time>2026-03-29T14:27:04.001Z</time></trkpt><trkpt lat="37.18647169022157" lon="14.189567485820167"><ele>309.3333333333333</ele><time>2026-03-29T14:27:05.001Z</time></trkpt><trkpt lat="37.186568582960035" lon="14.189471901578854"><ele>313.0</ele><time>2026-03-29T14:27:06.001Z</time></trkpt><trkpt lat="37.18671782741669" lon="14.189222403614396"><ele>313.0</ele><time>2026-03-29T14:27:08.001Z</time></trkpt><trkpt lat="37.18678698406345" lon="14.189095040366556"><ele>313.0</ele><time>2026-03-29T14:27:09.001Z</time></trkpt><trkpt lat="37.18686043432569" lon="14.18897042322764"><ele>313.0</ele><time>2026-03-29T14:27:10.002Z</time></trkpt><trkpt lat="37.18693762754487" lon="14.18884852403631"><ele>313.0</ele><time>2026-03-29T14:27:11.002Z</time></trkpt><trkpt lat="37.18700876326338" lon="14.188730144090712"><ele>318.6</ele><time>2026-03-29T14:27:12.002Z</time></trkpt><trkpt lat="37.18706063490555" lon="14.188617299301063"><ele>324.20000000000005</ele><time>2026-03-29T14:27:13.002Z</time></trkpt><trkpt lat="37.187084883617246" lon="14.188499464714287"><ele>329.8</ele><time>2026-03-29T14:27:14.002Z</time></trkpt><trkpt lat="37.187079311559245" lon="14.188375581701326"><ele>335.40000000000003</ele><time>2026-03-29T14:27:15.002Z</time></trkpt><trkpt lat="37.18705867285596" lon="14.188240324431577"><ele>341.0</ele><time>2026-03-29T14:27:16.002Z</time></trkpt><trkpt lat="37.18703480049269" lon="14.188088951943548"><ele>345.25</ele><time>2026-03-29T14:27:17.002Z</time></trkpt><trkpt lat="37.18701468042373" lon="14.187925959714876"><ele>349.5</ele><time>2026-03-29T14:27:18.002Z</time></trkpt><trkpt lat="37.18699552146583" lon="14.187761914157196"><ele>353.75</ele><time>2026-03-29T14:27:19.002Z</time></trkpt><trkpt lat="37.18698652046345" lon="14.187600961220348"><ele>358.0</ele><time>2026-03-29T14:27:20.002Z</time></trkpt><trkpt lat="37.18699557092716" lon="14.187442491821713"><ele>362.0</ele><time>2026-03-29T14:27:21.002Z</time></trkpt><trkpt lat="37.18705672080657" lon="14.187301648197108"><ele>366.0</ele><time>2026-03-29T14:27:22.002Z</time></trkpt><trkpt lat="37.187088035275245" lon="14.187131179032853"><ele>370.0</ele><time>2026-03-29T14:27:23.002Z</time></trkpt><trkpt lat="37.18713984163601" lon="14.18695907883534"><ele>374.0</ele><time>2026-03-29T14:27:24.002Z</time></trkpt><trkpt lat="37.18718695475691" lon="14.186799700736058"><ele>374.0</ele><time>2026-03-29T14:27:25.002Z</time></trkpt><trkpt lat="37.18723368667222" lon="14.186669732696455"><ele>374.0</ele><time>2026-03-29T14:27:26.002Z</time></trkpt><trkpt lat="37.187301448133645" lon="14.18657084276491"><ele>374.0</ele><time>2026-03-29T14:27:27.002Z</time></trkpt><trkpt lat="37.1874042280935" lon="14.186497598401415"><ele>374.0</ele><time>2026-03-29T14:27:28.002Z</time></trkpt><trkpt lat="37.1875322830398" lon="14.186434069028204"><ele>373.0</ele><time>2026-03-29T14:27:29.002Z</time></trkpt><trkpt lat="37.187669118608184" lon="14.186354408798838"><ele>372.0</ele><time>2026-03-29T14:27:30.002Z</time></trkpt><trkpt lat="37.18780344531742" lon="14.186246088148447"><ele>371.0</ele><time>2026-03-29T14:27:31.002Z</time></trkpt><trkpt lat="37.187927541671904" lon="14.18612777221212"><ele>371.0</ele><time>2026-03-29T14:27:32.002Z</time></trkpt><trkpt lat="37.18804237853753" lon="14.186009952980015"><ele>371.0</ele><time>2026-03-29T14:27:33.002Z</time></trkpt><trkpt lat="37.18814896788537" lon="14.185910870800077"><ele>371.0</ele><time>2026-03-29T14:27:34.002Z</time></trkpt><trkpt lat="37.188257652090634" lon="14.185840550464798"><ele>371.0</ele><time>2026-03-29T14:27:35.002Z</time></trkpt><trkpt lat="37.18838702024858" lon="14.185806758338487"><ele>366.0</ele><time>2026-03-29T14:27:36.002Z</time></trkpt><trkpt lat="37.18852314529781" lon="14.185790934578256"><ele>361.0</ele><time>2026-03-29T14:27:37.002Z</time></trkpt><trkpt lat="37.188661393233104" lon="14.185779775757187"><ele>356.0</ele><time>2026-03-29T14:27:38.002Z</time></trkpt><trkpt lat="37.18879184780117" lon="14.185763945634719"><ele>351.0</ele><time>2026-03-29T14:27:39.002Z</time></trkpt><trkpt lat="37.188913460874296" lon="14.185744622626158"><ele>349.75</ele><time>2026-03-29T14:27:40.002Z</time></trkpt><trkpt lat="37.189027098792664" lon="14.185704798219641"><ele>348.5</ele><time>2026-03-29T14:27:41.002Z</time></trkpt><trkpt lat="37.189137730495204" lon="14.185636817864609"><ele>347.25</ele><time>2026-03-29T14:27:42.002Z</time></trkpt><trkpt lat="37.18925388487263" lon="14.185544143513747"><ele>346.0</ele><time>2026-03-29T14:27:43.002Z</time></trkpt><trkpt lat="37.189381486652344" lon="14.185478313411837"><ele>353.0</ele><time>2026-03-29T14:27:44.002Z</time></trkpt><trkpt lat="37.18964394066197" lon="14.18535554674417"><ele>360.0</ele><time>2026-03-29T14:27:46.003Z</time></trkpt><trkpt lat="37.18977143546669" lon="14.185314580845619"><ele>367.0</ele><time>2026-03-29T14:27:47.003Z</time></trkpt><trkpt lat="37.18989051926737" lon="14.185282021165929"><ele>367.0</ele><time>2026-03-29T14:27:48.003Z</time></trkpt><trkpt lat="37.19000512159383" lon="14.185280465050704"><ele>367.0</ele><time>2026-03-29T14:27:49.003Z</time></trkpt><trkpt lat="37.19010658069805" lon="14.18526792042542"><ele>367.0</ele><time>2026-03-29T14:27:50.003Z</time></trkpt><trkpt lat="37.190185793272974" lon="14.18526794218382"><ele>367.0</ele><time>2026-03-29T14:27:51.003Z</time></trkpt><trkpt lat="37.19030196376192" lon="14.185292226152981"><ele>367.0</ele><time>2026-03-29T14:27:53.003Z</time></trkpt><trkpt lat="37.190384881988685" lon="14.185361091686996"><ele>367.0</ele><time>2026-03-29T14:27:55.003Z</time></trkpt><trkpt lat="37.19054401271504" lon="14.185218627677418"><ele>367.0</ele><time>2026-03-29T14:27:57.003Z</time></trkpt><trkpt lat="37.190594007988906" lon="14.185157810369859"><ele>367.0</ele><time>2026-03-29T14:27:58.003Z</time></trkpt><trkpt lat="37.19063950011393" lon="14.185086128309228"><ele>367.0</ele><time>2026-03-29T14:27:59.003Z</time></trkpt><trkpt lat="37.190685443434276" lon="14.185008290460722"><ele>367.0</ele><time>2026-03-29T14:28:00.003Z</time></trkpt><trkpt lat="37.190737742929066" lon="14.184916252281312"><ele>362.6</ele><time>2026-03-29T14:28:01.003Z</time></trkpt><trkpt lat="37.19078690877391" lon="14.184809227900502"><ele>358.20000000000005</ele><time>2026-03-29T14:28:02.003Z</time></trkpt><trkpt lat="37.19082869632741" lon="14.184682033445517"><ele>353.8</ele><time>2026-03-29T14:28:03Z</time></trkpt><trkpt lat="37.19085947908732" lon="14.184539932863883"><ele>349.4</ele><time>2026-03-29T14:28:04Z</time></trkpt><trkpt lat="37.19087627074255" lon="14.184391098360805"><ele>345.0</ele><time>2026-03-29T14:28:05Z</time></trkpt><trkpt lat="37.19090434935214" lon="14.184268532115533"><ele>345.0</ele><time>2026-03-29T14:28:06Z</time></trkpt><trkpt lat="37.19091001224901" lon="14.18416026332578"><ele>345.0</ele><time>2026-03-29T14:28:07Z</time></trkpt><trkpt lat="37.190911933801274" lon="14.184067572657247"><ele>345.0</ele><time>2026-03-29T14:28:08Z</time></trkpt><trkpt lat="37.190909478250816" lon="14.18398789466195"><ele>345.0</ele><time>2026-03-29T14:28:09Z</time></trkpt><trkpt lat="37.1909027657773" lon="14.1839079360384"><ele>345.0</ele><time>2026-03-29T14:28:10Z</time></trkpt><trkpt lat="37.19088937582507" lon="14.183821554090168"><ele>345.0</ele><time>2026-03-29T14:28:11Z</time></trkpt><trkpt lat="37.19085189361935" lon="14.18373895370256"><ele>345.0</ele><time>2026-03-29T14:28:12Z</time></trkpt><trkpt lat="37.19081621866264" lon="14.183652026786188"><ele>345.6</ele><time>2026-03-29T14:28:13Z</time></trkpt><trkpt lat="37.19078023995263" lon="14.183584412297503"><ele>346.2</ele><time>2026-03-29T14:28:14Z</time></trkpt><trkpt lat="37.19071330307921" lon="14.183485299096404"><ele>346.79999999999995</ele><time>2026-03-29T14:28:16Z</time></trkpt><trkpt lat="37.19063313667386" lon="14.183343287123906"><ele>347.4</ele><time>2026-03-29T14:28:18Z</time></trkpt><trkpt lat="37.19057326124823" lon="14.183259880252322"><ele>348.0</ele><time>2026-03-29T14:28:19Z</time></trkpt><trkpt lat="37.190501320877196" lon="14.183162302514315"><ele>348.0</ele><time>2026-03-29T14:28:20Z</time></trkpt><trkpt lat="37.190423943066655" lon="14.183059796824507"><ele>348.0</ele><time>2026-03-29T14:28:21Z</time></trkpt><trkpt lat="37.19024792978531" lon="14.182858773867503"><ele>348.0</ele><time>2026-03-29T14:28:23Z</time></trkpt><trkpt lat="37.19015861070892" lon="14.182764997719225"><ele>348.0</ele><time>2026-03-29T14:28:24Z</time></trkpt><trkpt lat="37.190074368953304" lon="14.18269378788494"><ele>348.0</ele><time>2026-03-29T14:28:25Z</time></trkpt><trkpt lat="37.189996153829995" lon="14.182639622652747"><ele>348.0</ele><time>2026-03-29T14:28:26Z</time></trkpt><trkpt lat="37.18993781193416" lon="14.182573653857496"><ele>348.0</ele><time>2026-03-29T14:28:27Z</time></trkpt><trkpt lat="37.189878484994274" lon="14.182535751796145"><ele>348.0</ele><time>2026-03-29T14:28:28Z</time></trkpt><trkpt lat="37.18977103099797" lon="14.18248032483527"><ele>348.0</ele><time>2026-03-29T14:28:31Z</time></trkpt><trkpt lat="37.1898630827917" lon="14.182509661743353"><ele>348.0</ele><time>2026-03-29T14:28:38.001Z</time></trkpt><trkpt lat="37.18997215363162" lon="14.182590609873843"><ele>348.0</ele><time>2026-03-29T14:28:39.001Z</time></trkpt><trkpt lat="37.1901008421892" lon="14.18265492462654"><ele>348.0</ele><time>2026-03-29T14:28:40.001Z</time></trkpt><trkpt lat="37.190154148948395" lon="14.182798431391111"><ele>348.0</ele><time>2026-03-29T14:28:41.001Z</time></trkpt><trkpt lat="37.19022960052907" lon="14.182870601289995"><ele>348.0</ele><time>2026-03-29T14:28:42.001Z</time></trkpt><trkpt lat="37.19030016341115" lon="14.182960449723002"><ele>348.0</ele><time>2026-03-29T14:28:43.001Z</time></trkpt><trkpt lat="37.19036934807554" lon="14.183061696675503"><ele>348.0</ele><time>2026-03-29T14:28:44.001Z</time></trkpt><trkpt lat="37.19032192442113" lon="14.183271382200287"><ele>353.4</ele><time>2026-03-29T14:28:45.001Z</time></trkpt><trkpt lat="37.19037273880776" lon="14.183380501799844"><ele>358.79999999999995</ele><time>2026-03-29T14:28:46.001Z</time></trkpt><trkpt lat="37.19042147596539" lon="14.183491296871217"><ele>364.2</ele><time>2026-03-29T14:28:47.001Z</time></trkpt><trkpt lat="37.19045881664219" lon="14.18359366218164"><ele>369.6</ele><time>2026-03-29T14:28:48.001Z</time></trkpt><trkpt lat="37.19049262020691" lon="14.183695317135655"><ele>375.0</ele><time>2026-03-29T14:28:49.001Z</time></trkpt><trkpt lat="37.19052473799874" lon="14.183869738106763"><ele>375.0</ele><time>2026-03-29T14:28:51.001Z</time></trkpt><trkpt lat="37.190520831390465" lon="14.18401143353426"><ele>375.0</ele><time>2026-03-29T14:28:53.001Z</time></trkpt><trkpt lat="37.19051365532402" lon="14.184110185986672"><ele>375.0</ele><time>2026-03-29T14:28:54.001Z</time></trkpt><trkpt lat="37.190499003639815" lon="14.184218266941903"><ele>375.0</ele><time>2026-03-29T14:28:55.001Z</time></trkpt><trkpt lat="37.190477853019345" lon="14.184293742652955"><ele>375.0</ele><time>2026-03-29T14:28:56.001Z</time></trkpt><trkpt lat="37.190411319559615" lon="14.184455189334043"><ele>373.4</ele><time>2026-03-29T14:28:58.001Z</time></trkpt><trkpt lat="37.19035061598667" lon="14.184545602802071"><ele>371.8</ele><time>2026-03-29T14:29:00.001Z</time></trkpt><trkpt lat="37.1902583953226" lon="14.184653862604248"><ele>370.20000000000005</ele><time>2026-03-29T14:29:02.001Z</time></trkpt><trkpt lat="37.190182113154094" lon="14.184712558539477"><ele>368.6</ele><time>2026-03-29T14:29:05.001Z</time></trkpt><trkpt lat="37.19010916553849" lon="14.184778469843966"><ele>367.0</ele><time>2026-03-29T14:29:07.001Z</time></trkpt><trkpt lat="37.19066910530438" lon="14.185396046753995"><ele>361.0</ele><time>2026-03-29T14:29:11.001Z</time></trkpt><trkpt lat="37.19071294941818" lon="14.185301295184233"><ele>355.0</ele><time>2026-03-29T14:29:12.001Z</time></trkpt><trkpt lat="37.190750167500745" lon="14.18519507716795"><ele>349.0</ele><time>2026-03-29T14:29:13.001Z</time></trkpt><trkpt lat="37.190801060567104" lon="14.185101155189885"><ele>343.0</ele><time>2026-03-29T14:29:14.001Z</time></trkpt><trkpt lat="37.190856477616485" lon="14.185000076203384"><ele>337.0</ele><time>2026-03-29T14:29:15.001Z</time></trkpt><trkpt lat="37.19091097740064" lon="14.184893075652091"><ele>338.6</ele><time>2026-03-29T14:29:16.002Z</time></trkpt><trkpt lat="37.19096865206282" lon="14.184781988017884"><ele>340.20000000000005</ele><time>2026-03-29T14:29:17.002Z</time></trkpt><trkpt lat="37.1910276607836" lon="14.184671141209677"><ele>341.8</ele><time>2026-03-29T14:29:18.002Z</time></trkpt><trkpt lat="37.19108660485696" lon="14.184559703702757"><ele>343.4</ele><time>2026-03-29T14:29:19.002Z</time></trkpt><trkpt lat="37.19114669772455" lon="14.184448008968223"><ele>345.0</ele><time>2026-03-29T14:29:20.002Z</time></trkpt><trkpt lat="37.19120475425408" lon="14.184337438935733"><ele>345.0</ele><time>2026-03-29T14:29:21.002Z</time></trkpt><trkpt lat="37.19126039596923" lon="14.184235108024893"><ele>345.0</ele><time>2026-03-29T14:29:22.002Z</time></trkpt><trkpt lat="37.19131372819892" lon="14.184136039152696"><ele>345.0</ele><time>2026-03-29T14:29:23.002Z</time></trkpt><trkpt lat="37.191361015747255" lon="14.184042006069316"><ele>345.0</ele><time>2026-03-29T14:29:24.002Z</time></trkpt><trkpt lat="37.19140645278075" lon="14.183953377430553"><ele>345.0</ele><time>2026-03-29T14:29:25.002Z</time></trkpt><trkpt lat="37.191454514562004" lon="14.18385481507135"><ele>343.4</ele><time>2026-03-29T14:29:26.002Z</time></trkpt><trkpt lat="37.19149396176924" lon="14.183751947053587"><ele>341.8</ele><time>2026-03-29T14:29:27.002Z</time></trkpt><trkpt lat="37.191514260238215" lon="14.183647432288057"><ele>340.20000000000005</ele><time>2026-03-29T14:29:28.002Z</time></trkpt><trkpt lat="37.19151305108907" lon="14.183533486040426"><ele>338.6</ele><time>2026-03-29T14:29:29.002Z</time></trkpt><trkpt lat="37.19150686359529" lon="14.183414539074386"><ele>337.0</ele><time>2026-03-29T14:29:30.002Z</time></trkpt><trkpt lat="37.191507353218775" lon="14.183305121550628"><ele>337.00000000000006</ele><time>2026-03-29T14:29:31.002Z</time></trkpt><trkpt lat="37.191502000049915" lon="14.183199787293436"><ele>337.0</ele><time>2026-03-29T14:29:32.002Z</time></trkpt><trkpt lat="37.19150650202259" lon="14.183102984375784"><ele>337.0</ele><time>2026-03-29T14:29:33.002Z</time></trkpt><trkpt lat="37.19150832276545" lon="14.18301201137871"><ele>337.0</ele><time>2026-03-29T14:29:34.002Z</time></trkpt><trkpt lat="37.19151404352752" lon="14.182924211517914"><ele>337.0</ele><time>2026-03-29T14:29:35.002Z</time></trkpt><trkpt lat="37.19151926721826" lon="14.182841811728757"><ele>337.00000000000006</ele><time>2026-03-29T14:29:36.002Z</time></trkpt><trkpt lat="37.19153080761162" lon="14.182761905101646"><ele>337.0</ele><time>2026-03-29T14:29:37.002Z</time></trkpt><trkpt lat="37.19156181107774" lon="14.182689068583691"><ele>335.14285714285717</ele><time>2026-03-29T14:29:38.002Z</time></trkpt><trkpt lat="37.19161681811194" lon="14.182631743080997"><ele>333.2857142857143</ele><time>2026-03-29T14:29:39.002Z</time></trkpt><trkpt lat="37.1916797552912" lon="14.182605183020287"><ele>331.42857142857144</ele><time>2026-03-29T14:29:40.002Z</time></trkpt><trkpt lat="37.191746671562804" lon="14.182581776026252"><ele>329.57142857142856</ele><time>2026-03-29T14:29:41.002Z</time></trkpt><trkpt lat="37.191816640177294" lon="14.182559688575463"><ele>327.7142857142857</ele><time>2026-03-29T14:29:42.002Z</time></trkpt><trkpt lat="37.19188324411828" lon="14.182540582172253"><ele>325.8571428571429</ele><time>2026-03-29T14:29:43.002Z</time></trkpt><trkpt lat="37.191958416700814" lon="14.182530819514852"><ele>324.0</ele><time>2026-03-29T14:29:44.002Z</time></trkpt><trkpt lat="37.19203255740983" lon="14.182510900062013"><ele>324.0</ele><time>2026-03-29T14:29:45.002Z</time></trkpt><trkpt lat="37.19210141683991" lon="14.182501291173093"><ele>324.0</ele><time>2026-03-29T14:29:46.002Z</time></trkpt><trkpt lat="37.19221927472683" lon="14.1824888998704"><ele>324.0</ele><time>2026-03-29T14:29:48.002Z</time></trkpt><trkpt lat="37.19229870653676" lon="14.182472122915343"><ele>324.0</ele><time>2026-03-29T14:29:50.002Z</time></trkpt><trkpt lat="37.192366534714" lon="14.1824699582586"><ele>324.0</ele><time>2026-03-29T14:29:53.003Z</time></trkpt><trkpt lat="37.19246134670429" lon="14.182455902667302"><ele>324.0</ele><time>2026-03-29T14:29:56.003Z</time></trkpt><trkpt lat="37.192524074687796" lon="14.182435395822903"><ele>323.2</ele><time>2026-03-29T14:29:57.003Z</time></trkpt><trkpt lat="37.19260902141737" lon="14.182421739265727"><ele>322.4</ele><time>2026-03-29T14:29:58.003Z</time></trkpt><trkpt lat="37.19269923434938" lon="14.182425734610423"><ele>321.6</ele><time>2026-03-29T14:29:59.003Z</time></trkpt><trkpt lat="37.19279430467287" lon="14.182411225078141"><ele>320.8</ele><time>2026-03-29T14:30:00.003Z</time></trkpt><trkpt lat="37.192885881909504" lon="14.182402297824494"><ele>320.0</ele><time>2026-03-29T14:30:01.003Z</time></trkpt><trkpt lat="37.1929788060566" lon="14.182400243072328"><ele>320.0</ele><time>2026-03-29T14:30:02.003Z</time></trkpt><trkpt lat="37.19306795319441" lon="14.182412309707393"><ele>320.0</ele><time>2026-03-29T14:30:03.003Z</time></trkpt><trkpt lat="37.19316870334238" lon="14.182434340025091"><ele>320.0</ele><time>2026-03-29T14:30:04.003Z</time></trkpt><trkpt lat="37.19328721388247" lon="14.182458584548494"><ele>320.0</ele><time>2026-03-29T14:30:05.003Z</time></trkpt><trkpt lat="37.19339743369213" lon="14.182481111876202"><ele>320.0</ele><time>2026-03-29T14:30:06.003Z</time></trkpt><trkpt lat="37.1934996619077" lon="14.182500247630323"><ele>319.8</ele><time>2026-03-29T14:30:07.003Z</time></trkpt><trkpt lat="37.19359871208389" lon="14.182498523819064"><ele>319.6</ele><time>2026-03-29T14:30:08.003Z</time></trkpt><trkpt lat="37.19369452030007" lon="14.182525437024019"><ele>319.4</ele><time>2026-03-29T14:30:09Z</time></trkpt><trkpt lat="37.19380177077841" lon="14.182545789440455"><ele>319.2</ele><time>2026-03-29T14:30:10Z</time></trkpt><trkpt lat="37.19387720238368" lon="14.182594153814343"><ele>319.0</ele><time>2026-03-29T14:30:11Z</time></trkpt><trkpt lat="37.19396087482365" lon="14.182639126544313"><ele>319.2</ele><time>2026-03-29T14:30:12Z</time></trkpt><trkpt lat="37.19403185459527" lon="14.18271883674685"><ele>319.4</ele><time>2026-03-29T14:30:13Z</time></trkpt><trkpt lat="37.194110721314225" lon="14.182794112430123"><ele>319.6</ele><time>2026-03-29T14:30:14Z</time></trkpt><trkpt lat="37.19419278340608" lon="14.182884486900576"><ele>319.8</ele><time>2026-03-29T14:30:15Z</time></trkpt><trkpt lat="37.19429014654075" lon="14.182930723945741"><ele>320.0</ele><time>2026-03-29T14:30:16Z</time></trkpt><trkpt lat="37.194390348246486" lon="14.182961272477394"><ele>320.0</ele><time>2026-03-29T14:30:17Z</time></trkpt><trkpt lat="37.194470035159824" lon="14.182982768931335"><ele>320.0</ele><time>2026-03-29T14:30:18Z</time></trkpt><trkpt lat="37.19457035494392" lon="14.183011079640533"><ele>320.0</ele><time>2026-03-29T14:30:20Z</time></trkpt><trkpt lat="37.194672873152406" lon="14.183033499510593"><ele>320.0</ele><time>2026-03-29T14:30:22Z</time></trkpt><trkpt lat="37.19476751789764" lon="14.183041793649135"><ele>320.0</ele><time>2026-03-29T14:30:23Z</time></trkpt><trkpt lat="37.19487894255091" lon="14.183039780240811"><ele>320.5</ele><time>2026-03-29T14:30:24Z</time></trkpt><trkpt lat="37.194998307138505" lon="14.183020932701613"><ele>321.0</ele><time>2026-03-29T14:30:25Z</time></trkpt><trkpt lat="37.195117326890845" lon="14.18299487865535"><ele>321.5</ele><time>2026-03-29T14:30:26Z</time></trkpt><trkpt lat="37.195221916780575" lon="14.182944911503231"><ele>322.0</ele><time>2026-03-29T14:30:27Z</time></trkpt><trkpt lat="37.19531856462254" lon="14.182873902400022"><ele>322.0</ele><time>2026-03-29T14:30:28Z</time></trkpt><trkpt lat="37.19541528628191" lon="14.182775138394657"><ele>322.0</ele><time>2026-03-29T14:30:29Z</time></trkpt><trkpt lat="37.19547317495667" lon="14.182633656578565"><ele>322.0</ele><time>2026-03-29T14:30:30Z</time></trkpt><trkpt lat="37.195530998495606" lon="14.182478002967908"><ele>322.0</ele><time>2026-03-29T14:30:31Z</time></trkpt><trkpt lat="37.19558708446991" lon="14.182318031083842"><ele>319.5</ele><time>2026-03-29T14:30:32Z</time></trkpt><trkpt lat="37.195651044802474" lon="14.182151056856371"><ele>317.0</ele><time>2026-03-29T14:30:33Z</time></trkpt><trkpt lat="37.19571618898611" lon="14.181984206857587"><ele>314.5</ele><time>2026-03-29T14:30:34Z</time></trkpt><trkpt lat="37.19578109675253" lon="14.181818427830953"><ele>312.0</ele><time>2026-03-29T14:30:35Z</time></trkpt><trkpt lat="37.19584909021851" lon="14.181651299069813"><ele>317.5</ele><time>2026-03-29T14:30:36Z</time></trkpt><trkpt lat="37.195918844285764" lon="14.181493477145647"><ele>323.0</ele><time>2026-03-29T14:30:37Z</time></trkpt><trkpt lat="37.19600429344349" lon="14.181359060739313"><ele>328.5</ele><time>2026-03-29T14:30:38Z</time></trkpt><trkpt lat="37.19606173997448" lon="14.181214245448757"><ele>334.0</ele><time>2026-03-29T14:30:39.001Z</time></trkpt><trkpt lat="37.196129546319916" lon="14.181108505621468"><ele>334.0</ele><time>2026-03-29T14:30:40.001Z</time></trkpt><trkpt lat="37.19620543602707" lon="14.181021253731188"><ele>334.0</ele><time>2026-03-29T14:30:41.001Z</time></trkpt><trkpt lat="37.19628980390787" lon="14.180947009149811"><ele>334.0</ele><time>2026-03-29T14:30:42.001Z</time></trkpt><trkpt lat="37.19638617765887" lon="14.180912513325465"><ele>334.0</ele><time>2026-03-29T14:30:43.001Z</time></trkpt><trkpt lat="37.196484844381494" lon="14.180927037953436"><ele>334.0</ele><time>2026-03-29T14:30:44.001Z</time></trkpt><trkpt lat="37.196583695411455" lon="14.180980957779427"><ele>327.5</ele><time>2026-03-29T14:30:45.001Z</time></trkpt><trkpt lat="37.1966775466247" lon="14.181072072343932"><ele>321.0</ele><time>2026-03-29T14:30:46.001Z</time></trkpt><trkpt lat="37.1967868871584" lon="14.181140781222027"><ele>314.5</ele><time>2026-03-29T14:30:47.001Z</time></trkpt><trkpt lat="37.19691026253528" lon="14.18116592358782"><ele>308.0</ele><time>2026-03-29T14:30:48.001Z</time></trkpt><trkpt lat="37.19705597774832" lon="14.181177909045477"><ele>308.0</ele><time>2026-03-29T14:30:49.001Z</time></trkpt><trkpt lat="37.19720292075317" lon="14.18117916070326"><ele>308.0</ele><time>2026-03-29T14:30:50.001Z</time></trkpt><trkpt lat="37.19736116718198" lon="14.18116234488942"><ele>308.0</ele><time>2026-03-29T14:30:51.001Z</time></trkpt><trkpt lat="37.19752263765873" lon="14.18113677772524"><ele>309.0</ele><time>2026-03-29T14:30:52.001Z</time></trkpt><trkpt lat="37.19768529535268" lon="14.181104546877377"><ele>310.0</ele><time>2026-03-29T14:30:53.001Z</time></trkpt><trkpt lat="37.19784700119965" lon="14.181072018660116"><ele>311.0</ele><time>2026-03-29T14:30:54.001Z</time></trkpt><trkpt lat="37.19799937544342" lon="14.18104470473636"><ele>311.0</ele><time>2026-03-29T14:30:55.001Z</time></trkpt><trkpt lat="37.198148258100765" lon="14.181018289299697"><ele>311.0</ele><time>2026-03-29T14:30:56.001Z</time></trkpt><trkpt lat="37.19829604084712" lon="14.180993804745558"><ele>311.0</ele><time>2026-03-29T14:30:57.001Z</time></trkpt><trkpt lat="37.19844242653284" lon="14.1809743425411"><ele>311.0</ele><time>2026-03-29T14:30:58.001Z</time></trkpt><trkpt lat="37.19859036323053" lon="14.180958038362379"><ele>310.0</ele><time>2026-03-29T14:30:59.001Z</time></trkpt><trkpt lat="37.19873757494998" lon="14.180942094830082"><ele>309.0</ele><time>2026-03-29T14:31:00.001Z</time></trkpt><trkpt lat="37.198881127614925" lon="14.18092841001521"><ele>308.0</ele><time>2026-03-29T14:31:01.001Z</time></trkpt><trkpt lat="37.19901801485046" lon="14.180918261372277"><ele>307.0</ele><time>2026-03-29T14:31:02.001Z</time></trkpt><trkpt lat="37.19914719919846" lon="14.180915236541923"><ele>305.2</ele><time>2026-03-29T14:31:03.001Z</time></trkpt><trkpt lat="37.19926920026842" lon="14.180918845767318"><ele>303.4</ele><time>2026-03-29T14:31:04.001Z</time></trkpt><trkpt lat="37.199385723950705" lon="14.180929343071165"><ele>301.6</ele><time>2026-03-29T14:31:05.001Z</time></trkpt><trkpt lat="37.199493883152314" lon="14.180943108855269"><ele>299.8</ele><time>2026-03-29T14:31:06.001Z</time></trkpt><trkpt lat="37.19959295582201" lon="14.180959970998696"><ele>298.0</ele><time>2026-03-29T14:31:07.001Z</time></trkpt><trkpt lat="37.19967856913485" lon="14.180986384382699"><ele>298.0</ele><time>2026-03-29T14:31:08.001Z</time></trkpt><trkpt lat="37.19974438897228" lon="14.181046770770227"><ele>298.0</ele><time>2026-03-29T14:31:09.001Z</time></trkpt><trkpt lat="37.199765986301735" lon="14.18114553913904"><ele>298.0</ele><time>2026-03-29T14:31:10.001Z</time></trkpt><trkpt lat="37.19975380383791" lon="14.181269255781464"><ele>298.0</ele><time>2026-03-29T14:31:11.001Z</time></trkpt><trkpt lat="37.19973473658164" lon="14.181417305943603"><ele>298.0</ele><time>2026-03-29T14:31:12.001Z</time></trkpt><trkpt lat="37.19974960908154" lon="14.18156672812411"><ele>297.0</ele><time>2026-03-29T14:31:13.001Z</time></trkpt><trkpt lat="37.19980530330092" lon="14.181728662725908"><ele>296.0</ele><time>2026-03-29T14:31:14.001Z</time></trkpt><trkpt lat="37.1998876510258" lon="14.181893615718606"><ele>295.0</ele><time>2026-03-29T14:31:15.001Z</time></trkpt><trkpt lat="37.199964188938786" lon="14.182045929297649"><ele>294.0</ele><time>2026-03-29T14:31:16.001Z</time></trkpt><trkpt lat="37.2000538572192" lon="14.182181051725658"><ele>294.0</ele><time>2026-03-29T14:31:17.001Z</time></trkpt><trkpt lat="37.200170398009284" lon="14.182284775316322"><ele>294.0</ele><time>2026-03-29T14:31:18.001Z</time></trkpt><trkpt lat="37.2002901781112" lon="14.182380430846536"><ele>294.0</ele><time>2026-03-29T14:31:19.002Z</time></trkpt><trkpt lat="37.20040087111383" lon="14.182472021009406"><ele>294.0</ele><time>2026-03-29T14:31:20.002Z</time></trkpt><trkpt lat="37.20049969553238" lon="14.18256424165503"><ele>292.0</ele><time>2026-03-29T14:31:21.002Z</time></trkpt><trkpt lat="37.20059432096666" lon="14.18263913005261"><ele>290.0</ele><time>2026-03-29T14:31:22.002Z</time></trkpt><trkpt lat="37.20069085752604" lon="14.18267875244964"><ele>288.0</ele><time>2026-03-29T14:31:23.002Z</time></trkpt><trkpt lat="37.20078966112183" lon="14.182680573374373"><ele>286.0</ele><time>2026-03-29T14:31:24.002Z</time></trkpt><trkpt lat="37.20089355042534" lon="14.18263606951136"><ele>284.0</ele><time>2026-03-29T14:31:25.002Z</time></trkpt><trkpt lat="37.20099769709229" lon="14.182572170836021"><ele>284.0</ele><time>2026-03-29T14:31:26.002Z</time></trkpt><trkpt lat="37.201098112174215" lon="14.182498875079824"><ele>284.0</ele><time>2026-03-29T14:31:27.002Z</time></trkpt><trkpt lat="37.20119204641002" lon="14.182429287423401"><ele>284.0</ele><time>2026-03-29T14:31:28.002Z</time></trkpt><trkpt lat="37.2012807855709" lon="14.182342913300646"><ele>284.0</ele><time>2026-03-29T14:31:29.002Z</time></trkpt><trkpt lat="37.20135305195713" lon="14.182227447544793"><ele>283.0</ele><time>2026-03-29T14:31:30.002Z</time></trkpt><trkpt lat="37.20140680881153" lon="14.182084676847776"><ele>282.0</ele><time>2026-03-29T14:31:31.002Z</time></trkpt><trkpt lat="37.20145746896879" lon="14.181927262594057"><ele>281.0</ele><time>2026-03-29T14:31:32.002Z</time></trkpt><trkpt lat="37.201514322935836" lon="14.181777390796768"><ele>280.0</ele><time>2026-03-29T14:31:33.002Z</time></trkpt><trkpt lat="37.20158204293614" lon="14.181638763760951"><ele>285.0</ele><time>2026-03-29T14:31:34.002Z</time></trkpt><trkpt lat="37.201653459563346" lon="14.181510384920681"><ele>290.0</ele><time>2026-03-29T14:31:35.002Z</time></trkpt><trkpt lat="37.20173205595749" lon="14.181389284899124"><ele>295.0</ele><time>2026-03-29T14:31:36.002Z</time></trkpt><trkpt lat="37.201815908259825" lon="14.181273440699558"><ele>300.0</ele><time>2026-03-29T14:31:37.002Z</time></trkpt><trkpt lat="37.20190948010174" lon="14.181173386518578"><ele>300.0</ele><time>2026-03-29T14:31:38.002Z</time></trkpt><trkpt lat="37.20201518543966" lon="14.181090680599748"><ele>300.0</ele><time>2026-03-29T14:31:39.002Z</time></trkpt><trkpt lat="37.20212376099152" lon="14.181016046146256"><ele>300.0</ele><time>2026-03-29T14:31:40.002Z</time></trkpt><trkpt lat="37.202227571106924" lon="14.180949694652616"><ele>300.0</ele><time>2026-03-29T14:31:41.002Z</time></trkpt><trkpt lat="37.20233009009401" lon="14.180897889840853"><ele>295.25</ele><time>2026-03-29T14:31:42.002Z</time></trkpt><trkpt lat="37.202439529367716" lon="14.180877710123443"><ele>290.5</ele><time>2026-03-29T14:31:43.002Z</time></trkpt><trkpt lat="37.20256173894222" lon="14.18088960201516"><ele>285.75</ele><time>2026-03-29T14:31:44.002Z</time></trkpt><trkpt lat="37.20269006535964" lon="14.180917904414134"><ele>281.0</ele><time>2026-03-29T14:31:45.002Z</time></trkpt><trkpt lat="37.20282680622138" lon="14.180920022857974"><ele>281.0</ele><time>2026-03-29T14:31:46.002Z</time></trkpt><trkpt lat="37.202968837903974" lon="14.180884452501775"><ele>281.0</ele><time>2026-03-29T14:31:47.002Z</time></trkpt><trkpt lat="37.203111811127826" lon="14.180830405596138"><ele>281.0</ele><time>2026-03-29T14:31:48.002Z</time></trkpt><trkpt lat="37.20324459959794" lon="14.180777455878683"><ele>281.0</ele><time>2026-03-29T14:31:49.002Z</time></trkpt><trkpt lat="37.20336324585196" lon="14.180710260415916"><ele>285.25</ele><time>2026-03-29T14:31:50.002Z</time></trkpt><trkpt lat="37.203468504089095" lon="14.1806101155823"><ele>289.5</ele><time>2026-03-29T14:31:51.002Z</time></trkpt><trkpt lat="37.20356307407058" lon="14.180474832778916"><ele>293.75</ele><time>2026-03-29T14:31:52.002Z</time></trkpt><trkpt lat="37.20364887573606" lon="14.180318493599744"><ele>298.0</ele><time>2026-03-29T14:31:53.002Z</time></trkpt><trkpt lat="37.203741382797716" lon="14.18016859173017"><ele>298.0</ele><time>2026-03-29T14:31:54.002Z</time></trkpt><trkpt lat="37.2038330206727" lon="14.180037232762135"><ele>298.0</ele><time>2026-03-29T14:31:55.002Z</time></trkpt><trkpt lat="37.203927183140046" lon="14.1799215588018"><ele>298.0</ele><time>2026-03-29T14:31:56.002Z</time></trkpt><trkpt lat="37.20402764846645" lon="14.179836164951777"><ele>298.0</ele><time>2026-03-29T14:31:57.003Z</time></trkpt><trkpt lat="37.2041385297997" lon="14.179793758714643"><ele>295.3333333333333</ele><time>2026-03-29T14:31:58.003Z</time></trkpt><trkpt lat="37.20424469727542" lon="14.179803404571599"><ele>292.66666666666663</ele><time>2026-03-29T14:31:59.003Z</time></trkpt><trkpt lat="37.2043276890339" lon="14.179850883559919"><ele>290.0</ele><time>2026-03-29T14:32:00.003Z</time></trkpt><trkpt lat="37.204392993670936" lon="14.179923804490539"><ele>287.3333333333333</ele><time>2026-03-29T14:32:01.003Z</time></trkpt><trkpt lat="37.204454370664294" lon="14.179984003013914"><ele>284.6666666666667</ele><time>2026-03-29T14:32:02.003Z</time></trkpt><trkpt lat="37.20452748737618" lon="14.179989962960825"><ele>282.0</ele><time>2026-03-29T14:32:03.003Z</time></trkpt><trkpt lat="37.20459944763384" lon="14.179945346296702"><ele>282.0</ele><time>2026-03-29T14:32:04.003Z</time></trkpt><trkpt lat="37.204652753098735" lon="14.17983630703675"><ele>282.0</ele><time>2026-03-29T14:32:05.003Z</time></trkpt><trkpt lat="37.20470495594527" lon="14.179706480416833"><ele>282.0</ele><time>2026-03-29T14:32:06.003Z</time></trkpt><trkpt lat="37.20475709502862" lon="14.179563900001746"><ele>282.0</ele><time>2026-03-29T14:32:07.003Z</time></trkpt><trkpt lat="37.2048374995528" lon="14.179437389325399"><ele>278.2</ele><time>2026-03-29T14:32:08.003Z</time></trkpt><trkpt lat="37.204890241745204" lon="14.179313328446156"><ele>274.4</ele><time>2026-03-29T14:32:09.003Z</time></trkpt><trkpt lat="37.204970026304906" lon="14.179218926937246"><ele>270.6</ele><time>2026-03-29T14:32:10.003Z</time></trkpt><trkpt lat="37.20505654021719" lon="14.179146416549678"><ele>266.8</ele><time>2026-03-29T14:32:11.003Z</time></trkpt><trkpt lat="37.205153671881455" lon="14.17910265239603"><ele>263.0</ele><time>2026-03-29T14:32:12.003Z</time></trkpt><trkpt lat="37.205275800861365" lon="14.179069113450982"><ele>263.0</ele><time>2026-03-29T14:32:13.003Z</time></trkpt><trkpt lat="37.205408624528324" lon="14.179034927502743"><ele>263.0</ele><time>2026-03-29T14:32:14.003Z</time></trkpt><trkpt lat="37.20552763160732" lon="14.179011079936343"><ele>263.0</ele><time>2026-03-29T14:32:15Z</time></trkpt><trkpt lat="37.20564203269228" lon="14.178975226481747"><ele>263.0</ele><time>2026-03-29T14:32:16Z</time></trkpt><trkpt lat="37.2057540798664" lon="14.178906975082011"><ele>263.5</ele><time>2026-03-29T14:32:17Z</time></trkpt><trkpt lat="37.20586412195462" lon="14.178808511822785"><ele>264.0</ele><time>2026-03-29T14:32:18Z</time></trkpt><trkpt lat="37.205964920068844" lon="14.17869513847101"><ele>264.5</ele><time>2026-03-29T14:32:19Z</time></trkpt><trkpt lat="37.206060972986975" lon="14.178583968114431"><ele>265.0</ele><time>2026-03-29T14:32:20Z</time></trkpt><trkpt lat="37.20614166165476" lon="14.178486337913531"><ele>265.0</ele><time>2026-03-29T14:32:21Z</time></trkpt><trkpt lat="37.206220697435384" lon="14.17841082757358"><ele>265.0</ele><time>2026-03-29T14:32:22Z</time></trkpt><trkpt lat="37.20627847164568" lon="14.178343054197702"><ele>265.0</ele><time>2026-03-29T14:32:23Z</time></trkpt><trkpt lat="37.20625679694054" lon="14.17817562260242"><ele>265.0</ele><time>2026-03-29T14:32:24Z</time></trkpt><trkpt lat="37.206281781547546" lon="14.17804966433451"><ele>265.0</ele><time>2026-03-29T14:32:25Z</time></trkpt><trkpt lat="37.20632501565702" lon="14.177913961999305"><ele>268.0</ele><time>2026-03-29T14:32:26Z</time></trkpt><trkpt lat="37.206364765864" lon="14.177764134833417"><ele>271.0</ele><time>2026-03-29T14:32:27Z</time></trkpt><trkpt lat="37.206383513981436" lon="14.177605503732122"><ele>274.0</ele><time>2026-03-29T14:32:28Z</time></trkpt><trkpt lat="37.20638095115885" lon="14.177436952050538"><ele>277.0</ele><time>2026-03-29T14:32:29Z</time></trkpt><trkpt lat="37.20639026409605" lon="14.177271183519643"><ele>278.0</ele><time>2026-03-29T14:32:30Z</time></trkpt><trkpt lat="37.20641533747866" lon="14.177111924940158"><ele>279.0</ele><time>2026-03-29T14:32:31Z</time></trkpt><trkpt lat="37.206450826220404" lon="14.1769596948794"><ele>280.0</ele><time>2026-03-29T14:32:32Z</time></trkpt><trkpt lat="37.2065013905724" lon="14.176841311798382"><ele>281.0</ele><time>2026-03-29T14:32:33Z</time></trkpt><trkpt lat="37.20658173895809" lon="14.17674976473005"><ele>277.5</ele><time>2026-03-29T14:32:34Z</time></trkpt><trkpt lat="37.20669449024838" lon="14.176692477056251"><ele>274.0</ele><time>2026-03-29T14:32:35Z</time></trkpt><trkpt lat="37.20682645108011" lon="14.176661705224983"><ele>270.5</ele><time>2026-03-29T14:32:36Z</time></trkpt><trkpt lat="37.20696770581473" lon="14.176661308056596"><ele>267.0</ele><time>2026-03-29T14:32:37Z</time></trkpt><trkpt lat="37.20710712262491" lon="14.176674718448815"><ele>267.0</ele><time>2026-03-29T14:32:38Z</time></trkpt><trkpt lat="37.207235202379536" lon="14.176665424236912"><ele>267.0</ele><time>2026-03-29T14:32:39Z</time></trkpt><trkpt lat="37.207347913341046" lon="14.176600105881255"><ele>267.0</ele><time>2026-03-29T14:32:40Z</time></trkpt><trkpt lat="37.20743895195823" lon="14.176494409396456"><ele>267.0</ele><time>2026-03-29T14:32:41Z</time></trkpt><trkpt lat="37.20750983296867" lon="14.176357770490618"><ele>269.25</ele><time>2026-03-29T14:32:42Z</time></trkpt><trkpt lat="37.20756535604373" lon="14.176207138731426"><ele>271.5</ele><time>2026-03-29T14:32:43Z</time></trkpt><trkpt lat="37.20759892180231" lon="14.176035901842296"><ele>273.75</ele><time>2026-03-29T14:32:44Z</time></trkpt><trkpt lat="37.2075965111088" lon="14.175847014673174"><ele>276.0</ele><time>2026-03-29T14:32:45Z</time></trkpt><trkpt lat="37.20759796584412" lon="14.175663041516048"><ele>277.0</ele><time>2026-03-29T14:32:46Z</time></trkpt><trkpt lat="37.20761950132844" lon="14.17549955850308"><ele>278.0</ele><time>2026-03-29T14:32:47Z</time></trkpt><trkpt lat="37.20764984623653" lon="14.175342976941751"><ele>279.0</ele><time>2026-03-29T14:32:48Z</time></trkpt><trkpt lat="37.20766685939578" lon="14.175190976381458"><ele>280.0</ele><time>2026-03-29T14:32:49Z</time></trkpt><trkpt lat="37.20764324505312" lon="14.175060351958223"><ele>280.0</ele><time>2026-03-29T14:32:50Z</time></trkpt><trkpt lat="37.20757578542084" lon="14.174954247739093"><ele>280.0</ele><time>2026-03-29T14:32:51Z</time></trkpt><trkpt lat="37.20747436627177" lon="14.174893447141864"><ele>280.0</ele><time>2026-03-29T14:32:52Z</time></trkpt><trkpt lat="37.20736556758378" lon="14.174899138267365"><ele>280.0</ele><time>2026-03-29T14:32:53.001Z</time></trkpt><trkpt lat="37.20727830749299" lon="14.174974313719153"><ele>280.0</ele><time>2026-03-29T14:32:54.001Z</time></trkpt><trkpt lat="37.20722344474346" lon="14.175082665017223"><ele>284.0</ele><time>2026-03-29T14:32:55.001Z</time></trkpt><trkpt lat="37.20720118970629" lon="14.175226884850002"><ele>288.0</ele><time>2026-03-29T14:32:56.001Z</time></trkpt><trkpt lat="37.207168638730536" lon="14.175382056790973"><ele>292.0</ele><time>2026-03-29T14:32:57.001Z</time></trkpt><trkpt lat="37.20711406923839" lon="14.175526449342112"><ele>296.0</ele><time>2026-03-29T14:32:58.001Z</time></trkpt><trkpt lat="37.207042742417215" lon="14.175640912562796"><ele>296.0</ele><time>2026-03-29T14:32:59.001Z</time></trkpt><trkpt lat="37.206956280460766" lon="14.175715815431298"><ele>296.0</ele><time>2026-03-29T14:33:00.001Z</time></trkpt><trkpt lat="37.206865423516014" lon="14.175725252318214"><ele>296.0</ele><time>2026-03-29T14:33:01.001Z</time></trkpt><trkpt lat="37.206785647763695" lon="14.175676997343094"><ele>296.0</ele><time>2026-03-29T14:33:02.001Z</time></trkpt><trkpt lat="37.206725775917185" lon="14.175578937565612"><ele>296.0</ele><time>2026-03-29T14:33:03.001Z</time></trkpt><trkpt lat="37.20670686869923" lon="14.175454617866603"><ele>296.0</ele><time>2026-03-29T14:33:04.001Z</time></trkpt><trkpt lat="37.20672200606285" lon="14.175320885208171"><ele>296.0</ele><time>2026-03-29T14:33:05.001Z</time></trkpt><trkpt lat="37.206734567444336" lon="14.175173932830482"><ele>296.0</ele><time>2026-03-29T14:33:06.001Z</time></trkpt><trkpt lat="37.206747905260976" lon="14.175000539330892"><ele>296.0</ele><time>2026-03-29T14:33:07.001Z</time></trkpt><trkpt lat="37.20676115545436" lon="14.17481354429246"><ele>297.25</ele><time>2026-03-29T14:33:08.001Z</time></trkpt><trkpt lat="37.206775631732114" lon="14.17462617808653"><ele>298.5</ele><time>2026-03-29T14:33:09.001Z</time></trkpt><trkpt lat="37.20679068674949" lon="14.174443487081835"><ele>299.75</ele><time>2026-03-29T14:33:10.001Z</time></trkpt><trkpt lat="37.2068060033477" lon="14.174253440431922"><ele>301.0</ele><time>2026-03-29T14:33:11.001Z</time></trkpt><trkpt lat="37.20682234651252" lon="14.17406405135826"><ele>302.75</ele><time>2026-03-29T14:33:12.001Z</time></trkpt><trkpt lat="37.20684169790609" lon="14.17387625133029"><ele>304.5</ele><time>2026-03-29T14:33:13.001Z</time></trkpt><trkpt lat="37.20686672276722" lon="14.173694640516716"><ele>306.25</ele><time>2026-03-29T14:33:14.001Z</time></trkpt><trkpt lat="37.206900287113" lon="14.173515238756622"><ele>308.0</ele><time>2026-03-29T14:33:15.001Z</time></trkpt><trkpt lat="37.206941263602346" lon="14.17333639703565"><ele>310.5</ele><time>2026-03-29T14:33:16.001Z</time></trkpt><trkpt lat="37.20698631191229" lon="14.1731576339063"><ele>313.0</ele><time>2026-03-29T14:33:17.001Z</time></trkpt><trkpt lat="37.207031141384576" lon="14.17298091717127"><ele>315.5</ele><time>2026-03-29T14:33:18.001Z</time></trkpt><trkpt lat="37.20707364022919" lon="14.172817341013394"><ele>318.0</ele><time>2026-03-29T14:33:19.001Z</time></trkpt><trkpt lat="37.20709565421602" lon="14.172653654420925"><ele>318.0</ele><time>2026-03-29T14:33:20.001Z</time></trkpt><trkpt lat="37.20708134541684" lon="14.172483871304362"><ele>318.0</ele><time>2026-03-29T14:33:21.001Z</time></trkpt><trkpt lat="37.20704591351911" lon="14.172316129772394"><ele>318.0</ele><time>2026-03-29T14:33:22.001Z</time></trkpt><trkpt lat="37.207024134505296" lon="14.172155925170385"><ele>318.0</ele><time>2026-03-29T14:33:23.001Z</time></trkpt><trkpt lat="37.20703721161859" lon="14.172012048524278"><ele>318.5</ele><time>2026-03-29T14:33:24.001Z</time></trkpt><trkpt lat="37.20709224372634" lon="14.171877629022202"><ele>319.0</ele><time>2026-03-29T14:33:25.001Z</time></trkpt><trkpt lat="37.20718024595423" lon="14.171747027734444"><ele>319.5</ele><time>2026-03-29T14:33:26.001Z</time></trkpt><trkpt lat="37.207268174448345" lon="14.17159598101793"><ele>320.0</ele><time>2026-03-29T14:33:27.001Z</time></trkpt><trkpt lat="37.20734702800226" lon="14.171411951122542"><ele>320.0</ele><time>2026-03-29T14:33:28.001Z</time></trkpt><trkpt lat="37.20742089928427" lon="14.171218217156401"><ele>320.0</ele><time>2026-03-29T14:33:29.001Z</time></trkpt><trkpt lat="37.207483560564455" lon="14.171057434283968"><ele>320.0</ele><time>2026-03-29T14:33:30.001Z</time></trkpt><trkpt lat="37.20754117114642" lon="14.170897793712957"><ele>320.0</ele><time>2026-03-29T14:33:31.002Z</time></trkpt><trkpt lat="37.20759488981615" lon="14.170734499971427"><ele>320.0</ele><time>2026-03-29T14:33:32.002Z</time></trkpt><trkpt lat="37.20763354803544" lon="14.170568690896754"><ele>320.0</ele><time>2026-03-29T14:33:33.002Z</time></trkpt><trkpt lat="37.207645730144954" lon="14.170412276388292"><ele>320.0</ele><time>2026-03-29T14:33:34.002Z</time></trkpt><trkpt lat="37.20762577959229" lon="14.170255407934553"><ele>322.33333333333337</ele><time>2026-03-29T14:33:35.002Z</time></trkpt><trkpt lat="37.20757225690758" lon="14.170091474089427"><ele>324.6666666666667</ele><time>2026-03-29T14:33:36.002Z</time></trkpt><trkpt lat="37.207505670909974" lon="14.169918412203243"><ele>327.0</ele><time>2026-03-29T14:33:37.002Z</time></trkpt><trkpt lat="37.20743555650123" lon="14.169730357401738"><ele>327.6666666666667</ele><time>2026-03-29T14:33:38.002Z</time></trkpt><trkpt lat="37.20736668169473" lon="14.16953888461732"><ele>328.33333333333337</ele><time>2026-03-29T14:33:39.002Z</time></trkpt><trkpt lat="37.20729644820864" lon="14.169346671586165"><ele>329.0</ele><time>2026-03-29T14:33:40.002Z</time></trkpt><trkpt lat="37.20723011769475" lon="14.16913978211724"><ele>326.6666666666667</ele><time>2026-03-29T14:33:41.002Z</time></trkpt><trkpt lat="37.2071657548474" lon="14.168922483822293"><ele>324.3333333333333</ele><time>2026-03-29T14:33:42.002Z</time></trkpt><trkpt lat="37.20709980546098" lon="14.168699131017435"><ele>322.0</ele><time>2026-03-29T14:33:43.002Z</time></trkpt><trkpt lat="37.20703472528759" lon="14.1684718468354"><ele>322.0</ele><time>2026-03-29T14:33:44.002Z</time></trkpt><trkpt lat="37.20696977348676" lon="14.168241901331882"><ele>322.0</ele><time>2026-03-29T14:33:45.002Z</time></trkpt><trkpt lat="37.20690396704801" lon="14.16801320039719"><ele>322.0</ele><time>2026-03-29T14:33:46.002Z</time></trkpt><trkpt lat="37.206839875397684" lon="14.167788854666062"><ele>320.0</ele><time>2026-03-29T14:33:47.002Z</time></trkpt><trkpt lat="37.20677947538623" lon="14.167573632420984"><ele>318.0</ele><time>2026-03-29T14:33:48.002Z</time></trkpt><trkpt lat="37.206719544156094" lon="14.167361356141793"><ele>316.0</ele><time>2026-03-29T14:33:49.002Z</time></trkpt><trkpt lat="37.20665942258968" lon="14.167147136563761"><ele>315.0</ele><time>2026-03-29T14:33:50.002Z</time></trkpt><trkpt lat="37.20660379333274" lon="14.166936200812705"><ele>314.0</ele><time>2026-03-29T14:33:51.002Z</time></trkpt><trkpt lat="37.20655935976767" lon="14.16673092809211"><ele>313.0</ele><time>2026-03-29T14:33:52.002Z</time></trkpt><trkpt lat="37.206537937611415" lon="14.166512813633735"><ele>312.3333333333333</ele><time>2026-03-29T14:33:53.002Z</time></trkpt><trkpt lat="37.20653288032104" lon="14.166281150050128"><ele>311.6666666666667</ele><time>2026-03-29T14:33:54.002Z</time></trkpt><trkpt lat="37.2065345460402" lon="14.166037577294741"><ele>311.0</ele><time>2026-03-29T14:33:55.002Z</time></trkpt><trkpt lat="37.2065327215314" lon="14.165790175218424"><ele>310.0</ele><time>2026-03-29T14:33:56.002Z</time></trkpt><trkpt lat="37.206531439641594" lon="14.16554106834741"><ele>309.0</ele><time>2026-03-29T14:33:57.002Z</time></trkpt><trkpt lat="37.206530039779274" lon="14.16529810027691"><ele>308.0</ele><time>2026-03-29T14:33:58.002Z</time></trkpt><trkpt lat="37.20653519701378" lon="14.165078607537238"><ele>306.6666666666667</ele><time>2026-03-29T14:33:59.002Z</time></trkpt><trkpt lat="37.20655216672262" lon="14.164852946111997"><ele>305.3333333333333</ele><time>2026-03-29T14:34:00.002Z</time></trkpt><trkpt lat="37.206571948464756" lon="14.164626603489355"><ele>304.0</ele><time>2026-03-29T14:34:01.002Z</time></trkpt><trkpt lat="37.206589044622056" lon="14.164405427059267"><ele>304.0</ele><time>2026-03-29T14:34:02.002Z</time></trkpt><trkpt lat="37.20660624808007" lon="14.16418408773118"><ele>304.0</ele><time>2026-03-29T14:34:03.002Z</time></trkpt><trkpt lat="37.20662097250687" lon="14.163962636330641"><ele>304.0</ele><time>2026-03-29T14:34:04.002Z</time></trkpt><trkpt lat="37.20663368760523" lon="14.163741889944427"><ele>303.66666666666663</ele><time>2026-03-29T14:34:05.002Z</time></trkpt><trkpt lat="37.20664523827794" lon="14.163521958041725"><ele>303.3333333333333</ele><time>2026-03-29T14:34:06.002Z</time></trkpt><trkpt lat="37.20664849541372" lon="14.1633036700602"><ele>303.0</ele><time>2026-03-29T14:34:07.002Z</time></trkpt><trkpt lat="37.20663816712173" lon="14.163086871734393"><ele>302.6666666666667</ele><time>2026-03-29T14:34:08.002Z</time></trkpt><trkpt lat="37.206624872847804" lon="14.162873878788332"><ele>302.33333333333337</ele><time>2026-03-29T14:34:09.003Z</time></trkpt><trkpt lat="37.206614124605714" lon="14.162676220887397"><ele>302.0</ele><time>2026-03-29T14:34:10.003Z</time></trkpt><trkpt lat="37.20660610951445" lon="14.162488644085691"><ele>299.6666666666667</ele><time>2026-03-29T14:34:11.003Z</time></trkpt><trkpt lat="37.20660494899787" lon="14.162304619140157"><ele>297.3333333333333</ele><time>2026-03-29T14:34:12.003Z</time></trkpt><trkpt lat="37.20662010018714" lon="14.162116821876047"><ele>295.0</ele><time>2026-03-29T14:34:13.003Z</time></trkpt><trkpt lat="37.206657661589226" lon="14.161928984648439"><ele>295.0</ele><time>2026-03-29T14:34:14.003Z</time></trkpt><trkpt lat="37.206716785776" lon="14.161733890215285"><ele>295.0</ele><time>2026-03-29T14:34:15.003Z</time></trkpt><trkpt lat="37.20677496299885" lon="14.161527027681993"><ele>295.0</ele><time>2026-03-29T14:34:16.003Z</time></trkpt><trkpt lat="37.206849838619185" lon="14.161323572331245"><ele>293.66666666666663</ele><time>2026-03-29T14:34:17.003Z</time></trkpt><trkpt lat="37.206893001205735" lon="14.161113921656954"><ele>292.3333333333333</ele><time>2026-03-29T14:34:18.003Z</time></trkpt><trkpt lat="37.206951341757026" lon="14.160902727768992"><ele>291.0</ele><time>2026-03-29T14:34:19.003Z</time></trkpt><trkpt lat="37.2070156870519" lon="14.160693175408005"><ele>290.0</ele><time>2026-03-29T14:34:20.003Z</time></trkpt><trkpt lat="37.20708907605923" lon="14.160487684898664"><ele>289.0</ele><time>2026-03-29T14:34:21Z</time></trkpt><trkpt lat="37.207185142557705" lon="14.160293592643642"><ele>288.0</ele><time>2026-03-29T14:34:22Z</time></trkpt><trkpt lat="37.207269106995476" lon="14.160094442634737"><ele>289.3333333333333</ele><time>2026-03-29T14:34:23Z</time></trkpt><trkpt lat="37.20735086563302" lon="14.15989856921781"><ele>290.66666666666663</ele><time>2026-03-29T14:34:24Z</time></trkpt><trkpt lat="37.20743150042762" lon="14.159705326981635"><ele>292.0</ele><time>2026-03-29T14:34:25Z</time></trkpt><trkpt lat="37.20750658116715" lon="14.159521155793215"><ele>292.0</ele><time>2026-03-29T14:34:26Z</time></trkpt><trkpt lat="37.20757521234544" lon="14.159350312758415"><ele>292.0</ele><time>2026-03-29T14:34:27Z</time></trkpt><trkpt lat="37.2076327481001" lon="14.159185996094685"><ele>292.0</ele><time>2026-03-29T14:34:28Z</time></trkpt><trkpt lat="37.20766160169081" lon="14.159010012121971"><ele>292.0</ele><time>2026-03-29T14:34:29Z</time></trkpt><trkpt lat="37.207693007777145" lon="14.15883069486661"><ele>292.0</ele><time>2026-03-29T14:34:30Z</time></trkpt><trkpt lat="37.20770436666801" lon="14.158633007609671"><ele>292.0</ele><time>2026-03-29T14:34:31Z</time></trkpt><trkpt lat="37.207704456117376" lon="14.15842408980202"><ele>292.0</ele><time>2026-03-29T14:34:32Z</time></trkpt><trkpt lat="37.207699122674335" lon="14.158199444066947"><ele>292.0</ele><time>2026-03-29T14:34:33Z</time></trkpt><trkpt lat="37.20769642039081" lon="14.157965302914679"><ele>292.0</ele><time>2026-03-29T14:34:34Z</time></trkpt><trkpt lat="37.20769450015633" lon="14.157727789804834"><ele>292.0</ele><time>2026-03-29T14:34:35Z</time></trkpt><trkpt lat="37.20769097371944" lon="14.15748799811487"><ele>293.3333333333333</ele><time>2026-03-29T14:34:36Z</time></trkpt><trkpt lat="37.20768563155741" lon="14.157246710117667"><ele>294.6666666666667</ele><time>2026-03-29T14:34:37Z</time></trkpt><trkpt lat="37.207673501372305" lon="14.157007038785691"><ele>296.0</ele><time>2026-03-29T14:34:38Z</time></trkpt><trkpt lat="37.207655019067836" lon="14.156769584718129"><ele>297.33333333333337</ele><time>2026-03-29T14:34:39Z</time></trkpt><trkpt lat="37.20763298405386" lon="14.156535497258394"><ele>298.6666666666667</ele><time>2026-03-29T14:34:40Z</time></trkpt><trkpt lat="37.20761315253238" lon="14.156310593571336"><ele>300.0</ele><time>2026-03-29T14:34:41Z</time></trkpt><trkpt lat="37.20759654485979" lon="14.156086376779449"><ele>300.0</ele><time>2026-03-29T14:34:42Z</time></trkpt><trkpt lat="37.20757640779021" lon="14.155858944943791"><ele>300.0</ele><time>2026-03-29T14:34:43Z</time></trkpt><trkpt lat="37.20754247600271" lon="14.155635144267757"><ele>300.0</ele><time>2026-03-29T14:34:44Z</time></trkpt><trkpt lat="37.207486045454715" lon="14.155424789020897"><ele>303.0</ele><time>2026-03-29T14:34:45Z</time></trkpt><trkpt lat="37.2074130478623" lon="14.155211933541818"><ele>306.0</ele><time>2026-03-29T14:34:46Z</time></trkpt><trkpt lat="37.20733111491895" lon="14.155001301071744"><ele>309.0</ele><time>2026-03-29T14:34:47Z</time></trkpt><trkpt lat="37.20723766723844" lon="14.154799054527022"><ele>311.0</ele><time>2026-03-29T14:34:48Z</time></trkpt><trkpt lat="37.20714452386478" lon="14.15459731189779"><ele>313.0</ele><time>2026-03-29T14:34:49.001Z</time></trkpt><trkpt lat="37.207055370315715" lon="14.154402767297533"><ele>315.0</ele><time>2026-03-29T14:34:50.001Z</time></trkpt><trkpt lat="37.206968558583256" lon="14.154212406036413"><ele>315.6666666666667</ele><time>2026-03-29T14:34:51.001Z</time></trkpt><trkpt lat="37.20688262864034" lon="14.154014389297856"><ele>316.33333333333337</ele><time>2026-03-29T14:34:52.001Z</time></trkpt><trkpt lat="37.20679794424035" lon="14.153810256124371"><ele>317.0</ele><time>2026-03-29T14:34:53.001Z</time></trkpt><trkpt lat="37.20671536898327" lon="14.15359667867096"><ele>317.0</ele><time>2026-03-29T14:34:54.001Z</time></trkpt><trkpt lat="37.20663781077056" lon="14.153379232504545"><ele>317.0</ele><time>2026-03-29T14:34:55.001Z</time></trkpt><trkpt lat="37.206565755975234" lon="14.153158643948881"><ele>317.0</ele><time>2026-03-29T14:34:56.001Z</time></trkpt><trkpt lat="37.20649519471641" lon="14.152943191653376"><ele>316.33333333333337</ele><time>2026-03-29T14:34:57.001Z</time></trkpt><trkpt lat="37.20642325471685" lon="14.152731432674274"><ele>315.6666666666667</ele><time>2026-03-29T14:34:58.001Z</time></trkpt><trkpt lat="37.206356883022664" lon="14.152538974505594"><ele>315.0</ele><time>2026-03-29T14:34:59.001Z</time></trkpt><trkpt lat="37.20628974170079" lon="14.152346284816128"><ele>314.75</ele><time>2026-03-29T14:35:00.001Z</time></trkpt><trkpt lat="37.20624177666733" lon="14.152158334099159"><ele>314.5</ele><time>2026-03-29T14:35:01.001Z</time></trkpt><trkpt lat="37.20617090029973" lon="14.152000640832163"><ele>314.25</ele><time>2026-03-29T14:35:02.001Z</time></trkpt><trkpt lat="37.20612409482288" lon="14.151855859981458"><ele>314.0</ele><time>2026-03-29T14:35:03.001Z</time></trkpt><trkpt lat="37.20609051754277" lon="14.151739917370147"><ele>314.0</ele><time>2026-03-29T14:35:04.001Z</time></trkpt><trkpt lat="37.20606491510659" lon="14.151568405749542"><ele>314.0</ele><time>2026-03-29T14:35:06.001Z</time></trkpt><trkpt lat="37.206229133764374" lon="14.151426992033743"><ele>314.0</ele><time>2026-03-29T14:35:09.001Z</time></trkpt><trkpt lat="37.20632212200229" lon="14.151403252136216"><ele>314.0</ele><time>2026-03-29T14:35:10.001Z</time></trkpt><trkpt lat="37.20642934362915" lon="14.151374822249839"><ele>313.25</ele><time>2026-03-29T14:35:11.001Z</time></trkpt><trkpt lat="37.206543539608205" lon="14.151342050115826"><ele>312.5</ele><time>2026-03-29T14:35:12.001Z</time></trkpt><trkpt lat="37.206666613092246" lon="14.15130598807399"><ele>311.75</ele><time>2026-03-29T14:35:13.001Z</time></trkpt><trkpt lat="37.206793746271224" lon="14.151275900946096"><ele>311.0</ele><time>2026-03-29T14:35:14.001Z</time></trkpt><trkpt lat="37.20692726716499" lon="14.151246608149448"><ele>311.0</ele><time>2026-03-29T14:35:15.001Z</time></trkpt><trkpt lat="37.20706240340425" lon="14.151215088189307"><ele>311.0</ele><time>2026-03-29T14:35:16.001Z</time></trkpt><trkpt lat="37.207198152939895" lon="14.151182151725964"><ele>311.0</ele><time>2026-03-29T14:35:17.001Z</time></trkpt><trkpt lat="37.20732477442156" lon="14.151147856330697"><ele>311.0</ele><time>2026-03-29T14:35:18.001Z</time></trkpt><trkpt lat="37.207444752237535" lon="14.151093980123047"><ele>312.25</ele><time>2026-03-29T14:35:19.001Z</time></trkpt><trkpt lat="37.207559460566074" lon="14.15101323708969"><ele>313.5</ele><time>2026-03-29T14:35:20.001Z</time></trkpt><trkpt lat="37.207666355974524" lon="14.150909588885092"><ele>314.75</ele><time>2026-03-29T14:35:21.001Z</time></trkpt><trkpt lat="37.20776523787343" lon="14.150803587085683"><ele>316.0</ele><time>2026-03-29T14:35:22.001Z</time></trkpt><trkpt lat="37.2078552721869" lon="14.150710851690707"><ele>316.0</ele><time>2026-03-29T14:35:23.001Z</time></trkpt><trkpt lat="37.207940724601514" lon="14.150635302700328"><ele>316.0</ele><time>2026-03-29T14:35:24.001Z</time></trkpt><trkpt lat="37.20801925203291" lon="14.15057318107159"><ele>316.0</ele><time>2026-03-29T14:35:25.001Z</time></trkpt><trkpt lat="37.20809616418634" lon="14.150532888317398"><ele>316.0</ele><time>2026-03-29T14:35:26.001Z</time></trkpt><trkpt lat="37.208160030214444" lon="14.150488125498823"><ele>316.0</ele><time>2026-03-29T14:35:27.001Z</time></trkpt><trkpt lat="37.20815928230729" lon="14.150209802477395"><ele>316.0</ele><time>2026-03-29T14:35:29.002Z</time></trkpt><trkpt lat="37.208131018533045" lon="14.150070762181388"><ele>316.0</ele><time>2026-03-29T14:35:30.002Z</time></trkpt><trkpt lat="37.20809397236921" lon="14.149916555960697"><ele>316.0</ele><time>2026-03-29T14:35:31.002Z</time></trkpt><trkpt lat="37.20806175734651" lon="14.14975577088114"><ele>316.0</ele><time>2026-03-29T14:35:32.002Z</time></trkpt><trkpt lat="37.20804716858689" lon="14.149597293234327"><ele>315.75</ele><time>2026-03-29T14:35:33.002Z</time></trkpt><trkpt lat="37.20805093449795" lon="14.149445320276632"><ele>315.5</ele><time>2026-03-29T14:35:34.002Z</time></trkpt><trkpt lat="37.208071863353396" lon="14.149301120552117"><ele>315.25</ele><time>2026-03-29T14:35:35.002Z</time></trkpt><trkpt lat="37.20811424960558" lon="14.149156996854757"><ele>315.0</ele><time>2026-03-29T14:35:36.002Z</time></trkpt><trkpt lat="37.20815609986605" lon="14.14900745249734"><ele>316.0</ele><time>2026-03-29T14:35:37.002Z</time></trkpt><trkpt lat="37.208248314054586" lon="14.148843567908159"><ele>317.0</ele><time>2026-03-29T14:35:38.002Z</time></trkpt><trkpt lat="37.208334267611235" lon="14.14865350448053"><ele>318.0</ele><time>2026-03-29T14:35:39.002Z</time></trkpt><trkpt lat="37.20842935056844" lon="14.148460254511983"><ele>318.0</ele><time>2026-03-29T14:35:40.002Z</time></trkpt><trkpt lat="37.208541539053776" lon="14.148252968005265"><ele>318.0</ele><time>2026-03-29T14:35:41.002Z</time></trkpt><trkpt lat="37.20866739435834" lon="14.148039125137993"><ele>318.0</ele><time>2026-03-29T14:35:42.002Z</time></trkpt><trkpt lat="37.208802046397395" lon="14.147825815454233"><ele>320.5</ele><time>2026-03-29T14:35:43.002Z</time></trkpt><trkpt lat="37.20908152986618" lon="14.147388064961357"><ele>323.0</ele><time>2026-03-29T14:35:45.002Z</time></trkpt><trkpt lat="37.20922285845327" lon="14.147163656746663"><ele>323.0</ele><time>2026-03-29T14:35:46.002Z</time></trkpt><trkpt lat="37.209365517028736" lon="14.146939585539206"><ele>323.0</ele><time>2026-03-29T14:35:47.002Z</time></trkpt><trkpt lat="37.209505977467195" lon="14.14671957678283"><ele>320.0</ele><time>2026-03-29T14:35:48.002Z</time></trkpt><trkpt lat="37.2096462380072" lon="14.146498331838552"><ele>317.0</ele><time>2026-03-29T14:35:49.002Z</time></trkpt><trkpt lat="37.20978646598296" lon="14.146276561601086"><ele>322.5</ele><time>2026-03-29T14:35:50.002Z</time></trkpt><trkpt lat="37.20992780599496" lon="14.146056439730941"><ele>328.0</ele><time>2026-03-29T14:35:51.002Z</time></trkpt><trkpt lat="37.21006955026974" lon="14.145837811434419"><ele>327.0</ele><time>2026-03-29T14:35:52.002Z</time></trkpt><trkpt lat="37.210211465318196" lon="14.14561957918302"><ele>326.0</ele><time>2026-03-29T14:35:53.002Z</time></trkpt><trkpt lat="37.210351837541076" lon="14.145401181459244"><ele>325.0</ele><time>2026-03-29T14:35:54.002Z</time></trkpt><trkpt lat="37.210491674525834" lon="14.145183968956825"><ele>325.0</ele><time>2026-03-29T14:35:55.002Z</time></trkpt><trkpt lat="37.2106308785408" lon="14.144966366315437"><ele>325.0</ele><time>2026-03-29T14:35:56.002Z</time></trkpt><trkpt lat="37.210768516842435" lon="14.144748712883954"><ele>325.0</ele><time>2026-03-29T14:35:57.002Z</time></trkpt><trkpt lat="37.21090707774442" lon="14.144532806315047"><ele>329.3333333333333</ele><time>2026-03-29T14:35:58.002Z</time></trkpt><trkpt lat="37.21104403175672" lon="14.144320658439296"><ele>333.6666666666667</ele><time>2026-03-29T14:35:59.002Z</time></trkpt><trkpt lat="37.21117901370765" lon="14.1441071071618"><ele>338.0</ele><time>2026-03-29T14:36:00.002Z</time></trkpt><trkpt lat="37.21131391769312" lon="14.143892864994763"><ele>339.0</ele><time>2026-03-29T14:36:01.002Z</time></trkpt><trkpt lat="37.21144929016337" lon="14.14368146518994"><ele>340.0</ele><time>2026-03-29T14:36:02.002Z</time></trkpt><trkpt lat="37.21158581322215" lon="14.143471177271548"><ele>341.0</ele><time>2026-03-29T14:36:03.002Z</time></trkpt><trkpt lat="37.211722039551645" lon="14.14326032742647"><ele>343.0</ele><time>2026-03-29T14:36:04.002Z</time></trkpt><trkpt lat="37.211857431363235" lon="14.143048052796711"><ele>345.0</ele><time>2026-03-29T14:36:05.002Z</time></trkpt><trkpt lat="37.21199570740105" lon="14.142834291264927"><ele>347.0</ele><time>2026-03-29T14:36:06.002Z</time></trkpt><trkpt lat="37.212136181355326" lon="14.14262284951085"><ele>347.0</ele><time>2026-03-29T14:36:07.002Z</time></trkpt><trkpt lat="37.2122818943842" lon="14.142404761733326"><ele>347.0</ele><time>2026-03-29T14:36:08.003Z</time></trkpt><trkpt lat="37.21243138542783" lon="14.14219758542589"><ele>347.0</ele><time>2026-03-29T14:36:09.003Z</time></trkpt><trkpt lat="37.21259133680657" lon="14.141995801010607"><ele>346.5</ele><time>2026-03-29T14:36:10.003Z</time></trkpt><trkpt lat="37.2127567524804" lon="14.14179336592808"><ele>346.0</ele><time>2026-03-29T14:36:11.003Z</time></trkpt><trkpt lat="37.2129314153614" lon="14.141598919918655"><ele>346.0</ele><time>2026-03-29T14:36:12.003Z</time></trkpt><trkpt lat="37.21311566194718" lon="14.141410548361673"><ele>346.0</ele><time>2026-03-29T14:36:13.003Z</time></trkpt><trkpt lat="37.21330576443653" lon="14.1412306443996"><ele>346.0</ele><time>2026-03-29T14:36:14.003Z</time></trkpt><trkpt lat="37.213496755477166" lon="14.141055916066142"><ele>346.0</ele><time>2026-03-29T14:36:15.003Z</time></trkpt><trkpt lat="37.21368868530699" lon="14.14088382520958"><ele>344.5</ele><time>2026-03-29T14:36:16.003Z</time></trkpt><trkpt lat="37.213878437705596" lon="14.14071237272912"><ele>343.0</ele><time>2026-03-29T14:36:17.003Z</time></trkpt><trkpt lat="37.21407000844967" lon="14.140541161164844"><ele>346.0</ele><time>2026-03-29T14:36:18.003Z</time></trkpt><trkpt lat="37.21425971725985" lon="14.140367392831191"><ele>349.0</ele><time>2026-03-29T14:36:19.003Z</time></trkpt><trkpt lat="37.214451991888815" lon="14.140193708080222"><ele>349.0</ele><time>2026-03-29T14:36:20.003Z</time></trkpt><trkpt lat="37.21464485873392" lon="14.140021202842087"><ele>349.0</ele><time>2026-03-29T14:36:21.003Z</time></trkpt><trkpt lat="37.21483747032432" lon="14.139848539379866"><ele>351.5</ele><time>2026-03-29T14:36:22.003Z</time></trkpt><trkpt lat="37.215030583650965" lon="14.139676017165185"><ele>354.0</ele><time>2026-03-29T14:36:23.003Z</time></trkpt><trkpt lat="37.21522525763145" lon="14.139504501299895"><ele>354.0</ele><time>2026-03-29T14:36:24.003Z</time></trkpt><trkpt lat="37.21542082165939" lon="14.139333155257589"><ele>354.0</ele><time>2026-03-29T14:36:25.003Z</time></trkpt><trkpt lat="37.215615055992366" lon="14.139157873956398"><ele>355.0</ele><time>2026-03-29T14:36:26Z</time></trkpt><trkpt lat="37.215811606222296" lon="14.13898142824055"><ele>356.0</ele><time>2026-03-29T14:36:27Z</time></trkpt><trkpt lat="37.216011178914165" lon="14.138804082780531"><ele>356.0</ele><time>2026-03-29T14:36:28Z</time></trkpt><trkpt lat="37.21621102730373" lon="14.138622908087566"><ele>356.0</ele><time>2026-03-29T14:36:29Z</time></trkpt><trkpt lat="37.21641457723031" lon="14.138442427193445"><ele>358.0</ele><time>2026-03-29T14:36:30Z</time></trkpt><trkpt lat="37.21662042489466" lon="14.13825943540116"><ele>360.0</ele><time>2026-03-29T14:36:31Z</time></trkpt><trkpt lat="37.21682858986659" lon="14.13807359523763"><ele>360.0</ele><time>2026-03-29T14:36:32Z</time></trkpt><trkpt lat="37.21703517114392" lon="14.137887969317063"><ele>360.0</ele><time>2026-03-29T14:36:33Z</time></trkpt><trkpt lat="37.2172400704342" lon="14.137705227499534"><ele>363.5</ele><time>2026-03-29T14:36:34Z</time></trkpt><trkpt lat="37.217449434589156" lon="14.137519679658693"><ele>367.0</ele><time>2026-03-29T14:36:35Z</time></trkpt><trkpt lat="37.217660623619736" lon="14.137330480091924"><ele>367.0</ele><time>2026-03-29T14:36:36Z</time></trkpt><trkpt lat="37.21787169381987" lon="14.137143175945518"><ele>367.0</ele><time>2026-03-29T14:36:37Z</time></trkpt><trkpt lat="37.21808023387727" lon="14.136957167127179"><ele>371.0</ele><time>2026-03-29T14:36:38Z</time></trkpt><trkpt lat="37.218290805919736" lon="14.136770773844"><ele>375.0</ele><time>2026-03-29T14:36:39Z</time></trkpt><trkpt lat="37.21850097550441" lon="14.136586238634653"><ele>375.0</ele><time>2026-03-29T14:36:40Z</time></trkpt><trkpt lat="37.21870941990566" lon="14.136399921284692"><ele>375.0</ele><time>2026-03-29T14:36:41Z</time></trkpt><trkpt lat="37.218919164967076" lon="14.13621461774241"><ele>376.5</ele><time>2026-03-29T14:36:42Z</time></trkpt><trkpt lat="37.219131645682175" lon="14.136029695535271"><ele>378.0</ele><time>2026-03-29T14:36:43Z</time></trkpt><trkpt lat="37.219344600531784" lon="14.13584941576658"><ele>375.0</ele><time>2026-03-29T14:36:44Z</time></trkpt><trkpt lat="37.21956196950344" lon="14.13567574424725"><ele>372.0</ele><time>2026-03-29T14:36:45Z</time></trkpt><trkpt lat="37.21978429940236" lon="14.13551486511047"><ele>375.5</ele><time>2026-03-29T14:36:46Z</time></trkpt><trkpt lat="37.22001242567564" lon="14.135365572370176"><ele>379.0</ele><time>2026-03-29T14:36:47Z</time></trkpt><trkpt lat="37.22024446858854" lon="14.135233117809646"><ele>379.0</ele><time>2026-03-29T14:36:48Z</time></trkpt><trkpt lat="37.220481648208796" lon="14.135112053216005"><ele>379.0</ele><time>2026-03-29T14:36:49Z</time></trkpt><trkpt lat="37.22072602787827" lon="14.13500738012683"><ele>382.0</ele><time>2026-03-29T14:36:50Z</time></trkpt><trkpt lat="37.22097604101248" lon="14.134922987875527"><ele>385.0</ele><time>2026-03-29T14:36:51.001Z</time></trkpt><trkpt lat="37.2212303464545" lon="14.134856487842937"><ele>380.5</ele><time>2026-03-29T14:36:52.001Z</time></trkpt><trkpt lat="37.22148733950182" lon="14.134804682832925"><ele>376.0</ele><time>2026-03-29T14:36:53.001Z</time></trkpt><trkpt lat="37.22174475337781" lon="14.134773072411654"><ele>376.0</ele><time>2026-03-29T14:36:54.001Z</time></trkpt><trkpt lat="37.2220024822106" lon="14.134762944003214"><ele>376.0</ele><time>2026-03-29T14:36:55.001Z</time></trkpt><trkpt lat="37.22225865225354" lon="14.134771437575028"><ele>370.5</ele><time>2026-03-29T14:36:56.001Z</time></trkpt><trkpt lat="37.2225154783017" lon="14.134794888716051"><ele>365.0</ele><time>2026-03-29T14:36:57.001Z</time></trkpt><trkpt lat="37.22277010276637" lon="14.134829604840228"><ele>365.0</ele><time>2026-03-29T14:36:58.001Z</time></trkpt><trkpt lat="37.2230254430742" lon="14.134874930773158"><ele>365.0</ele><time>2026-03-29T14:36:59.001Z</time></trkpt><trkpt lat="37.22327771637974" lon="14.13492243625672"><ele>362.5</ele><time>2026-03-29T14:37:00.001Z</time></trkpt><trkpt lat="37.223528001411985" lon="14.134974737900492"><ele>360.0</ele><time>2026-03-29T14:37:01.001Z</time></trkpt><trkpt lat="37.223776738533516" lon="14.135025963202676"><ele>359.0</ele><time>2026-03-29T14:37:02.001Z</time></trkpt><trkpt lat="37.22402478562903" lon="14.135079174018474"><ele>358.0</ele><time>2026-03-29T14:37:03.001Z</time></trkpt><trkpt lat="37.22427438353652" lon="14.135134932205153"><ele>358.0</ele><time>2026-03-29T14:37:04.001Z</time></trkpt><trkpt lat="37.224524647721665" lon="14.135192494444778"><ele>358.0</ele><time>2026-03-29T14:37:05.001Z</time></trkpt><trkpt lat="37.22477376205139" lon="14.135247345102819"><ele>357.5</ele><time>2026-03-29T14:37:06.001Z</time></trkpt><trkpt lat="37.22502512521253" lon="14.135299549181063"><ele>357.0</ele><time>2026-03-29T14:37:07.001Z</time></trkpt><trkpt lat="37.225277085010866" lon="14.135350370831443"><ele>357.0</ele><time>2026-03-29T14:37:08.001Z</time></trkpt><trkpt lat="37.22552898813222" lon="14.135402429036242"><ele>357.0</ele><time>2026-03-29T14:37:09.001Z</time></trkpt><trkpt lat="37.22577789810378" lon="14.135453178218803"><ele>356.0</ele><time>2026-03-29T14:37:10.001Z</time></trkpt><trkpt lat="37.22603269581326" lon="14.135511015113407"><ele>355.0</ele><time>2026-03-29T14:37:11.001Z</time></trkpt><trkpt lat="37.22629331595708" lon="14.135570144887895"><ele>357.0</ele><time>2026-03-29T14:37:12.001Z</time></trkpt><trkpt lat="37.22655684878024" lon="14.135628278685042"><ele>359.0</ele><time>2026-03-29T14:37:13.001Z</time></trkpt><trkpt lat="37.226819956091795" lon="14.135686417502036"><ele>360.5</ele><time>2026-03-29T14:37:14.001Z</time></trkpt><trkpt lat="37.22708462477711" lon="14.135746407286032"><ele>362.0</ele><time>2026-03-29T14:37:15.001Z</time></trkpt><trkpt lat="37.22735287026592" lon="14.135803513751586"><ele>362.0</ele><time>2026-03-29T14:37:16.001Z</time></trkpt><trkpt lat="37.22762168674615" lon="14.135866044083722"><ele>362.0</ele><time>2026-03-29T14:37:17.001Z</time></trkpt><trkpt lat="37.22789166372819" lon="14.135921561276383"><ele>360.5</ele><time>2026-03-29T14:37:18.001Z</time></trkpt><trkpt lat="37.22817379369319" lon="14.135979266981748"><ele>359.0</ele><time>2026-03-29T14:37:19.001Z</time></trkpt><trkpt lat="37.22846657908145" lon="14.136027995394949"><ele>359.0</ele><time>2026-03-29T14:37:20.001Z</time></trkpt><trkpt lat="37.22876461801608" lon="14.13606537695789"><ele>359.0</ele><time>2026-03-29T14:37:21.001Z</time></trkpt><trkpt lat="37.2290713693822" lon="14.136083503530735"><ele>355.5</ele><time>2026-03-29T14:37:22.001Z</time></trkpt><trkpt lat="37.22937975671628" lon="14.1360957284951"><ele>352.0</ele><time>2026-03-29T14:37:23.001Z</time></trkpt><trkpt lat="37.22971119262181" lon="14.136096252015077"><ele>347.0</ele><time>2026-03-29T14:37:24.001Z</time></trkpt><trkpt lat="37.230037538422536" lon="14.136112872280181"><ele>342.0</ele><time>2026-03-29T14:37:25.001Z</time></trkpt><trkpt lat="37.230368565926284" lon="14.136136843717948"><ele>338.5</ele><time>2026-03-29T14:37:26.001Z</time></trkpt><trkpt lat="37.23070145727075" lon="14.136165926675758"><ele>335.0</ele><time>2026-03-29T14:37:27.001Z</time></trkpt><trkpt lat="37.231037407180075" lon="14.136196636658324"><ele>335.0</ele><time>2026-03-29T14:37:28.001Z</time></trkpt><trkpt lat="37.23137434317584" lon="14.136228146904127"><ele>335.0</ele><time>2026-03-29T14:37:29.001Z</time></trkpt><trkpt lat="37.231712413491124" lon="14.13625740432547"><ele>335.0</ele><time>2026-03-29T14:37:30.001Z</time></trkpt><trkpt lat="37.23204753964915" lon="14.13628291301858"><ele>335.0</ele><time>2026-03-29T14:37:31.001Z</time></trkpt><trkpt lat="37.23238164793365" lon="14.136305420757042"><ele>335.0</ele><time>2026-03-29T14:37:32.001Z</time></trkpt><trkpt lat="37.23271596789219" lon="14.136326428284839"><ele>335.0</ele><time>2026-03-29T14:37:33.001Z</time></trkpt><trkpt lat="37.23304944372715" lon="14.136347205972728"><ele>333.0</ele><time>2026-03-29T14:37:34.001Z</time></trkpt><trkpt lat="37.233383208712546" lon="14.136369532961497"><ele>331.0</ele><time>2026-03-29T14:37:35.002Z</time></trkpt><trkpt lat="37.23371640372233" lon="14.136391842957783"><ele>330.5</ele><time>2026-03-29T14:37:36.002Z</time></trkpt><trkpt lat="37.2340478312823" lon="14.136414952420257"><ele>330.0</ele><time>2026-03-29T14:37:37.002Z</time></trkpt><trkpt lat="37.234379613501964" lon="14.136434922440321"><ele>330.0</ele><time>2026-03-29T14:37:38.002Z</time></trkpt><trkpt lat="37.23471235720852" lon="14.13644103476095"><ele>330.0</ele><time>2026-03-29T14:37:39.002Z</time></trkpt><trkpt lat="37.235043618639466" lon="14.136428077247345"><ele>329.5</ele><time>2026-03-29T14:37:40.002Z</time></trkpt><trkpt lat="37.23536688251627" lon="14.136390838069628"><ele>329.0</ele><time>2026-03-29T14:37:41.002Z</time></trkpt><trkpt lat="37.23567720766859" lon="14.136326014233482"><ele>330.0</ele><time>2026-03-29T14:37:42.002Z</time></trkpt><trkpt lat="37.23598104604342" lon="14.136238466589612"><ele>331.0</ele><time>2026-03-29T14:37:43.002Z</time></trkpt><trkpt lat="37.236282718749415" lon="14.136122433593995"><ele>331.5</ele><time>2026-03-29T14:37:44.002Z</time></trkpt><trkpt lat="37.23658317344692" lon="14.135979300700392"><ele>332.0</ele><time>2026-03-29T14:37:45.002Z</time></trkpt><trkpt lat="37.236874312392516" lon="14.135806663840725"><ele>333.0</ele><time>2026-03-29T14:37:46.002Z</time></trkpt><trkpt lat="37.23716039530858" lon="14.135610357807987"><ele>334.0</ele><time>2026-03-29T14:37:47.002Z</time></trkpt><trkpt lat="37.23744246623825" lon="14.135406382492151"><ele>334.0</ele><time>2026-03-29T14:37:48.002Z</time></trkpt><trkpt lat="37.23772574205906" lon="14.135194093579667"><ele>334.0</ele><time>2026-03-29T14:37:49.002Z</time></trkpt><trkpt lat="37.23800927342599" lon="14.13497927612795"><ele>334.0</ele><time>2026-03-29T14:37:50.002Z</time></trkpt><trkpt lat="37.23829590677457" lon="14.134764641539615"><ele>334.0</ele><time>2026-03-29T14:37:51.002Z</time></trkpt><trkpt lat="37.23858372174253" lon="14.134547954539789"><ele>334.0</ele><time>2026-03-29T14:37:52.002Z</time></trkpt><trkpt lat="37.23887176308077" lon="14.134330828945544"><ele>334.0</ele><time>2026-03-29T14:37:53.002Z</time></trkpt><trkpt lat="37.23916060668076" lon="14.13411233375569"><ele>332.0</ele><time>2026-03-29T14:37:54.002Z</time></trkpt><trkpt lat="37.239451716931114" lon="14.13389274742033"><ele>330.0</ele><time>2026-03-29T14:37:55.002Z</time></trkpt><trkpt lat="37.23974365957407" lon="14.133673577498115"><ele>332.5</ele><time>2026-03-29T14:37:56.002Z</time></trkpt><trkpt lat="37.24003545903567" lon="14.13345384731506"><ele>335.0</ele><time>2026-03-29T14:37:57.002Z</time></trkpt><trkpt lat="37.24032650544174" lon="14.133235759896321"><ele>333.5</ele><time>2026-03-29T14:37:58.002Z</time></trkpt><trkpt lat="37.24061571147818" lon="14.133017069127195"><ele>332.0</ele><time>2026-03-29T14:37:59.002Z</time></trkpt><trkpt lat="37.240904296889305" lon="14.132799763675784"><ele>332.0</ele><time>2026-03-29T14:38:00.002Z</time></trkpt><trkpt lat="37.241193878430124" lon="14.13258344108193"><ele>332.0</ele><time>2026-03-29T14:38:01.002Z</time></trkpt><trkpt lat="37.24148285211159" lon="14.132368917639369"><ele>332.0</ele><time>2026-03-29T14:38:02.002Z</time></trkpt><trkpt lat="37.241772168388046" lon="14.132151621669298"><ele>332.0</ele><time>2026-03-29T14:38:03.002Z</time></trkpt><trkpt lat="37.242061171315704" lon="14.13193632381068"><ele>331.5</ele><time>2026-03-29T14:38:04.002Z</time></trkpt><trkpt lat="37.242346623155726" lon="14.131724311715141"><ele>331.0</ele><time>2026-03-29T14:38:05.002Z</time></trkpt><trkpt lat="37.24262849118061" lon="14.131524229530651"><ele>331.0</ele><time>2026-03-29T14:38:06.002Z</time></trkpt><trkpt lat="37.24290509564553" lon="14.131348283762382"><ele>331.0</ele><time>2026-03-29T14:38:07.002Z</time></trkpt><trkpt lat="37.24318845541461" lon="14.131192146527441"><ele>333.5</ele><time>2026-03-29T14:38:08.002Z</time></trkpt><trkpt lat="37.243480820924816" lon="14.131064022443207"><ele>336.0</ele><time>2026-03-29T14:38:09.002Z</time></trkpt><trkpt lat="37.243783008122264" lon="14.130961707058725"><ele>337.0</ele><time>2026-03-29T14:38:10.002Z</time></trkpt><trkpt lat="37.24409244272355" lon="14.130879267378587"><ele>338.0</ele><time>2026-03-29T14:38:11.002Z</time></trkpt><trkpt lat="37.24440629440359" lon="14.130815182907838"><ele>338.0</ele><time>2026-03-29T14:38:12.002Z</time></trkpt><trkpt lat="37.244724805812005" lon="14.130765598046711"><ele>338.0</ele><time>2026-03-29T14:38:13.002Z</time></trkpt><trkpt lat="37.245047935081985" lon="14.130720193018453"><ele>336.5</ele><time>2026-03-29T14:38:14.002Z</time></trkpt><trkpt lat="37.24536890092864" lon="14.130669212328923"><ele>335.0</ele><time>2026-03-29T14:38:15.003Z</time></trkpt><trkpt lat="37.245685859155415" lon="14.130615852774962"><ele>335.0</ele><time>2026-03-29T14:38:16.003Z</time></trkpt><trkpt lat="37.24600722210236" lon="14.130563283954785"><ele>335.0</ele><time>2026-03-29T14:38:17.003Z</time></trkpt><trkpt lat="37.24633166940996" lon="14.130511272864032"><ele>336.5</ele><time>2026-03-29T14:38:18.003Z</time></trkpt><trkpt lat="37.24665716226358" lon="14.130459393130748"><ele>338.0</ele><time>2026-03-29T14:38:19.003Z</time></trkpt><trkpt lat="37.24698352720087" lon="14.130406371698273"><ele>339.0</ele><time>2026-03-29T14:38:20.003Z</time></trkpt><trkpt lat="37.24731283186089" lon="14.130355650206585"><ele>340.0</ele><time>2026-03-29T14:38:21.003Z</time></trkpt><trkpt lat="37.24764136100664" lon="14.130305635849943"><ele>340.0</ele><time>2026-03-29T14:38:22.003Z</time></trkpt><trkpt lat="37.247971113396154" lon="14.13025339308089"><ele>340.0</ele><time>2026-03-29T14:38:23.003Z</time></trkpt><trkpt lat="37.24830087341122" lon="14.130201911255394"><ele>342.5</ele><time>2026-03-29T14:38:24.003Z</time></trkpt><trkpt lat="37.2486310452641" lon="14.13014995507934"><ele>345.0</ele><time>2026-03-29T14:38:25.003Z</time></trkpt><trkpt lat="37.2489619495218" lon="14.130096411529234"><ele>347.0</ele><time>2026-03-29T14:38:26.003Z</time></trkpt><trkpt lat="37.249289267719604" lon="14.130041289465675"><ele>349.0</ele><time>2026-03-29T14:38:27.003Z</time></trkpt><trkpt lat="37.24960853707537" lon="14.129989504237361"><ele>350.5</ele><time>2026-03-29T14:38:28.003Z</time></trkpt><trkpt lat="37.24991777122097" lon="14.129940929515227"><ele>352.0</ele><time>2026-03-29T14:38:29.003Z</time></trkpt><trkpt lat="37.25021018597978" lon="14.129896350413196"><ele>350.5</ele><time>2026-03-29T14:38:30.003Z</time></trkpt><trkpt lat="37.25050076717024" lon="14.129857455708914"><ele>349.0</ele><time>2026-03-29T14:38:31.003Z</time></trkpt><trkpt lat="37.250784650773575" lon="14.1298304717742"><ele>347.0</ele><time>2026-03-29T14:38:32Z</time></trkpt><trkpt lat="37.251068424336395" lon="14.12982089699656"><ele>345.0</ele><time>2026-03-29T14:38:33Z</time></trkpt><trkpt lat="37.25135149917951" lon="14.129831862866904"><ele>346.0</ele><time>2026-03-29T14:38:34Z</time></trkpt><trkpt lat="37.25163941573275" lon="14.129858341935579"><ele>347.0</ele><time>2026-03-29T14:38:35Z</time></trkpt><trkpt lat="37.251927626785616" lon="14.129911630155815"><ele>349.0</ele><time>2026-03-29T14:38:36Z</time></trkpt><trkpt lat="37.252212901515165" lon="14.129988208432765"><ele>351.0</ele><time>2026-03-29T14:38:37Z</time></trkpt><trkpt lat="37.2524911203636" lon="14.130091982358062"><ele>351.5</ele><time>2026-03-29T14:38:38Z</time></trkpt><trkpt lat="37.252761896554986" lon="14.130215449798536"><ele>352.0</ele><time>2026-03-29T14:38:39Z</time></trkpt><trkpt lat="37.253022468503794" lon="14.130359544514402"><ele>351.5</ele><time>2026-03-29T14:38:40Z</time></trkpt><trkpt lat="37.25327625145782" lon="14.130520111550158"><ele>351.0</ele><time>2026-03-29T14:38:41Z</time></trkpt><trkpt lat="37.25351809234896" lon="14.13069746085751"><ele>353.0</ele><time>2026-03-29T14:38:42Z</time></trkpt><trkpt lat="37.25375008218316" lon="14.130893122944025"><ele>355.0</ele><time>2026-03-29T14:38:43Z</time></trkpt><trkpt lat="37.25396864694722" lon="14.131103477274442"><ele>355.0</ele><time>2026-03-29T14:38:44Z</time></trkpt><trkpt lat="37.25416790227838" lon="14.131321621247263"><ele>355.0</ele><time>2026-03-29T14:38:45Z</time></trkpt><trkpt lat="37.25435688088297" lon="14.131549278228885"><ele>355.5</ele><time>2026-03-29T14:38:46Z</time></trkpt><trkpt lat="37.254541447803526" lon="14.131777928532708"><ele>356.0</ele><time>2026-03-29T14:38:47Z</time></trkpt><trkpt lat="37.25471902437139" lon="14.132012412397396"><ele>357.0</ele><time>2026-03-29T14:38:48Z</time></trkpt><trkpt lat="37.254888072518895" lon="14.13224753954541"><ele>358.0</ele><time>2026-03-29T14:38:49.001Z</time></trkpt><trkpt lat="37.25505679827151" lon="14.13248526873406"><ele>358.5</ele><time>2026-03-29T14:38:50.001Z</time></trkpt><trkpt lat="37.25522507101007" lon="14.132718586832887"><ele>359.0</ele><time>2026-03-29T14:38:51.001Z</time></trkpt><trkpt lat="37.255395057922314" lon="14.132950275950298"><ele>359.0</ele><time>2026-03-29T14:38:52.001Z</time></trkpt><trkpt lat="37.25556635021743" lon="14.133183504662439"><ele>359.0</ele><time>2026-03-29T14:38:53.001Z</time></trkpt><trkpt lat="37.25573859342219" lon="14.133421517992614"><ele>360.0</ele><time>2026-03-29T14:38:54.001Z</time></trkpt><trkpt lat="37.255911923165655" lon="14.133664036944882"><ele>361.0</ele><time>2026-03-29T14:38:55.001Z</time></trkpt><trkpt lat="37.25608208159221" lon="14.13389916884949"><ele>362.5</ele><time>2026-03-29T14:38:56.001Z</time></trkpt><trkpt lat="37.256251512332334" lon="14.13413449660121"><ele>364.0</ele><time>2026-03-29T14:38:57.001Z</time></trkpt><trkpt lat="37.25641907080909" lon="14.134366304395963"><ele>362.0</ele><time>2026-03-29T14:38:58.001Z</time></trkpt><trkpt lat="37.25658558919747" lon="14.13459572419959"><ele>360.0</ele><time>2026-03-29T14:38:59.001Z</time></trkpt><trkpt lat="37.25675115111202" lon="14.134826044963505"><ele>360.5</ele><time>2026-03-29T14:39:00.001Z</time></trkpt><trkpt lat="37.25691396888218" lon="14.13505851760797"><ele>361.0</ele><time>2026-03-29T14:39:01.001Z</time></trkpt><trkpt lat="37.25707699025296" lon="14.135293296199881"><ele>361.0</ele><time>2026-03-29T14:39:02.001Z</time></trkpt><trkpt lat="37.25724184524154" lon="14.135525715943514"><ele>361.0</ele><time>2026-03-29T14:39:03.001Z</time></trkpt><trkpt lat="37.257570034066454" lon="14.135987727211399"><ele>361.0</ele><time>2026-03-29T14:39:05.001Z</time></trkpt><trkpt lat="37.25773241132989" lon="14.136216420798744"><ele>361.0</ele><time>2026-03-29T14:39:06.001Z</time></trkpt><trkpt lat="37.257897288864974" lon="14.136446710542547"><ele>361.5</ele><time>2026-03-29T14:39:07.001Z</time></trkpt><trkpt lat="37.25806247765759" lon="14.136676662059486"><ele>362.0</ele><time>2026-03-29T14:39:08.001Z</time></trkpt><trkpt lat="37.258229876290244" lon="14.136908688453165"><ele>363.0</ele><time>2026-03-29T14:39:09.001Z</time></trkpt><trkpt lat="37.25839955781153" lon="14.137141770265028"><ele>364.0</ele><time>2026-03-29T14:39:10.001Z</time></trkpt><trkpt lat="37.2585692571085" lon="14.137376496859208"><ele>363.5</ele><time>2026-03-29T14:39:11.001Z</time></trkpt><trkpt lat="37.25874216736132" lon="14.137612753866437"><ele>363.0</ele><time>2026-03-29T14:39:12.001Z</time></trkpt><trkpt lat="37.25891036429446" lon="14.137850140518083"><ele>364.0</ele><time>2026-03-29T14:39:13.001Z</time></trkpt><trkpt lat="37.259088282681404" lon="14.138088936175704"><ele>365.0</ele><time>2026-03-29T14:39:14.001Z</time></trkpt><trkpt lat="37.259268263413986" lon="14.138329199039205"><ele>365.0</ele><time>2026-03-29T14:39:15.001Z</time></trkpt><trkpt lat="37.25945125446722" lon="14.138565699039725"><ele>365.0</ele><time>2026-03-29T14:39:16.001Z</time></trkpt><trkpt lat="37.25964109243251" lon="14.138794220974006"><ele>367.5</ele><time>2026-03-29T14:39:17.001Z</time></trkpt><trkpt lat="37.25983737682119" lon="14.139014280330159"><ele>370.0</ele><time>2026-03-29T14:39:18.001Z</time></trkpt><trkpt lat="37.260039442696396" lon="14.13922521536162"><ele>370.0</ele><time>2026-03-29T14:39:19.001Z</time></trkpt><trkpt lat="37.26024737781292" lon="14.139421276385017"><ele>370.0</ele><time>2026-03-29T14:39:20.001Z</time></trkpt><trkpt lat="37.260461882135715" lon="14.139604075699657"><ele>370.5</ele><time>2026-03-29T14:39:21.001Z</time></trkpt><trkpt lat="37.26068699239462" lon="14.139768316220717"><ele>371.0</ele><time>2026-03-29T14:39:22.001Z</time></trkpt><trkpt lat="37.260917596834815" lon="14.13991565349034"><ele>371.0</ele><time>2026-03-29T14:39:23.001Z</time></trkpt><trkpt lat="37.26115388452736" lon="14.14004885701033"><ele>371.0</ele><time>2026-03-29T14:39:24.001Z</time></trkpt><trkpt lat="37.26139496131205" lon="14.140164799806684"><ele>370.5</ele><time>2026-03-29T14:39:25.001Z</time></trkpt><trkpt lat="37.261641617777606" lon="14.140263422359512"><ele>370.0</ele><time>2026-03-29T14:39:26.001Z</time></trkpt><trkpt lat="37.261891791267296" lon="14.140344289471534"><ele>370.0</ele><time>2026-03-29T14:39:27.001Z</time></trkpt><trkpt lat="37.26214555399746" lon="14.140408325240347"><ele>370.0</ele><time>2026-03-29T14:39:28.001Z</time></trkpt><trkpt lat="37.262401116379316" lon="14.140455821020817"><ele>370.0</ele><time>2026-03-29T14:39:29.001Z</time></trkpt><trkpt lat="37.26265867392125" lon="14.140484256062004"><ele>370.0</ele><time>2026-03-29T14:39:30.001Z</time></trkpt><trkpt lat="37.262916779038605" lon="14.140491308280406"><ele>368.0</ele><time>2026-03-29T14:39:31.001Z</time></trkpt><trkpt lat="37.263175431266504" lon="14.140480120605776"><ele>366.0</ele><time>2026-03-29T14:39:32.001Z</time></trkpt><trkpt lat="37.263435451717164" lon="14.140454179487344"><ele>366.0</ele><time>2026-03-29T14:39:33.001Z</time></trkpt><trkpt lat="37.26369549887153" lon="14.140418106740208"><ele>366.0</ele><time>2026-03-29T14:39:34.002Z</time></trkpt><trkpt lat="37.26395410342477" lon="14.140373357146288"><ele>364.5</ele><time>2026-03-29T14:39:35.002Z</time></trkpt><trkpt lat="37.26421285084709" lon="14.14032352206869"><ele>363.0</ele><time>2026-03-29T14:39:36.002Z</time></trkpt><trkpt lat="37.26447262488433" lon="14.140272136382363"><ele>363.0</ele><time>2026-03-29T14:39:37.002Z</time></trkpt><trkpt lat="37.26473099592068" lon="14.1402179327518"><ele>363.0</ele><time>2026-03-29T14:39:38.002Z</time></trkpt><trkpt lat="37.26498903851903" lon="14.140158571550984"><ele>361.5</ele><time>2026-03-29T14:39:39.002Z</time></trkpt><trkpt lat="37.265244391672915" lon="14.140096983714832"><ele>360.0</ele><time>2026-03-29T14:39:40.002Z</time></trkpt><trkpt lat="37.26549827031993" lon="14.140039617052624"><ele>358.5</ele><time>2026-03-29T14:39:41.002Z</time></trkpt><trkpt lat="37.26575012799614" lon="14.13998288366049"><ele>357.0</ele><time>2026-03-29T14:39:42.002Z</time></trkpt><trkpt lat="37.26599703525575" lon="14.139925345228338"><ele>357.0</ele><time>2026-03-29T14:39:43.002Z</time></trkpt><trkpt lat="37.26624081359016" lon="14.139869625643408"><ele>357.0</ele><time>2026-03-29T14:39:44.002Z</time></trkpt><trkpt lat="37.266480081248105" lon="14.139817679754621"><ele>358.0</ele><time>2026-03-29T14:39:45.002Z</time></trkpt><trkpt lat="37.266713825785565" lon="14.139765789893595"><ele>359.0</ele><time>2026-03-29T14:39:46.002Z</time></trkpt><trkpt lat="37.26694075453334" lon="14.139712891659485"><ele>359.0</ele><time>2026-03-29T14:39:47.002Z</time></trkpt><trkpt lat="37.26716640109669" lon="14.1396627961277"><ele>359.0</ele><time>2026-03-29T14:39:48.002Z</time></trkpt><trkpt lat="37.2673933737284" lon="14.139610488002525"><ele>358.6666666666667</ele><time>2026-03-29T14:39:49.002Z</time></trkpt><trkpt lat="37.26761741110443" lon="14.139560126028769"><ele>358.3333333333333</ele><time>2026-03-29T14:39:50.002Z</time></trkpt><trkpt lat="37.267833452824576" lon="14.139511244201085"><ele>358.0</ele><time>2026-03-29T14:39:51.002Z</time></trkpt><trkpt lat="37.26804386111336" lon="14.139463203490019"><ele>357.3333333333333</ele><time>2026-03-29T14:39:52.002Z</time></trkpt><trkpt lat="37.268244977049186" lon="14.139415765025332"><ele>356.6666666666667</ele><time>2026-03-29T14:39:53.002Z</time></trkpt><trkpt lat="37.268443549080956" lon="14.139370540627864"><ele>356.0</ele><time>2026-03-29T14:39:54.002Z</time></trkpt><trkpt lat="37.26864327194979" lon="14.13932847065236"><ele>356.0</ele><time>2026-03-29T14:39:55.002Z</time></trkpt><trkpt lat="37.26882768272756" lon="14.139286624541928"><ele>356.0</ele><time>2026-03-29T14:39:56.002Z</time></trkpt><trkpt lat="37.2689999281614" lon="14.139240965318228"><ele>356.0</ele><time>2026-03-29T14:39:57.002Z</time></trkpt><trkpt lat="37.269166826395704" lon="14.13922273067681"><ele>357.25</ele><time>2026-03-29T14:39:58.002Z</time></trkpt><trkpt lat="37.2693044432228" lon="14.139191990245209"><ele>358.5</ele><time>2026-03-29T14:39:59.002Z</time></trkpt><trkpt lat="37.26942495961107" lon="14.139165069658004"><ele>359.75</ele><time>2026-03-29T14:40:00.002Z</time></trkpt><trkpt lat="37.26952763581314" lon="14.139142141155958"><ele>361.0</ele><time>2026-03-29T14:40:01.002Z</time></trkpt><trkpt lat="37.269614872679554" lon="14.13912266182122"><ele>361.0</ele><time>2026-03-29T14:40:02.002Z</time></trkpt><trkpt lat="37.269677634969355" lon="14.13910864298824"><ele>361.0</ele><time>2026-03-29T14:40:03.002Z</time></trkpt><trkpt lat="37.26973951590949" lon="14.138689817238761"><ele>361.0</ele><time>2026-03-29T14:40:36.003Z</time></trkpt><trkpt lat="37.269666734331956" lon="14.13866696956094"><ele>352.0</ele><time>2026-03-29T14:40:39Z</time></trkpt></trkseg><trkseg><trkpt lat="37.26966283372367" lon="14.138600952806392"><ele>352.0</ele><time>2026-03-29T14:57:31.493Z</time></trkpt><trkpt lat="37.26960057935867" lon="14.138626314069581"><ele>352.0</ele><time>2026-03-29T14:58:24Z</time></trkpt><trkpt lat="37.26951713817969" lon="14.138676344890738"><ele>352.0</ele><time>2026-03-29T14:58:26Z</time></trkpt><trkpt lat="37.26951243048527" lon="14.138776843086083"><ele>352.0</ele><time>2026-03-29T14:58:30Z</time></trkpt><trkpt lat="37.26948553687695" lon="14.138850130982837"><ele>352.0</ele><time>2026-03-29T14:58:32Z</time></trkpt><trkpt lat="37.269448987473154" lon="14.138933051373288"><ele>352.0</ele><time>2026-03-29T14:58:35Z</time></trkpt><trkpt lat="37.26939287827366" lon="14.139014650714476"><ele>352.66666666666663</ele><time>2026-03-29T14:58:38Z</time></trkpt><trkpt lat="37.269337188731946" lon="14.139096743590105"><ele>353.3333333333333</ele><time>2026-03-29T14:58:41Z</time></trkpt><trkpt lat="37.26924585236663" lon="14.139128570042656"><ele>354.0</ele><time>2026-03-29T14:58:44Z</time></trkpt><trkpt lat="37.26915290441864" lon="14.139144700783783"><ele>354.6666666666667</ele><time>2026-03-29T14:58:47Z</time></trkpt><trkpt lat="37.269074619147894" lon="14.139159947811969"><ele>355.33333333333337</ele><time>2026-03-29T14:58:50Z</time></trkpt><trkpt lat="37.2690003120453" lon="14.139185650950665"><ele>356.0</ele><time>2026-03-29T14:58:53Z</time></trkpt><trkpt lat="37.26892410214248" lon="14.139202260948078"><ele>356.0</ele><time>2026-03-29T14:58:56Z</time></trkpt><trkpt lat="37.268840794234045" lon="14.139220267455867"><ele>356.0</ele><time>2026-03-29T14:58:59Z</time></trkpt><trkpt lat="37.26876026852658" lon="14.139241885737952"><ele>356.0</ele><time>2026-03-29T14:59:02Z</time></trkpt><trkpt lat="37.26867258504914" lon="14.139269691074494"><ele>356.0</ele><time>2026-03-29T14:59:05Z</time></trkpt><trkpt lat="37.26859515858511" lon="14.139290748003178"><ele>356.0</ele><time>2026-03-29T14:59:07Z</time></trkpt><trkpt lat="37.2685123170198" lon="14.13931570243107"><ele>356.0</ele><time>2026-03-29T14:59:09Z</time></trkpt><trkpt lat="37.26842718984702" lon="14.13933863318972"><ele>356.0</ele><time>2026-03-29T14:59:11Z</time></trkpt><trkpt lat="37.26836260416211" lon="14.139357360424665"><ele>356.0</ele><time>2026-03-29T14:59:12Z</time></trkpt><trkpt lat="37.26827294212451" lon="14.139391609984322"><ele>356.0</ele><time>2026-03-29T14:59:13Z</time></trkpt><trkpt lat="37.26818025222424" lon="14.139422163316498"><ele>356.0</ele><time>2026-03-29T14:59:14Z</time></trkpt><trkpt lat="37.26806811365248" lon="14.13944908336289"><ele>356.0</ele><time>2026-03-29T14:59:15Z</time></trkpt><trkpt lat="37.26794366390406" lon="14.139475967001514"><ele>356.5</ele><time>2026-03-29T14:59:16Z</time></trkpt><trkpt lat="37.26780698186434" lon="14.139504875222588"><ele>357.0</ele><time>2026-03-29T14:59:17Z</time></trkpt><trkpt lat="37.26765964256551" lon="14.139535449567616"><ele>357.5</ele><time>2026-03-29T14:59:18Z</time></trkpt><trkpt lat="37.26750220106199" lon="14.139570916819917"><ele>358.0</ele><time>2026-03-29T14:59:19Z</time></trkpt><trkpt lat="37.26733281609567" lon="14.139609011726968"><ele>358.3333333333333</ele><time>2026-03-29T14:59:20Z</time></trkpt><trkpt lat="37.267158506845114" lon="14.139649318904386"><ele>358.6666666666667</ele><time>2026-03-29T14:59:21Z</time></trkpt><trkpt lat="37.26697511514271" lon="14.139688347562961"><ele>359.0</ele><time>2026-03-29T14:59:22Z</time></trkpt><trkpt lat="37.26678481406389" lon="14.139733069772458"><ele>359.0</ele><time>2026-03-29T14:59:23Z</time></trkpt><trkpt lat="37.26659091069146" lon="14.1397795733101"><ele>359.0</ele><time>2026-03-29T14:59:24Z</time></trkpt><trkpt lat="37.26639441539646" lon="14.139824423861793"><ele>359.0</ele><time>2026-03-29T14:59:25Z</time></trkpt><trkpt lat="37.26619253739312" lon="14.139867454299658"><ele>359.33333333333337</ele><time>2026-03-29T14:59:26Z</time></trkpt><trkpt lat="37.26599042263248" lon="14.13990856741997"><ele>359.6666666666667</ele><time>2026-03-29T14:59:27Z</time></trkpt><trkpt lat="37.2657860470227" lon="14.139951713318968"><ele>360.0</ele><time>2026-03-29T14:59:28Z</time></trkpt><trkpt lat="37.26558038219656" lon="14.139997480939856"><ele>360.0</ele><time>2026-03-29T14:59:29Z</time></trkpt><trkpt lat="37.26537250618146" lon="14.140041832530898"><ele>360.0</ele><time>2026-03-29T14:59:30Z</time></trkpt><trkpt lat="37.265161464892934" lon="14.14008943490293"><ele>360.0</ele><time>2026-03-29T14:59:31Z</time></trkpt><trkpt lat="37.26494322448286" lon="14.140138778932688"><ele>361.5</ele><time>2026-03-29T14:59:32Z</time></trkpt><trkpt lat="37.264512035323904" lon="14.140235563787408"><ele>363.0</ele><time>2026-03-29T14:59:34Z</time></trkpt><trkpt lat="37.26429558945828" lon="14.140281551990242"><ele>363.0</ele><time>2026-03-29T14:59:35Z</time></trkpt><trkpt lat="37.26408073671127" lon="14.140324273108341"><ele>363.0</ele><time>2026-03-29T14:59:36Z</time></trkpt><trkpt lat="37.263863645372965" lon="14.140362901895296"><ele>363.0</ele><time>2026-03-29T14:59:37Z</time></trkpt><trkpt lat="37.26364527959999" lon="14.140394968629362"><ele>364.0</ele><time>2026-03-29T14:59:37.999Z</time></trkpt><trkpt lat="37.26342611376864" lon="14.140419584458268"><ele>365.0</ele><time>2026-03-29T14:59:38.999Z</time></trkpt><trkpt lat="37.26320715178846" lon="14.140434982429788"><ele>366.0</ele><time>2026-03-29T14:59:39.999Z</time></trkpt><trkpt lat="37.262989279948705" lon="14.14044411466966"><ele>367.3333333333333</ele><time>2026-03-29T14:59:40.999Z</time></trkpt><trkpt lat="37.26277044071378" lon="14.140444413817832"><ele>368.66666666666663</ele><time>2026-03-29T14:59:41.999Z</time></trkpt><trkpt lat="37.26255327969753" lon="14.140434247862718"><ele>370.0</ele><time>2026-03-29T14:59:42.999Z</time></trkpt><trkpt lat="37.26234366739226" lon="14.140406152957283"><ele>370.0</ele><time>2026-03-29T14:59:43.999Z</time></trkpt><trkpt lat="37.26213032741454" lon="14.140365286188922"><ele>370.0</ele><time>2026-03-29T14:59:44.999Z</time></trkpt><trkpt lat="37.26192229786015" lon="14.140309791453792"><ele>370.0</ele><time>2026-03-29T14:59:45.999Z</time></trkpt><trkpt lat="37.26172077120977" lon="14.140246618216525"><ele>370.0</ele><time>2026-03-29T14:59:46.999Z</time></trkpt><trkpt lat="37.26151952503103" lon="14.140173541960682"><ele>370.0</ele><time>2026-03-29T14:59:47.999Z</time></trkpt><trkpt lat="37.261321599160205" lon="14.140090761406334"><ele>370.0</ele><time>2026-03-29T14:59:48.999Z</time></trkpt><trkpt lat="37.26112701437789" lon="14.139993186776929"><ele>370.0</ele><time>2026-03-29T14:59:49.999Z</time></trkpt><trkpt lat="37.260935180355474" lon="14.139882794579089"><ele>370.0</ele><time>2026-03-29T14:59:50.999Z</time></trkpt><trkpt lat="37.26074716489246" lon="14.139761049560898"><ele>370.0</ele><time>2026-03-29T14:59:51.999Z</time></trkpt><trkpt lat="37.260560764788806" lon="14.139626523960676"><ele>370.0</ele><time>2026-03-29T14:59:52.999Z</time></trkpt><trkpt lat="37.260380007953444" lon="14.139478026519052"><ele>370.0</ele><time>2026-03-29T14:59:53.999Z</time></trkpt><trkpt lat="37.2602029311378" lon="14.139320012818144"><ele>370.0</ele><time>2026-03-29T14:59:55Z</time></trkpt><trkpt lat="37.260028117096844" lon="14.139152000817978"><ele>370.3333333333333</ele><time>2026-03-29T14:59:56Z</time></trkpt><trkpt lat="37.25985887743536" lon="14.138974760042304"><ele>370.6666666666667</ele><time>2026-03-29T14:59:57Z</time></trkpt><trkpt lat="37.25969363001407" lon="14.138784358783132"><ele>371.0</ele><time>2026-03-29T14:59:58Z</time></trkpt><trkpt lat="37.25953254435644" lon="14.138590973532848"><ele>369.0</ele><time>2026-03-29T14:59:59Z</time></trkpt><trkpt lat="37.259372366234416" lon="14.138389770280213"><ele>367.0</ele><time>2026-03-29T15:00:00Z</time></trkpt><trkpt lat="37.259216910492114" lon="14.138189538619626"><ele>365.0</ele><time>2026-03-29T15:00:01Z</time></trkpt><trkpt lat="37.259063832603005" lon="14.137982127002415"><ele>364.0</ele><time>2026-03-29T15:00:02Z</time></trkpt><trkpt lat="37.25891335336993" lon="14.137772214518648"><ele>363.0</ele><time>2026-03-29T15:00:03Z</time></trkpt><trkpt lat="37.25876180419934" lon="14.137562707387133"><ele>363.5</ele><time>2026-03-29T15:00:04Z</time></trkpt><trkpt lat="37.25861038050149" lon="14.137353553095544"><ele>364.0</ele><time>2026-03-29T15:00:05Z</time></trkpt><trkpt lat="37.25845857685908" lon="14.137143026821079"><ele>364.0</ele><time>2026-03-29T15:00:06Z</time></trkpt><trkpt lat="37.25830939856669" lon="14.136933502544089"><ele>364.0</ele><time>2026-03-29T15:00:07Z</time></trkpt><trkpt lat="37.258156659827435" lon="14.1367234028676"><ele>362.5</ele><time>2026-03-29T15:00:08Z</time></trkpt><trkpt lat="37.25800436882952" lon="14.136513296655519"><ele>361.0</ele><time>2026-03-29T15:00:09Z</time></trkpt><trkpt lat="37.257851162171235" lon="14.136303439169223"><ele>361.0</ele><time>2026-03-29T15:00:10Z</time></trkpt><trkpt lat="37.257700662899076" lon="14.136095787047376"><ele>361.0</ele><time>2026-03-29T15:00:11Z</time></trkpt><trkpt lat="37.257549066421035" lon="14.13588392210104"><ele>361.0</ele><time>2026-03-29T15:00:12Z</time></trkpt><trkpt lat="37.25739948704817" lon="14.135671429913094"><ele>361.0</ele><time>2026-03-29T15:00:13Z</time></trkpt><trkpt lat="37.257247095250456" lon="14.13546023256742"><ele>361.0</ele><time>2026-03-29T15:00:14Z</time></trkpt><trkpt lat="37.25709269434723" lon="14.135246835886804"><ele>361.0</ele><time>2026-03-29T15:00:15Z</time></trkpt><trkpt lat="37.25694046682029" lon="14.135032434766579"><ele>360.5</ele><time>2026-03-29T15:00:16Z</time></trkpt><trkpt lat="37.256785287122206" lon="14.13482216773675"><ele>360.0</ele><time>2026-03-29T15:00:17Z</time></trkpt><trkpt lat="37.25663913092135" lon="14.134611785688975"><ele>360.0</ele><time>2026-03-29T15:00:18Z</time></trkpt><trkpt lat="37.2564913526286" lon="14.134406156632895"><ele>360.0</ele><time>2026-03-29T15:00:19Z</time></trkpt><trkpt lat="37.2563480954866" lon="14.134202169396074"><ele>360.0</ele><time>2026-03-29T15:00:20Z</time></trkpt><trkpt lat="37.25620517792174" lon="14.133994632621635"><ele>360.5</ele><time>2026-03-29T15:00:21Z</time></trkpt><trkpt lat="37.25594502424474" lon="14.133615921502646"><ele>361.0</ele><time>2026-03-29T15:00:23Z</time></trkpt><trkpt lat="37.25582508842347" lon="14.13344663641493"><ele>361.0</ele><time>2026-03-29T15:00:24Z</time></trkpt><trkpt lat="37.255724817251114" lon="14.133291454822748"><ele>361.0</ele><time>2026-03-29T15:00:25Z</time></trkpt><trkpt lat="37.255642451790564" lon="14.133152226926663"><ele>361.0</ele><time>2026-03-29T15:00:26Z</time></trkpt><trkpt lat="37.25557313671866" lon="14.133007901523968"><ele>361.0</ele><time>2026-03-29T15:00:27Z</time></trkpt><trkpt lat="37.255527802819834" lon="14.132852952562898"><ele>360.5</ele><time>2026-03-29T15:00:28Z</time></trkpt><trkpt lat="37.25549480917836" lon="14.132688533316088"><ele>360.0</ele><time>2026-03-29T15:00:29Z</time></trkpt><trkpt lat="37.255512303803556" lon="14.132552697161122"><ele>359.5</ele><time>2026-03-29T15:00:30Z</time></trkpt><trkpt lat="37.255564540785684" lon="14.132443421710144"><ele>359.0</ele><time>2026-03-29T15:00:31Z</time></trkpt><trkpt lat="37.25566708210511" lon="14.132356050827648"><ele>359.75</ele><time>2026-03-29T15:00:32Z</time></trkpt><trkpt lat="37.25577125999547" lon="14.1323243175957"><ele>360.5</ele><time>2026-03-29T15:00:33Z</time></trkpt><trkpt lat="37.25587344122231" lon="14.132345983157116"><ele>361.25</ele><time>2026-03-29T15:00:34Z</time></trkpt><trkpt lat="37.255960461716285" lon="14.132385510830852"><ele>362.0</ele><time>2026-03-29T15:00:35Z</time></trkpt><trkpt lat="37.256105878186126" lon="14.132441678033578"><ele>362.0</ele><time>2026-03-29T15:00:37Z</time></trkpt><trkpt lat="37.256178921189594" lon="14.132416742249305"><ele>362.0</ele><time>2026-03-29T15:00:39Z</time></trkpt><trkpt lat="37.256259099951784" lon="14.132323561421234"><ele>362.0</ele><time>2026-03-29T15:00:49Z</time></trkpt><trkpt lat="37.256304704258426" lon="14.13220299633577"><ele>362.0</ele><time>2026-03-29T15:00:50Z</time></trkpt><trkpt lat="37.256338569270106" lon="14.132049205942383"><ele>362.0</ele><time>2026-03-29T15:00:51Z</time></trkpt><trkpt lat="37.256381619439374" lon="14.131870871535932"><ele>362.33333333333337</ele><time>2026-03-29T15:00:52Z</time></trkpt><trkpt lat="37.25643679716928" lon="14.13168761303919"><ele>362.6666666666667</ele><time>2026-03-29T15:00:53Z</time></trkpt><trkpt lat="37.25650193698044" lon="14.131484526664202"><ele>363.0</ele><time>2026-03-29T15:00:54Z</time></trkpt><trkpt lat="37.2565734982713" lon="14.131279835787312"><ele>360.6666666666667</ele><time>2026-03-29T15:00:55Z</time></trkpt><trkpt lat="37.25666409118153" lon="14.131069748170837"><ele>358.33333333333337</ele><time>2026-03-29T15:00:56Z</time></trkpt><trkpt lat="37.256773753478306" lon="14.130859589099828"><ele>356.0</ele><time>2026-03-29T15:00:57Z</time></trkpt><trkpt lat="37.256890568729816" lon="14.130646577750952"><ele>355.6666666666667</ele><time>2026-03-29T15:00:58Z</time></trkpt><trkpt lat="37.25700656452312" lon="14.130432041691254"><ele>355.3333333333333</ele><time>2026-03-29T15:00:59Z</time></trkpt><trkpt lat="37.25712440030962" lon="14.130210301992362"><ele>355.0</ele><time>2026-03-29T15:01:00Z</time></trkpt><trkpt lat="37.25724394733262" lon="14.129981899584699"><ele>355.5</ele><time>2026-03-29T15:01:01Z</time></trkpt><trkpt lat="37.257363409327674" lon="14.129745887413572"><ele>356.0</ele><time>2026-03-29T15:01:02Z</time></trkpt><trkpt lat="37.25748774789365" lon="14.129507102311232"><ele>356.0</ele><time>2026-03-29T15:01:03Z</time></trkpt><trkpt lat="37.2576130057723" lon="14.12926581904844"><ele>356.0</ele><time>2026-03-29T15:01:04Z</time></trkpt><trkpt lat="37.25773693565854" lon="14.129019410771336"><ele>355.0</ele><time>2026-03-29T15:01:05Z</time></trkpt><trkpt lat="37.25786258170276" lon="14.128772900040602"><ele>354.0</ele><time>2026-03-29T15:01:06Z</time></trkpt><trkpt lat="37.25798961275913" lon="14.128524617283244"><ele>354.0</ele><time>2026-03-29T15:01:07Z</time></trkpt><trkpt lat="37.258112526405164" lon="14.128272993946279"><ele>354.0</ele><time>2026-03-29T15:01:08Z</time></trkpt><trkpt lat="37.25824459441229" lon="14.128017660042373"><ele>357.5</ele><time>2026-03-29T15:01:09Z</time></trkpt><trkpt lat="37.25837560695019" lon="14.127763303963416"><ele>361.0</ele><time>2026-03-29T15:01:10Z</time></trkpt><trkpt lat="37.258506880457944" lon="14.12750626450988"><ele>361.0</ele><time>2026-03-29T15:01:11Z</time></trkpt><trkpt lat="37.25864005979784" lon="14.127250891303909"><ele>361.0</ele><time>2026-03-29T15:01:12Z</time></trkpt><trkpt lat="37.25877709006745" lon="14.126997682879336"><ele>361.0</ele><time>2026-03-29T15:01:13Z</time></trkpt><trkpt lat="37.25891748943309" lon="14.12673828266329"><ele>361.0</ele><time>2026-03-29T15:01:14Z</time></trkpt><trkpt lat="37.25906234903509" lon="14.126477855445701"><ele>365.5</ele><time>2026-03-29T15:01:15Z</time></trkpt><trkpt lat="37.259210796663034" lon="14.126224532061466"><ele>370.0</ele><time>2026-03-29T15:01:16Z</time></trkpt><trkpt lat="37.259368800474675" lon="14.125979564886435"><ele>370.0</ele><time>2026-03-29T15:01:17Z</time></trkpt><trkpt lat="37.259534463237436" lon="14.125742077033813"><ele>370.0</ele><time>2026-03-29T15:01:18Z</time></trkpt><trkpt lat="37.25970865106345" lon="14.125507916761455"><ele>372.5</ele><time>2026-03-29T15:01:19Z</time></trkpt><trkpt lat="37.25989202130901" lon="14.125282524027424"><ele>375.0</ele><time>2026-03-29T15:01:20Z</time></trkpt><trkpt lat="37.260084074508065" lon="14.125065173870619"><ele>373.0</ele><time>2026-03-29T15:01:21Z</time></trkpt><trkpt lat="37.260281397603414" lon="14.124852841442001"><ele>371.0</ele><time>2026-03-29T15:01:22Z</time></trkpt><trkpt lat="37.26048308190285" lon="14.124644579335277"><ele>376.0</ele><time>2026-03-29T15:01:23Z</time></trkpt><trkpt lat="37.26068786671816" lon="14.124438606861846"><ele>381.0</ele><time>2026-03-29T15:01:24Z</time></trkpt><trkpt lat="37.26089300447551" lon="14.1242353038583"><ele>384.5</ele><time>2026-03-29T15:01:25Z</time></trkpt><trkpt lat="37.261098422825555" lon="14.124031094545373"><ele>388.0</ele><time>2026-03-29T15:01:26Z</time></trkpt><trkpt lat="37.261305127446924" lon="14.123826335937832"><ele>388.0</ele><time>2026-03-29T15:01:27Z</time></trkpt><trkpt lat="37.26151019163512" lon="14.12362358623213"><ele>388.0</ele><time>2026-03-29T15:01:28Z</time></trkpt><trkpt lat="37.26171524398718" lon="14.123417956237107"><ele>393.0</ele><time>2026-03-29T15:01:29Z</time></trkpt><trkpt lat="37.26191605528794" lon="14.123207902067874"><ele>398.0</ele><time>2026-03-29T15:01:30Z</time></trkpt><trkpt lat="37.262109263612324" lon="14.122992766477294"><ele>396.0</ele><time>2026-03-29T15:01:31Z</time></trkpt><trkpt lat="37.26229561737861" lon="14.122770314706"><ele>394.0</ele><time>2026-03-29T15:01:32Z</time></trkpt><trkpt lat="37.26247423730052" lon="14.122538941796599"><ele>397.0</ele><time>2026-03-29T15:01:33Z</time></trkpt><trkpt lat="37.262638540095715" lon="14.122296220339846"><ele>400.0</ele><time>2026-03-29T15:01:34Z</time></trkpt><trkpt lat="37.26278773595848" lon="14.122036780026827"><ele>400.0</ele><time>2026-03-29T15:01:35Z</time></trkpt><trkpt lat="37.26291660532948" lon="14.121764494029643"><ele>400.0</ele><time>2026-03-29T15:01:36Z</time></trkpt><trkpt lat="37.263023919798776" lon="14.121481212996008"><ele>398.5</ele><time>2026-03-29T15:01:37Z</time></trkpt><trkpt lat="37.26311537387749" lon="14.121191118623324"><ele>397.0</ele><time>2026-03-29T15:01:38Z</time></trkpt><trkpt lat="37.263179082238075" lon="14.120885376954638"><ele>398.5</ele><time>2026-03-29T15:01:39Z</time></trkpt><trkpt lat="37.26322425193968" lon="14.120571737540203"><ele>400.0</ele><time>2026-03-29T15:01:40Z</time></trkpt><trkpt lat="37.26325621473783" lon="14.12025513429051"><ele>400.0</ele><time>2026-03-29T15:01:41Z</time></trkpt><trkpt lat="37.26327689990093" lon="14.119942719442587"><ele>400.0</ele><time>2026-03-29T15:01:42Z</time></trkpt><trkpt lat="37.26328811262208" lon="14.119636048427825"><ele>400.5</ele><time>2026-03-29T15:01:43Z</time></trkpt><trkpt lat="37.26329292300006" lon="14.119330597705089"><ele>401.0</ele><time>2026-03-29T15:01:43.998Z</time></trkpt><trkpt lat="37.26329472712525" lon="14.119028418026836"><ele>402.5</ele><time>2026-03-29T15:01:44.998Z</time></trkpt><trkpt lat="37.26329420990112" lon="14.118722330815016"><ele>404.0</ele><time>2026-03-29T15:01:45.998Z</time></trkpt><trkpt lat="37.26329517119064" lon="14.118413477531377"><ele>403.0</ele><time>2026-03-29T15:01:46.998Z</time></trkpt><trkpt lat="37.263300140039775" lon="14.118098525575952"><ele>402.0</ele><time>2026-03-29T15:01:47.998Z</time></trkpt><trkpt lat="37.263306980389075" lon="14.117786552765141"><ele>402.0</ele><time>2026-03-29T15:01:48.998Z</time></trkpt><trkpt lat="37.263319522304805" lon="14.117476462868098"><ele>402.0</ele><time>2026-03-29T15:01:49.998Z</time></trkpt><trkpt lat="37.263341168379185" lon="14.117168168685222"><ele>402.0</ele><time>2026-03-29T15:01:50.998Z</time></trkpt><trkpt lat="37.26337522675188" lon="14.116862657958023"><ele>402.0</ele><time>2026-03-29T15:01:51.998Z</time></trkpt><trkpt lat="37.26342344413344" lon="14.116558478133527"><ele>401.5</ele><time>2026-03-29T15:01:52.998Z</time></trkpt><trkpt lat="37.2634915710023" lon="14.11626244050499"><ele>401.0</ele><time>2026-03-29T15:01:53.998Z</time></trkpt><trkpt lat="37.26357098295731" lon="14.115975096565878"><ele>402.5</ele><time>2026-03-29T15:01:54.998Z</time></trkpt><trkpt lat="37.26366601426799" lon="14.115695503772532"><ele>404.0</ele><time>2026-03-29T15:01:55.998Z</time></trkpt><trkpt lat="37.26377398253114" lon="14.115425215050593"><ele>404.0</ele><time>2026-03-29T15:01:56.998Z</time></trkpt><trkpt lat="37.263893410973935" lon="14.115156753957729"><ele>404.0</ele><time>2026-03-29T15:01:57.998Z</time></trkpt><trkpt lat="37.264021092085855" lon="14.11488544523152"><ele>401.0</ele><time>2026-03-29T15:01:58.998Z</time></trkpt><trkpt lat="37.264149054791304" lon="14.114629939861176"><ele>398.0</ele><time>2026-03-29T15:01:59.998Z</time></trkpt><trkpt lat="37.26428625848865" lon="14.114359104246907"><ele>398.0</ele><time>2026-03-29T15:02:00.998Z</time></trkpt><trkpt lat="37.26442759383333" lon="14.114082150857199"><ele>398.0</ele><time>2026-03-29T15:02:01.998Z</time></trkpt><trkpt lat="37.264570066730535" lon="14.113804872261213"><ele>397.5</ele><time>2026-03-29T15:02:02.998Z</time></trkpt><trkpt lat="37.26471576100313" lon="14.113522159751717"><ele>397.0</ele><time>2026-03-29T15:02:03.998Z</time></trkpt><trkpt lat="37.26486391166188" lon="14.11323831021627"><ele>394.0</ele><time>2026-03-29T15:02:04.998Z</time></trkpt><trkpt lat="37.26501297977877" lon="14.1129534423049"><ele>391.0</ele><time>2026-03-29T15:02:05.998Z</time></trkpt><trkpt lat="37.26516240747868" lon="14.112666470039695"><ele>389.5</ele><time>2026-03-29T15:02:06.998Z</time></trkpt><trkpt lat="37.26531149267043" lon="14.112378503099201"><ele>388.0</ele><time>2026-03-29T15:02:07.998Z</time></trkpt><trkpt lat="37.26545944645306" lon="14.112091301902694"><ele>388.0</ele><time>2026-03-29T15:02:08.999Z</time></trkpt><trkpt lat="37.26560701075967" lon="14.11180584618923"><ele>388.0</ele><time>2026-03-29T15:02:09.999Z</time></trkpt><trkpt lat="37.26575727454048" lon="14.111523888691655"><ele>385.5</ele><time>2026-03-29T15:02:10.999Z</time></trkpt><trkpt lat="37.265909191052884" lon="14.11123870540745"><ele>383.0</ele><time>2026-03-29T15:02:11.999Z</time></trkpt><trkpt lat="37.26606428697725" lon="14.110956837269207"><ele>383.0</ele><time>2026-03-29T15:02:12.999Z</time></trkpt><trkpt lat="37.26622469166358" lon="14.110679980175677"><ele>383.0</ele><time>2026-03-29T15:02:13.999Z</time></trkpt><trkpt lat="37.2663891649324" lon="14.110409557083235"><ele>382.5</ele><time>2026-03-29T15:02:14.999Z</time></trkpt><trkpt lat="37.266557520890444" lon="14.110145559144147"><ele>382.0</ele><time>2026-03-29T15:02:15.999Z</time></trkpt><trkpt lat="37.26673466932944" lon="14.109888102500943"><ele>382.0</ele><time>2026-03-29T15:02:16.999Z</time></trkpt><trkpt lat="37.26692152636732" lon="14.10964040826396"><ele>382.0</ele><time>2026-03-29T15:02:17.999Z</time></trkpt><trkpt lat="37.26711340254814" lon="14.109398467568145"><ele>382.0</ele><time>2026-03-29T15:02:18.999Z</time></trkpt><trkpt lat="37.26730947370202" lon="14.109159573088204"><ele>382.0</ele><time>2026-03-29T15:02:19.999Z</time></trkpt><trkpt lat="37.267505615368165" lon="14.108921597096385"><ele>382.0</ele><time>2026-03-29T15:02:20.999Z</time></trkpt><trkpt lat="37.26770072049815" lon="14.108684141828206"><ele>382.0</ele><time>2026-03-29T15:02:21.999Z</time></trkpt><trkpt lat="37.26789523071265" lon="14.108446175353476"><ele>381.0</ele><time>2026-03-29T15:02:22.999Z</time></trkpt><trkpt lat="37.26809009444963" lon="14.108210180181123"><ele>380.0</ele><time>2026-03-29T15:02:23.999Z</time></trkpt><trkpt lat="37.26828719911929" lon="14.107976130679608"><ele>382.0</ele><time>2026-03-29T15:02:24.999Z</time></trkpt><trkpt lat="37.26848228178387" lon="14.107743859980435"><ele>384.0</ele><time>2026-03-29T15:02:25.999Z</time></trkpt><trkpt lat="37.26867948171556" lon="14.107509597231104"><ele>382.5</ele><time>2026-03-29T15:02:26.999Z</time></trkpt><trkpt lat="37.26887688643729" lon="14.10727629585809"><ele>381.0</ele><time>2026-03-29T15:02:27.999Z</time></trkpt><trkpt lat="37.269074031014654" lon="14.107041978271985"><ele>381.0</ele><time>2026-03-29T15:02:28.999Z</time></trkpt><trkpt lat="37.26927087102114" lon="14.106806451447657"><ele>381.0</ele><time>2026-03-29T15:02:29.999Z</time></trkpt><trkpt lat="37.26946698560408" lon="14.106570498818396"><ele>381.0</ele><time>2026-03-29T15:02:30.999Z</time></trkpt><trkpt lat="37.26966402574262" lon="14.106336509064867"><ele>381.0</ele><time>2026-03-29T15:02:31.999Z</time></trkpt><trkpt lat="37.269861536281745" lon="14.106100649897831"><ele>381.0</ele><time>2026-03-29T15:02:32.999Z</time></trkpt><trkpt lat="37.2700568686379" lon="14.105861274505529"><ele>381.0</ele><time>2026-03-29T15:02:33.999Z</time></trkpt><trkpt lat="37.27025062169987" lon="14.105619727138988"><ele>380.0</ele><time>2026-03-29T15:02:34.999Z</time></trkpt><trkpt lat="37.270443906656375" lon="14.10537673444606"><ele>379.0</ele><time>2026-03-29T15:02:35.999Z</time></trkpt><trkpt lat="37.270640187775655" lon="14.105132311303793"><ele>380.0</ele><time>2026-03-29T15:02:36.999Z</time></trkpt><trkpt lat="37.270834955065865" lon="14.104889018619733"><ele>381.0</ele><time>2026-03-29T15:02:37.999Z</time></trkpt><trkpt lat="37.2710283234283" lon="14.104644463218971"><ele>381.0</ele><time>2026-03-29T15:02:38.999Z</time></trkpt><trkpt lat="37.2712210220824" lon="14.104400698308865"><ele>381.0</ele><time>2026-03-29T15:02:39.999Z</time></trkpt><trkpt lat="37.27141209069821" lon="14.104152172603142"><ele>377.0</ele><time>2026-03-29T15:02:40.999Z</time></trkpt><trkpt lat="37.27159434507061" lon="14.10389626244756"><ele>373.0</ele><time>2026-03-29T15:02:41.999Z</time></trkpt><trkpt lat="37.27176400441783" lon="14.10362944740516"><ele>373.0</ele><time>2026-03-29T15:02:42.999Z</time></trkpt><trkpt lat="37.271919801465266" lon="14.103353209733486"><ele>373.0</ele><time>2026-03-29T15:02:43.999Z</time></trkpt><trkpt lat="37.27206510365358" lon="14.103068211661554"><ele>370.0</ele><time>2026-03-29T15:02:44.999Z</time></trkpt><trkpt lat="37.272210300459406" lon="14.102782626312239"><ele>367.0</ele><time>2026-03-29T15:02:45.999Z</time></trkpt><trkpt lat="37.27235487225419" lon="14.102500680856847"><ele>367.5</ele><time>2026-03-29T15:02:46.999Z</time></trkpt><trkpt lat="37.272498540512835" lon="14.10222264451913"><ele>368.0</ele><time>2026-03-29T15:02:47.999Z</time></trkpt><trkpt lat="37.272643076202804" lon="14.101946734095444"><ele>368.0</ele><time>2026-03-29T15:02:48.999Z</time></trkpt><trkpt lat="37.272788515212945" lon="14.101670805819296"><ele>368.0</ele><time>2026-03-29T15:02:49.999Z</time></trkpt><trkpt lat="37.272933392509046" lon="14.101394139672664"><ele>368.0</ele><time>2026-03-29T15:02:50.999Z</time></trkpt><trkpt lat="37.27307546926238" lon="14.101119599294865"><ele>368.0</ele><time>2026-03-29T15:02:51.999Z</time></trkpt><trkpt lat="37.27321680704081" lon="14.100845260577163"><ele>363.0</ele><time>2026-03-29T15:02:52.999Z</time></trkpt><trkpt lat="37.273357779692994" lon="14.100575288345409"><ele>358.0</ele><time>2026-03-29T15:02:53.999Z</time></trkpt><trkpt lat="37.273496728993706" lon="14.100322626405674"><ele>358.0</ele><time>2026-03-29T15:02:54.999Z</time></trkpt><trkpt lat="37.273641828800315" lon="14.100080460751048"><ele>358.0</ele><time>2026-03-29T15:02:55.999Z</time></trkpt><trkpt lat="37.273798169529506" lon="14.099851322678859"><ele>355.0</ele><time>2026-03-29T15:02:56.999Z</time></trkpt><trkpt lat="37.273964184867715" lon="14.09964585636245"><ele>352.0</ele><time>2026-03-29T15:02:57.999Z</time></trkpt><trkpt lat="37.27414046486903" lon="14.09946562086271"><ele>352.0</ele><time>2026-03-29T15:02:58.999Z</time></trkpt><trkpt lat="37.27432878405826" lon="14.09930570078282"><ele>352.0</ele><time>2026-03-29T15:02:59.999Z</time></trkpt><trkpt lat="37.27452517679852" lon="14.099166635666146"><ele>349.5</ele><time>2026-03-29T15:03:00.999Z</time></trkpt><trkpt lat="37.27472629678125" lon="14.099027611662136"><ele>347.0</ele><time>2026-03-29T15:03:01.999Z</time></trkpt><trkpt lat="37.2749244848254" lon="14.098882729021904"><ele>347.0</ele><time>2026-03-29T15:03:02.999Z</time></trkpt><trkpt lat="37.27512520067236" lon="14.098737270286344"><ele>347.0</ele><time>2026-03-29T15:03:03.999Z</time></trkpt><trkpt lat="37.275322032891395" lon="14.098588968644007"><ele>347.0</ele><time>2026-03-29T15:03:04.999Z</time></trkpt><trkpt lat="37.27551095708076" lon="14.09842818658662"><ele>347.0</ele><time>2026-03-29T15:03:05.999Z</time></trkpt><trkpt lat="37.27568019544581" lon="14.098262701456797"><ele>347.0</ele><time>2026-03-29T15:03:06.999Z</time></trkpt><trkpt lat="37.27583257655184" lon="14.098089064745421"><ele>343.33333333333337</ele><time>2026-03-29T15:03:07.999Z</time></trkpt><trkpt lat="37.27596480657477" lon="14.097905830465967"><ele>339.6666666666667</ele><time>2026-03-29T15:03:08.999Z</time></trkpt><trkpt lat="37.276086429012565" lon="14.097709284492758"><ele>336.0</ele><time>2026-03-29T15:03:09.999Z</time></trkpt><trkpt lat="37.27620441121039" lon="14.097521997736798"><ele>335.0</ele><time>2026-03-29T15:03:10.999Z</time></trkpt><trkpt lat="37.27632721644086" lon="14.097335872031143"><ele>334.0</ele><time>2026-03-29T15:03:11.999Z</time></trkpt><trkpt lat="37.27645352043269" lon="14.097136056234765"><ele>333.0</ele><time>2026-03-29T15:03:12.999Z</time></trkpt><trkpt lat="37.27658129873284" lon="14.096925542863339"><ele>333.0</ele><time>2026-03-29T15:03:13.999Z</time></trkpt><trkpt lat="37.27670994938593" lon="14.096707894165027"><ele>333.0</ele><time>2026-03-29T15:03:14.999Z</time></trkpt><trkpt lat="37.27684314220141" lon="14.096486643976572"><ele>333.0</ele><time>2026-03-29T15:03:15.999Z</time></trkpt><trkpt lat="37.27698051552064" lon="14.096262395402412"><ele>331.0</ele><time>2026-03-29T15:03:16.999Z</time></trkpt><trkpt lat="37.27712340760779" lon="14.096040982279439"><ele>329.0</ele><time>2026-03-29T15:03:17.999Z</time></trkpt><trkpt lat="37.27727601096707" lon="14.095823068426949"><ele>328.5</ele><time>2026-03-29T15:03:18.999Z</time></trkpt><trkpt lat="37.2774413603175" lon="14.095610026907952"><ele>328.0</ele><time>2026-03-29T15:03:19.999Z</time></trkpt><trkpt lat="37.27761615653374" lon="14.09540289004555"><ele>328.0</ele><time>2026-03-29T15:03:20.999Z</time></trkpt><trkpt lat="37.27780124028504" lon="14.095208528069197"><ele>328.0</ele><time>2026-03-29T15:03:21.999Z</time></trkpt><trkpt lat="37.277993204339595" lon="14.095024100802776"><ele>324.5</ele><time>2026-03-29T15:03:22.999Z</time></trkpt><trkpt lat="37.27818766434219" lon="14.094838534994823"><ele>321.0</ele><time>2026-03-29T15:03:23.999Z</time></trkpt><trkpt lat="37.27837930251874" lon="14.094657829458383"><ele>321.0</ele><time>2026-03-29T15:03:24.999Z</time></trkpt><trkpt lat="37.278569851080874" lon="14.094476509156024"><ele>321.0</ele><time>2026-03-29T15:03:25.999Z</time></trkpt><trkpt lat="37.27875798014254" lon="14.094287934449252"><ele>322.0</ele><time>2026-03-29T15:03:26.999Z</time></trkpt><trkpt lat="37.27894549862692" lon="14.094099582199032"><ele>323.0</ele><time>2026-03-29T15:03:27.999Z</time></trkpt><trkpt lat="37.27913390893738" lon="14.093908877253385"><ele>323.0</ele><time>2026-03-29T15:03:28.999Z</time></trkpt><trkpt lat="37.27932223658076" lon="14.093717981615098"><ele>323.0</ele><time>2026-03-29T15:03:29.999Z</time></trkpt><trkpt lat="37.279510418373164" lon="14.093531127052946"><ele>323.0</ele><time>2026-03-29T15:03:30.999Z</time></trkpt><trkpt lat="37.27970035226913" lon="14.09334325349276"><ele>323.0</ele><time>2026-03-29T15:03:31.999Z</time></trkpt><trkpt lat="37.279890827833015" lon="14.093151762929839"><ele>321.5</ele><time>2026-03-29T15:03:32.999Z</time></trkpt><trkpt lat="37.28008392424172" lon="14.092960232100433"><ele>320.0</ele><time>2026-03-29T15:03:33.999Z</time></trkpt><trkpt lat="37.28027820751697" lon="14.092767096876713"><ele>320.0</ele><time>2026-03-29T15:03:34.999Z</time></trkpt><trkpt lat="37.280475003362035" lon="14.092571801293662"><ele>320.0</ele><time>2026-03-29T15:03:35.999Z</time></trkpt><trkpt lat="37.28067376122092" lon="14.09237814600747"><ele>316.0</ele><time>2026-03-29T15:03:36.999Z</time></trkpt><trkpt lat="37.28087884777212" lon="14.092180165479201"><ele>312.0</ele><time>2026-03-29T15:03:37.999Z</time></trkpt><trkpt lat="37.28108242543005" lon="14.091979606936613"><ele>312.0</ele><time>2026-03-29T15:03:38.999Z</time></trkpt><trkpt lat="37.28128542615714" lon="14.091777686767998"><ele>312.0</ele><time>2026-03-29T15:03:39.999Z</time></trkpt><trkpt lat="37.281488883890134" lon="14.091572873384905"><ele>312.0</ele><time>2026-03-29T15:03:40.999Z</time></trkpt><trkpt lat="37.28169128105572" lon="14.091370939703614"><ele>312.0</ele><time>2026-03-29T15:03:41.999Z</time></trkpt><trkpt lat="37.28189554960134" lon="14.091168388169809"><ele>312.0</ele><time>2026-03-29T15:03:42.999Z</time></trkpt><trkpt lat="37.28209915172223" lon="14.090967975903679"><ele>312.0</ele><time>2026-03-29T15:03:43.999Z</time></trkpt><trkpt lat="37.28230430569689" lon="14.090767851503939"><ele>311.0</ele><time>2026-03-29T15:03:44.999Z</time></trkpt><trkpt lat="37.2825064537792" lon="14.090568983295473"><ele>310.0</ele><time>2026-03-29T15:03:45.999Z</time></trkpt><trkpt lat="37.282706417991015" lon="14.090370441643913"><ele>310.0</ele><time>2026-03-29T15:03:46.999Z</time></trkpt><trkpt lat="37.28290492561919" lon="14.090177339803246"><ele>310.0</ele><time>2026-03-29T15:03:47.999Z</time></trkpt><trkpt lat="37.28309740463573" lon="14.089987847570487"><ele>307.0</ele><time>2026-03-29T15:03:48.999Z</time></trkpt><trkpt lat="37.28329401526794" lon="14.089791533509455"><ele>304.0</ele><time>2026-03-29T15:03:49.997Z</time></trkpt><trkpt lat="37.28349000444964" lon="14.089596706537407"><ele>304.0</ele><time>2026-03-29T15:03:50.997Z</time></trkpt><trkpt lat="37.28368269880578" lon="14.08940600327544"><ele>304.0</ele><time>2026-03-29T15:03:51.997Z</time></trkpt><trkpt lat="37.28387682709765" lon="14.089214559959052"><ele>311.5</ele><time>2026-03-29T15:03:52.997Z</time></trkpt><trkpt lat="37.28407170773722" lon="14.089022795527548"><ele>319.0</ele><time>2026-03-29T15:03:53.997Z</time></trkpt><trkpt lat="37.28426913291302" lon="14.088829052860874"><ele>319.0</ele><time>2026-03-29T15:03:54.997Z</time></trkpt><trkpt lat="37.28446656507436" lon="14.08863123313369"><ele>319.0</ele><time>2026-03-29T15:03:55.997Z</time></trkpt><trkpt lat="37.284664241596666" lon="14.088435271651203"><ele>322.5</ele><time>2026-03-29T15:03:56.997Z</time></trkpt><trkpt lat="37.28486282549033" lon="14.08824023049491"><ele>326.0</ele><time>2026-03-29T15:03:57.997Z</time></trkpt><trkpt lat="37.28506262088685" lon="14.088043045163236"><ele>326.0</ele><time>2026-03-29T15:03:58.997Z</time></trkpt><trkpt lat="37.285260015280684" lon="14.087846452215942"><ele>326.0</ele><time>2026-03-29T15:03:59.997Z</time></trkpt><trkpt lat="37.28546100735332" lon="14.08764992419183"><ele>319.0</ele><time>2026-03-29T15:04:00.997Z</time></trkpt><trkpt lat="37.28566145598951" lon="14.08745069631271"><ele>312.0</ele><time>2026-03-29T15:04:01.997Z</time></trkpt><trkpt lat="37.285856781132374" lon="14.087253643282306"><ele>312.0</ele><time>2026-03-29T15:04:02.998Z</time></trkpt><trkpt lat="37.28605473079191" lon="14.087057909446187"><ele>312.0</ele><time>2026-03-29T15:04:03.998Z</time></trkpt><trkpt lat="37.2862529430036" lon="14.086860719763353"><ele>311.0</ele><time>2026-03-29T15:04:04.998Z</time></trkpt><trkpt lat="37.28645110454785" lon="14.086663512614473"><ele>310.0</ele><time>2026-03-29T15:04:05.998Z</time></trkpt><trkpt lat="37.28664785307782" lon="14.08646874243748"><ele>307.0</ele><time>2026-03-29T15:04:06.998Z</time></trkpt><trkpt lat="37.286846642248705" lon="14.08627086814154"><ele>304.0</ele><time>2026-03-29T15:04:07.998Z</time></trkpt><trkpt lat="37.287045680652405" lon="14.0860684299013"><ele>304.0</ele><time>2026-03-29T15:04:08.998Z</time></trkpt><trkpt lat="37.28723916191504" lon="14.085863735553437"><ele>304.0</ele><time>2026-03-29T15:04:09.998Z</time></trkpt><trkpt lat="37.28742927471337" lon="14.085654121193729"><ele>303.0</ele><time>2026-03-29T15:04:10.998Z</time></trkpt><trkpt lat="37.28760790543275" lon="14.085436534871796"><ele>302.0</ele><time>2026-03-29T15:04:11.998Z</time></trkpt><trkpt lat="37.287773807882225" lon="14.085213726565492"><ele>302.0</ele><time>2026-03-29T15:04:12.998Z</time></trkpt><trkpt lat="37.28792748762223" lon="14.084977589894098"><ele>302.0</ele><time>2026-03-29T15:04:13.998Z</time></trkpt><trkpt lat="37.28806656786926" lon="14.084728303052879"><ele>299.5</ele><time>2026-03-29T15:04:14.998Z</time></trkpt><trkpt lat="37.28819205618286" lon="14.08446359922376"><ele>297.0</ele><time>2026-03-29T15:04:15.998Z</time></trkpt><trkpt lat="37.28830610836438" lon="14.084190133920236"><ele>294.0</ele><time>2026-03-29T15:04:16.998Z</time></trkpt><trkpt lat="37.288401213452296" lon="14.083896806855828"><ele>291.0</ele><time>2026-03-29T15:04:17.998Z</time></trkpt><trkpt lat="37.288487541481885" lon="14.083599859205078"><ele>291.0</ele><time>2026-03-29T15:04:18.998Z</time></trkpt><trkpt lat="37.28855990088517" lon="14.083293167875334"><ele>291.0</ele><time>2026-03-29T15:04:19.998Z</time></trkpt><trkpt lat="37.288619225619534" lon="14.082980300882245"><ele>291.0</ele><time>2026-03-29T15:04:20.998Z</time></trkpt><trkpt lat="37.288669148198935" lon="14.082663714947447"><ele>291.0</ele><time>2026-03-29T15:04:21.998Z</time></trkpt><trkpt lat="37.28871432990623" lon="14.082343805910762"><ele>291.5</ele><time>2026-03-29T15:04:22.998Z</time></trkpt><trkpt lat="37.28875921650901" lon="14.082023141374782"><ele>292.0</ele><time>2026-03-29T15:04:23.998Z</time></trkpt><trkpt lat="37.288804087844696" lon="14.081702459105147"><ele>294.0</ele><time>2026-03-29T15:04:24.999Z</time></trkpt><trkpt lat="37.28884801088647" lon="14.081380184169939"><ele>296.0</ele><time>2026-03-29T15:04:25.999Z</time></trkpt><trkpt lat="37.28889099961157" lon="14.081057859362637"><ele>293.5</ele><time>2026-03-29T15:04:26.999Z</time></trkpt><trkpt lat="37.28893325936959" lon="14.080738092973762"><ele>291.0</ele><time>2026-03-29T15:04:27.999Z</time></trkpt><trkpt lat="37.28897553609259" lon="14.080421547660862"><ele>291.0</ele><time>2026-03-29T15:04:28.999Z</time></trkpt><trkpt lat="37.28901883088628" lon="14.080106937980412"><ele>291.0</ele><time>2026-03-29T15:04:29.999Z</time></trkpt><trkpt lat="37.28906212167679" lon="14.07979199121174"><ele>292.5</ele><time>2026-03-29T15:04:30.999Z</time></trkpt><trkpt lat="37.28910298192798" lon="14.079479078610838"><ele>294.0</ele><time>2026-03-29T15:04:31.999Z</time></trkpt><trkpt lat="37.28914438099841" lon="14.079166187216392"><ele>293.0</ele><time>2026-03-29T15:04:32.999Z</time></trkpt><trkpt lat="37.289186385551865" lon="14.078854263657243"><ele>292.0</ele><time>2026-03-29T15:04:33.999Z</time></trkpt><trkpt lat="37.28922819602556" lon="14.078541262152537"><ele>292.0</ele><time>2026-03-29T15:04:34.999Z</time></trkpt><trkpt lat="37.289269697155106" lon="14.078228982461003"><ele>292.0</ele><time>2026-03-29T15:04:35.999Z</time></trkpt><trkpt lat="37.28931254444388" lon="14.077917562845975"><ele>292.0</ele><time>2026-03-29T15:04:36.999Z</time></trkpt><trkpt lat="37.28935569370315" lon="14.077603792361472"><ele>292.0</ele><time>2026-03-29T15:04:37.999Z</time></trkpt><trkpt lat="37.28939720084781" lon="14.077287661561263"><ele>290.0</ele><time>2026-03-29T15:04:38.999Z</time></trkpt><trkpt lat="37.2894396478933" lon="14.076969925528964"><ele>288.0</ele><time>2026-03-29T15:04:39.999Z</time></trkpt><trkpt lat="37.28948200126692" lon="14.076651173387994"><ele>289.0</ele><time>2026-03-29T15:04:40.999Z</time></trkpt><trkpt lat="37.2895254508678" lon="14.076332109781301"><ele>290.0</ele><time>2026-03-29T15:04:41.999Z</time></trkpt><trkpt lat="37.289567892972975" lon="14.076011138598483"><ele>294.0</ele><time>2026-03-29T15:04:42.999Z</time></trkpt><trkpt lat="37.28961020696635" lon="14.07569028156458"><ele>298.0</ele><time>2026-03-29T15:04:43.999Z</time></trkpt><trkpt lat="37.28965300989182" lon="14.075372149735616"><ele>298.0</ele><time>2026-03-29T15:04:44.999Z</time></trkpt><trkpt lat="37.28969636952678" lon="14.075056934698303"><ele>298.0</ele><time>2026-03-29T15:04:45.999Z</time></trkpt><trkpt lat="37.28973963989308" lon="14.0747459695035"><ele>297.0</ele><time>2026-03-29T15:04:46.999Z</time></trkpt><trkpt lat="37.2897806656379" lon="14.074435169290153"><ele>296.0</ele><time>2026-03-29T15:04:47.999Z</time></trkpt><trkpt lat="37.28982198293941" lon="14.074125511720736"><ele>296.0</ele><time>2026-03-29T15:04:48.999Z</time></trkpt><trkpt lat="37.28986374725472" lon="14.073814054939447"><ele>296.0</ele><time>2026-03-29T15:04:49.999Z</time></trkpt><trkpt lat="37.28990168640115" lon="14.073505632313555"><ele>297.0</ele><time>2026-03-29T15:04:50.999Z</time></trkpt><trkpt lat="37.28993532859905" lon="14.073194533343964"><ele>298.0</ele><time>2026-03-29T15:04:51.999Z</time></trkpt><trkpt lat="37.28996173326588" lon="14.072881761034134"><ele>298.0</ele><time>2026-03-29T15:04:52.999Z</time></trkpt><trkpt lat="37.2899781732687" lon="14.072565205661583"><ele>298.0</ele><time>2026-03-29T15:04:53.999Z</time></trkpt><trkpt lat="37.28998424416537" lon="14.072249536472203"><ele>298.5</ele><time>2026-03-29T15:04:54.999Z</time></trkpt><trkpt lat="37.289980777009234" lon="14.071934600923536"><ele>299.0</ele><time>2026-03-29T15:04:55.999Z</time></trkpt><trkpt lat="37.289964113302354" lon="14.07161973694427"><ele>298.5</ele><time>2026-03-29T15:04:56.999Z</time></trkpt><trkpt lat="37.289934988643864" lon="14.071305705410996"><ele>298.0</ele><time>2026-03-29T15:04:57.999Z</time></trkpt><trkpt lat="37.28989682605433" lon="14.070994389489746"><ele>297.0</ele><time>2026-03-29T15:04:58.999Z</time></trkpt><trkpt lat="37.28983051603493" lon="14.070686307542374"><ele>296.0</ele><time>2026-03-29T15:04:59.999Z</time></trkpt><trkpt lat="37.28974196041243" lon="14.070378997647715"><ele>301.5</ele><time>2026-03-29T15:05:00.999Z</time></trkpt><trkpt lat="37.28963597325434" lon="14.07007289212814"><ele>307.0</ele><time>2026-03-29T15:05:01.999Z</time></trkpt><trkpt lat="37.2895202715875" lon="14.069769921525335"><ele>307.0</ele><time>2026-03-29T15:05:02.999Z</time></trkpt><trkpt lat="37.289397337090904" lon="14.069469881623663"><ele>307.0</ele><time>2026-03-29T15:05:03.999Z</time></trkpt><trkpt lat="37.28927072880831" lon="14.069168219910312"><ele>305.0</ele><time>2026-03-29T15:05:04.999Z</time></trkpt><trkpt lat="37.28914306492769" lon="14.068865990216263"><ele>303.0</ele><time>2026-03-29T15:05:05.999Z</time></trkpt><trkpt lat="37.28901280353814" lon="14.068562709123881"><ele>308.5</ele><time>2026-03-29T15:05:06.999Z</time></trkpt><trkpt lat="37.28888200088576" lon="14.068258011521099"><ele>314.0</ele><time>2026-03-29T15:05:07.999Z</time></trkpt><trkpt lat="37.2887524165699" lon="14.067953676797606"><ele>314.0</ele><time>2026-03-29T15:05:08.999Z</time></trkpt><trkpt lat="37.28862231850026" lon="14.067648919058522"><ele>314.0</ele><time>2026-03-29T15:05:09.999Z</time></trkpt><trkpt lat="37.28849186389644" lon="14.067342448873354"><ele>313.5</ele><time>2026-03-29T15:05:10.999Z</time></trkpt><trkpt lat="37.28836188772671" lon="14.06703551703029"><ele>313.0</ele><time>2026-03-29T15:05:11.999Z</time></trkpt><trkpt lat="37.28822856462882" lon="14.066725523386761"><ele>312.5</ele><time>2026-03-29T15:05:12.999Z</time></trkpt><trkpt lat="37.28809467179719" lon="14.066416093256365"><ele>312.0</ele><time>2026-03-29T15:05:13.999Z</time></trkpt><trkpt lat="37.287961639583486" lon="14.066107300882365"><ele>317.5</ele><time>2026-03-29T15:05:14.999Z</time></trkpt><trkpt lat="37.28782816119914" lon="14.06579674670086"><ele>323.0</ele><time>2026-03-29T15:05:15.999Z</time></trkpt><trkpt lat="37.28769555806206" lon="14.065489350886827"><ele>323.0</ele><time>2026-03-29T15:05:16.999Z</time></trkpt><trkpt lat="37.287562474853324" lon="14.065182874010382"><ele>323.0</ele><time>2026-03-29T15:05:17.999Z</time></trkpt><trkpt lat="37.28742919799136" lon="14.064873862338423"><ele>324.0</ele><time>2026-03-29T15:05:18.999Z</time></trkpt><trkpt lat="37.28729485836324" lon="14.064562495908884"><ele>325.0</ele><time>2026-03-29T15:05:19.999Z</time></trkpt><trkpt lat="37.28716039503466" lon="14.064250721530382"><ele>325.5</ele><time>2026-03-29T15:05:20.999Z</time></trkpt><trkpt lat="37.2870248119885" lon="14.063934741568868"><ele>326.0</ele><time>2026-03-29T15:05:21.999Z</time></trkpt><trkpt lat="37.2868875221181" lon="14.063617860520571"><ele>326.0</ele><time>2026-03-29T15:05:22.999Z</time></trkpt><trkpt lat="37.2867486643108" lon="14.063301527252806"><ele>326.0</ele><time>2026-03-29T15:05:23.999Z</time></trkpt><trkpt lat="37.286611348306565" lon="14.062983796377917"><ele>327.5</ele><time>2026-03-29T15:05:24.999Z</time></trkpt><trkpt lat="37.286475902223906" lon="14.062666723043995"><ele>329.0</ele><time>2026-03-29T15:05:25.999Z</time></trkpt><trkpt lat="37.286341931999125" lon="14.062349969578008"><ele>325.0</ele><time>2026-03-29T15:05:26.999Z</time></trkpt><trkpt lat="37.28620974010714" lon="14.062036339346019"><ele>321.0</ele><time>2026-03-29T15:05:27.999Z</time></trkpt><trkpt lat="37.28607655203212" lon="14.061723258816103"><ele>322.0</ele><time>2026-03-29T15:05:28.999Z</time></trkpt><trkpt lat="37.285943928100785" lon="14.061414632116785"><ele>323.0</ele><time>2026-03-29T15:05:29.999Z</time></trkpt><trkpt lat="37.28581030160026" lon="14.061105977113755"><ele>323.0</ele><time>2026-03-29T15:05:30.999Z</time></trkpt><trkpt lat="37.2856770018949" lon="14.060793563109996"><ele>323.0</ele><time>2026-03-29T15:05:31.999Z</time></trkpt><trkpt lat="37.2855431918256" lon="14.060483222422919"><ele>318.5</ele><time>2026-03-29T15:05:32.999Z</time></trkpt><trkpt lat="37.285410151996224" lon="14.060171691491592"><ele>314.0</ele><time>2026-03-29T15:05:33.999Z</time></trkpt><trkpt lat="37.28527691441598" lon="14.059859499331479"><ele>313.5</ele><time>2026-03-29T15:05:34.999Z</time></trkpt><trkpt lat="37.285144389228265" lon="14.059548282356097"><ele>313.0</ele><time>2026-03-29T15:05:35.999Z</time></trkpt><trkpt lat="37.2850147551634" lon="14.059241473386962"><ele>311.0</ele><time>2026-03-29T15:05:36.999Z</time></trkpt><trkpt lat="37.28488841937054" lon="14.05893142146747"><ele>309.0</ele><time>2026-03-29T15:05:37.999Z</time></trkpt><trkpt lat="37.28476812712963" lon="14.058619531184798"><ele>307.0</ele><time>2026-03-29T15:05:38.999Z</time></trkpt><trkpt lat="37.284663559630395" lon="14.058300889860316"><ele>305.0</ele><time>2026-03-29T15:05:39.999Z</time></trkpt><trkpt lat="37.284575653573" lon="14.057980567226574"><ele>305.0</ele><time>2026-03-29T15:05:40.999Z</time></trkpt><trkpt lat="37.28450499005143" lon="14.05765260868582"><ele>305.0</ele><time>2026-03-29T15:05:41.999Z</time></trkpt><trkpt lat="37.2844555917667" lon="14.057325160314205"><ele>305.0</ele><time>2026-03-29T15:05:42.999Z</time></trkpt><trkpt lat="37.28442967658533" lon="14.05699998053491"><ele>305.0</ele><time>2026-03-29T15:05:43.999Z</time></trkpt><trkpt lat="37.28442143342508" lon="14.056678774913657"><ele>303.5</ele><time>2026-03-29T15:05:44.999Z</time></trkpt><trkpt lat="37.28443179784222" lon="14.056363054729607"><ele>302.0</ele><time>2026-03-29T15:05:45.999Z</time></trkpt><trkpt lat="37.284463515720425" lon="14.056045792616306"><ele>303.0</ele><time>2026-03-29T15:05:46.999Z</time></trkpt><trkpt lat="37.28451293547435" lon="14.055722790850842"><ele>304.0</ele><time>2026-03-29T15:05:47.999Z</time></trkpt><trkpt lat="37.28457180521768" lon="14.05539545489814"><ele>304.0</ele><time>2026-03-29T15:05:49Z</time></trkpt><trkpt lat="37.28463487615973" lon="14.055071029446253"><ele>304.0</ele><time>2026-03-29T15:05:50Z</time></trkpt><trkpt lat="37.28469935533888" lon="14.054746792852958"><ele>307.0</ele><time>2026-03-29T15:05:51Z</time></trkpt><trkpt lat="37.284765144870946" lon="14.05442253057121"><ele>310.0</ele><time>2026-03-29T15:05:52Z</time></trkpt><trkpt lat="37.28483128954868" lon="14.054088336825508"><ele>310.0</ele><time>2026-03-29T15:05:53Z</time></trkpt><trkpt lat="37.28489691088344" lon="14.053753479864064"><ele>310.0</ele><time>2026-03-29T15:05:54Z</time></trkpt><trkpt lat="37.28496186409633" lon="14.053419131398783"><ele>306.0</ele><time>2026-03-29T15:05:55Z</time></trkpt><trkpt lat="37.285027222241276" lon="14.053085870881736"><ele>302.0</ele><time>2026-03-29T15:05:55.998Z</time></trkpt><trkpt lat="37.28509314008836" lon="14.052750873808426"><ele>297.0</ele><time>2026-03-29T15:05:56.998Z</time></trkpt><trkpt lat="37.285161608679054" lon="14.052414488885326"><ele>292.0</ele><time>2026-03-29T15:05:57.998Z</time></trkpt><trkpt lat="37.285230791705466" lon="14.052075009191116"><ele>292.0</ele><time>2026-03-29T15:05:58.998Z</time></trkpt><trkpt lat="37.285298681270255" lon="14.051734668670216"><ele>292.0</ele><time>2026-03-29T15:05:59.998Z</time></trkpt><trkpt lat="37.28536756333959" lon="14.05139315552284"><ele>288.0</ele><time>2026-03-29T15:06:00.998Z</time></trkpt><trkpt lat="37.28543543559282" lon="14.051049519153207"><ele>284.0</ele><time>2026-03-29T15:06:01.998Z</time></trkpt><trkpt lat="37.285505151638326" lon="14.050703803404616"><ele>285.0</ele><time>2026-03-29T15:06:02.998Z</time></trkpt><trkpt lat="37.28557614137698" lon="14.050359972085122"><ele>286.0</ele><time>2026-03-29T15:06:03.998Z</time></trkpt><trkpt lat="37.28564626237608" lon="14.05001933213897"><ele>283.0</ele><time>2026-03-29T15:06:04.998Z</time></trkpt><trkpt lat="37.28571522938891" lon="14.049678741380102"><ele>280.0</ele><time>2026-03-29T15:06:05.998Z</time></trkpt><trkpt lat="37.28578285946955" lon="14.049339977191153"><ele>277.5</ele><time>2026-03-29T15:06:06.998Z</time></trkpt><trkpt lat="37.28585021119422" lon="14.049005619134725"><ele>275.0</ele><time>2026-03-29T15:06:07.998Z</time></trkpt><trkpt lat="37.28591570901637" lon="14.04867277217797"><ele>275.0</ele><time>2026-03-29T15:06:08.998Z</time></trkpt><trkpt lat="37.285982077658964" lon="14.048336243074985"><ele>275.0</ele><time>2026-03-29T15:06:09.998Z</time></trkpt><trkpt lat="37.28604857848485" lon="14.047998150549361"><ele>272.0</ele><time>2026-03-29T15:06:10.998Z</time></trkpt><trkpt lat="37.286112273564584" lon="14.047657864617907"><ele>269.0</ele><time>2026-03-29T15:06:11.998Z</time></trkpt><trkpt lat="37.28617036922729" lon="14.047315409984977"><ele>265.5</ele><time>2026-03-29T15:06:12.998Z</time></trkpt><trkpt lat="37.28621594676619" lon="14.046969343098153"><ele>262.0</ele><time>2026-03-29T15:06:13.998Z</time></trkpt><trkpt lat="37.286246009444696" lon="14.04662323712495"><ele>261.5</ele><time>2026-03-29T15:06:14.998Z</time></trkpt><trkpt lat="37.28626279973733" lon="14.046275266316792"><ele>261.0</ele><time>2026-03-29T15:06:15.998Z</time></trkpt><trkpt lat="37.28626626576593" lon="14.04592810933133"><ele>260.0</ele><time>2026-03-29T15:06:16.999Z</time></trkpt><trkpt lat="37.28625249087612" lon="14.0455780287413"><ele>259.0</ele><time>2026-03-29T15:06:17.999Z</time></trkpt><trkpt lat="37.28621891936249" lon="14.045231164074517"><ele>258.0</ele><time>2026-03-29T15:06:18.999Z</time></trkpt><trkpt lat="37.2861740865198" lon="14.044884603685466"><ele>257.0</ele><time>2026-03-29T15:06:19.999Z</time></trkpt><trkpt lat="37.286113658080716" lon="14.044538168604182"><ele>257.0</ele><time>2026-03-29T15:06:20.999Z</time></trkpt><trkpt lat="37.28603970723335" lon="14.04419752264215"><ele>257.0</ele><time>2026-03-29T15:06:21.999Z</time></trkpt><trkpt lat="37.285951412968046" lon="14.043861072398553"><ele>257.0</ele><time>2026-03-29T15:06:22.999Z</time></trkpt><trkpt lat="37.28584969768125" lon="14.043528691379576"><ele>257.0</ele><time>2026-03-29T15:06:23.999Z</time></trkpt><trkpt lat="37.28573624427072" lon="14.043202830934293"><ele>257.0</ele><time>2026-03-29T15:06:24.999Z</time></trkpt><trkpt lat="37.28560943455611" lon="14.04288246539133"><ele>257.0</ele><time>2026-03-29T15:06:25.999Z</time></trkpt><trkpt lat="37.28546837602387" lon="14.042571420946805"><ele>247.0</ele><time>2026-03-29T15:06:26.999Z</time></trkpt><trkpt lat="37.285315854034465" lon="14.042267779429809"><ele>237.0</ele><time>2026-03-29T15:06:27.999Z</time></trkpt><trkpt lat="37.28515426628548" lon="14.041970401430174"><ele>237.0</ele><time>2026-03-29T15:06:28.999Z</time></trkpt><trkpt lat="37.284984187811496" lon="14.041675571288861"><ele>237.0</ele><time>2026-03-29T15:06:29.999Z</time></trkpt><trkpt lat="37.28481528445285" lon="14.041382479498148"><ele>231.5</ele><time>2026-03-29T15:06:30.999Z</time></trkpt><trkpt lat="37.28464370152023" lon="14.041093454667655"><ele>226.0</ele><time>2026-03-29T15:06:31.999Z</time></trkpt><trkpt lat="37.284486165398725" lon="14.040819949594312"><ele>225.0</ele><time>2026-03-29T15:06:32.999Z</time></trkpt><trkpt lat="37.28433878480275" lon="14.040563067474766"><ele>224.0</ele><time>2026-03-29T15:06:33.999Z</time></trkpt><trkpt lat="37.284200971261335" lon="14.040319304079091"><ele>224.0</ele><time>2026-03-29T15:06:34.999Z</time></trkpt><trkpt lat="37.28407136698819" lon="14.040091402586533"><ele>224.0</ele><time>2026-03-29T15:06:35.999Z</time></trkpt><trkpt lat="37.283943594207095" lon="14.039877044425834"><ele>224.0</ele><time>2026-03-29T15:06:36.999Z</time></trkpt><trkpt lat="37.28380555963945" lon="14.03966704056707"><ele>218.5</ele><time>2026-03-29T15:06:37.999Z</time></trkpt><trkpt lat="37.28364833047509" lon="14.039464342876881"><ele>213.0</ele><time>2026-03-29T15:06:38.999Z</time></trkpt><trkpt lat="37.28347995576293" lon="14.039274877712936"><ele>211.33333333333331</ele><time>2026-03-29T15:06:39.999Z</time></trkpt><trkpt lat="37.28331173884563" lon="14.039099322940807"><ele>209.66666666666666</ele><time>2026-03-29T15:06:40.999Z</time></trkpt><trkpt lat="37.28314501913818" lon="14.038941138992866"><ele>208.0</ele><time>2026-03-29T15:06:41.999Z</time></trkpt><trkpt lat="37.28297862521055" lon="14.038798152813428"><ele>207.0</ele><time>2026-03-29T15:06:42.999Z</time></trkpt><trkpt lat="37.28281220334036" lon="14.03865814898268"><ele>206.0</ele><time>2026-03-29T15:06:43.999Z</time></trkpt><trkpt lat="37.28264321630748" lon="14.03850687017597"><ele>205.0</ele><time>2026-03-29T15:06:44.999Z</time></trkpt><trkpt lat="37.28248725489228" lon="14.038343319386675"><ele>203.33333333333331</ele><time>2026-03-29T15:06:45.999Z</time></trkpt><trkpt lat="37.28235557718689" lon="14.03815909764442"><ele>201.66666666666669</ele><time>2026-03-29T15:06:46.999Z</time></trkpt><trkpt lat="37.28225377387147" lon="14.03795843826777"><ele>200.0</ele><time>2026-03-29T15:06:47.999Z</time></trkpt><trkpt lat="37.282179930006954" lon="14.037755021669296"><ele>198.33333333333334</ele><time>2026-03-29T15:06:48.999Z</time></trkpt><trkpt lat="37.28212278106791" lon="14.03755634701909"><ele>196.66666666666669</ele><time>2026-03-29T15:06:49.999Z</time></trkpt><trkpt lat="37.28207999380705" lon="14.037371550683751"><ele>195.0</ele><time>2026-03-29T15:06:50.999Z</time></trkpt><trkpt lat="37.28205259959126" lon="14.03718645526901"><ele>192.0</ele><time>2026-03-29T15:06:51.999Z</time></trkpt><trkpt lat="37.28204441778325" lon="14.036988231649756"><ele>189.0</ele><time>2026-03-29T15:06:52.999Z</time></trkpt><trkpt lat="37.28206671605021" lon="14.036769275083822"><ele>186.0</ele><time>2026-03-29T15:06:53.999Z</time></trkpt><trkpt lat="37.28211264537007" lon="14.036547994373814"><ele>185.33333333333334</ele><time>2026-03-29T15:06:55Z</time></trkpt><trkpt lat="37.282184246318444" lon="14.036334697799617"><ele>184.66666666666669</ele><time>2026-03-29T15:06:56Z</time></trkpt><trkpt lat="37.2822784609353" lon="14.036129600736933"><ele>184.0</ele><time>2026-03-29T15:06:57Z</time></trkpt><trkpt lat="37.282397423935194" lon="14.035940375660434"><ele>177.66666666666669</ele><time>2026-03-29T15:06:58Z</time></trkpt><trkpt lat="37.28253206205718" lon="14.035780008549537"><ele>171.33333333333334</ele><time>2026-03-29T15:06:59Z</time></trkpt><trkpt lat="37.282675116652754" lon="14.035653421077356"><ele>165.0</ele><time>2026-03-29T15:07:00Z</time></trkpt><trkpt lat="37.28281910765823" lon="14.035562260055979"><ele>165.0</ele><time>2026-03-29T15:07:01Z</time></trkpt><trkpt lat="37.28296544665198" lon="14.035503743002156"><ele>165.0</ele><time>2026-03-29T15:07:02Z</time></trkpt><trkpt lat="37.28312044458507" lon="14.035467044912991"><ele>165.0</ele><time>2026-03-29T15:07:03Z</time></trkpt><trkpt lat="37.28328976225746" lon="14.035429724464473"><ele>165.66666666666666</ele><time>2026-03-29T15:07:04Z</time></trkpt><trkpt lat="37.28346094998084" lon="14.035365407603505"><ele>166.33333333333331</ele><time>2026-03-29T15:07:05Z</time></trkpt><trkpt lat="37.28364026636709" lon="14.035279424104694"><ele>167.0</ele><time>2026-03-29T15:07:06Z</time></trkpt><trkpt lat="37.283827677425045" lon="14.035186035018045"><ele>165.66666666666666</ele><time>2026-03-29T15:07:07Z</time></trkpt><trkpt lat="37.284024052547714" lon="14.035092660028752"><ele>164.33333333333334</ele><time>2026-03-29T15:07:08Z</time></trkpt><trkpt lat="37.28422671873945" lon="14.034997552097966"><ele>163.0</ele><time>2026-03-29T15:07:09Z</time></trkpt><trkpt lat="37.28443275114016" lon="14.034899893891511"><ele>158.0</ele><time>2026-03-29T15:07:10Z</time></trkpt><trkpt lat="37.284643746181665" lon="14.034801120075421"><ele>153.0</ele><time>2026-03-29T15:07:11Z</time></trkpt><trkpt lat="37.2848559009783" lon="14.034702675161784"><ele>153.0</ele><time>2026-03-29T15:07:12Z</time></trkpt><trkpt lat="37.28506402759198" lon="14.034603149678489"><ele>153.0</ele><time>2026-03-29T15:07:13Z</time></trkpt><trkpt lat="37.28526932943788" lon="14.034504421011398"><ele>153.0</ele><time>2026-03-29T15:07:14Z</time></trkpt><trkpt lat="37.28547024503905" lon="14.034406578581017"><ele>156.0</ele><time>2026-03-29T15:07:15Z</time></trkpt><trkpt lat="37.285668139183166" lon="14.03431021593875"><ele>159.0</ele><time>2026-03-29T15:07:16Z</time></trkpt><trkpt lat="37.28586139711233" lon="14.034216806617485"><ele>162.0</ele><time>2026-03-29T15:07:17Z</time></trkpt><trkpt lat="37.2860588452299" lon="14.034123277032773"><ele>156.66666666666666</ele><time>2026-03-29T15:07:18Z</time></trkpt><trkpt lat="37.28625340153721" lon="14.034033435940218"><ele>151.33333333333331</ele><time>2026-03-29T15:07:19Z</time></trkpt><trkpt lat="37.28644941015193" lon="14.033954056034354"><ele>146.0</ele><time>2026-03-29T15:07:20Z</time></trkpt><trkpt lat="37.286652016406066" lon="14.033889969437995"><ele>146.0</ele><time>2026-03-29T15:07:21Z</time></trkpt><trkpt lat="37.286862742133444" lon="14.03384592038463"><ele>146.0</ele><time>2026-03-29T15:07:22Z</time></trkpt><trkpt lat="37.287083725022065" lon="14.033814495032148"><ele>146.0</ele><time>2026-03-29T15:07:23Z</time></trkpt><trkpt lat="37.2873097625753" lon="14.033773735006795"><ele>144.5</ele><time>2026-03-29T15:07:24Z</time></trkpt><trkpt lat="37.28754796081452" lon="14.03372598318369"><ele>143.0</ele><time>2026-03-29T15:07:25Z</time></trkpt><trkpt lat="37.2877831173233" lon="14.033679340091144"><ele>143.0</ele><time>2026-03-29T15:07:26Z</time></trkpt><trkpt lat="37.28800585694834" lon="14.033640750872054"><ele>143.0</ele><time>2026-03-29T15:07:27Z</time></trkpt><trkpt lat="37.28822763618894" lon="14.033612900356172"><ele>143.0</ele><time>2026-03-29T15:07:28Z</time></trkpt><trkpt lat="37.288455914022244" lon="14.03358149077858"><ele>142.0</ele><time>2026-03-29T15:07:29Z</time></trkpt><trkpt lat="37.28869093603028" lon="14.033551707590894"><ele>141.0</ele><time>2026-03-29T15:07:30Z</time></trkpt><trkpt lat="37.28893089475202" lon="14.033519631069396"><ele>139.0</ele><time>2026-03-29T15:07:31Z</time></trkpt><trkpt lat="37.28917647819628" lon="14.033483840406141"><ele>137.0</ele><time>2026-03-29T15:07:32Z</time></trkpt><trkpt lat="37.28942428465457" lon="14.033445680779055"><ele>137.0</ele><time>2026-03-29T15:07:33Z</time></trkpt><trkpt lat="37.28967312933163" lon="14.033406497340302"><ele>137.0</ele><time>2026-03-29T15:07:34Z</time></trkpt><trkpt lat="37.289923885002885" lon="14.033366722692532"><ele>133.5</ele><time>2026-03-29T15:07:35Z</time></trkpt><trkpt lat="37.29017529047762" lon="14.033327587798103"><ele>130.0</ele><time>2026-03-29T15:07:36Z</time></trkpt><trkpt lat="37.290426711268374" lon="14.033290771461996"><ele>125.0</ele><time>2026-03-29T15:07:37Z</time></trkpt><trkpt lat="37.29067927229411" lon="14.033254803900874"><ele>120.0</ele><time>2026-03-29T15:07:38Z</time></trkpt><trkpt lat="37.29093309937974" lon="14.033217007541563"><ele>120.0</ele><time>2026-03-29T15:07:39Z</time></trkpt><trkpt lat="37.291186857391246" lon="14.033179209039895"><ele>120.0</ele><time>2026-03-29T15:07:40Z</time></trkpt><trkpt lat="37.291439608347005" lon="14.03313875248411"><ele>120.0</ele><time>2026-03-29T15:07:41Z</time></trkpt><trkpt lat="37.29169369384307" lon="14.033095266650564"><ele>120.0</ele><time>2026-03-29T15:07:42Z</time></trkpt><trkpt lat="37.2919464439419" lon="14.033051538749195"><ele>120.0</ele><time>2026-03-29T15:07:43Z</time></trkpt><trkpt lat="37.2921979832567" lon="14.03301029880858"><ele>120.0</ele><time>2026-03-29T15:07:44Z</time></trkpt><trkpt lat="37.292449385285295" lon="14.032969846547326"><ele>118.5</ele><time>2026-03-29T15:07:45Z</time></trkpt><trkpt lat="37.29270043160124" lon="14.03292917276157"><ele>117.0</ele><time>2026-03-29T15:07:46Z</time></trkpt><trkpt lat="37.292949929179855" lon="14.032887175719205"><ele>118.5</ele><time>2026-03-29T15:07:47Z</time></trkpt><trkpt lat="37.293198589166835" lon="14.032834744366784"><ele>120.0</ele><time>2026-03-29T15:07:48Z</time></trkpt><trkpt lat="37.29344551462213" lon="14.032764265034185"><ele>120.0</ele><time>2026-03-29T15:07:49Z</time></trkpt><trkpt lat="37.293690559425436" lon="14.032675535506568"><ele>120.0</ele><time>2026-03-29T15:07:50Z</time></trkpt><trkpt lat="37.29393643403145" lon="14.03257807597604"><ele>120.0</ele><time>2026-03-29T15:07:51Z</time></trkpt><trkpt lat="37.29417880725125" lon="14.032479565710757"><ele>120.0</ele><time>2026-03-29T15:07:52Z</time></trkpt><trkpt lat="37.294420198409604" lon="14.032384966046125"><ele>119.5</ele><time>2026-03-29T15:07:53Z</time></trkpt><trkpt lat="37.29465752770907" lon="14.032296005646687"><ele>119.0</ele><time>2026-03-29T15:07:54Z</time></trkpt><trkpt lat="37.29489341480034" lon="14.032214196569463"><ele>119.0</ele><time>2026-03-29T15:07:55Z</time></trkpt><trkpt lat="37.29512772246994" lon="14.032146430113023"><ele>119.0</ele><time>2026-03-29T15:07:56Z</time></trkpt><trkpt lat="37.29536418881643" lon="14.032094812514135"><ele>121.0</ele><time>2026-03-29T15:07:57Z</time></trkpt><trkpt lat="37.29560613492361" lon="14.03208289279596"><ele>123.0</ele><time>2026-03-29T15:07:58Z</time></trkpt><trkpt lat="37.29584543544329" lon="14.032104253938254"><ele>123.0</ele><time>2026-03-29T15:07:59Z</time></trkpt><trkpt lat="37.29608138669111" lon="14.032159233720714"><ele>123.0</ele><time>2026-03-29T15:08:00Z</time></trkpt><trkpt lat="37.29630646038989" lon="14.032247799095988"><ele>123.0</ele><time>2026-03-29T15:08:01Z</time></trkpt><trkpt lat="37.29652456742429" lon="14.032368357471904"><ele>123.0</ele><time>2026-03-29T15:08:01.999Z</time></trkpt><trkpt lat="37.29673216184007" lon="14.032518520562684"><ele>124.5</ele><time>2026-03-29T15:08:02.999Z</time></trkpt><trkpt lat="37.29693160851911" lon="14.032690578503761"><ele>126.0</ele><time>2026-03-29T15:08:03.999Z</time></trkpt><trkpt lat="37.29712534215194" lon="14.032883278937659"><ele>125.5</ele><time>2026-03-29T15:08:04.999Z</time></trkpt><trkpt lat="37.297322743389834" lon="14.033089471131822"><ele>125.0</ele><time>2026-03-29T15:08:05.999Z</time></trkpt><trkpt lat="37.29752763225929" lon="14.033296980110672"><ele>126.0</ele><time>2026-03-29T15:08:06.999Z</time></trkpt><trkpt lat="37.297733894116334" lon="14.033502708705743"><ele>127.0</ele><time>2026-03-29T15:08:07.999Z</time></trkpt><trkpt lat="37.29793760880996" lon="14.033704773911658"><ele>127.5</ele><time>2026-03-29T15:08:08.999Z</time></trkpt><trkpt lat="37.29813782095736" lon="14.033900713503721"><ele>128.0</ele><time>2026-03-29T15:08:09.999Z</time></trkpt><trkpt lat="37.29833412834101" lon="14.034092949566464"><ele>129.0</ele><time>2026-03-29T15:08:10.999Z</time></trkpt><trkpt lat="37.29852170628781" lon="14.034279086839659"><ele>130.0</ele><time>2026-03-29T15:08:11.999Z</time></trkpt><trkpt lat="37.298705312857905" lon="14.034462045710583"><ele>130.0</ele><time>2026-03-29T15:08:12.999Z</time></trkpt><trkpt lat="37.29888577114064" lon="14.034640740232204"><ele>130.0</ele><time>2026-03-29T15:08:13.999Z</time></trkpt><trkpt lat="37.299071944908086" lon="14.034808610312304"><ele>128.5</ele><time>2026-03-29T15:08:14.999Z</time></trkpt><trkpt lat="37.29926817608222" lon="14.034954466985237"><ele>127.0</ele><time>2026-03-29T15:08:15.999Z</time></trkpt><trkpt lat="37.29947812164537" lon="14.03506813170173"><ele>128.33333333333334</ele><time>2026-03-29T15:08:16.999Z</time></trkpt><trkpt lat="37.29969551179927" lon="14.035145322335243"><ele>129.66666666666666</ele><time>2026-03-29T15:08:17.999Z</time></trkpt><trkpt lat="37.2999157928696" lon="14.035184039878205"><ele>131.0</ele><time>2026-03-29T15:08:18.999Z</time></trkpt><trkpt lat="37.3001415344826" lon="14.035190169307317"><ele>131.0</ele><time>2026-03-29T15:08:19.999Z</time></trkpt><trkpt lat="37.30036625264754" lon="14.035166400802876"><ele>131.0</ele><time>2026-03-29T15:08:20.999Z</time></trkpt><trkpt lat="37.30058460320463" lon="14.035125798585982"><ele>131.0</ele><time>2026-03-29T15:08:21.999Z</time></trkpt><trkpt lat="37.30080213216596" lon="14.03508865988457"><ele>127.66666666666666</ele><time>2026-03-29T15:08:22.999Z</time></trkpt><trkpt lat="37.30101785315114" lon="14.035056496864563"><ele>124.33333333333334</ele><time>2026-03-29T15:08:23.999Z</time></trkpt><trkpt lat="37.30122954745226" lon="14.035027588554751"><ele>121.0</ele><time>2026-03-29T15:08:24.999Z</time></trkpt><trkpt lat="37.30143959436686" lon="14.034996963732436"><ele>121.0</ele><time>2026-03-29T15:08:25.999Z</time></trkpt><trkpt lat="37.30163754483043" lon="14.034966297930884"><ele>121.0</ele><time>2026-03-29T15:08:26.999Z</time></trkpt><trkpt lat="37.30182066459884" lon="14.034939441953332"><ele>121.0</ele><time>2026-03-29T15:08:27.999Z</time></trkpt><trkpt lat="37.30200470369703" lon="14.034917490457737"><ele>121.0</ele><time>2026-03-29T15:08:28.999Z</time></trkpt><trkpt lat="37.302186894983976" lon="14.034892197468682"><ele>121.0</ele><time>2026-03-29T15:08:29.999Z</time></trkpt><trkpt lat="37.30236493782958" lon="14.034850451483965"><ele>121.0</ele><time>2026-03-29T15:08:30.999Z</time></trkpt><trkpt lat="37.30254466928016" lon="14.03477912296846"><ele>125.0</ele><time>2026-03-29T15:08:31.999Z</time></trkpt><trkpt lat="37.30272433382504" lon="14.034680354032357"><ele>129.0</ele><time>2026-03-29T15:08:33Z</time></trkpt><trkpt lat="37.302896394537434" lon="14.03455093344232"><ele>133.0</ele><time>2026-03-29T15:08:34Z</time></trkpt><trkpt lat="37.30306252787244" lon="14.034395811215798"><ele>133.0</ele><time>2026-03-29T15:08:35Z</time></trkpt><trkpt lat="37.30321700632568" lon="14.034216244164831"><ele>133.0</ele><time>2026-03-29T15:08:36Z</time></trkpt><trkpt lat="37.303360137087324" lon="14.034014300303852"><ele>133.0</ele><time>2026-03-29T15:08:37Z</time></trkpt><trkpt lat="37.30348313477699" lon="14.033790598485382"><ele>133.0</ele><time>2026-03-29T15:08:38Z</time></trkpt><trkpt lat="37.303580110823916" lon="14.033547148364402"><ele>133.0</ele><time>2026-03-29T15:08:39Z</time></trkpt><trkpt lat="37.30365461561806" lon="14.033283102824583"><ele>133.0</ele><time>2026-03-29T15:08:40Z</time></trkpt><trkpt lat="37.30371998425735" lon="14.032999749442537"><ele>132.5</ele><time>2026-03-29T15:08:41Z</time></trkpt><trkpt lat="37.30378404805108" lon="14.032706895336773"><ele>132.0</ele><time>2026-03-29T15:08:42Z</time></trkpt><trkpt lat="37.303852689298324" lon="14.032407474829338"><ele>136.5</ele><time>2026-03-29T15:08:43Z</time></trkpt><trkpt lat="37.303922335412764" lon="14.032107796581782"><ele>141.0</ele><time>2026-03-29T15:08:44Z</time></trkpt><trkpt lat="37.30398945154647" lon="14.03180587710098"><ele>140.5</ele><time>2026-03-29T15:08:45Z</time></trkpt><trkpt lat="37.3040565314264" lon="14.031498845821503"><ele>140.0</ele><time>2026-03-29T15:08:46Z</time></trkpt><trkpt lat="37.304125165120396" lon="14.031191800707656"><ele>140.0</ele><time>2026-03-29T15:08:47Z</time></trkpt><trkpt lat="37.3041951524401" lon="14.030885770905135"><ele>140.0</ele><time>2026-03-29T15:08:48Z</time></trkpt><trkpt lat="37.30426545706712" lon="14.030578720823794"><ele>140.5</ele><time>2026-03-29T15:08:49Z</time></trkpt><trkpt lat="37.304334364896455" lon="14.030272281059222"><ele>141.0</ele><time>2026-03-29T15:08:50Z</time></trkpt><trkpt lat="37.304402200469234" lon="14.029964665728102"><ele>139.5</ele><time>2026-03-29T15:08:51Z</time></trkpt><trkpt lat="37.30447184267537" lon="14.029659490207209"><ele>138.0</ele><time>2026-03-29T15:08:52Z</time></trkpt><trkpt lat="37.30454062972358" lon="14.02935672191111"><ele>137.5</ele><time>2026-03-29T15:08:53Z</time></trkpt><trkpt lat="37.304609733496044" lon="14.029056021082328"><ele>137.0</ele><time>2026-03-29T15:08:54Z</time></trkpt><trkpt lat="37.30467739537182" lon="14.02875888655122"><ele>137.0</ele><time>2026-03-29T15:08:55Z</time></trkpt><trkpt lat="37.30474497302448" lon="14.028463244165401"><ele>137.0</ele><time>2026-03-29T15:08:56Z</time></trkpt><trkpt lat="37.30481397476159" lon="14.028166496873768"><ele>141.0</ele><time>2026-03-29T15:08:57Z</time></trkpt><trkpt lat="37.304881988074705" lon="14.02786987795095"><ele>145.0</ele><time>2026-03-29T15:08:58Z</time></trkpt><trkpt lat="37.304949343108426" lon="14.027570474336393"><ele>144.0</ele><time>2026-03-29T15:08:59Z</time></trkpt><trkpt lat="37.30501542049354" lon="14.027270669587637"><ele>143.0</ele><time>2026-03-29T15:09:00Z</time></trkpt><trkpt lat="37.305077585680415" lon="14.026971513398973"><ele>143.0</ele><time>2026-03-29T15:09:01Z</time></trkpt><trkpt lat="37.30514180007074" lon="14.026668548264063"><ele>143.0</ele><time>2026-03-29T15:09:02Z</time></trkpt><trkpt lat="37.305209169805146" lon="14.026362877495623"><ele>143.0</ele><time>2026-03-29T15:09:03Z</time></trkpt><trkpt lat="37.30527859525832" lon="14.02605705717795"><ele>143.0</ele><time>2026-03-29T15:09:04Z</time></trkpt><trkpt lat="37.30534699185551" lon="14.025758042000195"><ele>143.5</ele><time>2026-03-29T15:09:05Z</time></trkpt><trkpt lat="37.30541763467725" lon="14.025464557012635"><ele>144.0</ele><time>2026-03-29T15:09:06Z</time></trkpt><trkpt lat="37.305486231094356" lon="14.025175163279549"><ele>145.5</ele><time>2026-03-29T15:09:07Z</time></trkpt><trkpt lat="37.30554961157635" lon="14.024890800687123"><ele>147.0</ele><time>2026-03-29T15:09:08Z</time></trkpt><trkpt lat="37.3056122818923" lon="14.024605722341922"><ele>151.0</ele><time>2026-03-29T15:09:09Z</time></trkpt><trkpt lat="37.30567364938483" lon="14.02432482949269"><ele>155.0</ele><time>2026-03-29T15:09:10Z</time></trkpt><trkpt lat="37.30573484532642" lon="14.024050936705228"><ele>155.0</ele><time>2026-03-29T15:09:11Z</time></trkpt><trkpt lat="37.30580055020174" lon="14.023789020043532"><ele>155.0</ele><time>2026-03-29T15:09:12Z</time></trkpt><trkpt lat="37.305873628333174" lon="14.023531104060142"><ele>155.0</ele><time>2026-03-29T15:09:13Z</time></trkpt><trkpt lat="37.30597351593096" lon="14.023287009933911"><ele>154.66666666666666</ele><time>2026-03-29T15:09:14Z</time></trkpt><trkpt lat="37.30609867439338" lon="14.023066107943919"><ele>154.33333333333334</ele><time>2026-03-29T15:09:15Z</time></trkpt><trkpt lat="37.30624862732546" lon="14.02286117763907"><ele>154.0</ele><time>2026-03-29T15:09:16Z</time></trkpt><trkpt lat="37.306420271738126" lon="14.022670022710916"><ele>158.5</ele><time>2026-03-29T15:09:17Z</time></trkpt><trkpt lat="37.306602162916" lon="14.022488217165362"><ele>163.0</ele><time>2026-03-29T15:09:18Z</time></trkpt><trkpt lat="37.30678326979572" lon="14.022307028355026"><ele>163.0</ele><time>2026-03-29T15:09:19Z</time></trkpt><trkpt lat="37.306960107664324" lon="14.022124277983986"><ele>163.0</ele><time>2026-03-29T15:09:20Z</time></trkpt><trkpt lat="37.3071265639093" lon="14.021931218541933"><ele>168.0</ele><time>2026-03-29T15:09:21Z</time></trkpt><trkpt lat="37.30727783903001" lon="14.021717081388056"><ele>173.0</ele><time>2026-03-29T15:09:22Z</time></trkpt><trkpt lat="37.30741589505311" lon="14.021488375405035"><ele>173.0</ele><time>2026-03-29T15:09:23Z</time></trkpt><trkpt lat="37.30754947211845" lon="14.021257230749066"><ele>173.0</ele><time>2026-03-29T15:09:24Z</time></trkpt><trkpt lat="37.30768217962044" lon="14.021030018883005"><ele>172.0</ele><time>2026-03-29T15:09:25Z</time></trkpt><trkpt lat="37.30781202947505" lon="14.02080583061772"><ele>171.0</ele><time>2026-03-29T15:09:26Z</time></trkpt><trkpt lat="37.30793402160438" lon="14.02058505923796"><ele>170.0</ele><time>2026-03-29T15:09:27Z</time></trkpt><trkpt lat="37.30803495235924" lon="14.020356939006472"><ele>174.33333333333331</ele><time>2026-03-29T15:09:28Z</time></trkpt><trkpt lat="37.308110118500146" lon="14.02011212032863"><ele>178.66666666666666</ele><time>2026-03-29T15:09:29Z</time></trkpt><trkpt lat="37.30816183752443" lon="14.019856075893538"><ele>183.0</ele><time>2026-03-29T15:09:30Z</time></trkpt><trkpt lat="37.30818985702034" lon="14.019591244879464"><ele>184.66666666666666</ele><time>2026-03-29T15:09:31Z</time></trkpt><trkpt lat="37.308213375866195" lon="14.019327204966126"><ele>186.33333333333331</ele><time>2026-03-29T15:09:32Z</time></trkpt><trkpt lat="37.30824467352254" lon="14.019069640315589"><ele>188.0</ele><time>2026-03-29T15:09:33.001Z</time></trkpt><trkpt lat="37.30828915066842" lon="14.018817885418914"><ele>189.33333333333331</ele><time>2026-03-29T15:09:34.001Z</time></trkpt><trkpt lat="37.30835080630188" lon="14.01856805960023"><ele>190.66666666666666</ele><time>2026-03-29T15:09:35.001Z</time></trkpt><trkpt lat="37.308424580939935" lon="14.018324688471013"><ele>192.0</ele><time>2026-03-29T15:09:36.001Z</time></trkpt><trkpt lat="37.30849881999556" lon="14.018086441361591"><ele>193.0</ele><time>2026-03-29T15:09:37.001Z</time></trkpt><trkpt lat="37.30857191145152" lon="14.017852054705145"><ele>194.0</ele><time>2026-03-29T15:09:38.001Z</time></trkpt><trkpt lat="37.30864481020388" lon="14.017623831103359"><ele>195.0</ele><time>2026-03-29T15:09:39.001Z</time></trkpt><trkpt lat="37.30869273984054" lon="14.017393350408872"><ele>198.33333333333331</ele><time>2026-03-29T15:09:40.001Z</time></trkpt><trkpt lat="37.30870722867649" lon="14.01716235348285"><ele>201.66666666666666</ele><time>2026-03-29T15:09:41.001Z</time></trkpt><trkpt lat="37.308697687652575" lon="14.016932126162526"><ele>205.0</ele><time>2026-03-29T15:09:42.001Z</time></trkpt><trkpt lat="37.308664672541376" lon="14.016710536111875"><ele>207.0</ele><time>2026-03-29T15:09:43.001Z</time></trkpt><trkpt lat="37.30861085521999" lon="14.016490086336827"><ele>209.0</ele><time>2026-03-29T15:09:44.001Z</time></trkpt><trkpt lat="37.3085532627773" lon="14.016282090824571"><ele>211.0</ele><time>2026-03-29T15:09:45.001Z</time></trkpt><trkpt lat="37.308510676034494" lon="14.016094708683521"><ele>211.0</ele><time>2026-03-29T15:09:46.001Z</time></trkpt><trkpt lat="37.30848905896383" lon="14.015919808495449"><ele>211.0</ele><time>2026-03-29T15:09:47.001Z</time></trkpt><trkpt lat="37.3084869760415" lon="14.015747265475444"><ele>211.0</ele><time>2026-03-29T15:09:48.001Z</time></trkpt><trkpt lat="37.30850867167966" lon="14.015581083684722"><ele>211.0</ele><time>2026-03-29T15:09:49.001Z</time></trkpt><trkpt lat="37.30855729484464" lon="14.015439614769202"><ele>212.4</ele><time>2026-03-29T15:09:50.001Z</time></trkpt><trkpt lat="37.30861987607668" lon="14.015323440124755"><ele>213.8</ele><time>2026-03-29T15:09:51.001Z</time></trkpt><trkpt lat="37.30868251992199" lon="14.015226680499518"><ele>215.20000000000002</ele><time>2026-03-29T15:09:52.001Z</time></trkpt><trkpt lat="37.30873093410673" lon="14.015148647847539"><ele>216.60000000000002</ele><time>2026-03-29T15:09:53.001Z</time></trkpt><trkpt lat="37.30876624176576" lon="14.015009754668602"><ele>218.0</ele><time>2026-03-29T15:09:55.001Z</time></trkpt><trkpt lat="37.30866980144239" lon="14.014905081824734"><ele>220.75</ele><time>2026-03-29T15:09:57.001Z</time></trkpt><trkpt lat="37.30857591166698" lon="14.014887697774872"><ele>223.5</ele><time>2026-03-29T15:09:58.001Z</time></trkpt><trkpt lat="37.308463414590165" lon="14.01486179312507"><ele>226.25</ele><time>2026-03-29T15:09:59.001Z</time></trkpt><trkpt lat="37.30832974949434" lon="14.01482547312708"><ele>229.0</ele><time>2026-03-29T15:10:00.001Z</time></trkpt><trkpt lat="37.30817592605046" lon="14.014781702300422"><ele>228.0</ele><time>2026-03-29T15:10:01.001Z</time></trkpt><trkpt lat="37.308004846672006" lon="14.014730212841005"><ele>227.0</ele><time>2026-03-29T15:10:02.001Z</time></trkpt><trkpt lat="37.30783183627782" lon="14.014674443499388"><ele>226.0</ele><time>2026-03-29T15:10:03.001Z</time></trkpt><trkpt lat="37.30764892207375" lon="14.014616278347061"><ele>226.0</ele><time>2026-03-29T15:10:04.001Z</time></trkpt><trkpt lat="37.307469146038244" lon="14.014556483618998"><ele>226.0</ele><time>2026-03-29T15:10:05.001Z</time></trkpt><trkpt lat="37.307295569089064" lon="14.014497201884515"><ele>226.0</ele><time>2026-03-29T15:10:06.001Z</time></trkpt><trkpt lat="37.30713298759423" lon="14.01443479005175"><ele>225.66666666666666</ele><time>2026-03-29T15:10:07.001Z</time></trkpt><trkpt lat="37.30698256933946" lon="14.014348930285598"><ele>225.33333333333331</ele><time>2026-03-29T15:10:07.999Z</time></trkpt><trkpt lat="37.30685328627634" lon="14.01421947291696"><ele>225.0</ele><time>2026-03-29T15:10:08.999Z</time></trkpt><trkpt lat="37.306758247679625" lon="14.014048315451225"><ele>228.0</ele><time>2026-03-29T15:10:09.999Z</time></trkpt><trkpt lat="37.30668823961169" lon="14.013852658468268"><ele>231.0</ele><time>2026-03-29T15:10:10.999Z</time></trkpt><trkpt lat="37.306631388356465" lon="14.013649324486805"><ele>234.0</ele><time>2026-03-29T15:10:11.999Z</time></trkpt><trkpt lat="37.30655995620934" lon="14.013453972088477"><ele>236.0</ele><time>2026-03-29T15:10:12.999Z</time></trkpt><trkpt lat="37.30645917674194" lon="14.013278842838089"><ele>238.0</ele><time>2026-03-29T15:10:13.999Z</time></trkpt><trkpt lat="37.306326621522764" lon="14.013136522178703"><ele>240.0</ele><time>2026-03-29T15:10:14.999Z</time></trkpt><trkpt lat="37.30617104347629" lon="14.013037096362039"><ele>240.0</ele><time>2026-03-29T15:10:15.999Z</time></trkpt><trkpt lat="37.305999707237966" lon="14.012987489084667"><ele>240.0</ele><time>2026-03-29T15:10:16.999Z</time></trkpt><trkpt lat="37.3058224187488" lon="14.012987846036603"><ele>240.0</ele><time>2026-03-29T15:10:17.999Z</time></trkpt><trkpt lat="37.30564699575965" lon="14.013040943375447"><ele>242.33333333333331</ele><time>2026-03-29T15:10:18.999Z</time></trkpt><trkpt lat="37.30548021870841" lon="14.013145598699973"><ele>244.66666666666666</ele><time>2026-03-29T15:10:19.999Z</time></trkpt><trkpt lat="37.30532078664627" lon="14.013287831659964"><ele>247.0</ele><time>2026-03-29T15:10:20.999Z</time></trkpt><trkpt lat="37.305168286059704" lon="14.013442004295856"><ele>247.0</ele><time>2026-03-29T15:10:21.999Z</time></trkpt><trkpt lat="37.305011569090865" lon="14.013596286024747"><ele>247.0</ele><time>2026-03-29T15:10:22.999Z</time></trkpt><trkpt lat="37.30484774945796" lon="14.013734488015897"><ele>247.0</ele><time>2026-03-29T15:10:23.999Z</time></trkpt><trkpt lat="37.304686354451064" lon="14.01382857642744"><ele>249.66666666666666</ele><time>2026-03-29T15:10:24.999Z</time></trkpt><trkpt lat="37.304510184743975" lon="14.013873980007729"><ele>252.33333333333331</ele><time>2026-03-29T15:10:25.999Z</time></trkpt><trkpt lat="37.304328824983" lon="14.013868119647132"><ele>255.0</ele><time>2026-03-29T15:10:26.999Z</time></trkpt><trkpt lat="37.30415497083891" lon="14.013814235129441"><ele>255.0</ele><time>2026-03-29T15:10:27.999Z</time></trkpt><trkpt lat="37.30399093818045" lon="14.013722245795815"><ele>255.0</ele><time>2026-03-29T15:10:28.999Z</time></trkpt><trkpt lat="37.303826040067094" lon="14.013614588920513"><ele>255.0</ele><time>2026-03-29T15:10:29.999Z</time></trkpt><trkpt lat="37.303643131747556" lon="14.013532913922198"><ele>256.0</ele><time>2026-03-29T15:10:30.999Z</time></trkpt><trkpt lat="37.30344055615604" lon="14.013493896527965"><ele>257.0</ele><time>2026-03-29T15:10:31.999Z</time></trkpt><trkpt lat="37.30323363646952" lon="14.013473906542162"><ele>258.0</ele><time>2026-03-29T15:10:32.999Z</time></trkpt><trkpt lat="37.30302700166279" lon="14.013454776432159"><ele>258.3333333333333</ele><time>2026-03-29T15:10:33.999Z</time></trkpt><trkpt lat="37.3028234198035" lon="14.013431435197893"><ele>258.66666666666663</ele><time>2026-03-29T15:10:34.999Z</time></trkpt><trkpt lat="37.30262816281514" lon="14.013391195475844"><ele>259.0</ele><time>2026-03-29T15:10:35.999Z</time></trkpt><trkpt lat="37.302453381214654" lon="14.013306465343756"><ele>258.66666666666663</ele><time>2026-03-29T15:10:36.999Z</time></trkpt><trkpt lat="37.30228608478199" lon="14.013175151083091"><ele>258.3333333333333</ele><time>2026-03-29T15:10:37.999Z</time></trkpt><trkpt lat="37.302131576480484" lon="14.013008920783259"><ele>258.0</ele><time>2026-03-29T15:10:38.999Z</time></trkpt><trkpt lat="37.30199536272568" lon="14.01281836113817"><ele>258.0</ele><time>2026-03-29T15:10:39.999Z</time></trkpt><trkpt lat="37.301861739812715" lon="14.01263364779067"><ele>258.0</ele><time>2026-03-29T15:10:41Z</time></trkpt><trkpt lat="37.30171106208112" lon="14.012472346324028"><ele>258.0</ele><time>2026-03-29T15:10:42Z</time></trkpt><trkpt lat="37.301538136945" lon="14.012346137661904"><ele>260.0</ele><time>2026-03-29T15:10:43Z</time></trkpt><trkpt lat="37.301347489979705" lon="14.012258010197968"><ele>262.0</ele><time>2026-03-29T15:10:44Z</time></trkpt><trkpt lat="37.30115140074826" lon="14.012211142228454"><ele>264.0</ele><time>2026-03-29T15:10:45Z</time></trkpt><trkpt lat="37.300956766853645" lon="14.01215913030381"><ele>264.0</ele><time>2026-03-29T15:10:46Z</time></trkpt><trkpt lat="37.30077656368049" lon="14.012100084453525"><ele>264.0</ele><time>2026-03-29T15:10:47Z</time></trkpt><trkpt lat="37.3006008930675" lon="14.012008331177586"><ele>264.0</ele><time>2026-03-29T15:10:48Z</time></trkpt><trkpt lat="37.300435119950045" lon="14.011845174352612"><ele>263.6666666666667</ele><time>2026-03-29T15:10:49Z</time></trkpt><trkpt lat="37.30026683439041" lon="14.011664683349133"><ele>263.33333333333337</ele><time>2026-03-29T15:10:50Z</time></trkpt><trkpt lat="37.3000919265736" lon="14.011483748740993"><ele>263.0</ele><time>2026-03-29T15:10:51Z</time></trkpt><trkpt lat="37.299918208110334" lon="14.011304701090292"><ele>259.6666666666667</ele><time>2026-03-29T15:10:52Z</time></trkpt><trkpt lat="37.29974634009259" lon="14.011129174910169"><ele>256.3333333333333</ele><time>2026-03-29T15:10:53Z</time></trkpt><trkpt lat="37.29958252086882" lon="14.010960349653056"><ele>253.0</ele><time>2026-03-29T15:10:54Z</time></trkpt><trkpt lat="37.299445782277175" lon="14.010788336551567"><ele>253.0</ele><time>2026-03-29T15:10:55Z</time></trkpt><trkpt lat="37.299330942095445" lon="14.010576685692614"><ele>253.0</ele><time>2026-03-29T15:10:56Z</time></trkpt><trkpt lat="37.299234333966304" lon="14.010328510939265"><ele>253.0</ele><time>2026-03-29T15:10:57Z</time></trkpt><trkpt lat="37.29913949217883" lon="14.010067605704531"><ele>258.0</ele><time>2026-03-29T15:10:58Z</time></trkpt><trkpt lat="37.29904697043765" lon="14.009804650317118"><ele>263.0</ele><time>2026-03-29T15:10:59Z</time></trkpt><trkpt lat="37.298958513104004" lon="14.009544360999758"><ele>255.33333333333334</ele><time>2026-03-29T15:11:00Z</time></trkpt><trkpt lat="37.29887520622001" lon="14.00928417943519"><ele>247.66666666666669</ele><time>2026-03-29T15:11:01Z</time></trkpt><trkpt lat="37.298800795203725" lon="14.00902521092735"><ele>240.0</ele><time>2026-03-29T15:11:02Z</time></trkpt><trkpt lat="37.298733799592824" lon="14.008765986408667"><ele>240.0</ele><time>2026-03-29T15:11:03Z</time></trkpt><trkpt lat="37.29867439976996" lon="14.008512137953591"><ele>240.0</ele><time>2026-03-29T15:11:04Z</time></trkpt><trkpt lat="37.298606385535265" lon="14.008262340153914"><ele>240.0</ele><time>2026-03-29T15:11:05Z</time></trkpt><trkpt lat="37.29851258862232" lon="14.008029070821603"><ele>242.0</ele><time>2026-03-29T15:11:06Z</time></trkpt><trkpt lat="37.298407130616" lon="14.007831585651147"><ele>244.0</ele><time>2026-03-29T15:11:07Z</time></trkpt><trkpt lat="37.29830532912976" lon="14.007667356845374"><ele>246.0</ele><time>2026-03-29T15:11:08Z</time></trkpt><trkpt lat="37.298211510047665" lon="14.0075337409087"><ele>246.5</ele><time>2026-03-29T15:11:09Z</time></trkpt><trkpt lat="37.29813148437778" lon="14.007435157238088"><ele>247.0</ele><time>2026-03-29T15:11:10Z</time></trkpt><trkpt lat="37.298042812512925" lon="14.00733323120725"><ele>247.5</ele><time>2026-03-29T15:11:11Z</time></trkpt><trkpt lat="37.29794204575738" lon="14.007219897229744"><ele>248.0</ele><time>2026-03-29T15:11:12Z</time></trkpt><trkpt lat="37.29783708671078" lon="14.00708817109445"><ele>243.33333333333334</ele><time>2026-03-29T15:11:13Z</time></trkpt><trkpt lat="37.29773286964101" lon="14.006945937110238"><ele>238.66666666666669</ele><time>2026-03-29T15:11:14Z</time></trkpt><trkpt lat="37.29763411170405" lon="14.006798403685444"><ele>234.0</ele><time>2026-03-29T15:11:15Z</time></trkpt><trkpt lat="37.29754904688839" lon="14.006636864720933"><ele>233.33333333333331</ele><time>2026-03-29T15:11:16Z</time></trkpt><trkpt lat="37.29747719246848" lon="14.00645650671504"><ele>232.66666666666666</ele><time>2026-03-29T15:11:17Z</time></trkpt><trkpt lat="37.2974232730181" lon="14.006262316273169"><ele>232.0</ele><time>2026-03-29T15:11:18Z</time></trkpt><trkpt lat="37.297386647470255" lon="14.006059261695972"><ele>232.0</ele><time>2026-03-29T15:11:19Z</time></trkpt><trkpt lat="37.297366119255116" lon="14.0058446264962"><ele>232.0</ele><time>2026-03-29T15:11:20Z</time></trkpt><trkpt lat="37.2973546186339" lon="14.005615954074871"><ele>232.0</ele><time>2026-03-29T15:11:21Z</time></trkpt><trkpt lat="37.297343728115784" lon="14.005376440280598"><ele>231.66666666666666</ele><time>2026-03-29T15:11:22Z</time></trkpt><trkpt lat="37.297327441281595" lon="14.005136063570584"><ele>231.33333333333331</ele><time>2026-03-29T15:11:23Z</time></trkpt><trkpt lat="37.29730820513329" lon="14.004891667780678"><ele>231.0</ele><time>2026-03-29T15:11:24Z</time></trkpt><trkpt lat="37.29729233590609" lon="14.004651462490889"><ele>230.66666666666669</ele><time>2026-03-29T15:11:25Z</time></trkpt><trkpt lat="37.29727797785536" lon="14.004414885975518"><ele>230.33333333333334</ele><time>2026-03-29T15:11:26Z</time></trkpt><trkpt lat="37.29726371350253" lon="14.004179907773608"><ele>230.0</ele><time>2026-03-29T15:11:27Z</time></trkpt><trkpt lat="37.297251341028215" lon="14.003944265423405"><ele>221.0</ele><time>2026-03-29T15:11:28Z</time></trkpt><trkpt lat="37.297241646084274" lon="14.003712555292356"><ele>212.0</ele><time>2026-03-29T15:11:29Z</time></trkpt><trkpt lat="37.29723207950547" lon="14.0034746780925"><ele>203.0</ele><time>2026-03-29T15:11:30.001Z</time></trkpt><trkpt lat="37.297223480515854" lon="14.003240312560793"><ele>202.66666666666669</ele><time>2026-03-29T15:11:31.001Z</time></trkpt><trkpt lat="37.2972218355024" lon="14.003008352265699"><ele>202.33333333333331</ele><time>2026-03-29T15:11:32.001Z</time></trkpt><trkpt lat="37.29722277622252" lon="14.002779111103886"><ele>202.0</ele><time>2026-03-29T15:11:33.001Z</time></trkpt><trkpt lat="37.297220050952504" lon="14.002555103538166"><ele>202.66666666666666</ele><time>2026-03-29T15:11:34.001Z</time></trkpt><trkpt lat="37.29721674183904" lon="14.002334836602659"><ele>203.33333333333331</ele><time>2026-03-29T15:11:35.001Z</time></trkpt><trkpt lat="37.29721247743754" lon="14.002118331650307"><ele>204.0</ele><time>2026-03-29T15:11:36.001Z</time></trkpt><trkpt lat="37.29720594131671" lon="14.001896521209074"><ele>204.0</ele><time>2026-03-29T15:11:37.001Z</time></trkpt><trkpt lat="37.297187789916144" lon="14.001673443947844"><ele>204.0</ele><time>2026-03-29T15:11:38.001Z</time></trkpt><trkpt lat="37.29715349642356" lon="14.0014527452184"><ele>204.0</ele><time>2026-03-29T15:11:39.001Z</time></trkpt><trkpt lat="37.29709074108923" lon="14.001236916359861"><ele>203.33333333333331</ele><time>2026-03-29T15:11:40.001Z</time></trkpt><trkpt lat="37.297004499217884" lon="14.00101987543006"><ele>202.66666666666666</ele><time>2026-03-29T15:11:41.001Z</time></trkpt><trkpt lat="37.296911186870545" lon="14.000797627292355"><ele>202.0</ele><time>2026-03-29T15:11:42.001Z</time></trkpt><trkpt lat="37.29681892422116" lon="14.000572042999744"><ele>204.33333333333331</ele><time>2026-03-29T15:11:43.001Z</time></trkpt><trkpt lat="37.29673515894869" lon="14.000354198725397"><ele>206.66666666666669</ele><time>2026-03-29T15:11:44.001Z</time></trkpt><trkpt lat="37.29665658403452" lon="14.000141668031494"><ele>209.0</ele><time>2026-03-29T15:11:45.001Z</time></trkpt><trkpt lat="37.29658134675924" lon="13.999935544998586"><ele>209.0</ele><time>2026-03-29T15:11:46.001Z</time></trkpt><trkpt lat="37.29651036037849" lon="13.999733477767563"><ele>209.0</ele><time>2026-03-29T15:11:47.001Z</time></trkpt><trkpt lat="37.296447399802574" lon="13.99953917209642"><ele>209.0</ele><time>2026-03-29T15:11:48.001Z</time></trkpt><trkpt lat="37.296391762230996" lon="13.99935270633319"><ele>206.5</ele><time>2026-03-29T15:11:49.001Z</time></trkpt><trkpt lat="37.296348207731995" lon="13.999161209026438"><ele>204.0</ele><time>2026-03-29T15:11:50.001Z</time></trkpt><trkpt lat="37.29631701983471" lon="13.998978376931923"><ele>201.5</ele><time>2026-03-29T15:11:51.001Z</time></trkpt><trkpt lat="37.29629326971754" lon="13.998805524248054"><ele>199.0</ele><time>2026-03-29T15:11:52.001Z</time></trkpt><trkpt lat="37.29627798411617" lon="13.998641864709958"><ele>199.0</ele><time>2026-03-29T15:11:53.001Z</time></trkpt><trkpt lat="37.2962673381897" lon="13.99849786880572"><ele>199.0</ele><time>2026-03-29T15:11:54.001Z</time></trkpt><trkpt lat="37.296261097133396" lon="13.998376513712094"><ele>199.0</ele><time>2026-03-29T15:11:55.001Z</time></trkpt><trkpt lat="37.29625345415064" lon="13.998274584592943"><ele>199.0</ele><time>2026-03-29T15:11:56.001Z</time></trkpt><trkpt lat="37.296258362811194" lon="13.99819495080386"><ele>199.0</ele><time>2026-03-29T15:11:57.001Z</time></trkpt><trkpt lat="37.29609239743512" lon="13.998093133066343"><ele>198.6</ele><time>2026-03-29T15:11:59.001Z</time></trkpt><trkpt lat="37.29599972584322" lon="13.998061852671885"><ele>198.2</ele><time>2026-03-29T15:12:00.001Z</time></trkpt><trkpt lat="37.29590558755284" lon="13.998009598238859"><ele>197.79999999999998</ele><time>2026-03-29T15:12:01.001Z</time></trkpt><trkpt lat="37.2958163491663" lon="13.997935059748379"><ele>197.39999999999998</ele><time>2026-03-29T15:12:02.001Z</time></trkpt><trkpt lat="37.29574032396593" lon="13.997849908977454"><ele>197.0</ele><time>2026-03-29T15:12:03.001Z</time></trkpt><trkpt lat="37.295676949881866" lon="13.99775235625116"><ele>197.00000000000003</ele><time>2026-03-29T15:12:04.001Z</time></trkpt><trkpt lat="37.29562242313735" lon="13.997646224464706"><ele>197.0</ele><time>2026-03-29T15:12:05.001Z</time></trkpt><trkpt lat="37.29557575843416" lon="13.997542955010436"><ele>197.0</ele><time>2026-03-29T15:12:06.001Z</time></trkpt><trkpt lat="37.295537994054804" lon="13.997448722025583"><ele>197.0</ele><time>2026-03-29T15:12:07.001Z</time></trkpt><trkpt lat="37.29551608386082" lon="13.997359467154556"><ele>197.00000000000003</ele><time>2026-03-29T15:12:08.001Z</time></trkpt><trkpt lat="37.29551605977742" lon="13.997274641880065"><ele>197.0</ele><time>2026-03-29T15:12:09.001Z</time></trkpt><trkpt lat="37.29553087197716" lon="13.99716203640985"><ele>194.75</ele><time>2026-03-29T15:12:10.001Z</time></trkpt><trkpt lat="37.295554887884556" lon="13.997018288782517"><ele>192.5</ele><time>2026-03-29T15:12:11.001Z</time></trkpt><trkpt lat="37.29556067865095" lon="13.99684714414176"><ele>190.25</ele><time>2026-03-29T15:12:12.001Z</time></trkpt><trkpt lat="37.29561748656955" lon="13.996655260540276"><ele>188.0</ele><time>2026-03-29T15:12:13.001Z</time></trkpt><trkpt lat="37.29565063475383" lon="13.996434270096941"><ele>186.66666666666666</ele><time>2026-03-29T15:12:13.999Z</time></trkpt><trkpt lat="37.29568760516113" lon="13.996204780368116"><ele>185.33333333333334</ele><time>2026-03-29T15:12:14.999Z</time></trkpt><trkpt lat="37.29572919007013" lon="13.995964917523684"><ele>184.0</ele><time>2026-03-29T15:12:15.999Z</time></trkpt><trkpt lat="37.295774452659295" lon="13.995710995604957"><ele>181.33333333333334</ele><time>2026-03-29T15:12:16.999Z</time></trkpt><trkpt lat="37.29582099914635" lon="13.995445632113524"><ele>178.66666666666666</ele><time>2026-03-29T15:12:17.999Z</time></trkpt><trkpt lat="37.29586766661908" lon="13.995179226096296"><ele>176.0</ele><time>2026-03-29T15:12:18.999Z</time></trkpt><trkpt lat="37.295916549320566" lon="13.994904691317137"><ele>172.5</ele><time>2026-03-29T15:12:19.999Z</time></trkpt><trkpt lat="37.295967390133896" lon="13.99462249031452"><ele>169.0</ele><time>2026-03-29T15:12:20.999Z</time></trkpt><trkpt lat="37.29602017825331" lon="13.994333767391295"><ele>168.0</ele><time>2026-03-29T15:12:21.999Z</time></trkpt><trkpt lat="37.29606985053789" lon="13.994037438130922"><ele>167.0</ele><time>2026-03-29T15:12:22.999Z</time></trkpt><trkpt lat="37.29611911389355" lon="13.993734510851512"><ele>167.0</ele><time>2026-03-29T15:12:23.999Z</time></trkpt><trkpt lat="37.2961706357718" lon="13.993427445889923"><ele>167.0</ele><time>2026-03-29T15:12:24.999Z</time></trkpt><trkpt lat="37.29622060591092" lon="13.993124636529718"><ele>168.0</ele><time>2026-03-29T15:12:25.999Z</time></trkpt><trkpt lat="37.29627094439036" lon="13.992817619920409"><ele>169.0</ele><time>2026-03-29T15:12:26.999Z</time></trkpt><trkpt lat="37.2963195928471" lon="13.992507269055993"><ele>171.0</ele><time>2026-03-29T15:12:27.999Z</time></trkpt><trkpt lat="37.296366109870775" lon="13.992192611092229"><ele>173.0</ele><time>2026-03-29T15:12:28.999Z</time></trkpt><trkpt lat="37.29640991206583" lon="13.991875142306036"><ele>174.0</ele><time>2026-03-29T15:12:29.999Z</time></trkpt><trkpt lat="37.296449763803516" lon="13.991554212306667"><ele>175.0</ele><time>2026-03-29T15:12:30.999Z</time></trkpt><trkpt lat="37.296489390552956" lon="13.99122628936725"><ele>175.0</ele><time>2026-03-29T15:12:32Z</time></trkpt><trkpt lat="37.29652461192254" lon="13.990895909909847"><ele>175.0</ele><time>2026-03-29T15:12:33Z</time></trkpt><trkpt lat="37.2965565436907" lon="13.990560013576168"><ele>178.0</ele><time>2026-03-29T15:12:34Z</time></trkpt><trkpt lat="37.296584902010906" lon="13.990223854682018"><ele>181.0</ele><time>2026-03-29T15:12:35Z</time></trkpt><trkpt lat="37.296609395314334" lon="13.989884381561124"><ele>185.0</ele><time>2026-03-29T15:12:36Z</time></trkpt><trkpt lat="37.29662849780575" lon="13.989542438506437"><ele>189.0</ele><time>2026-03-29T15:12:37Z</time></trkpt><trkpt lat="37.29664116781814" lon="13.989197735561937"><ele>192.0</ele><time>2026-03-29T15:12:38Z</time></trkpt><trkpt lat="37.296648362574004" lon="13.988851600531154"><ele>195.0</ele><time>2026-03-29T15:12:39Z</time></trkpt><trkpt lat="37.2966521995904" lon="13.98850631346412"><ele>197.5</ele><time>2026-03-29T15:12:40Z</time></trkpt><trkpt lat="37.29665151326426" lon="13.988160912110823"><ele>200.0</ele><time>2026-03-29T15:12:41Z</time></trkpt><trkpt lat="37.29664073944234" lon="13.987811349107282"><ele>201.5</ele><time>2026-03-29T15:12:42Z</time></trkpt><trkpt lat="37.2966239807653" lon="13.98746377004423"><ele>203.0</ele><time>2026-03-29T15:12:43Z</time></trkpt><trkpt lat="37.29659858528574" lon="13.987113382071222"><ele>203.0</ele><time>2026-03-29T15:12:44Z</time></trkpt><trkpt lat="37.296568552460585" lon="13.986764527106965"><ele>203.0</ele><time>2026-03-29T15:12:45Z</time></trkpt><trkpt lat="37.29653158333225" lon="13.986416416440553"><ele>205.5</ele><time>2026-03-29T15:12:46Z</time></trkpt><trkpt lat="37.29648820242567" lon="13.986066962952368"><ele>208.0</ele><time>2026-03-29T15:12:47Z</time></trkpt><trkpt lat="37.29643526736068" lon="13.985719750197243"><ele>209.0</ele><time>2026-03-29T15:12:48Z</time></trkpt><trkpt lat="37.296373987639214" lon="13.985374309534247"><ele>210.0</ele><time>2026-03-29T15:12:49Z</time></trkpt><trkpt lat="37.29630269110506" lon="13.985032288529002"><ele>214.0</ele><time>2026-03-29T15:12:50Z</time></trkpt><trkpt lat="37.29621866950878" lon="13.984694156967572"><ele>218.0</ele><time>2026-03-29T15:12:51Z</time></trkpt><trkpt lat="37.29612450262839" lon="13.98435975200896"><ele>222.5</ele><time>2026-03-29T15:12:52Z</time></trkpt><trkpt lat="37.296022865824824" lon="13.984029009486436"><ele>227.0</ele><time>2026-03-29T15:12:53Z</time></trkpt><trkpt lat="37.29590927484272" lon="13.98370524157034"><ele>227.0</ele><time>2026-03-29T15:12:54Z</time></trkpt><trkpt lat="37.29578782200155" lon="13.983383757951763"><ele>227.0</ele><time>2026-03-29T15:12:55Z</time></trkpt><trkpt lat="37.29566235899697" lon="13.983066714277031"><ele>227.0</ele><time>2026-03-29T15:12:56Z</time></trkpt><trkpt lat="37.29553344460456" lon="13.982750215255923"><ele>227.0</ele><time>2026-03-29T15:12:57Z</time></trkpt><trkpt lat="37.29540191451389" lon="13.982437124154345"><ele>227.0</ele><time>2026-03-29T15:12:58Z</time></trkpt><trkpt lat="37.2952695950797" lon="13.982125135773478"><ele>227.0</ele><time>2026-03-29T15:12:59Z</time></trkpt><trkpt lat="37.29513718561299" lon="13.981816313280817"><ele>232.5</ele><time>2026-03-29T15:13:00Z</time></trkpt><trkpt lat="37.295001467336576" lon="13.981505485712985"><ele>238.0</ele><time>2026-03-29T15:13:01Z</time></trkpt><trkpt lat="37.29486808571965" lon="13.981198394864483"><ele>235.5</ele><time>2026-03-29T15:13:02Z</time></trkpt><trkpt lat="37.2947332780343" lon="13.980893090588419"><ele>233.0</ele><time>2026-03-29T15:13:03Z</time></trkpt><trkpt lat="37.29460261894045" lon="13.980584077028178"><ele>238.0</ele><time>2026-03-29T15:13:04Z</time></trkpt><trkpt lat="37.29446527614086" lon="13.980276740343694"><ele>243.0</ele><time>2026-03-29T15:13:05Z</time></trkpt><trkpt lat="37.29433017018405" lon="13.979966562671605"><ele>246.5</ele><time>2026-03-29T15:13:06Z</time></trkpt><trkpt lat="37.29419452330876" lon="13.979656379859136"><ele>250.0</ele><time>2026-03-29T15:13:07Z</time></trkpt><trkpt lat="37.29405307683477" lon="13.979346495221963"><ele>257.0</ele><time>2026-03-29T15:13:08Z</time></trkpt><trkpt lat="37.29390884461161" lon="13.979035250032554"><ele>264.0</ele><time>2026-03-29T15:13:09Z</time></trkpt><trkpt lat="37.29376189333757" lon="13.978724518273392"><ele>264.0</ele><time>2026-03-29T15:13:10Z</time></trkpt><trkpt lat="37.29361598291723" lon="13.978411307059758"><ele>264.0</ele><time>2026-03-29T15:13:11Z</time></trkpt><trkpt lat="37.29346864980804" lon="13.978094088589428"><ele>264.0</ele><time>2026-03-29T15:13:12Z</time></trkpt><trkpt lat="37.29331947415633" lon="13.977778078014968"><ele>264.0</ele><time>2026-03-29T15:13:13Z</time></trkpt><trkpt lat="37.293170310707055" lon="13.977463924659643"><ele>269.0</ele><time>2026-03-29T15:13:14.001Z</time></trkpt><trkpt lat="37.293015216954856" lon="13.977147962561158"><ele>274.0</ele><time>2026-03-29T15:13:15.001Z</time></trkpt><trkpt lat="37.292860569888475" lon="13.97683209146976"><ele>274.0</ele><time>2026-03-29T15:13:16.001Z</time></trkpt><trkpt lat="37.29270250976177" lon="13.976516721145938"><ele>274.0</ele><time>2026-03-29T15:13:17.001Z</time></trkpt><trkpt lat="37.29254523234284" lon="13.97620355751859"><ele>274.0</ele><time>2026-03-29T15:13:18.001Z</time></trkpt><trkpt lat="37.29238455992998" lon="13.975890241914513"><ele>274.0</ele><time>2026-03-29T15:13:19.001Z</time></trkpt><trkpt lat="37.29221551511861" lon="13.975582638153215"><ele>276.5</ele><time>2026-03-29T15:13:20.001Z</time></trkpt><trkpt lat="37.29204210288037" lon="13.975275942481657"><ele>279.0</ele><time>2026-03-29T15:13:21.001Z</time></trkpt><trkpt lat="37.29186823328436" lon="13.974971154974519"><ele>279.0</ele><time>2026-03-29T15:13:22.001Z</time></trkpt><trkpt lat="37.29169162985122" lon="13.974666513562507"><ele>279.0</ele><time>2026-03-29T15:13:23.001Z</time></trkpt><trkpt lat="37.29151306096046" lon="13.974366401149112"><ele>282.0</ele><time>2026-03-29T15:13:24.001Z</time></trkpt><trkpt lat="37.29133339910114" lon="13.974067032640706"><ele>285.0</ele><time>2026-03-29T15:13:25.001Z</time></trkpt><trkpt lat="37.29115397207199" lon="13.973769653286594"><ele>285.0</ele><time>2026-03-29T15:13:26.001Z</time></trkpt><trkpt lat="37.290968094715176" lon="13.97347490578104"><ele>285.0</ele><time>2026-03-29T15:13:27.001Z</time></trkpt><trkpt lat="37.29077846189923" lon="13.973185016380226"><ele>290.0</ele><time>2026-03-29T15:13:28.001Z</time></trkpt><trkpt lat="37.29058573981371" lon="13.972899240899023"><ele>295.0</ele><time>2026-03-29T15:13:29.001Z</time></trkpt><trkpt lat="37.29039082536197" lon="13.972615471374455"><ele>293.5</ele><time>2026-03-29T15:13:30.001Z</time></trkpt><trkpt lat="37.29019386981857" lon="13.972333382057846"><ele>292.0</ele><time>2026-03-29T15:13:31.001Z</time></trkpt><trkpt lat="37.289993616511225" lon="13.972056055935742"><ele>292.0</ele><time>2026-03-29T15:13:32.001Z</time></trkpt><trkpt lat="37.289793859697454" lon="13.971775502134475"><ele>292.0</ele><time>2026-03-29T15:13:33.001Z</time></trkpt><trkpt lat="37.2895941648391" lon="13.971496239172735"><ele>295.5</ele><time>2026-03-29T15:13:34.001Z</time></trkpt><trkpt lat="37.28939391436476" lon="13.971218547014221"><ele>299.0</ele><time>2026-03-29T15:13:35.001Z</time></trkpt><trkpt lat="37.28919354411996" lon="13.97094306765054"><ele>299.0</ele><time>2026-03-29T15:13:36.001Z</time></trkpt><trkpt lat="37.288990552056916" lon="13.970663254046082"><ele>299.0</ele><time>2026-03-29T15:13:37.001Z</time></trkpt><trkpt lat="37.28878555069635" lon="13.970382349469732"><ele>299.0</ele><time>2026-03-29T15:13:38.001Z</time></trkpt><trkpt lat="37.288580554258104" lon="13.970099299820651"><ele>299.0</ele><time>2026-03-29T15:13:39.001Z</time></trkpt><trkpt lat="37.288375783241335" lon="13.969814053452959"><ele>298.5</ele><time>2026-03-29T15:13:40.001Z</time></trkpt><trkpt lat="37.28816742282025" lon="13.9695292242424"><ele>298.0</ele><time>2026-03-29T15:13:41.001Z</time></trkpt><trkpt lat="37.287958015419434" lon="13.969249639706439"><ele>297.5</ele><time>2026-03-29T15:13:42.001Z</time></trkpt><trkpt lat="37.287744654748856" lon="13.968975246212802"><ele>297.0</ele><time>2026-03-29T15:13:43.001Z</time></trkpt><trkpt lat="37.28752725199199" lon="13.968704199719758"><ele>297.0</ele><time>2026-03-29T15:13:44.001Z</time></trkpt><trkpt lat="37.28730963993151" lon="13.968439868144124"><ele>297.0</ele><time>2026-03-29T15:13:45.001Z</time></trkpt><trkpt lat="37.28709244255008" lon="13.968189400035127"><ele>297.0</ele><time>2026-03-29T15:13:46.001Z</time></trkpt><trkpt lat="37.28687297332727" lon="13.967946369868672"><ele>297.0</ele><time>2026-03-29T15:13:47.001Z</time></trkpt><trkpt lat="37.28665285460431" lon="13.967712269968915"><ele>299.0</ele><time>2026-03-29T15:13:48.001Z</time></trkpt><trkpt lat="37.286430617956285" lon="13.967481888335264"><ele>301.0</ele><time>2026-03-29T15:13:49.001Z</time></trkpt><trkpt lat="37.286208299019236" lon="13.967264299473548"><ele>303.0</ele><time>2026-03-29T15:13:50.001Z</time></trkpt><trkpt lat="37.28598651038883" lon="13.9670539095615"><ele>305.0</ele><time>2026-03-29T15:13:51.001Z</time></trkpt><trkpt lat="37.285760303467086" lon="13.966855244180516"><ele>306.5</ele><time>2026-03-29T15:13:52.001Z</time></trkpt><trkpt lat="37.28553008192608" lon="13.966672066404083"><ele>308.0</ele><time>2026-03-29T15:13:53.001Z</time></trkpt><trkpt lat="37.28529634561437" lon="13.966495454890351"><ele>308.0</ele><time>2026-03-29T15:13:54.001Z</time></trkpt><trkpt lat="37.285058774784844" lon="13.966329753356392"><ele>308.0</ele><time>2026-03-29T15:13:55.001Z</time></trkpt><trkpt lat="37.284819600506985" lon="13.966174407552101"><ele>310.0</ele><time>2026-03-29T15:13:56.001Z</time></trkpt><trkpt lat="37.28457910221703" lon="13.966030039185446"><ele>312.0</ele><time>2026-03-29T15:13:57.001Z</time></trkpt><trkpt lat="37.28433644340081" lon="13.965900041918758"><ele>307.5</ele><time>2026-03-29T15:13:58.001Z</time></trkpt><trkpt lat="37.284091522226156" lon="13.965781293061495"><ele>303.0</ele><time>2026-03-29T15:13:59.001Z</time></trkpt><trkpt lat="37.28384509419282" lon="13.965668957872532"><ele>303.0</ele><time>2026-03-29T15:14:00.001Z</time></trkpt><trkpt lat="37.283596700192625" lon="13.965565662337449"><ele>303.0</ele><time>2026-03-29T15:14:01.001Z</time></trkpt><trkpt lat="37.283349560365096" lon="13.965466067128997"><ele>303.0</ele><time>2026-03-29T15:14:02.001Z</time></trkpt><trkpt lat="37.283104355076276" lon="13.965367599914321"><ele>303.0</ele><time>2026-03-29T15:14:03.001Z</time></trkpt><trkpt lat="37.28286153977024" lon="13.965272257247607"><ele>309.0</ele><time>2026-03-29T15:14:04.001Z</time></trkpt><trkpt lat="37.28261754850818" lon="13.965180866933803"><ele>315.0</ele><time>2026-03-29T15:14:05.001Z</time></trkpt><trkpt lat="37.282376208689655" lon="13.965091498163215"><ele>312.5</ele><time>2026-03-29T15:14:06.001Z</time></trkpt><trkpt lat="37.2821365459876" lon="13.96499759228847"><ele>310.0</ele><time>2026-03-29T15:14:07.001Z</time></trkpt><trkpt lat="37.28189513708987" lon="13.964901856016498"><ele>310.0</ele><time>2026-03-29T15:14:08.002Z</time></trkpt><trkpt lat="37.281654645115516" lon="13.96480879254905"><ele>310.0</ele><time>2026-03-29T15:14:09.002Z</time></trkpt><trkpt lat="37.28141075588043" lon="13.964715805707899"><ele>311.0</ele><time>2026-03-29T15:14:10.002Z</time></trkpt><trkpt lat="37.2811693132823" lon="13.964621266216476"><ele>312.0</ele><time>2026-03-29T15:14:11.002Z</time></trkpt><trkpt lat="37.28093070952871" lon="13.964521182611866"><ele>312.0</ele><time>2026-03-29T15:14:12.002Z</time></trkpt><trkpt lat="37.280691160295305" lon="13.964419941999257"><ele>312.0</ele><time>2026-03-29T15:14:13.002Z</time></trkpt><trkpt lat="37.28045192370576" lon="13.964316290511597"><ele>311.5</ele><time>2026-03-29T15:14:14.002Z</time></trkpt><trkpt lat="37.28021557880503" lon="13.964209366831499"><ele>311.0</ele><time>2026-03-29T15:14:15.002Z</time></trkpt><trkpt lat="37.279980980023815" lon="13.964099594479604"><ele>312.0</ele><time>2026-03-29T15:14:16.002Z</time></trkpt><trkpt lat="37.27974815379487" lon="13.963985297963573"><ele>313.0</ele><time>2026-03-29T15:14:17.002Z</time></trkpt><trkpt lat="37.27951426245652" lon="13.963865276984059"><ele>313.0</ele><time>2026-03-29T15:14:18.002Z</time></trkpt><trkpt lat="37.279282215934316" lon="13.96373785355862"><ele>313.0</ele><time>2026-03-29T15:14:19.002Z</time></trkpt><trkpt lat="37.27905375064812" lon="13.963602868828557"><ele>313.0</ele><time>2026-03-29T15:14:19.999Z</time></trkpt><trkpt lat="37.278829363936" lon="13.963461180007993"><ele>313.0</ele><time>2026-03-29T15:14:20.999Z</time></trkpt><trkpt lat="37.27860677240447" lon="13.963312912097507"><ele>313.0</ele><time>2026-03-29T15:14:21.999Z</time></trkpt><trkpt lat="37.27816789899983" lon="13.963006309011542"><ele>312.5</ele><time>2026-03-29T15:14:23.999Z</time></trkpt><trkpt lat="37.27795194301443" lon="13.962847601930292"><ele>312.0</ele><time>2026-03-29T15:14:24.999Z</time></trkpt><trkpt lat="37.277741204715745" lon="13.96268315659894"><ele>312.0</ele><time>2026-03-29T15:14:25.999Z</time></trkpt><trkpt lat="37.27753137948291" lon="13.96251033260132"><ele>312.0</ele><time>2026-03-29T15:14:26.999Z</time></trkpt><trkpt lat="37.27732446257769" lon="13.962335776880463"><ele>313.0</ele><time>2026-03-29T15:14:28Z</time></trkpt><trkpt lat="37.27711952521712" lon="13.96215675393438"><ele>314.0</ele><time>2026-03-29T15:14:29Z</time></trkpt><trkpt lat="37.27691754238084" lon="13.961976047868239"><ele>314.0</ele><time>2026-03-29T15:14:30Z</time></trkpt><trkpt lat="37.27671851788382" lon="13.961792537231071"><ele>314.0</ele><time>2026-03-29T15:14:31Z</time></trkpt><trkpt lat="37.27652317628822" lon="13.961609452215885"><ele>315.0</ele><time>2026-03-29T15:14:32Z</time></trkpt><trkpt lat="37.27633040728606" lon="13.96142384111418"><ele>316.0</ele><time>2026-03-29T15:14:33Z</time></trkpt><trkpt lat="37.276140686398065" lon="13.961241771364223"><ele>316.0</ele><time>2026-03-29T15:14:34Z</time></trkpt><trkpt lat="37.27595283601967" lon="13.961060727439286"><ele>316.0</ele><time>2026-03-29T15:14:35Z</time></trkpt><trkpt lat="37.27557981791713" lon="13.96071311986131"><ele>315.5</ele><time>2026-03-29T15:14:37Z</time></trkpt><trkpt lat="37.27539463735477" lon="13.960540966731761"><ele>315.0</ele><time>2026-03-29T15:14:38Z</time></trkpt><trkpt lat="37.275211522025316" lon="13.960370766195778"><ele>315.0</ele><time>2026-03-29T15:14:39Z</time></trkpt><trkpt lat="37.275029306668465" lon="13.960203329374467"><ele>315.0</ele><time>2026-03-29T15:14:40Z</time></trkpt><trkpt lat="37.27484816428797" lon="13.960036905163378"><ele>316.3333333333333</ele><time>2026-03-29T15:14:41Z</time></trkpt><trkpt lat="37.27467018638784" lon="13.959871299142824"><ele>317.66666666666663</ele><time>2026-03-29T15:14:42Z</time></trkpt><trkpt lat="37.27449697652705" lon="13.959708575190778"><ele>319.0</ele><time>2026-03-29T15:14:43Z</time></trkpt><trkpt lat="37.274322730723846" lon="13.959540391317782"><ele>319.0</ele><time>2026-03-29T15:14:44Z</time></trkpt><trkpt lat="37.27414606891061" lon="13.95936694314765"><ele>319.0</ele><time>2026-03-29T15:14:45Z</time></trkpt><trkpt lat="37.27397024391462" lon="13.95918693188535"><ele>321.0</ele><time>2026-03-29T15:14:46Z</time></trkpt><trkpt lat="37.27379458097205" lon="13.958997610408248"><ele>323.0</ele><time>2026-03-29T15:14:47Z</time></trkpt><trkpt lat="37.27361979622592" lon="13.958799609848558"><ele>323.0</ele><time>2026-03-29T15:14:48Z</time></trkpt><trkpt lat="37.27344616614222" lon="13.958592902724325"><ele>323.0</ele><time>2026-03-29T15:14:49Z</time></trkpt><trkpt lat="37.273274698895335" lon="13.958379290670067"><ele>321.0</ele><time>2026-03-29T15:14:50Z</time></trkpt><trkpt lat="37.27310712237347" lon="13.958160901056756"><ele>319.0</ele><time>2026-03-29T15:14:51Z</time></trkpt><trkpt lat="37.272942985763834" lon="13.957938670226365"><ele>321.0</ele><time>2026-03-29T15:14:52Z</time></trkpt><trkpt lat="37.272782913656485" lon="13.957715281671947"><ele>323.0</ele><time>2026-03-29T15:14:53Z</time></trkpt><trkpt lat="37.27262561054113" lon="13.957490691728177"><ele>323.0</ele><time>2026-03-29T15:14:54Z</time></trkpt><trkpt lat="37.27247516601402" lon="13.957269021920068"><ele>323.0</ele><time>2026-03-29T15:14:55Z</time></trkpt><trkpt lat="37.27233241529587" lon="13.957049693767704"><ele>323.0</ele><time>2026-03-29T15:14:56Z</time></trkpt><trkpt lat="37.272199473411185" lon="13.956830982850022"><ele>323.0</ele><time>2026-03-29T15:14:57Z</time></trkpt><trkpt lat="37.2720785946644" lon="13.95662563634777"><ele>323.0</ele><time>2026-03-29T15:14:58Z</time></trkpt><trkpt lat="37.27197295960306" lon="13.956436103473472"><ele>322.6666666666667</ele><time>2026-03-29T15:14:59Z</time></trkpt><trkpt lat="37.27187609576272" lon="13.956249712177653"><ele>322.3333333333333</ele><time>2026-03-29T15:15:00Z</time></trkpt><trkpt lat="37.27178119088141" lon="13.956070357511406"><ele>322.0</ele><time>2026-03-29T15:15:01Z</time></trkpt><trkpt lat="37.27168072429802" lon="13.955873119964968"><ele>321.3333333333333</ele><time>2026-03-29T15:15:02Z</time></trkpt><trkpt lat="37.27157658950875" lon="13.955664649027112"><ele>320.6666666666667</ele><time>2026-03-29T15:15:03Z</time></trkpt><trkpt lat="37.27146877949754" lon="13.955446616794763"><ele>320.0</ele><time>2026-03-29T15:15:04Z</time></trkpt><trkpt lat="37.27126161086069" lon="13.954989019813858"><ele>319.6666666666667</ele><time>2026-03-29T15:15:06Z</time></trkpt><trkpt lat="37.271162706291506" lon="13.954751933514318"><ele>319.3333333333333</ele><time>2026-03-29T15:15:07Z</time></trkpt><trkpt lat="37.27107031822917" lon="13.9545093479739"><ele>319.0</ele><time>2026-03-29T15:15:08.001Z</time></trkpt><trkpt lat="37.27098102419124" lon="13.954264882692309"><ele>318.0</ele><time>2026-03-29T15:15:09.001Z</time></trkpt><trkpt lat="37.270898890977335" lon="13.954018395133069"><ele>317.0</ele><time>2026-03-29T15:15:10.001Z</time></trkpt><trkpt lat="37.27075033593636" lon="13.953514929907996"><ele>316.33333333333337</ele><time>2026-03-29T15:15:12.001Z</time></trkpt><trkpt lat="37.27068543424677" lon="13.953262676178353"><ele>315.6666666666667</ele><time>2026-03-29T15:15:13.001Z</time></trkpt><trkpt lat="37.270624262940075" lon="13.953005524615559"><ele>315.0</ele><time>2026-03-29T15:15:14.001Z</time></trkpt><trkpt lat="37.27056769548046" lon="13.952750207466975"><ele>314.6666666666667</ele><time>2026-03-29T15:15:15.001Z</time></trkpt><trkpt lat="37.270517045300046" lon="13.952491730340684"><ele>314.33333333333337</ele><time>2026-03-29T15:15:16.001Z</time></trkpt><trkpt lat="37.2704745912661" lon="13.952227159735571"><ele>314.0</ele><time>2026-03-29T15:15:17.001Z</time></trkpt><trkpt lat="37.27043936203875" lon="13.951958603429336"><ele>314.6666666666667</ele><time>2026-03-29T15:15:18.001Z</time></trkpt><trkpt lat="37.27040705731568" lon="13.951689948480416"><ele>315.3333333333333</ele><time>2026-03-29T15:15:19.001Z</time></trkpt><trkpt lat="37.27037814066764" lon="13.951419263500197"><ele>316.0</ele><time>2026-03-29T15:15:20.001Z</time></trkpt><trkpt lat="37.27035485897429" lon="13.95114811289634"><ele>316.0</ele><time>2026-03-29T15:15:21.001Z</time></trkpt><trkpt lat="37.27033739475695" lon="13.950874814534892"><ele>316.0</ele><time>2026-03-29T15:15:22.001Z</time></trkpt><trkpt lat="37.27032786270152" lon="13.95060211998822"><ele>316.0</ele><time>2026-03-29T15:15:23.001Z</time></trkpt><trkpt lat="37.270323888846505" lon="13.950326045283388"><ele>315.66666666666663</ele><time>2026-03-29T15:15:24.001Z</time></trkpt><trkpt lat="37.27032393045265" lon="13.950047632575341"><ele>315.3333333333333</ele><time>2026-03-29T15:15:25.001Z</time></trkpt><trkpt lat="37.27032799421492" lon="13.949788957713547"><ele>315.0</ele><time>2026-03-29T15:15:26.001Z</time></trkpt><trkpt lat="37.270337942232175" lon="13.949550602226552"><ele>315.6666666666667</ele><time>2026-03-29T15:15:27.001Z</time></trkpt><trkpt lat="37.270353061594804" lon="13.949316379228671"><ele>316.33333333333337</ele><time>2026-03-29T15:15:28.001Z</time></trkpt><trkpt lat="37.270336281370206" lon="13.949071139695938"><ele>317.0</ele><time>2026-03-29T15:15:29.001Z</time></trkpt><trkpt lat="37.27039211905958" lon="13.948814927125131"><ele>317.0</ele><time>2026-03-29T15:15:30.001Z</time></trkpt><trkpt lat="37.27041864659634" lon="13.9485540805425"><ele>317.0</ele><time>2026-03-29T15:15:31.001Z</time></trkpt><trkpt lat="37.27044903649402" lon="13.9482814849808"><ele>317.0</ele><time>2026-03-29T15:15:32.001Z</time></trkpt><trkpt lat="37.27048202347478" lon="13.947998508156235"><ele>316.5</ele><time>2026-03-29T15:15:33.001Z</time></trkpt><trkpt lat="37.270517144715704" lon="13.947704863043999"><ele>316.0</ele><time>2026-03-29T15:15:34.001Z</time></trkpt><trkpt lat="37.27055450700962" lon="13.94740557164791"><ele>316.0</ele><time>2026-03-29T15:15:35.001Z</time></trkpt><trkpt lat="37.270591252271274" lon="13.947102992969512"><ele>316.0</ele><time>2026-03-29T15:15:36.001Z</time></trkpt><trkpt lat="37.27062763552345" lon="13.94679795171582"><ele>320.0</ele><time>2026-03-29T15:15:37.001Z</time></trkpt><trkpt lat="37.27066138839596" lon="13.946495094747032"><ele>324.0</ele><time>2026-03-29T15:15:38.001Z</time></trkpt><trkpt lat="37.27069081755342" lon="13.946189765992168"><ele>324.0</ele><time>2026-03-29T15:15:39.001Z</time></trkpt><trkpt lat="37.27071226414484" lon="13.945879398423033"><ele>324.0</ele><time>2026-03-29T15:15:40.001Z</time></trkpt><trkpt lat="37.270713355887274" lon="13.945563932448305"><ele>323.0</ele><time>2026-03-29T15:15:41.001Z</time></trkpt><trkpt lat="37.27069915470788" lon="13.945249977588261"><ele>322.0</ele><time>2026-03-29T15:15:42.001Z</time></trkpt><trkpt lat="37.27067255739712" lon="13.944939100284724"><ele>322.0</ele><time>2026-03-29T15:15:43.001Z</time></trkpt><trkpt lat="37.27064513539907" lon="13.94463143233053"><ele>322.0</ele><time>2026-03-29T15:15:44.001Z</time></trkpt><trkpt lat="37.27062849681336" lon="13.944324987255683"><ele>323.0</ele><time>2026-03-29T15:15:45.001Z</time></trkpt><trkpt lat="37.270633676756724" lon="13.944018958119305"><ele>324.0</ele><time>2026-03-29T15:15:46.001Z</time></trkpt><trkpt lat="37.27066679352013" lon="13.94371342848616"><ele>324.0</ele><time>2026-03-29T15:15:47.001Z</time></trkpt><trkpt lat="37.27071348319111" lon="13.94340572785085"><ele>324.0</ele><time>2026-03-29T15:15:48.001Z</time></trkpt><trkpt lat="37.2707776686949" lon="13.943104846558878"><ele>324.0</ele><time>2026-03-29T15:15:49.001Z</time></trkpt><trkpt lat="37.27086136935278" lon="13.94281809747197"><ele>324.0</ele><time>2026-03-29T15:15:50.001Z</time></trkpt><trkpt lat="37.2709646932027" lon="13.942541575826027"><ele>324.5</ele><time>2026-03-29T15:15:51.001Z</time></trkpt><trkpt lat="37.27108534857014" lon="13.942267790388486"><ele>325.0</ele><time>2026-03-29T15:15:52.001Z</time></trkpt><trkpt lat="37.27120801803469" lon="13.941997815600942"><ele>325.0</ele><time>2026-03-29T15:15:53.001Z</time></trkpt><trkpt lat="37.27133199784983" lon="13.941733298955018"><ele>325.0</ele><time>2026-03-29T15:15:54.001Z</time></trkpt><trkpt lat="37.27145856056196" lon="13.94148026312747"><ele>327.0</ele><time>2026-03-29T15:15:55.001Z</time></trkpt><trkpt lat="37.27159860012482" lon="13.941236155161178"><ele>329.0</ele><time>2026-03-29T15:15:56.001Z</time></trkpt><trkpt lat="37.271754622490704" lon="13.941002443463322"><ele>326.5</ele><time>2026-03-29T15:15:57.002Z</time></trkpt><trkpt lat="37.27186802155351" lon="13.940739784759595"><ele>324.0</ele><time>2026-03-29T15:15:58.002Z</time></trkpt><trkpt lat="37.272115694156085" lon="13.940577666380246"><ele>325.0</ele><time>2026-03-29T15:15:59.002Z</time></trkpt><trkpt lat="37.272317905828174" lon="13.940392738123485"><ele>326.0</ele><time>2026-03-29T15:16:00.002Z</time></trkpt><trkpt lat="37.272527342895586" lon="13.940219668881115"><ele>323.0</ele><time>2026-03-29T15:16:01.002Z</time></trkpt><trkpt lat="37.2727358894732" lon="13.940042505247195"><ele>320.0</ele><time>2026-03-29T15:16:02.002Z</time></trkpt><trkpt lat="37.27294225794233" lon="13.939861031090452"><ele>321.0</ele><time>2026-03-29T15:16:03.002Z</time></trkpt><trkpt lat="37.27314730980814" lon="13.939675602764368"><ele>322.0</ele><time>2026-03-29T15:16:04.002Z</time></trkpt><trkpt lat="37.27335276082434" lon="13.939491143890612"><ele>322.0</ele><time>2026-03-29T15:16:05.002Z</time></trkpt><trkpt lat="37.273558489445925" lon="13.939306498936551"><ele>322.0</ele><time>2026-03-29T15:16:06.002Z</time></trkpt><trkpt lat="37.273764425746236" lon="13.939125540358189"><ele>321.0</ele><time>2026-03-29T15:16:07.002Z</time></trkpt><trkpt lat="37.273973872676876" lon="13.938949157071084"><ele>320.0</ele><time>2026-03-29T15:16:08.002Z</time></trkpt><trkpt lat="37.27418513433959" lon="13.938784847538724"><ele>320.0</ele><time>2026-03-29T15:16:09.002Z</time></trkpt><trkpt lat="37.274406613691205" lon="13.938641994324968"><ele>320.0</ele><time>2026-03-29T15:16:10.002Z</time></trkpt><trkpt lat="37.274638283515635" lon="13.938511750487509"><ele>320.5</ele><time>2026-03-29T15:16:11.002Z</time></trkpt><trkpt lat="37.27487456810217" lon="13.93838929379158"><ele>321.0</ele><time>2026-03-29T15:16:12.002Z</time></trkpt><trkpt lat="37.27511306756711" lon="13.938269897011429"><ele>321.0</ele><time>2026-03-29T15:16:13.002Z</time></trkpt><trkpt lat="37.275351659280794" lon="13.938150603510435"><ele>321.0</ele><time>2026-03-29T15:16:14.002Z</time></trkpt><trkpt lat="37.27558884736236" lon="13.93802679486187"><ele>322.5</ele><time>2026-03-29T15:16:15.002Z</time></trkpt><trkpt lat="37.275820318544" lon="13.937902808432376"><ele>324.0</ele><time>2026-03-29T15:16:16.002Z</time></trkpt><trkpt lat="37.27604642391363" lon="13.93777155053967"><ele>324.0</ele><time>2026-03-29T15:16:17.002Z</time></trkpt><trkpt lat="37.27625670067585" lon="13.93761859501441"><ele>324.0</ele><time>2026-03-29T15:16:18.002Z</time></trkpt><trkpt lat="37.27644892978618" lon="13.93744163192204"><ele>325.5</ele><time>2026-03-29T15:16:19.002Z</time></trkpt><trkpt lat="37.276628072658056" lon="13.937241060179712"><ele>327.0</ele><time>2026-03-29T15:16:20.002Z</time></trkpt><trkpt lat="37.276797880838096" lon="13.937021062697525"><ele>327.0</ele><time>2026-03-29T15:16:21.002Z</time></trkpt><trkpt lat="37.27695530906543" lon="13.9367797317889"><ele>327.0</ele><time>2026-03-29T15:16:22.002Z</time></trkpt><trkpt lat="37.27709872481348" lon="13.936522288010611"><ele>327.5</ele><time>2026-03-29T15:16:23.002Z</time></trkpt><trkpt lat="37.277231652041074" lon="13.936252422574649"><ele>328.0</ele><time>2026-03-29T15:16:24.002Z</time></trkpt><trkpt lat="37.27736094700941" lon="13.935982517661794"><ele>330.0</ele><time>2026-03-29T15:16:25.002Z</time></trkpt><trkpt lat="37.277491469827886" lon="13.9357191362696"><ele>332.0</ele><time>2026-03-29T15:16:26Z</time></trkpt><trkpt lat="37.27762588083513" lon="13.935462811320237"><ele>332.0</ele><time>2026-03-29T15:16:27Z</time></trkpt><trkpt lat="37.27776298391246" lon="13.93521398001717"><ele>332.0</ele><time>2026-03-29T15:16:28Z</time></trkpt><trkpt lat="37.27791290544223" lon="13.934976029998092"><ele>332.5</ele><time>2026-03-29T15:16:29Z</time></trkpt><trkpt lat="37.278083430420416" lon="13.934764263180499"><ele>333.0</ele><time>2026-03-29T15:16:30Z</time></trkpt><trkpt lat="37.278275867974486" lon="13.934577672306222"><ele>333.0</ele><time>2026-03-29T15:16:31Z</time></trkpt><trkpt lat="37.2784844961975" lon="13.934419153817297"><ele>333.0</ele><time>2026-03-29T15:16:32Z</time></trkpt><trkpt lat="37.2787107817747" lon="13.934295830479051"><ele>333.0</ele><time>2026-03-29T15:16:33Z</time></trkpt><trkpt lat="37.278950261851556" lon="13.934200009432756"><ele>333.0</ele><time>2026-03-29T15:16:34Z</time></trkpt><trkpt lat="37.27919734557266" lon="13.934129956619609"><ele>333.0</ele><time>2026-03-29T15:16:35Z</time></trkpt><trkpt lat="37.27944930737514" lon="13.93406975040244"><ele>333.0</ele><time>2026-03-29T15:16:36Z</time></trkpt><trkpt lat="37.27970329587194" lon="13.934006388328788"><ele>334.5</ele><time>2026-03-29T15:16:37Z</time></trkpt><trkpt lat="37.279957230648655" lon="13.933938972397241"><ele>336.0</ele><time>2026-03-29T15:16:38Z</time></trkpt><trkpt lat="37.280205928983015" lon="13.93386256278892"><ele>336.0</ele><time>2026-03-29T15:16:39Z</time></trkpt><trkpt lat="37.28044611797703" lon="13.933762324098295"><ele>336.0</ele><time>2026-03-29T15:16:40Z</time></trkpt><trkpt lat="37.28066277245571" lon="13.933631078416807"><ele>336.5</ele><time>2026-03-29T15:16:41Z</time></trkpt><trkpt lat="37.28086236710166" lon="13.93346592489586"><ele>337.0</ele><time>2026-03-29T15:16:42Z</time></trkpt><trkpt lat="37.28105708870388" lon="13.933267371921337"><ele>337.0</ele><time>2026-03-29T15:16:43Z</time></trkpt><trkpt lat="37.2812554329131" lon="13.93305513254387"><ele>337.0</ele><time>2026-03-29T15:16:44Z</time></trkpt><trkpt lat="37.28145591196962" lon="13.932844200522295"><ele>338.0</ele><time>2026-03-29T15:16:45Z</time></trkpt><trkpt lat="37.281658571735655" lon="13.932635662995445"><ele>339.0</ele><time>2026-03-29T15:16:46Z</time></trkpt><trkpt lat="37.28186467097459" lon="13.932426415916229"><ele>339.0</ele><time>2026-03-29T15:16:47Z</time></trkpt><trkpt lat="37.282067590705985" lon="13.932216419307348"><ele>339.0</ele><time>2026-03-29T15:16:48Z</time></trkpt><trkpt lat="37.28226976764348" lon="13.932005617289516"><ele>338.0</ele><time>2026-03-29T15:16:49Z</time></trkpt><trkpt lat="37.28247212084694" lon="13.931794213840043"><ele>337.0</ele><time>2026-03-29T15:16:50.001Z</time></trkpt><trkpt lat="37.28267697225354" lon="13.931584039355794"><ele>339.0</ele><time>2026-03-29T15:16:51.001Z</time></trkpt><trkpt lat="37.28288246079991" lon="13.9313769399961"><ele>341.0</ele><time>2026-03-29T15:16:52.001Z</time></trkpt><trkpt lat="37.283086115573596" lon="13.931167764056942"><ele>341.5</ele><time>2026-03-29T15:16:53.001Z</time></trkpt><trkpt lat="37.283287768960506" lon="13.930960202300081"><ele>342.0</ele><time>2026-03-29T15:16:54.001Z</time></trkpt><trkpt lat="37.28348577774544" lon="13.93075542475284"><ele>343.0</ele><time>2026-03-29T15:16:55.001Z</time></trkpt><trkpt lat="37.28367521406695" lon="13.930548939027256"><ele>344.0</ele><time>2026-03-29T15:16:56.001Z</time></trkpt><trkpt lat="37.28384646860367" lon="13.930325857013074"><ele>344.5</ele><time>2026-03-29T15:16:57.001Z</time></trkpt><trkpt lat="37.28400010835596" lon="13.930087807786007"><ele>345.0</ele><time>2026-03-29T15:16:58.001Z</time></trkpt><trkpt lat="37.28414034859495" lon="13.92982855842981"><ele>347.0</ele><time>2026-03-29T15:16:59.001Z</time></trkpt><trkpt lat="37.28426426398911" lon="13.929555020386399"><ele>349.0</ele><time>2026-03-29T15:17:00.001Z</time></trkpt><trkpt lat="37.284368984527525" lon="13.929273090974434"><ele>349.5</ele><time>2026-03-29T15:17:01.001Z</time></trkpt><trkpt lat="37.284456929711446" lon="13.928985693066823"><ele>350.0</ele><time>2026-03-29T15:17:02.001Z</time></trkpt><trkpt lat="37.284533551634" lon="13.928693929874635"><ele>350.0</ele><time>2026-03-29T15:17:03.001Z</time></trkpt><trkpt lat="37.284609995376805" lon="13.928398017321692"><ele>350.0</ele><time>2026-03-29T15:17:04.001Z</time></trkpt><trkpt lat="37.284688054417835" lon="13.928106812242584"><ele>350.0</ele><time>2026-03-29T15:17:05.001Z</time></trkpt><trkpt lat="37.284764926025716" lon="13.927825233363555"><ele>350.0</ele><time>2026-03-29T15:17:06.001Z</time></trkpt><trkpt lat="37.28483960584058" lon="13.927545185701975"><ele>349.5</ele><time>2026-03-29T15:17:07.001Z</time></trkpt><trkpt lat="37.28491203087837" lon="13.927265733806761"><ele>349.0</ele><time>2026-03-29T15:17:08.001Z</time></trkpt><trkpt lat="37.28498688122866" lon="13.92699115748837"><ele>348.66666666666663</ele><time>2026-03-29T15:17:09.001Z</time></trkpt><trkpt lat="37.28505622433154" lon="13.926725622387425"><ele>348.3333333333333</ele><time>2026-03-29T15:17:10.001Z</time></trkpt><trkpt lat="37.28511791874168" lon="13.926483874801262"><ele>348.0</ele><time>2026-03-29T15:17:11.001Z</time></trkpt><trkpt lat="37.28517827389356" lon="13.926251630546787"><ele>348.0</ele><time>2026-03-29T15:17:12.001Z</time></trkpt><trkpt lat="37.28523762646128" lon="13.926030785706399"><ele>348.0</ele><time>2026-03-29T15:17:13.001Z</time></trkpt><trkpt lat="37.28529463159933" lon="13.925823773391317"><ele>348.0</ele><time>2026-03-29T15:17:14.001Z</time></trkpt><trkpt lat="37.28535600463135" lon="13.925634717320339"><ele>348.0</ele><time>2026-03-29T15:17:15.001Z</time></trkpt><trkpt lat="37.28542097285317" lon="13.925485082342428"><ele>348.0</ele><time>2026-03-29T15:17:16.001Z</time></trkpt><trkpt lat="37.28548903724448" lon="13.925365491032998"><ele>348.0</ele><time>2026-03-29T15:17:17.001Z</time></trkpt><trkpt lat="37.28556101747924" lon="13.925269306413048"><ele>348.0</ele><time>2026-03-29T15:17:18.001Z</time></trkpt><trkpt lat="37.28563718531841" lon="13.92518528578486"><ele>348.0</ele><time>2026-03-29T15:17:19.001Z</time></trkpt><trkpt lat="37.28572265427281" lon="13.925096935328925"><ele>348.0</ele><time>2026-03-29T15:17:20.001Z</time></trkpt><trkpt lat="37.28580661661222" lon="13.924997909401307"><ele>348.0</ele><time>2026-03-29T15:17:21.001Z</time></trkpt><trkpt lat="37.28593274445015" lon="13.92493960966362"><ele>348.0</ele><time>2026-03-29T15:17:22.001Z</time></trkpt><trkpt lat="37.286053279239255" lon="13.924872156368174"><ele>348.25</ele><time>2026-03-29T15:17:23.001Z</time></trkpt><trkpt lat="37.28617563887471" lon="13.92480540360086"><ele>348.5</ele><time>2026-03-29T15:17:24.001Z</time></trkpt><trkpt lat="37.28629429591786" lon="13.924735513423531"><ele>348.75</ele><time>2026-03-29T15:17:25.001Z</time></trkpt><trkpt lat="37.286412018482906" lon="13.924660459101002"><ele>349.0</ele><time>2026-03-29T15:17:26.001Z</time></trkpt><trkpt lat="37.286536925035676" lon="13.924581634327627"><ele>349.3333333333333</ele><time>2026-03-29T15:17:27.001Z</time></trkpt><trkpt lat="37.28668612345628" lon="13.924488259678027"><ele>349.6666666666667</ele><time>2026-03-29T15:17:28.001Z</time></trkpt><trkpt lat="37.28685092554314" lon="13.924378533866454"><ele>350.0</ele><time>2026-03-29T15:17:29.001Z</time></trkpt><trkpt lat="37.28703413836038" lon="13.92426118370242"><ele>350.6666666666667</ele><time>2026-03-29T15:17:30.001Z</time></trkpt><trkpt lat="37.28723423450546" lon="13.924150689458658"><ele>351.3333333333333</ele><time>2026-03-29T15:17:31.001Z</time></trkpt><trkpt lat="37.28743559285935" lon="13.924039792388951"><ele>352.0</ele><time>2026-03-29T15:17:32.001Z</time></trkpt><trkpt lat="37.28764007479998" lon="13.923920205312902"><ele>353.5</ele><time>2026-03-29T15:17:33.001Z</time></trkpt><trkpt lat="37.287853704327006" lon="13.923787519354779"><ele>355.0</ele><time>2026-03-29T15:17:34.001Z</time></trkpt><trkpt lat="37.288066544655614" lon="13.923641482849106"><ele>355.0</ele><time>2026-03-29T15:17:35.001Z</time></trkpt><trkpt lat="37.28828123073722" lon="13.92348386782056"><ele>355.0</ele><time>2026-03-29T15:17:36.001Z</time></trkpt><trkpt lat="37.288501439905545" lon="13.923318928239647"><ele>355.0</ele><time>2026-03-29T15:17:37.001Z</time></trkpt><trkpt lat="37.28872754779296" lon="13.92314295617143"><ele>355.0</ele><time>2026-03-29T15:17:38.001Z</time></trkpt><trkpt lat="37.28895504839276" lon="13.92296150157711"><ele>356.0</ele><time>2026-03-29T15:17:39.001Z</time></trkpt><trkpt lat="37.28918443606606" lon="13.922773311922544"><ele>357.0</ele><time>2026-03-29T15:17:40.001Z</time></trkpt><trkpt lat="37.28941127847416" lon="13.922578817693141"><ele>358.5</ele><time>2026-03-29T15:17:41.001Z</time></trkpt><trkpt lat="37.289632617320876" lon="13.922375051463286"><ele>360.0</ele><time>2026-03-29T15:17:42.002Z</time></trkpt><trkpt lat="37.28984899014466" lon="13.922159688923246"><ele>360.0</ele><time>2026-03-29T15:17:43.002Z</time></trkpt><trkpt lat="37.29006035090427" lon="13.921943581624646"><ele>360.0</ele><time>2026-03-29T15:17:44.002Z</time></trkpt><trkpt lat="37.290265317937475" lon="13.921726609090141"><ele>360.0</ele><time>2026-03-29T15:17:45.002Z</time></trkpt><trkpt lat="37.29046529398011" lon="13.92150909877928"><ele>360.0</ele><time>2026-03-29T15:17:46.002Z</time></trkpt><trkpt lat="37.290663039643064" lon="13.921295894612653"><ele>360.0</ele><time>2026-03-29T15:17:47.002Z</time></trkpt><trkpt lat="37.290857065041116" lon="13.921091235072522"><ele>360.0</ele><time>2026-03-29T15:17:48.002Z</time></trkpt><trkpt lat="37.291039457255906" lon="13.92089999936271"><ele>359.5</ele><time>2026-03-29T15:17:49.002Z</time></trkpt><trkpt lat="37.291219788269736" lon="13.920715718406942"><ele>359.0</ele><time>2026-03-29T15:17:50.002Z</time></trkpt><trkpt lat="37.29140128583389" lon="13.920534571528723"><ele>361.0</ele><time>2026-03-29T15:17:51.002Z</time></trkpt><trkpt lat="37.29158209411249" lon="13.920362628938786"><ele>363.0</ele><time>2026-03-29T15:17:52.002Z</time></trkpt><trkpt lat="37.29176757936109" lon="13.920206455658507"><ele>360.5</ele><time>2026-03-29T15:17:53.002Z</time></trkpt><trkpt lat="37.29196144520476" lon="13.920065901499655"><ele>358.0</ele><time>2026-03-29T15:17:54.002Z</time></trkpt><trkpt lat="37.29216882026001" lon="13.919928249696714"><ele>358.0</ele><time>2026-03-29T15:17:55.002Z</time></trkpt><trkpt lat="37.29239432571672" lon="13.919794789602856"><ele>358.0</ele><time>2026-03-29T15:17:56.002Z</time></trkpt><trkpt lat="37.29263510629983" lon="13.919670652954478"><ele>358.0</ele><time>2026-03-29T15:17:57.002Z</time></trkpt><trkpt lat="37.29288901920112" lon="13.919563349198464"><ele>358.0</ele><time>2026-03-29T15:17:58.002Z</time></trkpt><trkpt lat="37.29315281136517" lon="13.919476053532858"><ele>359.5</ele><time>2026-03-29T15:17:59.002Z</time></trkpt><trkpt lat="37.29342342085257" lon="13.91939769947239"><ele>361.0</ele><time>2026-03-29T15:18:00.002Z</time></trkpt><trkpt lat="37.29369332525932" lon="13.91932169308756"><ele>361.5</ele><time>2026-03-29T15:18:01.002Z</time></trkpt><trkpt lat="37.29396808542288" lon="13.919241195656348"><ele>362.0</ele><time>2026-03-29T15:18:02.002Z</time></trkpt><trkpt lat="37.29424297084285" lon="13.919157271541552"><ele>358.0</ele><time>2026-03-29T15:18:03.002Z</time></trkpt><trkpt lat="37.29452088407608" lon="13.919069993963706"><ele>354.0</ele><time>2026-03-29T15:18:04.002Z</time></trkpt><trkpt lat="37.294800817632314" lon="13.918980636875938"><ele>354.0</ele><time>2026-03-29T15:18:05.002Z</time></trkpt><trkpt lat="37.29508279286844" lon="13.918892158993566"><ele>354.0</ele><time>2026-03-29T15:18:06.002Z</time></trkpt><trkpt lat="37.29536535013566" lon="13.918801992397638"><ele>355.5</ele><time>2026-03-29T15:18:07.002Z</time></trkpt><trkpt lat="37.2956475020168" lon="13.918711333433743"><ele>357.0</ele><time>2026-03-29T15:18:08.002Z</time></trkpt><trkpt lat="37.29593054389984" lon="13.918624429180621"><ele>357.0</ele><time>2026-03-29T15:18:09.002Z</time></trkpt><trkpt lat="37.29621382294367" lon="13.918534831368172"><ele>357.0</ele><time>2026-03-29T15:18:10.002Z</time></trkpt><trkpt lat="37.296495500312574" lon="13.918442839748781"><ele>353.0</ele><time>2026-03-29T15:18:11.002Z</time></trkpt><trkpt lat="37.29677631543234" lon="13.918352308042882"><ele>349.0</ele><time>2026-03-29T15:18:12.002Z</time></trkpt><trkpt lat="37.29705798888142" lon="13.918262953534613"><ele>350.0</ele><time>2026-03-29T15:18:13.002Z</time></trkpt><trkpt lat="37.29734056722947" lon="13.918173366597852"><ele>351.0</ele><time>2026-03-29T15:18:14.002Z</time></trkpt><trkpt lat="37.29762148653974" lon="13.918085749892992"><ele>351.0</ele><time>2026-03-29T15:18:15.002Z</time></trkpt><trkpt lat="37.29790280419241" lon="13.917999466823646"><ele>351.0</ele><time>2026-03-29T15:18:16.002Z</time></trkpt><trkpt lat="37.29818283145932" lon="13.917913015086102"><ele>351.0</ele><time>2026-03-29T15:18:17.002Z</time></trkpt><trkpt lat="37.298465089047866" lon="13.917823978226886"><ele>351.0</ele><time>2026-03-29T15:18:18.002Z</time></trkpt><trkpt lat="37.29874804586419" lon="13.917732831223068"><ele>351.5</ele><time>2026-03-29T15:18:19.002Z</time></trkpt><trkpt lat="37.299029980987356" lon="13.91764586564662"><ele>352.0</ele><time>2026-03-29T15:18:20.002Z</time></trkpt><trkpt lat="37.29931124364158" lon="13.917557667575958"><ele>350.0</ele><time>2026-03-29T15:18:21.002Z</time></trkpt><trkpt lat="37.29959306096284" lon="13.91746545454398"><ele>348.0</ele><time>2026-03-29T15:18:22.002Z</time></trkpt><trkpt lat="37.299874268466304" lon="13.917375045154778"><ele>348.0</ele><time>2026-03-29T15:18:23.002Z</time></trkpt><trkpt lat="37.30015508302086" lon="13.917287297967256"><ele>348.0</ele><time>2026-03-29T15:18:24.002Z</time></trkpt><trkpt lat="37.30043675025058" lon="13.917199022144885"><ele>348.5</ele><time>2026-03-29T15:18:25.002Z</time></trkpt><trkpt lat="37.3007171048447" lon="13.91710932878907"><ele>349.0</ele><time>2026-03-29T15:18:26.002Z</time></trkpt><trkpt lat="37.30099496170175" lon="13.917019586474332"><ele>349.0</ele><time>2026-03-29T15:18:27.002Z</time></trkpt><trkpt lat="37.3012755689634" lon="13.916929393359247"><ele>349.0</ele><time>2026-03-29T15:18:28.002Z</time></trkpt><trkpt lat="37.30155657048048" lon="13.91684011896832"><ele>350.5</ele><time>2026-03-29T15:18:29.002Z</time></trkpt><trkpt lat="37.30183448250613" lon="13.916750770126828"><ele>352.0</ele><time>2026-03-29T15:18:30.002Z</time></trkpt><trkpt lat="37.30211159724555" lon="13.91666403359765"><ele>352.5</ele><time>2026-03-29T15:18:31.002Z</time></trkpt><trkpt lat="37.30239301424446" lon="13.916571855088891"><ele>353.0</ele><time>2026-03-29T15:18:32Z</time></trkpt><trkpt lat="37.30267374118045" lon="13.916483935748722"><ele>353.0</ele><time>2026-03-29T15:18:33Z</time></trkpt><trkpt lat="37.30295632316641" lon="13.916395835289405"><ele>353.0</ele><time>2026-03-29T15:18:34Z</time></trkpt><trkpt lat="37.30323858626593" lon="13.916302175410118"><ele>354.5</ele><time>2026-03-29T15:18:35Z</time></trkpt><trkpt lat="37.30351874656432" lon="13.916206590110473"><ele>356.0</ele><time>2026-03-29T15:18:36Z</time></trkpt><trkpt lat="37.30379675372366" lon="13.916094624868002"><ele>356.5</ele><time>2026-03-29T15:18:37Z</time></trkpt><trkpt lat="37.304074024044276" lon="13.915963507391412"><ele>357.0</ele><time>2026-03-29T15:18:38Z</time></trkpt><trkpt lat="37.30434943591885" lon="13.915809794677843"><ele>358.0</ele><time>2026-03-29T15:18:39Z</time></trkpt><trkpt lat="37.30462233725299" lon="13.915638275171448"><ele>359.0</ele><time>2026-03-29T15:18:40Z</time></trkpt><trkpt lat="37.30488844298906" lon="13.915440400625783"><ele>359.0</ele><time>2026-03-29T15:18:41Z</time></trkpt><trkpt lat="37.30514774131718" lon="13.915228432356153"><ele>359.0</ele><time>2026-03-29T15:18:42Z</time></trkpt><trkpt lat="37.30539585770902" lon="13.915003018677483"><ele>359.5</ele><time>2026-03-29T15:18:43Z</time></trkpt><trkpt lat="37.30563353310599" lon="13.914761464386071"><ele>360.0</ele><time>2026-03-29T15:18:44Z</time></trkpt><trkpt lat="37.305861284292455" lon="13.914507200363744"><ele>360.0</ele><time>2026-03-29T15:18:45Z</time></trkpt><trkpt lat="37.306075760178054" lon="13.914243500501735"><ele>360.0</ele><time>2026-03-29T15:18:46Z</time></trkpt><trkpt lat="37.306269699254" lon="13.913965135045064"><ele>361.5</ele><time>2026-03-29T15:18:47Z</time></trkpt><trkpt lat="37.30645307964363" lon="13.9136727071911"><ele>363.0</ele><time>2026-03-29T15:18:48Z</time></trkpt><trkpt lat="37.30662751298715" lon="13.91336800718793"><ele>365.0</ele><time>2026-03-29T15:18:49Z</time></trkpt><trkpt lat="37.30679159458992" lon="13.913049745604411"><ele>367.0</ele><time>2026-03-29T15:18:50Z</time></trkpt><trkpt lat="37.30694358199376" lon="13.912719119070895"><ele>369.5</ele><time>2026-03-29T15:18:51Z</time></trkpt><trkpt lat="37.30708183713377" lon="13.91237657375702"><ele>372.0</ele><time>2026-03-29T15:18:52.001Z</time></trkpt><trkpt lat="37.30720446862375" lon="13.912023204843269"><ele>372.0</ele><time>2026-03-29T15:18:53.001Z</time></trkpt><trkpt lat="37.30731216210915" lon="13.911657445799465"><ele>372.0</ele><time>2026-03-29T15:18:54.001Z</time></trkpt><trkpt lat="37.30740365341411" lon="13.911285655103933"><ele>372.0</ele><time>2026-03-29T15:18:55.001Z</time></trkpt><trkpt lat="37.30748299652927" lon="13.91090938326089"><ele>372.0</ele><time>2026-03-29T15:18:56.001Z</time></trkpt><trkpt lat="37.30755714616548" lon="13.910534929669316"><ele>374.0</ele><time>2026-03-29T15:18:57.001Z</time></trkpt><trkpt lat="37.30762679699202" lon="13.910166690032018"><ele>376.0</ele><time>2026-03-29T15:18:58.001Z</time></trkpt><trkpt lat="37.307697819651914" lon="13.909805152507772"><ele>377.0</ele><time>2026-03-29T15:18:59.001Z</time></trkpt><trkpt lat="37.307773508391" lon="13.909447007444891"><ele>378.0</ele><time>2026-03-29T15:19:00.001Z</time></trkpt><trkpt lat="37.307847909500964" lon="13.909088797155526"><ele>379.0</ele><time>2026-03-29T15:19:01.001Z</time></trkpt><trkpt lat="37.307920838038385" lon="13.908725959321632"><ele>380.0</ele><time>2026-03-29T15:19:02.001Z</time></trkpt><trkpt lat="37.307993235080595" lon="13.908358141239612"><ele>380.5</ele><time>2026-03-29T15:19:03.001Z</time></trkpt><trkpt lat="37.3080674585325" lon="13.90798789541849"><ele>381.0</ele><time>2026-03-29T15:19:04.001Z</time></trkpt><trkpt lat="37.3081472112454" lon="13.907613897660474"><ele>381.0</ele><time>2026-03-29T15:19:05.001Z</time></trkpt><trkpt lat="37.3082304163026" lon="13.907235841753286"><ele>381.0</ele><time>2026-03-29T15:19:06.001Z</time></trkpt><trkpt lat="37.308311244371744" lon="13.906865109449916"><ele>383.0</ele><time>2026-03-29T15:19:07.001Z</time></trkpt><trkpt lat="37.30838722642932" lon="13.906507652478837"><ele>385.0</ele><time>2026-03-29T15:19:08.001Z</time></trkpt><trkpt lat="37.30846435260122" lon="13.90615816491414"><ele>385.5</ele><time>2026-03-29T15:19:09.001Z</time></trkpt><trkpt lat="37.30855937522027" lon="13.905824907094745"><ele>386.0</ele><time>2026-03-29T15:19:10.001Z</time></trkpt><trkpt lat="37.30868161811093" lon="13.905503252335064"><ele>386.0</ele><time>2026-03-29T15:19:11.001Z</time></trkpt><trkpt lat="37.30882800896844" lon="13.905188186455948"><ele>386.0</ele><time>2026-03-29T15:19:12.001Z</time></trkpt><trkpt lat="37.30899296696134" lon="13.904887232322503"><ele>388.0</ele><time>2026-03-29T15:19:13.001Z</time></trkpt><trkpt lat="37.309172362218774" lon="13.904603763962019"><ele>390.0</ele><time>2026-03-29T15:19:14.001Z</time></trkpt><trkpt lat="37.3093728174423" lon="13.904343783673612"><ele>390.5</ele><time>2026-03-29T15:19:15.001Z</time></trkpt><trkpt lat="37.3095892422427" lon="13.904113252294575"><ele>391.0</ele><time>2026-03-29T15:19:16.001Z</time></trkpt><trkpt lat="37.3098209773964" lon="13.903898062248002"><ele>391.0</ele><time>2026-03-29T15:19:17.001Z</time></trkpt><trkpt lat="37.31006589931031" lon="13.903696776565864"><ele>391.0</ele><time>2026-03-29T15:19:18.001Z</time></trkpt><trkpt lat="37.31031726667568" lon="13.903498181973232"><ele>388.5</ele><time>2026-03-29T15:19:19.001Z</time></trkpt><trkpt lat="37.31057304786785" lon="13.903296778519032"><ele>386.0</ele><time>2026-03-29T15:19:20.001Z</time></trkpt><trkpt lat="37.310822590204175" lon="13.90309011032705"><ele>385.5</ele><time>2026-03-29T15:19:21.001Z</time></trkpt><trkpt lat="37.31105836362676" lon="13.902869124956629"><ele>385.0</ele><time>2026-03-29T15:19:22.001Z</time></trkpt><trkpt lat="37.31126544168427" lon="13.902618605597073"><ele>383.5</ele><time>2026-03-29T15:19:23.001Z</time></trkpt><trkpt lat="37.311438104283155" lon="13.902337320028693"><ele>382.0</ele><time>2026-03-29T15:19:24.001Z</time></trkpt><trkpt lat="37.31158559009262" lon="13.902034890122358"><ele>381.0</ele><time>2026-03-29T15:19:25.001Z</time></trkpt><trkpt lat="37.311714469189944" lon="13.901710205633536"><ele>380.0</ele><time>2026-03-29T15:19:26.001Z</time></trkpt><trkpt lat="37.3118303697022" lon="13.901368107289157"><ele>380.0</ele><time>2026-03-29T15:19:27.001Z</time></trkpt><trkpt lat="37.31194889068126" lon="13.901020014858053"><ele>380.0</ele><time>2026-03-29T15:19:28.001Z</time></trkpt><trkpt lat="37.312064161888706" lon="13.90066437007253"><ele>379.0</ele><time>2026-03-29T15:19:29.001Z</time></trkpt><trkpt lat="37.31218132256925" lon="13.9003066403334"><ele>378.0</ele><time>2026-03-29T15:19:30.001Z</time></trkpt><trkpt lat="37.31229736008049" lon="13.899944854737532"><ele>380.5</ele><time>2026-03-29T15:19:31.001Z</time></trkpt><trkpt lat="37.31241061679037" lon="13.899581467601832"><ele>383.0</ele><time>2026-03-29T15:19:32.001Z</time></trkpt><trkpt lat="37.31252053198574" lon="13.899214192555878"><ele>383.0</ele><time>2026-03-29T15:19:33.001Z</time></trkpt><trkpt lat="37.312621847213556" lon="13.898846029968965"><ele>383.0</ele><time>2026-03-29T15:19:34.001Z</time></trkpt><trkpt lat="37.312714895513075" lon="13.898472827334958"><ele>384.0</ele><time>2026-03-29T15:19:35.001Z</time></trkpt><trkpt lat="37.31280500448494" lon="13.89809553501499"><ele>385.0</ele><time>2026-03-29T15:19:36.001Z</time></trkpt><trkpt lat="37.312896570622144" lon="13.897720279549565"><ele>384.5</ele><time>2026-03-29T15:19:37.001Z</time></trkpt><trkpt lat="37.312990590311294" lon="13.897346977249388"><ele>384.0</ele><time>2026-03-29T15:19:38.001Z</time></trkpt><trkpt lat="37.313087987738555" lon="13.896975461979727"><ele>384.0</ele><time>2026-03-29T15:19:39.001Z</time></trkpt><trkpt lat="37.31318407471804" lon="13.89660556279446"><ele>384.0</ele><time>2026-03-29T15:19:40.001Z</time></trkpt><trkpt lat="37.3132773382914" lon="13.896238536962171"><ele>383.0</ele><time>2026-03-29T15:19:41.001Z</time></trkpt><trkpt lat="37.313369941115596" lon="13.895873523225406"><ele>382.0</ele><time>2026-03-29T15:19:42.001Z</time></trkpt><trkpt lat="37.31346334600385" lon="13.895506494303328"><ele>382.0</ele><time>2026-03-29T15:19:43.002Z</time></trkpt><trkpt lat="37.31355806956298" lon="13.895140072194085"><ele>382.0</ele><time>2026-03-29T15:19:44.002Z</time></trkpt><trkpt lat="37.313652442112556" lon="13.894774816595945"><ele>381.0</ele><time>2026-03-29T15:19:45.002Z</time></trkpt><trkpt lat="37.31374617386682" lon="13.894409556558031"><ele>380.0</ele><time>2026-03-29T15:19:46.002Z</time></trkpt><trkpt lat="37.313837889027276" lon="13.894047778359909"><ele>379.0</ele><time>2026-03-29T15:19:47.002Z</time></trkpt><trkpt lat="37.31392883700002" lon="13.893684865329107"><ele>378.0</ele><time>2026-03-29T15:19:48.002Z</time></trkpt><trkpt lat="37.3140185567894" lon="13.893326008610092"><ele>376.5</ele><time>2026-03-29T15:19:49.002Z</time></trkpt><trkpt lat="37.31410865181573" lon="13.892970894411379"><ele>375.0</ele><time>2026-03-29T15:19:50.002Z</time></trkpt><trkpt lat="37.31419935712002" lon="13.89261555560276"><ele>374.5</ele><time>2026-03-29T15:19:51.002Z</time></trkpt><trkpt lat="37.31429161541417" lon="13.892259237537978"><ele>374.0</ele><time>2026-03-29T15:19:52.002Z</time></trkpt><trkpt lat="37.31438302319205" lon="13.891904717598885"><ele>374.5</ele><time>2026-03-29T15:19:53.002Z</time></trkpt><trkpt lat="37.31447216588269" lon="13.89155802284646"><ele>375.0</ele><time>2026-03-29T15:19:54.002Z</time></trkpt><trkpt lat="37.314558814437795" lon="13.891220574797076"><ele>375.0</ele><time>2026-03-29T15:19:55.002Z</time></trkpt><trkpt lat="37.31464410124283" lon="13.890884441930401"><ele>375.0</ele><time>2026-03-29T15:19:56.002Z</time></trkpt><trkpt lat="37.31473633460011" lon="13.89054365740199"><ele>374.5</ele><time>2026-03-29T15:19:57.002Z</time></trkpt><trkpt lat="37.314836287123796" lon="13.890213006312907"><ele>374.0</ele><time>2026-03-29T15:19:58.002Z</time></trkpt><trkpt lat="37.31494271814187" lon="13.889897970326937"><ele>374.0</ele><time>2026-03-29T15:19:59.002Z</time></trkpt><trkpt lat="37.315050200896856" lon="13.889610329858014"><ele>374.0</ele><time>2026-03-29T15:20:00.002Z</time></trkpt><trkpt lat="37.31516172728485" lon="13.889346567582251"><ele>374.0</ele><time>2026-03-29T15:20:01.002Z</time></trkpt><trkpt lat="37.315274010415884" lon="13.889090775142552"><ele>374.0</ele><time>2026-03-29T15:20:02.002Z</time></trkpt><trkpt lat="37.315382300633" lon="13.888837403673032"><ele>374.0</ele><time>2026-03-29T15:20:03.002Z</time></trkpt><trkpt lat="37.3154968374819" lon="13.888589235338971"><ele>374.0</ele><time>2026-03-29T15:20:04.002Z</time></trkpt><trkpt lat="37.31562336371818" lon="13.888335913747085"><ele>372.5</ele><time>2026-03-29T15:20:05.002Z</time></trkpt><trkpt lat="37.315760666612384" lon="13.888074614148891"><ele>371.0</ele><time>2026-03-29T15:20:06.002Z</time></trkpt><trkpt lat="37.31591228203024" lon="13.887812025957167"><ele>370.5</ele><time>2026-03-29T15:20:07.002Z</time></trkpt><trkpt lat="37.31607572411755" lon="13.88754444594127"><ele>370.0</ele><time>2026-03-29T15:20:08.002Z</time></trkpt><trkpt lat="37.31624641641973" lon="13.88727216650439"><ele>369.5</ele><time>2026-03-29T15:20:09.002Z</time></trkpt><trkpt lat="37.31642545173062" lon="13.886996267160718"><ele>369.0</ele><time>2026-03-29T15:20:10.002Z</time></trkpt><trkpt lat="37.31660810458882" lon="13.886715061593284"><ele>369.0</ele><time>2026-03-29T15:20:11.002Z</time></trkpt><trkpt lat="37.31679222178654" lon="13.886434269506587"><ele>369.0</ele><time>2026-03-29T15:20:12.002Z</time></trkpt><trkpt lat="37.31697655848496" lon="13.88615318268906"><ele>369.0</ele><time>2026-03-29T15:20:13.002Z</time></trkpt><trkpt lat="37.31715974920577" lon="13.885871592484303"><ele>369.0</ele><time>2026-03-29T15:20:14.002Z</time></trkpt><trkpt lat="37.317343906512704" lon="13.885586045255883"><ele>371.0</ele><time>2026-03-29T15:20:15.002Z</time></trkpt><trkpt lat="37.31752763254139" lon="13.885296241204593"><ele>373.0</ele><time>2026-03-29T15:20:16.002Z</time></trkpt><trkpt lat="37.317709992850624" lon="13.885006288293338"><ele>373.0</ele><time>2026-03-29T15:20:17.002Z</time></trkpt><trkpt lat="37.31789159419981" lon="13.884720539262574"><ele>373.0</ele><time>2026-03-29T15:20:18.002Z</time></trkpt><trkpt lat="37.31807404033624" lon="13.884433172809503"><ele>372.5</ele><time>2026-03-29T15:20:19.002Z</time></trkpt><trkpt lat="37.31825603897482" lon="13.884144750761465"><ele>372.0</ele><time>2026-03-29T15:20:20.002Z</time></trkpt><trkpt lat="37.31843951787556" lon="13.883855048476237"><ele>372.0</ele><time>2026-03-29T15:20:21.002Z</time></trkpt><trkpt lat="37.3186221053747" lon="13.883567619187252"><ele>372.0</ele><time>2026-03-29T15:20:22.002Z</time></trkpt><trkpt lat="37.31880617495331" lon="13.883278523079529"><ele>372.0</ele><time>2026-03-29T15:20:23.002Z</time></trkpt><trkpt lat="37.31899133642558" lon="13.882990091264178"><ele>372.0</ele><time>2026-03-29T15:20:24.002Z</time></trkpt><trkpt lat="37.31917743607898" lon="13.882698723171986"><ele>372.0</ele><time>2026-03-29T15:20:25.002Z</time></trkpt><trkpt lat="37.319362588106195" lon="13.88240780200166"><ele>372.0</ele><time>2026-03-29T15:20:26.002Z</time></trkpt><trkpt lat="37.319549772735236" lon="13.88211569980391"><ele>373.0</ele><time>2026-03-29T15:20:27.002Z</time></trkpt><trkpt lat="37.319735457786464" lon="13.881824350532664"><ele>374.0</ele><time>2026-03-29T15:20:28.002Z</time></trkpt><trkpt lat="37.31992141264786" lon="13.881534804874123"><ele>374.0</ele><time>2026-03-29T15:20:29.002Z</time></trkpt><trkpt lat="37.32010975697111" lon="13.881239315623834"><ele>374.0</ele><time>2026-03-29T15:20:30.002Z</time></trkpt><trkpt lat="37.32029822862822" lon="13.880942022720083"><ele>374.5</ele><time>2026-03-29T15:20:31.002Z</time></trkpt><trkpt lat="37.320484321926024" lon="13.88064720873993"><ele>375.0</ele><time>2026-03-29T15:20:32.002Z</time></trkpt><trkpt lat="37.32067169841922" lon="13.880351700979073"><ele>377.5</ele><time>2026-03-29T15:20:33.002Z</time></trkpt><trkpt lat="37.32085716873468" lon="13.880060193811232"><ele>380.0</ele><time>2026-03-29T15:20:34.002Z</time></trkpt><trkpt lat="37.32104426225738" lon="13.879768143693957"><ele>380.0</ele><time>2026-03-29T15:20:35.003Z</time></trkpt><trkpt lat="37.321228797664546" lon="13.8794760824581"><ele>380.0</ele><time>2026-03-29T15:20:36.003Z</time></trkpt><trkpt lat="37.32141454981986" lon="13.879183925961994"><ele>379.5</ele><time>2026-03-29T15:20:37.003Z</time></trkpt><trkpt lat="37.3216031244236" lon="13.878892656981519"><ele>379.0</ele><time>2026-03-29T15:20:38Z</time></trkpt><trkpt lat="37.321790023421364" lon="13.878598567736294"><ele>380.5</ele><time>2026-03-29T15:20:39Z</time></trkpt><trkpt lat="37.32197530919986" lon="13.878307021482527"><ele>382.0</ele><time>2026-03-29T15:20:40Z</time></trkpt><trkpt lat="37.32216191502911" lon="13.878013268160638"><ele>380.5</ele><time>2026-03-29T15:20:41Z</time></trkpt><trkpt lat="37.32234897488564" lon="13.877715132329957"><ele>379.0</ele><time>2026-03-29T15:20:42Z</time></trkpt><trkpt lat="37.32254081243891" lon="13.877411241923722"><ele>379.0</ele><time>2026-03-29T15:20:43Z</time></trkpt><trkpt lat="37.322730989479275" lon="13.877099956722818"><ele>379.0</ele><time>2026-03-29T15:20:44Z</time></trkpt><trkpt lat="37.32292120500588" lon="13.876782492264695"><ele>381.0</ele><time>2026-03-29T15:20:45Z</time></trkpt><trkpt lat="37.3231141005331" lon="13.87646857500211"><ele>383.0</ele><time>2026-03-29T15:20:46Z</time></trkpt><trkpt lat="37.32331370897571" lon="13.876145016004992"><ele>384.0</ele><time>2026-03-29T15:20:47Z</time></trkpt><trkpt lat="37.32351355497079" lon="13.875831327352966"><ele>385.0</ele><time>2026-03-29T15:20:48Z</time></trkpt><trkpt lat="37.32371698106487" lon="13.875522196722661"><ele>385.0</ele><time>2026-03-29T15:20:49Z</time></trkpt><trkpt lat="37.32392019293383" lon="13.87521428295136"><ele>385.0</ele><time>2026-03-29T15:20:50Z</time></trkpt><trkpt lat="37.324117238522106" lon="13.874910474562736"><ele>387.0</ele><time>2026-03-29T15:20:51Z</time></trkpt><trkpt lat="37.32431388574372" lon="13.87461073479793"><ele>389.0</ele><time>2026-03-29T15:20:52Z</time></trkpt><trkpt lat="37.32450671178627" lon="13.874316982511058"><ele>389.0</ele><time>2026-03-29T15:20:53Z</time></trkpt><trkpt lat="37.324695892622614" lon="13.87402166011932"><ele>389.0</ele><time>2026-03-29T15:20:54Z</time></trkpt><trkpt lat="37.324883965949184" lon="13.873723583259716"><ele>390.5</ele><time>2026-03-29T15:20:55Z</time></trkpt><trkpt lat="37.325070970666474" lon="13.873425885636939"><ele>392.0</ele><time>2026-03-29T15:20:56Z</time></trkpt><trkpt lat="37.325260825729856" lon="13.873127351865167"><ele>392.0</ele><time>2026-03-29T15:20:57Z</time></trkpt><trkpt lat="37.32545171129374" lon="13.872830798795878"><ele>392.0</ele><time>2026-03-29T15:20:58.001Z</time></trkpt><trkpt lat="37.325640341068045" lon="13.872538012251875"><ele>395.0</ele><time>2026-03-29T15:20:59.001Z</time></trkpt><trkpt lat="37.32583031897237" lon="13.872246027355171"><ele>398.0</ele><time>2026-03-29T15:21:00.001Z</time></trkpt><trkpt lat="37.32601286118941" lon="13.871957844224356"><ele>400.5</ele><time>2026-03-29T15:21:01.001Z</time></trkpt><trkpt lat="37.32619915783306" lon="13.871667493325678"><ele>403.0</ele><time>2026-03-29T15:21:02.001Z</time></trkpt><trkpt lat="37.326376263767344" lon="13.871390432979956"><ele>403.5</ele><time>2026-03-29T15:21:03.001Z</time></trkpt><trkpt lat="37.326545140348294" lon="13.871120403821974"><ele>404.0</ele><time>2026-03-29T15:21:04.001Z</time></trkpt><trkpt lat="37.32671087010414" lon="13.870857454208545"><ele>404.0</ele><time>2026-03-29T15:21:05.001Z</time></trkpt><trkpt lat="37.32687409080942" lon="13.87059893385348"><ele>404.0</ele><time>2026-03-29T15:21:06.001Z</time></trkpt><trkpt lat="37.32703395694482" lon="13.87034230102442"><ele>404.5</ele><time>2026-03-29T15:21:07.001Z</time></trkpt><trkpt lat="37.32719677732737" lon="13.87008714489774"><ele>405.0</ele><time>2026-03-29T15:21:08.001Z</time></trkpt><trkpt lat="37.32735992839898" lon="13.869828425305126"><ele>407.0</ele><time>2026-03-29T15:21:09.001Z</time></trkpt><trkpt lat="37.32752596033639" lon="13.869569280884885"><ele>409.0</ele><time>2026-03-29T15:21:10.001Z</time></trkpt><trkpt lat="37.327695335593845" lon="13.869315091176253"><ele>408.5</ele><time>2026-03-29T15:21:11.001Z</time></trkpt><trkpt lat="37.327867975747075" lon="13.869068411779203"><ele>408.0</ele><time>2026-03-29T15:21:12.001Z</time></trkpt><trkpt lat="37.328047894771586" lon="13.868829141173123"><ele>408.5</ele><time>2026-03-29T15:21:13.001Z</time></trkpt><trkpt lat="37.32823564187594" lon="13.868601803365106"><ele>409.0</ele><time>2026-03-29T15:21:14.001Z</time></trkpt><trkpt lat="37.32843734281095" lon="13.86839314311735"><ele>409.5</ele><time>2026-03-29T15:21:15.001Z</time></trkpt><trkpt lat="37.32864583854604" lon="13.868193438001445"><ele>410.0</ele><time>2026-03-29T15:21:16.001Z</time></trkpt><trkpt lat="37.32886521082421" lon="13.868000438487739"><ele>411.0</ele><time>2026-03-29T15:21:17.001Z</time></trkpt><trkpt lat="37.32907858221467" lon="13.867816798531473"><ele>412.0</ele><time>2026-03-29T15:21:18.001Z</time></trkpt><trkpt lat="37.329278888552395" lon="13.86763702076241"><ele>412.5</ele><time>2026-03-29T15:21:19.001Z</time></trkpt><trkpt lat="37.32947817795538" lon="13.867457545498228"><ele>413.0</ele><time>2026-03-29T15:21:20.001Z</time></trkpt><trkpt lat="37.32967338778408" lon="13.867279210675646"><ele>414.5</ele><time>2026-03-29T15:21:21.001Z</time></trkpt><trkpt lat="37.32986749532131" lon="13.86710256997952"><ele>416.0</ele><time>2026-03-29T15:21:22.001Z</time></trkpt><trkpt lat="37.33005798165274" lon="13.866928382770078"><ele>416.5</ele><time>2026-03-29T15:21:23.001Z</time></trkpt><trkpt lat="37.330256418251885" lon="13.866744042837352"><ele>417.0</ele><time>2026-03-29T15:21:24.001Z</time></trkpt><trkpt lat="37.33046197040497" lon="13.866545541799885"><ele>418.0</ele><time>2026-03-29T15:21:25.001Z</time></trkpt><trkpt lat="37.330673802782734" lon="13.86633871527484"><ele>419.0</ele><time>2026-03-29T15:21:26.001Z</time></trkpt><trkpt lat="37.33089235310182" lon="13.866129409844"><ele>419.0</ele><time>2026-03-29T15:21:27.001Z</time></trkpt><trkpt lat="37.33111627456997" lon="13.865925457342751"><ele>419.0</ele><time>2026-03-29T15:21:28.001Z</time></trkpt><trkpt lat="37.33133972096488" lon="13.865728595115677"><ele>420.5</ele><time>2026-03-29T15:21:29.001Z</time></trkpt><trkpt lat="37.33156021956354" lon="13.865536135499953"><ele>422.0</ele><time>2026-03-29T15:21:30.001Z</time></trkpt><trkpt lat="37.33177752593569" lon="13.865346522285346"><ele>422.0</ele><time>2026-03-29T15:21:31.001Z</time></trkpt><trkpt lat="37.33199643322258" lon="13.865149836968625"><ele>422.0</ele><time>2026-03-29T15:21:32.001Z</time></trkpt><trkpt lat="37.33221449518701" lon="13.86494924096209"><ele>424.0</ele><time>2026-03-29T15:21:33.001Z</time></trkpt><trkpt lat="37.33243179935059" lon="13.864745571020386"><ele>426.0</ele><time>2026-03-29T15:21:34.001Z</time></trkpt><trkpt lat="37.332649074923125" lon="13.864540921748095"><ele>426.0</ele><time>2026-03-29T15:21:35.001Z</time></trkpt><trkpt lat="37.33286843761002" lon="13.864339384431128"><ele>426.0</ele><time>2026-03-29T15:21:36.001Z</time></trkpt><trkpt lat="37.33309210139605" lon="13.864131709643118"><ele>430.0</ele><time>2026-03-29T15:21:37.001Z</time></trkpt><trkpt lat="37.33331964097003" lon="13.863921528695855"><ele>434.0</ele><time>2026-03-29T15:21:38.001Z</time></trkpt><trkpt lat="37.33354855521651" lon="13.863711192106598"><ele>434.0</ele><time>2026-03-29T15:21:39.001Z</time></trkpt><trkpt lat="37.33377762499371" lon="13.863500127575543"><ele>434.0</ele><time>2026-03-29T15:21:40.001Z</time></trkpt><trkpt lat="37.33400761367447" lon="13.863287470725911"><ele>437.5</ele><time>2026-03-29T15:21:41.001Z</time></trkpt><trkpt lat="37.33423450066925" lon="13.863072774645008"><ele>441.0</ele><time>2026-03-29T15:21:42.001Z</time></trkpt><trkpt lat="37.33445850340832" lon="13.86285728693094"><ele>441.0</ele><time>2026-03-29T15:21:43.001Z</time></trkpt><trkpt lat="37.33467355850524" lon="13.862643564197581"><ele>441.0</ele><time>2026-03-29T15:21:44.001Z</time></trkpt><trkpt lat="37.334888150375306" lon="13.862442997180885"><ele>442.5</ele><time>2026-03-29T15:21:45.001Z</time></trkpt><trkpt lat="37.33509883964933" lon="13.862238238133786"><ele>444.0</ele><time>2026-03-29T15:21:46.001Z</time></trkpt><trkpt lat="37.3353115834349" lon="13.86203860477179"><ele>444.0</ele><time>2026-03-29T15:21:47.001Z</time></trkpt><trkpt lat="37.335522835617724" lon="13.861843715929268"><ele>444.0</ele><time>2026-03-29T15:21:48.001Z</time></trkpt><trkpt lat="37.33572956771567" lon="13.86165175328799"><ele>444.0</ele><time>2026-03-29T15:21:49.002Z</time></trkpt><trkpt lat="37.335930711044256" lon="13.861452480504052"><ele>444.0</ele><time>2026-03-29T15:21:50.002Z</time></trkpt><trkpt lat="37.336113021282294" lon="13.86123740396527"><ele>444.0</ele><time>2026-03-29T15:21:51.002Z</time></trkpt><trkpt lat="37.33627026770424" lon="13.86099801365132"><ele>444.0</ele><time>2026-03-29T15:21:52.002Z</time></trkpt><trkpt lat="37.33640951081993" lon="13.86074573138074"><ele>443.5</ele><time>2026-03-29T15:21:53.002Z</time></trkpt><trkpt lat="37.33653530485607" lon="13.860497413063662"><ele>443.0</ele><time>2026-03-29T15:21:54.002Z</time></trkpt><trkpt lat="37.336657743519766" lon="13.860270243644733"><ele>443.3333333333333</ele><time>2026-03-29T15:21:55.002Z</time></trkpt><trkpt lat="37.33677355727924" lon="13.860057409500415"><ele>443.66666666666663</ele><time>2026-03-29T15:21:56.002Z</time></trkpt><trkpt lat="37.3368917204822" lon="13.859845540978375"><ele>444.0</ele><time>2026-03-29T15:21:57.002Z</time></trkpt><trkpt lat="37.337008912374806" lon="13.85963805321668"><ele>444.0</ele><time>2026-03-29T15:21:58.002Z</time></trkpt><trkpt lat="37.33713354676726" lon="13.85943371634641"><ele>444.0</ele><time>2026-03-29T15:21:59.002Z</time></trkpt><trkpt lat="37.337263795997465" lon="13.859239914640622"><ele>444.0</ele><time>2026-03-29T15:22:00.002Z</time></trkpt><trkpt lat="37.33739916822197" lon="13.859055111400837"><ele>445.33333333333337</ele><time>2026-03-29T15:22:01.002Z</time></trkpt><trkpt lat="37.337538688670534" lon="13.858873609796797"><ele>446.6666666666667</ele><time>2026-03-29T15:22:02.002Z</time></trkpt><trkpt lat="37.3376845922414" lon="13.858687991277124"><ele>448.0</ele><time>2026-03-29T15:22:03.002Z</time></trkpt><trkpt lat="37.33781803204355" lon="13.85851714622827"><ele>448.6666666666667</ele><time>2026-03-29T15:22:04.002Z</time></trkpt><trkpt lat="37.33794046382529" lon="13.858357674512023"><ele>449.33333333333337</ele><time>2026-03-29T15:22:05.002Z</time></trkpt><trkpt lat="37.33805847144759" lon="13.858207895770645"><ele>450.0</ele><time>2026-03-29T15:22:06.002Z</time></trkpt><trkpt lat="37.338170859988644" lon="13.858068253867811"><ele>450.0</ele><time>2026-03-29T15:22:07.002Z</time></trkpt><trkpt lat="37.33828163845585" lon="13.857930143330403"><ele>450.0</ele><time>2026-03-29T15:22:08.002Z</time></trkpt><trkpt lat="37.33839173229328" lon="13.857792634207085"><ele>450.0</ele><time>2026-03-29T15:22:09.002Z</time></trkpt><trkpt lat="37.3384976130346" lon="13.857666771686908"><ele>449.25</ele><time>2026-03-29T15:22:10.002Z</time></trkpt><trkpt lat="37.3386027085131" lon="13.857549715289954"><ele>448.5</ele><time>2026-03-29T15:22:11.002Z</time></trkpt><trkpt lat="37.33870929477509" lon="13.857448858180742"><ele>447.75</ele><time>2026-03-29T15:22:12.002Z</time></trkpt><trkpt lat="37.338812434122175" lon="13.857356803334234"><ele>447.0</ele><time>2026-03-29T15:22:13.002Z</time></trkpt><trkpt lat="37.33890592155294" lon="13.85727347857914"><ele>447.0</ele><time>2026-03-29T15:22:14.002Z</time></trkpt><trkpt lat="37.33900105466906" lon="13.857187122472764"><ele>447.0</ele><time>2026-03-29T15:22:15.002Z</time></trkpt><trkpt lat="37.339095170441986" lon="13.857100876299183"><ele>447.0</ele><time>2026-03-29T15:22:16.002Z</time></trkpt><trkpt lat="37.339185136220856" lon="13.857018270965778"><ele>447.0</ele><time>2026-03-29T15:22:17.002Z</time></trkpt><trkpt lat="37.33926943257143" lon="13.856936528922825"><ele>447.0</ele><time>2026-03-29T15:22:18.002Z</time></trkpt><trkpt lat="37.33935009250235" lon="13.856860886491553"><ele>447.00000000000006</ele><time>2026-03-29T15:22:19.002Z</time></trkpt><trkpt lat="37.33942778465004" lon="13.856791408165408"><ele>447.00000000000006</ele><time>2026-03-29T15:22:20.002Z</time></trkpt><trkpt lat="37.33950340637758" lon="13.856726739112487"><ele>447.0</ele><time>2026-03-29T15:22:21.002Z</time></trkpt><trkpt lat="37.33957667405367" lon="13.856665002215982"><ele>447.0</ele><time>2026-03-29T15:22:22.002Z</time></trkpt><trkpt lat="37.339650772100775" lon="13.856602752271863"><ele>446.5</ele><time>2026-03-29T15:22:23.002Z</time></trkpt><trkpt lat="37.33973434999618" lon="13.85653814799631"><ele>446.0</ele><time>2026-03-29T15:22:24.002Z</time></trkpt><trkpt lat="37.33983171644302" lon="13.85647199627165"><ele>445.5</ele><time>2026-03-29T15:22:25.002Z</time></trkpt><trkpt lat="37.33994010188458" lon="13.856399474449445"><ele>445.0</ele><time>2026-03-29T15:22:26.002Z</time></trkpt><trkpt lat="37.3400639567206" lon="13.85632673936486"><ele>445.0</ele><time>2026-03-29T15:22:27.002Z</time></trkpt><trkpt lat="37.34019714906697" lon="13.856257929599076"><ele>445.0</ele><time>2026-03-29T15:22:28.002Z</time></trkpt><trkpt lat="37.34033513714802" lon="13.856190756451152"><ele>445.0</ele><time>2026-03-29T15:22:29.002Z</time></trkpt><trkpt lat="37.34046847062603" lon="13.856133744329524"><ele>445.0</ele><time>2026-03-29T15:22:30.002Z</time></trkpt><trkpt lat="37.34058968669331" lon="13.85607955934586"><ele>445.33333333333337</ele><time>2026-03-29T15:22:31.002Z</time></trkpt><trkpt lat="37.34070295698767" lon="13.856047390209381"><ele>445.6666666666667</ele><time>2026-03-29T15:22:32.002Z</time></trkpt><trkpt lat="37.34079140932745" lon="13.856011391043822"><ele>446.0</ele><time>2026-03-29T15:22:33.002Z</time></trkpt><trkpt lat="37.34087216634697" lon="13.855997477860884"><ele>446.33333333333337</ele><time>2026-03-29T15:22:34.002Z</time></trkpt><trkpt lat="37.34093575111966" lon="13.85595677879121"><ele>446.6666666666667</ele><time>2026-03-29T15:22:36.002Z</time></trkpt><trkpt lat="37.34101550615331" lon="13.855942361043825"><ele>447.0</ele><time>2026-03-29T15:22:42.003Z</time></trkpt><trkpt lat="37.341031810582784" lon="13.855836751438044"><ele>447.0</ele><time>2026-03-29T15:22:43.003Z</time></trkpt><trkpt lat="37.341054051033986" lon="13.855762307856654"><ele>447.0</ele><time>2026-03-29T15:22:44Z</time></trkpt><trkpt lat="37.3410863835824" lon="13.85565295752423"><ele>447.0</ele><time>2026-03-29T15:22:46Z</time></trkpt><trkpt lat="37.34095986053819" lon="13.855563654001445"><ele>447.0</ele><time>2026-03-29T15:22:51Z</time></trkpt><trkpt lat="37.340894519825255" lon="13.855763105063547"><ele>447.0</ele><time>2026-03-29T15:22:53Z</time></trkpt><trkpt lat="37.34092138189365" lon="13.855875486136002"><ele>447.0</ele><time>2026-03-29T15:22:55Z</time></trkpt><trkpt lat="37.34072213776713" lon="13.855976390185269"><ele>447.0</ele><time>2026-03-29T15:22:57Z</time></trkpt><trkpt lat="37.34061065395317" lon="13.856023726109457"><ele>447.0</ele><time>2026-03-29T15:22:58Z</time></trkpt><trkpt lat="37.34049908782532" lon="13.856072898510169"><ele>446.33333333333337</ele><time>2026-03-29T15:22:59Z</time></trkpt><trkpt lat="37.340371131157106" lon="13.856131991836214"><ele>445.6666666666667</ele><time>2026-03-29T15:23:00Z</time></trkpt><trkpt lat="37.34009574721466" lon="13.856270846932139"><ele>445.0</ele><time>2026-03-29T15:23:02Z</time></trkpt><trkpt lat="37.339961567823266" lon="13.856349426718388"><ele>445.0</ele><time>2026-03-29T15:23:03.001Z</time></trkpt><trkpt lat="37.339833604938825" lon="13.85643253345614"><ele>445.0</ele><time>2026-03-29T15:23:04.001Z</time></trkpt><trkpt lat="37.33970831016869" lon="13.856520364432322"><ele>445.0</ele><time>2026-03-29T15:23:05.001Z</time></trkpt><trkpt lat="37.339584033044865" lon="13.856618483284208"><ele>445.0</ele><time>2026-03-29T15:23:06.001Z</time></trkpt><trkpt lat="37.33945645575166" lon="13.856727308908708"><ele>445.6666666666667</ele><time>2026-03-29T15:23:07.001Z</time></trkpt><trkpt lat="37.33932754149672" lon="13.856843805426125"><ele>446.33333333333337</ele><time>2026-03-29T15:23:08.001Z</time></trkpt><trkpt lat="37.339194610366356" lon="13.856966552660923"><ele>447.0</ele><time>2026-03-29T15:23:09.001Z</time></trkpt><trkpt lat="37.33905757335367" lon="13.857089488145721"><ele>447.0</ele><time>2026-03-29T15:23:10.001Z</time></trkpt><trkpt lat="37.3389213909166" lon="13.857205270770669"><ele>447.0</ele><time>2026-03-29T15:23:11.001Z</time></trkpt><trkpt lat="37.33878434018156" lon="13.857318338413512"><ele>447.0</ele><time>2026-03-29T15:23:12.001Z</time></trkpt><trkpt lat="37.338648696017636" lon="13.857430964361411"><ele>446.25</ele><time>2026-03-29T15:23:13.001Z</time></trkpt><trkpt lat="37.33852444068329" lon="13.857541493549295"><ele>445.5</ele><time>2026-03-29T15:23:14.001Z</time></trkpt><trkpt lat="37.33841597073521" lon="13.857648284167231"><ele>444.75</ele><time>2026-03-29T15:23:15.001Z</time></trkpt><trkpt lat="37.33831914182157" lon="13.85775208641439"><ele>444.0</ele><time>2026-03-29T15:23:16.001Z</time></trkpt><trkpt lat="37.33823898708956" lon="13.857837689200347"><ele>444.0</ele><time>2026-03-29T15:23:17.001Z</time></trkpt><trkpt lat="37.33816722873832" lon="13.857901899218527"><ele>444.0</ele><time>2026-03-29T15:23:18.001Z</time></trkpt><trkpt lat="37.33808830210065" lon="13.857937764525214"><ele>444.0</ele><time>2026-03-29T15:23:19.001Z</time></trkpt><trkpt lat="37.337996031783135" lon="13.8579270027796"><ele>444.0</ele><time>2026-03-29T15:23:20.001Z</time></trkpt><trkpt lat="37.33789734052422" lon="13.85788253346178"><ele>444.0</ele><time>2026-03-29T15:23:21Z</time></trkpt><trkpt lat="37.33779230877592" lon="13.857821826197224"><ele>444.0</ele><time>2026-03-29T15:23:22Z</time></trkpt><trkpt lat="37.33767754851381" lon="13.857756848187096"><ele>444.0</ele><time>2026-03-29T15:23:23Z</time></trkpt><trkpt lat="37.337549562974566" lon="13.857680228168872"><ele>444.0</ele><time>2026-03-29T15:23:24Z</time></trkpt><trkpt lat="37.33741876075437" lon="13.857599604451108"><ele>444.0</ele><time>2026-03-29T15:23:25Z</time></trkpt><trkpt lat="37.33729017988072" lon="13.857518294239343"><ele>441.25</ele><time>2026-03-29T15:23:26Z</time></trkpt><trkpt lat="37.337166287890355" lon="13.857437353836128"><ele>438.5</ele><time>2026-03-29T15:23:27Z</time></trkpt><trkpt lat="37.3370501786976" lon="13.857361212732881"><ele>435.75</ele><time>2026-03-29T15:23:28Z</time></trkpt><trkpt lat="37.33693720278666" lon="13.85729298709528"><ele>433.0</ele><time>2026-03-29T15:23:29Z</time></trkpt><trkpt lat="37.33682569567502" lon="13.857227813092107"><ele>433.0</ele><time>2026-03-29T15:23:30Z</time></trkpt><trkpt lat="37.33671205610051" lon="13.85715691295208"><ele>433.0</ele><time>2026-03-29T15:23:31Z</time></trkpt><trkpt lat="37.336591617767304" lon="13.857078889137"><ele>433.0</ele><time>2026-03-29T15:23:32Z</time></trkpt><trkpt lat="37.33647216057472" lon="13.856996024603463"><ele>433.0</ele><time>2026-03-29T15:23:33Z</time></trkpt><trkpt lat="37.33635522223931" lon="13.856910415551155"><ele>431.75</ele><time>2026-03-29T15:23:34Z</time></trkpt><trkpt lat="37.33623563537145" lon="13.856819191734399"><ele>430.5</ele><time>2026-03-29T15:23:35Z</time></trkpt><trkpt lat="37.33611373092667" lon="13.856729828014457"><ele>429.25</ele><time>2026-03-29T15:23:36Z</time></trkpt><trkpt lat="37.33599190637978" lon="13.856646616110607"><ele>428.0</ele><time>2026-03-29T15:23:37Z</time></trkpt><trkpt lat="37.33587406860669" lon="13.856565282270317"><ele>427.5</ele><time>2026-03-29T15:23:38Z</time></trkpt><trkpt lat="37.33575680407666" lon="13.856484364016195"><ele>427.0</ele><time>2026-03-29T15:23:39Z</time></trkpt><trkpt lat="37.33564304199267" lon="13.856408172927072"><ele>426.5</ele><time>2026-03-29T15:23:40Z</time></trkpt><trkpt lat="37.33552888278895" lon="13.856331127984541"><ele>426.0</ele><time>2026-03-29T15:23:41Z</time></trkpt><trkpt lat="37.33530688337488" lon="13.856168325487484"><ele>425.25</ele><time>2026-03-29T15:23:43Z</time></trkpt><trkpt lat="37.33520198266821" lon="13.856085769515897"><ele>424.5</ele><time>2026-03-29T15:23:44Z</time></trkpt><trkpt lat="37.33510411988102" lon="13.856007420948321"><ele>423.75</ele><time>2026-03-29T15:23:45Z</time></trkpt><trkpt lat="37.335002476544865" lon="13.855918121232547"><ele>423.0</ele><time>2026-03-29T15:23:46Z</time></trkpt><trkpt lat="37.33490102825956" lon="13.8558231485882"><ele>422.5</ele><time>2026-03-29T15:23:47Z</time></trkpt><trkpt lat="37.334806096596274" lon="13.85572482658953"><ele>422.0</ele><time>2026-03-29T15:23:48Z</time></trkpt><trkpt lat="37.334715115393436" lon="13.855622847242051"><ele>421.5</ele><time>2026-03-29T15:23:49Z</time></trkpt><trkpt lat="37.33462368570212" lon="13.855512097772408"><ele>421.0</ele><time>2026-03-29T15:23:50Z</time></trkpt><trkpt lat="37.3345433730646" lon="13.855388145319646"><ele>420.5</ele><time>2026-03-29T15:23:51.001Z</time></trkpt><trkpt lat="37.33446664819542" lon="13.8552560744687"><ele>420.0</ele><time>2026-03-29T15:23:52.001Z</time></trkpt><trkpt lat="37.3343923096518" lon="13.855117058458404"><ele>419.5</ele><time>2026-03-29T15:23:53.001Z</time></trkpt><trkpt lat="37.33432814719352" lon="13.85495697896285"><ele>419.0</ele><time>2026-03-29T15:23:54.001Z</time></trkpt><trkpt lat="37.33420928786691" lon="13.854618052496306"><ele>418.66666666666663</ele><time>2026-03-29T15:23:56.001Z</time></trkpt><trkpt lat="37.3341598006533" lon="13.854425206436616"><ele>418.33333333333337</ele><time>2026-03-29T15:23:57.001Z</time></trkpt><trkpt lat="37.33412284271986" lon="13.854216050726976"><ele>418.0</ele><time>2026-03-29T15:23:58.001Z</time></trkpt><trkpt lat="37.334094613849324" lon="13.853988986497512"><ele>416.6666666666667</ele><time>2026-03-29T15:23:59.001Z</time></trkpt><trkpt lat="37.33408588966881" lon="13.853758033118877"><ele>415.33333333333337</ele><time>2026-03-29T15:24:00.001Z</time></trkpt><trkpt lat="37.33408781473841" lon="13.853512028111131"><ele>414.0</ele><time>2026-03-29T15:24:01.001Z</time></trkpt><trkpt lat="37.33410940094293" lon="13.853268186801932"><ele>413.0</ele><time>2026-03-29T15:24:02.001Z</time></trkpt><trkpt lat="37.33414884069437" lon="13.853020749558217"><ele>412.0</ele><time>2026-03-29T15:24:03.001Z</time></trkpt><trkpt lat="37.3342091170867" lon="13.852776064843555"><ele>411.0</ele><time>2026-03-29T15:24:04.001Z</time></trkpt><trkpt lat="37.33428402109542" lon="13.852535319840348"><ele>411.0</ele><time>2026-03-29T15:24:05.001Z</time></trkpt><trkpt lat="37.33437687365605" lon="13.852295515669118"><ele>411.0</ele><time>2026-03-29T15:24:06.001Z</time></trkpt><trkpt lat="37.33448344568499" lon="13.852058222094652"><ele>411.0</ele><time>2026-03-29T15:24:07.001Z</time></trkpt><trkpt lat="37.33459834378903" lon="13.85182040040198"><ele>411.0</ele><time>2026-03-29T15:24:08.001Z</time></trkpt><trkpt lat="37.33471243859707" lon="13.8515923921171"><ele>411.0</ele><time>2026-03-29T15:24:09.001Z</time></trkpt><trkpt lat="37.334824900100244" lon="13.85136730268622"><ele>411.0</ele><time>2026-03-29T15:24:10.001Z</time></trkpt><trkpt lat="37.33493168819328" lon="13.851147158809786"><ele>407.66666666666663</ele><time>2026-03-29T15:24:11.001Z</time></trkpt><trkpt lat="37.335031207132964" lon="13.850926401514014"><ele>404.3333333333333</ele><time>2026-03-29T15:24:12.001Z</time></trkpt><trkpt lat="37.335121984479954" lon="13.850706615210155"><ele>401.0</ele><time>2026-03-29T15:24:13.001Z</time></trkpt><trkpt lat="37.33521005801995" lon="13.850485720795698"><ele>401.0</ele><time>2026-03-29T15:24:14.001Z</time></trkpt><trkpt lat="37.33527958878199" lon="13.850264117494335"><ele>401.0</ele><time>2026-03-29T15:24:15.001Z</time></trkpt><trkpt lat="37.335329223931176" lon="13.850033431686152"><ele>401.0</ele><time>2026-03-29T15:24:16.001Z</time></trkpt><trkpt lat="37.33536619685319" lon="13.849799947606428"><ele>401.66666666666663</ele><time>2026-03-29T15:24:17.001Z</time></trkpt><trkpt lat="37.335388176985234" lon="13.849556978591899"><ele>402.33333333333337</ele><time>2026-03-29T15:24:18.001Z</time></trkpt><trkpt lat="37.335389511238745" lon="13.849300880624433"><ele>403.0</ele><time>2026-03-29T15:24:19.001Z</time></trkpt><trkpt lat="37.33537799087074" lon="13.849044610687004"><ele>403.0</ele><time>2026-03-29T15:24:20.001Z</time></trkpt><trkpt lat="37.33534360453118" lon="13.848783828584816"><ele>403.0</ele><time>2026-03-29T15:24:21.001Z</time></trkpt><trkpt lat="37.33529033604769" lon="13.848532101091935"><ele>403.0</ele><time>2026-03-29T15:24:22.001Z</time></trkpt><trkpt lat="37.335216437512564" lon="13.848282113423156"><ele>402.6666666666667</ele><time>2026-03-29T15:24:23.001Z</time></trkpt><trkpt lat="37.33512536933173" lon="13.84804437705515"><ele>402.33333333333337</ele><time>2026-03-29T15:24:24.001Z</time></trkpt><trkpt lat="37.335015576186976" lon="13.84781803646996"><ele>402.0</ele><time>2026-03-29T15:24:25.001Z</time></trkpt><trkpt lat="37.33488938725625" lon="13.84760063270211"><ele>402.0</ele><time>2026-03-29T15:24:26.001Z</time></trkpt><trkpt lat="37.334742316857216" lon="13.847381201890984"><ele>402.0</ele><time>2026-03-29T15:24:27.001Z</time></trkpt><trkpt lat="37.33457488595091" lon="13.847167373833614"><ele>402.0</ele><time>2026-03-29T15:24:28.001Z</time></trkpt><trkpt lat="37.33438845808055" lon="13.846952555305707"><ele>402.0</ele><time>2026-03-29T15:24:29.001Z</time></trkpt><trkpt lat="37.33419072917172" lon="13.846742957265901"><ele>399.5</ele><time>2026-03-29T15:24:30.001Z</time></trkpt><trkpt lat="37.33398797686957" lon="13.84653743029625"><ele>397.0</ele><time>2026-03-29T15:24:31.001Z</time></trkpt><trkpt lat="37.333789674029596" lon="13.846333528626882"><ele>396.0</ele><time>2026-03-29T15:24:32.001Z</time></trkpt><trkpt lat="37.33360045698024" lon="13.84613089391321"><ele>395.0</ele><time>2026-03-29T15:24:33.001Z</time></trkpt><trkpt lat="37.333413186790594" lon="13.845929231808254"><ele>394.5</ele><time>2026-03-29T15:24:34.001Z</time></trkpt><trkpt lat="37.333225009163456" lon="13.845728800487448"><ele>394.0</ele><time>2026-03-29T15:24:35.001Z</time></trkpt><trkpt lat="37.33304454522035" lon="13.845536222429256"><ele>394.0</ele><time>2026-03-29T15:24:36.001Z</time></trkpt><trkpt lat="37.33287500628782" lon="13.845354402714703"><ele>394.0</ele><time>2026-03-29T15:24:37.001Z</time></trkpt><trkpt lat="37.33270421606343" lon="13.845173653851786"><ele>394.0</ele><time>2026-03-29T15:24:38.001Z</time></trkpt><trkpt lat="37.332527967680065" lon="13.844984543071655"><ele>393.33333333333337</ele><time>2026-03-29T15:24:39.001Z</time></trkpt><trkpt lat="37.33235306352372" lon="13.844799553020625"><ele>392.66666666666663</ele><time>2026-03-29T15:24:40.001Z</time></trkpt><trkpt lat="37.332188245073354" lon="13.84462582705276"><ele>392.0</ele><time>2026-03-29T15:24:41.001Z</time></trkpt><trkpt lat="37.33202547908362" lon="13.84445536274492"><ele>392.66666666666663</ele><time>2026-03-29T15:24:42.002Z</time></trkpt><trkpt lat="37.33185333101552" lon="13.844296277022671"><ele>393.33333333333337</ele><time>2026-03-29T15:24:43.002Z</time></trkpt><trkpt lat="37.331661527229095" lon="13.844151370587946"><ele>394.0</ele><time>2026-03-29T15:24:44.002Z</time></trkpt><trkpt lat="37.33144731631236" lon="13.844026542329305"><ele>393.0</ele><time>2026-03-29T15:24:45.002Z</time></trkpt><trkpt lat="37.33121498011785" lon="13.843918437641006"><ele>392.0</ele><time>2026-03-29T15:24:46.002Z</time></trkpt><trkpt lat="37.33097254363235" lon="13.84381979552112"><ele>392.0</ele><time>2026-03-29T15:24:47.002Z</time></trkpt><trkpt lat="37.330729799228294" lon="13.843726778032485"><ele>392.0</ele><time>2026-03-29T15:24:48.002Z</time></trkpt><trkpt lat="37.33049806547348" lon="13.843634238229871"><ele>392.0</ele><time>2026-03-29T15:24:49.002Z</time></trkpt><trkpt lat="37.33028691892574" lon="13.843545939360807"><ele>392.0</ele><time>2026-03-29T15:24:49.999Z</time></trkpt><trkpt lat="37.33009352438439" lon="13.843457770574197"><ele>392.0</ele><time>2026-03-29T15:24:50.999Z</time></trkpt><trkpt lat="37.32991841466916" lon="13.843356980540339"><ele>390.66666666666663</ele><time>2026-03-29T15:24:51.999Z</time></trkpt><trkpt lat="37.32976310443068" lon="13.843236086618564"><ele>389.33333333333337</ele><time>2026-03-29T15:24:52.999Z</time></trkpt><trkpt lat="37.3296204737306" lon="13.843079276097411"><ele>388.0</ele><time>2026-03-29T15:24:53.999Z</time></trkpt><trkpt lat="37.329499221058484" lon="13.842906063567906"><ele>388.0</ele><time>2026-03-29T15:24:54.999Z</time></trkpt><trkpt lat="37.329403855142196" lon="13.842715772256994"><ele>388.0</ele><time>2026-03-29T15:24:55.999Z</time></trkpt><trkpt lat="37.3293282936514" lon="13.842510684181027"><ele>388.0</ele><time>2026-03-29T15:24:56.999Z</time></trkpt><trkpt lat="37.329292180409254" lon="13.842307448064467"><ele>387.0</ele><time>2026-03-29T15:24:57.999Z</time></trkpt><trkpt lat="37.329263974090345" lon="13.842098727554205"><ele>386.0</ele><time>2026-03-29T15:24:58.999Z</time></trkpt><trkpt lat="37.32925396714438" lon="13.841895345030414"><ele>385.0</ele><time>2026-03-29T15:24:59.999Z</time></trkpt><trkpt lat="37.32926835042014" lon="13.841694374853395"><ele>384.33333333333337</ele><time>2026-03-29T15:25:00.999Z</time></trkpt><trkpt lat="37.32930643538778" lon="13.841485951223941"><ele>383.6666666666667</ele><time>2026-03-29T15:25:01.999Z</time></trkpt><trkpt lat="37.32936334510488" lon="13.841266285055195"><ele>383.0</ele><time>2026-03-29T15:25:02.999Z</time></trkpt><trkpt lat="37.329420405989836" lon="13.841042286150458"><ele>381.0</ele><time>2026-03-29T15:25:03.999Z</time></trkpt><trkpt lat="37.329499928062745" lon="13.840834324715786"><ele>379.0</ele><time>2026-03-29T15:25:04.999Z</time></trkpt><trkpt lat="37.329575087493325" lon="13.840645460579685"><ele>377.0</ele><time>2026-03-29T15:25:05.999Z</time></trkpt><trkpt lat="37.32965109558655" lon="13.840474824276436"><ele>377.0</ele><time>2026-03-29T15:25:06.999Z</time></trkpt><trkpt lat="37.32972207587348" lon="13.840313546954416"><ele>377.0</ele><time>2026-03-29T15:25:07.999Z</time></trkpt><trkpt lat="37.32977686297405" lon="13.840170653634278"><ele>377.0</ele><time>2026-03-29T15:25:08.999Z</time></trkpt><trkpt lat="37.329816240846895" lon="13.840055638421672"><ele>377.0</ele><time>2026-03-29T15:25:09.999Z</time></trkpt><trkpt lat="37.329825361195745" lon="13.839959104742345"><ele>376.20000000000005</ele><time>2026-03-29T15:25:10.999Z</time></trkpt><trkpt lat="37.32980770855982" lon="13.839865343940396"><ele>375.4</ele><time>2026-03-29T15:25:11.999Z</time></trkpt><trkpt lat="37.32976266602874" lon="13.839768365935871"><ele>374.6</ele><time>2026-03-29T15:25:12.999Z</time></trkpt><trkpt lat="37.329692426473294" lon="13.8396770917896"><ele>373.79999999999995</ele><time>2026-03-29T15:25:13.999Z</time></trkpt><trkpt lat="37.3296043011432" lon="13.839587155382333"><ele>373.0</ele><time>2026-03-29T15:25:14.999Z</time></trkpt><trkpt lat="37.32951187679273" lon="13.839488367195676"><ele>373.0</ele><time>2026-03-29T15:25:15.999Z</time></trkpt><trkpt lat="37.32942611611797" lon="13.839382372803888"><ele>373.0</ele><time>2026-03-29T15:25:16.999Z</time></trkpt><trkpt lat="37.329361040533705" lon="13.839268385386564"><ele>373.0</ele><time>2026-03-29T15:25:17.999Z</time></trkpt><trkpt lat="37.32931868544082" lon="13.8391451813853"><ele>373.0</ele><time>2026-03-29T15:25:18.999Z</time></trkpt><trkpt lat="37.32929696595966" lon="13.839013292767914"><ele>373.0</ele><time>2026-03-29T15:25:19.999Z</time></trkpt><trkpt lat="37.32930080643163" lon="13.838875349745466"><ele>371.75</ele><time>2026-03-29T15:25:20.999Z</time></trkpt><trkpt lat="37.32934424052119" lon="13.83872798218526"><ele>370.5</ele><time>2026-03-29T15:25:21.998Z</time></trkpt><trkpt lat="37.32938940892929" lon="13.838576125056356"><ele>369.25</ele><time>2026-03-29T15:25:22.998Z</time></trkpt><trkpt lat="37.32943766500243" lon="13.83842086330585"><ele>368.0</ele><time>2026-03-29T15:25:23.998Z</time></trkpt><trkpt lat="37.32948562866639" lon="13.83827861048294"><ele>367.0</ele><time>2026-03-29T15:25:24.998Z</time></trkpt><trkpt lat="37.32953036174445" lon="13.838144729731752"><ele>366.0</ele><time>2026-03-29T15:25:25.998Z</time></trkpt><trkpt lat="37.32956324037127" lon="13.838041664438883"><ele>365.0</ele><time>2026-03-29T15:25:26.998Z</time></trkpt><trkpt lat="37.329595647463925" lon="13.83792449608643"><ele>364.0</ele><time>2026-03-29T15:25:28.998Z</time></trkpt><trkpt lat="37.32962424346686" lon="13.837823022416204"><ele>363.0</ele><time>2026-03-29T15:25:49.999Z</time></trkpt><trkpt lat="37.329492385966255" lon="13.837664599748635"><ele>362.3333333333333</ele><time>2026-03-29T15:25:51.999Z</time></trkpt><trkpt lat="37.329407309295185" lon="13.837596842271187"><ele>361.6666666666667</ele><time>2026-03-29T15:25:52.999Z</time></trkpt><trkpt lat="37.329335363486045" lon="13.837538786474347"><ele>361.0</ele><time>2026-03-29T15:25:53.999Z</time></trkpt><trkpt lat="37.32927840565679" lon="13.83749278582452"><ele>360.33333333333337</ele><time>2026-03-29T15:25:54.999Z</time></trkpt><trkpt lat="37.32920530585331" lon="13.837433748521214"><ele>359.6666666666667</ele><time>2026-03-29T15:25:56.999Z</time></trkpt><trkpt lat="37.32914507165992" lon="13.837385101872968"><ele>359.0</ele><time>2026-03-29T15:25:58.999Z</time></trkpt><trkpt lat="37.32908780867207" lon="13.837338854699457"><ele>359.0</ele><time>2026-03-29T15:26:01.999Z</time></trkpt><trkpt lat="37.329017872897246" lon="13.837281408011341"><ele>359.0</ele><time>2026-03-29T15:30:53.002Z</time></trkpt><trkpt lat="37.328911653035604" lon="13.837193196177875"><ele>359.0</ele><time>2026-03-29T15:30:55.002Z</time></trkpt><trkpt lat="37.32884345982762" lon="13.837133210554475"><ele>359.0</ele><time>2026-03-29T15:30:56.002Z</time></trkpt><trkpt lat="37.32876796524856" lon="13.837063296210763"><ele>359.0</ele><time>2026-03-29T15:30:57.002Z</time></trkpt><trkpt lat="37.328686068118515" lon="13.8369770160451"><ele>358.5</ele><time>2026-03-29T15:30:58.002Z</time></trkpt><trkpt lat="37.328601616424514" lon="13.836876552916127"><ele>358.0</ele><time>2026-03-29T15:30:59.002Z</time></trkpt><trkpt lat="37.328519118347714" lon="13.83676084064883"><ele>357.5</ele><time>2026-03-29T15:31:00.002Z</time></trkpt><trkpt lat="37.32843609755492" lon="13.836629746327917"><ele>357.0</ele><time>2026-03-29T15:31:01.002Z</time></trkpt><trkpt lat="37.328377052157094" lon="13.836473418492908"><ele>357.0</ele><time>2026-03-29T15:31:02.002Z</time></trkpt><trkpt lat="37.32829551861296" lon="13.836322343987328"><ele>357.0</ele><time>2026-03-29T15:31:03.002Z</time></trkpt><trkpt lat="37.32823415856224" lon="13.83614852376261"><ele>357.0</ele><time>2026-03-29T15:31:04.002Z</time></trkpt><trkpt lat="37.32817372332473" lon="13.835967503278876"><ele>356.0</ele><time>2026-03-29T15:31:05.002Z</time></trkpt><trkpt lat="37.32812656699437" lon="13.835773000732962"><ele>355.0</ele><time>2026-03-29T15:31:06.002Z</time></trkpt><trkpt lat="37.328063718360866" lon="13.835577378973783"><ele>354.0</ele><time>2026-03-29T15:31:07.002Z</time></trkpt><trkpt lat="37.327984949184355" lon="13.835384913076124"><ele>356.0</ele><time>2026-03-29T15:31:08.001Z</time></trkpt><trkpt lat="37.3279186629472" lon="13.83518101475617"><ele>358.0</ele><time>2026-03-29T15:31:09.001Z</time></trkpt><trkpt lat="37.327855983796375" lon="13.834972927529831"><ele>360.0</ele><time>2026-03-29T15:31:10.001Z</time></trkpt><trkpt lat="37.32779151287894" lon="13.834768249701183"><ele>360.0</ele><time>2026-03-29T15:31:11.001Z</time></trkpt><trkpt lat="37.32772692974209" lon="13.8345623251689"><ele>360.0</ele><time>2026-03-29T15:31:12.001Z</time></trkpt><trkpt lat="37.327662392708795" lon="13.834353947832453"><ele>360.0</ele><time>2026-03-29T15:31:13.001Z</time></trkpt><trkpt lat="37.32759966687228" lon="13.834146923199897"><ele>359.3333333333333</ele><time>2026-03-29T15:31:14.001Z</time></trkpt><trkpt lat="37.32753835030373" lon="13.833942315585661"><ele>358.66666666666663</ele><time>2026-03-29T15:31:15.001Z</time></trkpt><trkpt lat="37.32747376598124" lon="13.83375037520337"><ele>358.0</ele><time>2026-03-29T15:31:16.001Z</time></trkpt><trkpt lat="37.32739451692536" lon="13.83357582840445"><ele>357.0</ele><time>2026-03-29T15:31:17.001Z</time></trkpt><trkpt lat="37.327291723673106" lon="13.83342435003402"><ele>356.0</ele><time>2026-03-29T15:31:18.001Z</time></trkpt><trkpt lat="37.327169011048795" lon="13.833288520679856"><ele>355.0</ele><time>2026-03-29T15:31:19.001Z</time></trkpt><trkpt lat="37.32702038083991" lon="13.833203065717784"><ele>358.0</ele><time>2026-03-29T15:31:20Z</time></trkpt><trkpt lat="37.326863231600086" lon="13.833152527543309"><ele>361.0</ele><time>2026-03-29T15:31:21Z</time></trkpt><trkpt lat="37.32668704868004" lon="13.8331290264272"><ele>364.0</ele><time>2026-03-29T15:31:22Z</time></trkpt><trkpt lat="37.32649913142631" lon="13.83311507851652"><ele>364.66666666666663</ele><time>2026-03-29T15:31:23Z</time></trkpt><trkpt lat="37.3263007708086" lon="13.833097861789978"><ele>365.3333333333333</ele><time>2026-03-29T15:31:24Z</time></trkpt><trkpt lat="37.326093732426706" lon="13.83307730694984"><ele>366.0</ele><time>2026-03-29T15:31:25Z</time></trkpt><trkpt lat="37.32588774460236" lon="13.833057566698193"><ele>366.0</ele><time>2026-03-29T15:31:26Z</time></trkpt><trkpt lat="37.32568528050442" lon="13.833034419542875"><ele>366.0</ele><time>2026-03-29T15:31:27Z</time></trkpt><trkpt lat="37.3254858993848" lon="13.833010995845202"><ele>366.0</ele><time>2026-03-29T15:31:28Z</time></trkpt><trkpt lat="37.325291636824716" lon="13.832982804341414"><ele>370.6666666666667</ele><time>2026-03-29T15:31:29Z</time></trkpt><trkpt lat="37.32510837800087" lon="13.832936070886928"><ele>375.33333333333337</ele><time>2026-03-29T15:31:30Z</time></trkpt><trkpt lat="37.32493867182089" lon="13.8328570582671"><ele>380.0</ele><time>2026-03-29T15:31:31Z</time></trkpt><trkpt lat="37.32477821036485" lon="13.832748294372276"><ele>375.33333333333337</ele><time>2026-03-29T15:31:32Z</time></trkpt><trkpt lat="37.32463402394408" lon="13.832611130973799"><ele>370.6666666666667</ele><time>2026-03-29T15:31:33Z</time></trkpt><trkpt lat="37.324498349070545" lon="13.832440969604782"><ele>366.0</ele><time>2026-03-29T15:31:34Z</time></trkpt><trkpt lat="37.32436776612721" lon="13.832244869093735"><ele>366.0</ele><time>2026-03-29T15:31:35.001Z</time></trkpt><trkpt lat="37.3242414302098" lon="13.832031357533143"><ele>366.0</ele><time>2026-03-29T15:31:36.001Z</time></trkpt><trkpt lat="37.32411302405984" lon="13.831812304438033"><ele>366.0</ele><time>2026-03-29T15:31:37.001Z</time></trkpt><trkpt lat="37.3239770340969" lon="13.831599747638137"><ele>366.6666666666667</ele><time>2026-03-29T15:31:38.001Z</time></trkpt><trkpt lat="37.32383938047245" lon="13.83138228630679"><ele>367.33333333333337</ele><time>2026-03-29T15:31:39.001Z</time></trkpt><trkpt lat="37.32369855260478" lon="13.831162186398902"><ele>368.0</ele><time>2026-03-29T15:31:40.001Z</time></trkpt><trkpt lat="37.32356014170825" lon="13.830941669448833"><ele>364.6666666666667</ele><time>2026-03-29T15:31:41.001Z</time></trkpt><trkpt lat="37.32342544659179" lon="13.830723968867167"><ele>361.3333333333333</ele><time>2026-03-29T15:31:42.001Z</time></trkpt><trkpt lat="37.32329527370577" lon="13.830514184210474"><ele>358.0</ele><time>2026-03-29T15:31:43.001Z</time></trkpt><trkpt lat="37.323165112386995" lon="13.83030801876413"><ele>361.66666666666663</ele><time>2026-03-29T15:31:44.001Z</time></trkpt><trkpt lat="37.32304303252763" lon="13.830104465367892"><ele>365.3333333333333</ele><time>2026-03-29T15:31:45.001Z</time></trkpt><trkpt lat="37.322936088601296" lon="13.829895780190308"><ele>369.0</ele><time>2026-03-29T15:31:46.001Z</time></trkpt><trkpt lat="37.322848546453685" lon="13.829670340629255"><ele>369.0</ele><time>2026-03-29T15:31:47.001Z</time></trkpt><trkpt lat="37.32278129615214" lon="13.829422631497152"><ele>369.0</ele><time>2026-03-29T15:31:48.001Z</time></trkpt><trkpt lat="37.3227281081548" lon="13.829157881002944"><ele>369.0</ele><time>2026-03-29T15:31:49.001Z</time></trkpt><trkpt lat="37.32268319652614" lon="13.828886131806998"><ele>367.3333333333333</ele><time>2026-03-29T15:31:50.001Z</time></trkpt><trkpt lat="37.32263179329271" lon="13.828616808133727"><ele>365.66666666666663</ele><time>2026-03-29T15:31:51.001Z</time></trkpt><trkpt lat="37.32258124802671" lon="13.828353503001074"><ele>364.0</ele><time>2026-03-29T15:31:52.001Z</time></trkpt><trkpt lat="37.32253013435705" lon="13.828096662363423"><ele>361.66666666666663</ele><time>2026-03-29T15:31:53.001Z</time></trkpt><trkpt lat="37.32248182225626" lon="13.827854450378648"><ele>359.3333333333333</ele><time>2026-03-29T15:31:54.001Z</time></trkpt><trkpt lat="37.322444809251216" lon="13.82763119058072"><ele>357.0</ele><time>2026-03-29T15:31:55.001Z</time></trkpt><trkpt lat="37.322435462586355" lon="13.827419257891439"><ele>356.3333333333333</ele><time>2026-03-29T15:31:56.001Z</time></trkpt><trkpt lat="37.322464021966525" lon="13.827208098244512"><ele>355.66666666666663</ele><time>2026-03-29T15:31:57.001Z</time></trkpt><trkpt lat="37.32252344518347" lon="13.826999172582958"><ele>355.0</ele><time>2026-03-29T15:31:58.001Z</time></trkpt><trkpt lat="37.32261306191999" lon="13.82679975192603"><ele>355.0</ele><time>2026-03-29T15:31:59.001Z</time></trkpt><trkpt lat="37.32271071153317" lon="13.8266044587632"><ele>355.0</ele><time>2026-03-29T15:32:00.001Z</time></trkpt><trkpt lat="37.322795012249536" lon="13.826414541818659"><ele>355.0</ele><time>2026-03-29T15:32:01.001Z</time></trkpt><trkpt lat="37.322853595828924" lon="13.826217855021893"><ele>355.0</ele><time>2026-03-29T15:32:02.001Z</time></trkpt><trkpt lat="37.322876332184194" lon="13.826013372667282"><ele>355.0</ele><time>2026-03-29T15:32:03.001Z</time></trkpt><trkpt lat="37.32286682721411" lon="13.825807670730274"><ele>355.0</ele><time>2026-03-29T15:32:04.001Z</time></trkpt><trkpt lat="37.32282951730102" lon="13.825606461695784"><ele>355.3333333333333</ele><time>2026-03-29T15:32:05.001Z</time></trkpt><trkpt lat="37.32276301290734" lon="13.825411923740296"><ele>355.6666666666667</ele><time>2026-03-29T15:32:06.001Z</time></trkpt><trkpt lat="37.3226712023877" lon="13.825225632717885"><ele>356.0</ele><time>2026-03-29T15:32:07.001Z</time></trkpt><trkpt lat="37.32255578670788" lon="13.825051090796228"><ele>354.6666666666667</ele><time>2026-03-29T15:32:08.001Z</time></trkpt><trkpt lat="37.32242606068749" lon="13.82489141314891"><ele>353.3333333333333</ele><time>2026-03-29T15:32:09.001Z</time></trkpt><trkpt lat="37.32231313511101" lon="13.82473364373947"><ele>352.0</ele><time>2026-03-29T15:32:10.001Z</time></trkpt><trkpt lat="37.32224310316583" lon="13.824560280457748"><ele>355.0</ele><time>2026-03-29T15:32:11.001Z</time></trkpt><trkpt lat="37.32221023749855" lon="13.824359668731134"><ele>358.0</ele><time>2026-03-29T15:32:12.001Z</time></trkpt><trkpt lat="37.32219483193509" lon="13.824128972992028"><ele>361.0</ele><time>2026-03-29T15:32:13.001Z</time></trkpt><trkpt lat="37.32217485590504" lon="13.823880453040683"><ele>361.0</ele><time>2026-03-29T15:32:14.001Z</time></trkpt><trkpt lat="37.322142522515435" lon="13.823626719023382"><ele>361.0</ele><time>2026-03-29T15:32:15.001Z</time></trkpt><trkpt lat="37.32210507077164" lon="13.823372335957508"><ele>361.0</ele><time>2026-03-29T15:32:16.001Z</time></trkpt><trkpt lat="37.32205267620296" lon="13.823110067129832"><ele>360.0</ele><time>2026-03-29T15:32:17.001Z</time></trkpt><trkpt lat="37.32198505801194" lon="13.82284593704753"><ele>359.0</ele><time>2026-03-29T15:32:18.001Z</time></trkpt><trkpt lat="37.32190844581632" lon="13.822580141481259"><ele>358.0</ele><time>2026-03-29T15:32:19.001Z</time></trkpt><trkpt lat="37.32182410491055" lon="13.822314352935496"><ele>355.0</ele><time>2026-03-29T15:32:20.001Z</time></trkpt><trkpt lat="37.32173520379902" lon="13.82204698621925"><ele>352.0</ele><time>2026-03-29T15:32:21.001Z</time></trkpt><trkpt lat="37.321643355167645" lon="13.82177757709038"><ele>349.5</ele><time>2026-03-29T15:32:22.001Z</time></trkpt><trkpt lat="37.32155018300573" lon="13.821506855252265"><ele>347.0</ele><time>2026-03-29T15:32:23.001Z</time></trkpt><trkpt lat="37.3214578146965" lon="13.821239378632518"><ele>351.0</ele><time>2026-03-29T15:32:24.001Z</time></trkpt><trkpt lat="37.321366739180476" lon="13.820974609042853"><ele>355.0</ele><time>2026-03-29T15:32:25.001Z</time></trkpt><trkpt lat="37.32127567162716" lon="13.820712377397626"><ele>355.0</ele><time>2026-03-29T15:32:26.001Z</time></trkpt><trkpt lat="37.3211858955558" lon="13.820451514274042"><ele>355.0</ele><time>2026-03-29T15:32:27.001Z</time></trkpt><trkpt lat="37.32109727962473" lon="13.820190410238904"><ele>353.66666666666663</ele><time>2026-03-29T15:32:28.001Z</time></trkpt><trkpt lat="37.32100879855324" lon="13.819932448861383"><ele>352.3333333333333</ele><time>2026-03-29T15:32:29.001Z</time></trkpt><trkpt lat="37.32092025324688" lon="13.819678357675524"><ele>351.0</ele><time>2026-03-29T15:32:30.001Z</time></trkpt><trkpt lat="37.32083632754851" lon="13.819436161857247"><ele>348.3333333333333</ele><time>2026-03-29T15:32:31.001Z</time></trkpt><trkpt lat="37.32075785471762" lon="13.819202239778901"><ele>345.66666666666663</ele><time>2026-03-29T15:32:32.001Z</time></trkpt><trkpt lat="37.32068381573932" lon="13.818980357893915"><ele>343.0</ele><time>2026-03-29T15:32:33.001Z</time></trkpt><trkpt lat="37.32060598811295" lon="13.818758755249169"><ele>344.0</ele><time>2026-03-29T15:32:34.001Z</time></trkpt><trkpt lat="37.32051290395803" lon="13.818554642764221"><ele>345.0</ele><time>2026-03-29T15:32:35.001Z</time></trkpt><trkpt lat="37.320399340355905" lon="13.818362766924066"><ele>346.0</ele><time>2026-03-29T15:32:36.001Z</time></trkpt><trkpt lat="37.32027643270275" lon="13.818179965017016"><ele>346.0</ele><time>2026-03-29T15:32:37.001Z</time></trkpt><trkpt lat="37.32013748114425" lon="13.818016123421566"><ele>346.0</ele><time>2026-03-29T15:32:38.001Z</time></trkpt><trkpt lat="37.319982133853976" lon="13.81786621324819"><ele>346.0</ele><time>2026-03-29T15:32:39.001Z</time></trkpt><trkpt lat="37.31980547797102" lon="13.817737961868986"><ele>343.0</ele><time>2026-03-29T15:32:40.001Z</time></trkpt><trkpt lat="37.31961208808787" lon="13.817620278369972"><ele>340.0</ele><time>2026-03-29T15:32:41.001Z</time></trkpt><trkpt lat="37.319410067095724" lon="13.817504085195472"><ele>337.0</ele><time>2026-03-29T15:32:42.001Z</time></trkpt><trkpt lat="37.31920318051535" lon="13.81738241222429"><ele>337.0</ele><time>2026-03-29T15:32:43.001Z</time></trkpt><trkpt lat="37.318994310576656" lon="13.817256343414691"><ele>337.0</ele><time>2026-03-29T15:32:44.002Z</time></trkpt><trkpt lat="37.31878334639974" lon="13.817127833849856"><ele>337.5</ele><time>2026-03-29T15:32:45.002Z</time></trkpt><trkpt lat="37.31856816769149" lon="13.816999397140139"><ele>338.0</ele><time>2026-03-29T15:32:46.002Z</time></trkpt><trkpt lat="37.31835458514638" lon="13.816870860812896"><ele>337.5</ele><time>2026-03-29T15:32:47.002Z</time></trkpt><trkpt lat="37.318140493229606" lon="13.8167411383129"><ele>337.0</ele><time>2026-03-29T15:32:48.002Z</time></trkpt><trkpt lat="37.31792377788692" lon="13.816613403660346"><ele>337.0</ele><time>2026-03-29T15:32:49.002Z</time></trkpt><trkpt lat="37.31770741567756" lon="13.816485882114643"><ele>337.0</ele><time>2026-03-29T15:32:50.002Z</time></trkpt><trkpt lat="37.317489982004645" lon="13.81635701022007"><ele>337.0</ele><time>2026-03-29T15:32:51.002Z</time></trkpt><trkpt lat="37.317273821570744" lon="13.816227687650162"><ele>337.0</ele><time>2026-03-29T15:32:52.002Z</time></trkpt><trkpt lat="37.31706508276688" lon="13.816080858728792"><ele>333.5</ele><time>2026-03-29T15:32:53.002Z</time></trkpt><trkpt lat="37.31685082774939" lon="13.81595309886078"><ele>330.0</ele><time>2026-03-29T15:32:54.002Z</time></trkpt><trkpt lat="37.31663838707409" lon="13.815825538360798"><ele>330.0</ele><time>2026-03-29T15:32:55.002Z</time></trkpt><trkpt lat="37.316417953934135" lon="13.81571466747954"><ele>330.0</ele><time>2026-03-29T15:32:56.002Z</time></trkpt><trkpt lat="37.316204156017676" lon="13.815586927057053"><ele>329.0</ele><time>2026-03-29T15:32:57.002Z</time></trkpt><trkpt lat="37.31599617764873" lon="13.815440488029052"><ele>328.0</ele><time>2026-03-29T15:32:58.002Z</time></trkpt><trkpt lat="37.315779913966225" lon="13.815311517251573"><ele>329.5</ele><time>2026-03-29T15:32:59.002Z</time></trkpt><trkpt lat="37.31555591480434" lon="13.815200976910788"><ele>331.0</ele><time>2026-03-29T15:33:00.002Z</time></trkpt><trkpt lat="37.31533791417564" lon="13.815068749626395"><ele>328.0</ele><time>2026-03-29T15:33:01.002Z</time></trkpt><trkpt lat="37.31511851186557" lon="13.814937169870305"><ele>325.0</ele><time>2026-03-29T15:33:02.002Z</time></trkpt><trkpt lat="37.314898998709666" lon="13.81480526973652"><ele>326.0</ele><time>2026-03-29T15:33:03.002Z</time></trkpt><trkpt lat="37.314681346843365" lon="13.814673115628407"><ele>327.0</ele><time>2026-03-29T15:33:04.002Z</time></trkpt><trkpt lat="37.31446254588361" lon="13.814540099651245"><ele>327.0</ele><time>2026-03-29T15:33:05.002Z</time></trkpt><trkpt lat="37.31424527497912" lon="13.814409915493387"><ele>327.0</ele><time>2026-03-29T15:33:06.002Z</time></trkpt><trkpt lat="37.31402950530662" lon="13.814281118077108"><ele>326.0</ele><time>2026-03-29T15:33:07.002Z</time></trkpt><trkpt lat="37.313815672824084" lon="13.814154400176594"><ele>325.0</ele><time>2026-03-29T15:33:08.002Z</time></trkpt><trkpt lat="37.31360316972926" lon="13.814028416783259"><ele>325.0</ele><time>2026-03-29T15:33:09.002Z</time></trkpt><trkpt lat="37.31339090570471" lon="13.813904663699534"><ele>325.0</ele><time>2026-03-29T15:33:10.002Z</time></trkpt><trkpt lat="37.3131810844518" lon="13.813779310374434"><ele>324.5</ele><time>2026-03-29T15:33:11.002Z</time></trkpt><trkpt lat="37.312972414226905" lon="13.813650882877429"><ele>324.0</ele><time>2026-03-29T15:33:12.002Z</time></trkpt><trkpt lat="37.31276655614921" lon="13.813522849414174"><ele>323.5</ele><time>2026-03-29T15:33:13.002Z</time></trkpt><trkpt lat="37.31256162261488" lon="13.813399039054863"><ele>323.0</ele><time>2026-03-29T15:33:14Z</time></trkpt><trkpt lat="37.31235813379763" lon="13.81327442576131"><ele>326.0</ele><time>2026-03-29T15:33:15Z</time></trkpt><trkpt lat="37.31215557309838" lon="13.813153335253892"><ele>329.0</ele><time>2026-03-29T15:33:16Z</time></trkpt><trkpt lat="37.31194751591572" lon="13.813039694867438"><ele>329.0</ele><time>2026-03-29T15:33:17Z</time></trkpt><trkpt lat="37.31172753337366" lon="13.812944449896012"><ele>329.0</ele><time>2026-03-29T15:33:18Z</time></trkpt><trkpt lat="37.311498337292946" lon="13.812856299229805"><ele>330.5</ele><time>2026-03-29T15:33:19Z</time></trkpt><trkpt lat="37.311262070193976" lon="13.812771669946793"><ele>332.0</ele><time>2026-03-29T15:33:20Z</time></trkpt><trkpt lat="37.31102318569382" lon="13.812689086505703"><ele>330.5</ele><time>2026-03-29T15:33:21Z</time></trkpt><trkpt lat="37.31078144740553" lon="13.812603174227757"><ele>329.0</ele><time>2026-03-29T15:33:22Z</time></trkpt><trkpt lat="37.310543805098014" lon="13.812519144983312"><ele>329.0</ele><time>2026-03-29T15:33:23Z</time></trkpt><trkpt lat="37.31031218151518" lon="13.812437645398804"><ele>329.0</ele><time>2026-03-29T15:33:24Z</time></trkpt><trkpt lat="37.3100857463342" lon="13.812356433239666"><ele>329.0</ele><time>2026-03-29T15:33:25Z</time></trkpt><trkpt lat="37.309861054559285" lon="13.812273114289333"><ele>329.0</ele><time>2026-03-29T15:33:26Z</time></trkpt><trkpt lat="37.30963669539358" lon="13.812192186965351"><ele>328.5</ele><time>2026-03-29T15:33:27Z</time></trkpt><trkpt lat="37.30941368487657" lon="13.812114543120579"><ele>328.0</ele><time>2026-03-29T15:33:28Z</time></trkpt><trkpt lat="37.30919247048806" lon="13.812034918554202"><ele>328.0</ele><time>2026-03-29T15:33:29Z</time></trkpt><trkpt lat="37.3089716234301" lon="13.811954017294154"><ele>328.0</ele><time>2026-03-29T15:33:30Z</time></trkpt><trkpt lat="37.30875110796474" lon="13.811872955967704"><ele>329.0</ele><time>2026-03-29T15:33:31Z</time></trkpt><trkpt lat="37.30853287741101" lon="13.811793145963692"><ele>330.0</ele><time>2026-03-29T15:33:32Z</time></trkpt><trkpt lat="37.30831708395907" lon="13.811714892684321"><ele>330.0</ele><time>2026-03-29T15:33:33Z</time></trkpt><trkpt lat="37.30810557772185" lon="13.811638409596718"><ele>330.0</ele><time>2026-03-29T15:33:34Z</time></trkpt><trkpt lat="37.3078965575402" lon="13.811563530474004"><ele>330.0</ele><time>2026-03-29T15:33:35Z</time></trkpt><trkpt lat="37.30769828868454" lon="13.811493233079606"><ele>330.0</ele><time>2026-03-29T15:33:36Z</time></trkpt><trkpt lat="37.30751580169049" lon="13.811428818032757"><ele>330.0</ele><time>2026-03-29T15:33:37Z</time></trkpt><trkpt lat="37.3073457994704" lon="13.81136771114188"><ele>330.0</ele><time>2026-03-29T15:33:38Z</time></trkpt><trkpt lat="37.30718880412601" lon="13.811311183052004"><ele>330.5</ele><time>2026-03-29T15:33:39Z</time></trkpt><trkpt lat="37.30704216689263" lon="13.811257974077735"><ele>331.0</ele><time>2026-03-29T15:33:40Z</time></trkpt><trkpt lat="37.30691216159442" lon="13.811210440119854"><ele>331.5</ele><time>2026-03-29T15:33:41Z</time></trkpt><trkpt lat="37.30679939001895" lon="13.81116662891655"><ele>332.0</ele><time>2026-03-29T15:33:42Z</time></trkpt><trkpt lat="37.306706924428866" lon="13.811125757090052"><ele>332.0</ele><time>2026-03-29T15:33:43Z</time></trkpt><trkpt lat="37.30664152794464" lon="13.81108236624464"><ele>332.0</ele><time>2026-03-29T15:33:44Z</time></trkpt><trkpt lat="37.30659122500553" lon="13.81097538021857"><ele>332.0</ele><time>2026-03-29T15:33:46Z</time></trkpt><trkpt lat="37.3066315521974" lon="13.810890695045009"><ele>332.0</ele><time>2026-03-29T15:33:48Z</time></trkpt><trkpt lat="37.30674695943403" lon="13.81077752506324"><ele>332.0</ele><time>2026-03-29T15:33:50Z</time></trkpt><trkpt lat="37.3068290681553" lon="13.810689620736262"><ele>331.75</ele><time>2026-03-29T15:33:51Z</time></trkpt><trkpt lat="37.30692160947102" lon="13.810593272786512"><ele>331.5</ele><time>2026-03-29T15:33:52Z</time></trkpt><trkpt lat="37.307018263807834" lon="13.810494725333482"><ele>331.25</ele><time>2026-03-29T15:33:53Z</time></trkpt><trkpt lat="37.30712588808341" lon="13.81038847356252"><ele>331.0</ele><time>2026-03-29T15:33:54Z</time></trkpt><trkpt lat="37.307241652564834" lon="13.810280583435512"><ele>330.75</ele><time>2026-03-29T15:33:55Z</time></trkpt><trkpt lat="37.30735635797928" lon="13.810187066342534"><ele>330.5</ele><time>2026-03-29T15:33:56Z</time></trkpt><trkpt lat="37.30747404014786" lon="13.810120924526126"><ele>330.25</ele><time>2026-03-29T15:33:57Z</time></trkpt><trkpt lat="37.30760045476479" lon="13.810094854867353"><ele>330.0</ele><time>2026-03-29T15:33:58Z</time></trkpt><trkpt lat="37.3077347279757" lon="13.810082061409497"><ele>330.5</ele><time>2026-03-29T15:33:59Z</time></trkpt><trkpt lat="37.30787991680886" lon="13.810067889454938"><ele>331.0</ele><time>2026-03-29T15:34:00Z</time></trkpt><trkpt lat="37.3080286284284" lon="13.810037311224773"><ele>331.5</ele><time>2026-03-29T15:34:01Z</time></trkpt><trkpt lat="37.30817646826312" lon="13.809990988412578"><ele>332.0</ele><time>2026-03-29T15:34:02Z</time></trkpt><trkpt lat="37.308324373890656" lon="13.809939084800753"><ele>332.0</ele><time>2026-03-29T15:34:03Z</time></trkpt><trkpt lat="37.30846951944914" lon="13.809883755561065"><ele>332.0</ele><time>2026-03-29T15:34:04Z</time></trkpt><trkpt lat="37.30861405281539" lon="13.80982863439792"><ele>332.0</ele><time>2026-03-29T15:34:05Z</time></trkpt><trkpt lat="37.30875438169012" lon="13.809776427589021"><ele>332.0</ele><time>2026-03-29T15:34:06Z</time></trkpt><trkpt lat="37.308890362963695" lon="13.809726981115352"><ele>331.5</ele><time>2026-03-29T15:34:07Z</time></trkpt><trkpt lat="37.309024823624775" lon="13.809664829337516"><ele>331.0</ele><time>2026-03-29T15:34:08Z</time></trkpt><trkpt lat="37.30915399806187" lon="13.809582161567972"><ele>330.5</ele><time>2026-03-29T15:34:09Z</time></trkpt><trkpt lat="37.30927758895228" lon="13.809477692359685"><ele>330.0</ele><time>2026-03-29T15:34:10Z</time></trkpt><trkpt lat="37.30938806104506" lon="13.809352774262642"><ele>331.0</ele><time>2026-03-29T15:34:11Z</time></trkpt><trkpt lat="37.3094824169564" lon="13.809217248825652"><ele>332.0</ele><time>2026-03-29T15:34:12.001Z</time></trkpt><trkpt lat="37.30956523452406" lon="13.809075344261048"><ele>333.0</ele><time>2026-03-29T15:34:13.001Z</time></trkpt><trkpt lat="37.30963995690128" lon="13.808939058463851"><ele>334.0</ele><time>2026-03-29T15:34:14.001Z</time></trkpt><trkpt lat="37.30970117486411" lon="13.808812077548103"><ele>334.0</ele><time>2026-03-29T15:34:15.001Z</time></trkpt><trkpt lat="37.30973418113344" lon="13.80868148238227"><ele>334.0</ele><time>2026-03-29T15:34:16.001Z</time></trkpt><trkpt lat="37.3097387801184" lon="13.808533179036088"><ele>334.0</ele><time>2026-03-29T15:34:17.001Z</time></trkpt><trkpt lat="37.30971421200774" lon="13.808371520706357"><ele>334.0</ele><time>2026-03-29T15:34:18.001Z</time></trkpt><trkpt lat="37.30967177236385" lon="13.808194060848209"><ele>334.0</ele><time>2026-03-29T15:34:19.001Z</time></trkpt><trkpt lat="37.309628345210314" lon="13.8080031835408"><ele>334.0</ele><time>2026-03-29T15:34:20.001Z</time></trkpt><trkpt lat="37.30959651948252" lon="13.80782228873593"><ele>334.0</ele><time>2026-03-29T15:34:21.001Z</time></trkpt><trkpt lat="37.309570400308864" lon="13.807651336398497"><ele>334.0</ele><time>2026-03-29T15:34:22.001Z</time></trkpt><trkpt lat="37.30956072466854" lon="13.807480320571814"><ele>334.0</ele><time>2026-03-29T15:34:23.001Z</time></trkpt><trkpt lat="37.309582393835115" lon="13.807304549730988"><ele>334.0</ele><time>2026-03-29T15:34:24.001Z</time></trkpt><trkpt lat="37.30964369437333" lon="13.807130350971748"><ele>334.0</ele><time>2026-03-29T15:34:25.001Z</time></trkpt><trkpt lat="37.309687551276994" lon="13.806928901417818"><ele>332.3333333333333</ele><time>2026-03-29T15:34:26.001Z</time></trkpt><trkpt lat="37.30975470624125" lon="13.806722521020228"><ele>330.6666666666667</ele><time>2026-03-29T15:34:27.001Z</time></trkpt><trkpt lat="37.30982355153906" lon="13.806511779954297"><ele>329.0</ele><time>2026-03-29T15:34:28.001Z</time></trkpt><trkpt lat="37.309890948759325" lon="13.806301651642558"><ele>329.0</ele><time>2026-03-29T15:34:29.001Z</time></trkpt><trkpt lat="37.30995692597567" lon="13.806091085355918"><ele>329.0</ele><time>2026-03-29T15:34:30.001Z</time></trkpt><trkpt lat="37.31002361579694" lon="13.805880961967288"><ele>329.0</ele><time>2026-03-29T15:34:31.001Z</time></trkpt><trkpt lat="37.31008993784142" lon="13.805674517084544"><ele>329.33333333333337</ele><time>2026-03-29T15:34:32.001Z</time></trkpt><trkpt lat="37.31015414824471" lon="13.805469821970755"><ele>329.6666666666667</ele><time>2026-03-29T15:34:33.001Z</time></trkpt><trkpt lat="37.31021605542108" lon="13.805264698941425"><ele>330.0</ele><time>2026-03-29T15:34:34.001Z</time></trkpt><trkpt lat="37.31027687560387" lon="13.805061842268563"><ele>330.0</ele><time>2026-03-29T15:34:35.001Z</time></trkpt><trkpt lat="37.3103389529196" lon="13.804857008459072"><ele>330.0</ele><time>2026-03-29T15:34:36.001Z</time></trkpt><trkpt lat="37.310400991399746" lon="13.804655731246406"><ele>330.0</ele><time>2026-03-29T15:34:37.001Z</time></trkpt><trkpt lat="37.31046255536059" lon="13.804456907909298"><ele>329.0</ele><time>2026-03-29T15:34:38.001Z</time></trkpt><trkpt lat="37.31052362986749" lon="13.804262960610624"><ele>328.0</ele><time>2026-03-29T15:34:39.001Z</time></trkpt><trkpt lat="37.310583426588416" lon="13.804070292312046"><ele>327.0</ele><time>2026-03-29T15:34:40.001Z</time></trkpt><trkpt lat="37.31064062349153" lon="13.803885298032302"><ele>327.0</ele><time>2026-03-29T15:34:41.001Z</time></trkpt><trkpt lat="37.31069770977652" lon="13.803702521406034"><ele>327.0</ele><time>2026-03-29T15:34:42.001Z</time></trkpt><trkpt lat="37.310759056807285" lon="13.803527554549774"><ele>327.0</ele><time>2026-03-29T15:34:43.001Z</time></trkpt><trkpt lat="37.310834926423404" lon="13.803363207387743"><ele>327.25</ele><time>2026-03-29T15:34:44.001Z</time></trkpt><trkpt lat="37.310924886606905" lon="13.803209632087418"><ele>327.5</ele><time>2026-03-29T15:34:45.001Z</time></trkpt><trkpt lat="37.31102486778745" lon="13.80306929056847"><ele>327.75</ele><time>2026-03-29T15:34:46.001Z</time></trkpt><trkpt lat="37.31113068550625" lon="13.802942008301951"><ele>328.0</ele><time>2026-03-29T15:34:47.001Z</time></trkpt><trkpt lat="37.31124183589562" lon="13.802837049376988"><ele>328.0</ele><time>2026-03-29T15:34:48.001Z</time></trkpt><trkpt lat="37.311353371222374" lon="13.80274649328557"><ele>328.0</ele><time>2026-03-29T15:34:49.001Z</time></trkpt><trkpt lat="37.31145879907164" lon="13.802657045408314"><ele>328.0</ele><time>2026-03-29T15:34:50.001Z</time></trkpt><trkpt lat="37.31155785915773" lon="13.802565938417585"><ele>328.0</ele><time>2026-03-29T15:34:51.001Z</time></trkpt><trkpt lat="37.31164929511877" lon="13.80247247246313"><ele>328.0</ele><time>2026-03-29T15:34:52.001Z</time></trkpt><trkpt lat="37.31173625761459" lon="13.802375699841747"><ele>328.0</ele><time>2026-03-29T15:34:53.001Z</time></trkpt><trkpt lat="37.311820147295414" lon="13.802274148035888"><ele>328.0</ele><time>2026-03-29T15:34:54.001Z</time></trkpt><trkpt lat="37.3118903585812" lon="13.802158448590626"><ele>328.0</ele><time>2026-03-29T15:34:55.001Z</time></trkpt><trkpt lat="37.31195137616877" lon="13.802020323825504"><ele>328.0</ele><time>2026-03-29T15:34:56.001Z</time></trkpt><trkpt lat="37.31203241554468" lon="13.801874236545864"><ele>328.0</ele><time>2026-03-29T15:34:57.001Z</time></trkpt><trkpt lat="37.31208185626788" lon="13.801706980469417"><ele>328.0</ele><time>2026-03-29T15:34:58.001Z</time></trkpt><trkpt lat="37.31214172401022" lon="13.801547621397544"><ele>328.0</ele><time>2026-03-29T15:34:59.001Z</time></trkpt><trkpt lat="37.31219810366747" lon="13.801379864652997"><ele>328.0</ele><time>2026-03-29T15:35:00.001Z</time></trkpt><trkpt lat="37.31225058287994" lon="13.801215121070305"><ele>328.0</ele><time>2026-03-29T15:35:01.001Z</time></trkpt><trkpt lat="37.31229738777519" lon="13.801054775240518"><ele>328.0</ele><time>2026-03-29T15:35:02.001Z</time></trkpt><trkpt lat="37.31233166508963" lon="13.800891964816822"><ele>328.0</ele><time>2026-03-29T15:35:03.001Z</time></trkpt><trkpt lat="37.312365545648056" lon="13.800741790060336"><ele>328.0</ele><time>2026-03-29T15:35:04.001Z</time></trkpt><trkpt lat="37.3124072466896" lon="13.800608230370162"><ele>328.0</ele><time>2026-03-29T15:35:05.001Z</time></trkpt><trkpt lat="37.31245784714472" lon="13.80047349060235"><ele>328.0</ele><time>2026-03-29T15:35:06.001Z</time></trkpt><trkpt lat="37.31250974954996" lon="13.800335307411943"><ele>328.0</ele><time>2026-03-29T15:35:07.001Z</time></trkpt><trkpt lat="37.312558301693834" lon="13.800191556690612"><ele>328.79999999999995</ele><time>2026-03-29T15:35:08.001Z</time></trkpt><trkpt lat="37.31260393346133" lon="13.800047249663303"><ele>329.6</ele><time>2026-03-29T15:35:09.001Z</time></trkpt><trkpt lat="37.31264815326766" lon="13.799921042217674"><ele>330.4</ele><time>2026-03-29T15:35:10.001Z</time></trkpt><trkpt lat="37.312691910572575" lon="13.799802257621186"><ele>331.20000000000005</ele><time>2026-03-29T15:35:11.002Z</time></trkpt><trkpt lat="37.312731785948635" lon="13.799673673912762"><ele>332.0</ele><time>2026-03-29T15:35:12.002Z</time></trkpt><trkpt lat="37.3127615352375" lon="13.799529472384055"><ele>332.0</ele><time>2026-03-29T15:35:13.002Z</time></trkpt><trkpt lat="37.31279102453101" lon="13.799364840327591"><ele>332.0</ele><time>2026-03-29T15:35:14.002Z</time></trkpt><trkpt lat="37.31283240819874" lon="13.799189159704577"><ele>332.0</ele><time>2026-03-29T15:35:15.002Z</time></trkpt><trkpt lat="37.31288532381243" lon="13.799011679194605"><ele>332.0</ele><time>2026-03-29T15:35:16.002Z</time></trkpt><trkpt lat="37.31294127177078" lon="13.798835502042369"><ele>332.5</ele><time>2026-03-29T15:35:17.002Z</time></trkpt><trkpt lat="37.31299447542641" lon="13.798661248489601"><ele>333.0</ele><time>2026-03-29T15:35:18.002Z</time></trkpt><trkpt lat="37.31304122464825" lon="13.798493612651148"><ele>333.5</ele><time>2026-03-29T15:35:19.002Z</time></trkpt><trkpt lat="37.31307361659317" lon="13.798332234398595"><ele>334.0</ele><time>2026-03-29T15:35:19.999Z</time></trkpt><trkpt lat="37.313094034421034" lon="13.798170604198075"><ele>334.5</ele><time>2026-03-29T15:35:20.999Z</time></trkpt><trkpt lat="37.313098104033315" lon="13.79800679531664"><ele>335.0</ele><time>2026-03-29T15:35:21.999Z</time></trkpt><trkpt lat="37.313074405487235" lon="13.797850678368622"><ele>335.5</ele><time>2026-03-29T15:35:22.999Z</time></trkpt><trkpt lat="37.3130255352803" lon="13.797698829870486"><ele>336.0</ele><time>2026-03-29T15:35:23.999Z</time></trkpt><trkpt lat="37.31295355411609" lon="13.79755521462286"><ele>336.0</ele><time>2026-03-29T15:35:24.999Z</time></trkpt><trkpt lat="37.31285976477787" lon="13.797409744884858"><ele>336.0</ele><time>2026-03-29T15:35:25.999Z</time></trkpt><trkpt lat="37.31275067317668" lon="13.797255696818151"><ele>336.0</ele><time>2026-03-29T15:35:26.999Z</time></trkpt><trkpt lat="37.312642001139004" lon="13.79709964119636"><ele>336.0</ele><time>2026-03-29T15:35:27.999Z</time></trkpt><trkpt lat="37.31253623270678" lon="13.796949967977598"><ele>336.0</ele><time>2026-03-29T15:35:28.999Z</time></trkpt><trkpt lat="37.312439974997666" lon="13.796813218244077"><ele>336.0</ele><time>2026-03-29T15:35:29.999Z</time></trkpt><trkpt lat="37.3123479311438" lon="13.796678968254966"><ele>336.0</ele><time>2026-03-29T15:35:30.999Z</time></trkpt><trkpt lat="37.312262847665956" lon="13.796549291893001"><ele>335.0</ele><time>2026-03-29T15:35:31.999Z</time></trkpt><trkpt lat="37.312183803180886" lon="13.796421787745901"><ele>334.0</ele><time>2026-03-29T15:35:32.999Z</time></trkpt><trkpt lat="37.31211598024536" lon="13.796294863521867"><ele>333.0</ele><time>2026-03-29T15:35:33.999Z</time></trkpt><trkpt lat="37.312060437570835" lon="13.796153360061176"><ele>332.0</ele><time>2026-03-29T15:35:34.999Z</time></trkpt><trkpt lat="37.31202726055465" lon="13.795997457118323"><ele>334.0</ele><time>2026-03-29T15:35:35.999Z</time></trkpt><trkpt lat="37.31201577913063" lon="13.795819808014876"><ele>336.0</ele><time>2026-03-29T15:35:36.999Z</time></trkpt><trkpt lat="37.312022886412734" lon="13.795630769422035"><ele>338.0</ele><time>2026-03-29T15:35:37.999Z</time></trkpt><trkpt lat="37.31204887027167" lon="13.795436601534261"><ele>340.0</ele><time>2026-03-29T15:35:38.999Z</time></trkpt><trkpt lat="37.312090411269395" lon="13.795239988674984"><ele>341.0</ele><time>2026-03-29T15:35:39.999Z</time></trkpt><trkpt lat="37.31214338653627" lon="13.795038348367175"><ele>342.0</ele><time>2026-03-29T15:35:40.999Z</time></trkpt><trkpt lat="37.31219555070069" lon="13.794826843992954"><ele>343.0</ele><time>2026-03-29T15:35:42Z</time></trkpt><trkpt lat="37.31224288205117" lon="13.794609043543401"><ele>340.3333333333333</ele><time>2026-03-29T15:35:43Z</time></trkpt><trkpt lat="37.31227212690431" lon="13.794395910076402"><ele>337.6666666666667</ele><time>2026-03-29T15:35:44Z</time></trkpt><trkpt lat="37.312279816441915" lon="13.794185113777134"><ele>335.0</ele><time>2026-03-29T15:35:45Z</time></trkpt><trkpt lat="37.312264388597505" lon="13.793981103699691"><ele>337.33333333333337</ele><time>2026-03-29T15:35:46Z</time></trkpt><trkpt lat="37.31223691004111" lon="13.793781962201665"><ele>339.6666666666667</ele><time>2026-03-29T15:35:47Z</time></trkpt><trkpt lat="37.31219679713846" lon="13.793593724536212"><ele>342.0</ele><time>2026-03-29T15:35:48Z</time></trkpt><trkpt lat="37.3121376970072" lon="13.793414278456625"><ele>342.0</ele><time>2026-03-29T15:35:49Z</time></trkpt><trkpt lat="37.31205532686295" lon="13.793241816627221"><ele>342.0</ele><time>2026-03-29T15:35:50Z</time></trkpt><trkpt lat="37.31195648180815" lon="13.793067426296416"><ele>342.0</ele><time>2026-03-29T15:35:51Z</time></trkpt><trkpt lat="37.31185045640984" lon="13.792886839494102"><ele>342.0</ele><time>2026-03-29T15:35:52Z</time></trkpt><trkpt lat="37.31174513143118" lon="13.792703394202679"><ele>342.0</ele><time>2026-03-29T15:35:53Z</time></trkpt><trkpt lat="37.31163941198542" lon="13.792518444391524"><ele>342.0</ele><time>2026-03-29T15:35:54Z</time></trkpt><trkpt lat="37.311533619146815" lon="13.792332598644565"><ele>341.0</ele><time>2026-03-29T15:35:55Z</time></trkpt><trkpt lat="37.3114263336565" lon="13.792146995960058"><ele>340.0</ele><time>2026-03-29T15:35:56Z</time></trkpt><trkpt lat="37.31132180265582" lon="13.791964481979512"><ele>339.0</ele><time>2026-03-29T15:35:57Z</time></trkpt><trkpt lat="37.311218971310005" lon="13.79178023038077"><ele>342.0</ele><time>2026-03-29T15:35:58Z</time></trkpt><trkpt lat="37.31112340317862" lon="13.791595311961116"><ele>345.0</ele><time>2026-03-29T15:35:59Z</time></trkpt><trkpt lat="37.31103430377628" lon="13.79140769407584"><ele>348.0</ele><time>2026-03-29T15:36:00Z</time></trkpt><trkpt lat="37.31095138949182" lon="13.791222611351838"><ele>348.0</ele><time>2026-03-29T15:36:01Z</time></trkpt><trkpt lat="37.31087594767006" lon="13.791050255209594"><ele>348.0</ele><time>2026-03-29T15:36:02Z</time></trkpt><trkpt lat="37.31080897026528" lon="13.790892021493518"><ele>348.0</ele><time>2026-03-29T15:36:03Z</time></trkpt><trkpt lat="37.31074814097012" lon="13.790750352055033"><ele>348.0</ele><time>2026-03-29T15:36:04Z</time></trkpt><trkpt lat="37.31068739590189" lon="13.79062116353814"><ele>347.0</ele><time>2026-03-29T15:36:05Z</time></trkpt><trkpt lat="37.31061062062972" lon="13.790479116950745"><ele>346.0</ele><time>2026-03-29T15:36:06Z</time></trkpt><trkpt lat="37.31051922918546" lon="13.790320371393884"><ele>345.0</ele><time>2026-03-29T15:36:07Z</time></trkpt><trkpt lat="37.31041234770806" lon="13.790167740937338"><ele>347.6666666666667</ele><time>2026-03-29T15:36:08Z</time></trkpt><trkpt lat="37.31029178050025" lon="13.790031635288415"><ele>350.33333333333337</ele><time>2026-03-29T15:36:09Z</time></trkpt><trkpt lat="37.31015912769455" lon="13.789898004192235"><ele>353.0</ele><time>2026-03-29T15:36:10Z</time></trkpt><trkpt lat="37.310024443834536" lon="13.789762714340517"><ele>353.0</ele><time>2026-03-29T15:36:11Z</time></trkpt><trkpt lat="37.30989043111129" lon="13.789626382078163"><ele>353.0</ele><time>2026-03-29T15:36:12Z</time></trkpt><trkpt lat="37.309753583968075" lon="13.78948839856076"><ele>353.0</ele><time>2026-03-29T15:36:13Z</time></trkpt><trkpt lat="37.30961486180559" lon="13.78934784920315"><ele>353.6666666666667</ele><time>2026-03-29T15:36:14Z</time></trkpt><trkpt lat="37.30947446355242" lon="13.78920636895202"><ele>354.3333333333333</ele><time>2026-03-29T15:36:15Z</time></trkpt><trkpt lat="37.30933276192656" lon="13.789066391008369"><ele>355.0</ele><time>2026-03-29T15:36:16Z</time></trkpt><trkpt lat="37.30918922615312" lon="13.788926231602085"><ele>355.0</ele><time>2026-03-29T15:36:17Z</time></trkpt><trkpt lat="37.309046015945185" lon="13.788787205489292"><ele>355.0</ele><time>2026-03-29T15:36:18Z</time></trkpt><trkpt lat="37.30890986328184" lon="13.788655822649961"><ele>355.0</ele><time>2026-03-29T15:36:19Z</time></trkpt><trkpt lat="37.308790030107005" lon="13.788536937146715"><ele>355.6</ele><time>2026-03-29T15:36:20Z</time></trkpt><trkpt lat="37.30869624313666" lon="13.788433467968932"><ele>356.2</ele><time>2026-03-29T15:36:21Z</time></trkpt><trkpt lat="37.30862238063752" lon="13.788337888323378"><ele>356.79999999999995</ele><time>2026-03-29T15:36:22Z</time></trkpt><trkpt lat="37.308609007402794" lon="13.78823030035926"><ele>357.4</ele><time>2026-03-29T15:36:23Z</time></trkpt><trkpt lat="37.30860616822075" lon="13.788096446747218"><ele>358.0</ele><time>2026-03-29T15:36:25.001Z</time></trkpt><trkpt lat="37.30861533603932" lon="13.787991532069134"><ele>358.0</ele><time>2026-03-29T15:36:27.001Z</time></trkpt><trkpt lat="37.30862573684248" lon="13.787857454540763"><ele>358.0</ele><time>2026-03-29T15:36:29.001Z</time></trkpt><trkpt lat="37.30850644778222" lon="13.787781319849735"><ele>358.0</ele><time>2026-03-29T15:36:30.001Z</time></trkpt><trkpt lat="37.30843620697566" lon="13.787704108742927"><ele>358.0</ele><time>2026-03-29T15:36:31.001Z</time></trkpt><trkpt lat="37.30836407329333" lon="13.787614484617382"><ele>358.0</ele><time>2026-03-29T15:36:32.001Z</time></trkpt><trkpt lat="37.308276465977016" lon="13.787511771525189"><ele>358.75</ele><time>2026-03-29T15:36:33.001Z</time></trkpt><trkpt lat="37.308190079615656" lon="13.787416606815157"><ele>359.5</ele><time>2026-03-29T15:36:34.001Z</time></trkpt><trkpt lat="37.308094117633864" lon="13.78731626966662"><ele>360.25</ele><time>2026-03-29T15:36:35.001Z</time></trkpt><trkpt lat="37.3079863281285" lon="13.787213072906813"><ele>361.0</ele><time>2026-03-29T15:36:36.001Z</time></trkpt><trkpt lat="37.307874380446464" lon="13.78710711705284"><ele>361.0</ele><time>2026-03-29T15:36:37.001Z</time></trkpt><trkpt lat="37.30776414265483" lon="13.787002093338193"><ele>361.0</ele><time>2026-03-29T15:36:38.001Z</time></trkpt><trkpt lat="37.307662737222955" lon="13.78690958117264"><ele>361.0</ele><time>2026-03-29T15:36:39.001Z</time></trkpt><trkpt lat="37.307559618071984" lon="13.786846279239503"><ele>361.0</ele><time>2026-03-29T15:36:40.001Z</time></trkpt><trkpt lat="37.30745419133557" lon="13.78681533076716"><ele>360.16666666666663</ele><time>2026-03-29T15:36:41.001Z</time></trkpt><trkpt lat="37.30735073869635" lon="13.786804008101946"><ele>359.3333333333333</ele><time>2026-03-29T15:36:42.001Z</time></trkpt><trkpt lat="37.30726837380175" lon="13.786772717200744"><ele>358.5</ele><time>2026-03-29T15:36:43.001Z</time></trkpt><trkpt lat="37.307194844520694" lon="13.786774404405485"><ele>357.6666666666667</ele><time>2026-03-29T15:36:44.001Z</time></trkpt><trkpt lat="37.30712819689687" lon="13.786757472314624"><ele>356.83333333333337</ele><time>2026-03-29T15:36:45.001Z</time></trkpt><trkpt lat="37.30702610916191" lon="13.786738943192953"><ele>356.0</ele><time>2026-03-29T15:36:47.001Z</time></trkpt><trkpt lat="37.307124178851055" lon="13.78679995199404"><ele>356.83333333333337</ele><time>2026-03-29T15:36:54.001Z</time></trkpt><trkpt lat="37.30720360257617" lon="13.78682457132231"><ele>357.6666666666667</ele><time>2026-03-29T15:36:55.001Z</time></trkpt><trkpt lat="37.30728709925721" lon="13.786847293700486"><ele>358.5</ele><time>2026-03-29T15:36:56.001Z</time></trkpt><trkpt lat="37.30735950075015" lon="13.786867162066898"><ele>359.3333333333333</ele><time>2026-03-29T15:36:57.001Z</time></trkpt><trkpt lat="37.30748013435264" lon="13.786875730247427"><ele>360.16666666666663</ele><time>2026-03-29T15:36:59.001Z</time></trkpt><trkpt lat="37.30754460657817" lon="13.7868992793084"><ele>361.0</ele><time>2026-03-29T15:37:00.001Z</time></trkpt><trkpt lat="37.30761866721963" lon="13.786933249185951"><ele>361.0</ele><time>2026-03-29T15:37:01.001Z</time></trkpt><trkpt lat="37.30769127041074" lon="13.786980454343587"><ele>361.0</ele><time>2026-03-29T15:37:02.001Z</time></trkpt><trkpt lat="37.30775049339214" lon="13.787028782565946"><ele>361.0</ele><time>2026-03-29T15:37:03.001Z</time></trkpt><trkpt lat="37.30784547540222" lon="13.787098837491031"><ele>361.0</ele><time>2026-03-29T15:37:05.001Z</time></trkpt><trkpt lat="37.30793933333997" lon="13.787081461653484"><ele>361.0</ele><time>2026-03-29T15:37:07.001Z</time></trkpt><trkpt lat="37.30795557754711" lon="13.786956724155711"><ele>361.0</ele><time>2026-03-29T15:37:09.001Z</time></trkpt><trkpt lat="37.3079187396265" lon="13.786878614747184"><ele>361.0</ele><time>2026-03-29T15:37:10.001Z</time></trkpt><trkpt lat="37.30787073922256" lon="13.786796232927433"><ele>361.0</ele><time>2026-03-29T15:37:11.001Z</time></trkpt><trkpt lat="37.30781702047838" lon="13.78669818468414"><ele>361.0</ele><time>2026-03-29T15:37:12.001Z</time></trkpt><trkpt lat="37.30776933595049" lon="13.786569057827066"><ele>361.0</ele><time>2026-03-29T15:37:13.001Z</time></trkpt><trkpt lat="37.30769643865953" lon="13.786437766828694"><ele>359.3333333333333</ele><time>2026-03-29T15:37:14.001Z</time></trkpt><trkpt lat="37.30760609661855" lon="13.786300021416531"><ele>357.6666666666667</ele><time>2026-03-29T15:37:15.001Z</time></trkpt><trkpt lat="37.307503294487105" lon="13.786159092736186"><ele>356.0</ele><time>2026-03-29T15:37:16.001Z</time></trkpt><trkpt lat="37.30738238250475" lon="13.786035707053255"><ele>357.5</ele><time>2026-03-29T15:37:17.001Z</time></trkpt><trkpt lat="37.30729413658539" lon="13.78589382005916"><ele>359.0</ele><time>2026-03-29T15:37:18.001Z</time></trkpt><trkpt lat="37.307200428964705" lon="13.785772761982761"><ele>360.5</ele><time>2026-03-29T15:37:19.002Z</time></trkpt><trkpt lat="37.30710237109961" lon="13.785640961520597"><ele>362.0</ele><time>2026-03-29T15:37:20.002Z</time></trkpt><trkpt lat="37.30700284323877" lon="13.785507185214069"><ele>362.0</ele><time>2026-03-29T15:37:21.002Z</time></trkpt><trkpt lat="37.306899648281" lon="13.785372099745222"><ele>362.0</ele><time>2026-03-29T15:37:22.002Z</time></trkpt><trkpt lat="37.30679184159623" lon="13.78523564651192"><ele>362.0</ele><time>2026-03-29T15:37:23.002Z</time></trkpt><trkpt lat="37.30669113615752" lon="13.785110617069945"><ele>362.0</ele><time>2026-03-29T15:37:24.002Z</time></trkpt><trkpt lat="37.30659978736643" lon="13.78499740668365"><ele>362.5</ele><time>2026-03-29T15:37:25.002Z</time></trkpt><trkpt lat="37.306515414613266" lon="13.784895432732641"><ele>363.0</ele><time>2026-03-29T15:37:25.999Z</time></trkpt><trkpt lat="37.30643128276674" lon="13.784796850756525"><ele>363.5</ele><time>2026-03-29T15:37:26.999Z</time></trkpt><trkpt lat="37.30634623945928" lon="13.784697200779945"><ele>364.0</ele><time>2026-03-29T15:37:27.999Z</time></trkpt><trkpt lat="37.30627004195528" lon="13.784607517367812"><ele>364.0</ele><time>2026-03-29T15:37:28.999Z</time></trkpt><trkpt lat="37.30620197637579" lon="13.784527193235558"><ele>364.0</ele><time>2026-03-29T15:37:29.999Z</time></trkpt><trkpt lat="37.30613580128535" lon="13.784443342778752"><ele>364.0</ele><time>2026-03-29T15:37:30.999Z</time></trkpt><trkpt lat="37.306071579598424" lon="13.784349693105986"><ele>364.0</ele><time>2026-03-29T15:37:31.999Z</time></trkpt><trkpt lat="37.30601480502859" lon="13.784233881737242"><ele>364.0</ele><time>2026-03-29T15:37:32.999Z</time></trkpt><trkpt lat="37.30596426713767" lon="13.783970292319264"><ele>363.0</ele><time>2026-03-29T15:37:34.999Z</time></trkpt><trkpt lat="37.305945424343996" lon="13.783817170184458"><ele>362.0</ele><time>2026-03-29T15:37:35.999Z</time></trkpt><trkpt lat="37.30591470209543" lon="13.78365554623742"><ele>361.0</ele><time>2026-03-29T15:37:36.999Z</time></trkpt><trkpt lat="37.305899454230484" lon="13.783486749781492"><ele>360.0</ele><time>2026-03-29T15:37:37.999Z</time></trkpt><trkpt lat="37.30587984557563" lon="13.783319569030215"><ele>360.0</ele><time>2026-03-29T15:37:38.999Z</time></trkpt><trkpt lat="37.30585279513695" lon="13.783158157397896"><ele>360.0</ele><time>2026-03-29T15:37:39.999Z</time></trkpt><trkpt lat="37.305813507201556" lon="13.783006191541284"><ele>360.0</ele><time>2026-03-29T15:37:40.999Z</time></trkpt><trkpt lat="37.305761713098576" lon="13.782852758611261"><ele>360.0</ele><time>2026-03-29T15:37:41.999Z</time></trkpt><trkpt lat="37.30571882753687" lon="13.782685092528482"><ele>358.75</ele><time>2026-03-29T15:37:42.999Z</time></trkpt><trkpt lat="37.305659386857805" lon="13.782520176300345"><ele>357.5</ele><time>2026-03-29T15:37:43.999Z</time></trkpt><trkpt lat="37.30558215672084" lon="13.782365915717325"><ele>356.25</ele><time>2026-03-29T15:37:44.999Z</time></trkpt><trkpt lat="37.305522505455585" lon="13.782200021005988"><ele>355.0</ele><time>2026-03-29T15:37:45.999Z</time></trkpt><trkpt lat="37.305466288564865" lon="13.78203676047974"><ele>358.25</ele><time>2026-03-29T15:37:46.999Z</time></trkpt><trkpt lat="37.3054109195586" lon="13.781875500084645"><ele>361.5</ele><time>2026-03-29T15:37:47.999Z</time></trkpt><trkpt lat="37.30534944215434" lon="13.781710314586546"><ele>364.75</ele><time>2026-03-29T15:37:48.999Z</time></trkpt><trkpt lat="37.305283763510666" lon="13.781543193152551"><ele>368.0</ele><time>2026-03-29T15:37:49.999Z</time></trkpt><trkpt lat="37.30520695646553" lon="13.781382941960121"><ele>368.0</ele><time>2026-03-29T15:37:51Z</time></trkpt><trkpt lat="37.30511477559293" lon="13.781246155355012"><ele>368.0</ele><time>2026-03-29T15:37:52Z</time></trkpt><trkpt lat="37.30500892868153" lon="13.78111675077381"><ele>368.0</ele><time>2026-03-29T15:37:53Z</time></trkpt><trkpt lat="37.304897401487004" lon="13.780991558984022"><ele>368.0</ele><time>2026-03-29T15:37:54Z</time></trkpt><trkpt lat="37.30480088697457" lon="13.780871733767587"><ele>368.5</ele><time>2026-03-29T15:37:55Z</time></trkpt><trkpt lat="37.30472547321947" lon="13.78074960445246"><ele>369.0</ele><time>2026-03-29T15:37:56Z</time></trkpt><trkpt lat="37.30466983774984" lon="13.780614318550429"><ele>369.5</ele><time>2026-03-29T15:37:57Z</time></trkpt><trkpt lat="37.30462630357213" lon="13.780454329449908"><ele>370.0</ele><time>2026-03-29T15:37:58Z</time></trkpt><trkpt lat="37.30459713575792" lon="13.780274131724816"><ele>370.3333333333333</ele><time>2026-03-29T15:37:59Z</time></trkpt><trkpt lat="37.304587720828316" lon="13.78008312300664"><ele>370.6666666666667</ele><time>2026-03-29T15:38:00Z</time></trkpt><trkpt lat="37.304586760749835" lon="13.779875508072276"><ele>371.0</ele><time>2026-03-29T15:38:01Z</time></trkpt><trkpt lat="37.30458340257418" lon="13.779666389912519"><ele>371.0</ele><time>2026-03-29T15:38:02Z</time></trkpt><trkpt lat="37.304579139555976" lon="13.779475297485757"><ele>371.0</ele><time>2026-03-29T15:38:03Z</time></trkpt><trkpt lat="37.304568489146504" lon="13.779284621234124"><ele>371.0</ele><time>2026-03-29T15:38:04Z</time></trkpt><trkpt lat="37.304538728797304" lon="13.779100020078141"><ele>371.33333333333337</ele><time>2026-03-29T15:38:05Z</time></trkpt><trkpt lat="37.30448810051804" lon="13.77892383018539"><ele>371.6666666666667</ele><time>2026-03-29T15:38:06Z</time></trkpt><trkpt lat="37.30441713069259" lon="13.778751344138655"><ele>372.0</ele><time>2026-03-29T15:38:07Z</time></trkpt><trkpt lat="37.30432965539784" lon="13.778594177983681"><ele>372.25</ele><time>2026-03-29T15:38:08Z</time></trkpt><trkpt lat="37.30423800134507" lon="13.778458631305426"><ele>372.5</ele><time>2026-03-29T15:38:09Z</time></trkpt><trkpt lat="37.3041380318128" lon="13.77835829767547"><ele>372.75</ele><time>2026-03-29T15:38:10Z</time></trkpt><trkpt lat="37.30401937901714" lon="13.778282354937387"><ele>373.0</ele><time>2026-03-29T15:38:11Z</time></trkpt><trkpt lat="37.303891444673276" lon="13.778229004439266"><ele>373.0</ele><time>2026-03-29T15:38:12Z</time></trkpt><trkpt lat="37.303739792145976" lon="13.778188849319951"><ele>373.0</ele><time>2026-03-29T15:38:13Z</time></trkpt><trkpt lat="37.30357183419995" lon="13.778127428532947"><ele>373.0</ele><time>2026-03-29T15:38:14Z</time></trkpt><trkpt lat="37.30339114198747" lon="13.778081633572237"><ele>373.0</ele><time>2026-03-29T15:38:15Z</time></trkpt><trkpt lat="37.30320915759735" lon="13.778043132072197"><ele>373.0</ele><time>2026-03-29T15:38:16Z</time></trkpt><trkpt lat="37.303042993828896" lon="13.778011220734216"><ele>373.0</ele><time>2026-03-29T15:38:17Z</time></trkpt><trkpt lat="37.30289300193329" lon="13.777978495568538"><ele>372.0</ele><time>2026-03-29T15:38:18Z</time></trkpt><trkpt lat="37.3027610580082" lon="13.77793049643348"><ele>371.0</ele><time>2026-03-29T15:38:19Z</time></trkpt><trkpt lat="37.3026461355784" lon="13.777858398838413"><ele>370.0</ele><time>2026-03-29T15:38:20Z</time></trkpt><trkpt lat="37.30255151541316" lon="13.777756021092681"><ele>369.0</ele><time>2026-03-29T15:38:21Z</time></trkpt><trkpt lat="37.302458326142784" lon="13.77762381576491"><ele>369.0</ele><time>2026-03-29T15:38:22Z</time></trkpt><trkpt lat="37.30235381244355" lon="13.77747374670104"><ele>369.0</ele><time>2026-03-29T15:38:23Z</time></trkpt><trkpt lat="37.30227196906976" lon="13.777277994495853"><ele>369.0</ele><time>2026-03-29T15:38:24Z</time></trkpt><trkpt lat="37.30219974862439" lon="13.777056304195229"><ele>372.6666666666667</ele><time>2026-03-29T15:38:25Z</time></trkpt><trkpt lat="37.30212505371403" lon="13.776826821638107"><ele>376.33333333333337</ele><time>2026-03-29T15:38:26.001Z</time></trkpt><trkpt lat="37.30204417868918" lon="13.776613207069778"><ele>380.0</ele><time>2026-03-29T15:38:27.001Z</time></trkpt><trkpt lat="37.30195657198761" lon="13.776427179435714"><ele>380.0</ele><time>2026-03-29T15:38:28.001Z</time></trkpt><trkpt lat="37.30185537587392" lon="13.776265554204329"><ele>380.0</ele><time>2026-03-29T15:38:29.001Z</time></trkpt><trkpt lat="37.3017348676976" lon="13.776127900324015"><ele>380.0</ele><time>2026-03-29T15:38:30.001Z</time></trkpt><trkpt lat="37.301602608927105" lon="13.776022216065986"><ele>378.6666666666667</ele><time>2026-03-29T15:38:31.001Z</time></trkpt><trkpt lat="37.30145504543439" lon="13.775946527392954"><ele>377.3333333333333</ele><time>2026-03-29T15:38:32.001Z</time></trkpt><trkpt lat="37.301298028490436" lon="13.775906143931081"><ele>376.0</ele><time>2026-03-29T15:38:33.001Z</time></trkpt><trkpt lat="37.301131225577095" lon="13.775898098549614"><ele>376.0</ele><time>2026-03-29T15:38:34.001Z</time></trkpt><trkpt lat="37.30094597531443" lon="13.775886831823545"><ele>376.0</ele><time>2026-03-29T15:38:35.001Z</time></trkpt><trkpt lat="37.300742679710844" lon="13.775896654112893"><ele>376.0</ele><time>2026-03-29T15:38:36.001Z</time></trkpt><trkpt lat="37.300531124388534" lon="13.775907139080996"><ele>377.0</ele><time>2026-03-29T15:38:37.001Z</time></trkpt><trkpt lat="37.30032940857643" lon="13.775917136390817"><ele>378.0</ele><time>2026-03-29T15:38:38.001Z</time></trkpt><trkpt lat="37.300135469413405" lon="13.77592754246513"><ele>379.0</ele><time>2026-03-29T15:38:39.001Z</time></trkpt><trkpt lat="37.299947983987956" lon="13.77593790469014"><ele>379.0</ele><time>2026-03-29T15:38:40.001Z</time></trkpt><trkpt lat="37.29976880812228" lon="13.775947807646299"><ele>379.0</ele><time>2026-03-29T15:38:41.001Z</time></trkpt><trkpt lat="37.29959589885784" lon="13.77595736420115"><ele>379.0</ele><time>2026-03-29T15:38:42.001Z</time></trkpt><trkpt lat="37.29943051483093" lon="13.775966155066065"><ele>378.75</ele><time>2026-03-29T15:38:43.001Z</time></trkpt><trkpt lat="37.299276553943635" lon="13.775974157164823"><ele>378.5</ele><time>2026-03-29T15:38:44.001Z</time></trkpt><trkpt lat="37.29913112699193" lon="13.775981798381371"><ele>378.25</ele><time>2026-03-29T15:38:45.001Z</time></trkpt><trkpt lat="37.29899914697891" lon="13.775988733048951"><ele>378.0</ele><time>2026-03-29T15:38:46.001Z</time></trkpt><trkpt lat="37.29887669644042" lon="13.776016882049548"><ele>378.0</ele><time>2026-03-29T15:38:47.001Z</time></trkpt><trkpt lat="37.29876338910063" lon="13.776018666695036"><ele>378.0</ele><time>2026-03-29T15:38:48.001Z</time></trkpt><trkpt lat="37.29867320063502" lon="13.775982135673283"><ele>378.0</ele><time>2026-03-29T15:38:49.001Z</time></trkpt><trkpt lat="37.29859648418711" lon="13.775964654984993"><ele>378.0</ele><time>2026-03-29T15:38:50.001Z</time></trkpt><trkpt lat="37.29855139513618" lon="13.775884497577383"><ele>378.0</ele><time>2026-03-29T15:38:52.001Z</time></trkpt><trkpt lat="37.29851179952232" lon="13.775786786095589"><ele>378.0</ele><time>2026-03-29T15:39:04.001Z</time></trkpt><trkpt lat="37.29853050060979" lon="13.775616082518441"><ele>378.0</ele><time>2026-03-29T15:39:06.001Z</time></trkpt><trkpt lat="37.29853564186067" lon="13.77547417097242"><ele>378.0</ele><time>2026-03-29T15:39:07.001Z</time></trkpt><trkpt lat="37.29851427763356" lon="13.775317526270802"><ele>378.0</ele><time>2026-03-29T15:39:08.001Z</time></trkpt><trkpt lat="37.29849816592054" lon="13.775157555624826"><ele>376.75</ele><time>2026-03-29T15:39:09.001Z</time></trkpt><trkpt lat="37.29846747143927" lon="13.775002340580633"><ele>375.5</ele><time>2026-03-29T15:39:10.001Z</time></trkpt><trkpt lat="37.29843211271401" lon="13.774854863669285"><ele>374.25</ele><time>2026-03-29T15:39:11.001Z</time></trkpt><trkpt lat="37.298370767099996" lon="13.774700139568836"><ele>373.0</ele><time>2026-03-29T15:39:12.001Z</time></trkpt><trkpt lat="37.298283006399494" lon="13.774520453960678"><ele>375.0</ele><time>2026-03-29T15:39:13.001Z</time></trkpt><trkpt lat="37.29818276278433" lon="13.774297361308129"><ele>377.0</ele><time>2026-03-29T15:39:14.002Z</time></trkpt><trkpt lat="37.29806670656082" lon="13.7740878335828"><ele>379.0</ele><time>2026-03-29T15:39:15.002Z</time></trkpt><trkpt lat="37.29794836528371" lon="13.773879875986268"><ele>377.3333333333333</ele><time>2026-03-29T15:39:16.002Z</time></trkpt><trkpt lat="37.29783145577295" lon="13.773682526005357"><ele>375.6666666666667</ele><time>2026-03-29T15:39:17.002Z</time></trkpt><trkpt lat="37.29771545221105" lon="13.773509923378548"><ele>374.0</ele><time>2026-03-29T15:39:18.002Z</time></trkpt><trkpt lat="37.297628941068766" lon="13.773325854416123"><ele>374.0</ele><time>2026-03-29T15:39:19.002Z</time></trkpt><trkpt lat="37.29756579922879" lon="13.773142164213969"><ele>374.0</ele><time>2026-03-29T15:39:20.002Z</time></trkpt><trkpt lat="37.29752863501846" lon="13.772960106902916"><ele>374.0</ele><time>2026-03-29T15:39:21.002Z</time></trkpt><trkpt lat="37.29752296098854" lon="13.772774426294351"><ele>372.6666666666667</ele><time>2026-03-29T15:39:22.002Z</time></trkpt><trkpt lat="37.29754558500307" lon="13.772560273658293"><ele>371.3333333333333</ele><time>2026-03-29T15:39:23.002Z</time></trkpt><trkpt lat="37.29758777025486" lon="13.772325819630257"><ele>370.0</ele><time>2026-03-29T15:39:24.002Z</time></trkpt><trkpt lat="37.29763718651159" lon="13.772071285146582"><ele>369.3333333333333</ele><time>2026-03-29T15:39:25.002Z</time></trkpt><trkpt lat="37.29768773489989" lon="13.77180224287355"><ele>368.6666666666667</ele><time>2026-03-29T15:39:26.002Z</time></trkpt><trkpt lat="37.2977374164164" lon="13.771532590980224"><ele>368.0</ele><time>2026-03-29T15:39:27.002Z</time></trkpt><trkpt lat="37.29778236562874" lon="13.77128525610549"><ele>368.0</ele><time>2026-03-29T15:39:28.002Z</time></trkpt><trkpt lat="37.29782400278363" lon="13.771055884437152"><ele>368.0</ele><time>2026-03-29T15:39:29.002Z</time></trkpt><trkpt lat="37.297867095368666" lon="13.770841911209324"><ele>368.0</ele><time>2026-03-29T15:39:30.002Z</time></trkpt><trkpt lat="37.29792087321326" lon="13.770647857283953"><ele>368.33333333333337</ele><time>2026-03-29T15:39:31.002Z</time></trkpt><trkpt lat="37.297995893092434" lon="13.770472541209434"><ele>368.6666666666667</ele><time>2026-03-29T15:39:31.999Z</time></trkpt><trkpt lat="37.298103583836976" lon="13.770309027786091"><ele>369.0</ele><time>2026-03-29T15:39:32.999Z</time></trkpt><trkpt lat="37.298222631233635" lon="13.770171466342324"><ele>369.0</ele><time>2026-03-29T15:39:33.999Z</time></trkpt><trkpt lat="37.2983312615211" lon="13.770058661355037"><ele>369.0</ele><time>2026-03-29T15:39:34.999Z</time></trkpt><trkpt lat="37.29842787108821" lon="13.769961354332224"><ele>369.0</ele><time>2026-03-29T15:39:35.999Z</time></trkpt><trkpt lat="37.29851425434939" lon="13.769874603311235"><ele>369.0</ele><time>2026-03-29T15:39:36.999Z</time></trkpt><trkpt lat="37.2985960082545" lon="13.769792308803407"><ele>369.0</ele><time>2026-03-29T15:39:37.999Z</time></trkpt><trkpt lat="37.29866959515176" lon="13.769712062902855"><ele>369.0</ele><time>2026-03-29T15:39:38.999Z</time></trkpt><trkpt lat="37.29874095592569" lon="13.76962832784193"><ele>369.0</ele><time>2026-03-29T15:39:39.999Z</time></trkpt><trkpt lat="37.29881816600421" lon="13.769513384136935"><ele>369.0</ele><time>2026-03-29T15:39:40.999Z</time></trkpt><trkpt lat="37.29888724557333" lon="13.769367186423048"><ele>369.25</ele><time>2026-03-29T15:39:41.999Z</time></trkpt><trkpt lat="37.29893648228562" lon="13.769215865588388"><ele>369.5</ele><time>2026-03-29T15:39:42.999Z</time></trkpt><trkpt lat="37.29897607282642" lon="13.769071353311599"><ele>369.75</ele><time>2026-03-29T15:39:43.999Z</time></trkpt><trkpt lat="37.29901154299997" lon="13.76892950157313"><ele>370.0</ele><time>2026-03-29T15:39:44.999Z</time></trkpt><trkpt lat="37.2990284624433" lon="13.768782601237485"><ele>370.0</ele><time>2026-03-29T15:39:46Z</time></trkpt><trkpt lat="37.29901269630925" lon="13.768638077438908"><ele>370.0</ele><time>2026-03-29T15:39:47Z</time></trkpt><trkpt lat="37.29896037414713" lon="13.768494663885619"><ele>370.0</ele><time>2026-03-29T15:39:48Z</time></trkpt><trkpt lat="37.29887828291587" lon="13.76833681262481"><ele>370.0</ele><time>2026-03-29T15:39:49Z</time></trkpt><trkpt lat="37.29877766495515" lon="13.768176752837812"><ele>367.5</ele><time>2026-03-29T15:39:50Z</time></trkpt><trkpt lat="37.29868035124092" lon="13.768030234269633"><ele>365.0</ele><time>2026-03-29T15:39:51Z</time></trkpt><trkpt lat="37.29859767258294" lon="13.767889229661352"><ele>362.5</ele><time>2026-03-29T15:39:52Z</time></trkpt><trkpt lat="37.29847914608988" lon="13.767820026084555"><ele>360.0</ele><time>2026-03-29T15:39:53Z</time></trkpt><trkpt lat="37.29837445281241" lon="13.767737289905575"><ele>360.0</ele><time>2026-03-29T15:39:54Z</time></trkpt><trkpt lat="37.29825853327554" lon="13.76771230009059"><ele>360.0</ele><time>2026-03-29T15:39:55Z</time></trkpt><trkpt lat="37.29813247868809" lon="13.767683395996494"><ele>360.0</ele><time>2026-03-29T15:39:56Z</time></trkpt><trkpt lat="37.29798009566658" lon="13.767661922600574"><ele>360.0</ele><time>2026-03-29T15:39:57Z</time></trkpt><trkpt lat="37.29781798596552" lon="13.767630503050164"><ele>358.75</ele><time>2026-03-29T15:39:58Z</time></trkpt><trkpt lat="37.29766064549578" lon="13.767599889684604"><ele>357.5</ele><time>2026-03-29T15:39:59Z</time></trkpt><trkpt lat="37.29752216669168" lon="13.76754544298018"><ele>356.25</ele><time>2026-03-29T15:40:00Z</time></trkpt><trkpt lat="37.29738543949689" lon="13.767511236334464"><ele>355.0</ele><time>2026-03-29T15:40:01Z</time></trkpt><trkpt lat="37.29724807497503" lon="13.7674768702552"><ele>354.25</ele><time>2026-03-29T15:40:02Z</time></trkpt><trkpt lat="37.29711222172101" lon="13.767449531379363"><ele>353.5</ele><time>2026-03-29T15:40:03Z</time></trkpt><trkpt lat="37.29699175651943" lon="13.767384020408466"><ele>352.75</ele><time>2026-03-29T15:40:04Z</time></trkpt><trkpt lat="37.29688835567013" lon="13.767304106152482"><ele>352.0</ele><time>2026-03-29T15:40:05Z</time></trkpt><trkpt lat="37.29679988912047" lon="13.76721861299193"><ele>352.0</ele><time>2026-03-29T15:40:06Z</time></trkpt><trkpt lat="37.296719354624436" lon="13.767137230540284"><ele>352.0</ele><time>2026-03-29T15:40:07Z</time></trkpt><trkpt lat="37.29666075302138" lon="13.767047333320345"><ele>352.0</ele><time>2026-03-29T15:40:08Z</time></trkpt><trkpt lat="37.29645368421219" lon="13.767048909611995"><ele>352.0</ele><time>2026-03-29T15:40:10Z</time></trkpt><trkpt lat="37.29639774215022" lon="13.767103757215121"><ele>351.5</ele><time>2026-03-29T15:40:11Z</time></trkpt><trkpt lat="37.29631700328946" lon="13.767151733290463"><ele>351.0</ele><time>2026-03-29T15:40:13Z</time></trkpt><trkpt lat="37.296250760757374" lon="13.767187518278002"><ele>350.5</ele><time>2026-03-29T15:40:15Z</time></trkpt><trkpt lat="37.29618158164423" lon="13.767208257657504"><ele>350.0</ele><time>2026-03-29T15:40:16Z</time></trkpt><trkpt lat="37.29609498917075" lon="13.767218307450683"><ele>349.5</ele><time>2026-03-29T15:40:17Z</time></trkpt><trkpt lat="37.29600586085639" lon="13.7671869339332"><ele>349.0</ele><time>2026-03-29T15:40:18Z</time></trkpt><trkpt lat="37.29591716613003" lon="13.767160017691854"><ele>349.0</ele><time>2026-03-29T15:40:19Z</time></trkpt><trkpt lat="37.29583699262212" lon="13.767131038752982"><ele>349.0</ele><time>2026-03-29T15:40:20Z</time></trkpt><trkpt lat="37.29576065838022" lon="13.767123831016796"><ele>349.0</ele><time>2026-03-29T15:40:21.001Z</time></trkpt><trkpt lat="37.29569952029362" lon="13.767087517279833"><ele>349.0</ele><time>2026-03-29T15:40:22.001Z</time></trkpt><trkpt lat="37.295548642197325" lon="13.767004272427604"><ele>349.0</ele><time>2026-03-29T15:40:25.001Z</time></trkpt><trkpt lat="37.29546794592317" lon="13.766958513041772"><ele>348.25</ele><time>2026-03-29T15:40:27.001Z</time></trkpt><trkpt lat="37.2953999743766" lon="13.76692280695225"><ele>347.5</ele><time>2026-03-29T15:40:28.001Z</time></trkpt><trkpt lat="37.29529228076174" lon="13.766877616659526"><ele>346.75</ele><time>2026-03-29T15:40:29.001Z</time></trkpt><trkpt lat="37.295172071521314" lon="13.76682627803573"><ele>346.0</ele><time>2026-03-29T15:40:30.001Z</time></trkpt><trkpt lat="37.29504329413846" lon="13.76676645528417"><ele>346.0</ele><time>2026-03-29T15:40:31.001Z</time></trkpt><trkpt lat="37.29492874118129" lon="13.766718037620521"><ele>346.0</ele><time>2026-03-29T15:40:32.001Z</time></trkpt><trkpt lat="37.29482606771934" lon="13.766675527616497"><ele>346.0</ele><time>2026-03-29T15:40:33.001Z</time></trkpt><trkpt lat="37.294729344198124" lon="13.766636584166054"><ele>346.0</ele><time>2026-03-29T15:40:34.001Z</time></trkpt><trkpt lat="37.294626473340784" lon="13.766590613523174"><ele>346.0</ele><time>2026-03-29T15:40:35.001Z</time></trkpt><trkpt lat="37.294494123421714" lon="13.766532621804885"><ele>344.0</ele><time>2026-03-29T15:40:36.001Z</time></trkpt><trkpt lat="37.294342126620734" lon="13.766465318591978"><ele>342.0</ele><time>2026-03-29T15:40:37.001Z</time></trkpt><trkpt lat="37.294183523959816" lon="13.766391190329372"><ele>340.0</ele><time>2026-03-29T15:40:38.001Z</time></trkpt><trkpt lat="37.29402663333432" lon="13.766300431957085"><ele>338.66666666666663</ele><time>2026-03-29T15:40:39.001Z</time></trkpt><trkpt lat="37.29387115329595" lon="13.766191654353737"><ele>337.3333333333333</ele><time>2026-03-29T15:40:40.001Z</time></trkpt><trkpt lat="37.293717814395805" lon="13.766059394314036"><ele>336.0</ele><time>2026-03-29T15:40:41.001Z</time></trkpt><trkpt lat="37.293563162099325" lon="13.765904199971354"><ele>335.0</ele><time>2026-03-29T15:40:42.001Z</time></trkpt><trkpt lat="37.293404725142814" lon="13.76572836967204"><ele>334.0</ele><time>2026-03-29T15:40:43.001Z</time></trkpt><trkpt lat="37.29324343279762" lon="13.765539505119465"><ele>333.0</ele><time>2026-03-29T15:40:44.001Z</time></trkpt><trkpt lat="37.29307468828967" lon="13.765339531708747"><ele>330.5</ele><time>2026-03-29T15:40:45.001Z</time></trkpt><trkpt lat="37.292899257655364" lon="13.765131245611574"><ele>328.0</ele><time>2026-03-29T15:40:46.001Z</time></trkpt><trkpt lat="37.29272141254393" lon="13.764921759970635"><ele>328.0</ele><time>2026-03-29T15:40:47.001Z</time></trkpt><trkpt lat="37.29254399945437" lon="13.764711495762329"><ele>328.0</ele><time>2026-03-29T15:40:48.001Z</time></trkpt><trkpt lat="37.29236849027323" lon="13.764498519567148"><ele>327.0</ele><time>2026-03-29T15:40:49.001Z</time></trkpt><trkpt lat="37.29219356621065" lon="13.764286425033218"><ele>326.0</ele><time>2026-03-29T15:40:50.001Z</time></trkpt><trkpt lat="37.29201856877206" lon="13.764075311032657"><ele>326.0</ele><time>2026-03-29T15:40:51.001Z</time></trkpt><trkpt lat="37.29183633804496" lon="13.763856537222841"><ele>326.0</ele><time>2026-03-29T15:40:52.001Z</time></trkpt><trkpt lat="37.2916552038724" lon="13.76363722348846"><ele>328.5</ele><time>2026-03-29T15:40:53.001Z</time></trkpt><trkpt lat="37.29148372460766" lon="13.763415657345474"><ele>331.0</ele><time>2026-03-29T15:40:54.001Z</time></trkpt><trkpt lat="37.29132375169919" lon="13.763189219140015"><ele>332.0</ele><time>2026-03-29T15:40:55.001Z</time></trkpt><trkpt lat="37.29117522633867" lon="13.762952403379874"><ele>333.0</ele><time>2026-03-29T15:40:56.001Z</time></trkpt><trkpt lat="37.29104827229427" lon="13.762692432227052"><ele>334.0</ele><time>2026-03-29T15:40:57.001Z</time></trkpt><trkpt lat="37.290926629173015" lon="13.7624186144535"><ele>335.0</ele><time>2026-03-29T15:40:58.001Z</time></trkpt><trkpt lat="37.29080347292922" lon="13.762148793947693"><ele>335.0</ele><time>2026-03-29T15:40:59.001Z</time></trkpt><trkpt lat="37.29066683220084" lon="13.761878571206891"><ele>335.0</ele><time>2026-03-29T15:41:00.001Z</time></trkpt><trkpt lat="37.29052552637395" lon="13.761616538065473"><ele>332.5</ele><time>2026-03-29T15:41:01.001Z</time></trkpt><trkpt lat="37.29037523608196" lon="13.761366815508168"><ele>330.0</ele><time>2026-03-29T15:41:02.001Z</time></trkpt><trkpt lat="37.29020490183817" lon="13.761135653897"><ele>329.0</ele><time>2026-03-29T15:41:03.001Z</time></trkpt><trkpt lat="37.29001517370477" lon="13.760922079868303"><ele>328.0</ele><time>2026-03-29T15:41:04.001Z</time></trkpt><trkpt lat="37.2898097254226" lon="13.760733132359299"><ele>328.5</ele><time>2026-03-29T15:41:05.001Z</time></trkpt><trkpt lat="37.2895927244768" lon="13.760555906764148"><ele>329.0</ele><time>2026-03-29T15:41:06.002Z</time></trkpt><trkpt lat="37.28937078139889" lon="13.760385475279598"><ele>329.0</ele><time>2026-03-29T15:41:07.002Z</time></trkpt><trkpt lat="37.289153563339966" lon="13.760211747780037"><ele>329.0</ele><time>2026-03-29T15:41:08.002Z</time></trkpt><trkpt lat="37.2889364571003" lon="13.760045961818149"><ele>327.5</ele><time>2026-03-29T15:41:09.002Z</time></trkpt><trkpt lat="37.288705249812736" lon="13.75990593525984"><ele>326.0</ele><time>2026-03-29T15:41:10.002Z</time></trkpt><trkpt lat="37.288462183502375" lon="13.759785003941177"><ele>326.0</ele><time>2026-03-29T15:41:11.002Z</time></trkpt><trkpt lat="37.2882178147083" lon="13.75967344124686"><ele>326.0</ele><time>2026-03-29T15:41:12.002Z</time></trkpt><trkpt lat="37.2879800493497" lon="13.759555915385569"><ele>327.5</ele><time>2026-03-29T15:41:13.002Z</time></trkpt><trkpt lat="37.287754170475374" lon="13.759418207684714"><ele>329.0</ele><time>2026-03-29T15:41:14.002Z</time></trkpt><trkpt lat="37.28753926396902" lon="13.75925044422916"><ele>325.5</ele><time>2026-03-29T15:41:15.002Z</time></trkpt><trkpt lat="37.28733301689075" lon="13.75904843421385"><ele>322.0</ele><time>2026-03-29T15:41:16.002Z</time></trkpt><trkpt lat="37.28713553067168" lon="13.758823328547559"><ele>322.0</ele><time>2026-03-29T15:41:17.002Z</time></trkpt><trkpt lat="37.286949846015574" lon="13.75857877825773"><ele>322.0</ele><time>2026-03-29T15:41:18.002Z</time></trkpt><trkpt lat="37.28676898977934" lon="13.758326342442611"><ele>322.0</ele><time>2026-03-29T15:41:19.002Z</time></trkpt><trkpt lat="37.28658641646089" lon="13.758073711253559"><ele>322.0</ele><time>2026-03-29T15:41:20.002Z</time></trkpt><trkpt lat="37.286401664286174" lon="13.757826010219011"><ele>316.0</ele><time>2026-03-29T15:41:21.002Z</time></trkpt><trkpt lat="37.286212031482144" lon="13.757582931779528"><ele>310.0</ele><time>2026-03-29T15:41:22.002Z</time></trkpt><trkpt lat="37.286015185702944" lon="13.757349380493642"><ele>310.0</ele><time>2026-03-29T15:41:23.002Z</time></trkpt><trkpt lat="37.28580728816371" lon="13.757132023051053"><ele>310.0</ele><time>2026-03-29T15:41:24.002Z</time></trkpt><trkpt lat="37.28559075886348" lon="13.756928064514701"><ele>306.5</ele><time>2026-03-29T15:41:25.002Z</time></trkpt><trkpt lat="37.28537316219827" lon="13.756728225997525"><ele>303.0</ele><time>2026-03-29T15:41:26.002Z</time></trkpt><trkpt lat="37.285157529401694" lon="13.756531861320182"><ele>303.0</ele><time>2026-03-29T15:41:27.002Z</time></trkpt><trkpt lat="37.28494388225726" lon="13.756336787056924"><ele>303.0</ele><time>2026-03-29T15:41:28.002Z</time></trkpt><trkpt lat="37.28473255659693" lon="13.756138641312809"><ele>302.5</ele><time>2026-03-29T15:41:29.002Z</time></trkpt><trkpt lat="37.28453474632377" lon="13.75595505064544"><ele>302.0</ele><time>2026-03-29T15:41:30.002Z</time></trkpt><trkpt lat="37.28435180180953" lon="13.755782500815442"><ele>302.0</ele><time>2026-03-29T15:41:31.002Z</time></trkpt><trkpt lat="37.284186194568456" lon="13.755603049377674"><ele>302.0</ele><time>2026-03-29T15:41:32.002Z</time></trkpt><trkpt lat="37.28403693884073" lon="13.755383529505897"><ele>302.0</ele><time>2026-03-29T15:41:33.002Z</time></trkpt><trkpt lat="37.28390125276254" lon="13.7551330275819"><ele>299.5</ele><time>2026-03-29T15:41:34.002Z</time></trkpt><trkpt lat="37.283780916127824" lon="13.754854620500563"><ele>297.0</ele><time>2026-03-29T15:41:35.002Z</time></trkpt><trkpt lat="37.28366538418312" lon="13.754563012770697"><ele>297.5</ele><time>2026-03-29T15:41:36.002Z</time></trkpt><trkpt lat="37.28354998906324" lon="13.75426858583498"><ele>298.0</ele><time>2026-03-29T15:41:37.002Z</time></trkpt><trkpt lat="37.28343696429811" lon="13.753985514687942"><ele>298.0</ele><time>2026-03-29T15:41:38Z</time></trkpt><trkpt lat="37.28332459420451" lon="13.753712753203763"><ele>298.0</ele><time>2026-03-29T15:41:39Z</time></trkpt><trkpt lat="37.283212106490325" lon="13.753444918037113"><ele>299.5</ele><time>2026-03-29T15:41:40Z</time></trkpt><trkpt lat="37.28310044860743" lon="13.753181460929406"><ele>301.0</ele><time>2026-03-29T15:41:41Z</time></trkpt><trkpt lat="37.28300302328049" lon="13.752925409567217"><ele>297.0</ele><time>2026-03-29T15:41:42Z</time></trkpt><trkpt lat="37.282931266431554" lon="13.752668865714108"><ele>293.0</ele><time>2026-03-29T15:41:43Z</time></trkpt><trkpt lat="37.28289004327071" lon="13.752392140829517"><ele>289.0</ele><time>2026-03-29T15:41:44Z</time></trkpt><trkpt lat="37.28287299494501" lon="13.752104067497575"><ele>288.3333333333333</ele><time>2026-03-29T15:41:45Z</time></trkpt><trkpt lat="37.28286322227892" lon="13.751819039735857"><ele>287.6666666666667</ele><time>2026-03-29T15:41:46Z</time></trkpt><trkpt lat="37.282852242055114" lon="13.75155277692585"><ele>287.0</ele><time>2026-03-29T15:41:47Z</time></trkpt><trkpt lat="37.282836273070764" lon="13.751284441030615"><ele>285.33333333333337</ele><time>2026-03-29T15:41:48Z</time></trkpt><trkpt lat="37.282808992644036" lon="13.751028616497184"><ele>283.6666666666667</ele><time>2026-03-29T15:41:49Z</time></trkpt><trkpt lat="37.28275841206534" lon="13.750774530155807"><ele>282.0</ele><time>2026-03-29T15:41:50Z</time></trkpt><trkpt lat="37.28267510918512" lon="13.75052132961167"><ele>282.0</ele><time>2026-03-29T15:41:51Z</time></trkpt><trkpt lat="37.28254648165802" lon="13.750284916518538"><ele>282.0</ele><time>2026-03-29T15:41:52Z</time></trkpt><trkpt lat="37.282394550640355" lon="13.750059446512804"><ele>279.0</ele><time>2026-03-29T15:41:53Z</time></trkpt><trkpt lat="37.28223415143177" lon="13.74984267817051"><ele>276.0</ele><time>2026-03-29T15:41:54Z</time></trkpt><trkpt lat="37.2820761799359" lon="13.749622647857043"><ele>276.0</ele><time>2026-03-29T15:41:55Z</time></trkpt><trkpt lat="37.28192381272236" lon="13.74939982858945"><ele>276.0</ele><time>2026-03-29T15:41:56Z</time></trkpt><trkpt lat="37.281780261136355" lon="13.749185495681141"><ele>275.6666666666667</ele><time>2026-03-29T15:41:57Z</time></trkpt><trkpt lat="37.2816361861445" lon="13.748977759096856"><ele>275.33333333333337</ele><time>2026-03-29T15:41:58Z</time></trkpt><trkpt lat="37.28149451655691" lon="13.748775687072454"><ele>275.0</ele><time>2026-03-29T15:41:59Z</time></trkpt><trkpt lat="37.28135524035761" lon="13.748577285677849"><ele>273.33333333333337</ele><time>2026-03-29T15:42:00Z</time></trkpt><trkpt lat="37.281216194569836" lon="13.748378698957964"><ele>271.6666666666667</ele><time>2026-03-29T15:42:01Z</time></trkpt><trkpt lat="37.281076699987516" lon="13.748180572107927"><ele>270.0</ele><time>2026-03-29T15:42:02Z</time></trkpt><trkpt lat="37.28094073706122" lon="13.747984995486402"><ele>270.0</ele><time>2026-03-29T15:42:03Z</time></trkpt><trkpt lat="37.28080823489877" lon="13.74779324962859"><ele>270.0</ele><time>2026-03-29T15:42:04Z</time></trkpt><trkpt lat="37.280678693658416" lon="13.747603736260736"><ele>270.0</ele><time>2026-03-29T15:42:05Z</time></trkpt><trkpt lat="37.28055081275836" lon="13.747414321640052"><ele>270.6666666666667</ele><time>2026-03-29T15:42:06Z</time></trkpt><trkpt lat="37.28042927173993" lon="13.747218805232647"><ele>271.33333333333337</ele><time>2026-03-29T15:42:07Z</time></trkpt><trkpt lat="37.280318817584146" lon="13.747010834830354"><ele>272.0</ele><time>2026-03-29T15:42:08.001Z</time></trkpt><trkpt lat="37.280224584505625" lon="13.746790443271399"><ele>274.0</ele><time>2026-03-29T15:42:09.001Z</time></trkpt><trkpt lat="37.28013809675344" lon="13.74655335493172"><ele>276.0</ele><time>2026-03-29T15:42:10.001Z</time></trkpt><trkpt lat="37.280056803997304" lon="13.746300232957438"><ele>278.0</ele><time>2026-03-29T15:42:11.001Z</time></trkpt><trkpt lat="37.279982807478355" lon="13.746029659935946"><ele>281.0</ele><time>2026-03-29T15:42:12.001Z</time></trkpt><trkpt lat="37.279910085377864" lon="13.745751569938317"><ele>284.0</ele><time>2026-03-29T15:42:13.001Z</time></trkpt><trkpt lat="37.279836126240504" lon="13.74547980848356"><ele>281.0</ele><time>2026-03-29T15:42:14.001Z</time></trkpt><trkpt lat="37.27975792194959" lon="13.745202297009456"><ele>278.0</ele><time>2026-03-29T15:42:15.001Z</time></trkpt><trkpt lat="37.27968005046343" lon="13.744928580088741"><ele>278.0</ele><time>2026-03-29T15:42:16.001Z</time></trkpt><trkpt lat="37.27960479051335" lon="13.744654835637105"><ele>278.0</ele><time>2026-03-29T15:42:17.001Z</time></trkpt><trkpt lat="37.279529024368514" lon="13.744378905621742"><ele>282.0</ele><time>2026-03-29T15:42:18.001Z</time></trkpt><trkpt lat="37.2794548597134" lon="13.744102273000376"><ele>286.0</ele><time>2026-03-29T15:42:19.001Z</time></trkpt><trkpt lat="37.27938245517208" lon="13.743829339697752"><ele>286.0</ele><time>2026-03-29T15:42:20.001Z</time></trkpt><trkpt lat="37.27930652531083" lon="13.743553823634217"><ele>286.0</ele><time>2026-03-29T15:42:21.001Z</time></trkpt><trkpt lat="37.279221846558855" lon="13.743271032265824"><ele>290.0</ele><time>2026-03-29T15:42:22.001Z</time></trkpt><trkpt lat="37.279136504509786" lon="13.742974996911082"><ele>294.0</ele><time>2026-03-29T15:42:23.001Z</time></trkpt><trkpt lat="37.27905031082274" lon="13.74267339662902"><ele>294.0</ele><time>2026-03-29T15:42:24.001Z</time></trkpt><trkpt lat="37.27896448632916" lon="13.742367538490557"><ele>294.0</ele><time>2026-03-29T15:42:25.001Z</time></trkpt><trkpt lat="37.27888237813532" lon="13.742064739280499"><ele>295.5</ele><time>2026-03-29T15:42:26.001Z</time></trkpt><trkpt lat="37.27879832263228" lon="13.74175920421199"><ele>297.0</ele><time>2026-03-29T15:42:27.001Z</time></trkpt><trkpt lat="37.278719107996146" lon="13.741461143253039"><ele>297.0</ele><time>2026-03-29T15:42:28.001Z</time></trkpt><trkpt lat="37.278637217416666" lon="13.741174799565167"><ele>297.0</ele><time>2026-03-29T15:42:29.001Z</time></trkpt><trkpt lat="37.27854915724237" lon="13.740896784562906"><ele>295.0</ele><time>2026-03-29T15:42:30.001Z</time></trkpt><trkpt lat="37.27844014042868" lon="13.740627327734147"><ele>293.0</ele><time>2026-03-29T15:42:31.001Z</time></trkpt><trkpt lat="37.278311449488065" lon="13.740375401270521"><ele>290.0</ele><time>2026-03-29T15:42:32.001Z</time></trkpt><trkpt lat="37.2781632374303" lon="13.740141690339476"><ele>287.0</ele><time>2026-03-29T15:42:33.001Z</time></trkpt><trkpt lat="37.278004615088086" lon="13.739917822105397"><ele>285.5</ele><time>2026-03-29T15:42:34.001Z</time></trkpt><trkpt lat="37.27784217011951" lon="13.739697363035102"><ele>284.0</ele><time>2026-03-29T15:42:35.001Z</time></trkpt><trkpt lat="37.2776856311746" lon="13.739476004480139"><ele>280.5</ele><time>2026-03-29T15:42:36.001Z</time></trkpt><trkpt lat="37.27752910924406" lon="13.739257914782405"><ele>277.0</ele><time>2026-03-29T15:42:37.001Z</time></trkpt><trkpt lat="37.27737400495259" lon="13.739040618387792"><ele>276.0</ele><time>2026-03-29T15:42:38.001Z</time></trkpt><trkpt lat="37.27721745491887" lon="13.738822081404313"><ele>275.0</ele><time>2026-03-29T15:42:39.001Z</time></trkpt><trkpt lat="37.27705602868646" lon="13.738594334452841"><ele>272.5</ele><time>2026-03-29T15:42:40.001Z</time></trkpt><trkpt lat="37.276890081280015" lon="13.73836105015861"><ele>270.0</ele><time>2026-03-29T15:42:41.001Z</time></trkpt><trkpt lat="37.27672120301349" lon="13.738126294700844"><ele>270.0</ele><time>2026-03-29T15:42:42.001Z</time></trkpt><trkpt lat="37.276547741968905" lon="13.737890312919987"><ele>270.0</ele><time>2026-03-29T15:42:43.001Z</time></trkpt><trkpt lat="37.27637062200681" lon="13.737657968349717"><ele>267.5</ele><time>2026-03-29T15:42:44.001Z</time></trkpt><trkpt lat="37.2761887686368" lon="13.737431227068434"><ele>265.0</ele><time>2026-03-29T15:42:45.001Z</time></trkpt><trkpt lat="37.2759995268178" lon="13.737207013530139"><ele>265.0</ele><time>2026-03-29T15:42:46.001Z</time></trkpt><trkpt lat="37.2757986911693" lon="13.736990811043272"><ele>265.0</ele><time>2026-03-29T15:42:47.001Z</time></trkpt><trkpt lat="37.27559787889257" lon="13.73677587192258"><ele>261.5</ele><time>2026-03-29T15:42:48.001Z</time></trkpt><trkpt lat="37.27539742840066" lon="13.736550691430294"><ele>258.0</ele><time>2026-03-29T15:42:49.001Z</time></trkpt><trkpt lat="37.27518862694295" lon="13.736316181022346"><ele>258.0</ele><time>2026-03-29T15:42:50.001Z</time></trkpt><trkpt lat="37.274980124953096" lon="13.736079725453362"><ele>258.0</ele><time>2026-03-29T15:42:51.001Z</time></trkpt><trkpt lat="37.274770843789014" lon="13.73584325172365"><ele>256.0</ele><time>2026-03-29T15:42:52.002Z</time></trkpt><trkpt lat="37.27456251196357" lon="13.735608245783864"><ele>254.0</ele><time>2026-03-29T15:42:53.002Z</time></trkpt><trkpt lat="37.27435821325494" lon="13.735379214325286"><ele>253.5</ele><time>2026-03-29T15:42:54.002Z</time></trkpt><trkpt lat="37.27415920637276" lon="13.735154370479524"><ele>253.0</ele><time>2026-03-29T15:42:55.002Z</time></trkpt><trkpt lat="37.273960899048284" lon="13.734934412485389"><ele>250.5</ele><time>2026-03-29T15:42:56.002Z</time></trkpt><trkpt lat="37.27374467294261" lon="13.734731546460164"><ele>248.0</ele><time>2026-03-29T15:42:57.002Z</time></trkpt><trkpt lat="37.273512288070116" lon="13.734552071889484"><ele>248.5</ele><time>2026-03-29T15:42:58.002Z</time></trkpt><trkpt lat="37.27326157101513" lon="13.734380912374315"><ele>249.0</ele><time>2026-03-29T15:42:59.002Z</time></trkpt><trkpt lat="37.273002100354844" lon="13.734207893263564"><ele>249.0</ele><time>2026-03-29T15:43:00.002Z</time></trkpt><trkpt lat="37.27273313380381" lon="13.734039104715132"><ele>249.0</ele><time>2026-03-29T15:43:01.002Z</time></trkpt><trkpt lat="37.2724718677811" lon="13.733839737900725"><ele>248.5</ele><time>2026-03-29T15:43:02.002Z</time></trkpt><trkpt lat="37.27219915169886" lon="13.733657255530979"><ele>248.0</ele><time>2026-03-29T15:43:03.002Z</time></trkpt><trkpt lat="37.27192047351235" lon="13.73348781585908"><ele>248.0</ele><time>2026-03-29T15:43:04.002Z</time></trkpt><trkpt lat="37.271633645481835" lon="13.733339009954173"><ele>248.0</ele><time>2026-03-29T15:43:05.002Z</time></trkpt><trkpt lat="37.27135481034227" lon="13.733173993528224"><ele>247.0</ele><time>2026-03-29T15:43:06.002Z</time></trkpt><trkpt lat="37.27106881213299" lon="13.733014957555806"><ele>246.0</ele><time>2026-03-29T15:43:07.002Z</time></trkpt><trkpt lat="37.27077946478025" lon="13.73285586491625"><ele>247.5</ele><time>2026-03-29T15:43:08.002Z</time></trkpt><trkpt lat="37.27049302111924" lon="13.73269637582499"><ele>249.0</ele><time>2026-03-29T15:43:09.002Z</time></trkpt><trkpt lat="37.270209726129565" lon="13.73253597856147"><ele>249.0</ele><time>2026-03-29T15:43:10.002Z</time></trkpt><trkpt lat="37.26993288743334" lon="13.732379124834786"><ele>249.0</ele><time>2026-03-29T15:43:11.002Z</time></trkpt><trkpt lat="37.26966682720715" lon="13.732223167898207"><ele>249.0</ele><time>2026-03-29T15:43:12.002Z</time></trkpt><trkpt lat="37.269412346413006" lon="13.732065362790902"><ele>249.0</ele><time>2026-03-29T15:43:13.002Z</time></trkpt><trkpt lat="37.26918818786354" lon="13.731873366755636"><ele>249.0</ele><time>2026-03-29T15:43:14.002Z</time></trkpt><trkpt lat="37.26896163811831" lon="13.731678020772693"><ele>249.0</ele><time>2026-03-29T15:43:15.002Z</time></trkpt><trkpt lat="37.268757348136894" lon="13.731433034228955"><ele>249.0</ele><time>2026-03-29T15:43:16.002Z</time></trkpt><trkpt lat="37.2685762120287" lon="13.731162726533457"><ele>249.0</ele><time>2026-03-29T15:43:17.002Z</time></trkpt><trkpt lat="37.26841860184275" lon="13.730869783341772"><ele>250.5</ele><time>2026-03-29T15:43:18.002Z</time></trkpt><trkpt lat="37.268277264909145" lon="13.730562580656017"><ele>252.0</ele><time>2026-03-29T15:43:19.002Z</time></trkpt><trkpt lat="37.268143081398335" lon="13.730241600210512"><ele>252.0</ele><time>2026-03-29T15:43:20.002Z</time></trkpt><trkpt lat="37.26799543812337" lon="13.729920584644306"><ele>252.0</ele><time>2026-03-29T15:43:21.002Z</time></trkpt><trkpt lat="37.26784584273044" lon="13.72959528194751"><ele>252.0</ele><time>2026-03-29T15:43:22.002Z</time></trkpt><trkpt lat="37.267696929698864" lon="13.729268620779145"><ele>252.0</ele><time>2026-03-29T15:43:23.002Z</time></trkpt><trkpt lat="37.267547918705745" lon="13.728941495302308"><ele>252.0</ele><time>2026-03-29T15:43:24.002Z</time></trkpt><trkpt lat="37.2674053129262" lon="13.72861806058267"><ele>252.0</ele><time>2026-03-29T15:43:25.002Z</time></trkpt><trkpt lat="37.2672695480203" lon="13.728301848328371"><ele>252.0</ele><time>2026-03-29T15:43:26.002Z</time></trkpt><trkpt lat="37.26713791616321" lon="13.727998983750295"><ele>252.0</ele><time>2026-03-29T15:43:27.002Z</time></trkpt><trkpt lat="37.267013629044726" lon="13.72771553656869"><ele>249.5</ele><time>2026-03-29T15:43:28.002Z</time></trkpt><trkpt lat="37.26689076870685" lon="13.727437157129845"><ele>247.0</ele><time>2026-03-29T15:43:29.002Z</time></trkpt><trkpt lat="37.26676978947168" lon="13.7271691793725"><ele>247.0</ele><time>2026-03-29T15:43:30.002Z</time></trkpt><trkpt lat="37.2666398802538" lon="13.726916920845973"><ele>247.0</ele><time>2026-03-29T15:43:31.002Z</time></trkpt><trkpt lat="37.26652760510644" lon="13.726657423171615"><ele>243.0</ele><time>2026-03-29T15:43:32.002Z</time></trkpt><trkpt lat="37.266297117526435" lon="13.72647946479974"><ele>239.0</ele><time>2026-03-29T15:43:33.002Z</time></trkpt><trkpt lat="37.26608085826509" lon="13.726287474509439"><ele>239.0</ele><time>2026-03-29T15:43:34.002Z</time></trkpt><trkpt lat="37.26585955736559" lon="13.72610956269996"><ele>239.0</ele><time>2026-03-29T15:43:35.002Z</time></trkpt><trkpt lat="37.26563619804924" lon="13.725937524851021"><ele>233.0</ele><time>2026-03-29T15:43:36.002Z</time></trkpt><trkpt lat="37.265416763521266" lon="13.725761917637858"><ele>227.0</ele><time>2026-03-29T15:43:37.003Z</time></trkpt><trkpt lat="37.26520712823284" lon="13.725582150958942"><ele>227.0</ele><time>2026-03-29T15:43:38.003Z</time></trkpt><trkpt lat="37.265007687281404" lon="13.725383115205391"><ele>227.0</ele><time>2026-03-29T15:43:39.003Z</time></trkpt><trkpt lat="37.264818107211696" lon="13.725157559823911"><ele>222.5</ele><time>2026-03-29T15:43:40.003Z</time></trkpt><trkpt lat="37.2646382402428" lon="13.724908262813317"><ele>218.0</ele><time>2026-03-29T15:43:41.003Z</time></trkpt><trkpt lat="37.264463673358904" lon="13.724644246189479"><ele>218.0</ele><time>2026-03-29T15:43:42.003Z</time></trkpt><trkpt lat="37.264287440418215" lon="13.724379092732027"><ele>218.0</ele><time>2026-03-29T15:43:43.003Z</time></trkpt><trkpt lat="37.26411023131297" lon="13.724114375719907"><ele>209.5</ele><time>2026-03-29T15:43:44.001Z</time></trkpt><trkpt lat="37.263938228245735" lon="13.723857189449614"><ele>201.0</ele><time>2026-03-29T15:43:45.001Z</time></trkpt><trkpt lat="37.2637676008136" lon="13.723603642820347"><ele>201.5</ele><time>2026-03-29T15:43:46.001Z</time></trkpt><trkpt lat="37.26359579150052" lon="13.72334863097563"><ele>202.0</ele><time>2026-03-29T15:43:47.001Z</time></trkpt><trkpt lat="37.263424509223086" lon="13.723093063637394"><ele>202.0</ele><time>2026-03-29T15:43:48.001Z</time></trkpt><trkpt lat="37.26325809288164" lon="13.722844275197069"><ele>202.0</ele><time>2026-03-29T15:43:49.001Z</time></trkpt><trkpt lat="37.26309553105676" lon="13.722602346524011"><ele>196.5</ele><time>2026-03-29T15:43:50.001Z</time></trkpt><trkpt lat="37.26293207118251" lon="13.722365111927196"><ele>191.0</ele><time>2026-03-29T15:43:51.001Z</time></trkpt><trkpt lat="37.26276956466077" lon="13.722127440263598"><ele>195.0</ele><time>2026-03-29T15:43:52.001Z</time></trkpt><trkpt lat="37.26261369946439" lon="13.721893754800133"><ele>199.0</ele><time>2026-03-29T15:43:53.001Z</time></trkpt><trkpt lat="37.26245669521437" lon="13.72166044660712"><ele>199.0</ele><time>2026-03-29T15:43:54.001Z</time></trkpt><trkpt lat="37.26230038829896" lon="13.721430482253204"><ele>199.0</ele><time>2026-03-29T15:43:55.001Z</time></trkpt><trkpt lat="37.262149450100615" lon="13.721203562535777"><ele>194.0</ele><time>2026-03-29T15:43:56.001Z</time></trkpt><trkpt lat="37.26199559173903" lon="13.72097905202076"><ele>189.0</ele><time>2026-03-29T15:43:57.001Z</time></trkpt><trkpt lat="37.261824990667925" lon="13.72075219014851"><ele>189.0</ele><time>2026-03-29T15:43:58.001Z</time></trkpt><trkpt lat="37.26163542455269" lon="13.720553580305952"><ele>189.0</ele><time>2026-03-29T15:43:59.001Z</time></trkpt><trkpt lat="37.261424857392775" lon="13.720400015902573"><ele>192.5</ele><time>2026-03-29T15:44:00.001Z</time></trkpt><trkpt lat="37.26119374872922" lon="13.720285052728036"><ele>196.0</ele><time>2026-03-29T15:44:01.001Z</time></trkpt><trkpt lat="37.26095026265707" lon="13.720199568226393"><ele>196.0</ele><time>2026-03-29T15:44:02.001Z</time></trkpt><trkpt lat="37.260697707967985" lon="13.720121038627784"><ele>196.0</ele><time>2026-03-29T15:44:03.001Z</time></trkpt><trkpt lat="37.26044448986831" lon="13.720031846142104"><ele>186.0</ele><time>2026-03-29T15:44:04.001Z</time></trkpt><trkpt lat="37.260198201216596" lon="13.719938685111728"><ele>176.0</ele><time>2026-03-29T15:44:05.001Z</time></trkpt><trkpt lat="37.259966774891666" lon="13.719848166461215"><ele>171.0</ele><time>2026-03-29T15:44:06.001Z</time></trkpt><trkpt lat="37.25973534216094" lon="13.719756060610667"><ele>166.0</ele><time>2026-03-29T15:44:07.001Z</time></trkpt><trkpt lat="37.259528527384006" lon="13.719658680626024"><ele>166.0</ele><time>2026-03-29T15:44:08.001Z</time></trkpt><trkpt lat="37.25934234945368" lon="13.719536145401527"><ele>166.0</ele><time>2026-03-29T15:44:09.001Z</time></trkpt><trkpt lat="37.259183146803714" lon="13.719368321046819"><ele>166.0</ele><time>2026-03-29T15:44:10.001Z</time></trkpt><trkpt lat="37.25904766652897" lon="13.719161443249314"><ele>167.5</ele><time>2026-03-29T15:44:11.001Z</time></trkpt><trkpt lat="37.25892649176665" lon="13.718920103256519"><ele>169.0</ele><time>2026-03-29T15:44:12.001Z</time></trkpt><trkpt lat="37.25881867880716" lon="13.718648379335946"><ele>165.0</ele><time>2026-03-29T15:44:13.001Z</time></trkpt><trkpt lat="37.25870489275811" lon="13.71836658606236"><ele>161.0</ele><time>2026-03-29T15:44:14.001Z</time></trkpt><trkpt lat="37.258579184434794" lon="13.718095022691633"><ele>161.0</ele><time>2026-03-29T15:44:15.001Z</time></trkpt><trkpt lat="37.258449803672704" lon="13.71782791470523"><ele>161.0</ele><time>2026-03-29T15:44:16.001Z</time></trkpt><trkpt lat="37.25831544784266" lon="13.717570300861915"><ele>162.5</ele><time>2026-03-29T15:44:17.001Z</time></trkpt><trkpt lat="37.25817052142141" lon="13.717327935740109"><ele>164.0</ele><time>2026-03-29T15:44:18.001Z</time></trkpt><trkpt lat="37.258006066667896" lon="13.717114156228673"><ele>167.5</ele><time>2026-03-29T15:44:19.001Z</time></trkpt><trkpt lat="37.25781819045417" lon="13.716924153498468"><ele>171.0</ele><time>2026-03-29T15:44:20.001Z</time></trkpt><trkpt lat="37.25761158702052" lon="13.716765224772784"><ele>171.0</ele><time>2026-03-29T15:44:21.001Z</time></trkpt><trkpt lat="37.257385901430595" lon="13.7166402074457"><ele>171.0</ele><time>2026-03-29T15:44:22.001Z</time></trkpt><trkpt lat="37.25713781454739" lon="13.716535210145345"><ele>165.0</ele><time>2026-03-29T15:44:23.001Z</time></trkpt><trkpt lat="37.25687850415158" lon="13.71645010679877"><ele>159.0</ele><time>2026-03-29T15:44:24.001Z</time></trkpt><trkpt lat="37.25661161060263" lon="13.716371440571583"><ele>153.0</ele><time>2026-03-29T15:44:25.001Z</time></trkpt><trkpt lat="37.2563397703317" lon="13.716280445467113"><ele>147.0</ele><time>2026-03-29T15:44:26.001Z</time></trkpt><trkpt lat="37.256068106288986" lon="13.716168510650242"><ele>158.5</ele><time>2026-03-29T15:44:27.001Z</time></trkpt><trkpt lat="37.255800759466545" lon="13.716040833861854"><ele>170.0</ele><time>2026-03-29T15:44:28.001Z</time></trkpt><trkpt lat="37.255549868510144" lon="13.71591174549433"><ele>170.0</ele><time>2026-03-29T15:44:29.001Z</time></trkpt><trkpt lat="37.25531987979796" lon="13.715794890098943"><ele>170.0</ele><time>2026-03-29T15:44:30.001Z</time></trkpt><trkpt lat="37.25511272651404" lon="13.715695203965948"><ele>170.0</ele><time>2026-03-29T15:44:31.001Z</time></trkpt><trkpt lat="37.254934563925765" lon="13.71559685445108"><ele>170.0</ele><time>2026-03-29T15:44:32.001Z</time></trkpt><trkpt lat="37.25478927222159" lon="13.71548358998151"><ele>170.0</ele><time>2026-03-29T15:44:33.001Z</time></trkpt><trkpt lat="37.25469206862197" lon="13.715335723805092"><ele>172.33333333333331</ele><time>2026-03-29T15:44:34.001Z</time></trkpt><trkpt lat="37.254633563095666" lon="13.71515824149683"><ele>174.66666666666666</ele><time>2026-03-29T15:44:35.001Z</time></trkpt><trkpt lat="37.25462622609882" lon="13.714952721102"><ele>177.0</ele><time>2026-03-29T15:44:36.001Z</time></trkpt><trkpt lat="37.254657604300014" lon="13.714735332083556"><ele>177.0</ele><time>2026-03-29T15:44:37.001Z</time></trkpt><trkpt lat="37.254710207091726" lon="13.714504263293353"><ele>177.0</ele><time>2026-03-29T15:44:38.001Z</time></trkpt><trkpt lat="37.25476603539505" lon="13.714248528372421"><ele>177.0</ele><time>2026-03-29T15:44:39.001Z</time></trkpt><trkpt lat="37.25480799936695" lon="13.713971670532656"><ele>178.0</ele><time>2026-03-29T15:44:40.001Z</time></trkpt><trkpt lat="37.25483166168784" lon="13.713671368717252"><ele>179.0</ele><time>2026-03-29T15:44:41.001Z</time></trkpt><trkpt lat="37.25483755784184" lon="13.713353556775909"><ele>175.5</ele><time>2026-03-29T15:44:42.001Z</time></trkpt><trkpt lat="37.254827649459635" lon="13.713023242546294"><ele>172.0</ele><time>2026-03-29T15:44:43.001Z</time></trkpt><trkpt lat="37.25481101100304" lon="13.712681709131028"><ele>169.0</ele><time>2026-03-29T15:44:44.001Z</time></trkpt><trkpt lat="37.254796743701235" lon="13.712326980028635"><ele>166.0</ele><time>2026-03-29T15:44:45.002Z</time></trkpt><trkpt lat="37.25478471663983" lon="13.71196582612381"><ele>154.0</ele><time>2026-03-29T15:44:46.002Z</time></trkpt><trkpt lat="37.254770339940386" lon="13.711603437851778"><ele>142.0</ele><time>2026-03-29T15:44:47.002Z</time></trkpt><trkpt lat="37.25475426310569" lon="13.71124069142891"><ele>141.0</ele><time>2026-03-29T15:44:48.002Z</time></trkpt><trkpt lat="37.2547379408101" lon="13.710881256312359"><ele>140.0</ele><time>2026-03-29T15:44:49.002Z</time></trkpt><trkpt lat="37.254723866518624" lon="13.710525448975034"><ele>139.0</ele><time>2026-03-29T15:44:50.002Z</time></trkpt><trkpt lat="37.254710887896536" lon="13.710174346298164"><ele>138.0</ele><time>2026-03-29T15:44:51.002Z</time></trkpt><trkpt lat="37.254699668405614" lon="13.709834998058604"><ele>138.0</ele><time>2026-03-29T15:44:52.002Z</time></trkpt><trkpt lat="37.25468910405447" lon="13.709513460267035"><ele>138.0</ele><time>2026-03-29T15:44:53.002Z</time></trkpt><trkpt lat="37.25467792651955" lon="13.70920942709536"><ele>137.5</ele><time>2026-03-29T15:44:54.002Z</time></trkpt><trkpt lat="37.25466409913046" lon="13.708911237641786"><ele>137.0</ele><time>2026-03-29T15:44:55.002Z</time></trkpt><trkpt lat="37.25463129922976" lon="13.708616390186544"><ele>137.0</ele><time>2026-03-29T15:44:56.002Z</time></trkpt><trkpt lat="37.254569446549695" lon="13.70834466882483"><ele>137.0</ele><time>2026-03-29T15:44:57.002Z</time></trkpt><trkpt lat="37.25448663288427" lon="13.708096756112129"><ele>137.0</ele><time>2026-03-29T15:44:58.002Z</time></trkpt><trkpt lat="37.254391460848275" lon="13.707843353819868"><ele>138.33333333333331</ele><time>2026-03-29T15:44:59.002Z</time></trkpt><trkpt lat="37.25427899466678" lon="13.707619068293777"><ele>139.66666666666666</ele><time>2026-03-29T15:45:00.002Z</time></trkpt><trkpt lat="37.254129754061495" lon="13.70743587723682"><ele>141.0</ele><time>2026-03-29T15:45:01.002Z</time></trkpt><trkpt lat="37.25394229545803" lon="13.707284405066595"><ele>137.0</ele><time>2026-03-29T15:45:02.002Z</time></trkpt><trkpt lat="37.2537349957324" lon="13.70716466819525"><ele>133.0</ele><time>2026-03-29T15:45:03.002Z</time></trkpt><trkpt lat="37.253528069211676" lon="13.707056940003033"><ele>133.0</ele><time>2026-03-29T15:45:04.002Z</time></trkpt><trkpt lat="37.25334187588163" lon="13.706934825968007"><ele>133.0</ele><time>2026-03-29T15:45:05.002Z</time></trkpt><trkpt lat="37.253167363852114" lon="13.706772878042125"><ele>133.0</ele><time>2026-03-29T15:45:06.002Z</time></trkpt><trkpt lat="37.2530174748246" lon="13.706568229230266"><ele>132.0</ele><time>2026-03-29T15:45:07.002Z</time></trkpt><trkpt lat="37.2528909684583" lon="13.706329659117738"><ele>131.0</ele><time>2026-03-29T15:45:08.002Z</time></trkpt><trkpt lat="37.25279360286622" lon="13.706058827149702"><ele>131.0</ele><time>2026-03-29T15:45:09.002Z</time></trkpt><trkpt lat="37.25273220750199" lon="13.70576812073788"><ele>131.0</ele><time>2026-03-29T15:45:10.002Z</time></trkpt><trkpt lat="37.25270389423288" lon="13.705469574003738"><ele>130.5</ele><time>2026-03-29T15:45:11.002Z</time></trkpt><trkpt lat="37.25271971029342" lon="13.705171677097638"><ele>130.0</ele><time>2026-03-29T15:45:12.002Z</time></trkpt><trkpt lat="37.25276838661547" lon="13.704869449118798"><ele>130.0</ele><time>2026-03-29T15:45:13.002Z</time></trkpt><trkpt lat="37.252840128183045" lon="13.70455891717299"><ele>130.0</ele><time>2026-03-29T15:45:14.002Z</time></trkpt><trkpt lat="37.25292034524809" lon="13.704236983854532"><ele>131.0</ele><time>2026-03-29T15:45:15.002Z</time></trkpt><trkpt lat="37.25299034543257" lon="13.703903669998887"><ele>132.0</ele><time>2026-03-29T15:45:16.002Z</time></trkpt><trkpt lat="37.25305695532616" lon="13.703567589227742"><ele>134.5</ele><time>2026-03-29T15:45:17.002Z</time></trkpt><trkpt lat="37.25312765910882" lon="13.703231096394582"><ele>137.0</ele><time>2026-03-29T15:45:18.002Z</time></trkpt><trkpt lat="37.2532016883538" lon="13.702894560569975"><ele>133.0</ele><time>2026-03-29T15:45:19.002Z</time></trkpt><trkpt lat="37.253264990713404" lon="13.702557230474282"><ele>129.0</ele><time>2026-03-29T15:45:20.002Z</time></trkpt><trkpt lat="37.25330665436997" lon="13.702217077836933"><ele>130.5</ele><time>2026-03-29T15:45:21.002Z</time></trkpt><trkpt lat="37.253334907866545" lon="13.701881939895491"><ele>132.0</ele><time>2026-03-29T15:45:22.002Z</time></trkpt><trkpt lat="37.25336186392219" lon="13.701548695351354"><ele>132.0</ele><time>2026-03-29T15:45:23.002Z</time></trkpt><trkpt lat="37.25339436093551" lon="13.701225554045855"><ele>132.0</ele><time>2026-03-29T15:45:24.002Z</time></trkpt><trkpt lat="37.25342452867171" lon="13.700928158293172"><ele>132.0</ele><time>2026-03-29T15:45:25.002Z</time></trkpt><trkpt lat="37.253445692109885" lon="13.700656107341144"><ele>132.0</ele><time>2026-03-29T15:45:26.002Z</time></trkpt><trkpt lat="37.253451795416076" lon="13.700401553774896"><ele>132.0</ele><time>2026-03-29T15:45:27.002Z</time></trkpt><trkpt lat="37.25343127177191" lon="13.700131544194484"><ele>132.0</ele><time>2026-03-29T15:45:28.002Z</time></trkpt><trkpt lat="37.25337104084909" lon="13.699872998811966"><ele>132.0</ele><time>2026-03-29T15:45:29.002Z</time></trkpt><trkpt lat="37.253275613672194" lon="13.699611589428029"><ele>132.0</ele><time>2026-03-29T15:45:30.002Z</time></trkpt><trkpt lat="37.25314438478365" lon="13.699362249926654"><ele>129.5</ele><time>2026-03-29T15:45:31.003Z</time></trkpt><trkpt lat="37.25297675324843" lon="13.699132911693443"><ele>127.0</ele><time>2026-03-29T15:45:32.003Z</time></trkpt><trkpt lat="37.252790163620816" lon="13.698919905245056"><ele>127.0</ele><time>2026-03-29T15:45:33.003Z</time></trkpt><trkpt lat="37.25259247362663" lon="13.698706462224502"><ele>127.0</ele><time>2026-03-29T15:45:34.003Z</time></trkpt><trkpt lat="37.25239871429743" lon="13.698493665913077"><ele>125.0</ele><time>2026-03-29T15:45:35.003Z</time></trkpt><trkpt lat="37.2522204256035" lon="13.69829230849492"><ele>123.0</ele><time>2026-03-29T15:45:36.003Z</time></trkpt><trkpt lat="37.25205735050544" lon="13.698090984063816"><ele>123.0</ele><time>2026-03-29T15:45:37.003Z</time></trkpt><trkpt lat="37.25191178633538" lon="13.697872038343707"><ele>123.0</ele><time>2026-03-29T15:45:38.003Z</time></trkpt><trkpt lat="37.251794198609154" lon="13.697625462717788"><ele>128.0</ele><time>2026-03-29T15:45:39.003Z</time></trkpt><trkpt lat="37.25170830705164" lon="13.69735738720726"><ele>133.0</ele><time>2026-03-29T15:45:40.003Z</time></trkpt><trkpt lat="37.251642075126796" lon="13.697066368164972"><ele>133.0</ele><time>2026-03-29T15:45:41.003Z</time></trkpt><trkpt lat="37.25160490863751" lon="13.696758008448183"><ele>133.0</ele><time>2026-03-29T15:45:42.003Z</time></trkpt><trkpt lat="37.25157816940701" lon="13.69643664846658"><ele>133.0</ele><time>2026-03-29T15:45:43.003Z</time></trkpt><trkpt lat="37.25155050235095" lon="13.69612453973172"><ele>133.0</ele><time>2026-03-29T15:45:44.003Z</time></trkpt><trkpt lat="37.25150725131552" lon="13.695829100158717"><ele>126.0</ele><time>2026-03-29T15:45:45.003Z</time></trkpt><trkpt lat="37.25142692265424" lon="13.695543026079754"><ele>119.0</ele><time>2026-03-29T15:45:46.003Z</time></trkpt><trkpt lat="37.251301327309776" lon="13.695269362535532"><ele>118.5</ele><time>2026-03-29T15:45:47.003Z</time></trkpt><trkpt lat="37.25114537694936" lon="13.69500198390593"><ele>118.0</ele><time>2026-03-29T15:45:48.003Z</time></trkpt><trkpt lat="37.25097434502839" lon="13.694730231230368"><ele>118.0</ele><time>2026-03-29T15:45:49.003Z</time></trkpt><trkpt lat="37.250806209735075" lon="13.694446414413092"><ele>118.0</ele><time>2026-03-29T15:45:50Z</time></trkpt><trkpt lat="37.250644816726904" lon="13.694154341909508"><ele>114.0</ele><time>2026-03-29T15:45:51Z</time></trkpt><trkpt lat="37.250484395391865" lon="13.693867606169293"><ele>110.0</ele><time>2026-03-29T15:45:52Z</time></trkpt><trkpt lat="37.250317820614754" lon="13.693578991644547"><ele>110.0</ele><time>2026-03-29T15:45:53Z</time></trkpt><trkpt lat="37.25015537559818" lon="13.693285480509891"><ele>110.0</ele><time>2026-03-29T15:45:54Z</time></trkpt><trkpt lat="37.25000893366117" lon="13.692983067244905"><ele>111.0</ele><time>2026-03-29T15:45:55Z</time></trkpt><trkpt lat="37.249887654112555" lon="13.692656043985858"><ele>112.0</ele><time>2026-03-29T15:45:56Z</time></trkpt><trkpt lat="37.24978009244066" lon="13.692306199453968"><ele>108.0</ele><time>2026-03-29T15:45:57Z</time></trkpt><trkpt lat="37.24967690691251" lon="13.691943175861365"><ele>104.0</ele><time>2026-03-29T15:45:58Z</time></trkpt><trkpt lat="37.24956855453256" lon="13.691572708740832"><ele>104.0</ele><time>2026-03-29T15:45:59Z</time></trkpt><trkpt lat="37.249453733277285" lon="13.691202392701198"><ele>104.0</ele><time>2026-03-29T15:46:00Z</time></trkpt><trkpt lat="37.24933667848541" lon="13.690826401386289"><ele>104.0</ele><time>2026-03-29T15:46:01Z</time></trkpt><trkpt lat="37.24921831943427" lon="13.690450388495638"><ele>104.0</ele><time>2026-03-29T15:46:02Z</time></trkpt><trkpt lat="37.249100960586084" lon="13.690079253850461"><ele>103.5</ele><time>2026-03-29T15:46:03Z</time></trkpt><trkpt lat="37.24898857344839" lon="13.689714937049724"><ele>103.0</ele><time>2026-03-29T15:46:04Z</time></trkpt><trkpt lat="37.24887893520736" lon="13.68935623635189"><ele>99.5</ele><time>2026-03-29T15:46:05Z</time></trkpt><trkpt lat="37.24876846520261" lon="13.689001427528714"><ele>96.0</ele><time>2026-03-29T15:46:06Z</time></trkpt><trkpt lat="37.24865692036841" lon="13.688647293386229"><ele>96.0</ele><time>2026-03-29T15:46:07Z</time></trkpt><trkpt lat="37.2485455119894" lon="13.688298758553564"><ele>96.0</ele><time>2026-03-29T15:46:08Z</time></trkpt><trkpt lat="37.24843662839775" lon="13.68795380395082"><ele>95.0</ele><time>2026-03-29T15:46:09Z</time></trkpt><trkpt lat="37.24833278717433" lon="13.687619461581306"><ele>94.0</ele><time>2026-03-29T15:46:10Z</time></trkpt><trkpt lat="37.248233554230275" lon="13.687292803470923"><ele>94.0</ele><time>2026-03-29T15:46:11.001Z</time></trkpt><trkpt lat="37.2481431089044" lon="13.686962061380573"><ele>94.0</ele><time>2026-03-29T15:46:12.001Z</time></trkpt><trkpt lat="37.24807057617415" lon="13.68662795533242"><ele>91.0</ele><time>2026-03-29T15:46:13.001Z</time></trkpt><trkpt lat="37.248017074725894" lon="13.686293220509459"><ele>88.0</ele><time>2026-03-29T15:46:14.001Z</time></trkpt><trkpt lat="37.24797794469644" lon="13.685953564968225"><ele>88.0</ele><time>2026-03-29T15:46:15.001Z</time></trkpt><trkpt lat="37.24795961433377" lon="13.685605138558335"><ele>88.0</ele><time>2026-03-29T15:46:16.001Z</time></trkpt><trkpt lat="37.24796336563838" lon="13.685245375622674"><ele>87.0</ele><time>2026-03-29T15:46:17.001Z</time></trkpt><trkpt lat="37.24798469433455" lon="13.684879559221415"><ele>86.0</ele><time>2026-03-29T15:46:18.001Z</time></trkpt><trkpt lat="37.24803135634753" lon="13.684508680873355"><ele>85.5</ele><time>2026-03-29T15:46:19.001Z</time></trkpt><trkpt lat="37.24809771919337" lon="13.684132221890925"><ele>85.0</ele><time>2026-03-29T15:46:20.001Z</time></trkpt><trkpt lat="37.24817772668717" lon="13.683755937762102"><ele>87.0</ele><time>2026-03-29T15:46:21.001Z</time></trkpt><trkpt lat="37.2482668250948" lon="13.683391952908167"><ele>89.0</ele><time>2026-03-29T15:46:22.001Z</time></trkpt><trkpt lat="37.248366802364" lon="13.683055430437104"><ele>88.5</ele><time>2026-03-29T15:46:23.001Z</time></trkpt><trkpt lat="37.24847869960102" lon="13.682751002088148"><ele>88.0</ele><time>2026-03-29T15:46:24.001Z</time></trkpt><trkpt lat="37.248592157881774" lon="13.682475372474538"><ele>88.0</ele><time>2026-03-29T15:46:25.001Z</time></trkpt><trkpt lat="37.248682728766944" lon="13.682212230110256"><ele>88.0</ele><time>2026-03-29T15:46:26.001Z</time></trkpt><trkpt lat="37.24875443099494" lon="13.681931158958111"><ele>86.0</ele><time>2026-03-29T15:46:27.001Z</time></trkpt><trkpt lat="37.24879252910223" lon="13.681632971248254"><ele>84.0</ele><time>2026-03-29T15:46:28.001Z</time></trkpt><trkpt lat="37.24879824887395" lon="13.681323865764199"><ele>82.5</ele><time>2026-03-29T15:46:29.001Z</time></trkpt><trkpt lat="37.2487733527605" lon="13.681012918070438"><ele>81.0</ele><time>2026-03-29T15:46:30.001Z</time></trkpt><trkpt lat="37.2487211053029" lon="13.68070749501161"><ele>81.0</ele><time>2026-03-29T15:46:31.001Z</time></trkpt><trkpt lat="37.24863297207513" lon="13.680414276317416"><ele>81.0</ele><time>2026-03-29T15:46:32.001Z</time></trkpt><trkpt lat="37.24851424299401" lon="13.6801335812119"><ele>80.0</ele><time>2026-03-29T15:46:33.001Z</time></trkpt><trkpt lat="37.248370945930034" lon="13.679867621848729"><ele>79.0</ele><time>2026-03-29T15:46:34.001Z</time></trkpt><trkpt lat="37.24820227996786" lon="13.679621043565138"><ele>78.0</ele><time>2026-03-29T15:46:35.001Z</time></trkpt><trkpt lat="37.24802930612154" lon="13.679380017647837"><ele>77.0</ele><time>2026-03-29T15:46:36.001Z</time></trkpt><trkpt lat="37.24785707249132" lon="13.679139034352083"><ele>77.0</ele><time>2026-03-29T15:46:37.001Z</time></trkpt><trkpt lat="37.24768566577661" lon="13.678894341541307"><ele>77.0</ele><time>2026-03-29T15:46:38.001Z</time></trkpt><trkpt lat="37.247515034902754" lon="13.678648059543553"><ele>76.0</ele><time>2026-03-29T15:46:39.001Z</time></trkpt><trkpt lat="37.247341509277945" lon="13.678400159933613"><ele>75.0</ele><time>2026-03-29T15:46:40.001Z</time></trkpt><trkpt lat="37.247168645183244" lon="13.678154881939829"><ele>74.5</ele><time>2026-03-29T15:46:41.001Z</time></trkpt><trkpt lat="37.24699887458184" lon="13.67791162313508"><ele>74.0</ele><time>2026-03-29T15:46:42.001Z</time></trkpt><trkpt lat="37.24683565595611" lon="13.677675530445791"><ele>73.0</ele><time>2026-03-29T15:46:43.001Z</time></trkpt><trkpt lat="37.246681431601914" lon="13.67746017192759"><ele>72.0</ele><time>2026-03-29T15:46:44.001Z</time></trkpt><trkpt lat="37.24654355460308" lon="13.677231528049303"><ele>71.5</ele><time>2026-03-29T15:46:45.001Z</time></trkpt><trkpt lat="37.246392559184365" lon="13.677015394662092"><ele>71.0</ele><time>2026-03-29T15:46:46.001Z</time></trkpt><trkpt lat="37.24624412843026" lon="13.67680289431401"><ele>71.66666666666667</ele><time>2026-03-29T15:46:47.001Z</time></trkpt><trkpt lat="37.24609955468267" lon="13.676596297459028"><ele>72.33333333333333</ele><time>2026-03-29T15:46:48.001Z</time></trkpt><trkpt lat="37.24594764710878" lon="13.67640471771989"><ele>73.0</ele><time>2026-03-29T15:46:49.001Z</time></trkpt><trkpt lat="37.24581286798245" lon="13.676201243026584"><ele>72.33333333333333</ele><time>2026-03-29T15:46:50.001Z</time></trkpt><trkpt lat="37.24567810331521" lon="13.676002163851777"><ele>71.66666666666667</ele><time>2026-03-29T15:46:51.001Z</time></trkpt><trkpt lat="37.24554447324606" lon="13.675809505077769"><ele>71.0</ele><time>2026-03-29T15:46:52.001Z</time></trkpt><trkpt lat="37.24541872390343" lon="13.675626251192913"><ele>71.0</ele><time>2026-03-29T15:46:53.001Z</time></trkpt><trkpt lat="37.24529462840409" lon="13.675445462859702"><ele>71.0</ele><time>2026-03-29T15:46:54.001Z</time></trkpt><trkpt lat="37.24517204394414" lon="13.675268218835548"><ele>71.0</ele><time>2026-03-29T15:46:55.001Z</time></trkpt><trkpt lat="37.245052017503895" lon="13.675096302577542"><ele>70.33333333333334</ele><time>2026-03-29T15:46:56.001Z</time></trkpt><trkpt lat="37.24493739415891" lon="13.674929108815412"><ele>69.66666666666667</ele><time>2026-03-29T15:46:57.002Z</time></trkpt><trkpt lat="37.24482809962807" lon="13.674771075182125"><ele>69.0</ele><time>2026-03-29T15:46:58.002Z</time></trkpt><trkpt lat="37.24472183656213" lon="13.674621486805613"><ele>69.0</ele><time>2026-03-29T15:46:59.002Z</time></trkpt><trkpt lat="37.24462255172454" lon="13.674479707968091"><ele>69.0</ele><time>2026-03-29T15:47:00.002Z</time></trkpt><trkpt lat="37.24452961638519" lon="13.674344655424887"><ele>69.0</ele><time>2026-03-29T15:47:01.002Z</time></trkpt><trkpt lat="37.24444405861254" lon="13.674221957632438"><ele>69.0</ele><time>2026-03-29T15:47:02.002Z</time></trkpt><trkpt lat="37.244361442147266" lon="13.674104113252547"><ele>68.25</ele><time>2026-03-29T15:47:03.002Z</time></trkpt><trkpt lat="37.24428311945255" lon="13.6739916560358"><ele>67.5</ele><time>2026-03-29T15:47:04.002Z</time></trkpt><trkpt lat="37.244207052597055" lon="13.673880994242174"><ele>66.75</ele><time>2026-03-29T15:47:05.002Z</time></trkpt><trkpt lat="37.244124152163806" lon="13.673758056436233"><ele>66.0</ele><time>2026-03-29T15:47:06.002Z</time></trkpt><trkpt lat="37.24403360264197" lon="13.673627970342826"><ele>64.5</ele><time>2026-03-29T15:47:07.002Z</time></trkpt><trkpt lat="37.24394360717984" lon="13.673501091841214"><ele>63.0</ele><time>2026-03-29T15:47:08.002Z</time></trkpt><trkpt lat="37.24385778683006" lon="13.673378068704919"><ele>61.5</ele><time>2026-03-29T15:47:09.002Z</time></trkpt><trkpt lat="37.24377669613522" lon="13.673261161971833"><ele>60.0</ele><time>2026-03-29T15:47:10.002Z</time></trkpt><trkpt lat="37.24369913043695" lon="13.673150998728671"><ele>60.0</ele><time>2026-03-29T15:47:11.002Z</time></trkpt><trkpt lat="37.24362594077891" lon="13.673048597385526"><ele>60.0</ele><time>2026-03-29T15:47:12.002Z</time></trkpt><trkpt lat="37.24355614342774" lon="13.672949690091551"><ele>60.0</ele><time>2026-03-29T15:47:13.002Z</time></trkpt><trkpt lat="37.243492339957434" lon="13.672853707207569"><ele>60.0</ele><time>2026-03-29T15:47:14.002Z</time></trkpt><trkpt lat="37.24343350777407" lon="13.67276541437514"><ele>60.0</ele><time>2026-03-29T15:47:15.002Z</time></trkpt><trkpt lat="37.2433746000776" lon="13.672680141835768"><ele>60.0</ele><time>2026-03-29T15:47:16.002Z</time></trkpt><trkpt lat="37.24332187849622" lon="13.672598055656314"><ele>60.0</ele><time>2026-03-29T15:47:17.002Z</time></trkpt><trkpt lat="37.24328283367254" lon="13.672513730695808"><ele>60.0</ele><time>2026-03-29T15:47:18.002Z</time></trkpt><trkpt lat="37.24325952541955" lon="13.672424586568193"><ele>60.0</ele><time>2026-03-29T15:47:19.002Z</time></trkpt><trkpt lat="37.2432604645864" lon="13.672331943165931"><ele>60.0</ele><time>2026-03-29T15:47:20.002Z</time></trkpt><trkpt lat="37.24328433317891" lon="13.67223770291809"><ele>60.0</ele><time>2026-03-29T15:47:21.002Z</time></trkpt><trkpt lat="37.24333513750233" lon="13.672147998027285"><ele>60.0</ele><time>2026-03-29T15:47:22.002Z</time></trkpt><trkpt lat="37.24340400556544" lon="13.6720624808744"><ele>60.0</ele><time>2026-03-29T15:47:23.002Z</time></trkpt><trkpt lat="37.243467231700826" lon="13.671993620420642"><ele>60.0</ele><time>2026-03-29T15:47:24.002Z</time></trkpt><trkpt lat="37.243518120593215" lon="13.671940909495016"><ele>60.0</ele><time>2026-03-29T15:47:25.002Z</time></trkpt><trkpt lat="37.24357808286746" lon="13.671873878289775"><ele>60.0</ele><time>2026-03-29T15:47:27.002Z</time></trkpt><trkpt lat="37.24364157467688" lon="13.67178901530119"><ele>60.0</ele><time>2026-03-29T15:47:29.002Z</time></trkpt><trkpt lat="37.2437101196801" lon="13.671733871146934"><ele>59.75</ele><time>2026-03-29T15:47:31.002Z</time></trkpt><trkpt lat="37.243771387306474" lon="13.671676955645353"><ele>59.5</ele><time>2026-03-29T15:48:36.001Z</time></trkpt><trkpt lat="37.24387598462641" lon="13.671532253145921"><ele>59.25</ele><time>2026-03-29T15:48:38.001Z</time></trkpt><trkpt lat="37.243966371508336" lon="13.67140130023273"><ele>59.0</ele><time>2026-03-29T15:48:39.001Z</time></trkpt><trkpt lat="37.244074843891" lon="13.671245615642247"><ele>58.333333333333336</ele><time>2026-03-29T15:48:40.001Z</time></trkpt><trkpt lat="37.24420466870058" lon="13.67106946631629"><ele>57.66666666666667</ele><time>2026-03-29T15:48:41.001Z</time></trkpt><trkpt lat="37.24434678443797" lon="13.670878748029141"><ele>57.0</ele><time>2026-03-29T15:48:42.001Z</time></trkpt><trkpt lat="37.24449975226394" lon="13.670680652116692"><ele>57.0</ele><time>2026-03-29T15:48:43.001Z</time></trkpt><trkpt lat="37.244656565915314" lon="13.670484501183932"><ele>57.0</ele><time>2026-03-29T15:48:44.001Z</time></trkpt><trkpt lat="37.24481372852069" lon="13.670300182417828"><ele>57.0</ele><time>2026-03-29T15:48:45.001Z</time></trkpt><trkpt lat="37.24497664826799" lon="13.670124948539215"><ele>57.66666666666667</ele><time>2026-03-29T15:48:46.001Z</time></trkpt><trkpt lat="37.2451436745201" lon="13.66995986455608"><ele>58.333333333333336</ele><time>2026-03-29T15:48:47.001Z</time></trkpt><trkpt lat="37.24531448461374" lon="13.66980289880624"><ele>59.0</ele><time>2026-03-29T15:48:48.001Z</time></trkpt><trkpt lat="37.24548334414442" lon="13.66964879300974"><ele>59.333333333333336</ele><time>2026-03-29T15:48:49.002Z</time></trkpt><trkpt lat="37.245647226852" lon="13.669494692864445"><ele>59.66666666666667</ele><time>2026-03-29T15:48:50.002Z</time></trkpt><trkpt lat="37.24580726323113" lon="13.669344451585403"><ele>60.0</ele><time>2026-03-29T15:48:51.002Z</time></trkpt><trkpt lat="37.24596514931808" lon="13.669198570840042"><ele>60.0</ele><time>2026-03-29T15:48:52.002Z</time></trkpt><trkpt lat="37.24612167398785" lon="13.669063853076006"><ele>60.0</ele><time>2026-03-29T15:48:53.002Z</time></trkpt><trkpt lat="37.246276005428044" lon="13.668930220059906"><ele>60.0</ele><time>2026-03-29T15:48:54.002Z</time></trkpt><trkpt lat="37.24642760925872" lon="13.668805951654717"><ele>60.0</ele><time>2026-03-29T15:48:55.002Z</time></trkpt><trkpt lat="37.246573972162345" lon="13.668686969399653"><ele>60.0</ele><time>2026-03-29T15:48:56.002Z</time></trkpt><trkpt lat="37.24671453312035" lon="13.668573577655774"><ele>60.0</ele><time>2026-03-29T15:48:57.002Z</time></trkpt><trkpt lat="37.246846020688935" lon="13.668471544279502"><ele>60.0</ele><time>2026-03-29T15:48:58.002Z</time></trkpt><trkpt lat="37.246967710473115" lon="13.66837638321897"><ele>60.0</ele><time>2026-03-29T15:48:59.002Z</time></trkpt><trkpt lat="37.247081443520216" lon="13.66828915176432"><ele>60.0</ele><time>2026-03-29T15:49:00.002Z</time></trkpt><trkpt lat="37.247188850154025" lon="13.668207672493725"><ele>60.0</ele><time>2026-03-29T15:49:01.002Z</time></trkpt><trkpt lat="37.24728097719081" lon="13.668145032703622"><ele>60.2</ele><time>2026-03-29T15:49:02.002Z</time></trkpt><trkpt lat="37.24734992308741" lon="13.668101292391187"><ele>60.4</ele><time>2026-03-29T15:49:03.002Z</time></trkpt><trkpt lat="37.247430478236495" lon="13.668067755299145"><ele>60.599999999999994</ele><time>2026-03-29T15:49:05.002Z</time></trkpt><trkpt lat="37.24747559468258" lon="13.668009636579129"><ele>60.8</ele><time>2026-03-29T15:49:17.002Z</time></trkpt><trkpt lat="37.24759112519466" lon="13.66790306872678"><ele>61.0</ele><time>2026-03-29T15:49:19.002Z</time></trkpt><trkpt lat="37.24768546418633" lon="13.66782945695999"><ele>61.0</ele><time>2026-03-29T15:49:20.002Z</time></trkpt><trkpt lat="37.24779577754106" lon="13.66774178369181"><ele>61.0</ele><time>2026-03-29T15:49:21.002Z</time></trkpt><trkpt lat="37.24792686547175" lon="13.667641364939211"><ele>61.0</ele><time>2026-03-29T15:49:22.002Z</time></trkpt><trkpt lat="37.24807649463275" lon="13.667524962564377"><ele>61.0</ele><time>2026-03-29T15:49:23.002Z</time></trkpt><trkpt lat="37.248243819243775" lon="13.667387739116862"><ele>61.0</ele><time>2026-03-29T15:49:24.002Z</time></trkpt><trkpt lat="37.24843726921194" lon="13.667265822090599"><ele>61.0</ele><time>2026-03-29T15:49:25.002Z</time></trkpt><trkpt lat="37.24863667476215" lon="13.667117890151928"><ele>61.0</ele><time>2026-03-29T15:49:26.002Z</time></trkpt><trkpt lat="37.2488504728734" lon="13.66695954345776"><ele>61.0</ele><time>2026-03-29T15:49:27.002Z</time></trkpt><trkpt lat="37.24906948411442" lon="13.666797482827983"><ele>60.5</ele><time>2026-03-29T15:49:28.002Z</time></trkpt><trkpt lat="37.249294734222374" lon="13.666630805650204"><ele>60.0</ele><time>2026-03-29T15:49:29.002Z</time></trkpt><trkpt lat="37.24951510304328" lon="13.666444122542973"><ele>60.0</ele><time>2026-03-29T15:49:30.002Z</time></trkpt><trkpt lat="37.24974220057106" lon="13.666277131986629"><ele>60.0</ele><time>2026-03-29T15:49:31.002Z</time></trkpt><trkpt lat="37.249962071721605" lon="13.666115877280648"><ele>60.0</ele><time>2026-03-29T15:49:32.002Z</time></trkpt><trkpt lat="37.25017363917369" lon="13.665960204120827"><ele>60.0</ele><time>2026-03-29T15:49:33.002Z</time></trkpt><trkpt lat="37.2503800743418" lon="13.665813555099104"><ele>60.0</ele><time>2026-03-29T15:49:34.002Z</time></trkpt><trkpt lat="37.25059212598683" lon="13.665680235496112"><ele>60.0</ele><time>2026-03-29T15:49:35.002Z</time></trkpt><trkpt lat="37.2508159507884" lon="13.665564218988768"><ele>59.5</ele><time>2026-03-29T15:49:36.002Z</time></trkpt><trkpt lat="37.25105140154482" lon="13.665464822774464"><ele>59.0</ele><time>2026-03-29T15:49:37.003Z</time></trkpt><trkpt lat="37.25129794499957" lon="13.665383880065546"><ele>59.0</ele><time>2026-03-29T15:49:38.003Z</time></trkpt><trkpt lat="37.251550731609" lon="13.665311797994082"><ele>59.0</ele><time>2026-03-29T15:49:39.003Z</time></trkpt><trkpt lat="37.25181220965627" lon="13.665236996519642"><ele>59.5</ele><time>2026-03-29T15:49:40.003Z</time></trkpt><trkpt lat="37.25207064604426" lon="13.665158071550287"><ele>60.0</ele><time>2026-03-29T15:49:41.003Z</time></trkpt><trkpt lat="37.25232988893525" lon="13.66507842807128"><ele>60.0</ele><time>2026-03-29T15:49:42.003Z</time></trkpt><trkpt lat="37.25257541332443" lon="13.66500485822692"><ele>60.0</ele><time>2026-03-29T15:49:43.003Z</time></trkpt><trkpt lat="37.25280266143633" lon="13.664939241581358"><ele>60.0</ele><time>2026-03-29T15:49:44.003Z</time></trkpt><trkpt lat="37.253024506212256" lon="13.664874146700528"><ele>60.0</ele><time>2026-03-29T15:49:45.003Z</time></trkpt><trkpt lat="37.253245557929816" lon="13.66481049622033"><ele>60.66666666666667</ele><time>2026-03-29T15:49:46.003Z</time></trkpt><trkpt lat="37.25346151129327" lon="13.664748575168376"><ele>61.333333333333336</ele><time>2026-03-29T15:49:47.003Z</time></trkpt><trkpt lat="37.25366502408227" lon="13.664690020598286"><ele>62.0</ele><time>2026-03-29T15:49:48.003Z</time></trkpt><trkpt lat="37.25386063566749" lon="13.664631612737692"><ele>62.66666666666667</ele><time>2026-03-29T15:49:49.003Z</time></trkpt><trkpt lat="37.25403835528662" lon="13.664576212626727"><ele>63.33333333333333</ele><time>2026-03-29T15:49:50.003Z</time></trkpt><trkpt lat="37.25420189973418" lon="13.664525908758632"><ele>64.0</ele><time>2026-03-29T15:49:51.003Z</time></trkpt><trkpt lat="37.254354695792784" lon="13.664478871245118"><ele>64.0</ele><time>2026-03-29T15:49:52.003Z</time></trkpt><trkpt lat="37.254506409654255" lon="13.664431153874355"><ele>64.0</ele><time>2026-03-29T15:49:53.003Z</time></trkpt><trkpt lat="37.25464535320902" lon="13.664385133438689"><ele>64.0</ele><time>2026-03-29T15:49:54.003Z</time></trkpt><trkpt lat="37.254773266908984" lon="13.664340222290447"><ele>64.0</ele><time>2026-03-29T15:49:55.003Z</time></trkpt><trkpt lat="37.25488085285257" lon="13.664298655972493"><ele>64.0</ele><time>2026-03-29T15:49:56.002Z</time></trkpt><trkpt lat="37.25496919253862" lon="13.664259475621874"><ele>64.0</ele><time>2026-03-29T15:49:57.002Z</time></trkpt><trkpt lat="37.25504463734631" lon="13.664224285418038"><ele>64.0</ele><time>2026-03-29T15:49:58.002Z</time></trkpt><trkpt lat="37.255123086415885" lon="13.664180976253926"><ele>64.0</ele><time>2026-03-29T15:49:59.002Z</time></trkpt><trkpt lat="37.25523046519932" lon="13.664118286711016"><ele>64.0</ele><time>2026-03-29T15:50:00.002Z</time></trkpt><trkpt lat="37.25534404630936" lon="13.664044813362437"><ele>64.0</ele><time>2026-03-29T15:50:01.002Z</time></trkpt><trkpt lat="37.2554637539245" lon="13.663958706251705"><ele>64.0</ele><time>2026-03-29T15:50:02Z</time></trkpt><trkpt lat="37.25557854232471" lon="13.663864714227646"><ele>64.0</ele><time>2026-03-29T15:50:03Z</time></trkpt><trkpt lat="37.25568437563471" lon="13.663767808859747"><ele>64.0</ele><time>2026-03-29T15:50:04Z</time></trkpt><trkpt lat="37.2557844549611" lon="13.663666957138227"><ele>70.0</ele><time>2026-03-29T15:50:05Z</time></trkpt><trkpt lat="37.25588217638262" lon="13.663560458581292"><ele>68.0</ele><time>2026-03-29T15:50:06Z</time></trkpt><trkpt lat="37.25597520108294" lon="13.663442157949854"><ele>68.0</ele><time>2026-03-29T15:50:07Z</time></trkpt><trkpt lat="37.25597520108294" lon="13.663442157949854"><ele>68.0</ele><time>2026-03-29T15:50:07Z</time></trkpt></trkseg></trk></gpx>